<?xml version='1.0' encoding='UTF-8'?><gpx version="1.1" creator="JPX - https://github.com/jenetics/jpx" xmlns="http://www.topografix.com/GPX/1/1"><trk><trkseg><trkpt lat="45.053725" lon="9.6502267"><ele>62.0</ele><time>2026-03-27T08:41:41.647Z</time></trkpt><trkpt lat="45.0538" lon="9.650245"><ele>62.0</ele><time>2026-03-27T08:41:43.647Z</time></trkpt><trkpt lat="45.0539317" lon="9.6502767"><ele>62.0</ele><time>2026-03-27T08:41:45.647Z</time></trkpt><trkpt lat="45.054055" lon="9.6503017"><ele>62.0</ele><time>2026-03-27T08:41:46.647Z</time></trkpt><trkpt lat="45.054175" lon="9.6503283"><ele>61.5</ele><time>2026-03-27T08:41:47.647Z</time></trkpt><trkpt lat="45.0543083" lon="9.6503633"><ele>61.0</ele><time>2026-03-27T08:41:48.646Z</time></trkpt><trkpt lat="45.0544517" lon="9.6504117"><ele>60.5</ele><time>2026-03-27T08:41:49.647Z</time></trkpt><trkpt lat="45.0545783" lon="9.65046"><ele>60.0</ele><time>2026-03-27T08:41:50.649Z</time></trkpt><trkpt lat="45.054675" lon="9.6504917"><ele>60.0</ele><time>2026-03-27T08:41:51.646Z</time></trkpt><trkpt lat="45.0547433" lon="9.6505083"><ele>60.0</ele><time>2026-03-27T08:41:52.646Z</time></trkpt><trkpt lat="45.0548333" lon="9.6505167"><ele>60.0</ele><time>2026-03-27T08:41:54.647Z</time></trkpt><trkpt lat="45.0548733" lon="9.6505983"><ele>60.0</ele><time>2026-03-27T08:41:58.647Z</time></trkpt><trkpt lat="45.0549333" lon="9.650555"><ele>60.0</ele><time>2026-03-27T08:42:00.647Z</time></trkpt><trkpt lat="45.054965" lon="9.6504167"><ele>60.0</ele><time>2026-03-27T08:42:03.646Z</time></trkpt><trkpt lat="45.0549733" lon="9.6503233"><ele>59.6</ele><time>2026-03-27T08:42:04.646Z</time></trkpt><trkpt lat="45.0549817" lon="9.65021"><ele>59.2</ele><time>2026-03-27T08:42:05.646Z</time></trkpt><trkpt lat="45.054995" lon="9.6500733"><ele>58.8</ele><time>2026-03-27T08:42:06.646Z</time></trkpt><trkpt lat="45.0550067" lon="9.6499217"><ele>58.4</ele><time>2026-03-27T08:42:07.648Z</time></trkpt><trkpt lat="45.0550117" lon="9.6497583"><ele>58.0</ele><time>2026-03-27T08:42:08.648Z</time></trkpt><trkpt lat="45.0550133" lon="9.64959"><ele>58.4</ele><time>2026-03-27T08:42:09.648Z</time></trkpt><trkpt lat="45.0550167" lon="9.6494267"><ele>58.8</ele><time>2026-03-27T08:42:10.647Z</time></trkpt><trkpt lat="45.05502" lon="9.64928"><ele>59.2</ele><time>2026-03-27T08:42:11.651Z</time></trkpt><trkpt lat="45.0550283" lon="9.64915"><ele>59.6</ele><time>2026-03-27T08:42:12.647Z</time></trkpt><trkpt lat="45.0550333" lon="9.6490167"><ele>60.0</ele><time>2026-03-27T08:42:13.646Z</time></trkpt><trkpt lat="45.0550383" lon="9.6488867"><ele>60.0</ele><time>2026-03-27T08:42:14.648Z</time></trkpt><trkpt lat="45.0550433" lon="9.648755"><ele>60.0</ele><time>2026-03-27T08:42:15.647Z</time></trkpt><trkpt lat="45.05505" lon="9.6486267"><ele>60.0</ele><time>2026-03-27T08:42:16.648Z</time></trkpt><trkpt lat="45.0550517" lon="9.64846"><ele>60.0</ele><time>2026-03-27T08:42:17.647Z</time></trkpt><trkpt lat="45.0550567" lon="9.6483"><ele>60.0</ele><time>2026-03-27T08:42:18.648Z</time></trkpt><trkpt lat="45.0550633" lon="9.64814"><ele>60.2</ele><time>2026-03-27T08:42:19.649Z</time></trkpt><trkpt lat="45.0550667" lon="9.6479817"><ele>60.4</ele><time>2026-03-27T08:42:20.647Z</time></trkpt><trkpt lat="45.05507" lon="9.6478233"><ele>60.599999999999994</ele><time>2026-03-27T08:42:21.648Z</time></trkpt><trkpt lat="45.0550733" lon="9.6476733"><ele>60.8</ele><time>2026-03-27T08:42:22.647Z</time></trkpt><trkpt lat="45.0550733" lon="9.64753"><ele>61.0</ele><time>2026-03-27T08:42:23.649Z</time></trkpt><trkpt lat="45.0550783" lon="9.6474"><ele>60.599999999999994</ele><time>2026-03-27T08:42:24.647Z</time></trkpt><trkpt lat="45.0550833" lon="9.6472883"><ele>60.199999999999996</ele><time>2026-03-27T08:42:25.647Z</time></trkpt><trkpt lat="45.0550883" lon="9.647195"><ele>59.800000000000004</ele><time>2026-03-27T08:42:26.648Z</time></trkpt><trkpt lat="45.0550867" lon="9.6470317"><ele>59.400000000000006</ele><time>2026-03-27T08:42:28.647Z</time></trkpt><trkpt lat="45.0551" lon="9.6468717"><ele>59.0</ele><time>2026-03-27T08:42:30.647Z</time></trkpt><trkpt lat="45.0550817" lon="9.6466917"><ele>59.00000000000001</ele><time>2026-03-27T08:42:32.648Z</time></trkpt><trkpt lat="45.0550883" lon="9.6465883"><ele>59.0</ele><time>2026-03-27T08:42:33.647Z</time></trkpt><trkpt lat="45.0550867" lon="9.6464767"><ele>59.0</ele><time>2026-03-27T08:42:34.647Z</time></trkpt><trkpt lat="45.0550867" lon="9.646365"><ele>59.0</ele><time>2026-03-27T08:42:35.646Z</time></trkpt><trkpt lat="45.055085" lon="9.646245"><ele>59.00000000000001</ele><time>2026-03-27T08:42:36.649Z</time></trkpt><trkpt lat="45.055085" lon="9.6461067"><ele>59.0</ele><time>2026-03-27T08:42:37.646Z</time></trkpt><trkpt lat="45.055085" lon="9.6459667"><ele>59.0</ele><time>2026-03-27T08:42:38.647Z</time></trkpt><trkpt lat="45.055085" lon="9.6458317"><ele>59.00000000000001</ele><time>2026-03-27T08:42:39.648Z</time></trkpt><trkpt lat="45.055085" lon="9.6457033"><ele>59.00000000000001</ele><time>2026-03-27T08:42:40.647Z</time></trkpt><trkpt lat="45.0550933" lon="9.6455783"><ele>59.0</ele><time>2026-03-27T08:42:41.649Z</time></trkpt><trkpt lat="45.0551" lon="9.6454517"><ele>59.0</ele><time>2026-03-27T08:42:42.649Z</time></trkpt><trkpt lat="45.0551083" lon="9.6453183"><ele>59.0</ele><time>2026-03-27T08:42:43.65Z</time></trkpt><trkpt lat="45.0551167" lon="9.6451767"><ele>59.00000000000001</ele><time>2026-03-27T08:42:44.646Z</time></trkpt><trkpt lat="45.055125" lon="9.6450267"><ele>59.00000000000001</ele><time>2026-03-27T08:42:45.646Z</time></trkpt><trkpt lat="45.0551317" lon="9.64487"><ele>59.0</ele><time>2026-03-27T08:42:46.647Z</time></trkpt><trkpt lat="45.0551367" lon="9.64471"><ele>59.0</ele><time>2026-03-27T08:42:47.647Z</time></trkpt><trkpt lat="45.0551383" lon="9.644555"><ele>59.0</ele><time>2026-03-27T08:42:48.647Z</time></trkpt><trkpt lat="45.0551383" lon="9.644405"><ele>59.00000000000001</ele><time>2026-03-27T08:42:49.648Z</time></trkpt><trkpt lat="45.055135" lon="9.6442517"><ele>59.00000000000001</ele><time>2026-03-27T08:42:50.647Z</time></trkpt><trkpt lat="45.0551383" lon="9.6441067"><ele>59.0</ele><time>2026-03-27T08:42:51.648Z</time></trkpt><trkpt lat="45.0551467" lon="9.6439583"><ele>59.0</ele><time>2026-03-27T08:42:52.646Z</time></trkpt><trkpt lat="45.0551517" lon="9.643795"><ele>59.0</ele><time>2026-03-27T08:42:53.647Z</time></trkpt><trkpt lat="45.0551567" lon="9.6436367"><ele>59.00000000000001</ele><time>2026-03-27T08:42:54.648Z</time></trkpt><trkpt lat="45.055165" lon="9.6434833"><ele>59.00000000000001</ele><time>2026-03-27T08:42:55.652Z</time></trkpt><trkpt lat="45.05517" lon="9.6433267"><ele>59.0</ele><time>2026-03-27T08:42:56.647Z</time></trkpt><trkpt lat="45.0551767" lon="9.6431733"><ele>59.0</ele><time>2026-03-27T08:42:57.647Z</time></trkpt><trkpt lat="45.0551817" lon="9.6430083"><ele>59.0</ele><time>2026-03-27T08:42:58.648Z</time></trkpt><trkpt lat="45.0551817" lon="9.6428333"><ele>59.0</ele><time>2026-03-27T08:42:59.65Z</time></trkpt><trkpt lat="45.0551867" lon="9.642665"><ele>59.0</ele><time>2026-03-27T08:43:00.648Z</time></trkpt><trkpt lat="45.0551767" lon="9.6424933"><ele>59.0</ele><time>2026-03-27T08:43:01.646Z</time></trkpt><trkpt lat="45.055175" lon="9.6423033"><ele>58.75</ele><time>2026-03-27T08:43:02.647Z</time></trkpt><trkpt lat="45.0551733" lon="9.642115"><ele>58.5</ele><time>2026-03-27T08:43:03.647Z</time></trkpt><trkpt lat="45.05518" lon="9.6419333"><ele>58.25</ele><time>2026-03-27T08:43:04.647Z</time></trkpt><trkpt lat="45.055185" lon="9.6417567"><ele>58.0</ele><time>2026-03-27T08:43:05.65Z</time></trkpt><trkpt lat="45.05519" lon="9.6415783"><ele>58.0</ele><time>2026-03-27T08:43:06.647Z</time></trkpt><trkpt lat="45.055195" lon="9.6414"><ele>58.0</ele><time>2026-03-27T08:43:07.646Z</time></trkpt><trkpt lat="45.055205" lon="9.6412217"><ele>58.0</ele><time>2026-03-27T08:43:08.65Z</time></trkpt><trkpt lat="45.0552083" lon="9.6410383"><ele>58.0</ele><time>2026-03-27T08:43:09.646Z</time></trkpt><trkpt lat="45.055215" lon="9.64085"><ele>58.25</ele><time>2026-03-27T08:43:10.649Z</time></trkpt><trkpt lat="45.05522" lon="9.64066"><ele>58.5</ele><time>2026-03-27T08:43:11.648Z</time></trkpt><trkpt lat="45.0552233" lon="9.640465"><ele>58.75</ele><time>2026-03-27T08:43:12.648Z</time></trkpt><trkpt lat="45.05523" lon="9.6402733"><ele>59.0</ele><time>2026-03-27T08:43:13.651Z</time></trkpt><trkpt lat="45.055235" lon="9.6400883"><ele>59.2</ele><time>2026-03-27T08:43:14.648Z</time></trkpt><trkpt lat="45.0552383" lon="9.63992"><ele>59.400000000000006</ele><time>2026-03-27T08:43:15.65Z</time></trkpt><trkpt lat="45.05524" lon="9.639765"><ele>59.6</ele><time>2026-03-27T08:43:16.647Z</time></trkpt><trkpt lat="45.0552433" lon="9.63962"><ele>59.8</ele><time>2026-03-27T08:43:17.647Z</time></trkpt><trkpt lat="45.0552433" lon="9.6394833"><ele>60.0</ele><time>2026-03-27T08:43:18.647Z</time></trkpt><trkpt lat="45.0552383" lon="9.6393617"><ele>60.0</ele><time>2026-03-27T08:43:19.647Z</time></trkpt><trkpt lat="45.05523" lon="9.6392533"><ele>60.0</ele><time>2026-03-27T08:43:20.647Z</time></trkpt><trkpt lat="45.05522" lon="9.639145"><ele>60.0</ele><time>2026-03-27T08:43:21.646Z</time></trkpt><trkpt lat="45.0552083" lon="9.6390183"><ele>60.0</ele><time>2026-03-27T08:43:22.647Z</time></trkpt><trkpt lat="45.055205" lon="9.6388733"><ele>60.0</ele><time>2026-03-27T08:43:23.646Z</time></trkpt><trkpt lat="45.0552083" lon="9.638725"><ele>60.25</ele><time>2026-03-27T08:43:24.647Z</time></trkpt><trkpt lat="45.055215" lon="9.6385683"><ele>60.5</ele><time>2026-03-27T08:43:25.646Z</time></trkpt><trkpt lat="45.0552233" lon="9.6383967"><ele>60.75</ele><time>2026-03-27T08:43:26.646Z</time></trkpt><trkpt lat="45.0552383" lon="9.638205"><ele>61.0</ele><time>2026-03-27T08:43:27.647Z</time></trkpt><trkpt lat="45.055255" lon="9.637995"><ele>60.5</ele><time>2026-03-27T08:43:28.647Z</time></trkpt><trkpt lat="45.0552733" lon="9.6377833"><ele>60.0</ele><time>2026-03-27T08:43:29.647Z</time></trkpt><trkpt lat="45.05529" lon="9.6375767"><ele>59.5</ele><time>2026-03-27T08:43:30.646Z</time></trkpt><trkpt lat="45.0553017" lon="9.6373817"><ele>59.0</ele><time>2026-03-27T08:43:31.647Z</time></trkpt><trkpt lat="45.0553117" lon="9.6371883"><ele>59.0</ele><time>2026-03-27T08:43:32.648Z</time></trkpt><trkpt lat="45.05532" lon="9.636995"><ele>59.0</ele><time>2026-03-27T08:43:33.647Z</time></trkpt><trkpt lat="45.0553283" lon="9.6368"><ele>59.0</ele><time>2026-03-27T08:43:34.649Z</time></trkpt><trkpt lat="45.0553367" lon="9.6366067"><ele>59.0</ele><time>2026-03-27T08:43:35.646Z</time></trkpt><trkpt lat="45.0553417" lon="9.6364133"><ele>58.5</ele><time>2026-03-27T08:43:36.649Z</time></trkpt><trkpt lat="45.055345" lon="9.6362217"><ele>58.0</ele><time>2026-03-27T08:43:37.646Z</time></trkpt><trkpt lat="45.0553483" lon="9.6360267"><ele>57.5</ele><time>2026-03-27T08:43:38.646Z</time></trkpt><trkpt lat="45.0553533" lon="9.6358217"><ele>57.0</ele><time>2026-03-27T08:43:39.647Z</time></trkpt><trkpt lat="45.0553583" lon="9.6356167"><ele>56.66666666666667</ele><time>2026-03-27T08:43:40.646Z</time></trkpt><trkpt lat="45.0553633" lon="9.6354"><ele>56.333333333333336</ele><time>2026-03-27T08:43:41.651Z</time></trkpt><trkpt lat="45.0553717" lon="9.6351817"><ele>56.0</ele><time>2026-03-27T08:43:42.646Z</time></trkpt><trkpt lat="45.0553783" lon="9.6349583"><ele>55.66666666666667</ele><time>2026-03-27T08:43:43.648Z</time></trkpt><trkpt lat="45.055385" lon="9.634735"><ele>55.33333333333333</ele><time>2026-03-27T08:43:44.647Z</time></trkpt><trkpt lat="45.05539" lon="9.6345167"><ele>55.0</ele><time>2026-03-27T08:43:45.647Z</time></trkpt><trkpt lat="45.05539" lon="9.6343033"><ele>54.33333333333333</ele><time>2026-03-27T08:43:46.646Z</time></trkpt><trkpt lat="45.0553933" lon="9.634085"><ele>53.66666666666667</ele><time>2026-03-27T08:43:47.648Z</time></trkpt><trkpt lat="45.0553983" lon="9.63387"><ele>53.0</ele><time>2026-03-27T08:43:48.647Z</time></trkpt><trkpt lat="45.055405" lon="9.63365"><ele>53.0</ele><time>2026-03-27T08:43:49.646Z</time></trkpt><trkpt lat="45.05541" lon="9.6334317"><ele>53.0</ele><time>2026-03-27T08:43:50.648Z</time></trkpt><trkpt lat="45.055415" lon="9.6332183"><ele>53.0</ele><time>2026-03-27T08:43:51.647Z</time></trkpt><trkpt lat="45.0554217" lon="9.6330033"><ele>52.66666666666667</ele><time>2026-03-27T08:43:52.646Z</time></trkpt><trkpt lat="45.0554283" lon="9.6327817"><ele>52.33333333333333</ele><time>2026-03-27T08:43:53.65Z</time></trkpt><trkpt lat="45.055435" lon="9.63256"><ele>52.0</ele><time>2026-03-27T08:43:54.648Z</time></trkpt><trkpt lat="45.0554433" lon="9.63235"><ele>52.0</ele><time>2026-03-27T08:43:55.647Z</time></trkpt><trkpt lat="45.05545" lon="9.632155"><ele>52.0</ele><time>2026-03-27T08:43:56.647Z</time></trkpt><trkpt lat="45.0554567" lon="9.6319583"><ele>52.0</ele><time>2026-03-27T08:43:57.647Z</time></trkpt><trkpt lat="45.0554617" lon="9.6317467"><ele>52.0</ele><time>2026-03-27T08:43:58.646Z</time></trkpt><trkpt lat="45.05547" lon="9.6315317"><ele>52.25</ele><time>2026-03-27T08:43:59.649Z</time></trkpt><trkpt lat="45.055475" lon="9.6313217"><ele>52.5</ele><time>2026-03-27T08:44:00.648Z</time></trkpt><trkpt lat="45.0554817" lon="9.6311233"><ele>52.75</ele><time>2026-03-27T08:44:01.648Z</time></trkpt><trkpt lat="45.0554867" lon="9.63094"><ele>53.0</ele><time>2026-03-27T08:44:02.647Z</time></trkpt><trkpt lat="45.05549" lon="9.630765"><ele>53.5</ele><time>2026-03-27T08:44:03.648Z</time></trkpt><trkpt lat="45.055495" lon="9.6305867"><ele>54.0</ele><time>2026-03-27T08:44:04.647Z</time></trkpt><trkpt lat="45.0554983" lon="9.630405"><ele>54.5</ele><time>2026-03-27T08:44:05.647Z</time></trkpt><trkpt lat="45.0555033" lon="9.6302333"><ele>55.0</ele><time>2026-03-27T08:44:06.648Z</time></trkpt><trkpt lat="45.0555083" lon="9.630065"><ele>55.25</ele><time>2026-03-27T08:44:07.647Z</time></trkpt><trkpt lat="45.0555117" lon="9.6298967"><ele>55.5</ele><time>2026-03-27T08:44:08.647Z</time></trkpt><trkpt lat="45.0555133" lon="9.6297283"><ele>55.75</ele><time>2026-03-27T08:44:09.649Z</time></trkpt><trkpt lat="45.0555167" lon="9.6295583"><ele>56.0</ele><time>2026-03-27T08:44:10.647Z</time></trkpt><trkpt lat="45.05552" lon="9.629385"><ele>56.0</ele><time>2026-03-27T08:44:11.651Z</time></trkpt><trkpt lat="45.0555217" lon="9.6292117"><ele>56.0</ele><time>2026-03-27T08:44:12.648Z</time></trkpt><trkpt lat="45.055525" lon="9.6290367"><ele>56.0</ele><time>2026-03-27T08:44:13.648Z</time></trkpt><trkpt lat="45.0555317" lon="9.6288617"><ele>56.0</ele><time>2026-03-27T08:44:14.647Z</time></trkpt><trkpt lat="45.0555417" lon="9.6286867"><ele>56.0</ele><time>2026-03-27T08:44:15.647Z</time></trkpt><trkpt lat="45.0555483" lon="9.6285183"><ele>56.0</ele><time>2026-03-27T08:44:16.647Z</time></trkpt><trkpt lat="45.0555533" lon="9.62835"><ele>56.0</ele><time>2026-03-27T08:44:17.647Z</time></trkpt><trkpt lat="45.0555583" lon="9.6281767"><ele>56.0</ele><time>2026-03-27T08:44:18.647Z</time></trkpt><trkpt lat="45.0555617" lon="9.6280033"><ele>56.0</ele><time>2026-03-27T08:44:19.647Z</time></trkpt><trkpt lat="45.055565" lon="9.627825"><ele>56.0</ele><time>2026-03-27T08:44:20.649Z</time></trkpt><trkpt lat="45.05557" lon="9.62764"><ele>56.0</ele><time>2026-03-27T08:44:21.647Z</time></trkpt><trkpt lat="45.055575" lon="9.627455"><ele>56.0</ele><time>2026-03-27T08:44:22.647Z</time></trkpt><trkpt lat="45.0555783" lon="9.6272667"><ele>55.75</ele><time>2026-03-27T08:44:23.647Z</time></trkpt><trkpt lat="45.0555817" lon="9.6270717"><ele>55.5</ele><time>2026-03-27T08:44:24.648Z</time></trkpt><trkpt lat="45.0555833" lon="9.626875"><ele>55.25</ele><time>2026-03-27T08:44:25.648Z</time></trkpt><trkpt lat="45.0555883" lon="9.626665"><ele>55.0</ele><time>2026-03-27T08:44:26.648Z</time></trkpt><trkpt lat="45.0555933" lon="9.6264417"><ele>54.75</ele><time>2026-03-27T08:44:27.647Z</time></trkpt><trkpt lat="45.0556" lon="9.6262233"><ele>54.5</ele><time>2026-03-27T08:44:28.647Z</time></trkpt><trkpt lat="45.055605" lon="9.626015"><ele>54.25</ele><time>2026-03-27T08:44:29.648Z</time></trkpt><trkpt lat="45.0556117" lon="9.6258133"><ele>54.0</ele><time>2026-03-27T08:44:30.648Z</time></trkpt><trkpt lat="45.0556183" lon="9.625605"><ele>54.0</ele><time>2026-03-27T08:44:31.647Z</time></trkpt><trkpt lat="45.0556267" lon="9.625405"><ele>54.0</ele><time>2026-03-27T08:44:32.648Z</time></trkpt><trkpt lat="45.055635" lon="9.6252083"><ele>54.0</ele><time>2026-03-27T08:44:33.651Z</time></trkpt><trkpt lat="45.0556417" lon="9.6250067"><ele>54.0</ele><time>2026-03-27T08:44:34.647Z</time></trkpt><trkpt lat="45.05565" lon="9.6248083"><ele>54.5</ele><time>2026-03-27T08:44:35.647Z</time></trkpt><trkpt lat="45.055655" lon="9.624605"><ele>55.0</ele><time>2026-03-27T08:44:36.647Z</time></trkpt><trkpt lat="45.0556583" lon="9.6243917"><ele>55.5</ele><time>2026-03-27T08:44:37.647Z</time></trkpt><trkpt lat="45.0556617" lon="9.6241733"><ele>56.0</ele><time>2026-03-27T08:44:38.647Z</time></trkpt><trkpt lat="45.0556667" lon="9.6239617"><ele>56.0</ele><time>2026-03-27T08:44:39.647Z</time></trkpt><trkpt lat="45.05567" lon="9.6237617"><ele>56.0</ele><time>2026-03-27T08:44:40.648Z</time></trkpt><trkpt lat="45.055675" lon="9.6235683"><ele>56.0</ele><time>2026-03-27T08:44:41.647Z</time></trkpt><trkpt lat="45.05568" lon="9.6233683"><ele>56.0</ele><time>2026-03-27T08:44:42.647Z</time></trkpt><trkpt lat="45.0556833" lon="9.6231567"><ele>56.0</ele><time>2026-03-27T08:44:43.647Z</time></trkpt><trkpt lat="45.05569" lon="9.62294"><ele>56.0</ele><time>2026-03-27T08:44:44.647Z</time></trkpt><trkpt lat="45.055695" lon="9.62272"><ele>56.0</ele><time>2026-03-27T08:44:45.646Z</time></trkpt><trkpt lat="45.0557" lon="9.622505"><ele>56.25</ele><time>2026-03-27T08:44:46.646Z</time></trkpt><trkpt lat="45.0557033" lon="9.6223"><ele>56.5</ele><time>2026-03-27T08:44:47.648Z</time></trkpt><trkpt lat="45.05571" lon="9.6221"><ele>56.75</ele><time>2026-03-27T08:44:48.648Z</time></trkpt><trkpt lat="45.055715" lon="9.6219"><ele>57.0</ele><time>2026-03-27T08:44:49.648Z</time></trkpt><trkpt lat="45.0557217" lon="9.621695"><ele>57.25</ele><time>2026-03-27T08:44:50.65Z</time></trkpt><trkpt lat="45.0557267" lon="9.621495"><ele>57.5</ele><time>2026-03-27T08:44:51.652Z</time></trkpt><trkpt lat="45.055735" lon="9.6213033"><ele>57.75</ele><time>2026-03-27T08:44:52.649Z</time></trkpt><trkpt lat="45.0557417" lon="9.6211183"><ele>58.0</ele><time>2026-03-27T08:44:53.649Z</time></trkpt><trkpt lat="45.05575" lon="9.6209333"><ele>58.0</ele><time>2026-03-27T08:44:54.648Z</time></trkpt><trkpt lat="45.0557533" lon="9.6207533"><ele>58.0</ele><time>2026-03-27T08:44:55.648Z</time></trkpt><trkpt lat="45.0557583" lon="9.6205733"><ele>58.0</ele><time>2026-03-27T08:44:56.649Z</time></trkpt><trkpt lat="45.055765" lon="9.62039"><ele>58.0</ele><time>2026-03-27T08:44:57.65Z</time></trkpt><trkpt lat="45.0557717" lon="9.6202017"><ele>58.0</ele><time>2026-03-27T08:44:58.648Z</time></trkpt><trkpt lat="45.0557767" lon="9.620005"><ele>58.0</ele><time>2026-03-27T08:44:59.646Z</time></trkpt><trkpt lat="45.0557817" lon="9.6198133"><ele>58.0</ele><time>2026-03-27T08:45:00.647Z</time></trkpt><trkpt lat="45.0557883" lon="9.6196183"><ele>58.0</ele><time>2026-03-27T08:45:01.648Z</time></trkpt><trkpt lat="45.055795" lon="9.6194233"><ele>58.0</ele><time>2026-03-27T08:45:02.647Z</time></trkpt><trkpt lat="45.0558017" lon="9.61923"><ele>58.0</ele><time>2026-03-27T08:45:03.648Z</time></trkpt><trkpt lat="45.0558083" lon="9.619035"><ele>58.0</ele><time>2026-03-27T08:45:04.646Z</time></trkpt><trkpt lat="45.0558133" lon="9.61884"><ele>58.0</ele><time>2026-03-27T08:45:05.651Z</time></trkpt><trkpt lat="45.0558167" lon="9.6186417"><ele>58.25</ele><time>2026-03-27T08:45:06.648Z</time></trkpt><trkpt lat="45.05582" lon="9.6184383"><ele>58.5</ele><time>2026-03-27T08:45:07.647Z</time></trkpt><trkpt lat="45.0558233" lon="9.6182367"><ele>58.75</ele><time>2026-03-27T08:45:08.649Z</time></trkpt><trkpt lat="45.0558267" lon="9.61804"><ele>59.0</ele><time>2026-03-27T08:45:09.647Z</time></trkpt><trkpt lat="45.055835" lon="9.6178583"><ele>59.25</ele><time>2026-03-27T08:45:10.648Z</time></trkpt><trkpt lat="45.0558467" lon="9.61769"><ele>59.5</ele><time>2026-03-27T08:45:11.649Z</time></trkpt><trkpt lat="45.0558583" lon="9.6175283"><ele>59.75</ele><time>2026-03-27T08:45:12.651Z</time></trkpt><trkpt lat="45.0558683" lon="9.6173533"><ele>60.0</ele><time>2026-03-27T08:45:13.647Z</time></trkpt><trkpt lat="45.0558717" lon="9.6171767"><ele>60.0</ele><time>2026-03-27T08:45:14.647Z</time></trkpt><trkpt lat="45.0558767" lon="9.6170083"><ele>60.0</ele><time>2026-03-27T08:45:15.649Z</time></trkpt><trkpt lat="45.0558833" lon="9.6168417"><ele>60.0</ele><time>2026-03-27T08:45:16.648Z</time></trkpt><trkpt lat="45.05589" lon="9.6166767"><ele>60.0</ele><time>2026-03-27T08:45:17.649Z</time></trkpt><trkpt lat="45.0558917" lon="9.61652"><ele>59.75</ele><time>2026-03-27T08:45:18.649Z</time></trkpt><trkpt lat="45.0558917" lon="9.6163583"><ele>59.5</ele><time>2026-03-27T08:45:19.647Z</time></trkpt><trkpt lat="45.0558933" lon="9.6161967"><ele>59.25</ele><time>2026-03-27T08:45:20.649Z</time></trkpt><trkpt lat="45.0558967" lon="9.61603"><ele>59.0</ele><time>2026-03-27T08:45:21.647Z</time></trkpt><trkpt lat="45.0558983" lon="9.6158667"><ele>59.0</ele><time>2026-03-27T08:45:22.647Z</time></trkpt><trkpt lat="45.0559" lon="9.6157033"><ele>59.0</ele><time>2026-03-27T08:45:23.647Z</time></trkpt><trkpt lat="45.0559017" lon="9.6155417"><ele>59.0</ele><time>2026-03-27T08:45:24.648Z</time></trkpt><trkpt lat="45.055905" lon="9.61538"><ele>59.0</ele><time>2026-03-27T08:45:25.646Z</time></trkpt><trkpt lat="45.0559083" lon="9.6152183"><ele>59.0</ele><time>2026-03-27T08:45:26.647Z</time></trkpt><trkpt lat="45.05591" lon="9.6150617"><ele>59.00000000000001</ele><time>2026-03-27T08:45:27.648Z</time></trkpt><trkpt lat="45.0559133" lon="9.614915"><ele>59.00000000000001</ele><time>2026-03-27T08:45:28.647Z</time></trkpt><trkpt lat="45.0559167" lon="9.61477"><ele>59.0</ele><time>2026-03-27T08:45:29.647Z</time></trkpt><trkpt lat="45.0559167" lon="9.614625"><ele>59.0</ele><time>2026-03-27T08:45:30.647Z</time></trkpt><trkpt lat="45.0559167" lon="9.6144817"><ele>59.0</ele><time>2026-03-27T08:45:31.648Z</time></trkpt><trkpt lat="45.0559167" lon="9.614345"><ele>59.00000000000001</ele><time>2026-03-27T08:45:32.647Z</time></trkpt><trkpt lat="45.05592" lon="9.61421"><ele>59.00000000000001</ele><time>2026-03-27T08:45:33.647Z</time></trkpt><trkpt lat="45.0559267" lon="9.6140667"><ele>59.0</ele><time>2026-03-27T08:45:34.647Z</time></trkpt><trkpt lat="45.0559317" lon="9.613925"><ele>59.0</ele><time>2026-03-27T08:45:35.651Z</time></trkpt><trkpt lat="45.0559383" lon="9.6137783"><ele>59.2</ele><time>2026-03-27T08:45:36.648Z</time></trkpt><trkpt lat="45.0559417" lon="9.6136367"><ele>59.400000000000006</ele><time>2026-03-27T08:45:37.647Z</time></trkpt><trkpt lat="45.055945" lon="9.6135067"><ele>59.6</ele><time>2026-03-27T08:45:38.648Z</time></trkpt><trkpt lat="45.05595" lon="9.61338"><ele>59.8</ele><time>2026-03-27T08:45:39.647Z</time></trkpt><trkpt lat="45.055955" lon="9.613255"><ele>60.0</ele><time>2026-03-27T08:45:40.648Z</time></trkpt><trkpt lat="45.0559583" lon="9.6131417"><ele>60.0</ele><time>2026-03-27T08:45:41.649Z</time></trkpt><trkpt lat="45.0559617" lon="9.6130367"><ele>60.0</ele><time>2026-03-27T08:45:42.649Z</time></trkpt><trkpt lat="45.0559633" lon="9.61294"><ele>60.0</ele><time>2026-03-27T08:45:43.646Z</time></trkpt><trkpt lat="45.0559683" lon="9.6127817"><ele>60.0</ele><time>2026-03-27T08:45:45.647Z</time></trkpt><trkpt lat="45.0559733" lon="9.6126567"><ele>60.0</ele><time>2026-03-27T08:45:47.647Z</time></trkpt><trkpt lat="45.05598" lon="9.6125617"><ele>60.0</ele><time>2026-03-27T08:45:50.647Z</time></trkpt><trkpt lat="45.05598" lon="9.6124333"><ele>60.0</ele><time>2026-03-27T08:45:56.648Z</time></trkpt><trkpt lat="45.0560117" lon="9.612335"><ele>60.0</ele><time>2026-03-27T08:46:10.646Z</time></trkpt><trkpt lat="45.0560167" lon="9.6122167"><ele>60.0</ele><time>2026-03-27T08:46:11.65Z</time></trkpt><trkpt lat="45.0560233" lon="9.6121"><ele>60.0</ele><time>2026-03-27T08:46:12.648Z</time></trkpt><trkpt lat="45.0560283" lon="9.6119617"><ele>60.0</ele><time>2026-03-27T08:46:13.647Z</time></trkpt><trkpt lat="45.0560267" lon="9.6118183"><ele>60.0</ele><time>2026-03-27T08:46:14.648Z</time></trkpt><trkpt lat="45.0560283" lon="9.6116833"><ele>59.833333333333336</ele><time>2026-03-27T08:46:15.646Z</time></trkpt><trkpt lat="45.0560333" lon="9.6115633"><ele>59.66666666666667</ele><time>2026-03-27T08:46:16.647Z</time></trkpt><trkpt lat="45.0560383" lon="9.6114417"><ele>59.5</ele><time>2026-03-27T08:46:17.651Z</time></trkpt><trkpt lat="45.0560367" lon="9.61132"><ele>59.333333333333336</ele><time>2026-03-27T08:46:18.649Z</time></trkpt><trkpt lat="45.05604" lon="9.6112033"><ele>59.16666666666667</ele><time>2026-03-27T08:46:19.647Z</time></trkpt><trkpt lat="45.0560417" lon="9.611085"><ele>59.0</ele><time>2026-03-27T08:46:20.648Z</time></trkpt><trkpt lat="45.0560467" lon="9.6109517"><ele>59.0</ele><time>2026-03-27T08:46:21.649Z</time></trkpt><trkpt lat="45.0560567" lon="9.6107967"><ele>59.0</ele><time>2026-03-27T08:46:22.647Z</time></trkpt><trkpt lat="45.0560617" lon="9.610625"><ele>59.0</ele><time>2026-03-27T08:46:23.647Z</time></trkpt><trkpt lat="45.0560617" lon="9.6104367"><ele>59.0</ele><time>2026-03-27T08:46:24.648Z</time></trkpt><trkpt lat="45.0560633" lon="9.6102317"><ele>59.25</ele><time>2026-03-27T08:46:25.646Z</time></trkpt><trkpt lat="45.0560583" lon="9.61"><ele>59.5</ele><time>2026-03-27T08:46:26.647Z</time></trkpt><trkpt lat="45.0560633" lon="9.6097967"><ele>59.75</ele><time>2026-03-27T08:46:27.647Z</time></trkpt><trkpt lat="45.05606" lon="9.6096217"><ele>60.0</ele><time>2026-03-27T08:46:28.648Z</time></trkpt><trkpt lat="45.0560617" lon="9.609465"><ele>60.0</ele><time>2026-03-27T08:46:29.648Z</time></trkpt><trkpt lat="45.0560633" lon="9.60932"><ele>60.0</ele><time>2026-03-27T08:46:30.65Z</time></trkpt><trkpt lat="45.0560633" lon="9.6091867"><ele>60.0</ele><time>2026-03-27T08:46:31.653Z</time></trkpt><trkpt lat="45.0560639" lon="9.6090661"><ele>60.0</ele><time>2026-03-27T08:46:32.647Z</time></trkpt><trkpt lat="45.0560626" lon="9.6089535"><ele>60.0</ele><time>2026-03-27T08:46:33.646Z</time></trkpt><trkpt lat="45.0560614" lon="9.6088641"><ele>60.0</ele><time>2026-03-27T08:46:34.647Z</time></trkpt><trkpt lat="45.0560734" lon="9.6087609"><ele>60.0</ele><time>2026-03-27T08:46:36.647Z</time></trkpt><trkpt lat="45.0560762" lon="9.6086614"><ele>60.0</ele><time>2026-03-27T08:46:40.646Z</time></trkpt><trkpt lat="45.0560706" lon="9.6084804"><ele>60.0</ele><time>2026-03-27T08:47:13.647Z</time></trkpt><trkpt lat="45.0560785" lon="9.6083627"><ele>60.0</ele><time>2026-03-27T08:47:14.651Z</time></trkpt><trkpt lat="45.0560828" lon="9.6082189"><ele>60.0</ele><time>2026-03-27T08:47:15.649Z</time></trkpt><trkpt lat="45.056093" lon="9.6080531"><ele>60.5</ele><time>2026-03-27T08:47:16.648Z</time></trkpt><trkpt lat="45.0561047" lon="9.6078783"><ele>61.0</ele><time>2026-03-27T08:47:17.647Z</time></trkpt><trkpt lat="45.056116" lon="9.6076973"><ele>61.5</ele><time>2026-03-27T08:47:18.647Z</time></trkpt><trkpt lat="45.0561187" lon="9.6075135"><ele>62.0</ele><time>2026-03-27T08:47:19.648Z</time></trkpt><trkpt lat="45.0561231" lon="9.6073165"><ele>62.0</ele><time>2026-03-27T08:47:20.651Z</time></trkpt><trkpt lat="45.0561306" lon="9.6071173"><ele>62.0</ele><time>2026-03-27T08:47:21.648Z</time></trkpt><trkpt lat="45.0561338" lon="9.606923"><ele>62.0</ele><time>2026-03-27T08:47:22.647Z</time></trkpt><trkpt lat="45.0561472" lon="9.6067476"><ele>62.0</ele><time>2026-03-27T08:47:23.649Z</time></trkpt><trkpt lat="45.0561528" lon="9.6065662"><ele>61.5</ele><time>2026-03-27T08:47:24.648Z</time></trkpt><trkpt lat="45.0561466" lon="9.606378"><ele>61.0</ele><time>2026-03-27T08:47:25.647Z</time></trkpt><trkpt lat="45.0561387" lon="9.6061717"><ele>60.5</ele><time>2026-03-27T08:47:26.647Z</time></trkpt><trkpt lat="45.0561343" lon="9.6059626"><ele>60.0</ele><time>2026-03-27T08:47:27.65Z</time></trkpt><trkpt lat="45.0561346" lon="9.6057536"><ele>60.0</ele><time>2026-03-27T08:47:28.647Z</time></trkpt><trkpt lat="45.0561336" lon="9.6055415"><ele>60.0</ele><time>2026-03-27T08:47:29.649Z</time></trkpt><trkpt lat="45.0561347" lon="9.6053349"><ele>60.0</ele><time>2026-03-27T08:47:30.648Z</time></trkpt><trkpt lat="45.0561363" lon="9.605132"><ele>60.0</ele><time>2026-03-27T08:47:31.647Z</time></trkpt><trkpt lat="45.0561352" lon="9.6049206"><ele>60.0</ele><time>2026-03-27T08:47:32.647Z</time></trkpt><trkpt lat="45.0561362" lon="9.6047089"><ele>60.0</ele><time>2026-03-27T08:47:33.646Z</time></trkpt><trkpt lat="45.0561451" lon="9.6044939"><ele>60.0</ele><time>2026-03-27T08:47:34.65Z</time></trkpt><trkpt lat="45.0561529" lon="9.6042818"><ele>60.0</ele><time>2026-03-27T08:47:35.646Z</time></trkpt><trkpt lat="45.0561587" lon="9.6040687"><ele>60.0</ele><time>2026-03-27T08:47:36.648Z</time></trkpt><trkpt lat="45.0561647" lon="9.6038513"><ele>60.0</ele><time>2026-03-27T08:47:37.647Z</time></trkpt><trkpt lat="45.0561683" lon="9.6036316"><ele>60.66666666666667</ele><time>2026-03-27T08:47:38.647Z</time></trkpt><trkpt lat="45.056173" lon="9.6034113"><ele>61.333333333333336</ele><time>2026-03-27T08:47:39.648Z</time></trkpt><trkpt lat="45.056178" lon="9.6031907"><ele>62.0</ele><time>2026-03-27T08:47:40.647Z</time></trkpt><trkpt lat="45.0561803" lon="9.6029664"><ele>61.66666666666667</ele><time>2026-03-27T08:47:41.648Z</time></trkpt><trkpt lat="45.0561859" lon="9.6027455"><ele>61.33333333333333</ele><time>2026-03-27T08:47:42.647Z</time></trkpt><trkpt lat="45.0561902" lon="9.6025269"><ele>61.0</ele><time>2026-03-27T08:47:43.647Z</time></trkpt><trkpt lat="45.0561951" lon="9.6023047"><ele>61.0</ele><time>2026-03-27T08:47:44.648Z</time></trkpt><trkpt lat="45.0562027" lon="9.6020813"><ele>61.0</ele><time>2026-03-27T08:47:45.648Z</time></trkpt><trkpt lat="45.0562124" lon="9.6018585"><ele>61.0</ele><time>2026-03-27T08:47:46.649Z</time></trkpt><trkpt lat="45.0562225" lon="9.6016338"><ele>61.0</ele><time>2026-03-27T08:47:47.65Z</time></trkpt><trkpt lat="45.05623" lon="9.6014129"><ele>61.0</ele><time>2026-03-27T08:47:48.648Z</time></trkpt><trkpt lat="45.0562377" lon="9.6011929"><ele>61.0</ele><time>2026-03-27T08:47:49.648Z</time></trkpt><trkpt lat="45.0562445" lon="9.6009715"><ele>61.33333333333333</ele><time>2026-03-27T08:47:50.647Z</time></trkpt><trkpt lat="45.05625" lon="9.6007462"><ele>61.66666666666667</ele><time>2026-03-27T08:47:51.648Z</time></trkpt><trkpt lat="45.0562552" lon="9.6005167"><ele>62.0</ele><time>2026-03-27T08:47:52.647Z</time></trkpt><trkpt lat="45.0562602" lon="9.6002832"><ele>62.333333333333336</ele><time>2026-03-27T08:47:53.651Z</time></trkpt><trkpt lat="45.0562676" lon="9.6000498"><ele>62.66666666666667</ele><time>2026-03-27T08:47:54.648Z</time></trkpt><trkpt lat="45.0562769" lon="9.5998142"><ele>63.0</ele><time>2026-03-27T08:47:55.648Z</time></trkpt><trkpt lat="45.0562856" lon="9.599575"><ele>62.0</ele><time>2026-03-27T08:47:56.649Z</time></trkpt><trkpt lat="45.0562928" lon="9.599341"><ele>61.0</ele><time>2026-03-27T08:47:57.647Z</time></trkpt><trkpt lat="45.0562997" lon="9.5991175"><ele>60.0</ele><time>2026-03-27T08:47:58.647Z</time></trkpt><trkpt lat="45.0563054" lon="9.5989047"><ele>60.0</ele><time>2026-03-27T08:47:59.647Z</time></trkpt><trkpt lat="45.0563115" lon="9.5987022"><ele>60.0</ele><time>2026-03-27T08:48:00.646Z</time></trkpt><trkpt lat="45.056314" lon="9.5985016"><ele>60.0</ele><time>2026-03-27T08:48:01.647Z</time></trkpt><trkpt lat="45.0563168" lon="9.5983031"><ele>60.0</ele><time>2026-03-27T08:48:02.648Z</time></trkpt><trkpt lat="45.0563198" lon="9.5981051"><ele>60.25</ele><time>2026-03-27T08:48:03.647Z</time></trkpt><trkpt lat="45.0563285" lon="9.5979073"><ele>60.5</ele><time>2026-03-27T08:48:04.648Z</time></trkpt><trkpt lat="45.0563407" lon="9.597709"><ele>60.75</ele><time>2026-03-27T08:48:05.648Z</time></trkpt><trkpt lat="45.0563489" lon="9.597513"><ele>61.0</ele><time>2026-03-27T08:48:06.647Z</time></trkpt><trkpt lat="45.056351" lon="9.5973314"><ele>61.0</ele><time>2026-03-27T08:48:07.646Z</time></trkpt><trkpt lat="45.0563529" lon="9.5971464"><ele>61.0</ele><time>2026-03-27T08:48:08.649Z</time></trkpt><trkpt lat="45.0563559" lon="9.5969526"><ele>61.0</ele><time>2026-03-27T08:48:09.648Z</time></trkpt><trkpt lat="45.0563597" lon="9.5967501"><ele>61.0</ele><time>2026-03-27T08:48:10.648Z</time></trkpt><trkpt lat="45.0563635" lon="9.5965383"><ele>60.666666666666664</ele><time>2026-03-27T08:48:11.65Z</time></trkpt><trkpt lat="45.0563685" lon="9.5963235"><ele>60.33333333333333</ele><time>2026-03-27T08:48:12.648Z</time></trkpt><trkpt lat="45.0563751" lon="9.5961089"><ele>60.0</ele><time>2026-03-27T08:48:13.649Z</time></trkpt><trkpt lat="45.0563831" lon="9.5958974"><ele>60.0</ele><time>2026-03-27T08:48:14.649Z</time></trkpt><trkpt lat="45.0563914" lon="9.5956885"><ele>60.0</ele><time>2026-03-27T08:48:15.65Z</time></trkpt><trkpt lat="45.0563968" lon="9.5954821"><ele>60.0</ele><time>2026-03-27T08:48:16.649Z</time></trkpt><trkpt lat="45.0564029" lon="9.5952771"><ele>60.0</ele><time>2026-03-27T08:48:17.649Z</time></trkpt><trkpt lat="45.0564082" lon="9.595072"><ele>59.75</ele><time>2026-03-27T08:48:18.651Z</time></trkpt><trkpt lat="45.0564121" lon="9.5948655"><ele>59.5</ele><time>2026-03-27T08:48:19.649Z</time></trkpt><trkpt lat="45.0564168" lon="9.594664"><ele>59.25</ele><time>2026-03-27T08:48:20.65Z</time></trkpt><trkpt lat="45.0564217" lon="9.5944687"><ele>59.0</ele><time>2026-03-27T08:48:21.649Z</time></trkpt><trkpt lat="45.0564266" lon="9.5942758"><ele>59.0</ele><time>2026-03-27T08:48:22.649Z</time></trkpt><trkpt lat="45.0564315" lon="9.5940813"><ele>59.0</ele><time>2026-03-27T08:48:23.65Z</time></trkpt><trkpt lat="45.0564348" lon="9.5938821"><ele>59.0</ele><time>2026-03-27T08:48:24.65Z</time></trkpt><trkpt lat="45.0564368" lon="9.5936774"><ele>59.0</ele><time>2026-03-27T08:48:25.649Z</time></trkpt><trkpt lat="45.0564367" lon="9.5934617"><ele>59.333333333333336</ele><time>2026-03-27T08:48:26.649Z</time></trkpt><trkpt lat="45.0564383" lon="9.5932483"><ele>59.66666666666667</ele><time>2026-03-27T08:48:27.649Z</time></trkpt><trkpt lat="45.05644" lon="9.593035"><ele>60.0</ele><time>2026-03-27T08:48:28.648Z</time></trkpt><trkpt lat="45.0564433" lon="9.59282"><ele>60.0</ele><time>2026-03-27T08:48:29.649Z</time></trkpt><trkpt lat="45.0564467" lon="9.5926033"><ele>60.0</ele><time>2026-03-27T08:48:30.651Z</time></trkpt><trkpt lat="45.0564467" lon="9.5923833"><ele>60.0</ele><time>2026-03-27T08:48:31.648Z</time></trkpt><trkpt lat="45.0564483" lon="9.59216"><ele>59.66666666666667</ele><time>2026-03-27T08:48:32.65Z</time></trkpt><trkpt lat="45.056445" lon="9.5919367"><ele>59.333333333333336</ele><time>2026-03-27T08:48:33.649Z</time></trkpt><trkpt lat="45.0564417" lon="9.5917017"><ele>59.0</ele><time>2026-03-27T08:48:34.648Z</time></trkpt><trkpt lat="45.05644" lon="9.5914667"><ele>59.0</ele><time>2026-03-27T08:48:35.648Z</time></trkpt><trkpt lat="45.0564383" lon="9.5912283"><ele>59.0</ele><time>2026-03-27T08:48:36.65Z</time></trkpt><trkpt lat="45.0564333" lon="9.590985"><ele>59.0</ele><time>2026-03-27T08:48:37.648Z</time></trkpt><trkpt lat="45.0564283" lon="9.5907433"><ele>59.0</ele><time>2026-03-27T08:48:38.649Z</time></trkpt><trkpt lat="45.056425" lon="9.5905083"><ele>59.0</ele><time>2026-03-27T08:48:39.649Z</time></trkpt><trkpt lat="45.0564217" lon="9.590275"><ele>59.0</ele><time>2026-03-27T08:48:40.649Z</time></trkpt><trkpt lat="45.0564167" lon="9.5900367"><ele>58.333333333333336</ele><time>2026-03-27T08:48:41.65Z</time></trkpt><trkpt lat="45.0564083" lon="9.5897983"><ele>57.66666666666667</ele><time>2026-03-27T08:48:42.649Z</time></trkpt><trkpt lat="45.0564" lon="9.5895583"><ele>57.0</ele><time>2026-03-27T08:48:43.652Z</time></trkpt><trkpt lat="45.05639" lon="9.5893167"><ele>57.0</ele><time>2026-03-27T08:48:44.65Z</time></trkpt><trkpt lat="45.0563833" lon="9.5890767"><ele>57.0</ele><time>2026-03-27T08:48:45.649Z</time></trkpt><trkpt lat="45.056375" lon="9.58884"><ele>57.0</ele><time>2026-03-27T08:48:46.649Z</time></trkpt><trkpt lat="45.0563683" lon="9.5886117"><ele>57.33333333333333</ele><time>2026-03-27T08:48:47.649Z</time></trkpt><trkpt lat="45.0563617" lon="9.5883883"><ele>57.666666666666664</ele><time>2026-03-27T08:48:48.649Z</time></trkpt><trkpt lat="45.0563533" lon="9.58816"><ele>58.0</ele><time>2026-03-27T08:48:49.649Z</time></trkpt><trkpt lat="45.0563467" lon="9.5879317"><ele>58.33333333333333</ele><time>2026-03-27T08:48:50.649Z</time></trkpt><trkpt lat="45.05634" lon="9.5876967"><ele>58.66666666666667</ele><time>2026-03-27T08:48:51.65Z</time></trkpt><trkpt lat="45.0563383" lon="9.5874567"><ele>59.0</ele><time>2026-03-27T08:48:52.649Z</time></trkpt><trkpt lat="45.0563367" lon="9.5872083"><ele>58.66666666666667</ele><time>2026-03-27T08:48:53.648Z</time></trkpt><trkpt lat="45.0563367" lon="9.5869617"><ele>58.33333333333333</ele><time>2026-03-27T08:48:54.649Z</time></trkpt><trkpt lat="45.05634" lon="9.58672"><ele>58.0</ele><time>2026-03-27T08:48:55.649Z</time></trkpt><trkpt lat="45.0563417" lon="9.5864817"><ele>58.0</ele><time>2026-03-27T08:48:56.651Z</time></trkpt><trkpt lat="45.05635" lon="9.5862467"><ele>58.0</ele><time>2026-03-27T08:48:57.651Z</time></trkpt><trkpt lat="45.0563567" lon="9.5860033"><ele>58.0</ele><time>2026-03-27T08:48:58.648Z</time></trkpt><trkpt lat="45.0563617" lon="9.5857633"><ele>58.666666666666664</ele><time>2026-03-27T08:48:59.648Z</time></trkpt><trkpt lat="45.05637" lon="9.5855233"><ele>59.33333333333333</ele><time>2026-03-27T08:49:00.648Z</time></trkpt><trkpt lat="45.0563783" lon="9.5852833"><ele>60.0</ele><time>2026-03-27T08:49:01.648Z</time></trkpt><trkpt lat="45.05639" lon="9.5850383"><ele>60.0</ele><time>2026-03-27T08:49:02.648Z</time></trkpt><trkpt lat="45.0564017" lon="9.58479"><ele>60.0</ele><time>2026-03-27T08:49:03.649Z</time></trkpt><trkpt lat="45.0564117" lon="9.5845367"><ele>60.0</ele><time>2026-03-27T08:49:04.649Z</time></trkpt><trkpt lat="45.05642" lon="9.5842833"><ele>60.0</ele><time>2026-03-27T08:49:05.65Z</time></trkpt><trkpt lat="45.0564317" lon="9.5840283"><ele>60.0</ele><time>2026-03-27T08:49:06.649Z</time></trkpt><trkpt lat="45.0564433" lon="9.5837683"><ele>60.0</ele><time>2026-03-27T08:49:07.65Z</time></trkpt><trkpt lat="45.056455" lon="9.5835067"><ele>60.66666666666667</ele><time>2026-03-27T08:49:08.649Z</time></trkpt><trkpt lat="45.0564667" lon="9.5832467"><ele>61.333333333333336</ele><time>2026-03-27T08:49:09.653Z</time></trkpt><trkpt lat="45.05648" lon="9.5829967"><ele>62.0</ele><time>2026-03-27T08:49:10.649Z</time></trkpt><trkpt lat="45.0564917" lon="9.5827567"><ele>63.0</ele><time>2026-03-27T08:49:11.648Z</time></trkpt><trkpt lat="45.0565067" lon="9.5825233"><ele>64.0</ele><time>2026-03-27T08:49:12.648Z</time></trkpt><trkpt lat="45.0565183" lon="9.5822933"><ele>65.0</ele><time>2026-03-27T08:49:13.647Z</time></trkpt><trkpt lat="45.05653" lon="9.5820583"><ele>64.33333333333334</ele><time>2026-03-27T08:49:14.647Z</time></trkpt><trkpt lat="45.0565383" lon="9.581825"><ele>63.66666666666667</ele><time>2026-03-27T08:49:15.647Z</time></trkpt><trkpt lat="45.056545" lon="9.581595"><ele>63.0</ele><time>2026-03-27T08:49:16.649Z</time></trkpt><trkpt lat="45.0565517" lon="9.5813667"><ele>62.66666666666667</ele><time>2026-03-27T08:49:17.647Z</time></trkpt><trkpt lat="45.05656" lon="9.58114"><ele>62.333333333333336</ele><time>2026-03-27T08:49:18.648Z</time></trkpt><trkpt lat="45.05657" lon="9.58091"><ele>62.0</ele><time>2026-03-27T08:49:19.65Z</time></trkpt><trkpt lat="45.0565817" lon="9.5806717"><ele>62.0</ele><time>2026-03-27T08:49:20.648Z</time></trkpt><trkpt lat="45.0565917" lon="9.58043"><ele>62.0</ele><time>2026-03-27T08:49:21.648Z</time></trkpt><trkpt lat="45.0566" lon="9.5801817"><ele>62.0</ele><time>2026-03-27T08:49:22.648Z</time></trkpt><trkpt lat="45.0566083" lon="9.5799367"><ele>62.0</ele><time>2026-03-27T08:49:23.647Z</time></trkpt><trkpt lat="45.056615" lon="9.5796883"><ele>62.0</ele><time>2026-03-27T08:49:24.648Z</time></trkpt><trkpt lat="45.056625" lon="9.57944"><ele>62.0</ele><time>2026-03-27T08:49:25.649Z</time></trkpt><trkpt lat="45.0566383" lon="9.5791917"><ele>61.66666666666667</ele><time>2026-03-27T08:49:26.647Z</time></trkpt><trkpt lat="45.05665" lon="9.5789467"><ele>61.33333333333333</ele><time>2026-03-27T08:49:27.647Z</time></trkpt><trkpt lat="45.0566617" lon="9.5787033"><ele>61.0</ele><time>2026-03-27T08:49:28.647Z</time></trkpt><trkpt lat="45.05667" lon="9.578455"><ele>61.0</ele><time>2026-03-27T08:49:29.649Z</time></trkpt><trkpt lat="45.0566783" lon="9.578215"><ele>61.0</ele><time>2026-03-27T08:49:30.648Z</time></trkpt><trkpt lat="45.0566883" lon="9.5779767"><ele>61.0</ele><time>2026-03-27T08:49:31.649Z</time></trkpt><trkpt lat="45.0567" lon="9.57774"><ele>60.666666666666664</ele><time>2026-03-27T08:49:32.648Z</time></trkpt><trkpt lat="45.0567117" lon="9.5775083"><ele>60.33333333333333</ele><time>2026-03-27T08:49:33.65Z</time></trkpt><trkpt lat="45.056725" lon="9.57727"><ele>60.0</ele><time>2026-03-27T08:49:34.648Z</time></trkpt><trkpt lat="45.05674" lon="9.5770317"><ele>60.0</ele><time>2026-03-27T08:49:35.648Z</time></trkpt><trkpt lat="45.056755" lon="9.5767783"><ele>60.0</ele><time>2026-03-27T08:49:36.648Z</time></trkpt><trkpt lat="45.0567683" lon="9.576515"><ele>60.0</ele><time>2026-03-27T08:49:37.648Z</time></trkpt><trkpt lat="45.0567783" lon="9.57625"><ele>59.33333333333333</ele><time>2026-03-27T08:49:38.648Z</time></trkpt><trkpt lat="45.0567883" lon="9.5759867"><ele>58.666666666666664</ele><time>2026-03-27T08:49:39.648Z</time></trkpt><trkpt lat="45.0567983" lon="9.5757317"><ele>58.0</ele><time>2026-03-27T08:49:40.647Z</time></trkpt><trkpt lat="45.056805" lon="9.5754767"><ele>58.666666666666664</ele><time>2026-03-27T08:49:41.648Z</time></trkpt><trkpt lat="45.0568117" lon="9.575225"><ele>59.33333333333333</ele><time>2026-03-27T08:49:42.648Z</time></trkpt><trkpt lat="45.0568183" lon="9.5749867"><ele>60.0</ele><time>2026-03-27T08:49:43.649Z</time></trkpt><trkpt lat="45.056825" lon="9.5747633"><ele>60.0</ele><time>2026-03-27T08:49:44.652Z</time></trkpt><trkpt lat="45.056835" lon="9.5745533"><ele>60.0</ele><time>2026-03-27T08:49:45.648Z</time></trkpt><trkpt lat="45.056845" lon="9.5743483"><ele>60.0</ele><time>2026-03-27T08:49:46.647Z</time></trkpt><trkpt lat="45.056855" lon="9.5741383"><ele>60.0</ele><time>2026-03-27T08:49:47.649Z</time></trkpt><trkpt lat="45.0568633" lon="9.5739267"><ele>60.0</ele><time>2026-03-27T08:49:48.648Z</time></trkpt><trkpt lat="45.0568717" lon="9.57371"><ele>60.0</ele><time>2026-03-27T08:49:49.652Z</time></trkpt><trkpt lat="45.0568817" lon="9.5734867"><ele>60.0</ele><time>2026-03-27T08:49:50.648Z</time></trkpt><trkpt lat="45.0568917" lon="9.573255"><ele>59.66666666666667</ele><time>2026-03-27T08:49:51.648Z</time></trkpt><trkpt lat="45.0569017" lon="9.573015"><ele>59.333333333333336</ele><time>2026-03-27T08:49:52.647Z</time></trkpt><trkpt lat="45.0569117" lon="9.5727717"><ele>59.0</ele><time>2026-03-27T08:49:53.648Z</time></trkpt><trkpt lat="45.0569217" lon="9.5725183"><ele>59.0</ele><time>2026-03-27T08:49:54.648Z</time></trkpt><trkpt lat="45.05693" lon="9.57226"><ele>59.0</ele><time>2026-03-27T08:49:55.648Z</time></trkpt><trkpt lat="45.05694" lon="9.571985"><ele>59.0</ele><time>2026-03-27T08:49:56.648Z</time></trkpt><trkpt lat="45.05695" lon="9.5717"><ele>59.333333333333336</ele><time>2026-03-27T08:49:57.649Z</time></trkpt><trkpt lat="45.0569583" lon="9.57141"><ele>59.66666666666667</ele><time>2026-03-27T08:49:58.648Z</time></trkpt><trkpt lat="45.056965" lon="9.5711167"><ele>60.0</ele><time>2026-03-27T08:49:59.648Z</time></trkpt><trkpt lat="45.0569683" lon="9.57082"><ele>60.0</ele><time>2026-03-27T08:50:00.647Z</time></trkpt><trkpt lat="45.0569683" lon="9.5705233"><ele>60.0</ele><time>2026-03-27T08:50:01.649Z</time></trkpt><trkpt lat="45.0569683" lon="9.5702233"><ele>60.0</ele><time>2026-03-27T08:50:02.649Z</time></trkpt><trkpt lat="45.0569667" lon="9.569925"><ele>60.33333333333333</ele><time>2026-03-27T08:50:03.649Z</time></trkpt><trkpt lat="45.056965" lon="9.5696267"><ele>60.666666666666664</ele><time>2026-03-27T08:50:04.648Z</time></trkpt><trkpt lat="45.0569633" lon="9.56933"><ele>61.0</ele><time>2026-03-27T08:50:05.65Z</time></trkpt><trkpt lat="45.05696" lon="9.569035"><ele>61.0</ele><time>2026-03-27T08:50:06.648Z</time></trkpt><trkpt lat="45.0569583" lon="9.5687383"><ele>61.0</ele><time>2026-03-27T08:50:07.649Z</time></trkpt><trkpt lat="45.0569583" lon="9.56844"><ele>61.0</ele><time>2026-03-27T08:50:08.649Z</time></trkpt><trkpt lat="45.0569567" lon="9.568145"><ele>60.666666666666664</ele><time>2026-03-27T08:50:09.648Z</time></trkpt><trkpt lat="45.0569583" lon="9.5678533"><ele>60.33333333333333</ele><time>2026-03-27T08:50:10.649Z</time></trkpt><trkpt lat="45.056965" lon="9.5675633"><ele>60.0</ele><time>2026-03-27T08:50:11.65Z</time></trkpt><trkpt lat="45.0569767" lon="9.5672783"><ele>60.33333333333333</ele><time>2026-03-27T08:50:12.648Z</time></trkpt><trkpt lat="45.056995" lon="9.5670017"><ele>60.666666666666664</ele><time>2026-03-27T08:50:13.649Z</time></trkpt><trkpt lat="45.0570233" lon="9.566725"><ele>61.0</ele><time>2026-03-27T08:50:14.648Z</time></trkpt><trkpt lat="45.057055" lon="9.5664417"><ele>60.666666666666664</ele><time>2026-03-27T08:50:15.648Z</time></trkpt><trkpt lat="45.0570883" lon="9.5661617"><ele>60.33333333333333</ele><time>2026-03-27T08:50:16.648Z</time></trkpt><trkpt lat="45.0571217" lon="9.5658817"><ele>60.0</ele><time>2026-03-27T08:50:17.649Z</time></trkpt><trkpt lat="45.0571567" lon="9.565605"><ele>60.33333333333333</ele><time>2026-03-27T08:50:18.649Z</time></trkpt><trkpt lat="45.0571917" lon="9.5653317"><ele>60.666666666666664</ele><time>2026-03-27T08:50:19.649Z</time></trkpt><trkpt lat="45.0572233" lon="9.56506"><ele>61.0</ele><time>2026-03-27T08:50:20.65Z</time></trkpt><trkpt lat="45.0572583" lon="9.5647883"><ele>61.33333333333333</ele><time>2026-03-27T08:50:21.649Z</time></trkpt><trkpt lat="45.057295" lon="9.5645167"><ele>61.66666666666667</ele><time>2026-03-27T08:50:22.649Z</time></trkpt><trkpt lat="45.0573317" lon="9.5642483"><ele>62.0</ele><time>2026-03-27T08:50:23.648Z</time></trkpt><trkpt lat="45.05737" lon="9.56398"><ele>62.0</ele><time>2026-03-27T08:50:24.649Z</time></trkpt><trkpt lat="45.0574067" lon="9.5637133"><ele>62.0</ele><time>2026-03-27T08:50:25.649Z</time></trkpt><trkpt lat="45.0574433" lon="9.5634467"><ele>62.0</ele><time>2026-03-27T08:50:26.65Z</time></trkpt><trkpt lat="45.0574783" lon="9.563185"><ele>61.66666666666667</ele><time>2026-03-27T08:50:27.648Z</time></trkpt><trkpt lat="45.0575133" lon="9.56292"><ele>61.33333333333333</ele><time>2026-03-27T08:50:28.648Z</time></trkpt><trkpt lat="45.0575467" lon="9.5626533"><ele>61.0</ele><time>2026-03-27T08:50:29.649Z</time></trkpt><trkpt lat="45.057585" lon="9.5623867"><ele>60.666666666666664</ele><time>2026-03-27T08:50:30.648Z</time></trkpt><trkpt lat="45.0576233" lon="9.5621217"><ele>60.33333333333333</ele><time>2026-03-27T08:50:31.651Z</time></trkpt><trkpt lat="45.05766" lon="9.561845"><ele>60.0</ele><time>2026-03-27T08:50:32.648Z</time></trkpt><trkpt lat="45.05769" lon="9.561575"><ele>60.33333333333333</ele><time>2026-03-27T08:50:33.648Z</time></trkpt><trkpt lat="45.0577167" lon="9.5613067"><ele>60.666666666666664</ele><time>2026-03-27T08:50:34.646Z</time></trkpt><trkpt lat="45.0577433" lon="9.561035"><ele>61.0</ele><time>2026-03-27T08:50:35.646Z</time></trkpt><trkpt lat="45.0577717" lon="9.5607683"><ele>61.0</ele><time>2026-03-27T08:50:36.648Z</time></trkpt><trkpt lat="45.0578" lon="9.5605033"><ele>61.0</ele><time>2026-03-27T08:50:37.647Z</time></trkpt><trkpt lat="45.0578267" lon="9.5602283"><ele>61.0</ele><time>2026-03-27T08:50:38.65Z</time></trkpt><trkpt lat="45.05785" lon="9.5599517"><ele>61.0</ele><time>2026-03-27T08:50:39.647Z</time></trkpt><trkpt lat="45.057875" lon="9.5596733"><ele>61.0</ele><time>2026-03-27T08:50:40.649Z</time></trkpt><trkpt lat="45.0579" lon="9.55939"><ele>61.0</ele><time>2026-03-27T08:50:41.647Z</time></trkpt><trkpt lat="45.0579283" lon="9.559105"><ele>61.0</ele><time>2026-03-27T08:50:42.648Z</time></trkpt><trkpt lat="45.0579567" lon="9.5588217"><ele>61.0</ele><time>2026-03-27T08:50:43.648Z</time></trkpt><trkpt lat="45.05798" lon="9.5585367"><ele>61.0</ele><time>2026-03-27T08:50:44.648Z</time></trkpt><trkpt lat="45.05799" lon="9.5582467"><ele>61.0</ele><time>2026-03-27T08:50:45.648Z</time></trkpt><trkpt lat="45.0579867" lon="9.5579633"><ele>61.0</ele><time>2026-03-27T08:50:46.65Z</time></trkpt><trkpt lat="45.0579783" lon="9.5576917"><ele>61.0</ele><time>2026-03-27T08:50:47.647Z</time></trkpt><trkpt lat="45.0579633" lon="9.55743"><ele>61.0</ele><time>2026-03-27T08:50:48.648Z</time></trkpt><trkpt lat="45.0579417" lon="9.55717"><ele>61.0</ele><time>2026-03-27T08:50:49.647Z</time></trkpt><trkpt lat="45.05791" lon="9.5569083"><ele>61.0</ele><time>2026-03-27T08:50:50.648Z</time></trkpt><trkpt lat="45.0578783" lon="9.55665"><ele>61.33333333333333</ele><time>2026-03-27T08:50:51.648Z</time></trkpt><trkpt lat="45.057845" lon="9.5564033"><ele>61.66666666666667</ele><time>2026-03-27T08:50:52.649Z</time></trkpt><trkpt lat="45.0578183" lon="9.5561717"><ele>62.0</ele><time>2026-03-27T08:50:53.649Z</time></trkpt><trkpt lat="45.0577917" lon="9.5559583"><ele>62.0</ele><time>2026-03-27T08:50:54.648Z</time></trkpt><trkpt lat="45.0577667" lon="9.5557617"><ele>62.0</ele><time>2026-03-27T08:50:55.647Z</time></trkpt><trkpt lat="45.057745" lon="9.5555833"><ele>62.0</ele><time>2026-03-27T08:50:56.652Z</time></trkpt><trkpt lat="45.057725" lon="9.5554167"><ele>62.0</ele><time>2026-03-27T08:50:57.646Z</time></trkpt><trkpt lat="45.057705" lon="9.5552583"><ele>61.75</ele><time>2026-03-27T08:50:58.646Z</time></trkpt><trkpt lat="45.0576833" lon="9.5550967"><ele>61.5</ele><time>2026-03-27T08:50:59.647Z</time></trkpt><trkpt lat="45.0576633" lon="9.5549317"><ele>61.25</ele><time>2026-03-27T08:51:00.647Z</time></trkpt><trkpt lat="45.0576417" lon="9.554775"><ele>61.0</ele><time>2026-03-27T08:51:01.649Z</time></trkpt><trkpt lat="45.0576233" lon="9.5546233"><ele>60.8</ele><time>2026-03-27T08:51:02.647Z</time></trkpt><trkpt lat="45.057605" lon="9.5544733"><ele>60.599999999999994</ele><time>2026-03-27T08:51:03.647Z</time></trkpt><trkpt lat="45.0575883" lon="9.5543233"><ele>60.4</ele><time>2026-03-27T08:51:04.646Z</time></trkpt><trkpt lat="45.0575733" lon="9.5541667"><ele>60.2</ele><time>2026-03-27T08:51:05.646Z</time></trkpt><trkpt lat="45.0575567" lon="9.554005"><ele>60.0</ele><time>2026-03-27T08:51:06.648Z</time></trkpt><trkpt lat="45.05754" lon="9.55384"><ele>60.75</ele><time>2026-03-27T08:51:07.647Z</time></trkpt><trkpt lat="45.05753" lon="9.5536733"><ele>61.5</ele><time>2026-03-27T08:51:08.648Z</time></trkpt><trkpt lat="45.057525" lon="9.5535083"><ele>62.25</ele><time>2026-03-27T08:51:09.648Z</time></trkpt><trkpt lat="45.0575267" lon="9.5533417"><ele>63.0</ele><time>2026-03-27T08:51:10.647Z</time></trkpt><trkpt lat="45.0575283" lon="9.5531733"><ele>63.0</ele><time>2026-03-27T08:51:11.649Z</time></trkpt><trkpt lat="45.057535" lon="9.553005"><ele>63.0</ele><time>2026-03-27T08:51:12.647Z</time></trkpt><trkpt lat="45.057545" lon="9.5528467"><ele>63.0</ele><time>2026-03-27T08:51:13.654Z</time></trkpt><trkpt lat="45.057555" lon="9.5527"><ele>63.0</ele><time>2026-03-27T08:51:14.646Z</time></trkpt><trkpt lat="45.0575667" lon="9.5525617"><ele>63.0</ele><time>2026-03-27T08:51:15.646Z</time></trkpt><trkpt lat="45.0575767" lon="9.5524317"><ele>63.2</ele><time>2026-03-27T08:51:16.646Z</time></trkpt><trkpt lat="45.0575817" lon="9.5522983"><ele>63.4</ele><time>2026-03-27T08:51:17.648Z</time></trkpt><trkpt lat="45.0575883" lon="9.55216"><ele>63.60000000000001</ele><time>2026-03-27T08:51:18.648Z</time></trkpt><trkpt lat="45.0576" lon="9.55202"><ele>63.800000000000004</ele><time>2026-03-27T08:51:19.647Z</time></trkpt><trkpt lat="45.0576117" lon="9.55188"><ele>64.0</ele><time>2026-03-27T08:51:20.646Z</time></trkpt><trkpt lat="45.0576217" lon="9.5517433"><ele>63.99999999999999</ele><time>2026-03-27T08:51:21.647Z</time></trkpt><trkpt lat="45.0576283" lon="9.5516083"><ele>64.0</ele><time>2026-03-27T08:51:22.646Z</time></trkpt><trkpt lat="45.057635" lon="9.5514783"><ele>64.0</ele><time>2026-03-27T08:51:23.646Z</time></trkpt><trkpt lat="45.0576433" lon="9.5513533"><ele>64.0</ele><time>2026-03-27T08:51:24.647Z</time></trkpt><trkpt lat="45.0576533" lon="9.5512283"><ele>63.99999999999999</ele><time>2026-03-27T08:51:25.651Z</time></trkpt><trkpt lat="45.05767" lon="9.5511133"><ele>64.0</ele><time>2026-03-27T08:51:26.647Z</time></trkpt><trkpt lat="45.05769" lon="9.5510067"><ele>64.16666666666666</ele><time>2026-03-27T08:51:27.647Z</time></trkpt><trkpt lat="45.057705" lon="9.5509083"><ele>64.33333333333333</ele><time>2026-03-27T08:51:28.646Z</time></trkpt><trkpt lat="45.0577433" lon="9.5507683"><ele>64.5</ele><time>2026-03-27T08:51:30.646Z</time></trkpt><trkpt lat="45.0577667" lon="9.55068"><ele>64.66666666666667</ele><time>2026-03-27T08:51:33.647Z</time></trkpt><trkpt lat="45.0578033" lon="9.5505317"><ele>64.83333333333334</ele><time>2026-03-27T08:52:45.647Z</time></trkpt><trkpt lat="45.0578283" lon="9.550425"><ele>65.0</ele><time>2026-03-27T08:52:46.649Z</time></trkpt><trkpt lat="45.057875" lon="9.550265"><ele>64.5</ele><time>2026-03-27T08:52:47.648Z</time></trkpt><trkpt lat="45.05792" lon="9.5501017"><ele>64.0</ele><time>2026-03-27T08:52:48.647Z</time></trkpt><trkpt lat="45.0579683" lon="9.5499267"><ele>63.5</ele><time>2026-03-27T08:52:49.648Z</time></trkpt><trkpt lat="45.05801" lon="9.549755"><ele>63.0</ele><time>2026-03-27T08:52:50.648Z</time></trkpt><trkpt lat="45.0580417" lon="9.54959"><ele>63.0</ele><time>2026-03-27T08:52:51.647Z</time></trkpt><trkpt lat="45.058065" lon="9.5494167"><ele>63.0</ele><time>2026-03-27T08:52:52.647Z</time></trkpt><trkpt lat="45.0580833" lon="9.5492267"><ele>63.0</ele><time>2026-03-27T08:52:53.648Z</time></trkpt><trkpt lat="45.0580933" lon="9.54902"><ele>63.0</ele><time>2026-03-27T08:52:54.648Z</time></trkpt><trkpt lat="45.0580883" lon="9.5488167"><ele>62.5</ele><time>2026-03-27T08:52:55.647Z</time></trkpt><trkpt lat="45.05808" lon="9.54861"><ele>62.0</ele><time>2026-03-27T08:52:56.65Z</time></trkpt><trkpt lat="45.0580683" lon="9.548405"><ele>61.5</ele><time>2026-03-27T08:52:57.647Z</time></trkpt><trkpt lat="45.0580533" lon="9.5481967"><ele>61.0</ele><time>2026-03-27T08:52:58.65Z</time></trkpt><trkpt lat="45.05803" lon="9.5479933"><ele>60.666666666666664</ele><time>2026-03-27T08:52:59.646Z</time></trkpt><trkpt lat="45.0580067" lon="9.5477733"><ele>60.33333333333333</ele><time>2026-03-27T08:53:00.648Z</time></trkpt><trkpt lat="45.0579767" lon="9.5475317"><ele>60.0</ele><time>2026-03-27T08:53:01.648Z</time></trkpt><trkpt lat="45.057935" lon="9.5472783"><ele>60.0</ele><time>2026-03-27T08:53:02.647Z</time></trkpt><trkpt lat="45.057885" lon="9.5470133"><ele>60.0</ele><time>2026-03-27T08:53:03.647Z</time></trkpt><trkpt lat="45.0578283" lon="9.5467317"><ele>60.0</ele><time>2026-03-27T08:53:04.648Z</time></trkpt><trkpt lat="45.0577733" lon="9.5464433"><ele>60.33333333333333</ele><time>2026-03-27T08:53:05.648Z</time></trkpt><trkpt lat="45.0577183" lon="9.546155"><ele>60.666666666666664</ele><time>2026-03-27T08:53:06.646Z</time></trkpt><trkpt lat="45.0576617" lon="9.5458633"><ele>61.0</ele><time>2026-03-27T08:53:07.646Z</time></trkpt><trkpt lat="45.0576083" lon="9.5455833"><ele>61.33333333333333</ele><time>2026-03-27T08:53:08.648Z</time></trkpt><trkpt lat="45.0575583" lon="9.5453283"><ele>61.66666666666667</ele><time>2026-03-27T08:53:09.646Z</time></trkpt><trkpt lat="45.057505" lon="9.54508"><ele>62.0</ele><time>2026-03-27T08:53:10.646Z</time></trkpt><trkpt lat="45.0574617" lon="9.5448167"><ele>62.66666666666667</ele><time>2026-03-27T08:53:11.646Z</time></trkpt><trkpt lat="45.0574233" lon="9.5445567"><ele>63.33333333333333</ele><time>2026-03-27T08:53:12.649Z</time></trkpt><trkpt lat="45.0573933" lon="9.5442967"><ele>64.0</ele><time>2026-03-27T08:53:13.647Z</time></trkpt><trkpt lat="45.057365" lon="9.5440233"><ele>64.0</ele><time>2026-03-27T08:53:14.647Z</time></trkpt><trkpt lat="45.05734" lon="9.5437517"><ele>64.0</ele><time>2026-03-27T08:53:15.648Z</time></trkpt><trkpt lat="45.05732" lon="9.5434883"><ele>64.0</ele><time>2026-03-27T08:53:16.647Z</time></trkpt><trkpt lat="45.0573017" lon="9.54322"><ele>64.33333333333333</ele><time>2026-03-27T08:53:17.651Z</time></trkpt><trkpt lat="45.0572883" lon="9.542965"><ele>64.66666666666667</ele><time>2026-03-27T08:53:18.649Z</time></trkpt><trkpt lat="45.0572783" lon="9.5427167"><ele>65.0</ele><time>2026-03-27T08:53:19.647Z</time></trkpt><trkpt lat="45.0572667" lon="9.54246"><ele>65.0</ele><time>2026-03-27T08:53:20.648Z</time></trkpt><trkpt lat="45.0572617" lon="9.5421917"><ele>65.0</ele><time>2026-03-27T08:53:21.649Z</time></trkpt><trkpt lat="45.0572533" lon="9.541915"><ele>65.0</ele><time>2026-03-27T08:53:22.65Z</time></trkpt><trkpt lat="45.05724" lon="9.54164"><ele>65.0</ele><time>2026-03-27T08:53:23.648Z</time></trkpt><trkpt lat="45.0572283" lon="9.5413667"><ele>65.0</ele><time>2026-03-27T08:53:24.647Z</time></trkpt><trkpt lat="45.0572117" lon="9.5410867"><ele>65.0</ele><time>2026-03-27T08:53:25.649Z</time></trkpt><trkpt lat="45.0571967" lon="9.5408083"><ele>64.33333333333334</ele><time>2026-03-27T08:53:26.646Z</time></trkpt><trkpt lat="45.0571817" lon="9.5405317"><ele>63.66666666666667</ele><time>2026-03-27T08:53:27.646Z</time></trkpt><trkpt lat="45.0571667" lon="9.540255"><ele>63.0</ele><time>2026-03-27T08:53:28.646Z</time></trkpt><trkpt lat="45.0571533" lon="9.5399717"><ele>63.0</ele><time>2026-03-27T08:53:29.647Z</time></trkpt><trkpt lat="45.0571367" lon="9.5396917"><ele>63.0</ele><time>2026-03-27T08:53:30.647Z</time></trkpt><trkpt lat="45.05712" lon="9.5394117"><ele>63.0</ele><time>2026-03-27T08:53:31.646Z</time></trkpt><trkpt lat="45.0571033" lon="9.539135"><ele>63.0</ele><time>2026-03-27T08:53:32.647Z</time></trkpt><trkpt lat="45.05709" lon="9.5388533"><ele>63.0</ele><time>2026-03-27T08:53:33.646Z</time></trkpt><trkpt lat="45.057075" lon="9.5385717"><ele>63.0</ele><time>2026-03-27T08:53:34.649Z</time></trkpt><trkpt lat="45.0570583" lon="9.53829"><ele>63.0</ele><time>2026-03-27T08:53:35.646Z</time></trkpt><trkpt lat="45.05704" lon="9.5380133"><ele>63.0</ele><time>2026-03-27T08:53:36.649Z</time></trkpt><trkpt lat="45.057025" lon="9.537735"><ele>63.0</ele><time>2026-03-27T08:53:37.648Z</time></trkpt><trkpt lat="45.0570167" lon="9.5374567"><ele>63.0</ele><time>2026-03-27T08:53:38.648Z</time></trkpt><trkpt lat="45.057005" lon="9.5371767"><ele>63.0</ele><time>2026-03-27T08:53:39.649Z</time></trkpt><trkpt lat="45.056995" lon="9.5368917"><ele>63.0</ele><time>2026-03-27T08:53:40.648Z</time></trkpt><trkpt lat="45.056985" lon="9.5366067"><ele>63.0</ele><time>2026-03-27T08:53:41.65Z</time></trkpt><trkpt lat="45.0569717" lon="9.5363217"><ele>63.0</ele><time>2026-03-27T08:53:42.649Z</time></trkpt><trkpt lat="45.05696" lon="9.5360367"><ele>63.0</ele><time>2026-03-27T08:53:43.646Z</time></trkpt><trkpt lat="45.0569483" lon="9.5357517"><ele>63.0</ele><time>2026-03-27T08:53:44.648Z</time></trkpt><trkpt lat="45.0569333" lon="9.5354667"><ele>63.0</ele><time>2026-03-27T08:53:45.649Z</time></trkpt><trkpt lat="45.0569183" lon="9.53518"><ele>63.0</ele><time>2026-03-27T08:53:46.649Z</time></trkpt><trkpt lat="45.0569017" lon="9.53489"><ele>63.0</ele><time>2026-03-27T08:53:47.649Z</time></trkpt><trkpt lat="45.0568833" lon="9.534605"><ele>63.0</ele><time>2026-03-27T08:53:48.65Z</time></trkpt><trkpt lat="45.0568717" lon="9.5343133"><ele>63.0</ele><time>2026-03-27T08:53:49.65Z</time></trkpt><trkpt lat="45.0568567" lon="9.5340233"><ele>62.66666666666667</ele><time>2026-03-27T08:53:50.649Z</time></trkpt><trkpt lat="45.0568417" lon="9.53373"><ele>62.333333333333336</ele><time>2026-03-27T08:53:51.65Z</time></trkpt><trkpt lat="45.0568283" lon="9.5334317"><ele>62.0</ele><time>2026-03-27T08:53:52.648Z</time></trkpt><trkpt lat="45.056815" lon="9.5331367"><ele>62.333333333333336</ele><time>2026-03-27T08:53:53.65Z</time></trkpt><trkpt lat="45.0568" lon="9.532835"><ele>62.66666666666667</ele><time>2026-03-27T08:53:54.648Z</time></trkpt><trkpt lat="45.0567867" lon="9.532525"><ele>63.0</ele><time>2026-03-27T08:53:55.646Z</time></trkpt><trkpt lat="45.0567717" lon="9.5322133"><ele>62.66666666666667</ele><time>2026-03-27T08:53:56.647Z</time></trkpt><trkpt lat="45.0567567" lon="9.5319017"><ele>62.333333333333336</ele><time>2026-03-27T08:53:57.647Z</time></trkpt><trkpt lat="45.0567383" lon="9.53159"><ele>62.0</ele><time>2026-03-27T08:53:58.648Z</time></trkpt><trkpt lat="45.0567233" lon="9.5312867"><ele>61.0</ele><time>2026-03-27T08:53:59.646Z</time></trkpt><trkpt lat="45.0567083" lon="9.5309983"><ele>60.0</ele><time>2026-03-27T08:54:00.647Z</time></trkpt><trkpt lat="45.056695" lon="9.5307167"><ele>59.0</ele><time>2026-03-27T08:54:01.646Z</time></trkpt><trkpt lat="45.05668" lon="9.53044"><ele>58.0</ele><time>2026-03-27T08:54:02.648Z</time></trkpt><trkpt lat="45.0566633" lon="9.530165"><ele>57.0</ele><time>2026-03-27T08:54:03.646Z</time></trkpt><trkpt lat="45.0566483" lon="9.5298817"><ele>56.0</ele><time>2026-03-27T08:54:04.648Z</time></trkpt><trkpt lat="45.0566317" lon="9.5295933"><ele>57.333333333333336</ele><time>2026-03-27T08:54:05.646Z</time></trkpt><trkpt lat="45.0566167" lon="9.5293033"><ele>58.66666666666667</ele><time>2026-03-27T08:54:06.646Z</time></trkpt><trkpt lat="45.056605" lon="9.5290183"><ele>60.0</ele><time>2026-03-27T08:54:07.647Z</time></trkpt><trkpt lat="45.0565883" lon="9.5287417"><ele>60.33333333333333</ele><time>2026-03-27T08:54:08.646Z</time></trkpt><trkpt lat="45.0565717" lon="9.5284717"><ele>60.666666666666664</ele><time>2026-03-27T08:54:09.647Z</time></trkpt><trkpt lat="45.0565567" lon="9.5281817"><ele>61.0</ele><time>2026-03-27T08:54:10.646Z</time></trkpt><trkpt lat="45.0565433" lon="9.5279083"><ele>63.0</ele><time>2026-03-27T08:54:11.648Z</time></trkpt><trkpt lat="45.05653" lon="9.5276317"><ele>65.0</ele><time>2026-03-27T08:54:12.646Z</time></trkpt><trkpt lat="45.0565183" lon="9.5273433"><ele>67.0</ele><time>2026-03-27T08:54:13.647Z</time></trkpt><trkpt lat="45.056505" lon="9.5270633"><ele>68.0</ele><time>2026-03-27T08:54:14.649Z</time></trkpt><trkpt lat="45.0564867" lon="9.5267817"><ele>69.0</ele><time>2026-03-27T08:54:15.647Z</time></trkpt><trkpt lat="45.0564733" lon="9.5264983"><ele>70.0</ele><time>2026-03-27T08:54:16.647Z</time></trkpt><trkpt lat="45.0564617" lon="9.5262133"><ele>70.0</ele><time>2026-03-27T08:54:17.648Z</time></trkpt><trkpt lat="45.0564467" lon="9.525915"><ele>70.0</ele><time>2026-03-27T08:54:18.648Z</time></trkpt><trkpt lat="45.0564333" lon="9.525625"><ele>70.0</ele><time>2026-03-27T08:54:19.646Z</time></trkpt><trkpt lat="45.0564217" lon="9.5253333"><ele>70.0</ele><time>2026-03-27T08:54:20.647Z</time></trkpt><trkpt lat="45.05641" lon="9.5250433"><ele>70.0</ele><time>2026-03-27T08:54:21.647Z</time></trkpt><trkpt lat="45.056395" lon="9.5247533"><ele>70.0</ele><time>2026-03-27T08:54:22.648Z</time></trkpt><trkpt lat="45.0563817" lon="9.5244633"><ele>68.66666666666666</ele><time>2026-03-27T08:54:23.651Z</time></trkpt><trkpt lat="45.0563667" lon="9.5241717"><ele>67.33333333333333</ele><time>2026-03-27T08:54:24.647Z</time></trkpt><trkpt lat="45.0563517" lon="9.5238817"><ele>66.0</ele><time>2026-03-27T08:54:25.648Z</time></trkpt><trkpt lat="45.0563383" lon="9.52359"><ele>64.66666666666667</ele><time>2026-03-27T08:54:26.648Z</time></trkpt><trkpt lat="45.0563267" lon="9.52329"><ele>63.333333333333336</ele><time>2026-03-27T08:54:27.65Z</time></trkpt><trkpt lat="45.0563183" lon="9.5229783"><ele>62.0</ele><time>2026-03-27T08:54:28.646Z</time></trkpt><trkpt lat="45.0563" lon="9.5226717"><ele>62.0</ele><time>2026-03-27T08:54:29.647Z</time></trkpt><trkpt lat="45.0562817" lon="9.522365"><ele>62.0</ele><time>2026-03-27T08:54:30.646Z</time></trkpt><trkpt lat="45.056265" lon="9.5220467"><ele>62.0</ele><time>2026-03-27T08:54:31.646Z</time></trkpt><trkpt lat="45.0562467" lon="9.5217267"><ele>62.0</ele><time>2026-03-27T08:54:32.651Z</time></trkpt><trkpt lat="45.0562283" lon="9.5214067"><ele>62.0</ele><time>2026-03-27T08:54:33.647Z</time></trkpt><trkpt lat="45.0562117" lon="9.5210917"><ele>62.0</ele><time>2026-03-27T08:54:34.647Z</time></trkpt><trkpt lat="45.0561967" lon="9.52077"><ele>62.0</ele><time>2026-03-27T08:54:35.646Z</time></trkpt><trkpt lat="45.0561833" lon="9.520445"><ele>62.0</ele><time>2026-03-27T08:54:36.648Z</time></trkpt><trkpt lat="45.0561717" lon="9.5201233"><ele>62.0</ele><time>2026-03-27T08:54:37.647Z</time></trkpt><trkpt lat="45.05616" lon="9.5198033"><ele>61.66666666666667</ele><time>2026-03-27T08:54:38.647Z</time></trkpt><trkpt lat="45.0561467" lon="9.51949"><ele>61.33333333333333</ele><time>2026-03-27T08:54:39.651Z</time></trkpt><trkpt lat="45.0561317" lon="9.51917"><ele>61.0</ele><time>2026-03-27T08:54:40.647Z</time></trkpt><trkpt lat="45.0561167" lon="9.51884"><ele>61.0</ele><time>2026-03-27T08:54:41.646Z</time></trkpt><trkpt lat="45.0561033" lon="9.51851"><ele>61.0</ele><time>2026-03-27T08:54:42.648Z</time></trkpt><trkpt lat="45.0560883" lon="9.5181783"><ele>61.5</ele><time>2026-03-27T08:54:43.647Z</time></trkpt><trkpt lat="45.05607" lon="9.517845"><ele>62.0</ele><time>2026-03-27T08:54:44.648Z</time></trkpt><trkpt lat="45.0560517" lon="9.5175133"><ele>62.0</ele><time>2026-03-27T08:54:45.65Z</time></trkpt><trkpt lat="45.056035" lon="9.5171783"><ele>62.0</ele><time>2026-03-27T08:54:46.646Z</time></trkpt><trkpt lat="45.05602" lon="9.516845"><ele>62.0</ele><time>2026-03-27T08:54:47.647Z</time></trkpt><trkpt lat="45.0560033" lon="9.5165133"><ele>62.0</ele><time>2026-03-27T08:54:48.646Z</time></trkpt><trkpt lat="45.0559867" lon="9.5161867"><ele>62.333333333333336</ele><time>2026-03-27T08:54:49.646Z</time></trkpt><trkpt lat="45.055975" lon="9.5158667"><ele>62.66666666666667</ele><time>2026-03-27T08:54:50.647Z</time></trkpt><trkpt lat="45.0559633" lon="9.515555"><ele>63.0</ele><time>2026-03-27T08:54:51.648Z</time></trkpt><trkpt lat="45.0559467" lon="9.5152433"><ele>63.33333333333333</ele><time>2026-03-27T08:54:52.646Z</time></trkpt><trkpt lat="45.0559317" lon="9.514935"><ele>63.666666666666664</ele><time>2026-03-27T08:54:53.648Z</time></trkpt><trkpt lat="45.055915" lon="9.5146267"><ele>64.0</ele><time>2026-03-27T08:54:54.648Z</time></trkpt><trkpt lat="45.0558983" lon="9.5143183"><ele>64.33333333333333</ele><time>2026-03-27T08:54:55.646Z</time></trkpt><trkpt lat="45.0558817" lon="9.5140233"><ele>64.66666666666667</ele><time>2026-03-27T08:54:56.649Z</time></trkpt><trkpt lat="45.0558683" lon="9.5137383"><ele>65.0</ele><time>2026-03-27T08:54:57.646Z</time></trkpt><trkpt lat="45.055855" lon="9.5134567"><ele>65.0</ele><time>2026-03-27T08:54:58.648Z</time></trkpt><trkpt lat="45.0558433" lon="9.5131817"><ele>65.0</ele><time>2026-03-27T08:54:59.646Z</time></trkpt><trkpt lat="45.0558333" lon="9.5129"><ele>65.0</ele><time>2026-03-27T08:55:00.646Z</time></trkpt><trkpt lat="45.0558167" lon="9.51262"><ele>64.66666666666667</ele><time>2026-03-27T08:55:01.647Z</time></trkpt><trkpt lat="45.0558" lon="9.5123433"><ele>64.33333333333333</ele><time>2026-03-27T08:55:02.646Z</time></trkpt><trkpt lat="45.05579" lon="9.5120617"><ele>64.0</ele><time>2026-03-27T08:55:03.646Z</time></trkpt><trkpt lat="45.0557817" lon="9.5117783"><ele>64.66666666666666</ele><time>2026-03-27T08:55:04.649Z</time></trkpt><trkpt lat="45.05577" lon="9.5114917"><ele>65.33333333333333</ele><time>2026-03-27T08:55:05.647Z</time></trkpt><trkpt lat="45.055755" lon="9.5112083"><ele>66.0</ele><time>2026-03-27T08:55:06.647Z</time></trkpt><trkpt lat="45.0557383" lon="9.5109233"><ele>66.0</ele><time>2026-03-27T08:55:07.647Z</time></trkpt><trkpt lat="45.05572" lon="9.5106333"><ele>66.0</ele><time>2026-03-27T08:55:08.649Z</time></trkpt><trkpt lat="45.0557033" lon="9.5103467"><ele>66.0</ele><time>2026-03-27T08:55:09.646Z</time></trkpt><trkpt lat="45.0556917" lon="9.5100633"><ele>66.0</ele><time>2026-03-27T08:55:10.648Z</time></trkpt><trkpt lat="45.0556783" lon="9.5097733"><ele>66.0</ele><time>2026-03-27T08:55:11.646Z</time></trkpt><trkpt lat="45.055665" lon="9.5095133"><ele>66.0</ele><time>2026-03-27T08:55:12.647Z</time></trkpt><trkpt lat="45.05565" lon="9.50927"><ele>66.0</ele><time>2026-03-27T08:55:13.648Z</time></trkpt><trkpt lat="45.0556383" lon="9.50902"><ele>66.0</ele><time>2026-03-27T08:55:14.647Z</time></trkpt><trkpt lat="45.0556267" lon="9.5087817"><ele>66.0</ele><time>2026-03-27T08:55:15.648Z</time></trkpt><trkpt lat="45.0556167" lon="9.5085483"><ele>66.33333333333333</ele><time>2026-03-27T08:55:16.648Z</time></trkpt><trkpt lat="45.055605" lon="9.50832"><ele>66.66666666666666</ele><time>2026-03-27T08:55:17.646Z</time></trkpt><trkpt lat="45.055595" lon="9.50809"><ele>67.0</ele><time>2026-03-27T08:55:18.646Z</time></trkpt><trkpt lat="45.055585" lon="9.5078583"><ele>67.0</ele><time>2026-03-27T08:55:19.647Z</time></trkpt><trkpt lat="45.0555733" lon="9.5076383"><ele>67.0</ele><time>2026-03-27T08:55:20.648Z</time></trkpt><trkpt lat="45.05556" lon="9.5074317"><ele>67.0</ele><time>2026-03-27T08:55:21.646Z</time></trkpt><trkpt lat="45.055545" lon="9.5072333"><ele>67.0</ele><time>2026-03-27T08:55:22.647Z</time></trkpt><trkpt lat="45.0555333" lon="9.5070433"><ele>67.5</ele><time>2026-03-27T08:55:23.646Z</time></trkpt><trkpt lat="45.0555317" lon="9.5068767"><ele>68.0</ele><time>2026-03-27T08:55:24.646Z</time></trkpt><trkpt lat="45.0555483" lon="9.50672"><ele>68.5</ele><time>2026-03-27T08:55:25.646Z</time></trkpt><trkpt lat="45.0555817" lon="9.5065667"><ele>69.0</ele><time>2026-03-27T08:55:26.646Z</time></trkpt><trkpt lat="45.0555933" lon="9.50641"><ele>69.0</ele><time>2026-03-27T08:55:27.646Z</time></trkpt><trkpt lat="45.0555667" lon="9.5062567"><ele>69.0</ele><time>2026-03-27T08:55:28.646Z</time></trkpt><trkpt lat="45.0555233" lon="9.5060933"><ele>69.0</ele><time>2026-03-27T08:55:29.646Z</time></trkpt><trkpt lat="45.0554817" lon="9.5059167"><ele>69.0</ele><time>2026-03-27T08:55:30.646Z</time></trkpt><trkpt lat="45.0554633" lon="9.5057233"><ele>71.0</ele><time>2026-03-27T08:55:31.646Z</time></trkpt><trkpt lat="45.0554567" lon="9.5055083"><ele>73.0</ele><time>2026-03-27T08:55:32.649Z</time></trkpt><trkpt lat="45.0554517" lon="9.5052683"><ele>75.0</ele><time>2026-03-27T08:55:33.647Z</time></trkpt><trkpt lat="45.0554383" lon="9.5050283"><ele>75.0</ele><time>2026-03-27T08:55:34.646Z</time></trkpt><trkpt lat="45.0554233" lon="9.5047933"><ele>75.0</ele><time>2026-03-27T08:55:35.646Z</time></trkpt><trkpt lat="45.0554067" lon="9.5045567"><ele>75.0</ele><time>2026-03-27T08:55:36.646Z</time></trkpt><trkpt lat="45.0553917" lon="9.5043183"><ele>73.33333333333333</ele><time>2026-03-27T08:55:37.646Z</time></trkpt><trkpt lat="45.0553783" lon="9.5040783"><ele>71.66666666666666</ele><time>2026-03-27T08:55:38.647Z</time></trkpt><trkpt lat="45.0553667" lon="9.503835"><ele>70.0</ele><time>2026-03-27T08:55:39.646Z</time></trkpt><trkpt lat="45.0553567" lon="9.503585"><ele>69.0</ele><time>2026-03-27T08:55:40.646Z</time></trkpt><trkpt lat="45.055345" lon="9.5033333"><ele>68.0</ele><time>2026-03-27T08:55:41.649Z</time></trkpt><trkpt lat="45.0553333" lon="9.5030817"><ele>67.0</ele><time>2026-03-27T08:55:42.646Z</time></trkpt><trkpt lat="45.0553217" lon="9.502825"><ele>66.66666666666666</ele><time>2026-03-27T08:55:43.648Z</time></trkpt><trkpt lat="45.05531" lon="9.5025683"><ele>66.33333333333333</ele><time>2026-03-27T08:55:44.646Z</time></trkpt><trkpt lat="45.0552933" lon="9.50231"><ele>66.0</ele><time>2026-03-27T08:55:45.646Z</time></trkpt><trkpt lat="45.0552783" lon="9.5020483"><ele>66.0</ele><time>2026-03-27T08:55:46.647Z</time></trkpt><trkpt lat="45.0552633" lon="9.5017783"><ele>66.0</ele><time>2026-03-27T08:55:47.646Z</time></trkpt><trkpt lat="45.0552483" lon="9.50151"><ele>66.0</ele><time>2026-03-27T08:55:48.649Z</time></trkpt><trkpt lat="45.055235" lon="9.5012433"><ele>66.0</ele><time>2026-03-27T08:55:49.648Z</time></trkpt><trkpt lat="45.0552217" lon="9.5009767"><ele>66.0</ele><time>2026-03-27T08:55:50.647Z</time></trkpt><trkpt lat="45.0552067" lon="9.50071"><ele>66.0</ele><time>2026-03-27T08:55:51.648Z</time></trkpt><trkpt lat="45.0551917" lon="9.5004433"><ele>66.66666666666667</ele><time>2026-03-27T08:55:52.647Z</time></trkpt><trkpt lat="45.0551783" lon="9.5001717"><ele>67.33333333333334</ele><time>2026-03-27T08:55:53.65Z</time></trkpt><trkpt lat="45.0551617" lon="9.4998883"><ele>68.0</ele><time>2026-03-27T08:55:54.647Z</time></trkpt><trkpt lat="45.055145" lon="9.4996"><ele>68.0</ele><time>2026-03-27T08:55:55.647Z</time></trkpt><trkpt lat="45.0551317" lon="9.49934"><ele>68.0</ele><time>2026-03-27T08:55:56.647Z</time></trkpt><trkpt lat="45.0551217" lon="9.4990933"><ele>68.0</ele><time>2026-03-27T08:55:57.646Z</time></trkpt><trkpt lat="45.0551117" lon="9.4988567"><ele>67.66666666666667</ele><time>2026-03-27T08:55:58.648Z</time></trkpt><trkpt lat="45.0551" lon="9.4986333"><ele>67.33333333333333</ele><time>2026-03-27T08:55:59.647Z</time></trkpt><trkpt lat="45.05509" lon="9.498415"><ele>67.0</ele><time>2026-03-27T08:56:00.647Z</time></trkpt><trkpt lat="45.05508" lon="9.4982033"><ele>67.0</ele><time>2026-03-27T08:56:01.65Z</time></trkpt><trkpt lat="45.0550683" lon="9.4979967"><ele>67.0</ele><time>2026-03-27T08:56:02.647Z</time></trkpt><trkpt lat="45.0550567" lon="9.4977883"><ele>67.0</ele><time>2026-03-27T08:56:03.647Z</time></trkpt><trkpt lat="45.0550467" lon="9.497565"><ele>66.66666666666666</ele><time>2026-03-27T08:56:04.648Z</time></trkpt><trkpt lat="45.0550367" lon="9.49733"><ele>66.33333333333333</ele><time>2026-03-27T08:56:05.647Z</time></trkpt><trkpt lat="45.055025" lon="9.4970883"><ele>66.0</ele><time>2026-03-27T08:56:06.647Z</time></trkpt><trkpt lat="45.0550133" lon="9.496835"><ele>66.0</ele><time>2026-03-27T08:56:07.648Z</time></trkpt><trkpt lat="45.0550033" lon="9.49657"><ele>66.0</ele><time>2026-03-27T08:56:08.648Z</time></trkpt><trkpt lat="45.0549917" lon="9.496295"><ele>66.0</ele><time>2026-03-27T08:56:09.647Z</time></trkpt><trkpt lat="45.0549833" lon="9.4960133"><ele>66.0</ele><time>2026-03-27T08:56:10.647Z</time></trkpt><trkpt lat="45.0549733" lon="9.4957433"><ele>66.0</ele><time>2026-03-27T08:56:11.647Z</time></trkpt><trkpt lat="45.0549617" lon="9.4954717"><ele>66.0</ele><time>2026-03-27T08:56:12.647Z</time></trkpt><trkpt lat="45.0549483" lon="9.4951983"><ele>66.33333333333333</ele><time>2026-03-27T08:56:13.647Z</time></trkpt><trkpt lat="45.0549317" lon="9.494935"><ele>66.66666666666666</ele><time>2026-03-27T08:56:14.647Z</time></trkpt><trkpt lat="45.0549167" lon="9.49469"><ele>67.0</ele><time>2026-03-27T08:56:15.652Z</time></trkpt><trkpt lat="45.054905" lon="9.4944517"><ele>67.0</ele><time>2026-03-27T08:56:16.648Z</time></trkpt><trkpt lat="45.0548867" lon="9.4942267"><ele>67.0</ele><time>2026-03-27T08:56:17.649Z</time></trkpt><trkpt lat="45.054865" lon="9.4939917"><ele>67.0</ele><time>2026-03-27T08:56:18.648Z</time></trkpt><trkpt lat="45.0548533" lon="9.4937167"><ele>67.0</ele><time>2026-03-27T08:56:19.648Z</time></trkpt><trkpt lat="45.05484" lon="9.493465"><ele>67.0</ele><time>2026-03-27T08:56:20.65Z</time></trkpt><trkpt lat="45.05483" lon="9.49324"><ele>67.0</ele><time>2026-03-27T08:56:21.649Z</time></trkpt><trkpt lat="45.0548217" lon="9.4930283"><ele>67.0</ele><time>2026-03-27T08:56:22.65Z</time></trkpt><trkpt lat="45.054815" lon="9.49283"><ele>67.0</ele><time>2026-03-27T08:56:23.648Z</time></trkpt><trkpt lat="45.0548083" lon="9.4926483"><ele>67.0</ele><time>2026-03-27T08:56:24.646Z</time></trkpt><trkpt lat="45.0548033" lon="9.4924833"><ele>67.0</ele><time>2026-03-27T08:56:25.653Z</time></trkpt><trkpt lat="45.0548" lon="9.4923267"><ele>67.0</ele><time>2026-03-27T08:56:26.646Z</time></trkpt><trkpt lat="45.0548" lon="9.4921633"><ele>67.0</ele><time>2026-03-27T08:56:27.648Z</time></trkpt><trkpt lat="45.0547933" lon="9.4919983"><ele>67.0</ele><time>2026-03-27T08:56:28.646Z</time></trkpt><trkpt lat="45.0547867" lon="9.4918333"><ele>67.0</ele><time>2026-03-27T08:56:29.646Z</time></trkpt><trkpt lat="45.05478" lon="9.4916767"><ele>67.4</ele><time>2026-03-27T08:56:30.648Z</time></trkpt><trkpt lat="45.0547733" lon="9.49153"><ele>67.80000000000001</ele><time>2026-03-27T08:56:31.646Z</time></trkpt><trkpt lat="45.054765" lon="9.49139"><ele>68.2</ele><time>2026-03-27T08:56:32.657Z</time></trkpt><trkpt lat="45.05476" lon="9.4912517"><ele>68.60000000000001</ele><time>2026-03-27T08:56:33.646Z</time></trkpt><trkpt lat="45.0547567" lon="9.49111"><ele>69.0</ele><time>2026-03-27T08:56:34.648Z</time></trkpt><trkpt lat="45.0547533" lon="9.4909717"><ele>69.16666666666667</ele><time>2026-03-27T08:56:35.648Z</time></trkpt><trkpt lat="45.05475" lon="9.4908417"><ele>69.33333333333333</ele><time>2026-03-27T08:56:36.646Z</time></trkpt><trkpt lat="45.054745" lon="9.490715"><ele>69.5</ele><time>2026-03-27T08:56:37.647Z</time></trkpt><trkpt lat="45.05474" lon="9.4906033"><ele>69.66666666666666</ele><time>2026-03-27T08:56:38.648Z</time></trkpt><trkpt lat="45.054735" lon="9.4904917"><ele>69.83333333333333</ele><time>2026-03-27T08:56:39.647Z</time></trkpt><trkpt lat="45.0547283" lon="9.490395"><ele>70.0</ele><time>2026-03-27T08:56:40.647Z</time></trkpt><trkpt lat="45.0547267" lon="9.4902783"><ele>70.0</ele><time>2026-03-27T08:56:42.647Z</time></trkpt><trkpt lat="45.0547317" lon="9.49018"><ele>70.0</ele><time>2026-03-27T08:56:45.646Z</time></trkpt><trkpt lat="45.0547183" lon="9.4900867"><ele>70.0</ele><time>2026-03-27T08:57:08.651Z</time></trkpt><trkpt lat="45.0547183" lon="9.4899033"><ele>70.0</ele><time>2026-03-27T08:57:10.65Z</time></trkpt><trkpt lat="45.054725" lon="9.4897483"><ele>70.0</ele><time>2026-03-27T08:57:11.648Z</time></trkpt><trkpt lat="45.0547233" lon="9.4895567"><ele>70.0</ele><time>2026-03-27T08:57:12.648Z</time></trkpt><trkpt lat="45.0547217" lon="9.4893467"><ele>70.0</ele><time>2026-03-27T08:57:13.648Z</time></trkpt><trkpt lat="45.05471" lon="9.4891133"><ele>70.0</ele><time>2026-03-27T08:57:14.651Z</time></trkpt><trkpt lat="45.054695" lon="9.48887"><ele>70.33333333333333</ele><time>2026-03-27T08:57:15.649Z</time></trkpt><trkpt lat="45.054685" lon="9.48862"><ele>70.66666666666667</ele><time>2026-03-27T08:57:16.648Z</time></trkpt><trkpt lat="45.0546767" lon="9.4883717"><ele>71.0</ele><time>2026-03-27T08:57:17.648Z</time></trkpt><trkpt lat="45.0546683" lon="9.488125"><ele>71.66666666666667</ele><time>2026-03-27T08:57:18.647Z</time></trkpt><trkpt lat="45.0546567" lon="9.48787"><ele>72.33333333333333</ele><time>2026-03-27T08:57:19.648Z</time></trkpt><trkpt lat="45.054645" lon="9.4876083"><ele>73.0</ele><time>2026-03-27T08:57:20.647Z</time></trkpt><trkpt lat="45.054635" lon="9.4873367"><ele>72.66666666666666</ele><time>2026-03-27T08:57:21.647Z</time></trkpt><trkpt lat="45.0546233" lon="9.4870667"><ele>72.33333333333333</ele><time>2026-03-27T08:57:22.648Z</time></trkpt><trkpt lat="45.05461" lon="9.4868033"><ele>72.0</ele><time>2026-03-27T08:57:23.651Z</time></trkpt><trkpt lat="45.0545967" lon="9.486535"><ele>71.33333333333333</ele><time>2026-03-27T08:57:24.647Z</time></trkpt><trkpt lat="45.05458" lon="9.4862517"><ele>70.66666666666666</ele><time>2026-03-27T08:57:25.65Z</time></trkpt><trkpt lat="45.054565" lon="9.4859567"><ele>70.0</ele><time>2026-03-27T08:57:26.649Z</time></trkpt><trkpt lat="45.0545467" lon="9.4856633"><ele>69.66666666666666</ele><time>2026-03-27T08:57:27.649Z</time></trkpt><trkpt lat="45.0545317" lon="9.4853633"><ele>69.33333333333333</ele><time>2026-03-27T08:57:28.648Z</time></trkpt><trkpt lat="45.0545167" lon="9.48507"><ele>69.0</ele><time>2026-03-27T08:57:29.647Z</time></trkpt><trkpt lat="45.054505" lon="9.4847867"><ele>69.33333333333333</ele><time>2026-03-27T08:57:30.646Z</time></trkpt><trkpt lat="45.0544933" lon="9.484505"><ele>69.66666666666666</ele><time>2026-03-27T08:57:31.649Z</time></trkpt><trkpt lat="45.05448" lon="9.4842283"><ele>70.0</ele><time>2026-03-27T08:57:32.646Z</time></trkpt><trkpt lat="45.0544683" lon="9.4839517"><ele>70.0</ele><time>2026-03-27T08:57:33.647Z</time></trkpt><trkpt lat="45.054455" lon="9.4836733"><ele>70.0</ele><time>2026-03-27T08:57:34.646Z</time></trkpt><trkpt lat="45.0544383" lon="9.4833917"><ele>70.0</ele><time>2026-03-27T08:57:35.646Z</time></trkpt><trkpt lat="45.0544217" lon="9.4831083"><ele>69.66666666666666</ele><time>2026-03-27T08:57:36.649Z</time></trkpt><trkpt lat="45.0544033" lon="9.4828267"><ele>69.33333333333333</ele><time>2026-03-27T08:57:37.646Z</time></trkpt><trkpt lat="45.054385" lon="9.4825433"><ele>69.0</ele><time>2026-03-27T08:57:38.647Z</time></trkpt><trkpt lat="45.0543717" lon="9.4822583"><ele>69.33333333333333</ele><time>2026-03-27T08:57:39.65Z</time></trkpt><trkpt lat="45.0543583" lon="9.48198"><ele>69.66666666666666</ele><time>2026-03-27T08:57:40.648Z</time></trkpt><trkpt lat="45.0543467" lon="9.4816933"><ele>70.0</ele><time>2026-03-27T08:57:41.649Z</time></trkpt><trkpt lat="45.0543317" lon="9.481405"><ele>70.33333333333333</ele><time>2026-03-27T08:57:42.648Z</time></trkpt><trkpt lat="45.0543167" lon="9.4811167"><ele>70.66666666666667</ele><time>2026-03-27T08:57:43.648Z</time></trkpt><trkpt lat="45.0543" lon="9.4808217"><ele>71.0</ele><time>2026-03-27T08:57:44.649Z</time></trkpt><trkpt lat="45.0542833" lon="9.4805267"><ele>71.33333333333334</ele><time>2026-03-27T08:57:45.648Z</time></trkpt><trkpt lat="45.0542667" lon="9.4802283"><ele>71.66666666666667</ele><time>2026-03-27T08:57:46.648Z</time></trkpt><trkpt lat="45.0542517" lon="9.4799317"><ele>72.0</ele><time>2026-03-27T08:57:47.648Z</time></trkpt><trkpt lat="45.0542383" lon="9.4796317"><ele>72.66666666666667</ele><time>2026-03-27T08:57:48.649Z</time></trkpt><trkpt lat="45.054225" lon="9.4793317"><ele>73.33333333333334</ele><time>2026-03-27T08:57:49.648Z</time></trkpt><trkpt lat="45.05421" lon="9.4790317"><ele>74.0</ele><time>2026-03-27T08:57:50.649Z</time></trkpt><trkpt lat="45.0541933" lon="9.4787283"><ele>74.0</ele><time>2026-03-27T08:57:51.648Z</time></trkpt><trkpt lat="45.0541767" lon="9.47843"><ele>74.0</ele><time>2026-03-27T08:57:52.649Z</time></trkpt><trkpt lat="45.05416" lon="9.4781333"><ele>74.0</ele><time>2026-03-27T08:57:53.649Z</time></trkpt><trkpt lat="45.0541467" lon="9.477835"><ele>74.0</ele><time>2026-03-27T08:57:54.647Z</time></trkpt><trkpt lat="45.054135" lon="9.4775383"><ele>74.0</ele><time>2026-03-27T08:57:55.649Z</time></trkpt><trkpt lat="45.0541233" lon="9.477245"><ele>74.0</ele><time>2026-03-27T08:57:56.647Z</time></trkpt><trkpt lat="45.0541117" lon="9.4769533"><ele>74.33333333333334</ele><time>2026-03-27T08:57:57.647Z</time></trkpt><trkpt lat="45.054095" lon="9.47666"><ele>74.66666666666667</ele><time>2026-03-27T08:57:58.646Z</time></trkpt><trkpt lat="45.05408" lon="9.476365"><ele>75.0</ele><time>2026-03-27T08:57:59.649Z</time></trkpt><trkpt lat="45.0540633" lon="9.4760633"><ele>74.33333333333333</ele><time>2026-03-27T08:58:00.647Z</time></trkpt><trkpt lat="45.0540483" lon="9.475765"><ele>73.66666666666666</ele><time>2026-03-27T08:58:01.647Z</time></trkpt><trkpt lat="45.0540367" lon="9.4754617"><ele>73.0</ele><time>2026-03-27T08:58:02.647Z</time></trkpt><trkpt lat="45.0540233" lon="9.4751617"><ele>73.0</ele><time>2026-03-27T08:58:03.647Z</time></trkpt><trkpt lat="45.0540083" lon="9.4748667"><ele>73.0</ele><time>2026-03-27T08:58:04.646Z</time></trkpt><trkpt lat="45.053995" lon="9.4745767"><ele>73.0</ele><time>2026-03-27T08:58:05.647Z</time></trkpt><trkpt lat="45.0539783" lon="9.47429"><ele>73.33333333333333</ele><time>2026-03-27T08:58:06.646Z</time></trkpt><trkpt lat="45.0539617" lon="9.4740033"><ele>73.66666666666667</ele><time>2026-03-27T08:58:07.646Z</time></trkpt><trkpt lat="45.0539467" lon="9.4737133"><ele>74.0</ele><time>2026-03-27T08:58:08.648Z</time></trkpt><trkpt lat="45.053935" lon="9.4734283"><ele>74.0</ele><time>2026-03-27T08:58:09.646Z</time></trkpt><trkpt lat="45.0539333" lon="9.47314"><ele>74.0</ele><time>2026-03-27T08:58:10.647Z</time></trkpt><trkpt lat="45.053945" lon="9.47286"><ele>74.0</ele><time>2026-03-27T08:58:11.647Z</time></trkpt><trkpt lat="45.0539733" lon="9.4725783"><ele>74.0</ele><time>2026-03-27T08:58:12.646Z</time></trkpt><trkpt lat="45.05401" lon="9.4722933"><ele>74.0</ele><time>2026-03-27T08:58:13.647Z</time></trkpt><trkpt lat="45.0540483" lon="9.4720067"><ele>74.0</ele><time>2026-03-27T08:58:14.646Z</time></trkpt><trkpt lat="45.0540833" lon="9.4717217"><ele>74.33333333333334</ele><time>2026-03-27T08:58:15.647Z</time></trkpt><trkpt lat="45.0541233" lon="9.4714317"><ele>74.66666666666667</ele><time>2026-03-27T08:58:16.648Z</time></trkpt><trkpt lat="45.05416" lon="9.4711417"><ele>75.0</ele><time>2026-03-27T08:58:17.646Z</time></trkpt><trkpt lat="45.054195" lon="9.4708533"><ele>75.0</ele><time>2026-03-27T08:58:18.649Z</time></trkpt><trkpt lat="45.0542283" lon="9.4705617"><ele>75.0</ele><time>2026-03-27T08:58:19.647Z</time></trkpt><trkpt lat="45.05426" lon="9.4702717"><ele>75.0</ele><time>2026-03-27T08:58:20.648Z</time></trkpt><trkpt lat="45.0542967" lon="9.46998"><ele>74.66666666666667</ele><time>2026-03-27T08:58:21.646Z</time></trkpt><trkpt lat="45.0543333" lon="9.4696867"><ele>74.33333333333334</ele><time>2026-03-27T08:58:22.647Z</time></trkpt><trkpt lat="45.0543717" lon="9.46939"><ele>74.0</ele><time>2026-03-27T08:58:23.647Z</time></trkpt><trkpt lat="45.0544067" lon="9.4690917"><ele>73.0</ele><time>2026-03-27T08:58:24.647Z</time></trkpt><trkpt lat="45.05444" lon="9.4687983"><ele>72.0</ele><time>2026-03-27T08:58:25.647Z</time></trkpt><trkpt lat="45.054475" lon="9.4685083"><ele>71.0</ele><time>2026-03-27T08:58:26.647Z</time></trkpt><trkpt lat="45.05451" lon="9.4682167"><ele>71.33333333333334</ele><time>2026-03-27T08:58:27.646Z</time></trkpt><trkpt lat="45.0545517" lon="9.4679233"><ele>71.66666666666667</ele><time>2026-03-27T08:58:28.647Z</time></trkpt><trkpt lat="45.05459" lon="9.4676283"><ele>72.0</ele><time>2026-03-27T08:58:29.646Z</time></trkpt><trkpt lat="45.0546267" lon="9.46733"><ele>73.0</ele><time>2026-03-27T08:58:30.646Z</time></trkpt><trkpt lat="45.0546633" lon="9.4670433"><ele>74.0</ele><time>2026-03-27T08:58:31.65Z</time></trkpt><trkpt lat="45.0546983" lon="9.466755"><ele>75.0</ele><time>2026-03-27T08:58:32.647Z</time></trkpt><trkpt lat="45.0547333" lon="9.46647"><ele>75.0</ele><time>2026-03-27T08:58:33.649Z</time></trkpt><trkpt lat="45.05477" lon="9.4661767"><ele>75.0</ele><time>2026-03-27T08:58:34.647Z</time></trkpt><trkpt lat="45.054805" lon="9.4658783"><ele>75.0</ele><time>2026-03-27T08:58:35.646Z</time></trkpt><trkpt lat="45.0548417" lon="9.4655767"><ele>74.33333333333333</ele><time>2026-03-27T08:58:36.648Z</time></trkpt><trkpt lat="45.0548767" lon="9.4652767"><ele>73.66666666666666</ele><time>2026-03-27T08:58:37.646Z</time></trkpt><trkpt lat="45.0549133" lon="9.4649767"><ele>73.0</ele><time>2026-03-27T08:58:38.647Z</time></trkpt><trkpt lat="45.0549533" lon="9.4646717"><ele>73.0</ele><time>2026-03-27T08:58:39.649Z</time></trkpt><trkpt lat="45.05499" lon="9.4643617"><ele>73.0</ele><time>2026-03-27T08:58:40.647Z</time></trkpt><trkpt lat="45.055025" lon="9.46405"><ele>73.0</ele><time>2026-03-27T08:58:41.646Z</time></trkpt><trkpt lat="45.0550617" lon="9.46374"><ele>73.0</ele><time>2026-03-27T08:58:42.647Z</time></trkpt><trkpt lat="45.0550983" lon="9.4634283"><ele>73.0</ele><time>2026-03-27T08:58:43.648Z</time></trkpt><trkpt lat="45.055135" lon="9.4631133"><ele>73.0</ele><time>2026-03-27T08:58:44.648Z</time></trkpt><trkpt lat="45.0551717" lon="9.4627967"><ele>75.0</ele><time>2026-03-27T08:58:45.649Z</time></trkpt><trkpt lat="45.05521" lon="9.46248"><ele>77.0</ele><time>2026-03-27T08:58:46.647Z</time></trkpt><trkpt lat="45.0552483" lon="9.4621683"><ele>77.0</ele><time>2026-03-27T08:58:47.648Z</time></trkpt><trkpt lat="45.055285" lon="9.461865"><ele>77.0</ele><time>2026-03-27T08:58:48.648Z</time></trkpt><trkpt lat="45.0553217" lon="9.4615667"><ele>77.0</ele><time>2026-03-27T08:58:49.648Z</time></trkpt><trkpt lat="45.055355" lon="9.4612717"><ele>77.33333333333334</ele><time>2026-03-27T08:58:50.649Z</time></trkpt><trkpt lat="45.05539" lon="9.4609817"><ele>77.66666666666667</ele><time>2026-03-27T08:58:51.649Z</time></trkpt><trkpt lat="45.0554267" lon="9.46069"><ele>78.0</ele><time>2026-03-27T08:58:52.649Z</time></trkpt><trkpt lat="45.0554617" lon="9.4604033"><ele>78.66666666666667</ele><time>2026-03-27T08:58:53.649Z</time></trkpt><trkpt lat="45.0554983" lon="9.4601167"><ele>79.33333333333334</ele><time>2026-03-27T08:58:54.647Z</time></trkpt><trkpt lat="45.0555317" lon="9.4598383"><ele>80.0</ele><time>2026-03-27T08:58:55.648Z</time></trkpt><trkpt lat="45.0555667" lon="9.459555"><ele>80.0</ele><time>2026-03-27T08:58:56.647Z</time></trkpt><trkpt lat="45.0556017" lon="9.459275"><ele>80.0</ele><time>2026-03-27T08:58:57.647Z</time></trkpt><trkpt lat="45.0556333" lon="9.458995"><ele>80.0</ele><time>2026-03-27T08:58:58.647Z</time></trkpt><trkpt lat="45.0556667" lon="9.45872"><ele>80.33333333333334</ele><time>2026-03-27T08:58:59.646Z</time></trkpt><trkpt lat="45.055695" lon="9.4584667"><ele>80.66666666666667</ele><time>2026-03-27T08:59:00.647Z</time></trkpt><trkpt lat="45.055725" lon="9.4582283"><ele>81.0</ele><time>2026-03-27T08:59:01.646Z</time></trkpt><trkpt lat="45.05575" lon="9.458005"><ele>81.0</ele><time>2026-03-27T08:59:02.647Z</time></trkpt><trkpt lat="45.0557767" lon="9.45778"><ele>81.0</ele><time>2026-03-27T08:59:03.648Z</time></trkpt><trkpt lat="45.0558033" lon="9.4575517"><ele>81.0</ele><time>2026-03-27T08:59:04.649Z</time></trkpt><trkpt lat="45.0558283" lon="9.4573267"><ele>81.66666666666667</ele><time>2026-03-27T08:59:05.648Z</time></trkpt><trkpt lat="45.0558517" lon="9.4571133"><ele>82.33333333333334</ele><time>2026-03-27T08:59:06.647Z</time></trkpt><trkpt lat="45.055875" lon="9.4569067"><ele>83.0</ele><time>2026-03-27T08:59:07.647Z</time></trkpt><trkpt lat="45.0559" lon="9.456695"><ele>83.0</ele><time>2026-03-27T08:59:08.649Z</time></trkpt><trkpt lat="45.055925" lon="9.4564833"><ele>83.0</ele><time>2026-03-27T08:59:09.647Z</time></trkpt><trkpt lat="45.055945" lon="9.4562833"><ele>83.0</ele><time>2026-03-27T08:59:10.647Z</time></trkpt><trkpt lat="45.0559667" lon="9.4560867"><ele>83.0</ele><time>2026-03-27T08:59:11.649Z</time></trkpt><trkpt lat="45.0559967" lon="9.45588"><ele>83.0</ele><time>2026-03-27T08:59:12.65Z</time></trkpt><trkpt lat="45.0560217" lon="9.4556683"><ele>83.0</ele><time>2026-03-27T08:59:13.649Z</time></trkpt><trkpt lat="45.0560433" lon="9.4554517"><ele>83.0</ele><time>2026-03-27T08:59:14.647Z</time></trkpt><trkpt lat="45.0560667" lon="9.4552383"><ele>82.66666666666667</ele><time>2026-03-27T08:59:15.65Z</time></trkpt><trkpt lat="45.0560933" lon="9.4550217"><ele>82.33333333333333</ele><time>2026-03-27T08:59:16.647Z</time></trkpt><trkpt lat="45.05612" lon="9.4547983"><ele>82.0</ele><time>2026-03-27T08:59:17.649Z</time></trkpt><trkpt lat="45.0561467" lon="9.4545667"><ele>82.0</ele><time>2026-03-27T08:59:18.648Z</time></trkpt><trkpt lat="45.056175" lon="9.4543333"><ele>82.0</ele><time>2026-03-27T08:59:19.649Z</time></trkpt><trkpt lat="45.0562033" lon="9.4540967"><ele>82.0</ele><time>2026-03-27T08:59:20.651Z</time></trkpt><trkpt lat="45.0562317" lon="9.4538567"><ele>82.0</ele><time>2026-03-27T08:59:21.647Z</time></trkpt><trkpt lat="45.0562617" lon="9.4536167"><ele>82.0</ele><time>2026-03-27T08:59:22.647Z</time></trkpt><trkpt lat="45.0562933" lon="9.4533767"><ele>82.0</ele><time>2026-03-27T08:59:23.65Z</time></trkpt><trkpt lat="45.056325" lon="9.4531367"><ele>82.33333333333333</ele><time>2026-03-27T08:59:24.648Z</time></trkpt><trkpt lat="45.056355" lon="9.4528933"><ele>82.66666666666667</ele><time>2026-03-27T08:59:25.647Z</time></trkpt><trkpt lat="45.056385" lon="9.4526517"><ele>83.0</ele><time>2026-03-27T08:59:26.647Z</time></trkpt><trkpt lat="45.056415" lon="9.4524217"><ele>83.0</ele><time>2026-03-27T08:59:27.647Z</time></trkpt><trkpt lat="45.0564467" lon="9.4521967"><ele>83.0</ele><time>2026-03-27T08:59:28.65Z</time></trkpt><trkpt lat="45.0564733" lon="9.4519733"><ele>83.0</ele><time>2026-03-27T08:59:29.647Z</time></trkpt><trkpt lat="45.0565" lon="9.451745"><ele>83.33333333333334</ele><time>2026-03-27T08:59:30.646Z</time></trkpt><trkpt lat="45.0565283" lon="9.4515083"><ele>83.66666666666667</ele><time>2026-03-27T08:59:31.647Z</time></trkpt><trkpt lat="45.0565567" lon="9.45127"><ele>84.0</ele><time>2026-03-27T08:59:32.648Z</time></trkpt><trkpt lat="45.0565883" lon="9.451025"><ele>84.0</ele><time>2026-03-27T08:59:33.647Z</time></trkpt><trkpt lat="45.0566217" lon="9.450775"><ele>84.0</ele><time>2026-03-27T08:59:34.65Z</time></trkpt><trkpt lat="45.0566517" lon="9.4505267"><ele>84.0</ele><time>2026-03-27T08:59:35.646Z</time></trkpt><trkpt lat="45.05668" lon="9.4502833"><ele>84.0</ele><time>2026-03-27T08:59:36.65Z</time></trkpt><trkpt lat="45.0567083" lon="9.4500433"><ele>84.0</ele><time>2026-03-27T08:59:37.647Z</time></trkpt><trkpt lat="45.056735" lon="9.4498183"><ele>84.0</ele><time>2026-03-27T08:59:38.646Z</time></trkpt><trkpt lat="45.0567633" lon="9.4495967"><ele>83.66666666666667</ele><time>2026-03-27T08:59:39.647Z</time></trkpt><trkpt lat="45.0567883" lon="9.4493783"><ele>83.33333333333334</ele><time>2026-03-27T08:59:40.647Z</time></trkpt><trkpt lat="45.0568183" lon="9.449155"><ele>83.0</ele><time>2026-03-27T08:59:41.647Z</time></trkpt><trkpt lat="45.056845" lon="9.4489283"><ele>83.33333333333334</ele><time>2026-03-27T08:59:42.649Z</time></trkpt><trkpt lat="45.05687" lon="9.4487033"><ele>83.66666666666667</ele><time>2026-03-27T08:59:43.646Z</time></trkpt><trkpt lat="45.0568933" lon="9.4484767"><ele>84.0</ele><time>2026-03-27T08:59:44.648Z</time></trkpt><trkpt lat="45.0569217" lon="9.4482483"><ele>84.0</ele><time>2026-03-27T08:59:45.647Z</time></trkpt><trkpt lat="45.05695" lon="9.4480233"><ele>84.0</ele><time>2026-03-27T08:59:46.648Z</time></trkpt><trkpt lat="45.0569767" lon="9.4478033"><ele>84.0</ele><time>2026-03-27T08:59:47.648Z</time></trkpt><trkpt lat="45.0570017" lon="9.4475933"><ele>83.75</ele><time>2026-03-27T08:59:48.647Z</time></trkpt><trkpt lat="45.0570233" lon="9.4473967"><ele>83.5</ele><time>2026-03-27T08:59:49.647Z</time></trkpt><trkpt lat="45.0570433" lon="9.44721"><ele>83.25</ele><time>2026-03-27T08:59:50.649Z</time></trkpt><trkpt lat="45.0570633" lon="9.447025"><ele>83.0</ele><time>2026-03-27T08:59:51.649Z</time></trkpt><trkpt lat="45.0570817" lon="9.4468333"><ele>83.0</ele><time>2026-03-27T08:59:52.647Z</time></trkpt><trkpt lat="45.0570983" lon="9.446645"><ele>83.0</ele><time>2026-03-27T08:59:53.649Z</time></trkpt><trkpt lat="45.057115" lon="9.4464583"><ele>83.0</ele><time>2026-03-27T08:59:54.648Z</time></trkpt><trkpt lat="45.057135" lon="9.446275"><ele>83.0</ele><time>2026-03-27T08:59:55.648Z</time></trkpt><trkpt lat="45.05715" lon="9.44609"><ele>83.0</ele><time>2026-03-27T08:59:56.649Z</time></trkpt><trkpt lat="45.0571633" lon="9.4459033"><ele>83.0</ele><time>2026-03-27T08:59:57.647Z</time></trkpt><trkpt lat="45.0571783" lon="9.4457183"><ele>83.0</ele><time>2026-03-27T08:59:58.648Z</time></trkpt><trkpt lat="45.0571933" lon="9.4455317"><ele>83.0</ele><time>2026-03-27T08:59:59.648Z</time></trkpt><trkpt lat="45.0572067" lon="9.445345"><ele>83.0</ele><time>2026-03-27T09:00:00.648Z</time></trkpt><trkpt lat="45.0572183" lon="9.4451617"><ele>83.0</ele><time>2026-03-27T09:00:01.649Z</time></trkpt><trkpt lat="45.057235" lon="9.444975"><ele>83.0</ele><time>2026-03-27T09:00:02.652Z</time></trkpt><trkpt lat="45.0572583" lon="9.44479"><ele>83.0</ele><time>2026-03-27T09:00:03.65Z</time></trkpt><trkpt lat="45.0572783" lon="9.4446067"><ele>82.25</ele><time>2026-03-27T09:00:04.648Z</time></trkpt><trkpt lat="45.0572933" lon="9.444435"><ele>81.5</ele><time>2026-03-27T09:00:05.648Z</time></trkpt><trkpt lat="45.0573133" lon="9.4442433"><ele>80.75</ele><time>2026-03-27T09:00:06.648Z</time></trkpt><trkpt lat="45.0573383" lon="9.4440583"><ele>80.0</ele><time>2026-03-27T09:00:07.656Z</time></trkpt><trkpt lat="45.05736" lon="9.44388"><ele>80.5</ele><time>2026-03-27T09:00:08.65Z</time></trkpt><trkpt lat="45.0573883" lon="9.4437067"><ele>81.0</ele><time>2026-03-27T09:00:09.649Z</time></trkpt><trkpt lat="45.05742" lon="9.4435417"><ele>81.5</ele><time>2026-03-27T09:00:10.648Z</time></trkpt><trkpt lat="45.0574583" lon="9.4433817"><ele>82.0</ele><time>2026-03-27T09:00:11.65Z</time></trkpt><trkpt lat="45.0574933" lon="9.443235"><ele>82.0</ele><time>2026-03-27T09:00:12.649Z</time></trkpt><trkpt lat="45.0575283" lon="9.4430983"><ele>82.0</ele><time>2026-03-27T09:00:13.649Z</time></trkpt><trkpt lat="45.05756" lon="9.4429683"><ele>82.0</ele><time>2026-03-27T09:00:14.648Z</time></trkpt><trkpt lat="45.0575933" lon="9.4428367"><ele>82.0</ele><time>2026-03-27T09:00:15.647Z</time></trkpt><trkpt lat="45.05763" lon="9.4427"><ele>82.0</ele><time>2026-03-27T09:00:16.646Z</time></trkpt><trkpt lat="45.0576683" lon="9.442555"><ele>81.0</ele><time>2026-03-27T09:00:17.649Z</time></trkpt><trkpt lat="45.05771" lon="9.4424033"><ele>80.0</ele><time>2026-03-27T09:00:18.648Z</time></trkpt><trkpt lat="45.05775" lon="9.442255"><ele>79.0</ele><time>2026-03-27T09:00:19.648Z</time></trkpt><trkpt lat="45.0577917" lon="9.4421083"><ele>78.0</ele><time>2026-03-27T09:00:20.648Z</time></trkpt><trkpt lat="45.0578333" lon="9.441965"><ele>77.0</ele><time>2026-03-27T09:00:21.649Z</time></trkpt><trkpt lat="45.0578767" lon="9.4418267"><ele>76.66666666666667</ele><time>2026-03-27T09:00:22.647Z</time></trkpt><trkpt lat="45.0579183" lon="9.4416983"><ele>76.33333333333334</ele><time>2026-03-27T09:00:23.648Z</time></trkpt><trkpt lat="45.0579567" lon="9.4415833"><ele>76.0</ele><time>2026-03-27T09:00:24.647Z</time></trkpt><trkpt lat="45.0579967" lon="9.4414767"><ele>75.66666666666667</ele><time>2026-03-27T09:00:25.647Z</time></trkpt><trkpt lat="45.05804" lon="9.441375"><ele>75.33333333333333</ele><time>2026-03-27T09:00:26.647Z</time></trkpt><trkpt lat="45.0580817" lon="9.441275"><ele>75.0</ele><time>2026-03-27T09:00:27.649Z</time></trkpt><trkpt lat="45.058125" lon="9.44117"><ele>75.4</ele><time>2026-03-27T09:00:28.648Z</time></trkpt><trkpt lat="45.0581733" lon="9.4410583"><ele>75.8</ele><time>2026-03-27T09:00:29.647Z</time></trkpt><trkpt lat="45.058225" lon="9.4409433"><ele>76.2</ele><time>2026-03-27T09:00:30.647Z</time></trkpt><trkpt lat="45.0582767" lon="9.440825"><ele>76.6</ele><time>2026-03-27T09:00:31.652Z</time></trkpt><trkpt lat="45.058325" lon="9.4407133"><ele>77.0</ele><time>2026-03-27T09:00:32.65Z</time></trkpt><trkpt lat="45.058375" lon="9.4406083"><ele>77.0</ele><time>2026-03-27T09:00:33.652Z</time></trkpt><trkpt lat="45.0584217" lon="9.440505"><ele>77.0</ele><time>2026-03-27T09:00:34.646Z</time></trkpt><trkpt lat="45.058465" lon="9.4404133"><ele>77.0</ele><time>2026-03-27T09:00:35.649Z</time></trkpt><trkpt lat="45.058505" lon="9.440335"><ele>77.0</ele><time>2026-03-27T09:00:36.651Z</time></trkpt><trkpt lat="45.0585467" lon="9.4402667"><ele>77.0</ele><time>2026-03-27T09:00:37.647Z</time></trkpt><trkpt lat="45.0585833" lon="9.4401867"><ele>77.0</ele><time>2026-03-27T09:00:38.647Z</time></trkpt><trkpt lat="45.058635" lon="9.4400683"><ele>76.16666666666667</ele><time>2026-03-27T09:00:40.648Z</time></trkpt><trkpt lat="45.0586717" lon="9.4399733"><ele>75.33333333333334</ele><time>2026-03-27T09:00:43.649Z</time></trkpt><trkpt lat="45.0586867" lon="9.4398817"><ele>74.5</ele><time>2026-03-27T09:00:46.649Z</time></trkpt><trkpt lat="45.058705" lon="9.4397667"><ele>73.66666666666667</ele><time>2026-03-27T09:00:48.651Z</time></trkpt><trkpt lat="45.058725" lon="9.439625"><ele>72.83333333333333</ele><time>2026-03-27T09:00:50.647Z</time></trkpt><trkpt lat="45.0587317" lon="9.4395217"><ele>72.0</ele><time>2026-03-27T09:00:53.648Z</time></trkpt><trkpt lat="45.0587483" lon="9.439435"><ele>71.66666666666667</ele><time>2026-03-27T09:01:06.648Z</time></trkpt><trkpt lat="45.0587667" lon="9.4393033"><ele>71.33333333333333</ele><time>2026-03-27T09:01:09.647Z</time></trkpt><trkpt lat="45.0588133" lon="9.4392417"><ele>71.0</ele><time>2026-03-27T09:01:11.648Z</time></trkpt><trkpt lat="45.0588267" lon="9.4391317"><ele>70.66666666666666</ele><time>2026-03-27T09:01:13.647Z</time></trkpt><trkpt lat="45.0587667" lon="9.4390767"><ele>70.33333333333333</ele><time>2026-03-27T09:01:15.647Z</time></trkpt><trkpt lat="45.05868" lon="9.4390633"><ele>70.0</ele><time>2026-03-27T09:01:17.647Z</time></trkpt><trkpt lat="45.0585683" lon="9.4390583"><ele>70.0</ele><time>2026-03-27T09:01:19.649Z</time></trkpt><trkpt lat="45.0584433" lon="9.43907"><ele>70.0</ele><time>2026-03-27T09:01:21.649Z</time></trkpt><trkpt lat="45.05838" lon="9.4390683"><ele>70.0</ele><time>2026-03-27T09:01:22.649Z</time></trkpt><trkpt lat="45.0583167" lon="9.4390683"><ele>70.0</ele><time>2026-03-27T09:01:23.648Z</time></trkpt><trkpt lat="45.058195" lon="9.4390583"><ele>70.0</ele><time>2026-03-27T09:01:25.648Z</time></trkpt><trkpt lat="45.0581317" lon="9.4390533"><ele>70.0</ele><time>2026-03-27T09:01:26.647Z</time></trkpt><trkpt lat="45.0580683" lon="9.4390567"><ele>70.0</ele><time>2026-03-27T09:01:27.651Z</time></trkpt><trkpt lat="45.0579483" lon="9.4390667"><ele>70.0</ele><time>2026-03-27T09:01:29.648Z</time></trkpt><trkpt lat="45.05783" lon="9.439045"><ele>70.0</ele><time>2026-03-27T09:01:31.648Z</time></trkpt><trkpt lat="45.0577133" lon="9.4390233"><ele>70.0</ele><time>2026-03-27T09:01:33.648Z</time></trkpt><trkpt lat="45.05762" lon="9.4391033"><ele>70.0</ele><time>2026-03-27T09:01:35.649Z</time></trkpt><trkpt lat="45.0575917" lon="9.439185"><ele>70.0</ele><time>2026-03-27T09:01:36.648Z</time></trkpt><trkpt lat="45.0575483" lon="9.43927"><ele>70.0</ele><time>2026-03-27T09:01:37.65Z</time></trkpt><trkpt lat="45.0574917" lon="9.4393533"><ele>70.0</ele><time>2026-03-27T09:01:38.65Z</time></trkpt><trkpt lat="45.0574367" lon="9.4394333"><ele>70.0</ele><time>2026-03-27T09:01:39.649Z</time></trkpt><trkpt lat="45.0573833" lon="9.4395117"><ele>70.0</ele><time>2026-03-27T09:01:40.649Z</time></trkpt><trkpt lat="45.0573317" lon="9.4395917"><ele>70.6</ele><time>2026-03-27T09:01:41.648Z</time></trkpt><trkpt lat="45.057275" lon="9.4396783"><ele>71.2</ele><time>2026-03-27T09:01:42.647Z</time></trkpt><trkpt lat="45.0572067" lon="9.4397733"><ele>71.8</ele><time>2026-03-27T09:01:43.648Z</time></trkpt><trkpt lat="45.0571383" lon="9.4398783"><ele>72.4</ele><time>2026-03-27T09:01:44.647Z</time></trkpt><trkpt lat="45.057065" lon="9.4399817"><ele>73.0</ele><time>2026-03-27T09:01:45.646Z</time></trkpt><trkpt lat="45.0569917" lon="9.44009"><ele>73.0</ele><time>2026-03-27T09:01:46.649Z</time></trkpt><trkpt lat="45.056915" lon="9.4401983"><ele>73.0</ele><time>2026-03-27T09:01:47.647Z</time></trkpt><trkpt lat="45.0568433" lon="9.4403117"><ele>73.0</ele><time>2026-03-27T09:01:48.647Z</time></trkpt><trkpt lat="45.056765" lon="9.440425"><ele>73.0</ele><time>2026-03-27T09:01:49.649Z</time></trkpt><trkpt lat="45.0566867" lon="9.44054"><ele>73.0</ele><time>2026-03-27T09:01:50.648Z</time></trkpt><trkpt lat="45.0566" lon="9.4406533"><ele>74.25</ele><time>2026-03-27T09:01:51.649Z</time></trkpt><trkpt lat="45.0565183" lon="9.440765"><ele>75.5</ele><time>2026-03-27T09:01:52.647Z</time></trkpt><trkpt lat="45.0564433" lon="9.4408783"><ele>76.75</ele><time>2026-03-27T09:01:53.647Z</time></trkpt><trkpt lat="45.0563633" lon="9.4409983"><ele>78.0</ele><time>2026-03-27T09:01:54.648Z</time></trkpt><trkpt lat="45.0562817" lon="9.4411283"><ele>78.0</ele><time>2026-03-27T09:01:55.647Z</time></trkpt><trkpt lat="45.056195" lon="9.4412633"><ele>78.0</ele><time>2026-03-27T09:01:56.649Z</time></trkpt><trkpt lat="45.0561067" lon="9.4413933"><ele>78.0</ele><time>2026-03-27T09:01:57.646Z</time></trkpt><trkpt lat="45.05602" lon="9.4415217"><ele>78.0</ele><time>2026-03-27T09:01:58.646Z</time></trkpt><trkpt lat="45.05593" lon="9.44165"><ele>78.0</ele><time>2026-03-27T09:01:59.647Z</time></trkpt><trkpt lat="45.0558417" lon="9.441775"><ele>78.0</ele><time>2026-03-27T09:02:00.648Z</time></trkpt><trkpt lat="45.0557533" lon="9.441905"><ele>78.0</ele><time>2026-03-27T09:02:01.649Z</time></trkpt><trkpt lat="45.05566" lon="9.4420383"><ele>78.0</ele><time>2026-03-27T09:02:02.649Z</time></trkpt><trkpt lat="45.05557" lon="9.442175"><ele>77.5</ele><time>2026-03-27T09:02:03.647Z</time></trkpt><trkpt lat="45.0554783" lon="9.4423183"><ele>77.0</ele><time>2026-03-27T09:02:04.647Z</time></trkpt><trkpt lat="45.0553833" lon="9.4424617"><ele>76.5</ele><time>2026-03-27T09:02:05.651Z</time></trkpt><trkpt lat="45.0552833" lon="9.44261"><ele>76.0</ele><time>2026-03-27T09:02:06.649Z</time></trkpt><trkpt lat="45.0551833" lon="9.4427633"><ele>76.0</ele><time>2026-03-27T09:02:07.648Z</time></trkpt><trkpt lat="45.0550783" lon="9.44292"><ele>76.0</ele><time>2026-03-27T09:02:08.647Z</time></trkpt><trkpt lat="45.054975" lon="9.4430717"><ele>76.0</ele><time>2026-03-27T09:02:09.647Z</time></trkpt><trkpt lat="45.0548683" lon="9.4432183"><ele>76.5</ele><time>2026-03-27T09:02:10.647Z</time></trkpt><trkpt lat="45.0547683" lon="9.4433667"><ele>77.0</ele><time>2026-03-27T09:02:11.647Z</time></trkpt><trkpt lat="45.054665" lon="9.4435133"><ele>77.5</ele><time>2026-03-27T09:02:12.646Z</time></trkpt><trkpt lat="45.0545583" lon="9.4436583"><ele>78.0</ele><time>2026-03-27T09:02:13.646Z</time></trkpt><trkpt lat="45.0544517" lon="9.4437983"><ele>78.0</ele><time>2026-03-27T09:02:14.649Z</time></trkpt><trkpt lat="45.0543417" lon="9.4439417"><ele>78.0</ele><time>2026-03-27T09:02:15.647Z</time></trkpt><trkpt lat="45.054235" lon="9.4440817"><ele>78.0</ele><time>2026-03-27T09:02:16.648Z</time></trkpt><trkpt lat="45.054125" lon="9.44422"><ele>78.0</ele><time>2026-03-27T09:02:17.647Z</time></trkpt><trkpt lat="45.0540133" lon="9.444355"><ele>78.25</ele><time>2026-03-27T09:02:18.647Z</time></trkpt><trkpt lat="45.0539067" lon="9.4444917"><ele>78.5</ele><time>2026-03-27T09:02:19.65Z</time></trkpt><trkpt lat="45.0537917" lon="9.4446283"><ele>78.75</ele><time>2026-03-27T09:02:20.648Z</time></trkpt><trkpt lat="45.0536683" lon="9.4447617"><ele>79.0</ele><time>2026-03-27T09:02:21.648Z</time></trkpt><trkpt lat="45.053535" lon="9.4448883"><ele>79.33333333333333</ele><time>2026-03-27T09:02:22.648Z</time></trkpt><trkpt lat="45.0533967" lon="9.4450333"><ele>79.66666666666667</ele><time>2026-03-27T09:02:23.647Z</time></trkpt><trkpt lat="45.0532533" lon="9.4451617"><ele>80.0</ele><time>2026-03-27T09:02:24.647Z</time></trkpt><trkpt lat="45.0531167" lon="9.445285"><ele>80.0</ele><time>2026-03-27T09:02:25.646Z</time></trkpt><trkpt lat="45.05298" lon="9.44542"><ele>80.0</ele><time>2026-03-27T09:02:26.647Z</time></trkpt><trkpt lat="45.0528367" lon="9.4455483"><ele>80.0</ele><time>2026-03-27T09:02:27.647Z</time></trkpt><trkpt lat="45.052695" lon="9.445655"><ele>80.0</ele><time>2026-03-27T09:02:28.648Z</time></trkpt><trkpt lat="45.0525433" lon="9.445775"><ele>80.0</ele><time>2026-03-27T09:02:29.647Z</time></trkpt><trkpt lat="45.05239" lon="9.4458883"><ele>80.0</ele><time>2026-03-27T09:02:30.647Z</time></trkpt><trkpt lat="45.0522317" lon="9.4459883"><ele>80.0</ele><time>2026-03-27T09:02:31.646Z</time></trkpt><trkpt lat="45.0520867" lon="9.4460917"><ele>80.0</ele><time>2026-03-27T09:02:32.648Z</time></trkpt><trkpt lat="45.05194" lon="9.4461833"><ele>80.0</ele><time>2026-03-27T09:02:33.647Z</time></trkpt><trkpt lat="45.0518083" lon="9.4462667"><ele>80.25</ele><time>2026-03-27T09:02:34.648Z</time></trkpt><trkpt lat="45.0516783" lon="9.4463483"><ele>80.5</ele><time>2026-03-27T09:02:35.649Z</time></trkpt><trkpt lat="45.0515483" lon="9.446425"><ele>80.75</ele><time>2026-03-27T09:02:36.649Z</time></trkpt><trkpt lat="45.05142" lon="9.4464967"><ele>81.0</ele><time>2026-03-27T09:02:37.649Z</time></trkpt><trkpt lat="45.0512833" lon="9.4465633"><ele>81.0</ele><time>2026-03-27T09:02:38.65Z</time></trkpt><trkpt lat="45.0511433" lon="9.4466333"><ele>81.0</ele><time>2026-03-27T09:02:39.648Z</time></trkpt><trkpt lat="45.0510017" lon="9.4467017"><ele>81.0</ele><time>2026-03-27T09:02:40.649Z</time></trkpt><trkpt lat="45.0508533" lon="9.446765"><ele>81.33333333333333</ele><time>2026-03-27T09:02:41.647Z</time></trkpt><trkpt lat="45.050695" lon="9.44683"><ele>81.66666666666666</ele><time>2026-03-27T09:02:42.647Z</time></trkpt><trkpt lat="45.0505367" lon="9.4468867"><ele>82.0</ele><time>2026-03-27T09:02:43.647Z</time></trkpt><trkpt lat="45.0503717" lon="9.446935"><ele>82.0</ele><time>2026-03-27T09:02:44.648Z</time></trkpt><trkpt lat="45.050205" lon="9.44699"><ele>82.0</ele><time>2026-03-27T09:02:45.648Z</time></trkpt><trkpt lat="45.0500333" lon="9.4470417"><ele>82.0</ele><time>2026-03-27T09:02:46.646Z</time></trkpt><trkpt lat="45.049855" lon="9.4470883"><ele>81.33333333333333</ele><time>2026-03-27T09:02:47.648Z</time></trkpt><trkpt lat="45.0496733" lon="9.447135"><ele>80.66666666666667</ele><time>2026-03-27T09:02:48.646Z</time></trkpt><trkpt lat="45.0494867" lon="9.4471783"><ele>80.0</ele><time>2026-03-27T09:02:49.648Z</time></trkpt><trkpt lat="45.0492967" lon="9.4472117"><ele>80.33333333333334</ele><time>2026-03-27T09:02:50.647Z</time></trkpt><trkpt lat="45.049115" lon="9.4472367"><ele>80.66666666666667</ele><time>2026-03-27T09:02:51.646Z</time></trkpt><trkpt lat="45.0489433" lon="9.4472567"><ele>81.0</ele><time>2026-03-27T09:02:52.649Z</time></trkpt><trkpt lat="45.0487767" lon="9.4472683"><ele>81.0</ele><time>2026-03-27T09:02:53.648Z</time></trkpt><trkpt lat="45.0486117" lon="9.447275"><ele>81.0</ele><time>2026-03-27T09:02:54.646Z</time></trkpt><trkpt lat="45.048445" lon="9.44728"><ele>81.0</ele><time>2026-03-27T09:02:55.647Z</time></trkpt><trkpt lat="45.0482717" lon="9.4472817"><ele>81.66666666666667</ele><time>2026-03-27T09:02:56.648Z</time></trkpt><trkpt lat="45.048095" lon="9.4472817"><ele>82.33333333333334</ele><time>2026-03-27T09:02:57.653Z</time></trkpt><trkpt lat="45.0479183" lon="9.4472783"><ele>83.0</ele><time>2026-03-27T09:02:58.647Z</time></trkpt><trkpt lat="45.047745" lon="9.4472733"><ele>83.0</ele><time>2026-03-27T09:02:59.647Z</time></trkpt><trkpt lat="45.0475783" lon="9.4472717"><ele>83.0</ele><time>2026-03-27T09:03:00.648Z</time></trkpt><trkpt lat="45.0474217" lon="9.44727"><ele>83.0</ele><time>2026-03-27T09:03:01.647Z</time></trkpt><trkpt lat="45.0472683" lon="9.447265"><ele>82.66666666666667</ele><time>2026-03-27T09:03:02.649Z</time></trkpt><trkpt lat="45.0471133" lon="9.4472617"><ele>82.33333333333333</ele><time>2026-03-27T09:03:03.647Z</time></trkpt><trkpt lat="45.046955" lon="9.4472617"><ele>82.0</ele><time>2026-03-27T09:03:04.649Z</time></trkpt><trkpt lat="45.04679" lon="9.4472617"><ele>82.66666666666666</ele><time>2026-03-27T09:03:05.65Z</time></trkpt><trkpt lat="45.0466233" lon="9.4472617"><ele>83.33333333333333</ele><time>2026-03-27T09:03:06.649Z</time></trkpt><trkpt lat="45.0464533" lon="9.4472567"><ele>84.0</ele><time>2026-03-27T09:03:07.648Z</time></trkpt><trkpt lat="45.0462817" lon="9.4472483"><ele>84.0</ele><time>2026-03-27T09:03:08.649Z</time></trkpt><trkpt lat="45.04611" lon="9.4472383"><ele>84.0</ele><time>2026-03-27T09:03:09.649Z</time></trkpt><trkpt lat="45.0459367" lon="9.4472283"><ele>84.0</ele><time>2026-03-27T09:03:10.648Z</time></trkpt><trkpt lat="45.0457617" lon="9.4472233"><ele>84.33333333333333</ele><time>2026-03-27T09:03:11.653Z</time></trkpt><trkpt lat="45.0455833" lon="9.4472233"><ele>84.66666666666666</ele><time>2026-03-27T09:03:12.646Z</time></trkpt><trkpt lat="45.0454033" lon="9.4472267"><ele>85.0</ele><time>2026-03-27T09:03:13.647Z</time></trkpt><trkpt lat="45.045225" lon="9.447225"><ele>85.0</ele><time>2026-03-27T09:03:14.647Z</time></trkpt><trkpt lat="45.0450517" lon="9.447225"><ele>85.0</ele><time>2026-03-27T09:03:15.647Z</time></trkpt><trkpt lat="45.0448917" lon="9.4472267"><ele>85.0</ele><time>2026-03-27T09:03:16.651Z</time></trkpt><trkpt lat="45.0447433" lon="9.44723"><ele>84.5</ele><time>2026-03-27T09:03:17.649Z</time></trkpt><trkpt lat="45.0446" lon="9.44723"><ele>84.0</ele><time>2026-03-27T09:03:18.649Z</time></trkpt><trkpt lat="45.0444567" lon="9.44723"><ele>83.5</ele><time>2026-03-27T09:03:19.648Z</time></trkpt><trkpt lat="45.0443067" lon="9.447225"><ele>83.0</ele><time>2026-03-27T09:03:20.647Z</time></trkpt><trkpt lat="45.0441483" lon="9.44722"><ele>83.33333333333334</ele><time>2026-03-27T09:03:21.647Z</time></trkpt><trkpt lat="45.0439817" lon="9.4472183"><ele>83.66666666666667</ele><time>2026-03-27T09:03:22.648Z</time></trkpt><trkpt lat="45.0438117" lon="9.447215"><ele>84.0</ele><time>2026-03-27T09:03:23.648Z</time></trkpt><trkpt lat="45.0436333" lon="9.4472133"><ele>84.0</ele><time>2026-03-27T09:03:24.648Z</time></trkpt><trkpt lat="45.04345" lon="9.4472117"><ele>84.0</ele><time>2026-03-27T09:03:25.647Z</time></trkpt><trkpt lat="45.0432633" lon="9.4472117"><ele>84.0</ele><time>2026-03-27T09:03:26.647Z</time></trkpt><trkpt lat="45.0430667" lon="9.4472117"><ele>84.0</ele><time>2026-03-27T09:03:27.648Z</time></trkpt><trkpt lat="45.0428583" lon="9.44721"><ele>84.0</ele><time>2026-03-27T09:03:28.648Z</time></trkpt><trkpt lat="45.0426417" lon="9.4472083"><ele>84.0</ele><time>2026-03-27T09:03:29.648Z</time></trkpt><trkpt lat="45.04243" lon="9.4472"><ele>84.66666666666667</ele><time>2026-03-27T09:03:30.647Z</time></trkpt><trkpt lat="45.042225" lon="9.44719"><ele>85.33333333333334</ele><time>2026-03-27T09:03:31.648Z</time></trkpt><trkpt lat="45.0420267" lon="9.447185"><ele>86.0</ele><time>2026-03-27T09:03:32.648Z</time></trkpt><trkpt lat="45.0418367" lon="9.4471817"><ele>86.0</ele><time>2026-03-27T09:03:33.648Z</time></trkpt><trkpt lat="45.0416633" lon="9.44718"><ele>86.0</ele><time>2026-03-27T09:03:34.647Z</time></trkpt><trkpt lat="45.0415" lon="9.4471783"><ele>86.0</ele><time>2026-03-27T09:03:35.647Z</time></trkpt><trkpt lat="45.0413483" lon="9.4471767"><ele>86.0</ele><time>2026-03-27T09:03:36.651Z</time></trkpt><trkpt lat="45.0412067" lon="9.4471717"><ele>86.0</ele><time>2026-03-27T09:03:37.647Z</time></trkpt><trkpt lat="45.0410767" lon="9.447165"><ele>86.0</ele><time>2026-03-27T09:03:38.647Z</time></trkpt><trkpt lat="45.0409533" lon="9.4471583"><ele>86.0</ele><time>2026-03-27T09:03:39.649Z</time></trkpt><trkpt lat="45.0408367" lon="9.4471517"><ele>86.19999999999999</ele><time>2026-03-27T09:03:40.65Z</time></trkpt><trkpt lat="45.0407283" lon="9.447145"><ele>86.39999999999999</ele><time>2026-03-27T09:03:41.646Z</time></trkpt><trkpt lat="45.0406283" lon="9.4471417"><ele>86.6</ele><time>2026-03-27T09:03:42.648Z</time></trkpt><trkpt lat="45.0405333" lon="9.4471417"><ele>86.8</ele><time>2026-03-27T09:03:43.648Z</time></trkpt><trkpt lat="45.0404417" lon="9.4471433"><ele>87.0</ele><time>2026-03-27T09:03:44.648Z</time></trkpt><trkpt lat="45.040355" lon="9.447145"><ele>87.0</ele><time>2026-03-27T09:03:45.648Z</time></trkpt><trkpt lat="45.04027" lon="9.44714"><ele>87.0</ele><time>2026-03-27T09:03:46.648Z</time></trkpt><trkpt lat="45.04019" lon="9.4471367"><ele>87.0</ele><time>2026-03-27T09:03:47.651Z</time></trkpt><trkpt lat="45.04012" lon="9.44713"><ele>87.0</ele><time>2026-03-27T09:03:48.647Z</time></trkpt><trkpt lat="45.0400283" lon="9.4470817"><ele>87.0</ele><time>2026-03-27T09:03:50.647Z</time></trkpt><trkpt lat="45.0399583" lon="9.4470133"><ele>87.0</ele><time>2026-03-27T09:03:52.649Z</time></trkpt><trkpt lat="45.039895" lon="9.4469717"><ele>87.16666666666667</ele><time>2026-03-27T09:03:54.648Z</time></trkpt><trkpt lat="45.0398283" lon="9.4469767"><ele>87.33333333333333</ele><time>2026-03-27T09:03:56.648Z</time></trkpt><trkpt lat="45.0397383" lon="9.4469967"><ele>87.5</ele><time>2026-03-27T09:03:58.647Z</time></trkpt><trkpt lat="45.0396683" lon="9.4470133"><ele>87.66666666666666</ele><time>2026-03-27T09:04:00.647Z</time></trkpt><trkpt lat="45.039605" lon="9.4469833"><ele>87.83333333333333</ele><time>2026-03-27T09:04:02.647Z</time></trkpt><trkpt lat="45.0395867" lon="9.447085"><ele>88.0</ele><time>2026-03-27T09:29:29.646Z</time></trkpt><trkpt lat="45.0395067" lon="9.4471167"><ele>88.0</ele><time>2026-03-27T09:29:31.647Z</time></trkpt><trkpt lat="45.0394417" lon="9.44712"><ele>88.0</ele><time>2026-03-27T09:29:32.649Z</time></trkpt><trkpt lat="45.0393767" lon="9.4471217"><ele>88.0</ele><time>2026-03-27T09:29:33.646Z</time></trkpt><trkpt lat="45.0392917" lon="9.4471217"><ele>88.0</ele><time>2026-03-27T09:29:34.647Z</time></trkpt><trkpt lat="45.03918" lon="9.4471167"><ele>88.0</ele><time>2026-03-27T09:29:35.648Z</time></trkpt><trkpt lat="45.039055" lon="9.4471183"><ele>87.5</ele><time>2026-03-27T09:29:36.647Z</time></trkpt><trkpt lat="45.038915" lon="9.44712"><ele>87.0</ele><time>2026-03-27T09:29:37.646Z</time></trkpt><trkpt lat="45.0387683" lon="9.4471167"><ele>86.5</ele><time>2026-03-27T09:29:38.647Z</time></trkpt><trkpt lat="45.038615" lon="9.4471117"><ele>86.0</ele><time>2026-03-27T09:29:39.647Z</time></trkpt><trkpt lat="45.03847" lon="9.4471067"><ele>86.0</ele><time>2026-03-27T09:29:40.647Z</time></trkpt><trkpt lat="45.038335" lon="9.447105"><ele>86.0</ele><time>2026-03-27T09:29:41.647Z</time></trkpt><trkpt lat="45.03821" lon="9.4471017"><ele>86.0</ele><time>2026-03-27T09:29:42.647Z</time></trkpt><trkpt lat="45.038085" lon="9.4471"><ele>86.0</ele><time>2026-03-27T09:29:43.647Z</time></trkpt><trkpt lat="45.0379617" lon="9.4470983"><ele>87.0</ele><time>2026-03-27T09:29:44.648Z</time></trkpt><trkpt lat="45.0378367" lon="9.4470967"><ele>88.0</ele><time>2026-03-27T09:29:45.647Z</time></trkpt><trkpt lat="45.0377133" lon="9.447095"><ele>89.0</ele><time>2026-03-27T09:29:46.647Z</time></trkpt><trkpt lat="45.037585" lon="9.4470883"><ele>90.0</ele><time>2026-03-27T09:29:47.649Z</time></trkpt><trkpt lat="45.0374533" lon="9.4470833"><ele>90.75</ele><time>2026-03-27T09:29:48.65Z</time></trkpt><trkpt lat="45.03732" lon="9.44708"><ele>91.5</ele><time>2026-03-27T09:29:49.648Z</time></trkpt><trkpt lat="45.037185" lon="9.44707"><ele>92.25</ele><time>2026-03-27T09:29:50.649Z</time></trkpt><trkpt lat="45.0370467" lon="9.4470583"><ele>93.0</ele><time>2026-03-27T09:29:51.649Z</time></trkpt><trkpt lat="45.0369017" lon="9.4470483"><ele>93.0</ele><time>2026-03-27T09:29:52.649Z</time></trkpt><trkpt lat="45.0367533" lon="9.4470433"><ele>93.0</ele><time>2026-03-27T09:29:53.652Z</time></trkpt><trkpt lat="45.036595" lon="9.4470433"><ele>93.0</ele><time>2026-03-27T09:29:54.649Z</time></trkpt><trkpt lat="45.0364317" lon="9.4470433"><ele>92.66666666666667</ele><time>2026-03-27T09:29:55.65Z</time></trkpt><trkpt lat="45.0362633" lon="9.4470433"><ele>92.33333333333334</ele><time>2026-03-27T09:29:56.647Z</time></trkpt><trkpt lat="45.0360983" lon="9.4470417"><ele>92.0</ele><time>2026-03-27T09:29:57.648Z</time></trkpt><trkpt lat="45.0359433" lon="9.4470367"><ele>91.66666666666667</ele><time>2026-03-27T09:29:58.649Z</time></trkpt><trkpt lat="45.0357917" lon="9.4470317"><ele>91.33333333333333</ele><time>2026-03-27T09:29:59.65Z</time></trkpt><trkpt lat="45.0356433" lon="9.4470283"><ele>91.0</ele><time>2026-03-27T09:30:00.648Z</time></trkpt><trkpt lat="45.0354917" lon="9.4470233"><ele>91.0</ele><time>2026-03-27T09:30:01.647Z</time></trkpt><trkpt lat="45.0353383" lon="9.44702"><ele>91.0</ele><time>2026-03-27T09:30:02.652Z</time></trkpt><trkpt lat="45.0351833" lon="9.4470183"><ele>91.0</ele><time>2026-03-27T09:30:03.648Z</time></trkpt><trkpt lat="45.0350283" lon="9.4470167"><ele>91.33333333333333</ele><time>2026-03-27T09:30:04.648Z</time></trkpt><trkpt lat="45.03487" lon="9.4470117"><ele>91.66666666666667</ele><time>2026-03-27T09:30:05.647Z</time></trkpt><trkpt lat="45.03471" lon="9.4470133"><ele>92.0</ele><time>2026-03-27T09:30:06.648Z</time></trkpt><trkpt lat="45.0345533" lon="9.4470183"><ele>92.0</ele><time>2026-03-27T09:30:07.648Z</time></trkpt><trkpt lat="45.034395" lon="9.4470233"><ele>92.0</ele><time>2026-03-27T09:30:08.648Z</time></trkpt><trkpt lat="45.034235" lon="9.4470233"><ele>92.0</ele><time>2026-03-27T09:30:09.647Z</time></trkpt><trkpt lat="45.0340733" lon="9.44702"><ele>91.66666666666667</ele><time>2026-03-27T09:30:10.647Z</time></trkpt><trkpt lat="45.0339117" lon="9.4470183"><ele>91.33333333333333</ele><time>2026-03-27T09:30:11.648Z</time></trkpt><trkpt lat="45.0337483" lon="9.447015"><ele>91.0</ele><time>2026-03-27T09:30:12.649Z</time></trkpt><trkpt lat="45.0335867" lon="9.44701"><ele>91.0</ele><time>2026-03-27T09:30:13.65Z</time></trkpt><trkpt lat="45.0334333" lon="9.4470067"><ele>91.0</ele><time>2026-03-27T09:30:14.646Z</time></trkpt><trkpt lat="45.0332867" lon="9.4470017"><ele>91.0</ele><time>2026-03-27T09:30:15.646Z</time></trkpt><trkpt lat="45.0331417" lon="9.4469967"><ele>91.0</ele><time>2026-03-27T09:30:16.646Z</time></trkpt><trkpt lat="45.0329883" lon="9.446995"><ele>91.33333333333333</ele><time>2026-03-27T09:30:17.646Z</time></trkpt><trkpt lat="45.0328383" lon="9.44699"><ele>91.66666666666667</ele><time>2026-03-27T09:30:18.648Z</time></trkpt><trkpt lat="45.0326767" lon="9.4469817"><ele>92.0</ele><time>2026-03-27T09:30:19.647Z</time></trkpt><trkpt lat="45.03252" lon="9.4469783"><ele>92.33333333333334</ele><time>2026-03-27T09:30:20.646Z</time></trkpt><trkpt lat="45.032365" lon="9.44698"><ele>92.66666666666667</ele><time>2026-03-27T09:30:21.646Z</time></trkpt><trkpt lat="45.0322133" lon="9.44698"><ele>93.0</ele><time>2026-03-27T09:30:22.645Z</time></trkpt><trkpt lat="45.0320567" lon="9.4469783"><ele>93.0</ele><time>2026-03-27T09:30:23.648Z</time></trkpt><trkpt lat="45.0319033" lon="9.4469783"><ele>93.0</ele><time>2026-03-27T09:30:24.648Z</time></trkpt><trkpt lat="45.0317433" lon="9.4469733"><ele>93.0</ele><time>2026-03-27T09:30:25.648Z</time></trkpt><trkpt lat="45.0315817" lon="9.4469683"><ele>93.33333333333333</ele><time>2026-03-27T09:30:26.646Z</time></trkpt><trkpt lat="45.031415" lon="9.44697"><ele>93.66666666666666</ele><time>2026-03-27T09:30:27.648Z</time></trkpt><trkpt lat="45.031245" lon="9.44697"><ele>94.0</ele><time>2026-03-27T09:30:28.648Z</time></trkpt><trkpt lat="45.0310817" lon="9.4469683"><ele>94.0</ele><time>2026-03-27T09:30:29.648Z</time></trkpt><trkpt lat="45.03092" lon="9.4469633"><ele>94.0</ele><time>2026-03-27T09:30:30.648Z</time></trkpt><trkpt lat="45.03076" lon="9.44696"><ele>94.0</ele><time>2026-03-27T09:30:31.648Z</time></trkpt><trkpt lat="45.0305983" lon="9.4469583"><ele>94.33333333333333</ele><time>2026-03-27T09:30:32.647Z</time></trkpt><trkpt lat="45.030435" lon="9.4469567"><ele>94.66666666666667</ele><time>2026-03-27T09:30:33.648Z</time></trkpt><trkpt lat="45.03027" lon="9.4469533"><ele>95.0</ele><time>2026-03-27T09:30:34.648Z</time></trkpt><trkpt lat="45.030105" lon="9.4469467"><ele>95.0</ele><time>2026-03-27T09:30:35.651Z</time></trkpt><trkpt lat="45.0299433" lon="9.4469417"><ele>95.0</ele><time>2026-03-27T09:30:36.648Z</time></trkpt><trkpt lat="45.0297833" lon="9.4469367"><ele>95.0</ele><time>2026-03-27T09:30:37.648Z</time></trkpt><trkpt lat="45.0296283" lon="9.4469317"><ele>95.0</ele><time>2026-03-27T09:30:38.647Z</time></trkpt><trkpt lat="45.0294733" lon="9.446925"><ele>95.0</ele><time>2026-03-27T09:30:39.647Z</time></trkpt><trkpt lat="45.0293267" lon="9.446925"><ele>95.0</ele><time>2026-03-27T09:30:40.647Z</time></trkpt><trkpt lat="45.02917" lon="9.4469217"><ele>95.0</ele><time>2026-03-27T09:30:41.646Z</time></trkpt><trkpt lat="45.0290117" lon="9.4469117"><ele>95.0</ele><time>2026-03-27T09:30:42.647Z</time></trkpt><trkpt lat="45.0288483" lon="9.4469067"><ele>95.0</ele><time>2026-03-27T09:30:43.647Z</time></trkpt><trkpt lat="45.028685" lon="9.4469033"><ele>95.0</ele><time>2026-03-27T09:30:44.647Z</time></trkpt><trkpt lat="45.028525" lon="9.4468983"><ele>95.0</ele><time>2026-03-27T09:30:45.647Z</time></trkpt><trkpt lat="45.0283633" lon="9.446895"><ele>95.0</ele><time>2026-03-27T09:30:46.647Z</time></trkpt><trkpt lat="45.0281983" lon="9.4468933"><ele>95.0</ele><time>2026-03-27T09:30:47.647Z</time></trkpt><trkpt lat="45.0280333" lon="9.446895"><ele>95.0</ele><time>2026-03-27T09:30:48.647Z</time></trkpt><trkpt lat="45.0278667" lon="9.446895"><ele>95.0</ele><time>2026-03-27T09:30:49.647Z</time></trkpt><trkpt lat="45.0277033" lon="9.4468917"><ele>95.0</ele><time>2026-03-27T09:30:50.647Z</time></trkpt><trkpt lat="45.0275417" lon="9.44689"><ele>95.0</ele><time>2026-03-27T09:30:51.646Z</time></trkpt><trkpt lat="45.0273867" lon="9.4468867"><ele>95.0</ele><time>2026-03-27T09:30:52.648Z</time></trkpt><trkpt lat="45.027235" lon="9.44688"><ele>95.33333333333334</ele><time>2026-03-27T09:30:53.648Z</time></trkpt><trkpt lat="45.0270817" lon="9.4468717"><ele>95.66666666666667</ele><time>2026-03-27T09:30:54.646Z</time></trkpt><trkpt lat="45.02693" lon="9.4468683"><ele>96.0</ele><time>2026-03-27T09:30:55.648Z</time></trkpt><trkpt lat="45.02678" lon="9.4468667"><ele>96.33333333333334</ele><time>2026-03-27T09:30:56.648Z</time></trkpt><trkpt lat="45.0266267" lon="9.4468617"><ele>96.66666666666667</ele><time>2026-03-27T09:30:57.65Z</time></trkpt><trkpt lat="45.02647" lon="9.4468583"><ele>97.0</ele><time>2026-03-27T09:30:58.646Z</time></trkpt><trkpt lat="45.0263133" lon="9.446855"><ele>97.0</ele><time>2026-03-27T09:30:59.646Z</time></trkpt><trkpt lat="45.0261533" lon="9.4468517"><ele>97.0</ele><time>2026-03-27T09:31:00.647Z</time></trkpt><trkpt lat="45.0259917" lon="9.44685"><ele>97.0</ele><time>2026-03-27T09:31:01.646Z</time></trkpt><trkpt lat="45.02584" lon="9.4468467"><ele>97.0</ele><time>2026-03-27T09:31:02.648Z</time></trkpt><trkpt lat="45.02569" lon="9.446845"><ele>97.0</ele><time>2026-03-27T09:31:03.646Z</time></trkpt><trkpt lat="45.02554" lon="9.4468417"><ele>97.0</ele><time>2026-03-27T09:31:04.648Z</time></trkpt><trkpt lat="45.0253917" lon="9.4468383"><ele>97.0</ele><time>2026-03-27T09:31:05.647Z</time></trkpt><trkpt lat="45.0252417" lon="9.4468367"><ele>97.0</ele><time>2026-03-27T09:31:06.648Z</time></trkpt><trkpt lat="45.0250883" lon="9.4468333"><ele>97.0</ele><time>2026-03-27T09:31:07.649Z</time></trkpt><trkpt lat="45.024935" lon="9.4468317"><ele>97.0</ele><time>2026-03-27T09:31:08.649Z</time></trkpt><trkpt lat="45.0247833" lon="9.446825"><ele>97.25</ele><time>2026-03-27T09:31:09.649Z</time></trkpt><trkpt lat="45.0246367" lon="9.4468217"><ele>97.5</ele><time>2026-03-27T09:31:10.648Z</time></trkpt><trkpt lat="45.0244883" lon="9.4468183"><ele>97.75</ele><time>2026-03-27T09:31:11.646Z</time></trkpt><trkpt lat="45.024335" lon="9.4468167"><ele>98.0</ele><time>2026-03-27T09:31:12.647Z</time></trkpt><trkpt lat="45.02418" lon="9.44681"><ele>98.33333333333333</ele><time>2026-03-27T09:31:13.647Z</time></trkpt><trkpt lat="45.024025" lon="9.4468067"><ele>98.66666666666666</ele><time>2026-03-27T09:31:14.647Z</time></trkpt><trkpt lat="45.0238717" lon="9.4468017"><ele>99.0</ele><time>2026-03-27T09:31:15.647Z</time></trkpt><trkpt lat="45.023715" lon="9.4468017"><ele>99.0</ele><time>2026-03-27T09:31:16.647Z</time></trkpt><trkpt lat="45.0235617" lon="9.4468"><ele>99.0</ele><time>2026-03-27T09:31:17.646Z</time></trkpt><trkpt lat="45.0234183" lon="9.4467967"><ele>99.0</ele><time>2026-03-27T09:31:18.647Z</time></trkpt><trkpt lat="45.0232833" lon="9.4467967"><ele>99.0</ele><time>2026-03-27T09:31:19.646Z</time></trkpt><trkpt lat="45.023155" lon="9.446795"><ele>99.25</ele><time>2026-03-27T09:31:20.647Z</time></trkpt><trkpt lat="45.0230333" lon="9.4467967"><ele>99.5</ele><time>2026-03-27T09:31:21.646Z</time></trkpt><trkpt lat="45.02291" lon="9.4467917"><ele>99.75</ele><time>2026-03-27T09:31:22.647Z</time></trkpt><trkpt lat="45.0227783" lon="9.4467933"><ele>100.0</ele><time>2026-03-27T09:31:23.646Z</time></trkpt><trkpt lat="45.0226483" lon="9.4467867"><ele>100.0</ele><time>2026-03-27T09:31:24.648Z</time></trkpt><trkpt lat="45.0225167" lon="9.4467817"><ele>100.0</ele><time>2026-03-27T09:31:25.648Z</time></trkpt><trkpt lat="45.0223833" lon="9.4467767"><ele>100.0</ele><time>2026-03-27T09:31:26.649Z</time></trkpt><trkpt lat="45.0222467" lon="9.4467717"><ele>100.0</ele><time>2026-03-27T09:31:27.647Z</time></trkpt><trkpt lat="45.0221117" lon="9.4467683"><ele>100.25</ele><time>2026-03-27T09:31:28.646Z</time></trkpt><trkpt lat="45.021985" lon="9.4467667"><ele>100.5</ele><time>2026-03-27T09:31:29.646Z</time></trkpt><trkpt lat="45.0218633" lon="9.446765"><ele>100.75</ele><time>2026-03-27T09:31:30.648Z</time></trkpt><trkpt lat="45.0217483" lon="9.4467583"><ele>101.0</ele><time>2026-03-27T09:31:31.647Z</time></trkpt><trkpt lat="45.0216533" lon="9.446755"><ele>101.19999999999999</ele><time>2026-03-27T09:31:32.649Z</time></trkpt><trkpt lat="45.0215867" lon="9.446755"><ele>101.39999999999999</ele><time>2026-03-27T09:31:33.648Z</time></trkpt><trkpt lat="45.0214817" lon="9.4467483"><ele>101.6</ele><time>2026-03-27T09:31:35.646Z</time></trkpt><trkpt lat="45.0213833" lon="9.44675"><ele>101.8</ele><time>2026-03-27T09:31:37.647Z</time></trkpt><trkpt lat="45.021285" lon="9.446745"><ele>102.0</ele><time>2026-03-27T09:31:39.647Z</time></trkpt><trkpt lat="45.0211583" lon="9.4467467"><ele>102.0</ele><time>2026-03-27T09:31:41.647Z</time></trkpt><trkpt lat="45.0210817" lon="9.446745"><ele>102.0</ele><time>2026-03-27T09:31:42.647Z</time></trkpt><trkpt lat="45.020995" lon="9.4467417"><ele>102.0</ele><time>2026-03-27T09:31:43.648Z</time></trkpt><trkpt lat="45.0209067" lon="9.4467367"><ele>102.0</ele><time>2026-03-27T09:31:44.647Z</time></trkpt><trkpt lat="45.0208117" lon="9.4467367"><ele>102.0</ele><time>2026-03-27T09:31:45.647Z</time></trkpt><trkpt lat="45.020705" lon="9.44674"><ele>102.0</ele><time>2026-03-27T09:31:46.647Z</time></trkpt><trkpt lat="45.020605" lon="9.4467367"><ele>102.0</ele><time>2026-03-27T09:31:47.646Z</time></trkpt><trkpt lat="45.0205317" lon="9.4467383"><ele>102.0</ele><time>2026-03-27T09:31:48.647Z</time></trkpt><trkpt lat="45.0204667" lon="9.44674"><ele>102.0</ele><time>2026-03-27T09:31:49.646Z</time></trkpt><trkpt lat="45.0203983" lon="9.4467383"><ele>102.0</ele><time>2026-03-27T09:31:50.647Z</time></trkpt><trkpt lat="45.02032" lon="9.4467367"><ele>102.0</ele><time>2026-03-27T09:31:51.646Z</time></trkpt><trkpt lat="45.02024" lon="9.4467333"><ele>102.0</ele><time>2026-03-27T09:31:52.646Z</time></trkpt><trkpt lat="45.0201633" lon="9.4467283"><ele>102.0</ele><time>2026-03-27T09:31:53.646Z</time></trkpt><trkpt lat="45.0200867" lon="9.4467233"><ele>102.0</ele><time>2026-03-27T09:31:54.646Z</time></trkpt><trkpt lat="45.0200067" lon="9.4467217"><ele>102.0</ele><time>2026-03-27T09:31:55.647Z</time></trkpt><trkpt lat="45.0199283" lon="9.4467217"><ele>102.0</ele><time>2026-03-27T09:31:56.647Z</time></trkpt><trkpt lat="45.0198567" lon="9.4467217"><ele>102.0</ele><time>2026-03-27T09:31:57.646Z</time></trkpt><trkpt lat="45.0197867" lon="9.4467183"><ele>102.66666666666667</ele><time>2026-03-27T09:31:58.647Z</time></trkpt><trkpt lat="45.0197183" lon="9.4467167"><ele>103.33333333333334</ele><time>2026-03-27T09:31:59.646Z</time></trkpt><trkpt lat="45.0196517" lon="9.4467167"><ele>104.0</ele><time>2026-03-27T09:32:00.646Z</time></trkpt><trkpt lat="45.0195817" lon="9.44671"><ele>104.66666666666667</ele><time>2026-03-27T09:32:01.65Z</time></trkpt><trkpt lat="45.0195167" lon="9.446695"><ele>105.33333333333334</ele><time>2026-03-27T09:32:02.646Z</time></trkpt><trkpt lat="45.01941" lon="9.4466433"><ele>106.0</ele><time>2026-03-27T09:32:04.646Z</time></trkpt><trkpt lat="45.01933" lon="9.44655"><ele>106.00000000000001</ele><time>2026-03-27T09:32:06.649Z</time></trkpt><trkpt lat="45.0192167" lon="9.4464933"><ele>106.0</ele><time>2026-03-27T09:32:08.647Z</time></trkpt><trkpt lat="45.019115" lon="9.446545"><ele>106.0</ele><time>2026-03-27T09:32:10.646Z</time></trkpt><trkpt lat="45.0190583" lon="9.4466033"><ele>106.0</ele><time>2026-03-27T09:32:11.65Z</time></trkpt><trkpt lat="45.0189967" lon="9.4466483"><ele>106.00000000000001</ele><time>2026-03-27T09:32:12.648Z</time></trkpt><trkpt lat="45.0189283" lon="9.446685"><ele>106.0</ele><time>2026-03-27T09:32:13.647Z</time></trkpt><trkpt lat="45.0188583" lon="9.4466983"><ele>106.33333333333334</ele><time>2026-03-27T09:32:14.647Z</time></trkpt><trkpt lat="45.0187833" lon="9.4466833"><ele>106.66666666666667</ele><time>2026-03-27T09:32:15.646Z</time></trkpt><trkpt lat="45.0187017" lon="9.44666"><ele>107.0</ele><time>2026-03-27T09:32:16.647Z</time></trkpt><trkpt lat="45.0186217" lon="9.4466417"><ele>107.33333333333334</ele><time>2026-03-27T09:32:17.648Z</time></trkpt><trkpt lat="45.0185467" lon="9.4466283"><ele>107.66666666666667</ele><time>2026-03-27T09:32:18.649Z</time></trkpt><trkpt lat="45.018475" lon="9.446625"><ele>108.0</ele><time>2026-03-27T09:32:19.646Z</time></trkpt><trkpt lat="45.0184133" lon="9.4466517"><ele>108.0</ele><time>2026-03-27T09:32:20.646Z</time></trkpt><trkpt lat="45.0183267" lon="9.4467767"><ele>108.0</ele><time>2026-03-27T09:32:22.646Z</time></trkpt><trkpt lat="45.0183133" lon="9.44688"><ele>108.0</ele><time>2026-03-27T09:32:23.646Z</time></trkpt><trkpt lat="45.0183117" lon="9.446985"><ele>108.0</ele><time>2026-03-27T09:32:24.646Z</time></trkpt><trkpt lat="45.0183117" lon="9.4470783"><ele>108.0</ele><time>2026-03-27T09:32:25.649Z</time></trkpt><trkpt lat="45.0183183" lon="9.4471883"><ele>108.0</ele><time>2026-03-27T09:32:27.646Z</time></trkpt><trkpt lat="45.0183183" lon="9.4472933"><ele>107.83333333333333</ele><time>2026-03-27T09:32:29.647Z</time></trkpt><trkpt lat="45.0183167" lon="9.4474783"><ele>107.66666666666666</ele><time>2026-03-27T09:32:31.647Z</time></trkpt><trkpt lat="45.01831" lon="9.4475767"><ele>107.5</ele><time>2026-03-27T09:32:32.648Z</time></trkpt><trkpt lat="45.0183033" lon="9.4476767"><ele>107.33333333333333</ele><time>2026-03-27T09:32:33.647Z</time></trkpt><trkpt lat="45.0182967" lon="9.447775"><ele>107.16666666666666</ele><time>2026-03-27T09:32:34.648Z</time></trkpt><trkpt lat="45.0182867" lon="9.4478783"><ele>107.0</ele><time>2026-03-27T09:32:35.646Z</time></trkpt><trkpt lat="45.01826" lon="9.4479833"><ele>107.0</ele><time>2026-03-27T09:32:36.647Z</time></trkpt><trkpt lat="45.018205" lon="9.4480783"><ele>106.99999999999999</ele><time>2026-03-27T09:32:37.647Z</time></trkpt><trkpt lat="45.0181333" lon="9.448155"><ele>106.99999999999999</ele><time>2026-03-27T09:32:38.646Z</time></trkpt><trkpt lat="45.0180483" lon="9.4482133"><ele>107.0</ele><time>2026-03-27T09:32:39.647Z</time></trkpt><trkpt lat="45.0179467" lon="9.44823"><ele>107.0</ele><time>2026-03-27T09:32:40.647Z</time></trkpt><trkpt lat="45.0178483" lon="9.4482417"><ele>107.0</ele><time>2026-03-27T09:32:41.647Z</time></trkpt><trkpt lat="45.0177567" lon="9.4482483"><ele>106.99999999999999</ele><time>2026-03-27T09:32:42.646Z</time></trkpt><trkpt lat="45.0176667" lon="9.4482533"><ele>106.99999999999999</ele><time>2026-03-27T09:32:43.647Z</time></trkpt><trkpt lat="45.0175733" lon="9.4482617"><ele>107.0</ele><time>2026-03-27T09:32:44.646Z</time></trkpt><trkpt lat="45.0174833" lon="9.44827"><ele>107.0</ele><time>2026-03-27T09:32:45.653Z</time></trkpt><trkpt lat="45.01739" lon="9.448275"><ele>107.33333333333333</ele><time>2026-03-27T09:32:46.646Z</time></trkpt><trkpt lat="45.0173067" lon="9.4482883"><ele>107.66666666666666</ele><time>2026-03-27T09:32:47.646Z</time></trkpt><trkpt lat="45.017225" lon="9.4483"><ele>108.0</ele><time>2026-03-27T09:32:48.648Z</time></trkpt><trkpt lat="45.0171383" lon="9.4483083"><ele>108.33333333333334</ele><time>2026-03-27T09:32:49.646Z</time></trkpt><trkpt lat="45.017045" lon="9.4483183"><ele>108.66666666666667</ele><time>2026-03-27T09:32:50.647Z</time></trkpt><trkpt lat="45.016945" lon="9.448325"><ele>109.0</ele><time>2026-03-27T09:32:51.647Z</time></trkpt><trkpt lat="45.0168367" lon="9.4483333"><ele>109.0</ele><time>2026-03-27T09:32:52.648Z</time></trkpt><trkpt lat="45.0167217" lon="9.4483433"><ele>109.0</ele><time>2026-03-27T09:32:53.647Z</time></trkpt><trkpt lat="45.016605" lon="9.448355"><ele>109.0</ele><time>2026-03-27T09:32:54.647Z</time></trkpt><trkpt lat="45.0164883" lon="9.4483683"><ele>109.0</ele><time>2026-03-27T09:32:55.647Z</time></trkpt><trkpt lat="45.016375" lon="9.4483767"><ele>109.25</ele><time>2026-03-27T09:32:56.647Z</time></trkpt><trkpt lat="45.0162583" lon="9.4483867"><ele>109.5</ele><time>2026-03-27T09:32:57.647Z</time></trkpt><trkpt lat="45.01614" lon="9.4484"><ele>109.75</ele><time>2026-03-27T09:32:58.646Z</time></trkpt><trkpt lat="45.0160267" lon="9.44841"><ele>110.0</ele><time>2026-03-27T09:32:59.647Z</time></trkpt><trkpt lat="45.0159167" lon="9.4484183"><ele>110.5</ele><time>2026-03-27T09:33:00.648Z</time></trkpt><trkpt lat="45.0158067" lon="9.448425"><ele>111.0</ele><time>2026-03-27T09:33:01.647Z</time></trkpt><trkpt lat="45.015695" lon="9.4484367"><ele>111.5</ele><time>2026-03-27T09:33:02.65Z</time></trkpt><trkpt lat="45.0155767" lon="9.448445"><ele>112.0</ele><time>2026-03-27T09:33:03.646Z</time></trkpt><trkpt lat="45.0154617" lon="9.44845"><ele>112.0</ele><time>2026-03-27T09:33:04.654Z</time></trkpt><trkpt lat="45.0153433" lon="9.4484617"><ele>111.99999999999999</ele><time>2026-03-27T09:33:05.647Z</time></trkpt><trkpt lat="45.01523" lon="9.4484767"><ele>111.99999999999999</ele><time>2026-03-27T09:33:06.647Z</time></trkpt><trkpt lat="45.0151283" lon="9.4484883"><ele>112.0</ele><time>2026-03-27T09:33:07.647Z</time></trkpt><trkpt lat="45.015035" lon="9.44849"><ele>112.0</ele><time>2026-03-27T09:33:08.648Z</time></trkpt><trkpt lat="45.014945" lon="9.4484933"><ele>111.66666666666667</ele><time>2026-03-27T09:33:09.646Z</time></trkpt><trkpt lat="45.014865" lon="9.4485033"><ele>111.33333333333334</ele><time>2026-03-27T09:33:10.646Z</time></trkpt><trkpt lat="45.0147883" lon="9.4485083"><ele>111.0</ele><time>2026-03-27T09:33:11.646Z</time></trkpt><trkpt lat="45.0147117" lon="9.4485017"><ele>110.66666666666666</ele><time>2026-03-27T09:33:12.646Z</time></trkpt><trkpt lat="45.0146383" lon="9.448485"><ele>110.33333333333333</ele><time>2026-03-27T09:33:13.647Z</time></trkpt><trkpt lat="45.0145633" lon="9.4484583"><ele>110.0</ele><time>2026-03-27T09:33:14.647Z</time></trkpt><trkpt lat="45.0144967" lon="9.448415"><ele>109.99999999999999</ele><time>2026-03-27T09:33:15.647Z</time></trkpt><trkpt lat="45.0144583" lon="9.44833"><ele>110.0</ele><time>2026-03-27T09:33:16.647Z</time></trkpt><trkpt lat="45.014435" lon="9.4482467"><ele>110.0</ele><time>2026-03-27T09:33:17.646Z</time></trkpt><trkpt lat="45.0144217" lon="9.4480667"><ele>110.0</ele><time>2026-03-27T09:33:19.647Z</time></trkpt><trkpt lat="45.0144167" lon="9.4479383"><ele>109.99999999999999</ele><time>2026-03-27T09:33:21.649Z</time></trkpt><trkpt lat="45.0144133" lon="9.447835"><ele>110.0</ele><time>2026-03-27T09:33:23.647Z</time></trkpt><trkpt lat="45.0144" lon="9.4477033"><ele>110.16666666666666</ele><time>2026-03-27T09:33:25.647Z</time></trkpt><trkpt lat="45.0143867" lon="9.4476"><ele>110.33333333333333</ele><time>2026-03-27T09:33:27.646Z</time></trkpt><trkpt lat="45.0143767" lon="9.4474717"><ele>110.5</ele><time>2026-03-27T09:33:30.65Z</time></trkpt><trkpt lat="45.01437" lon="9.4473283"><ele>110.66666666666666</ele><time>2026-03-27T09:34:02.651Z</time></trkpt><trkpt lat="45.0143567" lon="9.447235"><ele>110.83333333333333</ele><time>2026-03-27T09:34:03.649Z</time></trkpt><trkpt lat="45.0143217" lon="9.4471167"><ele>111.0</ele><time>2026-03-27T09:34:04.648Z</time></trkpt><trkpt lat="45.01428" lon="9.4470083"><ele>111.19999999999999</ele><time>2026-03-27T09:34:05.647Z</time></trkpt><trkpt lat="45.01421" lon="9.4469133"><ele>111.39999999999999</ele><time>2026-03-27T09:34:06.65Z</time></trkpt><trkpt lat="45.014125" lon="9.4468183"><ele>111.6</ele><time>2026-03-27T09:34:07.649Z</time></trkpt><trkpt lat="45.0140367" lon="9.446725"><ele>111.8</ele><time>2026-03-27T09:34:08.647Z</time></trkpt><trkpt lat="45.01394" lon="9.4466317"><ele>112.0</ele><time>2026-03-27T09:34:09.647Z</time></trkpt><trkpt lat="45.013835" lon="9.44653"><ele>112.0</ele><time>2026-03-27T09:34:10.646Z</time></trkpt><trkpt lat="45.01372" lon="9.4464267"><ele>112.0</ele><time>2026-03-27T09:34:11.646Z</time></trkpt><trkpt lat="45.0136" lon="9.4463183"><ele>112.0</ele><time>2026-03-27T09:34:12.646Z</time></trkpt><trkpt lat="45.0134733" lon="9.446205"><ele>112.0</ele><time>2026-03-27T09:34:13.647Z</time></trkpt><trkpt lat="45.0133517" lon="9.446085"><ele>112.5</ele><time>2026-03-27T09:34:14.647Z</time></trkpt><trkpt lat="45.0132283" lon="9.44598"><ele>113.0</ele><time>2026-03-27T09:34:15.646Z</time></trkpt><trkpt lat="45.0131067" lon="9.445885"><ele>113.5</ele><time>2026-03-27T09:34:16.646Z</time></trkpt><trkpt lat="45.0129833" lon="9.4457933"><ele>114.0</ele><time>2026-03-27T09:34:17.646Z</time></trkpt><trkpt lat="45.0128583" lon="9.4457067"><ele>114.0</ele><time>2026-03-27T09:34:18.651Z</time></trkpt><trkpt lat="45.0127367" lon="9.4456183"><ele>114.0</ele><time>2026-03-27T09:34:19.646Z</time></trkpt><trkpt lat="45.0126217" lon="9.4455267"><ele>114.0</ele><time>2026-03-27T09:34:20.646Z</time></trkpt><trkpt lat="45.0125067" lon="9.4454433"><ele>114.0</ele><time>2026-03-27T09:34:21.648Z</time></trkpt><trkpt lat="45.01239" lon="9.4453667"><ele>114.5</ele><time>2026-03-27T09:34:22.646Z</time></trkpt><trkpt lat="45.0122733" lon="9.445295"><ele>115.0</ele><time>2026-03-27T09:34:23.648Z</time></trkpt><trkpt lat="45.0121517" lon="9.4452283"><ele>115.5</ele><time>2026-03-27T09:34:24.646Z</time></trkpt><trkpt lat="45.0120317" lon="9.44516"><ele>116.0</ele><time>2026-03-27T09:34:25.648Z</time></trkpt><trkpt lat="45.0119117" lon="9.4450883"><ele>116.0</ele><time>2026-03-27T09:34:26.656Z</time></trkpt><trkpt lat="45.01179" lon="9.4450133"><ele>116.0</ele><time>2026-03-27T09:34:27.647Z</time></trkpt><trkpt lat="45.0116717" lon="9.44494"><ele>116.0</ele><time>2026-03-27T09:34:28.647Z</time></trkpt><trkpt lat="45.0115483" lon="9.4448733"><ele>116.0</ele><time>2026-03-27T09:34:29.647Z</time></trkpt><trkpt lat="45.011415" lon="9.4448117"><ele>115.66666666666666</ele><time>2026-03-27T09:34:30.648Z</time></trkpt><trkpt lat="45.011265" lon="9.4447533"><ele>115.33333333333334</ele><time>2026-03-27T09:34:31.649Z</time></trkpt><trkpt lat="45.011115" lon="9.4447283"><ele>115.0</ele><time>2026-03-27T09:34:32.65Z</time></trkpt><trkpt lat="45.0109433" lon="9.4447567"><ele>116.0</ele><time>2026-03-27T09:34:33.647Z</time></trkpt><trkpt lat="45.0107617" lon="9.444785"><ele>117.0</ele><time>2026-03-27T09:34:34.647Z</time></trkpt><trkpt lat="45.010585" lon="9.444795"><ele>118.0</ele><time>2026-03-27T09:34:35.648Z</time></trkpt><trkpt lat="45.010415" lon="9.444805"><ele>118.0</ele><time>2026-03-27T09:34:36.648Z</time></trkpt><trkpt lat="45.0102567" lon="9.444815"><ele>118.0</ele><time>2026-03-27T09:34:37.646Z</time></trkpt><trkpt lat="45.0101083" lon="9.444825"><ele>118.0</ele><time>2026-03-27T09:34:38.649Z</time></trkpt><trkpt lat="45.0099633" lon="9.444835"><ele>117.75</ele><time>2026-03-27T09:34:39.647Z</time></trkpt><trkpt lat="45.0098217" lon="9.444845"><ele>117.5</ele><time>2026-03-27T09:34:40.647Z</time></trkpt><trkpt lat="45.0096783" lon="9.44486"><ele>117.25</ele><time>2026-03-27T09:34:41.646Z</time></trkpt><trkpt lat="45.0095317" lon="9.4448717"><ele>117.0</ele><time>2026-03-27T09:34:42.647Z</time></trkpt><trkpt lat="45.0093833" lon="9.4448867"><ele>117.0</ele><time>2026-03-27T09:34:43.648Z</time></trkpt><trkpt lat="45.009235" lon="9.4449033"><ele>117.0</ele><time>2026-03-27T09:34:44.648Z</time></trkpt><trkpt lat="45.009085" lon="9.44491"><ele>117.0</ele><time>2026-03-27T09:34:45.649Z</time></trkpt><trkpt lat="45.0089383" lon="9.4449083"><ele>117.0</ele><time>2026-03-27T09:34:46.647Z</time></trkpt><trkpt lat="45.0087933" lon="9.444865"><ele>117.0</ele><time>2026-03-27T09:34:47.647Z</time></trkpt><trkpt lat="45.0086467" lon="9.4448083"><ele>117.0</ele><time>2026-03-27T09:34:48.648Z</time></trkpt><trkpt lat="45.0085017" lon="9.444745"><ele>117.0</ele><time>2026-03-27T09:34:49.648Z</time></trkpt><trkpt lat="45.0083583" lon="9.4446817"><ele>117.66666666666666</ele><time>2026-03-27T09:34:50.648Z</time></trkpt><trkpt lat="45.008215" lon="9.4446167"><ele>118.33333333333333</ele><time>2026-03-27T09:34:51.647Z</time></trkpt><trkpt lat="45.00807" lon="9.44455"><ele>119.0</ele><time>2026-03-27T09:34:52.647Z</time></trkpt><trkpt lat="45.0079267" lon="9.4444867"><ele>119.0</ele><time>2026-03-27T09:34:53.647Z</time></trkpt><trkpt lat="45.0077817" lon="9.4444267"><ele>119.0</ele><time>2026-03-27T09:34:54.648Z</time></trkpt><trkpt lat="45.0076333" lon="9.44437"><ele>119.0</ele><time>2026-03-27T09:34:55.647Z</time></trkpt><trkpt lat="45.0074883" lon="9.4443267"><ele>119.0</ele><time>2026-03-27T09:34:56.648Z</time></trkpt><trkpt lat="45.0073483" lon="9.44429"><ele>119.0</ele><time>2026-03-27T09:34:57.647Z</time></trkpt><trkpt lat="45.0072133" lon="9.4442567"><ele>119.0</ele><time>2026-03-27T09:34:58.647Z</time></trkpt><trkpt lat="45.0070767" lon="9.4442267"><ele>119.0</ele><time>2026-03-27T09:34:59.647Z</time></trkpt><trkpt lat="45.0069417" lon="9.4441967"><ele>119.0</ele><time>2026-03-27T09:35:00.648Z</time></trkpt><trkpt lat="45.0068067" lon="9.444165"><ele>119.0</ele><time>2026-03-27T09:35:01.648Z</time></trkpt><trkpt lat="45.006665" lon="9.4441317"><ele>119.0</ele><time>2026-03-27T09:35:02.647Z</time></trkpt><trkpt lat="45.006515" lon="9.44409"><ele>119.0</ele><time>2026-03-27T09:35:03.647Z</time></trkpt><trkpt lat="45.0063633" lon="9.4440483"><ele>119.33333333333333</ele><time>2026-03-27T09:35:04.648Z</time></trkpt><trkpt lat="45.0062117" lon="9.4440083"><ele>119.66666666666666</ele><time>2026-03-27T09:35:05.647Z</time></trkpt><trkpt lat="45.0060583" lon="9.44397"><ele>120.0</ele><time>2026-03-27T09:35:06.649Z</time></trkpt><trkpt lat="45.005905" lon="9.4439367"><ele>120.33333333333334</ele><time>2026-03-27T09:35:07.647Z</time></trkpt><trkpt lat="45.0057483" lon="9.4439083"><ele>120.66666666666667</ele><time>2026-03-27T09:35:08.647Z</time></trkpt><trkpt lat="45.005595" lon="9.443885"><ele>121.0</ele><time>2026-03-27T09:35:09.646Z</time></trkpt><trkpt lat="45.00544" lon="9.443865"><ele>121.0</ele><time>2026-03-27T09:35:10.646Z</time></trkpt><trkpt lat="45.0052817" lon="9.4438517"><ele>121.0</ele><time>2026-03-27T09:35:11.647Z</time></trkpt><trkpt lat="45.0051167" lon="9.443845"><ele>121.0</ele><time>2026-03-27T09:35:12.649Z</time></trkpt><trkpt lat="45.0049433" lon="9.44383"><ele>121.0</ele><time>2026-03-27T09:35:13.647Z</time></trkpt><trkpt lat="45.0047633" lon="9.4438083"><ele>121.0</ele><time>2026-03-27T09:35:14.648Z</time></trkpt><trkpt lat="45.00458" lon="9.4437917"><ele>121.0</ele><time>2026-03-27T09:35:15.647Z</time></trkpt><trkpt lat="45.0043983" lon="9.44378"><ele>121.0</ele><time>2026-03-27T09:35:16.646Z</time></trkpt><trkpt lat="45.004215" lon="9.4437783"><ele>121.0</ele><time>2026-03-27T09:35:17.649Z</time></trkpt><trkpt lat="45.004035" lon="9.4437683"><ele>121.0</ele><time>2026-03-27T09:35:18.649Z</time></trkpt><trkpt lat="45.0038533" lon="9.4437583"><ele>121.0</ele><time>2026-03-27T09:35:19.648Z</time></trkpt><trkpt lat="45.0036733" lon="9.4437483"><ele>121.0</ele><time>2026-03-27T09:35:20.649Z</time></trkpt><trkpt lat="45.00349" lon="9.4437467"><ele>121.0</ele><time>2026-03-27T09:35:21.648Z</time></trkpt><trkpt lat="45.00331" lon="9.4437383"><ele>121.33333333333334</ele><time>2026-03-27T09:35:22.648Z</time></trkpt><trkpt lat="45.00313" lon="9.443735"><ele>121.66666666666666</ele><time>2026-03-27T09:35:23.651Z</time></trkpt><trkpt lat="45.00295" lon="9.4437317"><ele>122.0</ele><time>2026-03-27T09:35:24.649Z</time></trkpt><trkpt lat="45.0027717" lon="9.4437317"><ele>122.0</ele><time>2026-03-27T09:35:25.648Z</time></trkpt><trkpt lat="45.0025933" lon="9.443735"><ele>122.0</ele><time>2026-03-27T09:35:26.65Z</time></trkpt><trkpt lat="45.0024167" lon="9.4437417"><ele>122.0</ele><time>2026-03-27T09:35:27.648Z</time></trkpt><trkpt lat="45.0022383" lon="9.44375"><ele>122.0</ele><time>2026-03-27T09:35:28.649Z</time></trkpt><trkpt lat="45.00206" lon="9.4437567"><ele>122.0</ele><time>2026-03-27T09:35:29.649Z</time></trkpt><trkpt lat="45.0018817" lon="9.443765"><ele>122.0</ele><time>2026-03-27T09:35:30.65Z</time></trkpt><trkpt lat="45.0016983" lon="9.4437767"><ele>122.0</ele><time>2026-03-27T09:35:31.646Z</time></trkpt><trkpt lat="45.001515" lon="9.44379"><ele>122.0</ele><time>2026-03-27T09:35:32.647Z</time></trkpt><trkpt lat="45.0013333" lon="9.4438017"><ele>122.0</ele><time>2026-03-27T09:35:33.647Z</time></trkpt><trkpt lat="45.0011533" lon="9.4438117"><ele>122.0</ele><time>2026-03-27T09:35:34.647Z</time></trkpt><trkpt lat="45.000975" lon="9.44382"><ele>122.0</ele><time>2026-03-27T09:35:35.647Z</time></trkpt><trkpt lat="45.0008" lon="9.4438267"><ele>122.0</ele><time>2026-03-27T09:35:36.648Z</time></trkpt><trkpt lat="45.000625" lon="9.4438367"><ele>122.33333333333333</ele><time>2026-03-27T09:35:37.65Z</time></trkpt><trkpt lat="45.00045" lon="9.4438483"><ele>122.66666666666666</ele><time>2026-03-27T09:35:38.647Z</time></trkpt><trkpt lat="45.0002767" lon="9.4438633"><ele>123.0</ele><time>2026-03-27T09:35:39.649Z</time></trkpt><trkpt lat="45.000105" lon="9.44388"><ele>123.0</ele><time>2026-03-27T09:35:40.648Z</time></trkpt><trkpt lat="44.9999333" lon="9.443895"><ele>123.0</ele><time>2026-03-27T09:35:41.647Z</time></trkpt><trkpt lat="44.9997583" lon="9.44391"><ele>123.0</ele><time>2026-03-27T09:35:42.646Z</time></trkpt><trkpt lat="44.9995867" lon="9.4439167"><ele>123.0</ele><time>2026-03-27T09:35:43.648Z</time></trkpt><trkpt lat="44.9994117" lon="9.443925"><ele>123.0</ele><time>2026-03-27T09:35:44.649Z</time></trkpt><trkpt lat="44.9992367" lon="9.443935"><ele>123.0</ele><time>2026-03-27T09:35:45.648Z</time></trkpt><trkpt lat="44.9990683" lon="9.443945"><ele>123.66666666666666</ele><time>2026-03-27T09:35:46.649Z</time></trkpt><trkpt lat="44.9989083" lon="9.4439533"><ele>124.33333333333333</ele><time>2026-03-27T09:35:47.649Z</time></trkpt><trkpt lat="44.99875" lon="9.4439617"><ele>125.0</ele><time>2026-03-27T09:35:48.648Z</time></trkpt><trkpt lat="44.9985933" lon="9.4439717"><ele>125.0</ele><time>2026-03-27T09:35:49.648Z</time></trkpt><trkpt lat="44.99844" lon="9.44398"><ele>125.0</ele><time>2026-03-27T09:35:50.649Z</time></trkpt><trkpt lat="44.9982817" lon="9.44399"><ele>125.0</ele><time>2026-03-27T09:35:51.648Z</time></trkpt><trkpt lat="44.9981233" lon="9.4440033"><ele>125.33333333333333</ele><time>2026-03-27T09:35:52.648Z</time></trkpt><trkpt lat="44.9979633" lon="9.4440167"><ele>125.66666666666666</ele><time>2026-03-27T09:35:53.648Z</time></trkpt><trkpt lat="44.9978" lon="9.4440283"><ele>126.0</ele><time>2026-03-27T09:35:54.648Z</time></trkpt><trkpt lat="44.9976383" lon="9.4440333"><ele>126.0</ele><time>2026-03-27T09:35:55.651Z</time></trkpt><trkpt lat="44.997475" lon="9.4440417"><ele>126.0</ele><time>2026-03-27T09:35:56.648Z</time></trkpt><trkpt lat="44.9973117" lon="9.4440483"><ele>126.0</ele><time>2026-03-27T09:35:57.648Z</time></trkpt><trkpt lat="44.99714" lon="9.4440517"><ele>126.0</ele><time>2026-03-27T09:35:58.649Z</time></trkpt><trkpt lat="44.9969567" lon="9.4440467"><ele>126.0</ele><time>2026-03-27T09:35:59.648Z</time></trkpt><trkpt lat="44.9967617" lon="9.4440317"><ele>126.0</ele><time>2026-03-27T09:36:00.647Z</time></trkpt><trkpt lat="44.9965567" lon="9.4440133"><ele>126.66666666666666</ele><time>2026-03-27T09:36:01.646Z</time></trkpt><trkpt lat="44.99634" lon="9.4439917"><ele>127.33333333333333</ele><time>2026-03-27T09:36:02.651Z</time></trkpt><trkpt lat="44.9961183" lon="9.443955"><ele>128.0</ele><time>2026-03-27T09:36:03.646Z</time></trkpt><trkpt lat="44.9958983" lon="9.4438883"><ele>128.0</ele><time>2026-03-27T09:36:04.646Z</time></trkpt><trkpt lat="44.9956733" lon="9.443795"><ele>128.0</ele><time>2026-03-27T09:36:05.648Z</time></trkpt><trkpt lat="44.99545" lon="9.4436917"><ele>128.0</ele><time>2026-03-27T09:36:06.646Z</time></trkpt><trkpt lat="44.9952283" lon="9.4435967"><ele>128.0</ele><time>2026-03-27T09:36:07.648Z</time></trkpt><trkpt lat="44.9950133" lon="9.4435167"><ele>128.66666666666666</ele><time>2026-03-27T09:36:08.649Z</time></trkpt><trkpt lat="44.9947983" lon="9.4434633"><ele>129.33333333333334</ele><time>2026-03-27T09:36:09.646Z</time></trkpt><trkpt lat="44.9945767" lon="9.443445"><ele>130.0</ele><time>2026-03-27T09:36:10.649Z</time></trkpt><trkpt lat="44.9943517" lon="9.44345"><ele>130.33333333333334</ele><time>2026-03-27T09:36:11.646Z</time></trkpt><trkpt lat="44.994125" lon="9.4434533"><ele>130.66666666666666</ele><time>2026-03-27T09:36:12.649Z</time></trkpt><trkpt lat="44.99391" lon="9.4434533"><ele>131.0</ele><time>2026-03-27T09:36:13.647Z</time></trkpt><trkpt lat="44.9937067" lon="9.4434483"><ele>131.0</ele><time>2026-03-27T09:36:14.647Z</time></trkpt><trkpt lat="44.9935183" lon="9.4434383"><ele>131.0</ele><time>2026-03-27T09:36:15.65Z</time></trkpt><trkpt lat="44.9933383" lon="9.4434267"><ele>131.0</ele><time>2026-03-27T09:36:16.648Z</time></trkpt><trkpt lat="44.9931667" lon="9.44341"><ele>131.33333333333331</ele><time>2026-03-27T09:36:17.647Z</time></trkpt><trkpt lat="44.9929967" lon="9.4433917"><ele>131.66666666666666</ele><time>2026-03-27T09:36:18.649Z</time></trkpt><trkpt lat="44.9928233" lon="9.4433767"><ele>132.0</ele><time>2026-03-27T09:36:19.648Z</time></trkpt><trkpt lat="44.992655" lon="9.4433617"><ele>132.33333333333334</ele><time>2026-03-27T09:36:20.65Z</time></trkpt><trkpt lat="44.992485" lon="9.4433433"><ele>132.66666666666669</ele><time>2026-03-27T09:36:21.647Z</time></trkpt><trkpt lat="44.9923167" lon="9.4433233"><ele>133.0</ele><time>2026-03-27T09:36:22.648Z</time></trkpt><trkpt lat="44.9921517" lon="9.4433033"><ele>133.0</ele><time>2026-03-27T09:36:23.648Z</time></trkpt><trkpt lat="44.9919833" lon="9.44328"><ele>133.0</ele><time>2026-03-27T09:36:24.65Z</time></trkpt><trkpt lat="44.9918133" lon="9.443245"><ele>133.0</ele><time>2026-03-27T09:36:25.65Z</time></trkpt><trkpt lat="44.991645" lon="9.4431983"><ele>133.66666666666669</ele><time>2026-03-27T09:36:26.647Z</time></trkpt><trkpt lat="44.991475" lon="9.44315"><ele>134.33333333333334</ele><time>2026-03-27T09:36:27.647Z</time></trkpt><trkpt lat="44.9913017" lon="9.443105"><ele>135.0</ele><time>2026-03-27T09:36:28.646Z</time></trkpt><trkpt lat="44.9911267" lon="9.4430633"><ele>135.0</ele><time>2026-03-27T09:36:29.647Z</time></trkpt><trkpt lat="44.9909483" lon="9.4430217"><ele>135.0</ele><time>2026-03-27T09:36:30.647Z</time></trkpt><trkpt lat="44.990765" lon="9.442975"><ele>135.0</ele><time>2026-03-27T09:36:31.648Z</time></trkpt><trkpt lat="44.9905867" lon="9.4429367"><ele>135.33333333333334</ele><time>2026-03-27T09:36:32.648Z</time></trkpt><trkpt lat="44.9904167" lon="9.4428967"><ele>135.66666666666669</ele><time>2026-03-27T09:36:33.647Z</time></trkpt><trkpt lat="44.9902583" lon="9.4428667"><ele>136.0</ele><time>2026-03-27T09:36:34.647Z</time></trkpt><trkpt lat="44.9901" lon="9.4428383"><ele>137.0</ele><time>2026-03-27T09:36:35.647Z</time></trkpt><trkpt lat="44.9899383" lon="9.442815"><ele>138.0</ele><time>2026-03-27T09:36:36.648Z</time></trkpt><trkpt lat="44.98978" lon="9.4427933"><ele>139.0</ele><time>2026-03-27T09:36:37.647Z</time></trkpt><trkpt lat="44.9896217" lon="9.4427667"><ele>139.0</ele><time>2026-03-27T09:36:38.65Z</time></trkpt><trkpt lat="44.98946" lon="9.442745"><ele>139.0</ele><time>2026-03-27T09:36:39.648Z</time></trkpt><trkpt lat="44.9893017" lon="9.442735"><ele>139.0</ele><time>2026-03-27T09:36:40.65Z</time></trkpt><trkpt lat="44.9891467" lon="9.4427333"><ele>140.0</ele><time>2026-03-27T09:36:41.647Z</time></trkpt><trkpt lat="44.9890033" lon="9.4427333"><ele>141.0</ele><time>2026-03-27T09:36:42.647Z</time></trkpt><trkpt lat="44.9888767" lon="9.4427133"><ele>142.0</ele><time>2026-03-27T09:36:43.648Z</time></trkpt><trkpt lat="44.9887667" lon="9.4426683"><ele>143.0</ele><time>2026-03-27T09:36:44.649Z</time></trkpt><trkpt lat="44.9886633" lon="9.442605"><ele>143.0</ele><time>2026-03-27T09:36:45.647Z</time></trkpt><trkpt lat="44.9885667" lon="9.4425267"><ele>143.0</ele><time>2026-03-27T09:36:46.646Z</time></trkpt><trkpt lat="44.9884833" lon="9.44245"><ele>143.0</ele><time>2026-03-27T09:36:47.648Z</time></trkpt><trkpt lat="44.9884033" lon="9.4423783"><ele>143.0</ele><time>2026-03-27T09:36:48.649Z</time></trkpt><trkpt lat="44.9883183" lon="9.44232"><ele>143.0</ele><time>2026-03-27T09:36:49.65Z</time></trkpt><trkpt lat="44.98823" lon="9.442285"><ele>143.6</ele><time>2026-03-27T09:36:50.65Z</time></trkpt><trkpt lat="44.9881367" lon="9.4422767"><ele>144.20000000000002</ele><time>2026-03-27T09:36:51.648Z</time></trkpt><trkpt lat="44.9880417" lon="9.4423067"><ele>144.8</ele><time>2026-03-27T09:36:52.648Z</time></trkpt><trkpt lat="44.9879417" lon="9.4423717"><ele>145.4</ele><time>2026-03-27T09:36:53.648Z</time></trkpt><trkpt lat="44.98784" lon="9.4424517"><ele>146.0</ele><time>2026-03-27T09:36:54.648Z</time></trkpt><trkpt lat="44.98774" lon="9.44255"><ele>146.0</ele><time>2026-03-27T09:36:55.648Z</time></trkpt><trkpt lat="44.9876517" lon="9.44265"><ele>146.0</ele><time>2026-03-27T09:36:56.648Z</time></trkpt><trkpt lat="44.987565" lon="9.4427383"><ele>146.0</ele><time>2026-03-27T09:36:57.648Z</time></trkpt><trkpt lat="44.987465" lon="9.4427967"><ele>146.0</ele><time>2026-03-27T09:36:58.648Z</time></trkpt><trkpt lat="44.9873567" lon="9.4428433"><ele>146.0</ele><time>2026-03-27T09:36:59.647Z</time></trkpt><trkpt lat="44.98724" lon="9.4428817"><ele>146.5</ele><time>2026-03-27T09:37:00.647Z</time></trkpt><trkpt lat="44.987115" lon="9.4428933"><ele>147.0</ele><time>2026-03-27T09:37:01.646Z</time></trkpt><trkpt lat="44.9869833" lon="9.4429133"><ele>147.5</ele><time>2026-03-27T09:37:02.647Z</time></trkpt><trkpt lat="44.986845" lon="9.4429433"><ele>148.0</ele><time>2026-03-27T09:37:03.649Z</time></trkpt><trkpt lat="44.9867017" lon="9.4429667"><ele>147.0</ele><time>2026-03-27T09:37:04.65Z</time></trkpt><trkpt lat="44.9865583" lon="9.4429817"><ele>146.0</ele><time>2026-03-27T09:37:05.652Z</time></trkpt><trkpt lat="44.98641" lon="9.4429817"><ele>145.0</ele><time>2026-03-27T09:37:06.648Z</time></trkpt><trkpt lat="44.98626" lon="9.4429767"><ele>144.0</ele><time>2026-03-27T09:37:07.648Z</time></trkpt><trkpt lat="44.98611" lon="9.4429717"><ele>146.0</ele><time>2026-03-27T09:37:08.647Z</time></trkpt><trkpt lat="44.985955" lon="9.4429633"><ele>148.0</ele><time>2026-03-27T09:37:09.649Z</time></trkpt><trkpt lat="44.9857983" lon="9.44295"><ele>150.0</ele><time>2026-03-27T09:37:10.647Z</time></trkpt><trkpt lat="44.9856383" lon="9.442935"><ele>150.66666666666666</ele><time>2026-03-27T09:37:11.647Z</time></trkpt><trkpt lat="44.9854767" lon="9.44292"><ele>151.33333333333331</ele><time>2026-03-27T09:37:12.648Z</time></trkpt><trkpt lat="44.98531" lon="9.4429117"><ele>152.0</ele><time>2026-03-27T09:37:13.647Z</time></trkpt><trkpt lat="44.9851433" lon="9.4429033"><ele>150.66666666666666</ele><time>2026-03-27T09:37:14.646Z</time></trkpt><trkpt lat="44.9849767" lon="9.442895"><ele>149.33333333333334</ele><time>2026-03-27T09:37:15.646Z</time></trkpt><trkpt lat="44.9848117" lon="9.4428867"><ele>148.0</ele><time>2026-03-27T09:37:16.647Z</time></trkpt><trkpt lat="44.984645" lon="9.442875"><ele>148.0</ele><time>2026-03-27T09:37:17.65Z</time></trkpt><trkpt lat="44.9844783" lon="9.4428583"><ele>148.0</ele><time>2026-03-27T09:37:18.646Z</time></trkpt><trkpt lat="44.9843133" lon="9.44283"><ele>148.0</ele><time>2026-03-27T09:37:19.647Z</time></trkpt><trkpt lat="44.9841467" lon="9.4427967"><ele>147.33333333333334</ele><time>2026-03-27T09:37:20.647Z</time></trkpt><trkpt lat="44.9839833" lon="9.4427583"><ele>146.66666666666666</ele><time>2026-03-27T09:37:21.648Z</time></trkpt><trkpt lat="44.9838217" lon="9.4427083"><ele>146.0</ele><time>2026-03-27T09:37:22.646Z</time></trkpt><trkpt lat="44.9836633" lon="9.4426517"><ele>146.0</ele><time>2026-03-27T09:37:23.646Z</time></trkpt><trkpt lat="44.9835033" lon="9.4425917"><ele>146.0</ele><time>2026-03-27T09:37:24.646Z</time></trkpt><trkpt lat="44.9833467" lon="9.44253"><ele>146.0</ele><time>2026-03-27T09:37:25.646Z</time></trkpt><trkpt lat="44.9831883" lon="9.4424683"><ele>146.0</ele><time>2026-03-27T09:37:26.646Z</time></trkpt><trkpt lat="44.98303" lon="9.442405"><ele>146.0</ele><time>2026-03-27T09:37:27.646Z</time></trkpt><trkpt lat="44.9828733" lon="9.44234"><ele>146.0</ele><time>2026-03-27T09:37:28.648Z</time></trkpt><trkpt lat="44.9827167" lon="9.442275"><ele>146.0</ele><time>2026-03-27T09:37:29.646Z</time></trkpt><trkpt lat="44.9825583" lon="9.4422167"><ele>146.0</ele><time>2026-03-27T09:37:30.647Z</time></trkpt><trkpt lat="44.9823933" lon="9.4421767"><ele>146.0</ele><time>2026-03-27T09:37:31.646Z</time></trkpt><trkpt lat="44.982225" lon="9.4421583"><ele>146.33333333333331</ele><time>2026-03-27T09:37:32.647Z</time></trkpt><trkpt lat="44.9820467" lon="9.442155"><ele>146.66666666666666</ele><time>2026-03-27T09:37:33.646Z</time></trkpt><trkpt lat="44.9818683" lon="9.4421617"><ele>147.0</ele><time>2026-03-27T09:37:34.646Z</time></trkpt><trkpt lat="44.98169" lon="9.442175"><ele>146.66666666666666</ele><time>2026-03-27T09:37:35.647Z</time></trkpt><trkpt lat="44.9815167" lon="9.4421867"><ele>146.33333333333331</ele><time>2026-03-27T09:37:36.646Z</time></trkpt><trkpt lat="44.9813483" lon="9.44219"><ele>146.0</ele><time>2026-03-27T09:37:37.646Z</time></trkpt><trkpt lat="44.98118" lon="9.442195"><ele>146.0</ele><time>2026-03-27T09:37:38.647Z</time></trkpt><trkpt lat="44.9810117" lon="9.4422117"><ele>146.0</ele><time>2026-03-27T09:37:39.646Z</time></trkpt><trkpt lat="44.9808533" lon="9.4422533"><ele>146.0</ele><time>2026-03-27T09:37:40.646Z</time></trkpt><trkpt lat="44.9806983" lon="9.4423317"><ele>146.0</ele><time>2026-03-27T09:37:41.646Z</time></trkpt><trkpt lat="44.9805433" lon="9.4424333"><ele>146.0</ele><time>2026-03-27T09:37:42.648Z</time></trkpt><trkpt lat="44.9803833" lon="9.4425383"><ele>146.0</ele><time>2026-03-27T09:37:43.647Z</time></trkpt><trkpt lat="44.9802133" lon="9.4426267"><ele>146.0</ele><time>2026-03-27T09:37:44.647Z</time></trkpt><trkpt lat="44.9800283" lon="9.4426767"><ele>146.0</ele><time>2026-03-27T09:37:45.646Z</time></trkpt><trkpt lat="44.9798417" lon="9.44268"><ele>146.0</ele><time>2026-03-27T09:37:46.646Z</time></trkpt><trkpt lat="44.979655" lon="9.4426417"><ele>145.66666666666666</ele><time>2026-03-27T09:37:47.647Z</time></trkpt><trkpt lat="44.97947" lon="9.44258"><ele>145.33333333333334</ele><time>2026-03-27T09:37:48.646Z</time></trkpt><trkpt lat="44.979285" lon="9.4425183"><ele>145.0</ele><time>2026-03-27T09:37:49.649Z</time></trkpt><trkpt lat="44.9790983" lon="9.4424567"><ele>144.33333333333334</ele><time>2026-03-27T09:37:50.647Z</time></trkpt><trkpt lat="44.9789133" lon="9.4423917"><ele>143.66666666666666</ele><time>2026-03-27T09:37:51.648Z</time></trkpt><trkpt lat="44.97873" lon="9.4423267"><ele>143.0</ele><time>2026-03-27T09:37:52.646Z</time></trkpt><trkpt lat="44.9785483" lon="9.442255"><ele>143.0</ele><time>2026-03-27T09:37:53.647Z</time></trkpt><trkpt lat="44.9783667" lon="9.4421833"><ele>143.0</ele><time>2026-03-27T09:37:54.646Z</time></trkpt><trkpt lat="44.9781867" lon="9.4421083"><ele>143.0</ele><time>2026-03-27T09:37:55.647Z</time></trkpt><trkpt lat="44.978005" lon="9.4420333"><ele>143.33333333333331</ele><time>2026-03-27T09:37:56.647Z</time></trkpt><trkpt lat="44.9778217" lon="9.4419517"><ele>143.66666666666666</ele><time>2026-03-27T09:37:57.647Z</time></trkpt><trkpt lat="44.9776333" lon="9.4418633"><ele>144.0</ele><time>2026-03-27T09:37:58.645Z</time></trkpt><trkpt lat="44.977445" lon="9.4417683"><ele>143.0</ele><time>2026-03-27T09:37:59.647Z</time></trkpt><trkpt lat="44.9772583" lon="9.4416683"><ele>142.0</ele><time>2026-03-27T09:38:00.652Z</time></trkpt><trkpt lat="44.9770717" lon="9.44157"><ele>141.0</ele><time>2026-03-27T09:38:01.646Z</time></trkpt><trkpt lat="44.9768833" lon="9.4414733"><ele>141.0</ele><time>2026-03-27T09:38:02.655Z</time></trkpt><trkpt lat="44.9766933" lon="9.44138"><ele>141.0</ele><time>2026-03-27T09:38:03.646Z</time></trkpt><trkpt lat="44.9765083" lon="9.4412867"><ele>141.0</ele><time>2026-03-27T09:38:04.646Z</time></trkpt><trkpt lat="44.9763267" lon="9.4411933"><ele>141.33333333333334</ele><time>2026-03-27T09:38:05.646Z</time></trkpt><trkpt lat="44.9761483" lon="9.441105"><ele>141.66666666666669</ele><time>2026-03-27T09:38:06.646Z</time></trkpt><trkpt lat="44.9759717" lon="9.4410167"><ele>142.0</ele><time>2026-03-27T09:38:07.646Z</time></trkpt><trkpt lat="44.9757983" lon="9.4409267"><ele>142.33333333333334</ele><time>2026-03-27T09:38:08.647Z</time></trkpt><trkpt lat="44.9756267" lon="9.440835"><ele>142.66666666666666</ele><time>2026-03-27T09:38:09.649Z</time></trkpt><trkpt lat="44.975455" lon="9.4407367"><ele>143.0</ele><time>2026-03-27T09:38:10.646Z</time></trkpt><trkpt lat="44.975285" lon="9.4406433"><ele>143.0</ele><time>2026-03-27T09:38:11.646Z</time></trkpt><trkpt lat="44.975115" lon="9.4405483"><ele>143.0</ele><time>2026-03-27T09:38:12.646Z</time></trkpt><trkpt lat="44.974945" lon="9.4404533"><ele>143.0</ele><time>2026-03-27T09:38:13.647Z</time></trkpt><trkpt lat="44.9747767" lon="9.4403617"><ele>144.0</ele><time>2026-03-27T09:38:14.649Z</time></trkpt><trkpt lat="44.97461" lon="9.4402667"><ele>145.0</ele><time>2026-03-27T09:38:15.647Z</time></trkpt><trkpt lat="44.974445" lon="9.440165"><ele>146.0</ele><time>2026-03-27T09:38:16.646Z</time></trkpt><trkpt lat="44.9742783" lon="9.440055"><ele>146.0</ele><time>2026-03-27T09:38:17.646Z</time></trkpt><trkpt lat="44.97411" lon="9.4399367"><ele>146.0</ele><time>2026-03-27T09:38:18.646Z</time></trkpt><trkpt lat="44.9739383" lon="9.4398133"><ele>146.0</ele><time>2026-03-27T09:38:19.647Z</time></trkpt><trkpt lat="44.9737683" lon="9.439695"><ele>146.66666666666666</ele><time>2026-03-27T09:38:20.646Z</time></trkpt><trkpt lat="44.973595" lon="9.4395767"><ele>147.33333333333334</ele><time>2026-03-27T09:38:21.647Z</time></trkpt><trkpt lat="44.97342" lon="9.4394617"><ele>148.0</ele><time>2026-03-27T09:38:22.646Z</time></trkpt><trkpt lat="44.9732433" lon="9.4393483"><ele>148.0</ele><time>2026-03-27T09:38:23.65Z</time></trkpt><trkpt lat="44.97307" lon="9.4392367"><ele>148.0</ele><time>2026-03-27T09:38:24.646Z</time></trkpt><trkpt lat="44.9728967" lon="9.43913"><ele>148.0</ele><time>2026-03-27T09:38:25.646Z</time></trkpt><trkpt lat="44.972725" lon="9.4390267"><ele>148.0</ele><time>2026-03-27T09:38:26.646Z</time></trkpt><trkpt lat="44.9725483" lon="9.4389317"><ele>148.0</ele><time>2026-03-27T09:38:27.647Z</time></trkpt><trkpt lat="44.972375" lon="9.4388383"><ele>148.0</ele><time>2026-03-27T09:38:28.647Z</time></trkpt><trkpt lat="44.9722033" lon="9.4387483"><ele>148.33333333333334</ele><time>2026-03-27T09:38:29.646Z</time></trkpt><trkpt lat="44.9720317" lon="9.4386633"><ele>148.66666666666666</ele><time>2026-03-27T09:38:30.647Z</time></trkpt><trkpt lat="44.9718617" lon="9.4385833"><ele>149.0</ele><time>2026-03-27T09:38:31.649Z</time></trkpt><trkpt lat="44.9716883" lon="9.4385117"><ele>149.0</ele><time>2026-03-27T09:38:32.651Z</time></trkpt><trkpt lat="44.9715133" lon="9.438455"><ele>149.0</ele><time>2026-03-27T09:38:33.647Z</time></trkpt><trkpt lat="44.9713367" lon="9.4384067"><ele>149.0</ele><time>2026-03-27T09:38:34.647Z</time></trkpt><trkpt lat="44.9711583" lon="9.4383633"><ele>149.0</ele><time>2026-03-27T09:38:35.646Z</time></trkpt><trkpt lat="44.9709783" lon="9.43832"><ele>149.0</ele><time>2026-03-27T09:38:36.646Z</time></trkpt><trkpt lat="44.9707967" lon="9.4382783"><ele>149.0</ele><time>2026-03-27T09:38:37.647Z</time></trkpt><trkpt lat="44.9706133" lon="9.4382333"><ele>149.0</ele><time>2026-03-27T09:38:38.647Z</time></trkpt><trkpt lat="44.9704267" lon="9.43819"><ele>149.0</ele><time>2026-03-27T09:38:39.647Z</time></trkpt><trkpt lat="44.9702433" lon="9.4381483"><ele>149.0</ele><time>2026-03-27T09:38:40.647Z</time></trkpt><trkpt lat="44.9700567" lon="9.43811"><ele>149.66666666666666</ele><time>2026-03-27T09:38:41.647Z</time></trkpt><trkpt lat="44.9698717" lon="9.4380767"><ele>150.33333333333334</ele><time>2026-03-27T09:38:42.646Z</time></trkpt><trkpt lat="44.9696883" lon="9.4380483"><ele>151.0</ele><time>2026-03-27T09:38:43.647Z</time></trkpt><trkpt lat="44.9695017" lon="9.4380283"><ele>151.0</ele><time>2026-03-27T09:38:44.647Z</time></trkpt><trkpt lat="44.969315" lon="9.4380083"><ele>151.0</ele><time>2026-03-27T09:38:45.646Z</time></trkpt><trkpt lat="44.9691267" lon="9.4379883"><ele>151.0</ele><time>2026-03-27T09:38:46.647Z</time></trkpt><trkpt lat="44.9689367" lon="9.4379683"><ele>151.66666666666669</ele><time>2026-03-27T09:38:47.649Z</time></trkpt><trkpt lat="44.9687467" lon="9.4379517"><ele>152.33333333333334</ele><time>2026-03-27T09:38:48.648Z</time></trkpt><trkpt lat="44.968555" lon="9.437935"><ele>153.0</ele><time>2026-03-27T09:38:49.646Z</time></trkpt><trkpt lat="44.9683733" lon="9.4379233"><ele>153.0</ele><time>2026-03-27T09:38:50.646Z</time></trkpt><trkpt lat="44.9682017" lon="9.4379167"><ele>153.0</ele><time>2026-03-27T09:38:51.646Z</time></trkpt><trkpt lat="44.9680367" lon="9.437915"><ele>153.0</ele><time>2026-03-27T09:38:52.647Z</time></trkpt><trkpt lat="44.96787" lon="9.4379133"><ele>153.0</ele><time>2026-03-27T09:38:53.647Z</time></trkpt><trkpt lat="44.9677083" lon="9.4379117"><ele>153.0</ele><time>2026-03-27T09:38:54.647Z</time></trkpt><trkpt lat="44.967545" lon="9.4379083"><ele>153.0</ele><time>2026-03-27T09:38:55.647Z</time></trkpt><trkpt lat="44.9673783" lon="9.4379017"><ele>152.33333333333334</ele><time>2026-03-27T09:38:56.648Z</time></trkpt><trkpt lat="44.9672067" lon="9.4378967"><ele>151.66666666666669</ele><time>2026-03-27T09:38:57.647Z</time></trkpt><trkpt lat="44.9670417" lon="9.4378833"><ele>151.0</ele><time>2026-03-27T09:38:58.647Z</time></trkpt><trkpt lat="44.966875" lon="9.4378567"><ele>151.0</ele><time>2026-03-27T09:38:59.646Z</time></trkpt><trkpt lat="44.9667067" lon="9.4378167"><ele>151.0</ele><time>2026-03-27T09:39:00.648Z</time></trkpt><trkpt lat="44.9665467" lon="9.437775"><ele>151.0</ele><time>2026-03-27T09:39:01.646Z</time></trkpt><trkpt lat="44.9664" lon="9.4377333"><ele>151.2</ele><time>2026-03-27T09:39:02.646Z</time></trkpt><trkpt lat="44.9662683" lon="9.4376917"><ele>151.39999999999998</ele><time>2026-03-27T09:39:03.647Z</time></trkpt><trkpt lat="44.966155" lon="9.4376517"><ele>151.6</ele><time>2026-03-27T09:39:04.648Z</time></trkpt><trkpt lat="44.96607" lon="9.4376217"><ele>151.79999999999998</ele><time>2026-03-27T09:39:05.646Z</time></trkpt><trkpt lat="44.9660033" lon="9.4375967"><ele>152.0</ele><time>2026-03-27T09:39:06.65Z</time></trkpt><trkpt lat="44.9659167" lon="9.4375617"><ele>152.0</ele><time>2026-03-27T09:39:08.648Z</time></trkpt><trkpt lat="44.96585" lon="9.43755"><ele>152.0</ele><time>2026-03-27T09:39:13.647Z</time></trkpt><trkpt lat="44.965785" lon="9.437615"><ele>152.0</ele><time>2026-03-27T09:39:15.647Z</time></trkpt><trkpt lat="44.9657133" lon="9.4377817"><ele>152.0</ele><time>2026-03-27T09:39:17.647Z</time></trkpt><trkpt lat="44.9656617" lon="9.4378933"><ele>152.0</ele><time>2026-03-27T09:39:18.646Z</time></trkpt><trkpt lat="44.9655983" lon="9.438025"><ele>150.66666666666666</ele><time>2026-03-27T09:39:19.65Z</time></trkpt><trkpt lat="44.9655083" lon="9.4382"><ele>149.33333333333334</ele><time>2026-03-27T09:39:20.647Z</time></trkpt><trkpt lat="44.965415" lon="9.4383783"><ele>148.0</ele><time>2026-03-27T09:39:21.646Z</time></trkpt><trkpt lat="44.965315" lon="9.4385717"><ele>148.0</ele><time>2026-03-27T09:39:22.647Z</time></trkpt><trkpt lat="44.965205" lon="9.4387767"><ele>148.0</ele><time>2026-03-27T09:39:23.652Z</time></trkpt><trkpt lat="44.9650867" lon="9.4389917"><ele>148.0</ele><time>2026-03-27T09:39:24.647Z</time></trkpt><trkpt lat="44.9649667" lon="9.4392083"><ele>148.0</ele><time>2026-03-27T09:39:25.649Z</time></trkpt><trkpt lat="44.9648467" lon="9.4394217"><ele>148.0</ele><time>2026-03-27T09:39:26.648Z</time></trkpt><trkpt lat="44.96473" lon="9.4396367"><ele>148.0</ele><time>2026-03-27T09:39:27.646Z</time></trkpt><trkpt lat="44.964615" lon="9.43985"><ele>146.66666666666669</ele><time>2026-03-27T09:39:28.646Z</time></trkpt><trkpt lat="44.9645033" lon="9.440065"><ele>145.33333333333334</ele><time>2026-03-27T09:39:29.646Z</time></trkpt><trkpt lat="44.9643933" lon="9.4402783"><ele>144.0</ele><time>2026-03-27T09:39:30.647Z</time></trkpt><trkpt lat="44.9642833" lon="9.44049"><ele>144.33333333333334</ele><time>2026-03-27T09:39:31.651Z</time></trkpt><trkpt lat="44.964175" lon="9.4406983"><ele>144.66666666666669</ele><time>2026-03-27T09:39:32.647Z</time></trkpt><trkpt lat="44.9640617" lon="9.4409117"><ele>145.0</ele><time>2026-03-27T09:39:33.646Z</time></trkpt><trkpt lat="44.9639483" lon="9.4411217"><ele>145.0</ele><time>2026-03-27T09:39:34.646Z</time></trkpt><trkpt lat="44.9638333" lon="9.4413317"><ele>145.0</ele><time>2026-03-27T09:39:35.648Z</time></trkpt><trkpt lat="44.96372" lon="9.441545"><ele>145.0</ele><time>2026-03-27T09:39:36.646Z</time></trkpt><trkpt lat="44.9636133" lon="9.44175"><ele>145.0</ele><time>2026-03-27T09:39:37.647Z</time></trkpt><trkpt lat="44.963515" lon="9.4419483"><ele>145.0</ele><time>2026-03-27T09:39:38.649Z</time></trkpt><trkpt lat="44.9634383" lon="9.44216"><ele>145.0</ele><time>2026-03-27T09:39:39.648Z</time></trkpt><trkpt lat="44.963395" lon="9.442395"><ele>144.66666666666669</ele><time>2026-03-27T09:39:40.647Z</time></trkpt><trkpt lat="44.963385" lon="9.44265"><ele>144.33333333333334</ele><time>2026-03-27T09:39:41.648Z</time></trkpt><trkpt lat="44.9634083" lon="9.4429067"><ele>144.0</ele><time>2026-03-27T09:39:42.648Z</time></trkpt><trkpt lat="44.9634683" lon="9.443155"><ele>144.0</ele><time>2026-03-27T09:39:43.647Z</time></trkpt><trkpt lat="44.96355" lon="9.443395"><ele>144.0</ele><time>2026-03-27T09:39:44.649Z</time></trkpt><trkpt lat="44.9636383" lon="9.4436317"><ele>144.0</ele><time>2026-03-27T09:39:45.648Z</time></trkpt><trkpt lat="44.9637283" lon="9.4438667"><ele>144.33333333333334</ele><time>2026-03-27T09:39:46.648Z</time></trkpt><trkpt lat="44.963815" lon="9.4441017"><ele>144.66666666666669</ele><time>2026-03-27T09:39:47.649Z</time></trkpt><trkpt lat="44.9639" lon="9.4443367"><ele>145.0</ele><time>2026-03-27T09:39:48.648Z</time></trkpt><trkpt lat="44.9639833" lon="9.4445717"><ele>145.0</ele><time>2026-03-27T09:39:49.648Z</time></trkpt><trkpt lat="44.964065" lon="9.4448017"><ele>145.0</ele><time>2026-03-27T09:39:50.648Z</time></trkpt><trkpt lat="44.9641483" lon="9.445035"><ele>145.0</ele><time>2026-03-27T09:39:51.647Z</time></trkpt><trkpt lat="44.964235" lon="9.4452717"><ele>144.66666666666669</ele><time>2026-03-27T09:39:52.648Z</time></trkpt><trkpt lat="44.9643233" lon="9.44551"><ele>144.33333333333334</ele><time>2026-03-27T09:39:53.649Z</time></trkpt><trkpt lat="44.9644117" lon="9.4457517"><ele>144.0</ele><time>2026-03-27T09:39:54.648Z</time></trkpt><trkpt lat="44.964495" lon="9.4459933"><ele>144.0</ele><time>2026-03-27T09:39:55.648Z</time></trkpt><trkpt lat="44.9645817" lon="9.44624"><ele>144.0</ele><time>2026-03-27T09:39:56.65Z</time></trkpt><trkpt lat="44.96467" lon="9.446485"><ele>144.0</ele><time>2026-03-27T09:39:57.648Z</time></trkpt><trkpt lat="44.9647567" lon="9.4467267"><ele>144.0</ele><time>2026-03-27T09:39:58.648Z</time></trkpt><trkpt lat="44.9648417" lon="9.4469667"><ele>144.0</ele><time>2026-03-27T09:39:59.647Z</time></trkpt><trkpt lat="44.9649233" lon="9.4472017"><ele>144.0</ele><time>2026-03-27T09:40:00.648Z</time></trkpt><trkpt lat="44.9650067" lon="9.447435"><ele>143.66666666666666</ele><time>2026-03-27T09:40:01.647Z</time></trkpt><trkpt lat="44.9650867" lon="9.4476683"><ele>143.33333333333331</ele><time>2026-03-27T09:40:02.648Z</time></trkpt><trkpt lat="44.9651583" lon="9.44791"><ele>143.0</ele><time>2026-03-27T09:40:03.65Z</time></trkpt><trkpt lat="44.965215" lon="9.4481617"><ele>143.0</ele><time>2026-03-27T09:40:04.647Z</time></trkpt><trkpt lat="44.9652517" lon="9.4484217"><ele>143.0</ele><time>2026-03-27T09:40:05.647Z</time></trkpt><trkpt lat="44.965275" lon="9.4486883"><ele>143.0</ele><time>2026-03-27T09:40:06.649Z</time></trkpt><trkpt lat="44.9652917" lon="9.4489583"><ele>144.66666666666666</ele><time>2026-03-27T09:40:07.647Z</time></trkpt><trkpt lat="44.965305" lon="9.4492333"><ele>146.33333333333334</ele><time>2026-03-27T09:40:08.648Z</time></trkpt><trkpt lat="44.9653183" lon="9.4495117"><ele>148.0</ele><time>2026-03-27T09:40:09.648Z</time></trkpt><trkpt lat="44.965335" lon="9.44979"><ele>148.66666666666669</ele><time>2026-03-27T09:40:10.647Z</time></trkpt><trkpt lat="44.96535" lon="9.4500633"><ele>149.33333333333334</ele><time>2026-03-27T09:40:11.648Z</time></trkpt><trkpt lat="44.96537" lon="9.4503333"><ele>150.0</ele><time>2026-03-27T09:40:12.648Z</time></trkpt><trkpt lat="44.96539" lon="9.4506"><ele>152.0</ele><time>2026-03-27T09:40:13.649Z</time></trkpt><trkpt lat="44.96541" lon="9.4508667"><ele>154.0</ele><time>2026-03-27T09:40:14.647Z</time></trkpt><trkpt lat="44.9654267" lon="9.4511283"><ele>156.0</ele><time>2026-03-27T09:40:15.647Z</time></trkpt><trkpt lat="44.965445" lon="9.45138"><ele>158.0</ele><time>2026-03-27T09:40:16.647Z</time></trkpt><trkpt lat="44.9654733" lon="9.4516267"><ele>160.0</ele><time>2026-03-27T09:40:17.65Z</time></trkpt><trkpt lat="44.9655217" lon="9.4518567"><ele>162.0</ele><time>2026-03-27T09:40:18.647Z</time></trkpt><trkpt lat="44.9655883" lon="9.4520783"><ele>161.33333333333334</ele><time>2026-03-27T09:40:19.648Z</time></trkpt><trkpt lat="44.96568" lon="9.4522883"><ele>160.66666666666669</ele><time>2026-03-27T09:40:20.647Z</time></trkpt><trkpt lat="44.9657917" lon="9.4524767"><ele>160.0</ele><time>2026-03-27T09:40:21.648Z</time></trkpt><trkpt lat="44.9659117" lon="9.45265"><ele>160.0</ele><time>2026-03-27T09:40:22.647Z</time></trkpt><trkpt lat="44.96603" lon="9.45282"><ele>160.0</ele><time>2026-03-27T09:40:23.647Z</time></trkpt><trkpt lat="44.9661483" lon="9.4529933"><ele>160.0</ele><time>2026-03-27T09:40:24.648Z</time></trkpt><trkpt lat="44.966265" lon="9.4531667"><ele>162.66666666666669</ele><time>2026-03-27T09:40:25.647Z</time></trkpt><trkpt lat="44.966385" lon="9.45334"><ele>165.33333333333334</ele><time>2026-03-27T09:40:26.646Z</time></trkpt><trkpt lat="44.9665083" lon="9.4535133"><ele>168.0</ele><time>2026-03-27T09:40:27.649Z</time></trkpt><trkpt lat="44.9666283" lon="9.4536833"><ele>168.66666666666666</ele><time>2026-03-27T09:40:28.649Z</time></trkpt><trkpt lat="44.96674" lon="9.4538517"><ele>169.33333333333331</ele><time>2026-03-27T09:40:29.649Z</time></trkpt><trkpt lat="44.9668333" lon="9.4540317"><ele>170.0</ele><time>2026-03-27T09:40:30.648Z</time></trkpt><trkpt lat="44.966905" lon="9.4542333"><ele>170.0</ele><time>2026-03-27T09:40:31.646Z</time></trkpt><trkpt lat="44.9669483" lon="9.45446"><ele>170.0</ele><time>2026-03-27T09:40:32.647Z</time></trkpt><trkpt lat="44.9669567" lon="9.4547"><ele>170.0</ele><time>2026-03-27T09:40:33.648Z</time></trkpt><trkpt lat="44.96693" lon="9.4549333"><ele>172.0</ele><time>2026-03-27T09:40:34.647Z</time></trkpt><trkpt lat="44.9668667" lon="9.4551433"><ele>174.0</ele><time>2026-03-27T09:40:35.648Z</time></trkpt><trkpt lat="44.966775" lon="9.4553233"><ele>176.0</ele><time>2026-03-27T09:40:36.647Z</time></trkpt><trkpt lat="44.9666567" lon="9.455475"><ele>177.66666666666666</ele><time>2026-03-27T09:40:37.648Z</time></trkpt><trkpt lat="44.9665167" lon="9.4555933"><ele>179.33333333333334</ele><time>2026-03-27T09:40:38.647Z</time></trkpt><trkpt lat="44.96636" lon="9.4556633"><ele>181.0</ele><time>2026-03-27T09:40:39.648Z</time></trkpt><trkpt lat="44.9661883" lon="9.455695"><ele>181.0</ele><time>2026-03-27T09:40:40.647Z</time></trkpt><trkpt lat="44.9660117" lon="9.455715"><ele>181.0</ele><time>2026-03-27T09:40:41.647Z</time></trkpt><trkpt lat="44.9658333" lon="9.455735"><ele>181.0</ele><time>2026-03-27T09:40:42.649Z</time></trkpt><trkpt lat="44.9656483" lon="9.4557583"><ele>181.66666666666669</ele><time>2026-03-27T09:40:43.648Z</time></trkpt><trkpt lat="44.96547" lon="9.4557833"><ele>182.33333333333334</ele><time>2026-03-27T09:40:44.647Z</time></trkpt><trkpt lat="44.9652867" lon="9.4558083"><ele>183.0</ele><time>2026-03-27T09:40:45.646Z</time></trkpt><trkpt lat="44.9651033" lon="9.45584"><ele>184.33333333333334</ele><time>2026-03-27T09:40:46.647Z</time></trkpt><trkpt lat="44.96492" lon="9.455875"><ele>185.66666666666669</ele><time>2026-03-27T09:40:47.648Z</time></trkpt><trkpt lat="44.9647367" lon="9.4559083"><ele>187.0</ele><time>2026-03-27T09:40:48.649Z</time></trkpt><trkpt lat="44.964545" lon="9.4559433"><ele>187.0</ele><time>2026-03-27T09:40:49.65Z</time></trkpt><trkpt lat="44.9643533" lon="9.4559733"><ele>187.0</ele><time>2026-03-27T09:40:50.649Z</time></trkpt><trkpt lat="44.9641617" lon="9.4560033"><ele>187.0</ele><time>2026-03-27T09:40:51.65Z</time></trkpt><trkpt lat="44.9639717" lon="9.4560333"><ele>188.0</ele><time>2026-03-27T09:40:52.649Z</time></trkpt><trkpt lat="44.96378" lon="9.4560617"><ele>189.0</ele><time>2026-03-27T09:40:53.649Z</time></trkpt><trkpt lat="44.9635967" lon="9.4560867"><ele>190.0</ele><time>2026-03-27T09:40:54.65Z</time></trkpt><trkpt lat="44.9634167" lon="9.4561117"><ele>192.0</ele><time>2026-03-27T09:40:55.649Z</time></trkpt><trkpt lat="44.96324" lon="9.4561367"><ele>194.0</ele><time>2026-03-27T09:40:56.649Z</time></trkpt><trkpt lat="44.96306" lon="9.4561617"><ele>196.0</ele><time>2026-03-27T09:40:57.648Z</time></trkpt><trkpt lat="44.9628767" lon="9.4561917"><ele>196.0</ele><time>2026-03-27T09:40:58.649Z</time></trkpt><trkpt lat="44.9627" lon="9.456235"><ele>196.0</ele><time>2026-03-27T09:40:59.648Z</time></trkpt><trkpt lat="44.962525" lon="9.4563033"><ele>196.0</ele><time>2026-03-27T09:41:00.649Z</time></trkpt><trkpt lat="44.9623567" lon="9.456405"><ele>195.66666666666666</ele><time>2026-03-27T09:41:01.646Z</time></trkpt><trkpt lat="44.962195" lon="9.4565117"><ele>195.33333333333331</ele><time>2026-03-27T09:41:02.647Z</time></trkpt><trkpt lat="44.9620417" lon="9.4565983"><ele>195.0</ele><time>2026-03-27T09:41:03.646Z</time></trkpt><trkpt lat="44.9618833" lon="9.4566683"><ele>195.0</ele><time>2026-03-27T09:41:04.646Z</time></trkpt><trkpt lat="44.9617283" lon="9.4567117"><ele>195.0</ele><time>2026-03-27T09:41:05.646Z</time></trkpt><trkpt lat="44.9615717" lon="9.4567283"><ele>195.0</ele><time>2026-03-27T09:41:06.647Z</time></trkpt><trkpt lat="44.9614083" lon="9.456755"><ele>196.0</ele><time>2026-03-27T09:41:07.648Z</time></trkpt><trkpt lat="44.961245" lon="9.4568167"><ele>197.0</ele><time>2026-03-27T09:41:08.649Z</time></trkpt><trkpt lat="44.9610933" lon="9.4569117"><ele>198.0</ele><time>2026-03-27T09:41:09.65Z</time></trkpt><trkpt lat="44.96095" lon="9.4570033"><ele>198.5</ele><time>2026-03-27T09:41:10.651Z</time></trkpt><trkpt lat="44.96081" lon="9.4570617"><ele>199.0</ele><time>2026-03-27T09:41:11.649Z</time></trkpt><trkpt lat="44.9606633" lon="9.457085"><ele>199.5</ele><time>2026-03-27T09:41:12.648Z</time></trkpt><trkpt lat="44.9605117" lon="9.457065"><ele>200.0</ele><time>2026-03-27T09:41:13.646Z</time></trkpt><trkpt lat="44.9603567" lon="9.4570067"><ele>200.0</ele><time>2026-03-27T09:41:14.648Z</time></trkpt><trkpt lat="44.960195" lon="9.456925"><ele>200.0</ele><time>2026-03-27T09:41:15.647Z</time></trkpt><trkpt lat="44.9600267" lon="9.4568383"><ele>200.0</ele><time>2026-03-27T09:41:16.646Z</time></trkpt><trkpt lat="44.9598583" lon="9.4567567"><ele>198.0</ele><time>2026-03-27T09:41:17.647Z</time></trkpt><trkpt lat="44.95969" lon="9.456675"><ele>196.0</ele><time>2026-03-27T09:41:18.648Z</time></trkpt><trkpt lat="44.959525" lon="9.45658"><ele>194.0</ele><time>2026-03-27T09:41:19.646Z</time></trkpt><trkpt lat="44.9593733" lon="9.45649"><ele>194.0</ele><time>2026-03-27T09:41:20.647Z</time></trkpt><trkpt lat="44.95923" lon="9.4564217"><ele>194.0</ele><time>2026-03-27T09:41:21.656Z</time></trkpt><trkpt lat="44.9590917" lon="9.4563833"><ele>194.0</ele><time>2026-03-27T09:41:22.647Z</time></trkpt><trkpt lat="44.9589567" lon="9.4564217"><ele>194.0</ele><time>2026-03-27T09:41:23.647Z</time></trkpt><trkpt lat="44.958835" lon="9.4564817"><ele>192.75</ele><time>2026-03-27T09:41:24.647Z</time></trkpt><trkpt lat="44.9587383" lon="9.45659"><ele>191.5</ele><time>2026-03-27T09:41:25.646Z</time></trkpt><trkpt lat="44.9586733" lon="9.456725"><ele>190.25</ele><time>2026-03-27T09:41:26.649Z</time></trkpt><trkpt lat="44.9586183" lon="9.4568717"><ele>189.0</ele><time>2026-03-27T09:41:27.647Z</time></trkpt><trkpt lat="44.9585983" lon="9.45708"><ele>186.33333333333334</ele><time>2026-03-27T09:41:28.646Z</time></trkpt><trkpt lat="44.95859" lon="9.4573017"><ele>183.66666666666669</ele><time>2026-03-27T09:41:29.648Z</time></trkpt><trkpt lat="44.95858" lon="9.4575367"><ele>181.0</ele><time>2026-03-27T09:41:30.647Z</time></trkpt><trkpt lat="44.958565" lon="9.4577833"><ele>180.66666666666669</ele><time>2026-03-27T09:41:31.65Z</time></trkpt><trkpt lat="44.9585483" lon="9.4580483"><ele>180.33333333333334</ele><time>2026-03-27T09:41:32.651Z</time></trkpt><trkpt lat="44.9585317" lon="9.4583083"><ele>180.0</ele><time>2026-03-27T09:41:33.647Z</time></trkpt><trkpt lat="44.958515" lon="9.458565"><ele>181.0</ele><time>2026-03-27T09:41:34.647Z</time></trkpt><trkpt lat="44.958505" lon="9.4588183"><ele>182.0</ele><time>2026-03-27T09:41:35.648Z</time></trkpt><trkpt lat="44.9585167" lon="9.4590833"><ele>183.0</ele><time>2026-03-27T09:41:36.651Z</time></trkpt><trkpt lat="44.9585483" lon="9.4593217"><ele>183.0</ele><time>2026-03-27T09:41:37.646Z</time></trkpt><trkpt lat="44.9585967" lon="9.459555"><ele>183.0</ele><time>2026-03-27T09:41:38.649Z</time></trkpt><trkpt lat="44.958665" lon="9.4597783"><ele>183.0</ele><time>2026-03-27T09:41:39.649Z</time></trkpt><trkpt lat="44.95875" lon="9.4599917"><ele>186.0</ele><time>2026-03-27T09:41:40.647Z</time></trkpt><trkpt lat="44.95885" lon="9.46019"><ele>189.0</ele><time>2026-03-27T09:41:41.648Z</time></trkpt><trkpt lat="44.9589667" lon="9.4603717"><ele>192.0</ele><time>2026-03-27T09:41:42.647Z</time></trkpt><trkpt lat="44.959095" lon="9.46054"><ele>190.66666666666666</ele><time>2026-03-27T09:41:43.648Z</time></trkpt><trkpt lat="44.9592283" lon="9.4607083"><ele>189.33333333333331</ele><time>2026-03-27T09:41:44.648Z</time></trkpt><trkpt lat="44.95936" lon="9.4608783"><ele>188.0</ele><time>2026-03-27T09:41:45.647Z</time></trkpt><trkpt lat="44.9594967" lon="9.46105"><ele>188.0</ele><time>2026-03-27T09:41:46.647Z</time></trkpt><trkpt lat="44.9596283" lon="9.4612167"><ele>188.0</ele><time>2026-03-27T09:41:47.649Z</time></trkpt><trkpt lat="44.9597467" lon="9.4613733"><ele>188.0</ele><time>2026-03-27T09:41:48.647Z</time></trkpt><trkpt lat="44.959855" lon="9.461535"><ele>188.0</ele><time>2026-03-27T09:41:49.647Z</time></trkpt><trkpt lat="44.9599533" lon="9.461715"><ele>188.0</ele><time>2026-03-27T09:41:50.647Z</time></trkpt><trkpt lat="44.96003" lon="9.461925"><ele>188.0</ele><time>2026-03-27T09:41:51.648Z</time></trkpt><trkpt lat="44.9600783" lon="9.4621483"><ele>188.0</ele><time>2026-03-27T09:41:52.647Z</time></trkpt><trkpt lat="44.9600967" lon="9.4623733"><ele>188.0</ele><time>2026-03-27T09:41:53.647Z</time></trkpt><trkpt lat="44.9600967" lon="9.4625967"><ele>188.0</ele><time>2026-03-27T09:41:54.647Z</time></trkpt><trkpt lat="44.9600933" lon="9.4628183"><ele>190.75</ele><time>2026-03-27T09:41:55.65Z</time></trkpt><trkpt lat="44.960095" lon="9.46302"><ele>193.5</ele><time>2026-03-27T09:41:56.647Z</time></trkpt><trkpt lat="44.9600983" lon="9.463195"><ele>196.25</ele><time>2026-03-27T09:41:57.651Z</time></trkpt><trkpt lat="44.9601" lon="9.46335"><ele>199.0</ele><time>2026-03-27T09:41:58.647Z</time></trkpt><trkpt lat="44.9601033" lon="9.4634917"><ele>199.0</ele><time>2026-03-27T09:41:59.646Z</time></trkpt><trkpt lat="44.960115" lon="9.4636233"><ele>199.0</ele><time>2026-03-27T09:42:00.647Z</time></trkpt><trkpt lat="44.960135" lon="9.4637483"><ele>199.0</ele><time>2026-03-27T09:42:01.648Z</time></trkpt><trkpt lat="44.960175" lon="9.4638717"><ele>199.0</ele><time>2026-03-27T09:42:02.648Z</time></trkpt><trkpt lat="44.9602317" lon="9.463995"><ele>199.0</ele><time>2026-03-27T09:42:03.647Z</time></trkpt><trkpt lat="44.960305" lon="9.4641167"><ele>201.25</ele><time>2026-03-27T09:42:04.647Z</time></trkpt><trkpt lat="44.9603983" lon="9.4642283"><ele>203.5</ele><time>2026-03-27T09:42:05.65Z</time></trkpt><trkpt lat="44.9605067" lon="9.4643367"><ele>205.75</ele><time>2026-03-27T09:42:06.647Z</time></trkpt><trkpt lat="44.9606167" lon="9.46446"><ele>208.0</ele><time>2026-03-27T09:42:07.647Z</time></trkpt><trkpt lat="44.9607183" lon="9.46459"><ele>208.5</ele><time>2026-03-27T09:42:08.647Z</time></trkpt><trkpt lat="44.9608333" lon="9.4647167"><ele>209.0</ele><time>2026-03-27T09:42:09.648Z</time></trkpt><trkpt lat="44.9609533" lon="9.464835"><ele>209.5</ele><time>2026-03-27T09:42:10.648Z</time></trkpt><trkpt lat="44.9610717" lon="9.4649467"><ele>210.0</ele><time>2026-03-27T09:42:11.648Z</time></trkpt><trkpt lat="44.96118" lon="9.46506"><ele>210.0</ele><time>2026-03-27T09:42:12.647Z</time></trkpt><trkpt lat="44.9612717" lon="9.4651917"><ele>210.0</ele><time>2026-03-27T09:42:13.648Z</time></trkpt><trkpt lat="44.96135" lon="9.4653567"><ele>210.0</ele><time>2026-03-27T09:42:14.649Z</time></trkpt><trkpt lat="44.96141" lon="9.4655517"><ele>210.0</ele><time>2026-03-27T09:42:15.646Z</time></trkpt><trkpt lat="44.9614483" lon="9.4657717"><ele>210.33333333333331</ele><time>2026-03-27T09:42:16.646Z</time></trkpt><trkpt lat="44.9614717" lon="9.4660083"><ele>210.66666666666666</ele><time>2026-03-27T09:42:17.647Z</time></trkpt><trkpt lat="44.9614883" lon="9.4662583"><ele>211.0</ele><time>2026-03-27T09:42:18.646Z</time></trkpt><trkpt lat="44.9615067" lon="9.46651"><ele>211.0</ele><time>2026-03-27T09:42:19.647Z</time></trkpt><trkpt lat="44.9615283" lon="9.4667533"><ele>211.0</ele><time>2026-03-27T09:42:20.648Z</time></trkpt><trkpt lat="44.9615367" lon="9.466985"><ele>211.0</ele><time>2026-03-27T09:42:21.646Z</time></trkpt><trkpt lat="44.961525" lon="9.46721"><ele>210.33333333333331</ele><time>2026-03-27T09:42:22.646Z</time></trkpt><trkpt lat="44.9614867" lon="9.4674283"><ele>209.66666666666669</ele><time>2026-03-27T09:42:23.646Z</time></trkpt><trkpt lat="44.961425" lon="9.4676333"><ele>209.0</ele><time>2026-03-27T09:42:24.647Z</time></trkpt><trkpt lat="44.96134" lon="9.4678267"><ele>208.0</ele><time>2026-03-27T09:42:25.646Z</time></trkpt><trkpt lat="44.9612317" lon="9.4680117"><ele>207.0</ele><time>2026-03-27T09:42:26.647Z</time></trkpt><trkpt lat="44.9611083" lon="9.46819"><ele>206.0</ele><time>2026-03-27T09:42:27.646Z</time></trkpt><trkpt lat="44.9609833" lon="9.4683667"><ele>207.33333333333334</ele><time>2026-03-27T09:42:28.647Z</time></trkpt><trkpt lat="44.960855" lon="9.46855"><ele>208.66666666666669</ele><time>2026-03-27T09:42:29.647Z</time></trkpt><trkpt lat="44.9607333" lon="9.468735"><ele>210.0</ele><time>2026-03-27T09:42:30.647Z</time></trkpt><trkpt lat="44.96063" lon="9.4689167"><ele>210.0</ele><time>2026-03-27T09:42:31.649Z</time></trkpt><trkpt lat="44.9605417" lon="9.4691083"><ele>210.0</ele><time>2026-03-27T09:42:32.646Z</time></trkpt><trkpt lat="44.9604733" lon="9.4693117"><ele>210.0</ele><time>2026-03-27T09:42:33.648Z</time></trkpt><trkpt lat="44.9604217" lon="9.4695233"><ele>210.0</ele><time>2026-03-27T09:42:34.649Z</time></trkpt><trkpt lat="44.9603967" lon="9.4697467"><ele>210.0</ele><time>2026-03-27T09:42:35.647Z</time></trkpt><trkpt lat="44.9603983" lon="9.469985"><ele>210.0</ele><time>2026-03-27T09:42:36.649Z</time></trkpt><trkpt lat="44.96043" lon="9.47023"><ele>212.0</ele><time>2026-03-27T09:42:37.649Z</time></trkpt><trkpt lat="44.9604917" lon="9.470475"><ele>214.0</ele><time>2026-03-27T09:42:38.648Z</time></trkpt><trkpt lat="44.9605733" lon="9.47071"><ele>216.0</ele><time>2026-03-27T09:42:39.647Z</time></trkpt><trkpt lat="44.960665" lon="9.4709317"><ele>216.0</ele><time>2026-03-27T09:42:40.647Z</time></trkpt><trkpt lat="44.9607517" lon="9.4711317"><ele>216.0</ele><time>2026-03-27T09:42:41.65Z</time></trkpt><trkpt lat="44.9608267" lon="9.4713233"><ele>216.0</ele><time>2026-03-27T09:42:42.647Z</time></trkpt><trkpt lat="44.9608933" lon="9.471505"><ele>215.75</ele><time>2026-03-27T09:42:43.648Z</time></trkpt><trkpt lat="44.9609517" lon="9.471695"><ele>215.5</ele><time>2026-03-27T09:42:44.647Z</time></trkpt><trkpt lat="44.9609983" lon="9.47189"><ele>215.25</ele><time>2026-03-27T09:42:45.648Z</time></trkpt><trkpt lat="44.96103" lon="9.4720967"><ele>215.0</ele><time>2026-03-27T09:42:46.646Z</time></trkpt><trkpt lat="44.961045" lon="9.4723167"><ele>215.0</ele><time>2026-03-27T09:42:47.647Z</time></trkpt><trkpt lat="44.96104" lon="9.472545"><ele>215.0</ele><time>2026-03-27T09:42:48.646Z</time></trkpt><trkpt lat="44.96102" lon="9.4727817"><ele>215.0</ele><time>2026-03-27T09:42:49.646Z</time></trkpt><trkpt lat="44.9609833" lon="9.4730233"><ele>215.0</ele><time>2026-03-27T09:42:50.646Z</time></trkpt><trkpt lat="44.960935" lon="9.4732583"><ele>215.0</ele><time>2026-03-27T09:42:51.646Z</time></trkpt><trkpt lat="44.96087" lon="9.4734733"><ele>215.0</ele><time>2026-03-27T09:42:52.646Z</time></trkpt><trkpt lat="44.9607833" lon="9.473665"><ele>216.66666666666669</ele><time>2026-03-27T09:42:53.646Z</time></trkpt><trkpt lat="44.9606717" lon="9.4738383"><ele>218.33333333333331</ele><time>2026-03-27T09:42:54.647Z</time></trkpt><trkpt lat="44.960545" lon="9.47398"><ele>220.0</ele><time>2026-03-27T09:42:55.649Z</time></trkpt><trkpt lat="44.96039" lon="9.47407"><ele>220.0</ele><time>2026-03-27T09:42:56.649Z</time></trkpt><trkpt lat="44.9602183" lon="9.47411"><ele>220.0</ele><time>2026-03-27T09:42:57.648Z</time></trkpt><trkpt lat="44.9600467" lon="9.4741033"><ele>220.0</ele><time>2026-03-27T09:42:58.648Z</time></trkpt><trkpt lat="44.9598867" lon="9.474065"><ele>221.66666666666666</ele><time>2026-03-27T09:42:59.647Z</time></trkpt><trkpt lat="44.959735" lon="9.474015"><ele>223.33333333333331</ele><time>2026-03-27T09:43:00.649Z</time></trkpt><trkpt lat="44.9595867" lon="9.4739667"><ele>225.0</ele><time>2026-03-27T09:43:01.646Z</time></trkpt><trkpt lat="44.959445" lon="9.4739317"><ele>225.0</ele><time>2026-03-27T09:43:02.648Z</time></trkpt><trkpt lat="44.9592967" lon="9.47392"><ele>225.0</ele><time>2026-03-27T09:43:03.648Z</time></trkpt><trkpt lat="44.95916" lon="9.4739617"><ele>225.0</ele><time>2026-03-27T09:43:04.648Z</time></trkpt><trkpt lat="44.9590267" lon="9.474055"><ele>225.0</ele><time>2026-03-27T09:43:05.649Z</time></trkpt><trkpt lat="44.9589083" lon="9.474185"><ele>224.66666666666669</ele><time>2026-03-27T09:43:06.648Z</time></trkpt><trkpt lat="44.9588183" lon="9.4743533"><ele>224.33333333333334</ele><time>2026-03-27T09:43:07.648Z</time></trkpt><trkpt lat="44.9587517" lon="9.4745533"><ele>224.0</ele><time>2026-03-27T09:43:08.649Z</time></trkpt><trkpt lat="44.9586983" lon="9.4747667"><ele>224.0</ele><time>2026-03-27T09:43:09.647Z</time></trkpt><trkpt lat="44.95865" lon="9.4749917"><ele>224.0</ele><time>2026-03-27T09:43:10.647Z</time></trkpt><trkpt lat="44.9586067" lon="9.475215"><ele>224.0</ele><time>2026-03-27T09:43:11.648Z</time></trkpt><trkpt lat="44.958575" lon="9.475445"><ele>222.66666666666669</ele><time>2026-03-27T09:43:12.648Z</time></trkpt><trkpt lat="44.95857" lon="9.4756717"><ele>221.33333333333331</ele><time>2026-03-27T09:43:13.649Z</time></trkpt><trkpt lat="44.958595" lon="9.4758983"><ele>220.0</ele><time>2026-03-27T09:43:14.649Z</time></trkpt><trkpt lat="44.9586467" lon="9.4761117"><ele>221.33333333333331</ele><time>2026-03-27T09:43:15.648Z</time></trkpt><trkpt lat="44.9587167" lon="9.47631"><ele>222.66666666666669</ele><time>2026-03-27T09:43:16.647Z</time></trkpt><trkpt lat="44.9587967" lon="9.4765017"><ele>224.0</ele><time>2026-03-27T09:43:17.647Z</time></trkpt><trkpt lat="44.9588683" lon="9.47669"><ele>224.0</ele><time>2026-03-27T09:43:18.646Z</time></trkpt><trkpt lat="44.9589283" lon="9.4768717"><ele>224.0</ele><time>2026-03-27T09:43:19.648Z</time></trkpt><trkpt lat="44.958975" lon="9.477055"><ele>224.0</ele><time>2026-03-27T09:43:20.648Z</time></trkpt><trkpt lat="44.9590017" lon="9.4772517"><ele>224.0</ele><time>2026-03-27T09:43:21.646Z</time></trkpt><trkpt lat="44.9589967" lon="9.4774533"><ele>224.66666666666669</ele><time>2026-03-27T09:43:22.648Z</time></trkpt><trkpt lat="44.9589583" lon="9.4776483"><ele>225.33333333333331</ele><time>2026-03-27T09:43:23.646Z</time></trkpt><trkpt lat="44.9588867" lon="9.477845"><ele>226.0</ele><time>2026-03-27T09:43:24.647Z</time></trkpt><trkpt lat="44.9587983" lon="9.4780467"><ele>223.66666666666666</ele><time>2026-03-27T09:43:25.646Z</time></trkpt><trkpt lat="44.958705" lon="9.4782533"><ele>221.33333333333331</ele><time>2026-03-27T09:43:26.649Z</time></trkpt><trkpt lat="44.9586033" lon="9.4784617"><ele>219.0</ele><time>2026-03-27T09:43:27.648Z</time></trkpt><trkpt lat="44.9585" lon="9.478675"><ele>219.33333333333331</ele><time>2026-03-27T09:43:28.648Z</time></trkpt><trkpt lat="44.95839" lon="9.47889"><ele>219.66666666666666</ele><time>2026-03-27T09:43:29.647Z</time></trkpt><trkpt lat="44.9582783" lon="9.4791033"><ele>220.0</ele><time>2026-03-27T09:43:30.651Z</time></trkpt><trkpt lat="44.95817" lon="9.4793117"><ele>220.0</ele><time>2026-03-27T09:43:31.647Z</time></trkpt><trkpt lat="44.9580717" lon="9.4795083"><ele>220.0</ele><time>2026-03-27T09:43:32.648Z</time></trkpt><trkpt lat="44.957975" lon="9.4796933"><ele>220.0</ele><time>2026-03-27T09:43:33.647Z</time></trkpt><trkpt lat="44.9578683" lon="9.4798633"><ele>220.0</ele><time>2026-03-27T09:43:34.648Z</time></trkpt><trkpt lat="44.9577567" lon="9.48001"><ele>220.0</ele><time>2026-03-27T09:43:35.652Z</time></trkpt><trkpt lat="44.9576317" lon="9.4801333"><ele>220.0</ele><time>2026-03-27T09:43:36.65Z</time></trkpt><trkpt lat="44.9574883" lon="9.4802333"><ele>220.0</ele><time>2026-03-27T09:43:37.649Z</time></trkpt><trkpt lat="44.9573283" lon="9.480315"><ele>220.0</ele><time>2026-03-27T09:43:38.647Z</time></trkpt><trkpt lat="44.95716" lon="9.4803767"><ele>220.0</ele><time>2026-03-27T09:43:39.652Z</time></trkpt><trkpt lat="44.95699" lon="9.480415"><ele>217.33333333333331</ele><time>2026-03-27T09:43:40.646Z</time></trkpt><trkpt lat="44.956815" lon="9.4804433"><ele>214.66666666666669</ele><time>2026-03-27T09:43:41.648Z</time></trkpt><trkpt lat="44.9566417" lon="9.4804783"><ele>212.0</ele><time>2026-03-27T09:43:42.648Z</time></trkpt><trkpt lat="44.956475" lon="9.4805183"><ele>212.0</ele><time>2026-03-27T09:43:43.647Z</time></trkpt><trkpt lat="44.9563133" lon="9.4805517"><ele>212.0</ele><time>2026-03-27T09:43:44.648Z</time></trkpt><trkpt lat="44.9561583" lon="9.480575"><ele>212.0</ele><time>2026-03-27T09:43:45.646Z</time></trkpt><trkpt lat="44.9560083" lon="9.480605"><ele>212.5</ele><time>2026-03-27T09:43:46.647Z</time></trkpt><trkpt lat="44.9558633" lon="9.4806533"><ele>213.0</ele><time>2026-03-27T09:43:47.647Z</time></trkpt><trkpt lat="44.9557383" lon="9.4807467"><ele>213.5</ele><time>2026-03-27T09:43:48.647Z</time></trkpt><trkpt lat="44.955645" lon="9.4808917"><ele>214.0</ele><time>2026-03-27T09:43:49.65Z</time></trkpt><trkpt lat="44.9555867" lon="9.4810667"><ele>214.0</ele><time>2026-03-27T09:43:50.648Z</time></trkpt><trkpt lat="44.955565" lon="9.48125"><ele>214.0</ele><time>2026-03-27T09:43:51.647Z</time></trkpt><trkpt lat="44.955585" lon="9.4814433"><ele>214.0</ele><time>2026-03-27T09:43:52.647Z</time></trkpt><trkpt lat="44.95565" lon="9.4816333"><ele>214.0</ele><time>2026-03-27T09:43:53.648Z</time></trkpt><trkpt lat="44.95575" lon="9.481805"><ele>213.33333333333331</ele><time>2026-03-27T09:43:54.647Z</time></trkpt><trkpt lat="44.9558683" lon="9.4819567"><ele>212.66666666666669</ele><time>2026-03-27T09:43:55.647Z</time></trkpt><trkpt lat="44.95599" lon="9.4821017"><ele>212.0</ele><time>2026-03-27T09:43:56.65Z</time></trkpt><trkpt lat="44.9561083" lon="9.4822433"><ele>211.5</ele><time>2026-03-27T09:43:57.647Z</time></trkpt><trkpt lat="44.9562217" lon="9.4823883"><ele>211.0</ele><time>2026-03-27T09:43:58.646Z</time></trkpt><trkpt lat="44.9563233" lon="9.48254"><ele>210.5</ele><time>2026-03-27T09:43:59.647Z</time></trkpt><trkpt lat="44.956405" lon="9.4827017"><ele>210.0</ele><time>2026-03-27T09:44:00.648Z</time></trkpt><trkpt lat="44.9564517" lon="9.4828683"><ele>211.0</ele><time>2026-03-27T09:44:01.647Z</time></trkpt><trkpt lat="44.9564567" lon="9.4830467"><ele>212.0</ele><time>2026-03-27T09:44:02.647Z</time></trkpt><trkpt lat="44.9564267" lon="9.4832217"><ele>213.0</ele><time>2026-03-27T09:44:03.728Z</time></trkpt><trkpt lat="44.9563683" lon="9.483375"><ele>214.0</ele><time>2026-03-27T09:44:04.646Z</time></trkpt><trkpt lat="44.95628" lon="9.4834817"><ele>214.0</ele><time>2026-03-27T09:44:05.646Z</time></trkpt><trkpt lat="44.956165" lon="9.483555"><ele>214.0</ele><time>2026-03-27T09:44:06.646Z</time></trkpt><trkpt lat="44.956025" lon="9.4835817"><ele>214.0</ele><time>2026-03-27T09:44:07.648Z</time></trkpt><trkpt lat="44.9558667" lon="9.4835667"><ele>214.0</ele><time>2026-03-27T09:44:08.648Z</time></trkpt><trkpt lat="44.9557267" lon="9.4835467"><ele>214.25</ele><time>2026-03-27T09:44:09.646Z</time></trkpt><trkpt lat="44.9555883" lon="9.4835683"><ele>214.5</ele><time>2026-03-27T09:44:10.647Z</time></trkpt><trkpt lat="44.9554617" lon="9.483625"><ele>214.75</ele><time>2026-03-27T09:44:11.647Z</time></trkpt><trkpt lat="44.9553533" lon="9.48373"><ele>215.0</ele><time>2026-03-27T09:44:12.648Z</time></trkpt><trkpt lat="44.9552633" lon="9.4838683"><ele>215.0</ele><time>2026-03-27T09:44:13.725Z</time></trkpt><trkpt lat="44.9551917" lon="9.4840417"><ele>215.0</ele><time>2026-03-27T09:44:14.647Z</time></trkpt><trkpt lat="44.9551567" lon="9.48425"><ele>215.0</ele><time>2026-03-27T09:44:15.646Z</time></trkpt><trkpt lat="44.95515" lon="9.4844783"><ele>215.0</ele><time>2026-03-27T09:44:16.646Z</time></trkpt><trkpt lat="44.955155" lon="9.4847133"><ele>215.0</ele><time>2026-03-27T09:44:17.646Z</time></trkpt><trkpt lat="44.9551617" lon="9.4849383"><ele>215.0</ele><time>2026-03-27T09:44:18.647Z</time></trkpt><trkpt lat="44.9551617" lon="9.4851533"><ele>215.0</ele><time>2026-03-27T09:44:19.646Z</time></trkpt><trkpt lat="44.95516" lon="9.485365"><ele>215.0</ele><time>2026-03-27T09:44:20.647Z</time></trkpt><trkpt lat="44.9551617" lon="9.4855717"><ele>215.0</ele><time>2026-03-27T09:44:21.647Z</time></trkpt><trkpt lat="44.9551617" lon="9.4857783"><ele>215.0</ele><time>2026-03-27T09:44:22.648Z</time></trkpt><trkpt lat="44.9551633" lon="9.4859817"><ele>215.66666666666669</ele><time>2026-03-27T09:44:23.648Z</time></trkpt><trkpt lat="44.95516" lon="9.4861883"><ele>216.33333333333331</ele><time>2026-03-27T09:44:24.646Z</time></trkpt><trkpt lat="44.9551467" lon="9.4864017"><ele>217.0</ele><time>2026-03-27T09:44:25.647Z</time></trkpt><trkpt lat="44.9551233" lon="9.4866283"><ele>217.0</ele><time>2026-03-27T09:44:26.646Z</time></trkpt><trkpt lat="44.9550883" lon="9.4868717"><ele>217.0</ele><time>2026-03-27T09:44:27.647Z</time></trkpt><trkpt lat="44.9550567" lon="9.4871267"><ele>217.0</ele><time>2026-03-27T09:44:28.647Z</time></trkpt><trkpt lat="44.9550217" lon="9.4873833"><ele>221.33333333333331</ele><time>2026-03-27T09:44:29.647Z</time></trkpt><trkpt lat="44.954985" lon="9.487635"><ele>225.66666666666669</ele><time>2026-03-27T09:44:30.648Z</time></trkpt><trkpt lat="44.9549517" lon="9.48788"><ele>230.0</ele><time>2026-03-27T09:44:31.646Z</time></trkpt><trkpt lat="44.95492" lon="9.488115"><ele>230.33333333333334</ele><time>2026-03-27T09:44:32.648Z</time></trkpt><trkpt lat="44.9548867" lon="9.4883467"><ele>230.66666666666669</ele><time>2026-03-27T09:44:33.646Z</time></trkpt><trkpt lat="44.954855" lon="9.4885767"><ele>231.0</ele><time>2026-03-27T09:44:34.647Z</time></trkpt><trkpt lat="44.9548233" lon="9.4887883"><ele>229.25</ele><time>2026-03-27T09:44:35.646Z</time></trkpt><trkpt lat="44.9547833" lon="9.4889783"><ele>227.5</ele><time>2026-03-27T09:44:36.647Z</time></trkpt><trkpt lat="44.9547167" lon="9.4891567"><ele>225.75</ele><time>2026-03-27T09:44:37.646Z</time></trkpt><trkpt lat="44.9546183" lon="9.489325"><ele>224.0</ele><time>2026-03-27T09:44:38.648Z</time></trkpt><trkpt lat="44.954495" lon="9.4894767"><ele>222.0</ele><time>2026-03-27T09:44:39.648Z</time></trkpt><trkpt lat="44.9543583" lon="9.4896217"><ele>220.0</ele><time>2026-03-27T09:44:40.646Z</time></trkpt><trkpt lat="44.9542183" lon="9.4897733"><ele>218.0</ele><time>2026-03-27T09:44:41.649Z</time></trkpt><trkpt lat="44.9540933" lon="9.4899467"><ele>222.0</ele><time>2026-03-27T09:44:42.647Z</time></trkpt><trkpt lat="44.9539933" lon="9.490145"><ele>226.0</ele><time>2026-03-27T09:44:43.65Z</time></trkpt><trkpt lat="44.953905" lon="9.49035"><ele>230.0</ele><time>2026-03-27T09:44:44.648Z</time></trkpt><trkpt lat="44.9538167" lon="9.490535"><ele>230.0</ele><time>2026-03-27T09:44:45.647Z</time></trkpt><trkpt lat="44.9537133" lon="9.4906883"><ele>230.0</ele><time>2026-03-27T09:44:46.648Z</time></trkpt><trkpt lat="44.953595" lon="9.4908117"><ele>230.0</ele><time>2026-03-27T09:44:47.648Z</time></trkpt><trkpt lat="44.95346" lon="9.49091"><ele>230.0</ele><time>2026-03-27T09:44:48.647Z</time></trkpt><trkpt lat="44.9533133" lon="9.49099"><ele>231.0</ele><time>2026-03-27T09:44:49.646Z</time></trkpt><trkpt lat="44.9531667" lon="9.49107"><ele>232.0</ele><time>2026-03-27T09:44:50.647Z</time></trkpt><trkpt lat="44.953035" lon="9.4911767"><ele>233.0</ele><time>2026-03-27T09:44:51.647Z</time></trkpt><trkpt lat="44.9529283" lon="9.4913267"><ele>233.0</ele><time>2026-03-27T09:44:52.646Z</time></trkpt><trkpt lat="44.9528483" lon="9.4915183"><ele>233.0</ele><time>2026-03-27T09:44:53.646Z</time></trkpt><trkpt lat="44.95279" lon="9.491745"><ele>233.0</ele><time>2026-03-27T09:44:54.647Z</time></trkpt><trkpt lat="44.9527567" lon="9.4919933"><ele>232.0</ele><time>2026-03-27T09:44:55.648Z</time></trkpt><trkpt lat="44.9527383" lon="9.4922367"><ele>231.0</ele><time>2026-03-27T09:44:56.648Z</time></trkpt><trkpt lat="44.9527183" lon="9.4924583"><ele>230.0</ele><time>2026-03-27T09:44:57.647Z</time></trkpt><trkpt lat="44.9527" lon="9.4926567"><ele>230.0</ele><time>2026-03-27T09:44:58.646Z</time></trkpt><trkpt lat="44.95267" lon="9.492845"><ele>230.0</ele><time>2026-03-27T09:44:59.647Z</time></trkpt><trkpt lat="44.95263" lon="9.4930333"><ele>230.0</ele><time>2026-03-27T09:45:00.646Z</time></trkpt><trkpt lat="44.9525717" lon="9.4932233"><ele>230.0</ele><time>2026-03-27T09:45:01.647Z</time></trkpt><trkpt lat="44.9524917" lon="9.4934117"><ele>232.66666666666669</ele><time>2026-03-27T09:45:02.647Z</time></trkpt><trkpt lat="44.9524" lon="9.4935983"><ele>235.33333333333331</ele><time>2026-03-27T09:45:03.646Z</time></trkpt><trkpt lat="44.9522967" lon="9.4937817"><ele>238.0</ele><time>2026-03-27T09:45:04.648Z</time></trkpt><trkpt lat="44.9521933" lon="9.4939717"><ele>238.0</ele><time>2026-03-27T09:45:05.646Z</time></trkpt><trkpt lat="44.9520933" lon="9.4941683"><ele>238.0</ele><time>2026-03-27T09:45:06.646Z</time></trkpt><trkpt lat="44.9519983" lon="9.4943567"><ele>238.0</ele><time>2026-03-27T09:45:07.647Z</time></trkpt><trkpt lat="44.9519017" lon="9.494515"><ele>237.75</ele><time>2026-03-27T09:45:08.649Z</time></trkpt><trkpt lat="44.9518" lon="9.4946333"><ele>237.5</ele><time>2026-03-27T09:45:09.648Z</time></trkpt><trkpt lat="44.9516883" lon="9.49471"><ele>237.25</ele><time>2026-03-27T09:45:10.647Z</time></trkpt><trkpt lat="44.9515583" lon="9.4947433"><ele>237.0</ele><time>2026-03-27T09:45:11.646Z</time></trkpt><trkpt lat="44.951415" lon="9.4947333"><ele>240.33333333333331</ele><time>2026-03-27T09:45:12.647Z</time></trkpt><trkpt lat="44.9512633" lon="9.4946983"><ele>243.66666666666666</ele><time>2026-03-27T09:45:13.646Z</time></trkpt><trkpt lat="44.951105" lon="9.4946417"><ele>247.0</ele><time>2026-03-27T09:45:14.648Z</time></trkpt><trkpt lat="44.9509383" lon="9.4945983"><ele>251.33333333333331</ele><time>2026-03-27T09:45:15.646Z</time></trkpt><trkpt lat="44.95077" lon="9.4945683"><ele>255.66666666666669</ele><time>2026-03-27T09:45:16.647Z</time></trkpt><trkpt lat="44.950595" lon="9.494545"><ele>260.0</ele><time>2026-03-27T09:45:17.647Z</time></trkpt><trkpt lat="44.9504167" lon="9.4945217"><ele>260.0</ele><time>2026-03-27T09:45:18.648Z</time></trkpt><trkpt lat="44.9502367" lon="9.4944983"><ele>260.0</ele><time>2026-03-27T09:45:19.648Z</time></trkpt><trkpt lat="44.950055" lon="9.4944717"><ele>260.0</ele><time>2026-03-27T09:45:20.648Z</time></trkpt><trkpt lat="44.949875" lon="9.4944467"><ele>259.6666666666667</ele><time>2026-03-27T09:45:21.647Z</time></trkpt><trkpt lat="44.9497017" lon="9.49442"><ele>259.3333333333333</ele><time>2026-03-27T09:45:22.647Z</time></trkpt><trkpt lat="44.9495267" lon="9.4943967"><ele>259.0</ele><time>2026-03-27T09:45:23.647Z</time></trkpt><trkpt lat="44.9493483" lon="9.494375"><ele>258.3333333333333</ele><time>2026-03-27T09:45:24.646Z</time></trkpt><trkpt lat="44.9491717" lon="9.4943467"><ele>257.6666666666667</ele><time>2026-03-27T09:45:25.65Z</time></trkpt><trkpt lat="44.9490017" lon="9.4943"><ele>257.0</ele><time>2026-03-27T09:45:26.648Z</time></trkpt><trkpt lat="44.9488433" lon="9.4942367"><ele>257.0</ele><time>2026-03-27T09:45:27.647Z</time></trkpt><trkpt lat="44.9486917" lon="9.494155"><ele>257.0</ele><time>2026-03-27T09:45:28.646Z</time></trkpt><trkpt lat="44.9485533" lon="9.4940817"><ele>257.0</ele><time>2026-03-27T09:45:29.646Z</time></trkpt><trkpt lat="44.948415" lon="9.4940267"><ele>256.33333333333337</ele><time>2026-03-27T09:45:30.647Z</time></trkpt><trkpt lat="44.948265" lon="9.49403"><ele>255.66666666666669</ele><time>2026-03-27T09:45:31.647Z</time></trkpt><trkpt lat="44.9481183" lon="9.4941033"><ele>255.0</ele><time>2026-03-27T09:45:32.647Z</time></trkpt><trkpt lat="44.94799" lon="9.4942283"><ele>255.0</ele><time>2026-03-27T09:45:33.649Z</time></trkpt><trkpt lat="44.9479" lon="9.4943917"><ele>255.0</ele><time>2026-03-27T09:45:34.646Z</time></trkpt><trkpt lat="44.947845" lon="9.494575"><ele>255.0</ele><time>2026-03-27T09:45:35.649Z</time></trkpt><trkpt lat="44.9478217" lon="9.4947683"><ele>255.0</ele><time>2026-03-27T09:45:36.646Z</time></trkpt><trkpt lat="44.94783" lon="9.4949767"><ele>252.66666666666669</ele><time>2026-03-27T09:45:37.648Z</time></trkpt><trkpt lat="44.94785" lon="9.4951867"><ele>250.33333333333334</ele><time>2026-03-27T09:45:38.649Z</time></trkpt><trkpt lat="44.9478783" lon="9.4953967"><ele>248.0</ele><time>2026-03-27T09:45:39.646Z</time></trkpt><trkpt lat="44.94791" lon="9.4956083"><ele>247.33333333333334</ele><time>2026-03-27T09:45:40.647Z</time></trkpt><trkpt lat="44.947945" lon="9.49582"><ele>246.66666666666669</ele><time>2026-03-27T09:45:41.648Z</time></trkpt><trkpt lat="44.9479767" lon="9.4960333"><ele>246.0</ele><time>2026-03-27T09:45:42.647Z</time></trkpt><trkpt lat="44.948005" lon="9.4962517"><ele>246.66666666666669</ele><time>2026-03-27T09:45:43.646Z</time></trkpt><trkpt lat="44.948035" lon="9.496475"><ele>247.33333333333334</ele><time>2026-03-27T09:45:44.648Z</time></trkpt><trkpt lat="44.9480633" lon="9.4967017"><ele>248.0</ele><time>2026-03-27T09:45:45.646Z</time></trkpt><trkpt lat="44.9480983" lon="9.4969317"><ele>249.33333333333334</ele><time>2026-03-27T09:45:46.647Z</time></trkpt><trkpt lat="44.9481467" lon="9.497155"><ele>250.66666666666669</ele><time>2026-03-27T09:45:47.647Z</time></trkpt><trkpt lat="44.9482183" lon="9.49737"><ele>252.0</ele><time>2026-03-27T09:45:48.646Z</time></trkpt><trkpt lat="44.9483067" lon="9.497565"><ele>248.0</ele><time>2026-03-27T09:45:49.647Z</time></trkpt><trkpt lat="44.9483983" lon="9.4977483"><ele>244.0</ele><time>2026-03-27T09:45:50.647Z</time></trkpt><trkpt lat="44.9484833" lon="9.4979433"><ele>240.0</ele><time>2026-03-27T09:45:51.646Z</time></trkpt><trkpt lat="44.9485467" lon="9.4981583"><ele>240.0</ele><time>2026-03-27T09:45:52.646Z</time></trkpt><trkpt lat="44.9485833" lon="9.498385"><ele>240.0</ele><time>2026-03-27T09:45:53.646Z</time></trkpt><trkpt lat="44.9486" lon="9.498615"><ele>240.0</ele><time>2026-03-27T09:45:54.648Z</time></trkpt><trkpt lat="44.948605" lon="9.4988417"><ele>240.66666666666669</ele><time>2026-03-27T09:45:55.645Z</time></trkpt><trkpt lat="44.9485917" lon="9.4990667"><ele>241.33333333333334</ele><time>2026-03-27T09:45:56.647Z</time></trkpt><trkpt lat="44.9485783" lon="9.4992883"><ele>242.0</ele><time>2026-03-27T09:45:57.648Z</time></trkpt><trkpt lat="44.9485833" lon="9.499515"><ele>243.0</ele><time>2026-03-27T09:45:58.647Z</time></trkpt><trkpt lat="44.9486117" lon="9.49974"><ele>244.0</ele><time>2026-03-27T09:45:59.646Z</time></trkpt><trkpt lat="44.9486583" lon="9.4999633"><ele>245.0</ele><time>2026-03-27T09:46:00.646Z</time></trkpt><trkpt lat="44.94871" lon="9.5001883"><ele>245.0</ele><time>2026-03-27T09:46:01.651Z</time></trkpt><trkpt lat="44.9487583" lon="9.5004133"><ele>245.0</ele><time>2026-03-27T09:46:02.647Z</time></trkpt><trkpt lat="44.9488017" lon="9.5006333"><ele>245.0</ele><time>2026-03-27T09:46:03.65Z</time></trkpt><trkpt lat="44.9488483" lon="9.5008517"><ele>245.33333333333334</ele><time>2026-03-27T09:46:04.647Z</time></trkpt><trkpt lat="44.9489017" lon="9.50107"><ele>245.66666666666669</ele><time>2026-03-27T09:46:05.646Z</time></trkpt><trkpt lat="44.9489517" lon="9.5012817"><ele>246.0</ele><time>2026-03-27T09:46:06.648Z</time></trkpt><trkpt lat="44.9489983" lon="9.5014817"><ele>245.25</ele><time>2026-03-27T09:46:07.647Z</time></trkpt><trkpt lat="44.94904" lon="9.50167"><ele>244.5</ele><time>2026-03-27T09:46:08.647Z</time></trkpt><trkpt lat="44.9490783" lon="9.50186"><ele>243.75</ele><time>2026-03-27T09:46:09.648Z</time></trkpt><trkpt lat="44.9491017" lon="9.5020617"><ele>243.0</ele><time>2026-03-27T09:46:10.646Z</time></trkpt><trkpt lat="44.9491033" lon="9.5022833"><ele>242.33333333333331</ele><time>2026-03-27T09:46:11.648Z</time></trkpt><trkpt lat="44.9490833" lon="9.50251"><ele>241.66666666666666</ele><time>2026-03-27T09:46:12.647Z</time></trkpt><trkpt lat="44.949045" lon="9.5027383"><ele>241.0</ele><time>2026-03-27T09:46:13.648Z</time></trkpt><trkpt lat="44.9489833" lon="9.5029617"><ele>239.66666666666666</ele><time>2026-03-27T09:46:14.647Z</time></trkpt><trkpt lat="44.9488883" lon="9.50317"><ele>238.33333333333331</ele><time>2026-03-27T09:46:15.647Z</time></trkpt><trkpt lat="44.9487633" lon="9.5033583"><ele>237.0</ele><time>2026-03-27T09:46:16.648Z</time></trkpt><trkpt lat="44.94862" lon="9.5035267"><ele>237.0</ele><time>2026-03-27T09:46:17.646Z</time></trkpt><trkpt lat="44.9484683" lon="9.5036767"><ele>237.0</ele><time>2026-03-27T09:46:18.648Z</time></trkpt><trkpt lat="44.9483183" lon="9.5038167"><ele>237.0</ele><time>2026-03-27T09:46:19.646Z</time></trkpt><trkpt lat="44.948165" lon="9.50396"><ele>237.0</ele><time>2026-03-27T09:46:20.648Z</time></trkpt><trkpt lat="44.9480033" lon="9.5041117"><ele>237.0</ele><time>2026-03-27T09:46:21.647Z</time></trkpt><trkpt lat="44.9478433" lon="9.5042667"><ele>237.0</ele><time>2026-03-27T09:46:22.646Z</time></trkpt><trkpt lat="44.9476833" lon="9.504425"><ele>238.0</ele><time>2026-03-27T09:46:23.647Z</time></trkpt><trkpt lat="44.9475233" lon="9.5045733"><ele>239.0</ele><time>2026-03-27T09:46:24.646Z</time></trkpt><trkpt lat="44.9473567" lon="9.50471"><ele>240.0</ele><time>2026-03-27T09:46:25.647Z</time></trkpt><trkpt lat="44.947185" lon="9.5048317"><ele>239.33333333333331</ele><time>2026-03-27T09:46:26.647Z</time></trkpt><trkpt lat="44.9470133" lon="9.5049417"><ele>238.66666666666666</ele><time>2026-03-27T09:46:27.647Z</time></trkpt><trkpt lat="44.946845" lon="9.50505"><ele>238.0</ele><time>2026-03-27T09:46:28.646Z</time></trkpt><trkpt lat="44.946685" lon="9.5051717"><ele>238.0</ele><time>2026-03-27T09:46:29.646Z</time></trkpt><trkpt lat="44.946535" lon="9.5053"><ele>238.0</ele><time>2026-03-27T09:46:30.646Z</time></trkpt><trkpt lat="44.94639" lon="9.5054367"><ele>238.0</ele><time>2026-03-27T09:46:31.646Z</time></trkpt><trkpt lat="44.946245" lon="9.5055783"><ele>237.0</ele><time>2026-03-27T09:46:32.648Z</time></trkpt><trkpt lat="44.9461017" lon="9.505725"><ele>236.0</ele><time>2026-03-27T09:46:33.647Z</time></trkpt><trkpt lat="44.9459733" lon="9.5058783"><ele>235.0</ele><time>2026-03-27T09:46:34.646Z</time></trkpt><trkpt lat="44.94586" lon="9.506045"><ele>235.0</ele><time>2026-03-27T09:46:35.646Z</time></trkpt><trkpt lat="44.9457583" lon="9.5062283"><ele>235.0</ele><time>2026-03-27T09:46:36.647Z</time></trkpt><trkpt lat="44.9456717" lon="9.5064267"><ele>235.0</ele><time>2026-03-27T09:46:37.648Z</time></trkpt><trkpt lat="44.9456167" lon="9.5066467"><ele>234.66666666666666</ele><time>2026-03-27T09:46:38.647Z</time></trkpt><trkpt lat="44.9456083" lon="9.506885"><ele>234.33333333333331</ele><time>2026-03-27T09:46:39.647Z</time></trkpt><trkpt lat="44.9456333" lon="9.5071233"><ele>234.0</ele><time>2026-03-27T09:46:40.647Z</time></trkpt><trkpt lat="44.9456683" lon="9.507345"><ele>232.33333333333331</ele><time>2026-03-27T09:46:41.647Z</time></trkpt><trkpt lat="44.9457" lon="9.507555"><ele>230.66666666666666</ele><time>2026-03-27T09:46:42.65Z</time></trkpt><trkpt lat="44.94573" lon="9.5077667"><ele>229.0</ele><time>2026-03-27T09:46:43.646Z</time></trkpt><trkpt lat="44.9457583" lon="9.5079833"><ele>229.0</ele><time>2026-03-27T09:46:44.647Z</time></trkpt><trkpt lat="44.9457883" lon="9.50819"><ele>229.0</ele><time>2026-03-27T09:46:45.647Z</time></trkpt><trkpt lat="44.94582" lon="9.508385"><ele>229.0</ele><time>2026-03-27T09:46:46.647Z</time></trkpt><trkpt lat="44.945845" lon="9.5085783"><ele>229.0</ele><time>2026-03-27T09:46:47.647Z</time></trkpt><trkpt lat="44.9458583" lon="9.50878"><ele>228.75</ele><time>2026-03-27T09:46:48.647Z</time></trkpt><trkpt lat="44.94585" lon="9.5089883"><ele>228.5</ele><time>2026-03-27T09:46:49.647Z</time></trkpt><trkpt lat="44.9458117" lon="9.50919"><ele>228.25</ele><time>2026-03-27T09:46:50.65Z</time></trkpt><trkpt lat="44.9457483" lon="9.5093867"><ele>228.0</ele><time>2026-03-27T09:46:51.647Z</time></trkpt><trkpt lat="44.9456517" lon="9.509565"><ele>225.66666666666669</ele><time>2026-03-27T09:46:52.647Z</time></trkpt><trkpt lat="44.94554" lon="9.5097267"><ele>223.33333333333334</ele><time>2026-03-27T09:46:53.649Z</time></trkpt><trkpt lat="44.94542" lon="9.5098783"><ele>221.0</ele><time>2026-03-27T09:46:54.648Z</time></trkpt><trkpt lat="44.9453017" lon="9.5100317"><ele>221.0</ele><time>2026-03-27T09:46:55.647Z</time></trkpt><trkpt lat="44.94518" lon="9.5101867"><ele>221.0</ele><time>2026-03-27T09:46:56.647Z</time></trkpt><trkpt lat="44.9450617" lon="9.51034"><ele>221.0</ele><time>2026-03-27T09:46:57.647Z</time></trkpt><trkpt lat="44.94494" lon="9.5104933"><ele>220.33333333333334</ele><time>2026-03-27T09:46:58.649Z</time></trkpt><trkpt lat="44.94482" lon="9.5106433"><ele>219.66666666666669</ele><time>2026-03-27T09:46:59.649Z</time></trkpt><trkpt lat="44.9446983" lon="9.5107917"><ele>219.0</ele><time>2026-03-27T09:47:00.649Z</time></trkpt><trkpt lat="44.9445767" lon="9.5109433"><ele>219.0</ele><time>2026-03-27T09:47:01.648Z</time></trkpt><trkpt lat="44.9444567" lon="9.51109"><ele>219.0</ele><time>2026-03-27T09:47:02.648Z</time></trkpt><trkpt lat="44.944335" lon="9.5112383"><ele>219.0</ele><time>2026-03-27T09:47:03.65Z</time></trkpt><trkpt lat="44.94421" lon="9.51139"><ele>218.66666666666669</ele><time>2026-03-27T09:47:04.649Z</time></trkpt><trkpt lat="44.9440867" lon="9.51154"><ele>218.33333333333334</ele><time>2026-03-27T09:47:05.648Z</time></trkpt><trkpt lat="44.9439683" lon="9.5116883"><ele>218.0</ele><time>2026-03-27T09:47:06.651Z</time></trkpt><trkpt lat="44.9438667" lon="9.5118483"><ele>218.0</ele><time>2026-03-27T09:47:07.649Z</time></trkpt><trkpt lat="44.94379" lon="9.5120283"><ele>218.0</ele><time>2026-03-27T09:47:08.648Z</time></trkpt><trkpt lat="44.9437533" lon="9.5122183"><ele>218.0</ele><time>2026-03-27T09:47:09.65Z</time></trkpt><trkpt lat="44.9437483" lon="9.512415"><ele>218.0</ele><time>2026-03-27T09:47:10.649Z</time></trkpt><trkpt lat="44.9437633" lon="9.5126133"><ele>216.0</ele><time>2026-03-27T09:47:11.648Z</time></trkpt><trkpt lat="44.9437883" lon="9.512815"><ele>214.0</ele><time>2026-03-27T09:47:12.648Z</time></trkpt><trkpt lat="44.9438183" lon="9.5130217"><ele>212.0</ele><time>2026-03-27T09:47:13.648Z</time></trkpt><trkpt lat="44.9438483" lon="9.5132267"><ele>210.0</ele><time>2026-03-27T09:47:14.648Z</time></trkpt><trkpt lat="44.9438767" lon="9.5134333"><ele>209.5</ele><time>2026-03-27T09:47:15.651Z</time></trkpt><trkpt lat="44.9439017" lon="9.513645"><ele>209.0</ele><time>2026-03-27T09:47:16.649Z</time></trkpt><trkpt lat="44.9439233" lon="9.51385"><ele>208.5</ele><time>2026-03-27T09:47:17.648Z</time></trkpt><trkpt lat="44.9439483" lon="9.514045"><ele>208.0</ele><time>2026-03-27T09:47:18.649Z</time></trkpt><trkpt lat="44.9439733" lon="9.5142317"><ele>208.0</ele><time>2026-03-27T09:47:19.649Z</time></trkpt><trkpt lat="44.9439967" lon="9.5144067"><ele>208.0</ele><time>2026-03-27T09:47:20.649Z</time></trkpt><trkpt lat="44.9440217" lon="9.5145717"><ele>208.0</ele><time>2026-03-27T09:47:21.648Z</time></trkpt><trkpt lat="44.9440483" lon="9.5147267"><ele>208.0</ele><time>2026-03-27T09:47:22.648Z</time></trkpt><trkpt lat="44.944085" lon="9.5148767"><ele>208.0</ele><time>2026-03-27T09:47:23.648Z</time></trkpt><trkpt lat="44.9441367" lon="9.515015"><ele>208.0</ele><time>2026-03-27T09:47:24.648Z</time></trkpt><trkpt lat="44.9442" lon="9.51514"><ele>208.0</ele><time>2026-03-27T09:47:25.648Z</time></trkpt><trkpt lat="44.9442667" lon="9.5152567"><ele>208.0</ele><time>2026-03-27T09:47:26.649Z</time></trkpt><trkpt lat="44.9443233" lon="9.515365"><ele>208.0</ele><time>2026-03-27T09:47:27.648Z</time></trkpt><trkpt lat="44.9443667" lon="9.5154567"><ele>207.66666666666666</ele><time>2026-03-27T09:47:28.648Z</time></trkpt><trkpt lat="44.9443917" lon="9.515545"><ele>207.33333333333331</ele><time>2026-03-27T09:47:29.649Z</time></trkpt><trkpt lat="44.9443667" lon="9.515665"><ele>207.0</ele><time>2026-03-27T09:47:31.649Z</time></trkpt><trkpt lat="44.944295" lon="9.515725"><ele>206.66666666666669</ele><time>2026-03-27T09:47:33.647Z</time></trkpt><trkpt lat="44.94419" lon="9.5157517"><ele>206.33333333333334</ele><time>2026-03-27T09:47:35.651Z</time></trkpt><trkpt lat="44.944115" lon="9.5157633"><ele>206.0</ele><time>2026-03-27T09:47:36.647Z</time></trkpt><trkpt lat="44.944025" lon="9.5157783"><ele>206.0</ele><time>2026-03-27T09:47:37.646Z</time></trkpt><trkpt lat="44.9439317" lon="9.5157983"><ele>206.0</ele><time>2026-03-27T09:47:38.647Z</time></trkpt><trkpt lat="44.9438283" lon="9.51581"><ele>206.0</ele><time>2026-03-27T09:47:39.65Z</time></trkpt><trkpt lat="44.943715" lon="9.5158133"><ele>206.0</ele><time>2026-03-27T09:47:40.647Z</time></trkpt><trkpt lat="44.9436033" lon="9.5158133"><ele>206.0</ele><time>2026-03-27T09:47:41.647Z</time></trkpt><trkpt lat="44.9434917" lon="9.5157967"><ele>207.0</ele><time>2026-03-27T09:47:42.647Z</time></trkpt><trkpt lat="44.94338" lon="9.5157717"><ele>208.0</ele><time>2026-03-27T09:47:43.649Z</time></trkpt><trkpt lat="44.9432583" lon="9.5157433"><ele>209.0</ele><time>2026-03-27T09:47:44.647Z</time></trkpt><trkpt lat="44.9431317" lon="9.5157233"><ele>210.0</ele><time>2026-03-27T09:47:45.649Z</time></trkpt><trkpt lat="44.9429967" lon="9.5157217"><ele>210.0</ele><time>2026-03-27T09:47:46.646Z</time></trkpt><trkpt lat="44.9428567" lon="9.5157433"><ele>210.0</ele><time>2026-03-27T09:47:47.647Z</time></trkpt><trkpt lat="44.9427083" lon="9.5157833"><ele>210.0</ele><time>2026-03-27T09:47:48.647Z</time></trkpt><trkpt lat="44.9425617" lon="9.51583"><ele>210.0</ele><time>2026-03-27T09:47:49.647Z</time></trkpt><trkpt lat="44.9424183" lon="9.515875"><ele>211.0</ele><time>2026-03-27T09:47:50.648Z</time></trkpt><trkpt lat="44.9422817" lon="9.51589"><ele>212.0</ele><time>2026-03-27T09:47:51.647Z</time></trkpt><trkpt lat="44.9421433" lon="9.5158667"><ele>213.0</ele><time>2026-03-27T09:47:52.652Z</time></trkpt><trkpt lat="44.942005" lon="9.515805"><ele>214.0</ele><time>2026-03-27T09:47:53.647Z</time></trkpt><trkpt lat="44.94187" lon="9.515705"><ele>214.0</ele><time>2026-03-27T09:47:54.646Z</time></trkpt><trkpt lat="44.9417383" lon="9.5155733"><ele>214.0</ele><time>2026-03-27T09:47:55.65Z</time></trkpt><trkpt lat="44.94161" lon="9.515425"><ele>214.0</ele><time>2026-03-27T09:47:56.648Z</time></trkpt><trkpt lat="44.9414833" lon="9.5152817"><ele>215.66666666666666</ele><time>2026-03-27T09:47:57.646Z</time></trkpt><trkpt lat="44.9413567" lon="9.5151467"><ele>217.33333333333331</ele><time>2026-03-27T09:47:58.646Z</time></trkpt><trkpt lat="44.94123" lon="9.5150283"><ele>219.0</ele><time>2026-03-27T09:47:59.646Z</time></trkpt><trkpt lat="44.941095" lon="9.5149283"><ele>219.0</ele><time>2026-03-27T09:48:00.647Z</time></trkpt><trkpt lat="44.9409483" lon="9.5148583"><ele>219.0</ele><time>2026-03-27T09:48:01.647Z</time></trkpt><trkpt lat="44.940795" lon="9.5148183"><ele>219.0</ele><time>2026-03-27T09:48:02.648Z</time></trkpt><trkpt lat="44.9406367" lon="9.5148083"><ele>219.0</ele><time>2026-03-27T09:48:03.646Z</time></trkpt><trkpt lat="44.94047" lon="9.5148383"><ele>219.0</ele><time>2026-03-27T09:48:04.647Z</time></trkpt><trkpt lat="44.9403" lon="9.5148883"><ele>219.0</ele><time>2026-03-27T09:48:05.646Z</time></trkpt><trkpt lat="44.9401283" lon="9.51493"><ele>221.33333333333331</ele><time>2026-03-27T09:48:06.647Z</time></trkpt><trkpt lat="44.9399533" lon="9.514955"><ele>223.66666666666666</ele><time>2026-03-27T09:48:07.646Z</time></trkpt><trkpt lat="44.93978" lon="9.5149517"><ele>226.0</ele><time>2026-03-27T09:48:08.649Z</time></trkpt><trkpt lat="44.939605" lon="9.5149167"><ele>226.0</ele><time>2026-03-27T09:48:09.647Z</time></trkpt><trkpt lat="44.9394383" lon="9.5148467"><ele>226.0</ele><time>2026-03-27T09:48:10.647Z</time></trkpt><trkpt lat="44.93928" lon="9.5147367"><ele>226.0</ele><time>2026-03-27T09:48:11.646Z</time></trkpt><trkpt lat="44.9391317" lon="9.5145917"><ele>229.33333333333331</ele><time>2026-03-27T09:48:12.647Z</time></trkpt><trkpt lat="44.9389883" lon="9.5144233"><ele>232.66666666666669</ele><time>2026-03-27T09:48:13.647Z</time></trkpt><trkpt lat="44.93885" lon="9.5142433"><ele>236.0</ele><time>2026-03-27T09:48:14.649Z</time></trkpt><trkpt lat="44.9387167" lon="9.51407"><ele>236.0</ele><time>2026-03-27T09:48:15.646Z</time></trkpt><trkpt lat="44.9385917" lon="9.5138983"><ele>236.0</ele><time>2026-03-27T09:48:16.65Z</time></trkpt><trkpt lat="44.9384633" lon="9.513735"><ele>236.0</ele><time>2026-03-27T09:48:17.647Z</time></trkpt><trkpt lat="44.9383283" lon="9.51358"><ele>237.33333333333334</ele><time>2026-03-27T09:48:18.648Z</time></trkpt><trkpt lat="44.938185" lon="9.5134533"><ele>238.66666666666669</ele><time>2026-03-27T09:48:19.648Z</time></trkpt><trkpt lat="44.9380317" lon="9.513375"><ele>240.0</ele><time>2026-03-27T09:48:20.648Z</time></trkpt><trkpt lat="44.9378733" lon="9.513335"><ele>240.0</ele><time>2026-03-27T09:48:21.649Z</time></trkpt><trkpt lat="44.937715" lon="9.513325"><ele>240.0</ele><time>2026-03-27T09:48:22.648Z</time></trkpt><trkpt lat="44.9375633" lon="9.5133283"><ele>240.0</ele><time>2026-03-27T09:48:23.649Z</time></trkpt><trkpt lat="44.93741" lon="9.51334"><ele>240.33333333333331</ele><time>2026-03-27T09:48:24.646Z</time></trkpt><trkpt lat="44.9372567" lon="9.5133483"><ele>240.66666666666666</ele><time>2026-03-27T09:48:25.647Z</time></trkpt><trkpt lat="44.9370983" lon="9.513335"><ele>241.0</ele><time>2026-03-27T09:48:26.647Z</time></trkpt><trkpt lat="44.936935" lon="9.5132917"><ele>241.0</ele><time>2026-03-27T09:48:27.646Z</time></trkpt><trkpt lat="44.936775" lon="9.513225"><ele>241.0</ele><time>2026-03-27T09:48:28.646Z</time></trkpt><trkpt lat="44.9366167" lon="9.5131433"><ele>241.0</ele><time>2026-03-27T09:48:29.648Z</time></trkpt><trkpt lat="44.936465" lon="9.5130467"><ele>241.33333333333331</ele><time>2026-03-27T09:48:30.648Z</time></trkpt><trkpt lat="44.9363283" lon="9.51293"><ele>241.66666666666669</ele><time>2026-03-27T09:48:31.646Z</time></trkpt><trkpt lat="44.9362033" lon="9.5127983"><ele>242.0</ele><time>2026-03-27T09:48:32.648Z</time></trkpt><trkpt lat="44.9360883" lon="9.5126483"><ele>243.33333333333334</ele><time>2026-03-27T09:48:33.646Z</time></trkpt><trkpt lat="44.9359817" lon="9.5124717"><ele>244.66666666666669</ele><time>2026-03-27T09:48:34.647Z</time></trkpt><trkpt lat="44.9358883" lon="9.51228"><ele>246.0</ele><time>2026-03-27T09:48:35.647Z</time></trkpt><trkpt lat="44.9358" lon="9.5120683"><ele>246.0</ele><time>2026-03-27T09:48:36.648Z</time></trkpt><trkpt lat="44.9357333" lon="9.5118333"><ele>246.0</ele><time>2026-03-27T09:48:37.647Z</time></trkpt><trkpt lat="44.9356833" lon="9.5115817"><ele>246.0</ele><time>2026-03-27T09:48:38.647Z</time></trkpt><trkpt lat="44.9356417" lon="9.5113317"><ele>246.33333333333331</ele><time>2026-03-27T09:48:39.648Z</time></trkpt><trkpt lat="44.9355967" lon="9.511095"><ele>246.66666666666666</ele><time>2026-03-27T09:48:40.647Z</time></trkpt><trkpt lat="44.93555" lon="9.510865"><ele>247.0</ele><time>2026-03-27T09:48:41.647Z</time></trkpt><trkpt lat="44.9355017" lon="9.51064"><ele>247.0</ele><time>2026-03-27T09:48:42.647Z</time></trkpt><trkpt lat="44.93545" lon="9.5104233"><ele>247.0</ele><time>2026-03-27T09:48:43.647Z</time></trkpt><trkpt lat="44.9353883" lon="9.5102167"><ele>247.0</ele><time>2026-03-27T09:48:44.648Z</time></trkpt><trkpt lat="44.9353083" lon="9.5100167"><ele>247.0</ele><time>2026-03-27T09:48:45.647Z</time></trkpt><trkpt lat="44.9352117" lon="9.509825"><ele>247.0</ele><time>2026-03-27T09:48:46.646Z</time></trkpt><trkpt lat="44.9351033" lon="9.5096383"><ele>247.0</ele><time>2026-03-27T09:48:47.647Z</time></trkpt><trkpt lat="44.9349883" lon="9.5094567"><ele>245.33333333333331</ele><time>2026-03-27T09:48:48.647Z</time></trkpt><trkpt lat="44.93487" lon="9.509275"><ele>243.66666666666669</ele><time>2026-03-27T09:48:49.648Z</time></trkpt><trkpt lat="44.9347483" lon="9.5090917"><ele>242.0</ele><time>2026-03-27T09:48:50.654Z</time></trkpt><trkpt lat="44.9346267" lon="9.508905"><ele>243.0</ele><time>2026-03-27T09:48:51.647Z</time></trkpt><trkpt lat="44.934505" lon="9.5087167"><ele>244.0</ele><time>2026-03-27T09:48:52.647Z</time></trkpt><trkpt lat="44.9343817" lon="9.5085283"><ele>245.0</ele><time>2026-03-27T09:48:53.647Z</time></trkpt><trkpt lat="44.9342533" lon="9.5083433"><ele>244.33333333333334</ele><time>2026-03-27T09:48:54.648Z</time></trkpt><trkpt lat="44.9341283" lon="9.5081583"><ele>243.66666666666669</ele><time>2026-03-27T09:48:55.646Z</time></trkpt><trkpt lat="44.9340017" lon="9.5079683"><ele>243.0</ele><time>2026-03-27T09:48:56.647Z</time></trkpt><trkpt lat="44.9338767" lon="9.5077783"><ele>243.0</ele><time>2026-03-27T09:48:57.647Z</time></trkpt><trkpt lat="44.9337533" lon="9.507585"><ele>243.0</ele><time>2026-03-27T09:48:58.648Z</time></trkpt><trkpt lat="44.9336283" lon="9.50739"><ele>243.0</ele><time>2026-03-27T09:48:59.648Z</time></trkpt><trkpt lat="44.9335033" lon="9.5071917"><ele>242.0</ele><time>2026-03-27T09:49:00.646Z</time></trkpt><trkpt lat="44.9333767" lon="9.506995"><ele>241.0</ele><time>2026-03-27T09:49:01.648Z</time></trkpt><trkpt lat="44.9332483" lon="9.5068"><ele>240.0</ele><time>2026-03-27T09:49:02.649Z</time></trkpt><trkpt lat="44.9331183" lon="9.5066067"><ele>240.0</ele><time>2026-03-27T09:49:03.646Z</time></trkpt><trkpt lat="44.93299" lon="9.506415"><ele>240.0</ele><time>2026-03-27T09:49:04.646Z</time></trkpt><trkpt lat="44.932865" lon="9.5062267"><ele>240.0</ele><time>2026-03-27T09:49:05.647Z</time></trkpt><trkpt lat="44.932745" lon="9.5060467"><ele>238.66666666666669</ele><time>2026-03-27T09:49:06.646Z</time></trkpt><trkpt lat="44.9326233" lon="9.5058633"><ele>237.33333333333334</ele><time>2026-03-27T09:49:07.646Z</time></trkpt><trkpt lat="44.9325017" lon="9.5056767"><ele>236.0</ele><time>2026-03-27T09:49:08.648Z</time></trkpt><trkpt lat="44.9323783" lon="9.5054883"><ele>236.66666666666669</ele><time>2026-03-27T09:49:09.646Z</time></trkpt><trkpt lat="44.932255" lon="9.5052983"><ele>237.33333333333331</ele><time>2026-03-27T09:49:10.648Z</time></trkpt><trkpt lat="44.9321267" lon="9.5051083"><ele>238.0</ele><time>2026-03-27T09:49:11.65Z</time></trkpt><trkpt lat="44.9319917" lon="9.5049233"><ele>238.0</ele><time>2026-03-27T09:49:12.646Z</time></trkpt><trkpt lat="44.9318483" lon="9.5047617"><ele>238.0</ele><time>2026-03-27T09:49:13.649Z</time></trkpt><trkpt lat="44.9316933" lon="9.5046167"><ele>238.0</ele><time>2026-03-27T09:49:14.647Z</time></trkpt><trkpt lat="44.9315333" lon="9.5044917"><ele>236.66666666666666</ele><time>2026-03-27T09:49:15.647Z</time></trkpt><trkpt lat="44.9313767" lon="9.50438"><ele>235.33333333333331</ele><time>2026-03-27T09:49:16.647Z</time></trkpt><trkpt lat="44.9312167" lon="9.5042733"><ele>234.0</ele><time>2026-03-27T09:49:17.647Z</time></trkpt><trkpt lat="44.9310533" lon="9.50416"><ele>231.66666666666669</ele><time>2026-03-27T09:49:18.65Z</time></trkpt><trkpt lat="44.9308833" lon="9.5040467"><ele>229.33333333333334</ele><time>2026-03-27T09:49:19.648Z</time></trkpt><trkpt lat="44.9307083" lon="9.50395"><ele>227.0</ele><time>2026-03-27T09:49:20.65Z</time></trkpt><trkpt lat="44.93053" lon="9.5038867"><ele>227.0</ele><time>2026-03-27T09:49:21.649Z</time></trkpt><trkpt lat="44.930355" lon="9.50385"><ele>227.0</ele><time>2026-03-27T09:49:22.649Z</time></trkpt><trkpt lat="44.9301867" lon="9.50383"><ele>227.0</ele><time>2026-03-27T09:49:23.649Z</time></trkpt><trkpt lat="44.9300217" lon="9.5038133"><ele>225.33333333333334</ele><time>2026-03-27T09:49:24.646Z</time></trkpt><trkpt lat="44.9298633" lon="9.5037883"><ele>223.66666666666669</ele><time>2026-03-27T09:49:25.646Z</time></trkpt><trkpt lat="44.9297167" lon="9.503745"><ele>222.0</ele><time>2026-03-27T09:49:26.649Z</time></trkpt><trkpt lat="44.9295783" lon="9.50367"><ele>226.33333333333331</ele><time>2026-03-27T09:49:27.648Z</time></trkpt><trkpt lat="44.9294533" lon="9.5035533"><ele>230.66666666666666</ele><time>2026-03-27T09:49:28.648Z</time></trkpt><trkpt lat="44.9293483" lon="9.503395"><ele>235.0</ele><time>2026-03-27T09:49:29.648Z</time></trkpt><trkpt lat="44.9292567" lon="9.5032083"><ele>232.0</ele><time>2026-03-27T09:49:30.648Z</time></trkpt><trkpt lat="44.9291817" lon="9.503005"><ele>229.0</ele><time>2026-03-27T09:49:31.648Z</time></trkpt><trkpt lat="44.9291067" lon="9.5027917"><ele>226.0</ele><time>2026-03-27T09:49:32.649Z</time></trkpt><trkpt lat="44.9290333" lon="9.5025767"><ele>226.0</ele><time>2026-03-27T09:49:33.648Z</time></trkpt><trkpt lat="44.9289567" lon="9.5023617"><ele>226.0</ele><time>2026-03-27T09:49:34.649Z</time></trkpt><trkpt lat="44.9288833" lon="9.50215"><ele>226.0</ele><time>2026-03-27T09:49:35.649Z</time></trkpt><trkpt lat="44.9288083" lon="9.50194"><ele>227.33333333333331</ele><time>2026-03-27T09:49:36.647Z</time></trkpt><trkpt lat="44.92873" lon="9.5017333"><ele>228.66666666666669</ele><time>2026-03-27T09:49:37.649Z</time></trkpt><trkpt lat="44.92865" lon="9.5015267"><ele>230.0</ele><time>2026-03-27T09:49:38.649Z</time></trkpt><trkpt lat="44.9285767" lon="9.50132"><ele>230.0</ele><time>2026-03-27T09:49:39.648Z</time></trkpt><trkpt lat="44.928515" lon="9.5011083"><ele>230.0</ele><time>2026-03-27T09:49:40.647Z</time></trkpt><trkpt lat="44.9284667" lon="9.50089"><ele>230.0</ele><time>2026-03-27T09:49:41.648Z</time></trkpt><trkpt lat="44.9284367" lon="9.500655"><ele>230.0</ele><time>2026-03-27T09:49:42.649Z</time></trkpt><trkpt lat="44.928415" lon="9.5004117"><ele>230.0</ele><time>2026-03-27T09:49:43.649Z</time></trkpt><trkpt lat="44.9283917" lon="9.50017"><ele>230.0</ele><time>2026-03-27T09:49:44.647Z</time></trkpt><trkpt lat="44.9283517" lon="9.4999283"><ele>224.0</ele><time>2026-03-27T09:49:45.649Z</time></trkpt><trkpt lat="44.9282883" lon="9.4996983"><ele>218.0</ele><time>2026-03-27T09:49:46.648Z</time></trkpt><trkpt lat="44.92821" lon="9.4994717"><ele>212.0</ele><time>2026-03-27T09:49:47.648Z</time></trkpt><trkpt lat="44.9281217" lon="9.499255"><ele>212.0</ele><time>2026-03-27T09:49:48.648Z</time></trkpt><trkpt lat="44.92803" lon="9.49904"><ele>212.0</ele><time>2026-03-27T09:49:49.647Z</time></trkpt><trkpt lat="44.927935" lon="9.49883"><ele>212.0</ele><time>2026-03-27T09:49:50.648Z</time></trkpt><trkpt lat="44.9278433" lon="9.4986233"><ele>213.0</ele><time>2026-03-27T09:49:51.648Z</time></trkpt><trkpt lat="44.9277533" lon="9.4984183"><ele>214.0</ele><time>2026-03-27T09:49:52.649Z</time></trkpt><trkpt lat="44.9276667" lon="9.498205"><ele>215.0</ele><time>2026-03-27T09:49:53.65Z</time></trkpt><trkpt lat="44.9275767" lon="9.498"><ele>213.66666666666669</ele><time>2026-03-27T09:49:54.646Z</time></trkpt><trkpt lat="44.9274917" lon="9.4977933"><ele>212.33333333333331</ele><time>2026-03-27T09:49:55.646Z</time></trkpt><trkpt lat="44.9274067" lon="9.4975867"><ele>211.0</ele><time>2026-03-27T09:49:56.646Z</time></trkpt><trkpt lat="44.9273183" lon="9.4973833"><ele>211.0</ele><time>2026-03-27T09:49:57.647Z</time></trkpt><trkpt lat="44.927225" lon="9.4971833"><ele>211.0</ele><time>2026-03-27T09:49:58.647Z</time></trkpt><trkpt lat="44.9271183" lon="9.4969983"><ele>211.0</ele><time>2026-03-27T09:49:59.647Z</time></trkpt><trkpt lat="44.9269917" lon="9.4968433"><ele>211.33333333333331</ele><time>2026-03-27T09:50:00.647Z</time></trkpt><trkpt lat="44.9268483" lon="9.4967183"><ele>211.66666666666669</ele><time>2026-03-27T09:50:01.646Z</time></trkpt><trkpt lat="44.9267017" lon="9.4966217"><ele>212.0</ele><time>2026-03-27T09:50:02.649Z</time></trkpt><trkpt lat="44.9265517" lon="9.4965433"><ele>212.0</ele><time>2026-03-27T09:50:03.647Z</time></trkpt><trkpt lat="44.9264083" lon="9.4964717"><ele>212.0</ele><time>2026-03-27T09:50:04.647Z</time></trkpt><trkpt lat="44.926275" lon="9.496395"><ele>212.0</ele><time>2026-03-27T09:50:05.646Z</time></trkpt><trkpt lat="44.9261467" lon="9.4963233"><ele>212.0</ele><time>2026-03-27T09:50:06.646Z</time></trkpt><trkpt lat="44.92603" lon="9.4962633"><ele>212.2</ele><time>2026-03-27T09:50:07.647Z</time></trkpt><trkpt lat="44.9259283" lon="9.496205"><ele>212.39999999999998</ele><time>2026-03-27T09:50:08.647Z</time></trkpt><trkpt lat="44.9258467" lon="9.496135"><ele>212.60000000000002</ele><time>2026-03-27T09:50:09.648Z</time></trkpt><trkpt lat="44.925785" lon="9.4960417"><ele>212.8</ele><time>2026-03-27T09:50:10.647Z</time></trkpt><trkpt lat="44.9257467" lon="9.4959267"><ele>213.0</ele><time>2026-03-27T09:50:11.649Z</time></trkpt><trkpt lat="44.9257067" lon="9.4958067"><ele>213.0</ele><time>2026-03-27T09:50:12.647Z</time></trkpt><trkpt lat="44.9256567" lon="9.4956817"><ele>213.0</ele><time>2026-03-27T09:50:13.647Z</time></trkpt><trkpt lat="44.9255983" lon="9.4955583"><ele>213.0</ele><time>2026-03-27T09:50:14.647Z</time></trkpt><trkpt lat="44.92553" lon="9.495435"><ele>213.0</ele><time>2026-03-27T09:50:15.647Z</time></trkpt><trkpt lat="44.925455" lon="9.495315"><ele>213.0</ele><time>2026-03-27T09:50:16.648Z</time></trkpt><trkpt lat="44.9253733" lon="9.495195"><ele>213.0</ele><time>2026-03-27T09:50:17.647Z</time></trkpt><trkpt lat="44.9252933" lon="9.495075"><ele>213.0</ele><time>2026-03-27T09:50:18.647Z</time></trkpt><trkpt lat="44.9252117" lon="9.494955"><ele>213.0</ele><time>2026-03-27T09:50:19.649Z</time></trkpt><trkpt lat="44.925135" lon="9.4948367"><ele>213.0</ele><time>2026-03-27T09:50:20.648Z</time></trkpt><trkpt lat="44.9250567" lon="9.494725"><ele>213.0</ele><time>2026-03-27T09:50:21.646Z</time></trkpt><trkpt lat="44.9249817" lon="9.49461"><ele>213.0</ele><time>2026-03-27T09:50:22.647Z</time></trkpt><trkpt lat="44.9249083" lon="9.4944833"><ele>213.0</ele><time>2026-03-27T09:50:23.648Z</time></trkpt><trkpt lat="44.9248383" lon="9.4943517"><ele>213.0</ele><time>2026-03-27T09:50:24.647Z</time></trkpt><trkpt lat="44.92477" lon="9.4942167"><ele>213.8</ele><time>2026-03-27T09:50:25.648Z</time></trkpt><trkpt lat="44.924715" lon="9.494085"><ele>214.60000000000002</ele><time>2026-03-27T09:50:26.647Z</time></trkpt><trkpt lat="44.9246617" lon="9.4939567"><ele>215.39999999999998</ele><time>2026-03-27T09:50:27.647Z</time></trkpt><trkpt lat="44.924615" lon="9.4938367"><ele>216.2</ele><time>2026-03-27T09:50:28.65Z</time></trkpt><trkpt lat="44.924565" lon="9.4937217"><ele>217.0</ele><time>2026-03-27T09:50:29.647Z</time></trkpt><trkpt lat="44.924515" lon="9.4936083"><ele>217.28571428571428</ele><time>2026-03-27T09:50:30.647Z</time></trkpt><trkpt lat="44.92447" lon="9.493505"><ele>217.57142857142856</ele><time>2026-03-27T09:50:31.648Z</time></trkpt><trkpt lat="44.9244317" lon="9.4934083"><ele>217.85714285714286</ele><time>2026-03-27T09:50:32.648Z</time></trkpt><trkpt lat="44.9243983" lon="9.4933233"><ele>218.14285714285714</ele><time>2026-03-27T09:50:33.647Z</time></trkpt><trkpt lat="44.924375" lon="9.4932383"><ele>218.42857142857142</ele><time>2026-03-27T09:50:34.647Z</time></trkpt><trkpt lat="44.9243517" lon="9.49315"><ele>218.71428571428572</ele><time>2026-03-27T09:50:35.648Z</time></trkpt><trkpt lat="44.9243267" lon="9.4930517"><ele>219.0</ele><time>2026-03-27T09:50:36.648Z</time></trkpt><trkpt lat="44.9243017" lon="9.492945"><ele>219.6</ele><time>2026-03-27T09:50:37.648Z</time></trkpt><trkpt lat="44.9242767" lon="9.492835"><ele>220.2</ele><time>2026-03-27T09:50:38.646Z</time></trkpt><trkpt lat="44.9242517" lon="9.4927167"><ele>220.79999999999998</ele><time>2026-03-27T09:50:39.646Z</time></trkpt><trkpt lat="44.9242117" lon="9.4926083"><ele>221.39999999999998</ele><time>2026-03-27T09:50:40.647Z</time></trkpt><trkpt lat="44.9241433" lon="9.49252"><ele>222.0</ele><time>2026-03-27T09:50:41.647Z</time></trkpt><trkpt lat="44.92405" lon="9.49244"><ele>222.0</ele><time>2026-03-27T09:50:42.646Z</time></trkpt><trkpt lat="44.9239417" lon="9.4923567"><ele>222.0</ele><time>2026-03-27T09:50:43.647Z</time></trkpt><trkpt lat="44.9238317" lon="9.49228"><ele>222.0</ele><time>2026-03-27T09:50:44.647Z</time></trkpt><trkpt lat="44.923725" lon="9.4922017"><ele>222.0</ele><time>2026-03-27T09:50:45.647Z</time></trkpt><trkpt lat="44.9236233" lon="9.4921067"><ele>222.75</ele><time>2026-03-27T09:50:46.647Z</time></trkpt><trkpt lat="44.9235217" lon="9.4919933"><ele>223.5</ele><time>2026-03-27T09:50:47.65Z</time></trkpt><trkpt lat="44.9234183" lon="9.491865"><ele>224.25</ele><time>2026-03-27T09:50:48.647Z</time></trkpt><trkpt lat="44.9233133" lon="9.4917117"><ele>225.0</ele><time>2026-03-27T09:50:49.648Z</time></trkpt><trkpt lat="44.9231983" lon="9.49156"><ele>225.0</ele><time>2026-03-27T09:50:50.649Z</time></trkpt><trkpt lat="44.9230717" lon="9.491425"><ele>225.0</ele><time>2026-03-27T09:50:51.647Z</time></trkpt><trkpt lat="44.9229267" lon="9.4913117"><ele>225.0</ele><time>2026-03-27T09:50:52.649Z</time></trkpt><trkpt lat="44.9227717" lon="9.4911917"><ele>226.0</ele><time>2026-03-27T09:50:53.647Z</time></trkpt><trkpt lat="44.92262" lon="9.4910683"><ele>227.0</ele><time>2026-03-27T09:50:54.647Z</time></trkpt><trkpt lat="44.922465" lon="9.49094"><ele>228.0</ele><time>2026-03-27T09:50:55.647Z</time></trkpt><trkpt lat="44.92231" lon="9.4908017"><ele>228.0</ele><time>2026-03-27T09:50:56.646Z</time></trkpt><trkpt lat="44.9221583" lon="9.4906567"><ele>228.0</ele><time>2026-03-27T09:50:57.651Z</time></trkpt><trkpt lat="44.922005" lon="9.4905117"><ele>228.0</ele><time>2026-03-27T09:50:58.647Z</time></trkpt><trkpt lat="44.9218517" lon="9.49037"><ele>228.33333333333331</ele><time>2026-03-27T09:50:59.646Z</time></trkpt><trkpt lat="44.921695" lon="9.4902267"><ele>228.66666666666666</ele><time>2026-03-27T09:51:00.646Z</time></trkpt><trkpt lat="44.921535" lon="9.49009"><ele>229.0</ele><time>2026-03-27T09:51:01.646Z</time></trkpt><trkpt lat="44.9213683" lon="9.4899617"><ele>229.0</ele><time>2026-03-27T09:51:02.646Z</time></trkpt><trkpt lat="44.9211983" lon="9.4898383"><ele>229.0</ele><time>2026-03-27T09:51:03.646Z</time></trkpt><trkpt lat="44.92103" lon="9.4897167"><ele>229.0</ele><time>2026-03-27T09:51:04.65Z</time></trkpt><trkpt lat="44.9208667" lon="9.4895933"><ele>231.0</ele><time>2026-03-27T09:51:05.646Z</time></trkpt><trkpt lat="44.9207067" lon="9.489465"><ele>233.0</ele><time>2026-03-27T09:51:06.648Z</time></trkpt><trkpt lat="44.9205467" lon="9.489325"><ele>235.0</ele><time>2026-03-27T09:51:07.65Z</time></trkpt><trkpt lat="44.920385" lon="9.4891833"><ele>235.0</ele><time>2026-03-27T09:51:08.648Z</time></trkpt><trkpt lat="44.920225" lon="9.4890417"><ele>235.0</ele><time>2026-03-27T09:51:09.648Z</time></trkpt><trkpt lat="44.920065" lon="9.4888933"><ele>235.0</ele><time>2026-03-27T09:51:10.647Z</time></trkpt><trkpt lat="44.91991" lon="9.48874"><ele>237.33333333333331</ele><time>2026-03-27T09:51:11.647Z</time></trkpt><trkpt lat="44.9197633" lon="9.4885717"><ele>239.66666666666669</ele><time>2026-03-27T09:51:12.647Z</time></trkpt><trkpt lat="44.9196283" lon="9.4883933"><ele>242.0</ele><time>2026-03-27T09:51:13.648Z</time></trkpt><trkpt lat="44.9194983" lon="9.4882233"><ele>242.0</ele><time>2026-03-27T09:51:14.647Z</time></trkpt><trkpt lat="44.91937" lon="9.4880633"><ele>242.0</ele><time>2026-03-27T09:51:15.647Z</time></trkpt><trkpt lat="44.91925" lon="9.487895"><ele>242.0</ele><time>2026-03-27T09:51:16.648Z</time></trkpt><trkpt lat="44.91914" lon="9.4877117"><ele>242.33333333333334</ele><time>2026-03-27T09:51:17.649Z</time></trkpt><trkpt lat="44.919025" lon="9.4875283"><ele>242.66666666666669</ele><time>2026-03-27T09:51:18.647Z</time></trkpt><trkpt lat="44.9189" lon="9.487375"><ele>243.0</ele><time>2026-03-27T09:51:19.648Z</time></trkpt><trkpt lat="44.91876" lon="9.4872583"><ele>243.0</ele><time>2026-03-27T09:51:20.647Z</time></trkpt><trkpt lat="44.9186117" lon="9.487165"><ele>243.0</ele><time>2026-03-27T09:51:21.647Z</time></trkpt><trkpt lat="44.918465" lon="9.487085"><ele>243.0</ele><time>2026-03-27T09:51:22.647Z</time></trkpt><trkpt lat="44.918315" lon="9.48702"><ele>245.33333333333331</ele><time>2026-03-27T09:51:23.649Z</time></trkpt><trkpt lat="44.9181533" lon="9.48697"><ele>247.66666666666666</ele><time>2026-03-27T09:51:24.647Z</time></trkpt><trkpt lat="44.9179983" lon="9.4869383"><ele>250.0</ele><time>2026-03-27T09:51:25.647Z</time></trkpt><trkpt lat="44.917855" lon="9.48691"><ele>250.0</ele><time>2026-03-27T09:51:26.648Z</time></trkpt><trkpt lat="44.9177217" lon="9.4868683"><ele>250.0</ele><time>2026-03-27T09:51:27.647Z</time></trkpt><trkpt lat="44.9176017" lon="9.4868133"><ele>250.0</ele><time>2026-03-27T09:51:28.647Z</time></trkpt><trkpt lat="44.9175033" lon="9.4867217"><ele>250.0</ele><time>2026-03-27T09:51:29.648Z</time></trkpt><trkpt lat="44.9174367" lon="9.48658"><ele>250.25</ele><time>2026-03-27T09:51:30.647Z</time></trkpt><trkpt lat="44.9173767" lon="9.4864183"><ele>250.5</ele><time>2026-03-27T09:51:31.648Z</time></trkpt><trkpt lat="44.9173033" lon="9.4862567"><ele>250.75</ele><time>2026-03-27T09:51:32.647Z</time></trkpt><trkpt lat="44.9172183" lon="9.4861133"><ele>251.0</ele><time>2026-03-27T09:51:33.646Z</time></trkpt><trkpt lat="44.9171233" lon="9.485995"><ele>251.0</ele><time>2026-03-27T09:51:34.648Z</time></trkpt><trkpt lat="44.9170167" lon="9.4859017"><ele>251.0</ele><time>2026-03-27T09:51:35.649Z</time></trkpt><trkpt lat="44.9168933" lon="9.4858333"><ele>251.0</ele><time>2026-03-27T09:51:36.646Z</time></trkpt><trkpt lat="44.9167617" lon="9.4858033"><ele>251.0</ele><time>2026-03-27T09:51:37.648Z</time></trkpt><trkpt lat="44.9166267" lon="9.4858033"><ele>249.0</ele><time>2026-03-27T09:51:38.648Z</time></trkpt><trkpt lat="44.9164833" lon="9.48582"><ele>247.0</ele><time>2026-03-27T09:51:39.649Z</time></trkpt><trkpt lat="44.9163417" lon="9.485845"><ele>245.0</ele><time>2026-03-27T09:51:40.649Z</time></trkpt><trkpt lat="44.9161967" lon="9.48586"><ele>243.0</ele><time>2026-03-27T09:51:41.648Z</time></trkpt><trkpt lat="44.9160533" lon="9.4858533"><ele>243.0</ele><time>2026-03-27T09:51:42.647Z</time></trkpt><trkpt lat="44.9159183" lon="9.485835"><ele>243.0</ele><time>2026-03-27T09:51:43.648Z</time></trkpt><trkpt lat="44.9157917" lon="9.4857967"><ele>243.0</ele><time>2026-03-27T09:51:44.649Z</time></trkpt><trkpt lat="44.9156717" lon="9.4857433"><ele>243.0</ele><time>2026-03-27T09:51:45.65Z</time></trkpt><trkpt lat="44.9155433" lon="9.485675"><ele>243.0</ele><time>2026-03-27T09:51:46.647Z</time></trkpt><trkpt lat="44.915415" lon="9.4856017"><ele>243.0</ele><time>2026-03-27T09:51:47.646Z</time></trkpt><trkpt lat="44.9152783" lon="9.4855417"><ele>243.0</ele><time>2026-03-27T09:51:48.647Z</time></trkpt><trkpt lat="44.9151333" lon="9.48549"><ele>243.0</ele><time>2026-03-27T09:51:49.65Z</time></trkpt><trkpt lat="44.9149883" lon="9.4854267"><ele>245.66666666666669</ele><time>2026-03-27T09:51:50.648Z</time></trkpt><trkpt lat="44.9148417" lon="9.4853567"><ele>248.33333333333334</ele><time>2026-03-27T09:51:51.647Z</time></trkpt><trkpt lat="44.9146917" lon="9.4852783"><ele>251.0</ele><time>2026-03-27T09:51:52.648Z</time></trkpt><trkpt lat="44.9145467" lon="9.4851933"><ele>251.0</ele><time>2026-03-27T09:51:53.649Z</time></trkpt><trkpt lat="44.9144" lon="9.485115"><ele>251.0</ele><time>2026-03-27T09:51:54.648Z</time></trkpt><trkpt lat="44.9142633" lon="9.4850567"><ele>251.0</ele><time>2026-03-27T09:51:55.647Z</time></trkpt><trkpt lat="44.914135" lon="9.4850267"><ele>251.0</ele><time>2026-03-27T09:51:56.648Z</time></trkpt><trkpt lat="44.914015" lon="9.485035"><ele>251.0</ele><time>2026-03-27T09:51:57.647Z</time></trkpt><trkpt lat="44.9138983" lon="9.4850683"><ele>251.0</ele><time>2026-03-27T09:51:58.647Z</time></trkpt><trkpt lat="44.9137833" lon="9.485095"><ele>251.0</ele><time>2026-03-27T09:51:59.647Z</time></trkpt><trkpt lat="44.9136667" lon="9.4850867"><ele>251.0</ele><time>2026-03-27T09:52:00.648Z</time></trkpt><trkpt lat="44.9135517" lon="9.48505"><ele>251.0</ele><time>2026-03-27T09:52:01.646Z</time></trkpt><trkpt lat="44.91343" lon="9.4850117"><ele>251.0</ele><time>2026-03-27T09:52:02.646Z</time></trkpt><trkpt lat="44.9133067" lon="9.4849783"><ele>251.0</ele><time>2026-03-27T09:52:03.647Z</time></trkpt><trkpt lat="44.9131817" lon="9.4849333"><ele>251.0</ele><time>2026-03-27T09:52:04.646Z</time></trkpt><trkpt lat="44.9130533" lon="9.4848617"><ele>250.75</ele><time>2026-03-27T09:52:05.647Z</time></trkpt><trkpt lat="44.9129317" lon="9.4847617"><ele>250.5</ele><time>2026-03-27T09:52:06.646Z</time></trkpt><trkpt lat="44.9128183" lon="9.4846567"><ele>250.25</ele><time>2026-03-27T09:52:07.65Z</time></trkpt><trkpt lat="44.9127117" lon="9.484565"><ele>250.0</ele><time>2026-03-27T09:52:08.647Z</time></trkpt><trkpt lat="44.9126233" lon="9.4844833"><ele>251.5</ele><time>2026-03-27T09:52:09.647Z</time></trkpt><trkpt lat="44.9125383" lon="9.4843917"><ele>253.0</ele><time>2026-03-27T09:52:10.646Z</time></trkpt><trkpt lat="44.91246" lon="9.484275"><ele>254.5</ele><time>2026-03-27T09:52:11.649Z</time></trkpt><trkpt lat="44.9123883" lon="9.4841333"><ele>256.0</ele><time>2026-03-27T09:52:12.648Z</time></trkpt><trkpt lat="44.912315" lon="9.483975"><ele>256.0</ele><time>2026-03-27T09:52:13.648Z</time></trkpt><trkpt lat="44.912245" lon="9.483815"><ele>256.0</ele><time>2026-03-27T09:52:14.649Z</time></trkpt><trkpt lat="44.9121817" lon="9.48365"><ele>256.0</ele><time>2026-03-27T09:52:15.649Z</time></trkpt><trkpt lat="44.9121317" lon="9.4834783"><ele>256.0</ele><time>2026-03-27T09:52:16.649Z</time></trkpt><trkpt lat="44.9120967" lon="9.483295"><ele>259.75</ele><time>2026-03-27T09:52:17.649Z</time></trkpt><trkpt lat="44.9120717" lon="9.4831"><ele>263.5</ele><time>2026-03-27T09:52:18.648Z</time></trkpt><trkpt lat="44.9120467" lon="9.4828967"><ele>267.25</ele><time>2026-03-27T09:52:19.648Z</time></trkpt><trkpt lat="44.9120083" lon="9.4826917"><ele>271.0</ele><time>2026-03-27T09:52:20.648Z</time></trkpt><trkpt lat="44.91196" lon="9.4825"><ele>273.75</ele><time>2026-03-27T09:52:21.649Z</time></trkpt><trkpt lat="44.9119183" lon="9.48232"><ele>276.5</ele><time>2026-03-27T09:52:22.651Z</time></trkpt><trkpt lat="44.9118883" lon="9.4821317"><ele>279.25</ele><time>2026-03-27T09:52:23.648Z</time></trkpt><trkpt lat="44.9118633" lon="9.4819367"><ele>282.0</ele><time>2026-03-27T09:52:24.648Z</time></trkpt><trkpt lat="44.911845" lon="9.4817367"><ele>282.75</ele><time>2026-03-27T09:52:25.649Z</time></trkpt><trkpt lat="44.9118333" lon="9.481545"><ele>283.5</ele><time>2026-03-27T09:52:26.649Z</time></trkpt><trkpt lat="44.911825" lon="9.4813683"><ele>284.25</ele><time>2026-03-27T09:52:27.65Z</time></trkpt><trkpt lat="44.911815" lon="9.4812133"><ele>285.0</ele><time>2026-03-27T09:52:28.648Z</time></trkpt><trkpt lat="44.9118017" lon="9.4810833"><ele>285.6</ele><time>2026-03-27T09:52:29.648Z</time></trkpt><trkpt lat="44.9117967" lon="9.48097"><ele>286.2</ele><time>2026-03-27T09:52:30.649Z</time></trkpt><trkpt lat="44.9117983" lon="9.4808767"><ele>286.8</ele><time>2026-03-27T09:52:31.648Z</time></trkpt><trkpt lat="44.9118467" lon="9.48074"><ele>287.4</ele><time>2026-03-27T09:52:33.646Z</time></trkpt><trkpt lat="44.9119383" lon="9.4807617"><ele>288.0</ele><time>2026-03-27T09:52:35.65Z</time></trkpt><trkpt lat="44.912015" lon="9.480935"><ele>288.0</ele><time>2026-03-27T09:52:37.647Z</time></trkpt><trkpt lat="44.9120433" lon="9.48108"><ele>288.0</ele><time>2026-03-27T09:52:38.646Z</time></trkpt><trkpt lat="44.9120683" lon="9.48124"><ele>288.0</ele><time>2026-03-27T09:52:39.646Z</time></trkpt><trkpt lat="44.9120967" lon="9.4813967"><ele>288.0</ele><time>2026-03-27T09:52:40.648Z</time></trkpt><trkpt lat="44.91213" lon="9.4815483"><ele>288.0</ele><time>2026-03-27T09:52:41.649Z</time></trkpt><trkpt lat="44.9121783" lon="9.4816967"><ele>287.25</ele><time>2026-03-27T09:52:42.649Z</time></trkpt><trkpt lat="44.9122417" lon="9.4818333"><ele>286.5</ele><time>2026-03-27T09:52:43.649Z</time></trkpt><trkpt lat="44.912325" lon="9.4819533"><ele>285.75</ele><time>2026-03-27T09:52:44.648Z</time></trkpt><trkpt lat="44.9124183" lon="9.4820717"><ele>285.0</ele><time>2026-03-27T09:52:45.647Z</time></trkpt><trkpt lat="44.912495" lon="9.4822033"><ele>284.4</ele><time>2026-03-27T09:52:46.647Z</time></trkpt><trkpt lat="44.9125483" lon="9.48235"><ele>283.8</ele><time>2026-03-27T09:52:47.65Z</time></trkpt><trkpt lat="44.9125883" lon="9.48249"><ele>283.2</ele><time>2026-03-27T09:52:48.649Z</time></trkpt><trkpt lat="44.9126317" lon="9.4826117"><ele>282.6</ele><time>2026-03-27T09:52:49.649Z</time></trkpt><trkpt lat="44.9126883" lon="9.482715"><ele>282.0</ele><time>2026-03-27T09:52:50.649Z</time></trkpt><trkpt lat="44.9127633" lon="9.4828067"><ele>281.4</ele><time>2026-03-27T09:52:51.648Z</time></trkpt><trkpt lat="44.91285" lon="9.4828733"><ele>280.79999999999995</ele><time>2026-03-27T09:52:52.648Z</time></trkpt><trkpt lat="44.9129417" lon="9.4829183"><ele>280.2</ele><time>2026-03-27T09:52:53.648Z</time></trkpt><trkpt lat="44.9130333" lon="9.4829333"><ele>279.59999999999997</ele><time>2026-03-27T09:52:54.652Z</time></trkpt><trkpt lat="44.9131167" lon="9.4829217"><ele>279.0</ele><time>2026-03-27T09:52:55.649Z</time></trkpt><trkpt lat="44.9131983" lon="9.482875"><ele>279.4</ele><time>2026-03-27T09:52:56.649Z</time></trkpt><trkpt lat="44.9132733" lon="9.4827867"><ele>279.79999999999995</ele><time>2026-03-27T09:52:57.649Z</time></trkpt><trkpt lat="44.9133467" lon="9.48267"><ele>280.20000000000005</ele><time>2026-03-27T09:52:58.648Z</time></trkpt><trkpt lat="44.9134117" lon="9.48254"><ele>280.6</ele><time>2026-03-27T09:52:59.648Z</time></trkpt><trkpt lat="44.9134667" lon="9.4823933"><ele>281.0</ele><time>2026-03-27T09:53:00.648Z</time></trkpt><trkpt lat="44.913505" lon="9.4822367"><ele>283.2</ele><time>2026-03-27T09:53:01.648Z</time></trkpt><trkpt lat="44.9135317" lon="9.4820817"><ele>285.40000000000003</ele><time>2026-03-27T09:53:02.648Z</time></trkpt><trkpt lat="44.9135617" lon="9.4819317"><ele>287.6</ele><time>2026-03-27T09:53:03.647Z</time></trkpt><trkpt lat="44.9136083" lon="9.4817917"><ele>289.8</ele><time>2026-03-27T09:53:04.647Z</time></trkpt><trkpt lat="44.9136817" lon="9.4816683"><ele>292.0</ele><time>2026-03-27T09:53:05.65Z</time></trkpt><trkpt lat="44.913785" lon="9.4815683"><ele>292.0</ele><time>2026-03-27T09:53:06.647Z</time></trkpt><trkpt lat="44.91391" lon="9.4814983"><ele>292.0</ele><time>2026-03-27T09:53:07.647Z</time></trkpt><trkpt lat="44.91404" lon="9.4814617"><ele>292.0</ele><time>2026-03-27T09:53:08.648Z</time></trkpt><trkpt lat="44.91416" lon="9.48144"><ele>292.0</ele><time>2026-03-27T09:53:09.647Z</time></trkpt><trkpt lat="44.9142633" lon="9.4813983"><ele>292.66666666666663</ele><time>2026-03-27T09:53:10.647Z</time></trkpt><trkpt lat="44.9143367" lon="9.481325"><ele>293.3333333333333</ele><time>2026-03-27T09:53:11.647Z</time></trkpt><trkpt lat="44.914385" lon="9.481245"><ele>294.0</ele><time>2026-03-27T09:53:12.65Z</time></trkpt><trkpt lat="44.9144117" lon="9.48115"><ele>294.6666666666667</ele><time>2026-03-27T09:53:13.646Z</time></trkpt><trkpt lat="44.9143833" lon="9.48106"><ele>295.33333333333337</ele><time>2026-03-27T09:53:14.647Z</time></trkpt><trkpt lat="44.9143367" lon="9.4809883"><ele>296.0</ele><time>2026-03-27T09:53:15.648Z</time></trkpt><trkpt lat="44.9142467" lon="9.4809583"><ele>297.5</ele><time>2026-03-27T09:53:16.646Z</time></trkpt><trkpt lat="44.9141433" lon="9.48096"><ele>299.0</ele><time>2026-03-27T09:53:17.648Z</time></trkpt><trkpt lat="44.914025" lon="9.4809783"><ele>300.5</ele><time>2026-03-27T09:53:18.657Z</time></trkpt><trkpt lat="44.9139083" lon="9.4810017"><ele>302.0</ele><time>2026-03-27T09:53:19.648Z</time></trkpt><trkpt lat="44.9137967" lon="9.4810217"><ele>302.0</ele><time>2026-03-27T09:53:20.649Z</time></trkpt><trkpt lat="44.9136917" lon="9.4810367"><ele>302.0</ele><time>2026-03-27T09:53:21.649Z</time></trkpt><trkpt lat="44.91359" lon="9.4810383"><ele>302.0</ele><time>2026-03-27T09:53:22.648Z</time></trkpt><trkpt lat="44.913495" lon="9.4810167"><ele>302.0</ele><time>2026-03-27T09:53:23.65Z</time></trkpt><trkpt lat="44.91341" lon="9.480965"><ele>302.0</ele><time>2026-03-27T09:53:24.647Z</time></trkpt><trkpt lat="44.9133417" lon="9.4808733"><ele>302.2</ele><time>2026-03-27T09:53:25.646Z</time></trkpt><trkpt lat="44.9132983" lon="9.4807483"><ele>302.4</ele><time>2026-03-27T09:53:26.646Z</time></trkpt><trkpt lat="44.9132733" lon="9.4806117"><ele>302.6</ele><time>2026-03-27T09:53:27.646Z</time></trkpt><trkpt lat="44.9132667" lon="9.4804783"><ele>302.8</ele><time>2026-03-27T09:53:28.646Z</time></trkpt><trkpt lat="44.9132783" lon="9.4803533"><ele>303.0</ele><time>2026-03-27T09:53:29.646Z</time></trkpt><trkpt lat="44.9133167" lon="9.4802283"><ele>303.6</ele><time>2026-03-27T09:53:30.646Z</time></trkpt><trkpt lat="44.91337" lon="9.4801067"><ele>304.20000000000005</ele><time>2026-03-27T09:53:31.65Z</time></trkpt><trkpt lat="44.9134317" lon="9.47999"><ele>304.8</ele><time>2026-03-27T09:53:32.647Z</time></trkpt><trkpt lat="44.9134933" lon="9.4798717"><ele>305.40000000000003</ele><time>2026-03-27T09:53:33.647Z</time></trkpt><trkpt lat="44.9135517" lon="9.47974"><ele>306.0</ele><time>2026-03-27T09:53:34.646Z</time></trkpt><trkpt lat="44.9135983" lon="9.479595"><ele>309.75</ele><time>2026-03-27T09:53:35.646Z</time></trkpt><trkpt lat="44.913625" lon="9.4794333"><ele>313.5</ele><time>2026-03-27T09:53:36.649Z</time></trkpt><trkpt lat="44.91363" lon="9.4792533"><ele>317.25</ele><time>2026-03-27T09:53:37.647Z</time></trkpt><trkpt lat="44.91362" lon="9.4790683"><ele>321.0</ele><time>2026-03-27T09:53:38.647Z</time></trkpt><trkpt lat="44.9136033" lon="9.478885"><ele>323.25</ele><time>2026-03-27T09:53:39.647Z</time></trkpt><trkpt lat="44.9135883" lon="9.4787067"><ele>325.5</ele><time>2026-03-27T09:53:40.647Z</time></trkpt><trkpt lat="44.91357" lon="9.478535"><ele>327.75</ele><time>2026-03-27T09:53:41.648Z</time></trkpt><trkpt lat="44.9135483" lon="9.4783767"><ele>330.0</ele><time>2026-03-27T09:53:42.646Z</time></trkpt><trkpt lat="44.9135233" lon="9.4782283"><ele>330.0</ele><time>2026-03-27T09:53:43.648Z</time></trkpt><trkpt lat="44.9135" lon="9.4780867"><ele>330.0</ele><time>2026-03-27T09:53:44.646Z</time></trkpt><trkpt lat="44.9134833" lon="9.47794"><ele>330.0</ele><time>2026-03-27T09:53:45.648Z</time></trkpt><trkpt lat="44.913475" lon="9.4777767"><ele>330.0</ele><time>2026-03-27T09:53:46.646Z</time></trkpt><trkpt lat="44.91348" lon="9.4776033"><ele>330.0</ele><time>2026-03-27T09:53:47.648Z</time></trkpt><trkpt lat="44.913495" lon="9.4774217"><ele>330.75</ele><time>2026-03-27T09:53:48.65Z</time></trkpt><trkpt lat="44.9135133" lon="9.4772433"><ele>331.5</ele><time>2026-03-27T09:53:49.649Z</time></trkpt><trkpt lat="44.9135383" lon="9.4770733"><ele>332.25</ele><time>2026-03-27T09:53:50.649Z</time></trkpt><trkpt lat="44.9135633" lon="9.4769233"><ele>333.0</ele><time>2026-03-27T09:53:51.648Z</time></trkpt><trkpt lat="44.9135967" lon="9.4768033"><ele>333.0</ele><time>2026-03-27T09:53:52.649Z</time></trkpt><trkpt lat="44.91364" lon="9.4767217"><ele>333.0</ele><time>2026-03-27T09:53:53.649Z</time></trkpt><trkpt lat="44.9137567" lon="9.4767167"><ele>333.0</ele><time>2026-03-27T09:53:55.646Z</time></trkpt><trkpt lat="44.9137967" lon="9.4768"><ele>333.0</ele><time>2026-03-27T09:53:56.652Z</time></trkpt><trkpt lat="44.91381" lon="9.4769283"><ele>333.0</ele><time>2026-03-27T09:53:57.646Z</time></trkpt><trkpt lat="44.91381" lon="9.4770617"><ele>333.0</ele><time>2026-03-27T09:53:58.646Z</time></trkpt><trkpt lat="44.9138017" lon="9.4771967"><ele>333.0</ele><time>2026-03-27T09:53:59.646Z</time></trkpt><trkpt lat="44.9138067" lon="9.4773267"><ele>333.0</ele><time>2026-03-27T09:54:00.648Z</time></trkpt><trkpt lat="44.9138283" lon="9.4774633"><ele>333.0</ele><time>2026-03-27T09:54:01.648Z</time></trkpt><trkpt lat="44.913875" lon="9.4776083"><ele>333.0</ele><time>2026-03-27T09:54:02.647Z</time></trkpt><trkpt lat="44.9139333" lon="9.4777517"><ele>333.0</ele><time>2026-03-27T09:54:03.648Z</time></trkpt><trkpt lat="44.914005" lon="9.47788"><ele>333.25</ele><time>2026-03-27T09:54:04.647Z</time></trkpt><trkpt lat="44.9140767" lon="9.4780067"><ele>333.5</ele><time>2026-03-27T09:54:05.647Z</time></trkpt><trkpt lat="44.914145" lon="9.4781333"><ele>333.75</ele><time>2026-03-27T09:54:06.647Z</time></trkpt><trkpt lat="44.9142167" lon="9.4782533"><ele>334.0</ele><time>2026-03-27T09:54:07.648Z</time></trkpt><trkpt lat="44.914305" lon="9.4783567"><ele>334.0</ele><time>2026-03-27T09:54:08.647Z</time></trkpt><trkpt lat="44.914405" lon="9.4784317"><ele>334.0</ele><time>2026-03-27T09:54:09.646Z</time></trkpt><trkpt lat="44.9145167" lon="9.4784633"><ele>334.0</ele><time>2026-03-27T09:54:10.651Z</time></trkpt><trkpt lat="44.9146367" lon="9.4784567"><ele>334.0</ele><time>2026-03-27T09:54:11.647Z</time></trkpt><trkpt lat="44.9147583" lon="9.4784283"><ele>334.0</ele><time>2026-03-27T09:54:12.647Z</time></trkpt><trkpt lat="44.9148783" lon="9.4783883"><ele>334.0</ele><time>2026-03-27T09:54:13.646Z</time></trkpt><trkpt lat="44.9150033" lon="9.4783367"><ele>334.0</ele><time>2026-03-27T09:54:14.647Z</time></trkpt><trkpt lat="44.9151383" lon="9.4782867"><ele>334.0</ele><time>2026-03-27T09:54:15.647Z</time></trkpt><trkpt lat="44.91528" lon="9.4782433"><ele>333.25</ele><time>2026-03-27T09:54:16.646Z</time></trkpt><trkpt lat="44.9154133" lon="9.4781933"><ele>332.5</ele><time>2026-03-27T09:54:17.648Z</time></trkpt><trkpt lat="44.9155283" lon="9.478125"><ele>331.75</ele><time>2026-03-27T09:54:18.646Z</time></trkpt><trkpt lat="44.91563" lon="9.478045"><ele>331.0</ele><time>2026-03-27T09:54:19.646Z</time></trkpt><trkpt lat="44.915725" lon="9.4779417"><ele>333.5</ele><time>2026-03-27T09:54:20.652Z</time></trkpt><trkpt lat="44.9158183" lon="9.4778183"><ele>336.0</ele><time>2026-03-27T09:54:21.646Z</time></trkpt><trkpt lat="44.9159083" lon="9.4776833"><ele>338.5</ele><time>2026-03-27T09:54:22.647Z</time></trkpt><trkpt lat="44.9160017" lon="9.477535"><ele>341.0</ele><time>2026-03-27T09:54:23.646Z</time></trkpt><trkpt lat="44.9160917" lon="9.4774017"><ele>341.25</ele><time>2026-03-27T09:54:24.646Z</time></trkpt><trkpt lat="44.9161967" lon="9.4773133"><ele>341.5</ele><time>2026-03-27T09:54:25.648Z</time></trkpt><trkpt lat="44.916325" lon="9.4772583"><ele>341.75</ele><time>2026-03-27T09:54:26.647Z</time></trkpt><trkpt lat="44.916455" lon="9.477235"><ele>342.0</ele><time>2026-03-27T09:54:27.646Z</time></trkpt><trkpt lat="44.9165783" lon="9.47724"><ele>342.0</ele><time>2026-03-27T09:54:28.647Z</time></trkpt><trkpt lat="44.9166967" lon="9.4772767"><ele>342.0</ele><time>2026-03-27T09:54:29.646Z</time></trkpt><trkpt lat="44.916805" lon="9.4773133"><ele>342.0</ele><time>2026-03-27T09:54:30.646Z</time></trkpt><trkpt lat="44.9169033" lon="9.4773283"><ele>342.0</ele><time>2026-03-27T09:54:31.648Z</time></trkpt><trkpt lat="44.9169917" lon="9.4773017"><ele>342.0</ele><time>2026-03-27T09:54:32.648Z</time></trkpt><trkpt lat="44.9170667" lon="9.4772333"><ele>342.8333333333333</ele><time>2026-03-27T09:54:33.646Z</time></trkpt><trkpt lat="44.9171033" lon="9.4771283"><ele>343.6666666666667</ele><time>2026-03-27T09:54:34.646Z</time></trkpt><trkpt lat="44.9171183" lon="9.4770117"><ele>344.5</ele><time>2026-03-27T09:54:35.646Z</time></trkpt><trkpt lat="44.9170967" lon="9.4769033"><ele>345.33333333333337</ele><time>2026-03-27T09:54:36.646Z</time></trkpt><trkpt lat="44.9170667" lon="9.4767933"><ele>346.1666666666667</ele><time>2026-03-27T09:54:37.65Z</time></trkpt><trkpt lat="44.9170167" lon="9.4766817"><ele>347.0</ele><time>2026-03-27T09:54:38.647Z</time></trkpt><trkpt lat="44.9169633" lon="9.4765583"><ele>349.20000000000005</ele><time>2026-03-27T09:54:39.646Z</time></trkpt><trkpt lat="44.9169067" lon="9.476435"><ele>351.4</ele><time>2026-03-27T09:54:40.646Z</time></trkpt><trkpt lat="44.9168383" lon="9.4763167"><ele>353.6</ele><time>2026-03-27T09:54:41.646Z</time></trkpt><trkpt lat="44.916755" lon="9.476235"><ele>355.79999999999995</ele><time>2026-03-27T09:54:42.646Z</time></trkpt><trkpt lat="44.9166583" lon="9.4762167"><ele>358.0</ele><time>2026-03-27T09:54:43.646Z</time></trkpt><trkpt lat="44.9165533" lon="9.4762583"><ele>356.5</ele><time>2026-03-27T09:54:44.647Z</time></trkpt><trkpt lat="44.9164483" lon="9.4763283"><ele>355.0</ele><time>2026-03-27T09:54:45.647Z</time></trkpt><trkpt lat="44.916345" lon="9.476385"><ele>353.5</ele><time>2026-03-27T09:54:46.648Z</time></trkpt><trkpt lat="44.91624" lon="9.4764183"><ele>352.0</ele><time>2026-03-27T09:54:47.647Z</time></trkpt><trkpt lat="44.916125" lon="9.47642"><ele>352.0</ele><time>2026-03-27T09:54:48.646Z</time></trkpt><trkpt lat="44.9159967" lon="9.4764083"><ele>352.0</ele><time>2026-03-27T09:54:49.646Z</time></trkpt><trkpt lat="44.91587" lon="9.4763883"><ele>352.0</ele><time>2026-03-27T09:54:50.647Z</time></trkpt><trkpt lat="44.9157467" lon="9.4763433"><ele>352.0</ele><time>2026-03-27T09:54:51.647Z</time></trkpt><trkpt lat="44.91564" lon="9.4762567"><ele>355.0</ele><time>2026-03-27T09:54:52.647Z</time></trkpt><trkpt lat="44.9155583" lon="9.47613"><ele>358.0</ele><time>2026-03-27T09:54:53.646Z</time></trkpt><trkpt lat="44.91549" lon="9.4759767"><ele>361.0</ele><time>2026-03-27T09:54:54.648Z</time></trkpt><trkpt lat="44.9154367" lon="9.4758083"><ele>364.0</ele><time>2026-03-27T09:54:55.648Z</time></trkpt><trkpt lat="44.9153917" lon="9.475655"><ele>364.0</ele><time>2026-03-27T09:54:56.647Z</time></trkpt><trkpt lat="44.9153533" lon="9.4755117"><ele>364.0</ele><time>2026-03-27T09:54:57.646Z</time></trkpt><trkpt lat="44.915325" lon="9.4753767"><ele>364.0</ele><time>2026-03-27T09:54:58.647Z</time></trkpt><trkpt lat="44.9153083" lon="9.4752367"><ele>364.0</ele><time>2026-03-27T09:54:59.646Z</time></trkpt><trkpt lat="44.91531" lon="9.4751"><ele>364.0</ele><time>2026-03-27T09:55:00.648Z</time></trkpt><trkpt lat="44.9153433" lon="9.474955"><ele>363.75</ele><time>2026-03-27T09:55:01.646Z</time></trkpt><trkpt lat="44.9154" lon="9.4748183"><ele>363.5</ele><time>2026-03-27T09:55:02.648Z</time></trkpt><trkpt lat="44.915485" lon="9.4747117"><ele>363.25</ele><time>2026-03-27T09:55:03.648Z</time></trkpt><trkpt lat="44.9155883" lon="9.4746217"><ele>363.0</ele><time>2026-03-27T09:55:04.647Z</time></trkpt><trkpt lat="44.9157" lon="9.4745367"><ele>363.0</ele><time>2026-03-27T09:55:05.648Z</time></trkpt><trkpt lat="44.9158183" lon="9.4744533"><ele>363.0</ele><time>2026-03-27T09:55:06.646Z</time></trkpt><trkpt lat="44.915935" lon="9.47437"><ele>363.0</ele><time>2026-03-27T09:55:07.647Z</time></trkpt><trkpt lat="44.9160567" lon="9.4742833"><ele>363.0</ele><time>2026-03-27T09:55:08.646Z</time></trkpt><trkpt lat="44.916175" lon="9.4741933"><ele>366.5</ele><time>2026-03-27T09:55:09.647Z</time></trkpt><trkpt lat="44.916295" lon="9.4741"><ele>370.0</ele><time>2026-03-27T09:55:10.646Z</time></trkpt><trkpt lat="44.9164083" lon="9.4739967"><ele>373.5</ele><time>2026-03-27T09:55:11.646Z</time></trkpt><trkpt lat="44.916515" lon="9.4738683"><ele>377.0</ele><time>2026-03-27T09:55:12.646Z</time></trkpt><trkpt lat="44.916615" lon="9.4737217"><ele>377.0</ele><time>2026-03-27T09:55:13.647Z</time></trkpt><trkpt lat="44.9167133" lon="9.47357"><ele>377.0</ele><time>2026-03-27T09:55:14.647Z</time></trkpt><trkpt lat="44.91681" lon="9.47343"><ele>377.0</ele><time>2026-03-27T09:55:15.647Z</time></trkpt><trkpt lat="44.9169083" lon="9.4732983"><ele>377.0</ele><time>2026-03-27T09:55:16.646Z</time></trkpt><trkpt lat="44.9170017" lon="9.4731583"><ele>378.0</ele><time>2026-03-27T09:55:17.646Z</time></trkpt><trkpt lat="44.91709" lon="9.473005"><ele>379.0</ele><time>2026-03-27T09:55:18.725Z</time></trkpt><trkpt lat="44.9171767" lon="9.4728467"><ele>380.0</ele><time>2026-03-27T09:55:19.648Z</time></trkpt><trkpt lat="44.9172667" lon="9.4726867"><ele>381.0</ele><time>2026-03-27T09:55:20.647Z</time></trkpt><trkpt lat="44.9173683" lon="9.4725267"><ele>381.0</ele><time>2026-03-27T09:55:21.65Z</time></trkpt><trkpt lat="44.9174733" lon="9.4723667"><ele>381.0</ele><time>2026-03-27T09:55:22.647Z</time></trkpt><trkpt lat="44.9175817" lon="9.47221"><ele>381.0</ele><time>2026-03-27T09:55:23.647Z</time></trkpt><trkpt lat="44.917685" lon="9.472065"><ele>382.5</ele><time>2026-03-27T09:55:24.647Z</time></trkpt><trkpt lat="44.9177883" lon="9.4719417"><ele>384.0</ele><time>2026-03-27T09:55:25.646Z</time></trkpt><trkpt lat="44.9179017" lon="9.4718233"><ele>385.5</ele><time>2026-03-27T09:55:26.646Z</time></trkpt><trkpt lat="44.9180233" lon="9.4717033"><ele>387.0</ele><time>2026-03-27T09:55:27.647Z</time></trkpt><trkpt lat="44.9181467" lon="9.47158"><ele>387.0</ele><time>2026-03-27T09:55:28.646Z</time></trkpt><trkpt lat="44.9182667" lon="9.47144"><ele>387.0</ele><time>2026-03-27T09:55:29.647Z</time></trkpt><trkpt lat="44.9183833" lon="9.47128"><ele>387.0</ele><time>2026-03-27T09:55:30.648Z</time></trkpt><trkpt lat="44.918505" lon="9.47111"><ele>389.66666666666663</ele><time>2026-03-27T09:55:31.646Z</time></trkpt><trkpt lat="44.91864" lon="9.4709483"><ele>392.3333333333333</ele><time>2026-03-27T09:55:32.649Z</time></trkpt><trkpt lat="44.9187733" lon="9.4708167"><ele>395.0</ele><time>2026-03-27T09:55:33.647Z</time></trkpt><trkpt lat="44.918885" lon="9.4707283"><ele>394.99999999999994</ele><time>2026-03-27T09:55:34.647Z</time></trkpt><trkpt lat="44.91898" lon="9.4706933"><ele>395.0</ele><time>2026-03-27T09:55:35.646Z</time></trkpt><trkpt lat="44.9190633" lon="9.47071"><ele>395.0</ele><time>2026-03-27T09:55:36.648Z</time></trkpt><trkpt lat="44.9191317" lon="9.4707667"><ele>395.0</ele><time>2026-03-27T09:55:37.647Z</time></trkpt><trkpt lat="44.9191733" lon="9.4708533"><ele>394.99999999999994</ele><time>2026-03-27T09:55:38.647Z</time></trkpt><trkpt lat="44.91914" lon="9.4709717"><ele>395.0</ele><time>2026-03-27T09:55:39.649Z</time></trkpt><trkpt lat="44.9190967" lon="9.4710917"><ele>395.0</ele><time>2026-03-27T09:55:40.646Z</time></trkpt><trkpt lat="44.9190317" lon="9.4712317"><ele>395.0</ele><time>2026-03-27T09:55:41.648Z</time></trkpt><trkpt lat="44.9189683" lon="9.4714017"><ele>395.0</ele><time>2026-03-27T09:55:42.647Z</time></trkpt><trkpt lat="44.91893" lon="9.4715717"><ele>395.0</ele><time>2026-03-27T09:55:43.648Z</time></trkpt><trkpt lat="44.9189" lon="9.4717367"><ele>395.8</ele><time>2026-03-27T09:55:44.646Z</time></trkpt><trkpt lat="44.9188783" lon="9.471895"><ele>396.6</ele><time>2026-03-27T09:55:45.646Z</time></trkpt><trkpt lat="44.9188683" lon="9.4720483"><ele>397.4</ele><time>2026-03-27T09:55:46.646Z</time></trkpt><trkpt lat="44.918875" lon="9.47218"><ele>398.2</ele><time>2026-03-27T09:55:47.647Z</time></trkpt><trkpt lat="44.918905" lon="9.47228"><ele>399.0</ele><time>2026-03-27T09:55:48.65Z</time></trkpt><trkpt lat="44.918955" lon="9.4723567"><ele>399.79999999999995</ele><time>2026-03-27T09:55:49.649Z</time></trkpt><trkpt lat="44.91902" lon="9.47243"><ele>400.59999999999997</ele><time>2026-03-27T09:55:50.647Z</time></trkpt><trkpt lat="44.9190983" lon="9.4724917"><ele>401.4</ele><time>2026-03-27T09:55:51.647Z</time></trkpt><trkpt lat="44.9191867" lon="9.4725433"><ele>402.2</ele><time>2026-03-27T09:55:52.646Z</time></trkpt><trkpt lat="44.919285" lon="9.47259"><ele>403.0</ele><time>2026-03-27T09:55:53.648Z</time></trkpt><trkpt lat="44.9193967" lon="9.472645"><ele>405.0</ele><time>2026-03-27T09:55:54.646Z</time></trkpt><trkpt lat="44.9195317" lon="9.4727117"><ele>407.0</ele><time>2026-03-27T09:55:55.648Z</time></trkpt><trkpt lat="44.9196767" lon="9.472785"><ele>409.0</ele><time>2026-03-27T09:55:56.65Z</time></trkpt><trkpt lat="44.91983" lon="9.4728567"><ele>409.0</ele><time>2026-03-27T09:55:57.646Z</time></trkpt><trkpt lat="44.919995" lon="9.47292"><ele>409.0</ele><time>2026-03-27T09:55:58.646Z</time></trkpt><trkpt lat="44.9201717" lon="9.4729633"><ele>409.0</ele><time>2026-03-27T09:55:59.646Z</time></trkpt><trkpt lat="44.9203483" lon="9.473"><ele>409.0</ele><time>2026-03-27T09:56:00.646Z</time></trkpt><trkpt lat="44.920505" lon="9.473065"><ele>409.0</ele><time>2026-03-27T09:56:01.646Z</time></trkpt><trkpt lat="44.9206367" lon="9.4731583"><ele>409.0</ele><time>2026-03-27T09:56:02.649Z</time></trkpt><trkpt lat="44.92075" lon="9.47324"><ele>409.0</ele><time>2026-03-27T09:56:03.646Z</time></trkpt><trkpt lat="44.920855" lon="9.47327"><ele>409.6</ele><time>2026-03-27T09:56:04.646Z</time></trkpt><trkpt lat="44.92095" lon="9.4732367"><ele>410.2</ele><time>2026-03-27T09:56:05.648Z</time></trkpt><trkpt lat="44.921025" lon="9.473145"><ele>410.8</ele><time>2026-03-27T09:56:06.646Z</time></trkpt><trkpt lat="44.9210533" lon="9.4730083"><ele>411.40000000000003</ele><time>2026-03-27T09:56:07.648Z</time></trkpt><trkpt lat="44.92105" lon="9.47285"><ele>412.0</ele><time>2026-03-27T09:56:08.648Z</time></trkpt><trkpt lat="44.9210033" lon="9.4726967"><ele>412.75</ele><time>2026-03-27T09:56:09.648Z</time></trkpt><trkpt lat="44.9209333" lon="9.472545"><ele>413.5</ele><time>2026-03-27T09:56:10.647Z</time></trkpt><trkpt lat="44.9208467" lon="9.472385"><ele>414.25</ele><time>2026-03-27T09:56:11.647Z</time></trkpt><trkpt lat="44.9207383" lon="9.4722383"><ele>415.0</ele><time>2026-03-27T09:56:12.647Z</time></trkpt><trkpt lat="44.92061" lon="9.4721333"><ele>416.6</ele><time>2026-03-27T09:56:13.646Z</time></trkpt><trkpt lat="44.9204917" lon="9.4720667"><ele>418.2</ele><time>2026-03-27T09:56:14.648Z</time></trkpt><trkpt lat="44.9204033" lon="9.4719917"><ele>419.79999999999995</ele><time>2026-03-27T09:56:15.648Z</time></trkpt><trkpt lat="44.920345" lon="9.4718967"><ele>421.4</ele><time>2026-03-27T09:56:16.647Z</time></trkpt><trkpt lat="44.9203133" lon="9.4718033"><ele>423.0</ele><time>2026-03-27T09:56:17.648Z</time></trkpt><trkpt lat="44.920295" lon="9.471705"><ele>423.0</ele><time>2026-03-27T09:56:18.646Z</time></trkpt><trkpt lat="44.920295" lon="9.4716067"><ele>423.0</ele><time>2026-03-27T09:56:19.647Z</time></trkpt><trkpt lat="44.9203183" lon="9.471495"><ele>423.0</ele><time>2026-03-27T09:56:20.646Z</time></trkpt><trkpt lat="44.9203567" lon="9.4713567"><ele>423.0</ele><time>2026-03-27T09:56:21.647Z</time></trkpt><trkpt lat="44.9203917" lon="9.4711917"><ele>423.0</ele><time>2026-03-27T09:56:22.647Z</time></trkpt><trkpt lat="44.9204233" lon="9.4709983"><ele>424.0</ele><time>2026-03-27T09:56:23.646Z</time></trkpt><trkpt lat="44.9204433" lon="9.4708017"><ele>425.0</ele><time>2026-03-27T09:56:24.647Z</time></trkpt><trkpt lat="44.9204567" lon="9.4706"><ele>426.0</ele><time>2026-03-27T09:56:25.646Z</time></trkpt><trkpt lat="44.9204733" lon="9.4704133"><ele>427.0</ele><time>2026-03-27T09:56:26.647Z</time></trkpt><trkpt lat="44.9204983" lon="9.470245"><ele>427.40000000000003</ele><time>2026-03-27T09:56:27.647Z</time></trkpt><trkpt lat="44.9205333" lon="9.4701"><ele>427.80000000000007</ele><time>2026-03-27T09:56:28.646Z</time></trkpt><trkpt lat="44.920595" lon="9.4699817"><ele>428.2</ele><time>2026-03-27T09:56:29.652Z</time></trkpt><trkpt lat="44.920685" lon="9.4698817"><ele>428.6</ele><time>2026-03-27T09:56:30.647Z</time></trkpt><trkpt lat="44.9207817" lon="9.4697783"><ele>429.0</ele><time>2026-03-27T09:56:31.647Z</time></trkpt><trkpt lat="44.920865" lon="9.4696483"><ele>432.0</ele><time>2026-03-27T09:56:32.647Z</time></trkpt><trkpt lat="44.9209217" lon="9.4694917"><ele>435.0</ele><time>2026-03-27T09:56:33.647Z</time></trkpt><trkpt lat="44.9209567" lon="9.4693083"><ele>438.0</ele><time>2026-03-27T09:56:34.646Z</time></trkpt><trkpt lat="44.9209717" lon="9.4691233"><ele>441.0</ele><time>2026-03-27T09:56:35.647Z</time></trkpt><trkpt lat="44.9209767" lon="9.4689583"><ele>441.0</ele><time>2026-03-27T09:56:36.646Z</time></trkpt><trkpt lat="44.920975" lon="9.4688183"><ele>441.0</ele><time>2026-03-27T09:56:37.646Z</time></trkpt><trkpt lat="44.9209783" lon="9.4686883"><ele>441.0</ele><time>2026-03-27T09:56:38.647Z</time></trkpt><trkpt lat="44.921" lon="9.4685417"><ele>441.0</ele><time>2026-03-27T09:56:39.647Z</time></trkpt><trkpt lat="44.9210367" lon="9.4683917"><ele>441.0</ele><time>2026-03-27T09:56:40.647Z</time></trkpt><trkpt lat="44.9210933" lon="9.4682367"><ele>441.0</ele><time>2026-03-27T09:56:41.646Z</time></trkpt><trkpt lat="44.9211617" lon="9.4680783"><ele>441.0</ele><time>2026-03-27T09:56:42.65Z</time></trkpt><trkpt lat="44.92124" lon="9.46792"><ele>441.0</ele><time>2026-03-27T09:56:43.651Z</time></trkpt><trkpt lat="44.9213217" lon="9.467755"><ele>441.0</ele><time>2026-03-27T09:56:44.647Z</time></trkpt><trkpt lat="44.9213983" lon="9.4675817"><ele>440.75</ele><time>2026-03-27T09:56:45.647Z</time></trkpt><trkpt lat="44.9214617" lon="9.4674033"><ele>440.5</ele><time>2026-03-27T09:56:46.647Z</time></trkpt><trkpt lat="44.921515" lon="9.4672167"><ele>440.25</ele><time>2026-03-27T09:56:47.647Z</time></trkpt><trkpt lat="44.9215617" lon="9.4670383"><ele>440.0</ele><time>2026-03-27T09:56:48.647Z</time></trkpt><trkpt lat="44.921605" lon="9.4668733"><ele>439.5</ele><time>2026-03-27T09:56:49.647Z</time></trkpt><trkpt lat="44.9216417" lon="9.4667067"><ele>439.0</ele><time>2026-03-27T09:56:50.646Z</time></trkpt><trkpt lat="44.921655" lon="9.4665333"><ele>438.5</ele><time>2026-03-27T09:56:51.647Z</time></trkpt><trkpt lat="44.9216667" lon="9.4663667"><ele>438.0</ele><time>2026-03-27T09:56:52.646Z</time></trkpt><trkpt lat="44.9216967" lon="9.466215"><ele>441.25</ele><time>2026-03-27T09:56:53.648Z</time></trkpt><trkpt lat="44.92175" lon="9.4660617"><ele>444.5</ele><time>2026-03-27T09:56:54.646Z</time></trkpt><trkpt lat="44.9218183" lon="9.46591"><ele>447.75</ele><time>2026-03-27T09:56:55.647Z</time></trkpt><trkpt lat="44.921895" lon="9.4657567"><ele>451.0</ele><time>2026-03-27T09:56:56.648Z</time></trkpt><trkpt lat="44.9219633" lon="9.4655933"><ele>451.0</ele><time>2026-03-27T09:56:57.647Z</time></trkpt><trkpt lat="44.92202" lon="9.4654067"><ele>451.0</ele><time>2026-03-27T09:56:58.647Z</time></trkpt><trkpt lat="44.92207" lon="9.4652083"><ele>451.0</ele><time>2026-03-27T09:56:59.646Z</time></trkpt><trkpt lat="44.9221167" lon="9.4649967"><ele>451.0</ele><time>2026-03-27T09:57:00.648Z</time></trkpt><trkpt lat="44.9221567" lon="9.4647833"><ele>451.0</ele><time>2026-03-27T09:57:01.647Z</time></trkpt><trkpt lat="44.9221883" lon="9.4645683"><ele>451.0</ele><time>2026-03-27T09:57:02.647Z</time></trkpt><trkpt lat="44.9222167" lon="9.4643533"><ele>452.0</ele><time>2026-03-27T09:57:03.647Z</time></trkpt><trkpt lat="44.9222483" lon="9.4641317"><ele>453.0</ele><time>2026-03-27T09:57:04.646Z</time></trkpt><trkpt lat="44.922275" lon="9.4639167"><ele>454.0</ele><time>2026-03-27T09:57:05.646Z</time></trkpt><trkpt lat="44.92229" lon="9.4637083"><ele>454.33333333333337</ele><time>2026-03-27T09:57:06.646Z</time></trkpt><trkpt lat="44.922285" lon="9.4635033"><ele>454.66666666666663</ele><time>2026-03-27T09:57:07.647Z</time></trkpt><trkpt lat="44.9222633" lon="9.46329"><ele>455.0</ele><time>2026-03-27T09:57:08.649Z</time></trkpt><trkpt lat="44.9222317" lon="9.4630717"><ele>456.66666666666663</ele><time>2026-03-27T09:57:09.647Z</time></trkpt><trkpt lat="44.9222" lon="9.46285"><ele>458.33333333333337</ele><time>2026-03-27T09:57:10.646Z</time></trkpt><trkpt lat="44.9221667" lon="9.4626283"><ele>460.0</ele><time>2026-03-27T09:57:11.646Z</time></trkpt><trkpt lat="44.9221217" lon="9.4624133"><ele>460.0</ele><time>2026-03-27T09:57:12.647Z</time></trkpt><trkpt lat="44.922065" lon="9.46222"><ele>460.0</ele><time>2026-03-27T09:57:13.647Z</time></trkpt><trkpt lat="44.922" lon="9.462045"><ele>460.0</ele><time>2026-03-27T09:57:14.651Z</time></trkpt><trkpt lat="44.921945" lon="9.461865"><ele>460.0</ele><time>2026-03-27T09:57:15.647Z</time></trkpt><trkpt lat="44.9219" lon="9.4616633"><ele>462.33333333333337</ele><time>2026-03-27T09:57:16.647Z</time></trkpt><trkpt lat="44.9218533" lon="9.461455"><ele>464.66666666666663</ele><time>2026-03-27T09:57:17.646Z</time></trkpt><trkpt lat="44.9218167" lon="9.46124"><ele>467.0</ele><time>2026-03-27T09:57:18.648Z</time></trkpt><trkpt lat="44.921795" lon="9.46102"><ele>467.3333333333333</ele><time>2026-03-27T09:57:19.647Z</time></trkpt><trkpt lat="44.921795" lon="9.4607983"><ele>467.66666666666663</ele><time>2026-03-27T09:57:20.648Z</time></trkpt><trkpt lat="44.9218117" lon="9.4605733"><ele>468.0</ele><time>2026-03-27T09:57:21.647Z</time></trkpt><trkpt lat="44.9218317" lon="9.4603467"><ele>468.33333333333337</ele><time>2026-03-27T09:57:22.647Z</time></trkpt><trkpt lat="44.9218417" lon="9.4601183"><ele>468.6666666666667</ele><time>2026-03-27T09:57:23.647Z</time></trkpt><trkpt lat="44.9218383" lon="9.4598917"><ele>469.0</ele><time>2026-03-27T09:57:24.646Z</time></trkpt><trkpt lat="44.9218217" lon="9.4596667"><ele>471.6666666666667</ele><time>2026-03-27T09:57:25.652Z</time></trkpt><trkpt lat="44.9217817" lon="9.459445"><ele>474.33333333333337</ele><time>2026-03-27T09:57:26.647Z</time></trkpt><trkpt lat="44.9217083" lon="9.4592433"><ele>477.0</ele><time>2026-03-27T09:57:27.649Z</time></trkpt><trkpt lat="44.921615" lon="9.4590883"><ele>473.75</ele><time>2026-03-27T09:57:28.647Z</time></trkpt><trkpt lat="44.9215083" lon="9.4589883"><ele>470.5</ele><time>2026-03-27T09:57:29.648Z</time></trkpt><trkpt lat="44.9214067" lon="9.4588817"><ele>467.25</ele><time>2026-03-27T09:57:30.646Z</time></trkpt><trkpt lat="44.9213133" lon="9.4587317"><ele>464.0</ele><time>2026-03-27T09:57:31.646Z</time></trkpt><trkpt lat="44.9212233" lon="9.458565"><ele>464.0</ele><time>2026-03-27T09:57:32.647Z</time></trkpt><trkpt lat="44.921135" lon="9.4584117"><ele>464.0</ele><time>2026-03-27T09:57:33.647Z</time></trkpt><trkpt lat="44.921035" lon="9.45831"><ele>464.0</ele><time>2026-03-27T09:57:34.648Z</time></trkpt><trkpt lat="44.92092" lon="9.458255"><ele>464.0</ele><time>2026-03-27T09:57:35.646Z</time></trkpt><trkpt lat="44.9208017" lon="9.4582233"><ele>464.5</ele><time>2026-03-27T09:57:36.647Z</time></trkpt><trkpt lat="44.9206883" lon="9.458185"><ele>465.0</ele><time>2026-03-27T09:57:37.646Z</time></trkpt><trkpt lat="44.9205767" lon="9.4581167"><ele>465.5</ele><time>2026-03-27T09:57:38.647Z</time></trkpt><trkpt lat="44.9204733" lon="9.4580217"><ele>466.0</ele><time>2026-03-27T09:57:39.647Z</time></trkpt><trkpt lat="44.92038" lon="9.4579033"><ele>466.0</ele><time>2026-03-27T09:57:40.649Z</time></trkpt><trkpt lat="44.9203017" lon="9.457775"><ele>466.0</ele><time>2026-03-27T09:57:41.648Z</time></trkpt><trkpt lat="44.9202317" lon="9.4576483"><ele>466.0</ele><time>2026-03-27T09:57:42.648Z</time></trkpt><trkpt lat="44.92017" lon="9.4575167"><ele>466.0</ele><time>2026-03-27T09:57:43.646Z</time></trkpt><trkpt lat="44.920125" lon="9.45737"><ele>466.0</ele><time>2026-03-27T09:57:44.648Z</time></trkpt><trkpt lat="44.920105" lon="9.4572083"><ele>466.0</ele><time>2026-03-27T09:57:45.648Z</time></trkpt><trkpt lat="44.9200967" lon="9.457055"><ele>466.0</ele><time>2026-03-27T09:57:46.649Z</time></trkpt><trkpt lat="44.9200817" lon="9.456905"><ele>466.0</ele><time>2026-03-27T09:57:47.651Z</time></trkpt><trkpt lat="44.9200467" lon="9.4567533"><ele>466.0</ele><time>2026-03-27T09:57:48.647Z</time></trkpt><trkpt lat="44.91999" lon="9.4566033"><ele>465.25</ele><time>2026-03-27T09:57:49.647Z</time></trkpt><trkpt lat="44.919935" lon="9.4564517"><ele>464.5</ele><time>2026-03-27T09:57:50.647Z</time></trkpt><trkpt lat="44.9198917" lon="9.4562967"><ele>463.75</ele><time>2026-03-27T09:57:51.647Z</time></trkpt><trkpt lat="44.91987" lon="9.456125"><ele>463.0</ele><time>2026-03-27T09:57:52.647Z</time></trkpt><trkpt lat="44.9198767" lon="9.4559483"><ele>464.75</ele><time>2026-03-27T09:57:53.647Z</time></trkpt><trkpt lat="44.9199117" lon="9.4557617"><ele>466.5</ele><time>2026-03-27T09:57:54.651Z</time></trkpt><trkpt lat="44.9199583" lon="9.4555667"><ele>468.25</ele><time>2026-03-27T09:57:55.646Z</time></trkpt><trkpt lat="44.92002" lon="9.4553817"><ele>470.0</ele><time>2026-03-27T09:57:56.648Z</time></trkpt><trkpt lat="44.9200783" lon="9.45522"><ele>472.25</ele><time>2026-03-27T09:57:57.647Z</time></trkpt><trkpt lat="44.9201233" lon="9.4550467"><ele>474.5</ele><time>2026-03-27T09:57:58.646Z</time></trkpt><trkpt lat="44.9201483" lon="9.4548683"><ele>476.75</ele><time>2026-03-27T09:57:59.649Z</time></trkpt><trkpt lat="44.9201533" lon="9.4546833"><ele>479.0</ele><time>2026-03-27T09:58:00.647Z</time></trkpt><trkpt lat="44.9201367" lon="9.454505"><ele>479.0</ele><time>2026-03-27T09:58:01.646Z</time></trkpt><trkpt lat="44.9201017" lon="9.45434"><ele>479.0</ele><time>2026-03-27T09:58:02.648Z</time></trkpt><trkpt lat="44.9200433" lon="9.45419"><ele>479.0</ele><time>2026-03-27T09:58:03.648Z</time></trkpt><trkpt lat="44.91996" lon="9.45408"><ele>479.0</ele><time>2026-03-27T09:58:04.646Z</time></trkpt><trkpt lat="44.91985" lon="9.4540167"><ele>479.0</ele><time>2026-03-27T09:58:05.65Z</time></trkpt><trkpt lat="44.919735" lon="9.4539933"><ele>479.0</ele><time>2026-03-27T09:58:06.647Z</time></trkpt><trkpt lat="44.9196233" lon="9.453975"><ele>479.0</ele><time>2026-03-27T09:58:07.647Z</time></trkpt><trkpt lat="44.9195133" lon="9.4539467"><ele>479.0</ele><time>2026-03-27T09:58:08.647Z</time></trkpt><trkpt lat="44.9193983" lon="9.453905"><ele>479.0</ele><time>2026-03-27T09:58:09.647Z</time></trkpt><trkpt lat="44.9192767" lon="9.45385"><ele>479.0</ele><time>2026-03-27T09:58:10.646Z</time></trkpt><trkpt lat="44.9191483" lon="9.4537883"><ele>479.0</ele><time>2026-03-27T09:58:11.646Z</time></trkpt><trkpt lat="44.9190233" lon="9.4537333"><ele>479.0</ele><time>2026-03-27T09:58:12.647Z</time></trkpt><trkpt lat="44.9189167" lon="9.45369"><ele>480.3333333333333</ele><time>2026-03-27T09:58:13.647Z</time></trkpt><trkpt lat="44.918825" lon="9.453645"><ele>481.66666666666663</ele><time>2026-03-27T09:58:14.648Z</time></trkpt><trkpt lat="44.91875" lon="9.4535867"><ele>483.0</ele><time>2026-03-27T09:58:15.648Z</time></trkpt><trkpt lat="44.9187067" lon="9.4535083"><ele>484.33333333333337</ele><time>2026-03-27T09:58:16.647Z</time></trkpt><trkpt lat="44.91872" lon="9.4534133"><ele>485.6666666666667</ele><time>2026-03-27T09:58:17.646Z</time></trkpt><trkpt lat="44.9187767" lon="9.4533633"><ele>487.0</ele><time>2026-03-27T09:58:18.647Z</time></trkpt><trkpt lat="44.9188467" lon="9.453345"><ele>487.0</ele><time>2026-03-27T09:58:19.647Z</time></trkpt><trkpt lat="44.918935" lon="9.4533717"><ele>487.00000000000006</ele><time>2026-03-27T09:58:20.65Z</time></trkpt><trkpt lat="44.91903" lon="9.45341"><ele>487.00000000000006</ele><time>2026-03-27T09:58:21.647Z</time></trkpt><trkpt lat="44.9191367" lon="9.453445"><ele>487.0</ele><time>2026-03-27T09:58:22.647Z</time></trkpt><trkpt lat="44.91925" lon="9.4534633"><ele>487.0</ele><time>2026-03-27T09:58:23.648Z</time></trkpt><trkpt lat="44.9193533" lon="9.4534717"><ele>486.50000000000006</ele><time>2026-03-27T09:58:24.647Z</time></trkpt><trkpt lat="44.9194433" lon="9.4534667"><ele>486.0</ele><time>2026-03-27T09:58:25.646Z</time></trkpt><trkpt lat="44.91952" lon="9.4534367"><ele>485.5</ele><time>2026-03-27T09:58:26.647Z</time></trkpt><trkpt lat="44.9195783" lon="9.453385"><ele>485.0</ele><time>2026-03-27T09:58:27.647Z</time></trkpt><trkpt lat="44.919615" lon="9.4532467"><ele>484.50000000000006</ele><time>2026-03-27T09:58:29.647Z</time></trkpt><trkpt lat="44.9195867" lon="9.4531667"><ele>484.0</ele><time>2026-03-27T09:58:30.647Z</time></trkpt><trkpt lat="44.919535" lon="9.453095"><ele>484.0</ele><time>2026-03-27T09:58:31.646Z</time></trkpt><trkpt lat="44.91947" lon="9.4530083"><ele>484.0</ele><time>2026-03-27T09:58:32.647Z</time></trkpt><trkpt lat="44.919395" lon="9.452905"><ele>484.0</ele><time>2026-03-27T09:58:33.646Z</time></trkpt><trkpt lat="44.9193083" lon="9.452785"><ele>484.0</ele><time>2026-03-27T09:58:34.646Z</time></trkpt><trkpt lat="44.9192133" lon="9.4526617"><ele>484.0</ele><time>2026-03-27T09:58:35.651Z</time></trkpt><trkpt lat="44.9191083" lon="9.45254"><ele>484.5</ele><time>2026-03-27T09:58:36.647Z</time></trkpt><trkpt lat="44.918995" lon="9.4524233"><ele>485.0</ele><time>2026-03-27T09:58:37.646Z</time></trkpt><trkpt lat="44.9188767" lon="9.4523"><ele>485.5</ele><time>2026-03-27T09:58:38.647Z</time></trkpt><trkpt lat="44.918755" lon="9.4521667"><ele>486.0</ele><time>2026-03-27T09:58:39.647Z</time></trkpt><trkpt lat="44.9186517" lon="9.4520317"><ele>484.0</ele><time>2026-03-27T09:58:40.646Z</time></trkpt><trkpt lat="44.91856" lon="9.4518767"><ele>482.0</ele><time>2026-03-27T09:58:41.646Z</time></trkpt><trkpt lat="44.9184817" lon="9.4516967"><ele>480.0</ele><time>2026-03-27T09:58:42.646Z</time></trkpt><trkpt lat="44.9184217" lon="9.4514917"><ele>483.25</ele><time>2026-03-27T09:58:43.646Z</time></trkpt><trkpt lat="44.9183733" lon="9.4512783"><ele>486.5</ele><time>2026-03-27T09:58:44.647Z</time></trkpt><trkpt lat="44.9183317" lon="9.4510717"><ele>489.75</ele><time>2026-03-27T09:58:45.647Z</time></trkpt><trkpt lat="44.9182783" lon="9.4509"><ele>493.0</ele><time>2026-03-27T09:58:46.651Z</time></trkpt><trkpt lat="44.9182117" lon="9.4507683"><ele>493.0</ele><time>2026-03-27T09:58:47.65Z</time></trkpt><trkpt lat="44.9181183" lon="9.450685"><ele>493.0</ele><time>2026-03-27T09:58:48.649Z</time></trkpt><trkpt lat="44.9180133" lon="9.4506433"><ele>493.0</ele><time>2026-03-27T09:58:49.647Z</time></trkpt><trkpt lat="44.9178983" lon="9.4506033"><ele>493.0</ele><time>2026-03-27T09:58:50.647Z</time></trkpt><trkpt lat="44.9177817" lon="9.4505233"><ele>491.75</ele><time>2026-03-27T09:58:51.647Z</time></trkpt><trkpt lat="44.9176733" lon="9.4504"><ele>490.5</ele><time>2026-03-27T09:58:52.648Z</time></trkpt><trkpt lat="44.9175983" lon="9.4502367"><ele>489.25</ele><time>2026-03-27T09:58:53.648Z</time></trkpt><trkpt lat="44.9175467" lon="9.4500467"><ele>488.0</ele><time>2026-03-27T09:58:54.647Z</time></trkpt><trkpt lat="44.9175033" lon="9.449845"><ele>489.5</ele><time>2026-03-27T09:58:55.646Z</time></trkpt><trkpt lat="44.9174567" lon="9.44964"><ele>491.0</ele><time>2026-03-27T09:58:56.648Z</time></trkpt><trkpt lat="44.9174033" lon="9.4494433"><ele>492.5</ele><time>2026-03-27T09:58:57.65Z</time></trkpt><trkpt lat="44.9173517" lon="9.449255"><ele>494.0</ele><time>2026-03-27T09:58:58.648Z</time></trkpt><trkpt lat="44.917295" lon="9.4490717"><ele>494.0</ele><time>2026-03-27T09:58:59.647Z</time></trkpt><trkpt lat="44.9172383" lon="9.4488833"><ele>494.0</ele><time>2026-03-27T09:59:00.648Z</time></trkpt><trkpt lat="44.9171817" lon="9.4486883"><ele>494.0</ele><time>2026-03-27T09:59:01.647Z</time></trkpt><trkpt lat="44.9171267" lon="9.4484867"><ele>494.0</ele><time>2026-03-27T09:59:02.647Z</time></trkpt><trkpt lat="44.9170767" lon="9.4482833"><ele>494.3333333333333</ele><time>2026-03-27T09:59:03.647Z</time></trkpt><trkpt lat="44.9170317" lon="9.448075"><ele>494.66666666666663</ele><time>2026-03-27T09:59:04.648Z</time></trkpt><trkpt lat="44.9169917" lon="9.4478667"><ele>495.0</ele><time>2026-03-27T09:59:05.648Z</time></trkpt><trkpt lat="44.916955" lon="9.44767"><ele>496.0</ele><time>2026-03-27T09:59:06.646Z</time></trkpt><trkpt lat="44.9169233" lon="9.4474833"><ele>497.0</ele><time>2026-03-27T09:59:07.646Z</time></trkpt><trkpt lat="44.916905" lon="9.447295"><ele>498.0</ele><time>2026-03-27T09:59:08.648Z</time></trkpt><trkpt lat="44.9169133" lon="9.44712"><ele>499.0</ele><time>2026-03-27T09:59:09.648Z</time></trkpt><trkpt lat="44.9169367" lon="9.4469683"><ele>499.79999999999995</ele><time>2026-03-27T09:59:10.649Z</time></trkpt><trkpt lat="44.91696" lon="9.4468283"><ele>500.59999999999997</ele><time>2026-03-27T09:59:11.648Z</time></trkpt><trkpt lat="44.9169717" lon="9.4466933"><ele>501.4</ele><time>2026-03-27T09:59:12.648Z</time></trkpt><trkpt lat="44.9169733" lon="9.4465633"><ele>502.2</ele><time>2026-03-27T09:59:13.649Z</time></trkpt><trkpt lat="44.91697" lon="9.4464383"><ele>503.0</ele><time>2026-03-27T09:59:14.648Z</time></trkpt><trkpt lat="44.9169617" lon="9.4463183"><ele>504.0</ele><time>2026-03-27T09:59:15.646Z</time></trkpt><trkpt lat="44.916935" lon="9.4462033"><ele>504.99999999999994</ele><time>2026-03-27T09:59:16.647Z</time></trkpt><trkpt lat="44.9168833" lon="9.446095"><ele>505.99999999999994</ele><time>2026-03-27T09:59:17.648Z</time></trkpt><trkpt lat="44.916815" lon="9.4459883"><ele>507.0</ele><time>2026-03-27T09:59:18.648Z</time></trkpt><trkpt lat="44.9167283" lon="9.44591"><ele>508.0</ele><time>2026-03-27T09:59:19.649Z</time></trkpt><trkpt lat="44.9166283" lon="9.445845"><ele>508.5</ele><time>2026-03-27T09:59:20.648Z</time></trkpt><trkpt lat="44.916525" lon="9.44577"><ele>509.0</ele><time>2026-03-27T09:59:21.648Z</time></trkpt><trkpt lat="44.916425" lon="9.4456783"><ele>509.5</ele><time>2026-03-27T09:59:22.648Z</time></trkpt><trkpt lat="44.916325" lon="9.4455783"><ele>510.0</ele><time>2026-03-27T09:59:23.649Z</time></trkpt><trkpt lat="44.9162233" lon="9.445475"><ele>509.0</ele><time>2026-03-27T09:59:24.647Z</time></trkpt><trkpt lat="44.9161233" lon="9.4453717"><ele>508.0</ele><time>2026-03-27T09:59:25.647Z</time></trkpt><trkpt lat="44.916025" lon="9.4452983"><ele>507.0</ele><time>2026-03-27T09:59:26.647Z</time></trkpt><trkpt lat="44.91591" lon="9.4452633"><ele>506.0</ele><time>2026-03-27T09:59:27.65Z</time></trkpt><trkpt lat="44.91579" lon="9.445265"><ele>506.0</ele><time>2026-03-27T09:59:28.648Z</time></trkpt><trkpt lat="44.9156683" lon="9.4452983"><ele>506.0</ele><time>2026-03-27T09:59:29.647Z</time></trkpt><trkpt lat="44.9155417" lon="9.4453533"><ele>506.0</ele><time>2026-03-27T09:59:30.647Z</time></trkpt><trkpt lat="44.9154117" lon="9.445415"><ele>506.0</ele><time>2026-03-27T09:59:31.649Z</time></trkpt><trkpt lat="44.9152717" lon="9.4454617"><ele>509.3333333333333</ele><time>2026-03-27T09:59:32.647Z</time></trkpt><trkpt lat="44.9151217" lon="9.4454867"><ele>512.6666666666666</ele><time>2026-03-27T09:59:33.647Z</time></trkpt><trkpt lat="44.914965" lon="9.4454867"><ele>516.0</ele><time>2026-03-27T09:59:34.647Z</time></trkpt><trkpt lat="44.91481" lon="9.4454767"><ele>516.0</ele><time>2026-03-27T09:59:35.647Z</time></trkpt><trkpt lat="44.9146617" lon="9.4454717"><ele>516.0</ele><time>2026-03-27T09:59:36.647Z</time></trkpt><trkpt lat="44.91452" lon="9.44548"><ele>516.0</ele><time>2026-03-27T09:59:37.648Z</time></trkpt><trkpt lat="44.9143833" lon="9.4455"><ele>516.0</ele><time>2026-03-27T09:59:38.647Z</time></trkpt><trkpt lat="44.9142617" lon="9.4455417"><ele>513.75</ele><time>2026-03-27T09:59:39.648Z</time></trkpt><trkpt lat="44.9141567" lon="9.445615"><ele>511.5</ele><time>2026-03-27T09:59:40.647Z</time></trkpt><trkpt lat="44.914065" lon="9.44573"><ele>509.25</ele><time>2026-03-27T09:59:41.647Z</time></trkpt><trkpt lat="44.9139783" lon="9.4458717"><ele>507.0</ele><time>2026-03-27T09:59:42.647Z</time></trkpt><trkpt lat="44.9138833" lon="9.446015"><ele>507.0</ele><time>2026-03-27T09:59:43.651Z</time></trkpt><trkpt lat="44.91378" lon="9.44616"><ele>507.0</ele><time>2026-03-27T09:59:44.648Z</time></trkpt><trkpt lat="44.9136683" lon="9.4463017"><ele>507.0</ele><time>2026-03-27T09:59:45.646Z</time></trkpt><trkpt lat="44.91355" lon="9.4464383"><ele>507.0</ele><time>2026-03-27T09:59:46.647Z</time></trkpt><trkpt lat="44.9134267" lon="9.4465733"><ele>506.0</ele><time>2026-03-27T09:59:47.649Z</time></trkpt><trkpt lat="44.9133017" lon="9.4467117"><ele>505.0</ele><time>2026-03-27T09:59:48.651Z</time></trkpt><trkpt lat="44.9131767" lon="9.446855"><ele>504.0</ele><time>2026-03-27T09:59:49.647Z</time></trkpt><trkpt lat="44.9130517" lon="9.4469917"><ele>504.0</ele><time>2026-03-27T09:59:50.648Z</time></trkpt><trkpt lat="44.9129217" lon="9.44711"><ele>504.0</ele><time>2026-03-27T09:59:51.648Z</time></trkpt><trkpt lat="44.912785" lon="9.447215"><ele>504.0</ele><time>2026-03-27T09:59:52.647Z</time></trkpt><trkpt lat="44.9126583" lon="9.4473267"><ele>504.25</ele><time>2026-03-27T09:59:53.648Z</time></trkpt><trkpt lat="44.9125467" lon="9.447445"><ele>504.5</ele><time>2026-03-27T09:59:54.648Z</time></trkpt><trkpt lat="44.9124533" lon="9.4475583"><ele>504.75</ele><time>2026-03-27T09:59:55.647Z</time></trkpt><trkpt lat="44.91235" lon="9.4476467"><ele>505.0</ele><time>2026-03-27T09:59:56.647Z</time></trkpt><trkpt lat="44.9122333" lon="9.4477033"><ele>505.0</ele><time>2026-03-27T09:59:57.649Z</time></trkpt><trkpt lat="44.912105" lon="9.4477183"><ele>505.0</ele><time>2026-03-27T09:59:58.647Z</time></trkpt><trkpt lat="44.9119683" lon="9.4477033"><ele>505.0</ele><time>2026-03-27T09:59:59.649Z</time></trkpt><trkpt lat="44.9118317" lon="9.4476683"><ele>505.0</ele><time>2026-03-27T10:00:00.653Z</time></trkpt><trkpt lat="44.91171" lon="9.44762"><ele>506.0</ele><time>2026-03-27T10:00:01.647Z</time></trkpt><trkpt lat="44.911595" lon="9.4475733"><ele>507.0</ele><time>2026-03-27T10:00:02.648Z</time></trkpt><trkpt lat="44.9114767" lon="9.44755"><ele>508.0</ele><time>2026-03-27T10:00:03.648Z</time></trkpt><trkpt lat="44.9113517" lon="9.4475533"><ele>509.0</ele><time>2026-03-27T10:00:04.647Z</time></trkpt><trkpt lat="44.91122" lon="9.4475767"><ele>509.0</ele><time>2026-03-27T10:00:05.649Z</time></trkpt><trkpt lat="44.91108" lon="9.4476133"><ele>509.0</ele><time>2026-03-27T10:00:06.649Z</time></trkpt><trkpt lat="44.9109333" lon="9.4476633"><ele>509.0</ele><time>2026-03-27T10:00:07.648Z</time></trkpt><trkpt lat="44.9107833" lon="9.4477167"><ele>509.0</ele><time>2026-03-27T10:00:08.648Z</time></trkpt><trkpt lat="44.9106383" lon="9.4477667"><ele>509.0</ele><time>2026-03-27T10:00:09.648Z</time></trkpt><trkpt lat="44.9104983" lon="9.4478183"><ele>509.0</ele><time>2026-03-27T10:00:10.647Z</time></trkpt><trkpt lat="44.9103717" lon="9.4478733"><ele>509.0</ele><time>2026-03-27T10:00:11.65Z</time></trkpt><trkpt lat="44.910255" lon="9.447925"><ele>509.0</ele><time>2026-03-27T10:00:12.646Z</time></trkpt><trkpt lat="44.910145" lon="9.4479733"><ele>510.75</ele><time>2026-03-27T10:00:13.649Z</time></trkpt><trkpt lat="44.9100383" lon="9.4480233"><ele>512.5</ele><time>2026-03-27T10:00:14.648Z</time></trkpt><trkpt lat="44.90993" lon="9.4480867"><ele>514.25</ele><time>2026-03-27T10:00:15.649Z</time></trkpt><trkpt lat="44.9098183" lon="9.448155"><ele>516.0</ele><time>2026-03-27T10:00:16.647Z</time></trkpt><trkpt lat="44.9097" lon="9.4482233"><ele>516.0</ele><time>2026-03-27T10:00:17.647Z</time></trkpt><trkpt lat="44.909585" lon="9.4482867"><ele>516.0</ele><time>2026-03-27T10:00:18.649Z</time></trkpt><trkpt lat="44.90947" lon="9.4483383"><ele>516.0</ele><time>2026-03-27T10:00:19.648Z</time></trkpt><trkpt lat="44.9093517" lon="9.4483667"><ele>516.0</ele><time>2026-03-27T10:00:20.647Z</time></trkpt><trkpt lat="44.9092267" lon="9.44836"><ele>515.0</ele><time>2026-03-27T10:00:21.65Z</time></trkpt><trkpt lat="44.9091017" lon="9.4483133"><ele>514.0</ele><time>2026-03-27T10:00:22.648Z</time></trkpt><trkpt lat="44.9089767" lon="9.448255"><ele>513.0</ele><time>2026-03-27T10:00:23.647Z</time></trkpt><trkpt lat="44.9088567" lon="9.44816"><ele>512.0</ele><time>2026-03-27T10:00:24.647Z</time></trkpt><trkpt lat="44.9087483" lon="9.4480683"><ele>512.0</ele><time>2026-03-27T10:00:25.647Z</time></trkpt><trkpt lat="44.908645" lon="9.44798"><ele>512.0</ele><time>2026-03-27T10:00:26.649Z</time></trkpt><trkpt lat="44.9085233" lon="9.44791"><ele>512.0</ele><time>2026-03-27T10:00:27.647Z</time></trkpt><trkpt lat="44.90839" lon="9.4478633"><ele>512.0</ele><time>2026-03-27T10:00:28.649Z</time></trkpt><trkpt lat="44.9082517" lon="9.4478317"><ele>509.66666666666663</ele><time>2026-03-27T10:00:29.647Z</time></trkpt><trkpt lat="44.908105" lon="9.4478067"><ele>507.33333333333337</ele><time>2026-03-27T10:00:30.65Z</time></trkpt><trkpt lat="44.90795" lon="9.4477767"><ele>505.0</ele><time>2026-03-27T10:00:31.648Z</time></trkpt><trkpt lat="44.9077967" lon="9.4477467"><ele>505.0</ele><time>2026-03-27T10:00:32.649Z</time></trkpt><trkpt lat="44.907645" lon="9.4477183"><ele>505.0</ele><time>2026-03-27T10:00:33.648Z</time></trkpt><trkpt lat="44.9074917" lon="9.4476967"><ele>505.0</ele><time>2026-03-27T10:00:34.647Z</time></trkpt><trkpt lat="44.9073383" lon="9.4476783"><ele>503.6666666666667</ele><time>2026-03-27T10:00:35.648Z</time></trkpt><trkpt lat="44.907185" lon="9.4476633"><ele>502.33333333333337</ele><time>2026-03-27T10:00:36.647Z</time></trkpt><trkpt lat="44.9070383" lon="9.447645"><ele>501.0</ele><time>2026-03-27T10:00:37.647Z</time></trkpt><trkpt lat="44.90689" lon="9.447625"><ele>501.0</ele><time>2026-03-27T10:00:38.651Z</time></trkpt><trkpt lat="44.90675" lon="9.4476017"><ele>501.0</ele><time>2026-03-27T10:00:39.649Z</time></trkpt><trkpt lat="44.9066133" lon="9.447575"><ele>501.0</ele><time>2026-03-27T10:00:40.647Z</time></trkpt><trkpt lat="44.90649" lon="9.447535"><ele>501.0</ele><time>2026-03-27T10:00:41.646Z</time></trkpt><trkpt lat="44.9063667" lon="9.447475"><ele>500.0</ele><time>2026-03-27T10:00:42.646Z</time></trkpt><trkpt lat="44.9062533" lon="9.44739"><ele>499.0</ele><time>2026-03-27T10:00:43.647Z</time></trkpt><trkpt lat="44.9061433" lon="9.4472783"><ele>498.0</ele><time>2026-03-27T10:00:44.647Z</time></trkpt><trkpt lat="44.90604" lon="9.44716"><ele>497.0</ele><time>2026-03-27T10:00:45.646Z</time></trkpt><trkpt lat="44.9059417" lon="9.44705"><ele>497.0</ele><time>2026-03-27T10:00:46.651Z</time></trkpt><trkpt lat="44.9058333" lon="9.4469417"><ele>497.0</ele><time>2026-03-27T10:00:47.647Z</time></trkpt><trkpt lat="44.905715" lon="9.446855"><ele>497.0</ele><time>2026-03-27T10:00:48.647Z</time></trkpt><trkpt lat="44.9055867" lon="9.4468"><ele>497.0</ele><time>2026-03-27T10:00:49.648Z</time></trkpt><trkpt lat="44.9054583" lon="9.44677"><ele>497.0</ele><time>2026-03-27T10:00:50.648Z</time></trkpt><trkpt lat="44.90533" lon="9.4467483"><ele>497.0</ele><time>2026-03-27T10:00:51.648Z</time></trkpt><trkpt lat="44.9052017" lon="9.44673"><ele>497.0</ele><time>2026-03-27T10:00:52.648Z</time></trkpt><trkpt lat="44.90508" lon="9.4467133"><ele>497.0</ele><time>2026-03-27T10:00:53.648Z</time></trkpt><trkpt lat="44.9049583" lon="9.4466933"><ele>498.25</ele><time>2026-03-27T10:00:54.647Z</time></trkpt><trkpt lat="44.90483" lon="9.4466683"><ele>499.5</ele><time>2026-03-27T10:00:55.649Z</time></trkpt><trkpt lat="44.9047033" lon="9.4466417"><ele>500.75</ele><time>2026-03-27T10:00:56.649Z</time></trkpt><trkpt lat="44.90459" lon="9.4466233"><ele>502.0</ele><time>2026-03-27T10:00:57.646Z</time></trkpt><trkpt lat="44.9044867" lon="9.4466033"><ele>502.0</ele><time>2026-03-27T10:00:58.648Z</time></trkpt><trkpt lat="44.9043867" lon="9.4465867"><ele>502.00000000000006</ele><time>2026-03-27T10:00:59.649Z</time></trkpt><trkpt lat="44.90428" lon="9.4465733"><ele>502.00000000000006</ele><time>2026-03-27T10:01:00.648Z</time></trkpt><trkpt lat="44.9041733" lon="9.44656"><ele>502.0</ele><time>2026-03-27T10:01:01.648Z</time></trkpt><trkpt lat="44.904065" lon="9.4465483"><ele>502.0</ele><time>2026-03-27T10:01:02.649Z</time></trkpt><trkpt lat="44.9039583" lon="9.4465267"><ele>501.25</ele><time>2026-03-27T10:01:03.649Z</time></trkpt><trkpt lat="44.9038467" lon="9.446505"><ele>500.5</ele><time>2026-03-27T10:01:04.648Z</time></trkpt><trkpt lat="44.9037367" lon="9.4464817"><ele>499.75</ele><time>2026-03-27T10:01:05.648Z</time></trkpt><trkpt lat="44.903625" lon="9.4464417"><ele>499.0</ele><time>2026-03-27T10:01:06.649Z</time></trkpt><trkpt lat="44.9035117" lon="9.4463933"><ele>498.0</ele><time>2026-03-27T10:01:07.648Z</time></trkpt><trkpt lat="44.9033867" lon="9.4463333"><ele>497.0</ele><time>2026-03-27T10:01:08.65Z</time></trkpt><trkpt lat="44.90326" lon="9.4462567"><ele>496.0</ele><time>2026-03-27T10:01:09.646Z</time></trkpt><trkpt lat="44.9031283" lon="9.4461567"><ele>495.0</ele><time>2026-03-27T10:01:10.646Z</time></trkpt><trkpt lat="44.9029983" lon="9.4460317"><ele>494.25</ele><time>2026-03-27T10:01:11.648Z</time></trkpt><trkpt lat="44.9028833" lon="9.4459017"><ele>493.5</ele><time>2026-03-27T10:01:12.647Z</time></trkpt><trkpt lat="44.9027783" lon="9.4457883"><ele>492.75</ele><time>2026-03-27T10:01:13.648Z</time></trkpt><trkpt lat="44.9026633" lon="9.445695"><ele>492.0</ele><time>2026-03-27T10:01:14.647Z</time></trkpt><trkpt lat="44.902535" lon="9.445625"><ele>492.0</ele><time>2026-03-27T10:01:15.646Z</time></trkpt><trkpt lat="44.9023967" lon="9.4455767"><ele>492.0</ele><time>2026-03-27T10:01:16.648Z</time></trkpt><trkpt lat="44.9022617" lon="9.44553"><ele>492.0</ele><time>2026-03-27T10:01:17.647Z</time></trkpt><trkpt lat="44.9021283" lon="9.4454767"><ele>492.0</ele><time>2026-03-27T10:01:18.648Z</time></trkpt><trkpt lat="44.9019883" lon="9.4454167"><ele>492.0</ele><time>2026-03-27T10:01:19.649Z</time></trkpt><trkpt lat="44.9018433" lon="9.44536"><ele>492.0</ele><time>2026-03-27T10:01:20.648Z</time></trkpt><trkpt lat="44.90171" lon="9.4453067"><ele>492.0</ele><time>2026-03-27T10:01:21.648Z</time></trkpt><trkpt lat="44.9015867" lon="9.4452483"><ele>492.0</ele><time>2026-03-27T10:01:22.648Z</time></trkpt><trkpt lat="44.9014783" lon="9.44517"><ele>492.25</ele><time>2026-03-27T10:01:23.652Z</time></trkpt><trkpt lat="44.901385" lon="9.4450633"><ele>492.5</ele><time>2026-03-27T10:01:24.647Z</time></trkpt><trkpt lat="44.9013017" lon="9.4449217"><ele>492.75</ele><time>2026-03-27T10:01:25.648Z</time></trkpt><trkpt lat="44.9012267" lon="9.4447567"><ele>493.0</ele><time>2026-03-27T10:01:26.65Z</time></trkpt><trkpt lat="44.901155" lon="9.44458"><ele>493.0</ele><time>2026-03-27T10:01:27.647Z</time></trkpt><trkpt lat="44.9010783" lon="9.44442"><ele>493.0</ele><time>2026-03-27T10:01:28.65Z</time></trkpt><trkpt lat="44.9010033" lon="9.4442917"><ele>493.0</ele><time>2026-03-27T10:01:29.649Z</time></trkpt><trkpt lat="44.9009333" lon="9.4441817"><ele>493.0</ele><time>2026-03-27T10:01:30.647Z</time></trkpt><trkpt lat="44.9008783" lon="9.444065"><ele>495.83333333333337</ele><time>2026-03-27T10:01:31.647Z</time></trkpt><trkpt lat="44.900855" lon="9.4439383"><ele>498.6666666666667</ele><time>2026-03-27T10:01:32.648Z</time></trkpt><trkpt lat="44.900855" lon="9.4438167"><ele>501.5</ele><time>2026-03-27T10:01:33.648Z</time></trkpt><trkpt lat="44.9008467" lon="9.4437017"><ele>504.33333333333337</ele><time>2026-03-27T10:01:34.647Z</time></trkpt><trkpt lat="44.9008267" lon="9.4435883"><ele>507.1666666666667</ele><time>2026-03-27T10:01:35.649Z</time></trkpt><trkpt lat="44.9007983" lon="9.443485"><ele>510.0</ele><time>2026-03-27T10:01:36.647Z</time></trkpt><trkpt lat="44.9007667" lon="9.4433933"><ele>511.0</ele><time>2026-03-27T10:01:37.648Z</time></trkpt><trkpt lat="44.9007333" lon="9.4433"><ele>512.0</ele><time>2026-03-27T10:01:38.649Z</time></trkpt><trkpt lat="44.9007033" lon="9.4432133"><ele>513.0</ele><time>2026-03-27T10:01:39.647Z</time></trkpt><trkpt lat="44.90067" lon="9.4431267"><ele>514.0</ele><time>2026-03-27T10:01:40.647Z</time></trkpt><trkpt lat="44.9006333" lon="9.44302"><ele>515.0</ele><time>2026-03-27T10:01:41.647Z</time></trkpt><trkpt lat="44.9005817" lon="9.4428917"><ele>516.0</ele><time>2026-03-27T10:01:42.647Z</time></trkpt><trkpt lat="44.90052" lon="9.4427483"><ele>516.0</ele><time>2026-03-27T10:01:43.647Z</time></trkpt><trkpt lat="44.9004583" lon="9.4425817"><ele>516.0</ele><time>2026-03-27T10:01:44.647Z</time></trkpt><trkpt lat="44.90041" lon="9.4423917"><ele>516.0</ele><time>2026-03-27T10:01:45.646Z</time></trkpt><trkpt lat="44.90037" lon="9.4421967"><ele>516.0</ele><time>2026-03-27T10:01:46.646Z</time></trkpt><trkpt lat="44.9003183" lon="9.4420167"><ele>515.5</ele><time>2026-03-27T10:01:47.649Z</time></trkpt><trkpt lat="44.90025" lon="9.4418583"><ele>515.0</ele><time>2026-03-27T10:01:48.648Z</time></trkpt><trkpt lat="44.9001733" lon="9.4417067"><ele>514.5</ele><time>2026-03-27T10:01:49.646Z</time></trkpt><trkpt lat="44.9000867" lon="9.44156"><ele>514.0</ele><time>2026-03-27T10:01:50.649Z</time></trkpt><trkpt lat="44.8999983" lon="9.44143"><ele>514.0</ele><time>2026-03-27T10:01:51.647Z</time></trkpt><trkpt lat="44.8999133" lon="9.4413167"><ele>514.0</ele><time>2026-03-27T10:01:52.648Z</time></trkpt><trkpt lat="44.8998333" lon="9.4412017"><ele>514.0</ele><time>2026-03-27T10:01:53.647Z</time></trkpt><trkpt lat="44.8997667" lon="9.4410717"><ele>514.0</ele><time>2026-03-27T10:01:54.647Z</time></trkpt><trkpt lat="44.8997167" lon="9.4409283"><ele>512.5</ele><time>2026-03-27T10:01:55.649Z</time></trkpt><trkpt lat="44.8996833" lon="9.4407683"><ele>511.0</ele><time>2026-03-27T10:01:56.647Z</time></trkpt><trkpt lat="44.899655" lon="9.440595"><ele>509.5</ele><time>2026-03-27T10:01:57.646Z</time></trkpt><trkpt lat="44.8996167" lon="9.4404167"><ele>508.0</ele><time>2026-03-27T10:01:58.647Z</time></trkpt><trkpt lat="44.8995383" lon="9.4402317"><ele>506.6666666666667</ele><time>2026-03-27T10:01:59.648Z</time></trkpt><trkpt lat="44.8994283" lon="9.440065"><ele>505.33333333333337</ele><time>2026-03-27T10:02:00.65Z</time></trkpt><trkpt lat="44.8992983" lon="9.43991"><ele>504.0</ele><time>2026-03-27T10:02:01.648Z</time></trkpt><trkpt lat="44.8991633" lon="9.4397583"><ele>506.0</ele><time>2026-03-27T10:02:02.648Z</time></trkpt><trkpt lat="44.8990333" lon="9.4395983"><ele>508.0</ele><time>2026-03-27T10:02:03.648Z</time></trkpt><trkpt lat="44.8989133" lon="9.439425"><ele>510.0</ele><time>2026-03-27T10:02:04.649Z</time></trkpt><trkpt lat="44.8987983" lon="9.439245"><ele>510.0</ele><time>2026-03-27T10:02:05.65Z</time></trkpt><trkpt lat="44.898675" lon="9.4390767"><ele>510.0</ele><time>2026-03-27T10:02:06.648Z</time></trkpt><trkpt lat="44.8985433" lon="9.4389333"><ele>510.0</ele><time>2026-03-27T10:02:07.652Z</time></trkpt><trkpt lat="44.8984067" lon="9.4388017"><ele>515.6666666666666</ele><time>2026-03-27T10:02:08.647Z</time></trkpt><trkpt lat="44.8982667" lon="9.4386733"><ele>521.3333333333333</ele><time>2026-03-27T10:02:09.65Z</time></trkpt><trkpt lat="44.8981233" lon="9.43855"><ele>527.0</ele><time>2026-03-27T10:02:10.65Z</time></trkpt><trkpt lat="44.8979833" lon="9.43843"><ele>527.0</ele><time>2026-03-27T10:02:11.647Z</time></trkpt><trkpt lat="44.8978417" lon="9.4383117"><ele>527.0</ele><time>2026-03-27T10:02:12.648Z</time></trkpt><trkpt lat="44.8976967" lon="9.4381983"><ele>527.0</ele><time>2026-03-27T10:02:13.647Z</time></trkpt><trkpt lat="44.897555" lon="9.4380817"><ele>532.6666666666666</ele><time>2026-03-27T10:02:14.647Z</time></trkpt><trkpt lat="44.8974083" lon="9.437965"><ele>538.3333333333334</ele><time>2026-03-27T10:02:15.647Z</time></trkpt><trkpt lat="44.8972633" lon="9.4378533"><ele>544.0</ele><time>2026-03-27T10:02:16.647Z</time></trkpt><trkpt lat="44.89712" lon="9.437735"><ele>544.0</ele><time>2026-03-27T10:02:17.647Z</time></trkpt><trkpt lat="44.89699" lon="9.437605"><ele>544.0</ele><time>2026-03-27T10:02:18.646Z</time></trkpt><trkpt lat="44.8968833" lon="9.4374733"><ele>544.0</ele><time>2026-03-27T10:02:19.649Z</time></trkpt><trkpt lat="44.896815" lon="9.4373233"><ele>544.0</ele><time>2026-03-27T10:02:20.647Z</time></trkpt><trkpt lat="44.8967783" lon="9.437165"><ele>547.0</ele><time>2026-03-27T10:02:21.646Z</time></trkpt><trkpt lat="44.8967617" lon="9.4370083"><ele>550.0</ele><time>2026-03-27T10:02:22.647Z</time></trkpt><trkpt lat="44.8967583" lon="9.4368417"><ele>553.0</ele><time>2026-03-27T10:02:23.647Z</time></trkpt><trkpt lat="44.8967633" lon="9.436665"><ele>556.0</ele><time>2026-03-27T10:02:24.646Z</time></trkpt><trkpt lat="44.896765" lon="9.43648"><ele>554.5</ele><time>2026-03-27T10:02:25.647Z</time></trkpt><trkpt lat="44.8967483" lon="9.4362917"><ele>553.0</ele><time>2026-03-27T10:02:26.648Z</time></trkpt><trkpt lat="44.8967167" lon="9.4360983"><ele>551.5</ele><time>2026-03-27T10:02:27.647Z</time></trkpt><trkpt lat="44.89668" lon="9.435905"><ele>550.0</ele><time>2026-03-27T10:02:28.648Z</time></trkpt><trkpt lat="44.8966433" lon="9.435725"><ele>550.0</ele><time>2026-03-27T10:02:29.65Z</time></trkpt><trkpt lat="44.8966117" lon="9.43556"><ele>550.0</ele><time>2026-03-27T10:02:30.646Z</time></trkpt><trkpt lat="44.896595" lon="9.4354067"><ele>550.0</ele><time>2026-03-27T10:02:31.646Z</time></trkpt><trkpt lat="44.8966033" lon="9.4352533"><ele>550.0</ele><time>2026-03-27T10:02:32.648Z</time></trkpt><trkpt lat="44.89663" lon="9.4351167"><ele>550.0</ele><time>2026-03-27T10:02:33.648Z</time></trkpt><trkpt lat="44.8966817" lon="9.4349917"><ele>550.2</ele><time>2026-03-27T10:02:34.647Z</time></trkpt><trkpt lat="44.89675" lon="9.4348767"><ele>550.4</ele><time>2026-03-27T10:02:35.647Z</time></trkpt><trkpt lat="44.8968233" lon="9.43476"><ele>550.6</ele><time>2026-03-27T10:02:36.648Z</time></trkpt><trkpt lat="44.8968917" lon="9.4346483"><ele>550.8</ele><time>2026-03-27T10:02:37.648Z</time></trkpt><trkpt lat="44.8969467" lon="9.4345417"><ele>551.0</ele><time>2026-03-27T10:02:38.648Z</time></trkpt><trkpt lat="44.8969917" lon="9.4344433"><ele>551.3333333333333</ele><time>2026-03-27T10:02:39.648Z</time></trkpt><trkpt lat="44.8970217" lon="9.4343367"><ele>551.6666666666666</ele><time>2026-03-27T10:02:40.647Z</time></trkpt><trkpt lat="44.8970233" lon="9.4342383"><ele>552.0</ele><time>2026-03-27T10:02:41.648Z</time></trkpt><trkpt lat="44.8970033" lon="9.4341417"><ele>552.3333333333334</ele><time>2026-03-27T10:02:42.648Z</time></trkpt><trkpt lat="44.896945" lon="9.4340417"><ele>552.6666666666667</ele><time>2026-03-27T10:02:43.648Z</time></trkpt><trkpt lat="44.8968533" lon="9.433945"><ele>553.0</ele><time>2026-03-27T10:02:44.649Z</time></trkpt><trkpt lat="44.8967333" lon="9.4338517"><ele>554.5</ele><time>2026-03-27T10:02:45.646Z</time></trkpt><trkpt lat="44.89662" lon="9.4337533"><ele>556.0</ele><time>2026-03-27T10:02:46.647Z</time></trkpt><trkpt lat="44.8965033" lon="9.4336517"><ele>557.5</ele><time>2026-03-27T10:02:47.647Z</time></trkpt><trkpt lat="44.896385" lon="9.4335433"><ele>559.0</ele><time>2026-03-27T10:02:48.648Z</time></trkpt><trkpt lat="44.896265" lon="9.4334367"><ele>559.0</ele><time>2026-03-27T10:02:49.647Z</time></trkpt><trkpt lat="44.89615" lon="9.433335"><ele>559.0</ele><time>2026-03-27T10:02:50.647Z</time></trkpt><trkpt lat="44.896035" lon="9.43323"><ele>559.0</ele><time>2026-03-27T10:02:51.647Z</time></trkpt><trkpt lat="44.8959283" lon="9.4331217"><ele>559.0</ele><time>2026-03-27T10:02:52.646Z</time></trkpt><trkpt lat="44.8958267" lon="9.43301"><ele>559.0</ele><time>2026-03-27T10:02:53.649Z</time></trkpt><trkpt lat="44.8957367" lon="9.432905"><ele>559.0</ele><time>2026-03-27T10:02:54.646Z</time></trkpt><trkpt lat="44.8956567" lon="9.4328083"><ele>559.0</ele><time>2026-03-27T10:02:55.646Z</time></trkpt><trkpt lat="44.8955733" lon="9.432715"><ele>559.0</ele><time>2026-03-27T10:02:56.647Z</time></trkpt><trkpt lat="44.89548" lon="9.43264"><ele>559.0</ele><time>2026-03-27T10:02:57.646Z</time></trkpt><trkpt lat="44.8953683" lon="9.4325917"><ele>559.0</ele><time>2026-03-27T10:02:58.649Z</time></trkpt><trkpt lat="44.8952483" lon="9.4325667"><ele>559.0</ele><time>2026-03-27T10:02:59.652Z</time></trkpt><trkpt lat="44.89512" lon="9.43256"><ele>559.0</ele><time>2026-03-27T10:03:00.65Z</time></trkpt><trkpt lat="44.8949867" lon="9.4325633"><ele>559.0</ele><time>2026-03-27T10:03:01.647Z</time></trkpt><trkpt lat="44.8948517" lon="9.4325683"><ele>562.25</ele><time>2026-03-27T10:03:02.647Z</time></trkpt><trkpt lat="44.894715" lon="9.43257"><ele>565.5</ele><time>2026-03-27T10:03:03.649Z</time></trkpt><trkpt lat="44.8945783" lon="9.4325683"><ele>568.75</ele><time>2026-03-27T10:03:04.647Z</time></trkpt><trkpt lat="44.8944433" lon="9.4325633"><ele>572.0</ele><time>2026-03-27T10:03:05.647Z</time></trkpt><trkpt lat="44.8943083" lon="9.43256"><ele>573.25</ele><time>2026-03-27T10:03:06.648Z</time></trkpt><trkpt lat="44.8941683" lon="9.4325617"><ele>574.5</ele><time>2026-03-27T10:03:07.646Z</time></trkpt><trkpt lat="44.89402" lon="9.4325667"><ele>575.75</ele><time>2026-03-27T10:03:08.647Z</time></trkpt><trkpt lat="44.8938633" lon="9.432585"><ele>577.0</ele><time>2026-03-27T10:03:09.65Z</time></trkpt><trkpt lat="44.8937167" lon="9.432625"><ele>577.0</ele><time>2026-03-27T10:03:10.647Z</time></trkpt><trkpt lat="44.8935833" lon="9.4326683"><ele>577.0</ele><time>2026-03-27T10:03:11.647Z</time></trkpt><trkpt lat="44.8934633" lon="9.4327033"><ele>577.0</ele><time>2026-03-27T10:03:12.646Z</time></trkpt><trkpt lat="44.8933417" lon="9.43274"><ele>577.0</ele><time>2026-03-27T10:03:13.646Z</time></trkpt><trkpt lat="44.8932133" lon="9.43279"><ele>576.75</ele><time>2026-03-27T10:03:14.647Z</time></trkpt><trkpt lat="44.8930833" lon="9.43286"><ele>576.5</ele><time>2026-03-27T10:03:15.648Z</time></trkpt><trkpt lat="44.8929517" lon="9.4329483"><ele>576.25</ele><time>2026-03-27T10:03:16.647Z</time></trkpt><trkpt lat="44.8928267" lon="9.4330533"><ele>576.0</ele><time>2026-03-27T10:03:17.646Z</time></trkpt><trkpt lat="44.892705" lon="9.43317"><ele>576.25</ele><time>2026-03-27T10:03:18.647Z</time></trkpt><trkpt lat="44.8925833" lon="9.433285"><ele>576.5</ele><time>2026-03-27T10:03:19.653Z</time></trkpt><trkpt lat="44.8924617" lon="9.4333817"><ele>576.75</ele><time>2026-03-27T10:03:20.648Z</time></trkpt><trkpt lat="44.8923467" lon="9.433455"><ele>577.0</ele><time>2026-03-27T10:03:21.648Z</time></trkpt><trkpt lat="44.8922383" lon="9.4335167"><ele>577.0</ele><time>2026-03-27T10:03:22.647Z</time></trkpt><trkpt lat="44.8921317" lon="9.43356"><ele>577.0</ele><time>2026-03-27T10:03:23.647Z</time></trkpt><trkpt lat="44.8920267" lon="9.4335933"><ele>577.0</ele><time>2026-03-27T10:03:24.648Z</time></trkpt><trkpt lat="44.8919217" lon="9.4336233"><ele>577.0</ele><time>2026-03-27T10:03:25.648Z</time></trkpt><trkpt lat="44.8918183" lon="9.4336617"><ele>577.0</ele><time>2026-03-27T10:03:26.65Z</time></trkpt><trkpt lat="44.891715" lon="9.433715"><ele>579.0</ele><time>2026-03-27T10:03:27.647Z</time></trkpt><trkpt lat="44.89162" lon="9.4337917"><ele>581.0</ele><time>2026-03-27T10:03:28.648Z</time></trkpt><trkpt lat="44.8915283" lon="9.43389"><ele>583.0</ele><time>2026-03-27T10:03:29.648Z</time></trkpt><trkpt lat="44.89144" lon="9.4339983"><ele>585.0</ele><time>2026-03-27T10:03:30.648Z</time></trkpt><trkpt lat="44.8913517" lon="9.434115"><ele>585.0</ele><time>2026-03-27T10:03:31.65Z</time></trkpt><trkpt lat="44.89126" lon="9.4342283"><ele>585.0</ele><time>2026-03-27T10:03:32.647Z</time></trkpt><trkpt lat="44.8911533" lon="9.434325"><ele>585.0</ele><time>2026-03-27T10:03:33.649Z</time></trkpt><trkpt lat="44.8910433" lon="9.4344033"><ele>585.0</ele><time>2026-03-27T10:03:34.648Z</time></trkpt><trkpt lat="44.8909417" lon="9.4344717"><ele>586.6</ele><time>2026-03-27T10:03:35.647Z</time></trkpt><trkpt lat="44.890855" lon="9.4345383"><ele>588.2</ele><time>2026-03-27T10:03:36.648Z</time></trkpt><trkpt lat="44.89079" lon="9.4346083"><ele>589.8</ele><time>2026-03-27T10:03:37.647Z</time></trkpt><trkpt lat="44.8907417" lon="9.43468"><ele>591.4</ele><time>2026-03-27T10:03:38.649Z</time></trkpt><trkpt lat="44.890665" lon="9.4348267"><ele>593.0</ele><time>2026-03-27T10:03:40.647Z</time></trkpt><trkpt lat="44.89062" lon="9.4349183"><ele>593.6</ele><time>2026-03-27T10:03:41.647Z</time></trkpt><trkpt lat="44.8905617" lon="9.4350117"><ele>594.1999999999999</ele><time>2026-03-27T10:03:42.646Z</time></trkpt><trkpt lat="44.8904933" lon="9.4350883"><ele>594.8</ele><time>2026-03-27T10:03:43.647Z</time></trkpt><trkpt lat="44.8904133" lon="9.4351483"><ele>595.4</ele><time>2026-03-27T10:03:44.647Z</time></trkpt><trkpt lat="44.8903183" lon="9.4351917"><ele>596.0</ele><time>2026-03-27T10:03:45.649Z</time></trkpt><trkpt lat="44.8902117" lon="9.4352367"><ele>596.0</ele><time>2026-03-27T10:03:46.647Z</time></trkpt><trkpt lat="44.8901" lon="9.4352783"><ele>596.0</ele><time>2026-03-27T10:03:47.647Z</time></trkpt><trkpt lat="44.8899817" lon="9.4353217"><ele>596.0</ele><time>2026-03-27T10:03:48.649Z</time></trkpt><trkpt lat="44.889855" lon="9.4353733"><ele>596.0</ele><time>2026-03-27T10:03:49.648Z</time></trkpt><trkpt lat="44.88973" lon="9.435435"><ele>596.75</ele><time>2026-03-27T10:03:50.649Z</time></trkpt><trkpt lat="44.8896033" lon="9.4354883"><ele>597.5</ele><time>2026-03-27T10:03:51.649Z</time></trkpt><trkpt lat="44.88947" lon="9.43552"><ele>598.25</ele><time>2026-03-27T10:03:52.649Z</time></trkpt><trkpt lat="44.8893383" lon="9.435515"><ele>599.0</ele><time>2026-03-27T10:03:53.648Z</time></trkpt><trkpt lat="44.8892083" lon="9.43547"><ele>603.5</ele><time>2026-03-27T10:03:54.649Z</time></trkpt><trkpt lat="44.8890917" lon="9.435385"><ele>608.0</ele><time>2026-03-27T10:03:55.648Z</time></trkpt><trkpt lat="44.8889817" lon="9.43528"><ele>612.5</ele><time>2026-03-27T10:03:56.648Z</time></trkpt><trkpt lat="44.888885" lon="9.4351767"><ele>617.0</ele><time>2026-03-27T10:03:57.651Z</time></trkpt><trkpt lat="44.888795" lon="9.4350917"><ele>617.0</ele><time>2026-03-27T10:03:58.648Z</time></trkpt><trkpt lat="44.8887067" lon="9.4350167"><ele>617.0</ele><time>2026-03-27T10:03:59.646Z</time></trkpt><trkpt lat="44.8886167" lon="9.4349517"><ele>617.0</ele><time>2026-03-27T10:04:00.648Z</time></trkpt><trkpt lat="44.8885233" lon="9.4348983"><ele>617.0</ele><time>2026-03-27T10:04:01.647Z</time></trkpt><trkpt lat="44.8884183" lon="9.4348733"><ele>617.0</ele><time>2026-03-27T10:04:02.649Z</time></trkpt><trkpt lat="44.8883017" lon="9.434875"><ele>619.4</ele><time>2026-03-27T10:04:03.647Z</time></trkpt><trkpt lat="44.888185" lon="9.434895"><ele>621.8000000000001</ele><time>2026-03-27T10:04:04.648Z</time></trkpt><trkpt lat="44.888075" lon="9.4349067"><ele>624.2</ele><time>2026-03-27T10:04:05.647Z</time></trkpt><trkpt lat="44.8879683" lon="9.4349017"><ele>626.6</ele><time>2026-03-27T10:04:06.648Z</time></trkpt><trkpt lat="44.8878583" lon="9.43488"><ele>629.0</ele><time>2026-03-27T10:04:07.647Z</time></trkpt><trkpt lat="44.8877483" lon="9.4348383"><ele>629.0</ele><time>2026-03-27T10:04:08.647Z</time></trkpt><trkpt lat="44.8876283" lon="9.434805"><ele>629.0</ele><time>2026-03-27T10:04:09.65Z</time></trkpt><trkpt lat="44.8874933" lon="9.4348017"><ele>629.0</ele><time>2026-03-27T10:04:10.646Z</time></trkpt><trkpt lat="44.88736" lon="9.434815"><ele>629.0</ele><time>2026-03-27T10:04:11.646Z</time></trkpt><trkpt lat="44.887235" lon="9.4348183"><ele>630.0</ele><time>2026-03-27T10:04:12.646Z</time></trkpt><trkpt lat="44.88712" lon="9.4348033"><ele>631.0</ele><time>2026-03-27T10:04:13.646Z</time></trkpt><trkpt lat="44.8870233" lon="9.4347783"><ele>632.0</ele><time>2026-03-27T10:04:14.647Z</time></trkpt><trkpt lat="44.886945" lon="9.4347617"><ele>633.0</ele><time>2026-03-27T10:04:15.647Z</time></trkpt><trkpt lat="44.88687" lon="9.43476"><ele>634.0</ele><time>2026-03-27T10:04:16.646Z</time></trkpt><trkpt lat="44.886795" lon="9.4347967"><ele>635.0</ele><time>2026-03-27T10:04:17.648Z</time></trkpt><trkpt lat="44.8867183" lon="9.4348783"><ele>636.0</ele><time>2026-03-27T10:04:18.65Z</time></trkpt><trkpt lat="44.886645" lon="9.43498"><ele>637.0</ele><time>2026-03-27T10:04:19.648Z</time></trkpt><trkpt lat="44.886565" lon="9.43508"><ele>638.0</ele><time>2026-03-27T10:04:20.649Z</time></trkpt><trkpt lat="44.88648" lon="9.4351817"><ele>639.0</ele><time>2026-03-27T10:04:21.648Z</time></trkpt><trkpt lat="44.8863867" lon="9.4352783"><ele>640.0</ele><time>2026-03-27T10:04:22.647Z</time></trkpt><trkpt lat="44.8862883" lon="9.43537"><ele>640.0</ele><time>2026-03-27T10:04:23.652Z</time></trkpt><trkpt lat="44.886185" lon="9.4354517"><ele>640.0</ele><time>2026-03-27T10:04:24.647Z</time></trkpt><trkpt lat="44.8860683" lon="9.4355217"><ele>640.0</ele><time>2026-03-27T10:04:25.649Z</time></trkpt><trkpt lat="44.8859383" lon="9.4355717"><ele>640.0</ele><time>2026-03-27T10:04:26.647Z</time></trkpt><trkpt lat="44.885795" lon="9.4356033"><ele>643.0</ele><time>2026-03-27T10:04:27.648Z</time></trkpt><trkpt lat="44.8856433" lon="9.43561"><ele>646.0</ele><time>2026-03-27T10:04:28.647Z</time></trkpt><trkpt lat="44.8854933" lon="9.43559"><ele>649.0</ele><time>2026-03-27T10:04:29.647Z</time></trkpt><trkpt lat="44.8853583" lon="9.4355517"><ele>652.0</ele><time>2026-03-27T10:04:30.647Z</time></trkpt><trkpt lat="44.8852367" lon="9.4355283"><ele>652.0</ele><time>2026-03-27T10:04:31.647Z</time></trkpt><trkpt lat="44.8851167" lon="9.4355467"><ele>652.0</ele><time>2026-03-27T10:04:32.647Z</time></trkpt><trkpt lat="44.8850017" lon="9.43561"><ele>652.0</ele><time>2026-03-27T10:04:33.648Z</time></trkpt><trkpt lat="44.8849" lon="9.4357083"><ele>652.0</ele><time>2026-03-27T10:04:34.647Z</time></trkpt><trkpt lat="44.8848067" lon="9.4358083"><ele>653.0</ele><time>2026-03-27T10:04:35.647Z</time></trkpt><trkpt lat="44.8847083" lon="9.4359033"><ele>654.0</ele><time>2026-03-27T10:04:36.647Z</time></trkpt><trkpt lat="44.8846067" lon="9.43599"><ele>655.0</ele><time>2026-03-27T10:04:37.648Z</time></trkpt><trkpt lat="44.8844983" lon="9.4360717"><ele>656.0</ele><time>2026-03-27T10:04:38.647Z</time></trkpt><trkpt lat="44.8843833" lon="9.436145"><ele>656.0</ele><time>2026-03-27T10:04:39.647Z</time></trkpt><trkpt lat="44.884265" lon="9.436205"><ele>656.0</ele><time>2026-03-27T10:04:40.649Z</time></trkpt><trkpt lat="44.88414" lon="9.4362383"><ele>656.0</ele><time>2026-03-27T10:04:41.647Z</time></trkpt><trkpt lat="44.8840167" lon="9.4362567"><ele>656.0</ele><time>2026-03-27T10:04:42.649Z</time></trkpt><trkpt lat="44.8838883" lon="9.43627"><ele>657.25</ele><time>2026-03-27T10:04:43.649Z</time></trkpt><trkpt lat="44.8837633" lon="9.4362833"><ele>658.5</ele><time>2026-03-27T10:04:44.649Z</time></trkpt><trkpt lat="44.883635" lon="9.4363"><ele>659.75</ele><time>2026-03-27T10:04:45.65Z</time></trkpt><trkpt lat="44.8835083" lon="9.4363317"><ele>661.0</ele><time>2026-03-27T10:04:46.648Z</time></trkpt><trkpt lat="44.8833767" lon="9.4363767"><ele>661.0</ele><time>2026-03-27T10:04:47.649Z</time></trkpt><trkpt lat="44.8832433" lon="9.4364367"><ele>661.0</ele><time>2026-03-27T10:04:48.649Z</time></trkpt><trkpt lat="44.8831033" lon="9.4365017"><ele>661.0</ele><time>2026-03-27T10:04:49.648Z</time></trkpt><trkpt lat="44.88296" lon="9.4365667"><ele>661.0</ele><time>2026-03-27T10:04:50.648Z</time></trkpt><trkpt lat="44.88281" lon="9.4366233"><ele>661.0</ele><time>2026-03-27T10:04:51.648Z</time></trkpt><trkpt lat="44.8826583" lon="9.4366833"><ele>661.0</ele><time>2026-03-27T10:04:52.648Z</time></trkpt><trkpt lat="44.88251" lon="9.43673"><ele>661.0</ele><time>2026-03-27T10:04:53.649Z</time></trkpt><trkpt lat="44.882365" lon="9.436755"><ele>661.25</ele><time>2026-03-27T10:04:54.648Z</time></trkpt><trkpt lat="44.882245" lon="9.4367983"><ele>661.5</ele><time>2026-03-27T10:04:55.648Z</time></trkpt><trkpt lat="44.8821367" lon="9.43688"><ele>661.75</ele><time>2026-03-27T10:04:56.649Z</time></trkpt><trkpt lat="44.8820283" lon="9.4369667"><ele>662.0</ele><time>2026-03-27T10:04:57.649Z</time></trkpt><trkpt lat="44.8819033" lon="9.43701"><ele>661.25</ele><time>2026-03-27T10:04:58.65Z</time></trkpt><trkpt lat="44.8817583" lon="9.43702"><ele>660.5</ele><time>2026-03-27T10:04:59.646Z</time></trkpt><trkpt lat="44.8816067" lon="9.43702"><ele>659.75</ele><time>2026-03-27T10:05:00.646Z</time></trkpt><trkpt lat="44.881455" lon="9.437025"><ele>659.0</ele><time>2026-03-27T10:05:01.647Z</time></trkpt><trkpt lat="44.8813167" lon="9.4370383"><ele>659.0</ele><time>2026-03-27T10:05:02.648Z</time></trkpt><trkpt lat="44.88119" lon="9.4370667"><ele>659.0</ele><time>2026-03-27T10:05:03.648Z</time></trkpt><trkpt lat="44.88107" lon="9.4370967"><ele>659.0</ele><time>2026-03-27T10:05:04.647Z</time></trkpt><trkpt lat="44.8809567" lon="9.4371067"><ele>659.0</ele><time>2026-03-27T10:05:05.65Z</time></trkpt><trkpt lat="44.8808483" lon="9.4370817"><ele>659.0</ele><time>2026-03-27T10:05:06.647Z</time></trkpt><trkpt lat="44.8807367" lon="9.4370367"><ele>659.0</ele><time>2026-03-27T10:05:07.647Z</time></trkpt><trkpt lat="44.88063" lon="9.4370033"><ele>659.0</ele><time>2026-03-27T10:05:08.651Z</time></trkpt><trkpt lat="44.8805233" lon="9.4370017"><ele>659.0</ele><time>2026-03-27T10:05:09.646Z</time></trkpt><trkpt lat="44.88041" lon="9.4370283"><ele>659.0</ele><time>2026-03-27T10:05:10.651Z</time></trkpt><trkpt lat="44.88029" lon="9.4370767"><ele>659.0</ele><time>2026-03-27T10:05:11.646Z</time></trkpt><trkpt lat="44.8801583" lon="9.437135"><ele>659.0</ele><time>2026-03-27T10:05:12.647Z</time></trkpt><trkpt lat="44.8800317" lon="9.43718"><ele>659.0</ele><time>2026-03-27T10:05:13.647Z</time></trkpt><trkpt lat="44.879915" lon="9.43721"><ele>659.0</ele><time>2026-03-27T10:05:14.648Z</time></trkpt><trkpt lat="44.87981" lon="9.43722"><ele>661.0</ele><time>2026-03-27T10:05:15.647Z</time></trkpt><trkpt lat="44.879715" lon="9.4372033"><ele>663.0</ele><time>2026-03-27T10:05:16.647Z</time></trkpt><trkpt lat="44.87963" lon="9.43715"><ele>665.0</ele><time>2026-03-27T10:05:17.65Z</time></trkpt><trkpt lat="44.8795567" lon="9.43707"><ele>667.0</ele><time>2026-03-27T10:05:18.65Z</time></trkpt><trkpt lat="44.87949" lon="9.4369733"><ele>669.0</ele><time>2026-03-27T10:05:19.649Z</time></trkpt><trkpt lat="44.8794233" lon="9.4368767"><ele>669.0</ele><time>2026-03-27T10:05:20.648Z</time></trkpt><trkpt lat="44.8793533" lon="9.4367917"><ele>669.0</ele><time>2026-03-27T10:05:21.649Z</time></trkpt><trkpt lat="44.8792817" lon="9.43673"><ele>669.0</ele><time>2026-03-27T10:05:22.648Z</time></trkpt><trkpt lat="44.8792067" lon="9.4366933"><ele>669.0</ele><time>2026-03-27T10:05:23.649Z</time></trkpt><trkpt lat="44.87912" lon="9.4366833"><ele>669.0</ele><time>2026-03-27T10:05:24.648Z</time></trkpt><trkpt lat="44.8790267" lon="9.4367067"><ele>669.0</ele><time>2026-03-27T10:05:25.648Z</time></trkpt><trkpt lat="44.878915" lon="9.43676"><ele>670.25</ele><time>2026-03-27T10:05:26.649Z</time></trkpt><trkpt lat="44.8787933" lon="9.4368117"><ele>671.5</ele><time>2026-03-27T10:05:27.649Z</time></trkpt><trkpt lat="44.8786617" lon="9.4368617"><ele>672.75</ele><time>2026-03-27T10:05:28.649Z</time></trkpt><trkpt lat="44.878525" lon="9.4369067"><ele>674.0</ele><time>2026-03-27T10:05:29.648Z</time></trkpt><trkpt lat="44.8783817" lon="9.436945"><ele>675.6666666666666</ele><time>2026-03-27T10:05:30.648Z</time></trkpt><trkpt lat="44.8782317" lon="9.436975"><ele>677.3333333333334</ele><time>2026-03-27T10:05:31.647Z</time></trkpt><trkpt lat="44.8780783" lon="9.437"><ele>679.0</ele><time>2026-03-27T10:05:32.648Z</time></trkpt><trkpt lat="44.8779267" lon="9.4370267"><ele>679.0</ele><time>2026-03-27T10:05:33.648Z</time></trkpt><trkpt lat="44.8777817" lon="9.4370617"><ele>679.0</ele><time>2026-03-27T10:05:34.649Z</time></trkpt><trkpt lat="44.8776433" lon="9.4371117"><ele>679.0</ele><time>2026-03-27T10:05:35.648Z</time></trkpt><trkpt lat="44.8775133" lon="9.4371717"><ele>679.0</ele><time>2026-03-27T10:05:36.651Z</time></trkpt><trkpt lat="44.877395" lon="9.4372333"><ele>679.0</ele><time>2026-03-27T10:05:37.648Z</time></trkpt><trkpt lat="44.877285" lon="9.4372917"><ele>679.0</ele><time>2026-03-27T10:05:38.647Z</time></trkpt><trkpt lat="44.877175" lon="9.4373433"><ele>679.0</ele><time>2026-03-27T10:05:39.647Z</time></trkpt><trkpt lat="44.877065" lon="9.4373767"><ele>679.0</ele><time>2026-03-27T10:05:40.646Z</time></trkpt><trkpt lat="44.876965" lon="9.437375"><ele>679.0</ele><time>2026-03-27T10:05:41.646Z</time></trkpt><trkpt lat="44.8768817" lon="9.4373467"><ele>679.0</ele><time>2026-03-27T10:05:42.648Z</time></trkpt><trkpt lat="44.8768133" lon="9.4372833"><ele>679.0</ele><time>2026-03-27T10:05:43.647Z</time></trkpt><trkpt lat="44.8767583" lon="9.4371767"><ele>679.0</ele><time>2026-03-27T10:05:44.647Z</time></trkpt><trkpt lat="44.8767183" lon="9.4370333"><ele>679.0</ele><time>2026-03-27T10:05:45.647Z</time></trkpt><trkpt lat="44.87667" lon="9.4368883"><ele>679.0</ele><time>2026-03-27T10:05:46.647Z</time></trkpt><trkpt lat="44.87661" lon="9.4367283"><ele>678.75</ele><time>2026-03-27T10:05:47.648Z</time></trkpt><trkpt lat="44.8765317" lon="9.4365733"><ele>678.5</ele><time>2026-03-27T10:05:48.649Z</time></trkpt><trkpt lat="44.8764467" lon="9.43645"><ele>678.25</ele><time>2026-03-27T10:05:49.648Z</time></trkpt><trkpt lat="44.8763683" lon="9.4363433"><ele>678.0</ele><time>2026-03-27T10:05:50.648Z</time></trkpt><trkpt lat="44.8763067" lon="9.4362383"><ele>678.0</ele><time>2026-03-27T10:05:51.649Z</time></trkpt><trkpt lat="44.8762633" lon="9.4361217"><ele>678.0</ele><time>2026-03-27T10:05:52.647Z</time></trkpt><trkpt lat="44.87624" lon="9.435995"><ele>678.0</ele><time>2026-03-27T10:05:53.648Z</time></trkpt><trkpt lat="44.8762467" lon="9.4358567"><ele>678.0</ele><time>2026-03-27T10:05:54.646Z</time></trkpt><trkpt lat="44.87627" lon="9.4357033"><ele>678.0</ele><time>2026-03-27T10:05:55.647Z</time></trkpt><trkpt lat="44.8763033" lon="9.43554"><ele>677.25</ele><time>2026-03-27T10:05:56.647Z</time></trkpt><trkpt lat="44.8763333" lon="9.4353583"><ele>676.5</ele><time>2026-03-27T10:05:57.647Z</time></trkpt><trkpt lat="44.8763533" lon="9.4351733"><ele>675.75</ele><time>2026-03-27T10:05:58.648Z</time></trkpt><trkpt lat="44.8763717" lon="9.4350017"><ele>675.0</ele><time>2026-03-27T10:05:59.651Z</time></trkpt><trkpt lat="44.8763933" lon="9.4348467"><ele>675.0</ele><time>2026-03-27T10:06:00.648Z</time></trkpt><trkpt lat="44.8763933" lon="9.4347067"><ele>675.0</ele><time>2026-03-27T10:06:01.65Z</time></trkpt><trkpt lat="44.8763533" lon="9.4345817"><ele>675.0</ele><time>2026-03-27T10:06:02.648Z</time></trkpt><trkpt lat="44.8762917" lon="9.434475"><ele>675.0</ele><time>2026-03-27T10:06:03.646Z</time></trkpt><trkpt lat="44.8762167" lon="9.4344"><ele>675.0</ele><time>2026-03-27T10:06:04.647Z</time></trkpt><trkpt lat="44.8761533" lon="9.434325"><ele>674.4</ele><time>2026-03-27T10:06:05.647Z</time></trkpt><trkpt lat="44.8760767" lon="9.4342517"><ele>673.8</ele><time>2026-03-27T10:06:06.648Z</time></trkpt><trkpt lat="44.8759817" lon="9.4341917"><ele>673.2</ele><time>2026-03-27T10:06:07.65Z</time></trkpt><trkpt lat="44.8758867" lon="9.43413"><ele>672.6</ele><time>2026-03-27T10:06:08.65Z</time></trkpt><trkpt lat="44.8757883" lon="9.4340717"><ele>672.0</ele><time>2026-03-27T10:06:09.647Z</time></trkpt><trkpt lat="44.875695" lon="9.434035"><ele>676.0</ele><time>2026-03-27T10:06:10.648Z</time></trkpt><trkpt lat="44.87559" lon="9.43403"><ele>680.0</ele><time>2026-03-27T10:06:11.648Z</time></trkpt><trkpt lat="44.8754783" lon="9.43407"><ele>684.0</ele><time>2026-03-27T10:06:12.647Z</time></trkpt><trkpt lat="44.8753617" lon="9.4341233"><ele>688.0</ele><time>2026-03-27T10:06:13.648Z</time></trkpt><trkpt lat="44.8752417" lon="9.4341883"><ele>688.0</ele><time>2026-03-27T10:06:14.647Z</time></trkpt><trkpt lat="44.875115" lon="9.4342633"><ele>688.0</ele><time>2026-03-27T10:06:15.647Z</time></trkpt><trkpt lat="44.874995" lon="9.4343467"><ele>688.0</ele><time>2026-03-27T10:06:16.647Z</time></trkpt><trkpt lat="44.8748783" lon="9.434445"><ele>688.0</ele><time>2026-03-27T10:06:17.647Z</time></trkpt><trkpt lat="44.874765" lon="9.43455"><ele>692.5</ele><time>2026-03-27T10:06:18.647Z</time></trkpt><trkpt lat="44.8746567" lon="9.4346433"><ele>697.0</ele><time>2026-03-27T10:06:19.647Z</time></trkpt><trkpt lat="44.8745467" lon="9.4347067"><ele>701.5</ele><time>2026-03-27T10:06:20.647Z</time></trkpt><trkpt lat="44.874435" lon="9.4347317"><ele>706.0</ele><time>2026-03-27T10:06:21.65Z</time></trkpt><trkpt lat="44.8743267" lon="9.4347167"><ele>704.1999999999999</ele><time>2026-03-27T10:06:22.647Z</time></trkpt><trkpt lat="44.8742217" lon="9.4346667"><ele>702.4</ele><time>2026-03-27T10:06:23.647Z</time></trkpt><trkpt lat="44.8741217" lon="9.434595"><ele>700.6</ele><time>2026-03-27T10:06:24.646Z</time></trkpt><trkpt lat="44.8740283" lon="9.43452"><ele>698.8</ele><time>2026-03-27T10:06:25.647Z</time></trkpt><trkpt lat="44.87393" lon="9.43445"><ele>697.0</ele><time>2026-03-27T10:06:26.647Z</time></trkpt><trkpt lat="44.873825" lon="9.43439"><ele>697.75</ele><time>2026-03-27T10:06:27.647Z</time></trkpt><trkpt lat="44.8737183" lon="9.4343467"><ele>698.5</ele><time>2026-03-27T10:06:28.647Z</time></trkpt><trkpt lat="44.8736067" lon="9.4343267"><ele>699.25</ele><time>2026-03-27T10:06:29.647Z</time></trkpt><trkpt lat="44.8734867" lon="9.434325"><ele>700.0</ele><time>2026-03-27T10:06:30.649Z</time></trkpt><trkpt lat="44.873365" lon="9.4343367"><ele>700.0</ele><time>2026-03-27T10:06:31.648Z</time></trkpt><trkpt lat="44.87324" lon="9.43436"><ele>700.0</ele><time>2026-03-27T10:06:32.655Z</time></trkpt><trkpt lat="44.8731167" lon="9.43439"><ele>700.0</ele><time>2026-03-27T10:06:33.649Z</time></trkpt><trkpt lat="44.8729967" lon="9.4344217"><ele>700.0</ele><time>2026-03-27T10:06:34.648Z</time></trkpt><trkpt lat="44.872885" lon="9.4344567"><ele>700.0</ele><time>2026-03-27T10:06:35.648Z</time></trkpt><trkpt lat="44.8727783" lon="9.4345067"><ele>700.0</ele><time>2026-03-27T10:06:36.648Z</time></trkpt><trkpt lat="44.872675" lon="9.4345817"><ele>700.0</ele><time>2026-03-27T10:06:37.648Z</time></trkpt><trkpt lat="44.8725833" lon="9.434695"><ele>700.0</ele><time>2026-03-27T10:06:38.648Z</time></trkpt><trkpt lat="44.872505" lon="9.4348417"><ele>701.0</ele><time>2026-03-27T10:06:39.647Z</time></trkpt><trkpt lat="44.8724333" lon="9.4349983"><ele>702.0</ele><time>2026-03-27T10:06:40.649Z</time></trkpt><trkpt lat="44.8723633" lon="9.43515"><ele>703.0</ele><time>2026-03-27T10:06:41.647Z</time></trkpt><trkpt lat="44.87229" lon="9.435305"><ele>704.0</ele><time>2026-03-27T10:06:42.648Z</time></trkpt><trkpt lat="44.872215" lon="9.4354517"><ele>703.4000000000001</ele><time>2026-03-27T10:06:43.647Z</time></trkpt><trkpt lat="44.8721483" lon="9.4355833"><ele>702.8</ele><time>2026-03-27T10:06:44.649Z</time></trkpt><trkpt lat="44.8720767" lon="9.4356983"><ele>702.2</ele><time>2026-03-27T10:06:45.649Z</time></trkpt><trkpt lat="44.8719967" lon="9.435795"><ele>701.5999999999999</ele><time>2026-03-27T10:06:46.646Z</time></trkpt><trkpt lat="44.871915" lon="9.4358667"><ele>701.0</ele><time>2026-03-27T10:06:47.647Z</time></trkpt><trkpt lat="44.8718183" lon="9.435865"><ele>701.5</ele><time>2026-03-27T10:06:48.649Z</time></trkpt><trkpt lat="44.8717367" lon="9.4358317"><ele>702.0</ele><time>2026-03-27T10:06:49.65Z</time></trkpt><trkpt lat="44.8716667" lon="9.435805"><ele>702.5</ele><time>2026-03-27T10:06:50.65Z</time></trkpt><trkpt lat="44.871605" lon="9.4357617"><ele>703.0</ele><time>2026-03-27T10:06:51.646Z</time></trkpt><trkpt lat="44.871545" lon="9.43571"><ele>703.5</ele><time>2026-03-27T10:06:52.648Z</time></trkpt><trkpt lat="44.8714617" lon="9.4356333"><ele>704.0</ele><time>2026-03-27T10:06:53.647Z</time></trkpt><trkpt lat="44.8713667" lon="9.43556"><ele>704.0</ele><time>2026-03-27T10:06:54.649Z</time></trkpt><trkpt lat="44.8712667" lon="9.4354817"><ele>704.0</ele><time>2026-03-27T10:06:55.647Z</time></trkpt><trkpt lat="44.8711583" lon="9.4353967"><ele>704.0</ele><time>2026-03-27T10:06:56.65Z</time></trkpt><trkpt lat="44.8710467" lon="9.4353067"><ele>704.0</ele><time>2026-03-27T10:06:57.647Z</time></trkpt><trkpt lat="44.87094" lon="9.4352233"><ele>706.4000000000001</ele><time>2026-03-27T10:06:58.649Z</time></trkpt><trkpt lat="44.8708417" lon="9.43515"><ele>708.8</ele><time>2026-03-27T10:06:59.647Z</time></trkpt><trkpt lat="44.8707467" lon="9.43508"><ele>711.2</ele><time>2026-03-27T10:07:00.648Z</time></trkpt><trkpt lat="44.8706567" lon="9.435005"><ele>713.5999999999999</ele><time>2026-03-27T10:07:01.648Z</time></trkpt><trkpt lat="44.8705817" lon="9.4349133"><ele>716.0</ele><time>2026-03-27T10:07:02.647Z</time></trkpt><trkpt lat="44.87051" lon="9.4348"><ele>716.0</ele><time>2026-03-27T10:07:03.648Z</time></trkpt><trkpt lat="44.8704533" lon="9.434655"><ele>716.0</ele><time>2026-03-27T10:07:04.647Z</time></trkpt><trkpt lat="44.8704033" lon="9.434495"><ele>716.0</ele><time>2026-03-27T10:07:05.648Z</time></trkpt><trkpt lat="44.8703417" lon="9.4343517"><ele>716.0</ele><time>2026-03-27T10:07:06.649Z</time></trkpt><trkpt lat="44.8702583" lon="9.4342583"><ele>716.0</ele><time>2026-03-27T10:07:07.648Z</time></trkpt><trkpt lat="44.8701583" lon="9.43421"><ele>716.0</ele><time>2026-03-27T10:07:08.649Z</time></trkpt><trkpt lat="44.8700467" lon="9.4342"><ele>716.0</ele><time>2026-03-27T10:07:09.647Z</time></trkpt><trkpt lat="44.8699317" lon="9.4341883"><ele>716.0</ele><time>2026-03-27T10:07:10.647Z</time></trkpt><trkpt lat="44.869825" lon="9.4341517"><ele>716.0</ele><time>2026-03-27T10:07:11.647Z</time></trkpt><trkpt lat="44.8697333" lon="9.4340967"><ele>716.0</ele><time>2026-03-27T10:07:12.646Z</time></trkpt><trkpt lat="44.8696567" lon="9.4340217"><ele>716.0</ele><time>2026-03-27T10:07:13.646Z</time></trkpt><trkpt lat="44.8695883" lon="9.4339183"><ele>716.0</ele><time>2026-03-27T10:07:14.647Z</time></trkpt><trkpt lat="44.869525" lon="9.4338"><ele>716.0</ele><time>2026-03-27T10:07:15.646Z</time></trkpt><trkpt lat="44.869465" lon="9.433675"><ele>716.0</ele><time>2026-03-27T10:07:16.647Z</time></trkpt><trkpt lat="44.8694067" lon="9.4335483"><ele>716.5</ele><time>2026-03-27T10:07:17.647Z</time></trkpt><trkpt lat="44.869345" lon="9.4334217"><ele>717.0</ele><time>2026-03-27T10:07:18.646Z</time></trkpt><trkpt lat="44.8692833" lon="9.4332867"><ele>717.5</ele><time>2026-03-27T10:07:19.653Z</time></trkpt><trkpt lat="44.8692183" lon="9.4331383"><ele>718.0</ele><time>2026-03-27T10:07:20.648Z</time></trkpt><trkpt lat="44.8691633" lon="9.4329767"><ele>721.0</ele><time>2026-03-27T10:07:21.647Z</time></trkpt><trkpt lat="44.8691033" lon="9.4328083"><ele>724.0</ele><time>2026-03-27T10:07:22.649Z</time></trkpt><trkpt lat="44.8690233" lon="9.4326383"><ele>727.0</ele><time>2026-03-27T10:07:23.648Z</time></trkpt><trkpt lat="44.8689083" lon="9.4324883"><ele>730.0</ele><time>2026-03-27T10:07:24.65Z</time></trkpt><trkpt lat="44.8687667" lon="9.43236"><ele>730.0</ele><time>2026-03-27T10:07:25.646Z</time></trkpt><trkpt lat="44.86861" lon="9.4322617"><ele>730.0</ele><time>2026-03-27T10:07:26.647Z</time></trkpt><trkpt lat="44.8684483" lon="9.432195"><ele>730.0</ele><time>2026-03-27T10:07:27.647Z</time></trkpt><trkpt lat="44.8682967" lon="9.4321417"><ele>729.75</ele><time>2026-03-27T10:07:28.647Z</time></trkpt><trkpt lat="44.86814" lon="9.4321"><ele>729.5</ele><time>2026-03-27T10:07:29.647Z</time></trkpt><trkpt lat="44.86799" lon="9.4320833"><ele>729.25</ele><time>2026-03-27T10:07:30.647Z</time></trkpt><trkpt lat="44.8678517" lon="9.4320617"><ele>729.0</ele><time>2026-03-27T10:07:31.647Z</time></trkpt><trkpt lat="44.867725" lon="9.432"><ele>727.5</ele><time>2026-03-27T10:07:32.648Z</time></trkpt><trkpt lat="44.8676017" lon="9.4319067"><ele>726.0</ele><time>2026-03-27T10:07:33.649Z</time></trkpt><trkpt lat="44.86748" lon="9.431805"><ele>724.5</ele><time>2026-03-27T10:07:34.648Z</time></trkpt><trkpt lat="44.8673617" lon="9.4317017"><ele>723.0</ele><time>2026-03-27T10:07:35.647Z</time></trkpt><trkpt lat="44.867245" lon="9.4316033"><ele>723.0</ele><time>2026-03-27T10:07:36.647Z</time></trkpt><trkpt lat="44.867125" lon="9.4315133"><ele>723.0</ele><time>2026-03-27T10:07:37.647Z</time></trkpt><trkpt lat="44.8670033" lon="9.431435"><ele>723.0</ele><time>2026-03-27T10:07:38.649Z</time></trkpt><trkpt lat="44.8668767" lon="9.4313717"><ele>723.0</ele><time>2026-03-27T10:07:39.647Z</time></trkpt><trkpt lat="44.8667417" lon="9.4313317"><ele>722.25</ele><time>2026-03-27T10:07:40.646Z</time></trkpt><trkpt lat="44.8666033" lon="9.43133"><ele>721.5</ele><time>2026-03-27T10:07:41.647Z</time></trkpt><trkpt lat="44.8664617" lon="9.4313533"><ele>720.75</ele><time>2026-03-27T10:07:42.647Z</time></trkpt><trkpt lat="44.8663217" lon="9.4313967"><ele>720.0</ele><time>2026-03-27T10:07:43.651Z</time></trkpt><trkpt lat="44.8661867" lon="9.4314517"><ele>720.0</ele><time>2026-03-27T10:07:44.648Z</time></trkpt><trkpt lat="44.8660567" lon="9.4315133"><ele>720.0</ele><time>2026-03-27T10:07:45.648Z</time></trkpt><trkpt lat="44.8659267" lon="9.43158"><ele>720.0</ele><time>2026-03-27T10:07:46.648Z</time></trkpt><trkpt lat="44.865795" lon="9.4316417"><ele>720.0</ele><time>2026-03-27T10:07:47.647Z</time></trkpt><trkpt lat="44.8656633" lon="9.4316983"><ele>721.75</ele><time>2026-03-27T10:07:48.646Z</time></trkpt><trkpt lat="44.8655283" lon="9.4317483"><ele>723.5</ele><time>2026-03-27T10:07:49.649Z</time></trkpt><trkpt lat="44.8653917" lon="9.4317983"><ele>725.25</ele><time>2026-03-27T10:07:50.648Z</time></trkpt><trkpt lat="44.86526" lon="9.4318417"><ele>727.0</ele><time>2026-03-27T10:07:51.724Z</time></trkpt><trkpt lat="44.865135" lon="9.4318917"><ele>727.25</ele><time>2026-03-27T10:07:52.651Z</time></trkpt><trkpt lat="44.8650167" lon="9.4319583"><ele>727.5</ele><time>2026-03-27T10:07:53.647Z</time></trkpt><trkpt lat="44.8649" lon="9.4320517"><ele>727.75</ele><time>2026-03-27T10:07:54.647Z</time></trkpt><trkpt lat="44.86479" lon="9.4321467"><ele>728.0</ele><time>2026-03-27T10:07:55.652Z</time></trkpt><trkpt lat="44.8646767" lon="9.432255"><ele>728.0</ele><time>2026-03-27T10:07:56.651Z</time></trkpt><trkpt lat="44.864565" lon="9.4323717"><ele>728.0</ele><time>2026-03-27T10:07:57.646Z</time></trkpt><trkpt lat="44.8644533" lon="9.4324867"><ele>728.0</ele><time>2026-03-27T10:07:58.647Z</time></trkpt><trkpt lat="44.8643433" lon="9.4326167"><ele>728.0</ele><time>2026-03-27T10:07:59.646Z</time></trkpt><trkpt lat="44.8642367" lon="9.4327667"><ele>730.25</ele><time>2026-03-27T10:08:00.646Z</time></trkpt><trkpt lat="44.8641333" lon="9.4329317"><ele>732.5</ele><time>2026-03-27T10:08:01.647Z</time></trkpt><trkpt lat="44.8640383" lon="9.4330683"><ele>734.75</ele><time>2026-03-27T10:08:02.648Z</time></trkpt><trkpt lat="44.863935" lon="9.4331783"><ele>737.0</ele><time>2026-03-27T10:08:03.646Z</time></trkpt><trkpt lat="44.8638255" lon="9.4332661"><ele>737.0</ele><time>2026-03-27T10:08:04.646Z</time></trkpt><trkpt lat="44.8637042" lon="9.4333161"><ele>737.0</ele><time>2026-03-27T10:08:05.647Z</time></trkpt><trkpt lat="44.8635744" lon="9.4333257"><ele>737.0</ele><time>2026-03-27T10:08:06.647Z</time></trkpt><trkpt lat="44.8634476" lon="9.433308"><ele>737.0</ele><time>2026-03-27T10:08:07.646Z</time></trkpt><trkpt lat="44.86333" lon="9.4332898"><ele>739.75</ele><time>2026-03-27T10:08:08.648Z</time></trkpt><trkpt lat="44.8632208" lon="9.4333038"><ele>742.5</ele><time>2026-03-27T10:08:09.651Z</time></trkpt><trkpt lat="44.8631145" lon="9.4333565"><ele>745.25</ele><time>2026-03-27T10:08:10.648Z</time></trkpt><trkpt lat="44.8630142" lon="9.4334498"><ele>748.0</ele><time>2026-03-27T10:08:11.65Z</time></trkpt><trkpt lat="44.8629383" lon="9.4335847"><ele>748.0</ele><time>2026-03-27T10:08:12.646Z</time></trkpt><trkpt lat="44.8628903" lon="9.4337471"><ele>748.0</ele><time>2026-03-27T10:08:13.647Z</time></trkpt><trkpt lat="44.8628532" lon="9.4339123"><ele>748.0</ele><time>2026-03-27T10:08:14.649Z</time></trkpt><trkpt lat="44.8628074" lon="9.4340556"><ele>748.0</ele><time>2026-03-27T10:08:15.647Z</time></trkpt><trkpt lat="44.8627469" lon="9.4341532"><ele>748.2</ele><time>2026-03-27T10:08:16.649Z</time></trkpt><trkpt lat="44.862667" lon="9.4342063"><ele>748.4</ele><time>2026-03-27T10:08:17.647Z</time></trkpt><trkpt lat="44.8625729" lon="9.4342239"><ele>748.6</ele><time>2026-03-27T10:08:18.652Z</time></trkpt><trkpt lat="44.8624707" lon="9.4342033"><ele>748.8000000000001</ele><time>2026-03-27T10:08:19.647Z</time></trkpt><trkpt lat="44.8623534" lon="9.4341459"><ele>749.0</ele><time>2026-03-27T10:08:20.648Z</time></trkpt><trkpt lat="44.8622363" lon="9.434113"><ele>749.0</ele><time>2026-03-27T10:08:21.648Z</time></trkpt><trkpt lat="44.8621194" lon="9.4341446"><ele>749.0</ele><time>2026-03-27T10:08:22.648Z</time></trkpt><trkpt lat="44.8620014" lon="9.4342245"><ele>749.0</ele><time>2026-03-27T10:08:23.646Z</time></trkpt><trkpt lat="44.8618673" lon="9.4343325"><ele>749.0</ele><time>2026-03-27T10:08:24.648Z</time></trkpt><trkpt lat="44.8617251" lon="9.4344245"><ele>747.25</ele><time>2026-03-27T10:08:25.646Z</time></trkpt><trkpt lat="44.8615823" lon="9.4345019"><ele>745.5</ele><time>2026-03-27T10:08:26.647Z</time></trkpt><trkpt lat="44.8614441" lon="9.4345833"><ele>743.75</ele><time>2026-03-27T10:08:27.646Z</time></trkpt><trkpt lat="44.8613112" lon="9.4346648"><ele>742.0</ele><time>2026-03-27T10:08:28.651Z</time></trkpt><trkpt lat="44.8611726" lon="9.434745"><ele>742.0</ele><time>2026-03-27T10:08:29.73Z</time></trkpt><trkpt lat="44.8610388" lon="9.4347996"><ele>742.0</ele><time>2026-03-27T10:08:30.647Z</time></trkpt><trkpt lat="44.8608981" lon="9.4348387"><ele>742.0</ele><time>2026-03-27T10:08:31.647Z</time></trkpt><trkpt lat="44.860769" lon="9.4348959"><ele>742.0</ele><time>2026-03-27T10:08:32.65Z</time></trkpt><trkpt lat="44.8606559" lon="9.4349691"><ele>744.25</ele><time>2026-03-27T10:08:33.646Z</time></trkpt><trkpt lat="44.8605442" lon="9.4350222"><ele>746.5</ele><time>2026-03-27T10:08:34.647Z</time></trkpt><trkpt lat="44.8604297" lon="9.4350318"><ele>748.75</ele><time>2026-03-27T10:08:35.648Z</time></trkpt><trkpt lat="44.8603202" lon="9.4349978"><ele>751.0</ele><time>2026-03-27T10:08:36.648Z</time></trkpt><trkpt lat="44.8602107" lon="9.4349416"><ele>751.25</ele><time>2026-03-27T10:08:37.649Z</time></trkpt><trkpt lat="44.8601016" lon="9.4348769"><ele>751.5</ele><time>2026-03-27T10:08:38.648Z</time></trkpt><trkpt lat="44.8599827" lon="9.4348026"><ele>751.75</ele><time>2026-03-27T10:08:39.647Z</time></trkpt><trkpt lat="44.859859" lon="9.434713"><ele>752.0</ele><time>2026-03-27T10:08:40.649Z</time></trkpt><trkpt lat="44.8597296" lon="9.4346351"><ele>753.25</ele><time>2026-03-27T10:08:41.649Z</time></trkpt><trkpt lat="44.8595898" lon="9.4345934"><ele>754.5</ele><time>2026-03-27T10:08:42.647Z</time></trkpt><trkpt lat="44.85945" lon="9.4345881"><ele>755.75</ele><time>2026-03-27T10:08:43.648Z</time></trkpt><trkpt lat="44.8593157" lon="9.4346199"><ele>757.0</ele><time>2026-03-27T10:08:44.648Z</time></trkpt><trkpt lat="44.8591946" lon="9.4347103"><ele>757.0</ele><time>2026-03-27T10:08:45.647Z</time></trkpt><trkpt lat="44.8590856" lon="9.4348536"><ele>757.0</ele><time>2026-03-27T10:08:46.648Z</time></trkpt><trkpt lat="44.8589856" lon="9.4350157"><ele>757.0</ele><time>2026-03-27T10:08:47.647Z</time></trkpt><trkpt lat="44.8588973" lon="9.4351726"><ele>757.0</ele><time>2026-03-27T10:08:48.648Z</time></trkpt><trkpt lat="44.8588179" lon="9.435315"><ele>757.0</ele><time>2026-03-27T10:08:49.647Z</time></trkpt><trkpt lat="44.8587435" lon="9.4354514"><ele>757.0</ele><time>2026-03-27T10:08:50.647Z</time></trkpt><trkpt lat="44.8586693" lon="9.4355863"><ele>757.0</ele><time>2026-03-27T10:08:51.647Z</time></trkpt><trkpt lat="44.8585872" lon="9.4357308"><ele>757.0</ele><time>2026-03-27T10:08:52.648Z</time></trkpt><trkpt lat="44.8584967" lon="9.4358801"><ele>755.0</ele><time>2026-03-27T10:08:53.647Z</time></trkpt><trkpt lat="44.8583986" lon="9.43604"><ele>753.0</ele><time>2026-03-27T10:08:54.647Z</time></trkpt><trkpt lat="44.8582927" lon="9.4362038"><ele>751.0</ele><time>2026-03-27T10:08:55.647Z</time></trkpt><trkpt lat="44.8581879" lon="9.4363691"><ele>751.0</ele><time>2026-03-27T10:08:56.649Z</time></trkpt><trkpt lat="44.8580885" lon="9.4365277"><ele>751.0</ele><time>2026-03-27T10:08:57.647Z</time></trkpt><trkpt lat="44.8579944" lon="9.4366746"><ele>751.0</ele><time>2026-03-27T10:08:58.647Z</time></trkpt><trkpt lat="44.857907" lon="9.4368133"><ele>751.0</ele><time>2026-03-27T10:08:59.647Z</time></trkpt><trkpt lat="44.8578375" lon="9.4369509"><ele>751.0</ele><time>2026-03-27T10:09:00.648Z</time></trkpt><trkpt lat="44.8577993" lon="9.4371034"><ele>751.0</ele><time>2026-03-27T10:09:01.647Z</time></trkpt><trkpt lat="44.8577973" lon="9.4372668"><ele>751.0</ele><time>2026-03-27T10:09:02.648Z</time></trkpt><trkpt lat="44.8578312" lon="9.4374389"><ele>751.0</ele><time>2026-03-27T10:09:03.647Z</time></trkpt><trkpt lat="44.8578731" lon="9.4376029"><ele>750.8333333333334</ele><time>2026-03-27T10:09:04.646Z</time></trkpt><trkpt lat="44.8578926" lon="9.4377486"><ele>750.6666666666667</ele><time>2026-03-27T10:09:05.648Z</time></trkpt><trkpt lat="44.8578896" lon="9.4378777"><ele>750.5</ele><time>2026-03-27T10:09:06.65Z</time></trkpt><trkpt lat="44.8578631" lon="9.4379921"><ele>750.3333333333334</ele><time>2026-03-27T10:09:07.646Z</time></trkpt><trkpt lat="44.8578083" lon="9.438078"><ele>750.1666666666666</ele><time>2026-03-27T10:09:08.648Z</time></trkpt><trkpt lat="44.8577332" lon="9.4381349"><ele>750.0</ele><time>2026-03-27T10:09:09.647Z</time></trkpt><trkpt lat="44.857645" lon="9.438161"><ele>751.5</ele><time>2026-03-27T10:09:10.647Z</time></trkpt><trkpt lat="44.8575456" lon="9.4381667"><ele>753.0</ele><time>2026-03-27T10:09:11.647Z</time></trkpt><trkpt lat="44.8574278" lon="9.4381639"><ele>754.5</ele><time>2026-03-27T10:09:12.647Z</time></trkpt><trkpt lat="44.8572977" lon="9.4381688"><ele>756.0</ele><time>2026-03-27T10:09:13.646Z</time></trkpt><trkpt lat="44.8571632" lon="9.4381862"><ele>756.0</ele><time>2026-03-27T10:09:14.647Z</time></trkpt><trkpt lat="44.8570292" lon="9.4382197"><ele>756.0</ele><time>2026-03-27T10:09:15.647Z</time></trkpt><trkpt lat="44.8568963" lon="9.4382753"><ele>756.0</ele><time>2026-03-27T10:09:16.648Z</time></trkpt><trkpt lat="44.8567722" lon="9.438361"><ele>756.0</ele><time>2026-03-27T10:09:17.648Z</time></trkpt><trkpt lat="44.8566686" lon="9.4384816"><ele>756.25</ele><time>2026-03-27T10:09:18.647Z</time></trkpt><trkpt lat="44.8565872" lon="9.4386221"><ele>756.5</ele><time>2026-03-27T10:09:19.648Z</time></trkpt><trkpt lat="44.8565254" lon="9.4387725"><ele>756.75</ele><time>2026-03-27T10:09:20.647Z</time></trkpt><trkpt lat="44.856482" lon="9.4389376"><ele>757.0</ele><time>2026-03-27T10:09:21.647Z</time></trkpt><trkpt lat="44.8564551" lon="9.4391106"><ele>757.0</ele><time>2026-03-27T10:09:22.648Z</time></trkpt><trkpt lat="44.8564398" lon="9.4392844"><ele>757.0</ele><time>2026-03-27T10:09:23.649Z</time></trkpt><trkpt lat="44.8564211" lon="9.4394659"><ele>757.0</ele><time>2026-03-27T10:09:24.648Z</time></trkpt><trkpt lat="44.8564016" lon="9.4396566"><ele>757.0</ele><time>2026-03-27T10:09:25.648Z</time></trkpt><trkpt lat="44.856382" lon="9.4398533"><ele>754.5</ele><time>2026-03-27T10:09:26.647Z</time></trkpt><trkpt lat="44.8563592" lon="9.440044"><ele>752.0</ele><time>2026-03-27T10:09:27.651Z</time></trkpt><trkpt lat="44.856327" lon="9.4402141"><ele>749.5</ele><time>2026-03-27T10:09:28.649Z</time></trkpt><trkpt lat="44.8562891" lon="9.4403604"><ele>747.0</ele><time>2026-03-27T10:09:29.649Z</time></trkpt><trkpt lat="44.8562293" lon="9.4404792"><ele>744.75</ele><time>2026-03-27T10:09:30.647Z</time></trkpt><trkpt lat="44.8561404" lon="9.4405756"><ele>742.5</ele><time>2026-03-27T10:09:31.647Z</time></trkpt><trkpt lat="44.8560372" lon="9.4406526"><ele>740.25</ele><time>2026-03-27T10:09:32.647Z</time></trkpt><trkpt lat="44.8559368" lon="9.4407253"><ele>738.0</ele><time>2026-03-27T10:09:33.648Z</time></trkpt><trkpt lat="44.8558485" lon="9.4408206"><ele>740.5999999999999</ele><time>2026-03-27T10:09:34.65Z</time></trkpt><trkpt lat="44.8558002" lon="9.4409482"><ele>743.1999999999999</ele><time>2026-03-27T10:09:35.647Z</time></trkpt><trkpt lat="44.8557899" lon="9.4411003"><ele>745.8</ele><time>2026-03-27T10:09:36.647Z</time></trkpt><trkpt lat="44.8558071" lon="9.441256"><ele>748.4</ele><time>2026-03-27T10:09:37.649Z</time></trkpt><trkpt lat="44.8558357" lon="9.4414123"><ele>751.0</ele><time>2026-03-27T10:09:38.648Z</time></trkpt><trkpt lat="44.8558767" lon="9.4415715"><ele>751.0</ele><time>2026-03-27T10:09:39.647Z</time></trkpt><trkpt lat="44.855922" lon="9.4417293"><ele>751.0</ele><time>2026-03-27T10:09:40.647Z</time></trkpt><trkpt lat="44.8559592" lon="9.4418852"><ele>751.0</ele><time>2026-03-27T10:09:41.647Z</time></trkpt><trkpt lat="44.8559823" lon="9.4420507"><ele>751.0</ele><time>2026-03-27T10:09:42.647Z</time></trkpt><trkpt lat="44.8559853" lon="9.4422263"><ele>751.5</ele><time>2026-03-27T10:09:43.647Z</time></trkpt><trkpt lat="44.8559721" lon="9.442407"><ele>752.0</ele><time>2026-03-27T10:09:44.649Z</time></trkpt><trkpt lat="44.85595" lon="9.4425964"><ele>752.5</ele><time>2026-03-27T10:09:45.648Z</time></trkpt><trkpt lat="44.8559255" lon="9.4427803"><ele>753.0</ele><time>2026-03-27T10:09:46.647Z</time></trkpt><trkpt lat="44.8558889" lon="9.4429483"><ele>751.5</ele><time>2026-03-27T10:09:47.647Z</time></trkpt><trkpt lat="44.8558367" lon="9.4431121"><ele>750.0</ele><time>2026-03-27T10:09:48.647Z</time></trkpt><trkpt lat="44.8557652" lon="9.4432515"><ele>748.5</ele><time>2026-03-27T10:09:49.648Z</time></trkpt><trkpt lat="44.8556827" lon="9.4433583"><ele>747.0</ele><time>2026-03-27T10:09:50.649Z</time></trkpt><trkpt lat="44.8555946" lon="9.4434493"><ele>747.0</ele><time>2026-03-27T10:09:51.646Z</time></trkpt><trkpt lat="44.8555075" lon="9.4435383"><ele>747.0</ele><time>2026-03-27T10:09:52.646Z</time></trkpt><trkpt lat="44.8554206" lon="9.4436195"><ele>747.0</ele><time>2026-03-27T10:09:53.646Z</time></trkpt><trkpt lat="44.8553429" lon="9.4436812"><ele>747.0</ele><time>2026-03-27T10:09:54.648Z</time></trkpt><trkpt lat="44.8552675" lon="9.4437319"><ele>747.0</ele><time>2026-03-27T10:09:55.647Z</time></trkpt><trkpt lat="44.8551913" lon="9.4437616"><ele>747.0</ele><time>2026-03-27T10:09:56.65Z</time></trkpt><trkpt lat="44.8551213" lon="9.4437623"><ele>747.0</ele><time>2026-03-27T10:09:57.647Z</time></trkpt><trkpt lat="44.8550591" lon="9.4437238"><ele>747.0</ele><time>2026-03-27T10:09:58.648Z</time></trkpt><trkpt lat="44.8550019" lon="9.4436745"><ele>747.0</ele><time>2026-03-27T10:09:59.647Z</time></trkpt><trkpt lat="44.8549403" lon="9.4435189"><ele>747.0</ele><time>2026-03-27T10:10:01.648Z</time></trkpt><trkpt lat="44.8549218" lon="9.4434315"><ele>747.0</ele><time>2026-03-27T10:10:02.648Z</time></trkpt><trkpt lat="44.8549005" lon="9.4433461"><ele>747.0</ele><time>2026-03-27T10:10:03.648Z</time></trkpt><trkpt lat="44.854886" lon="9.4432448"><ele>747.0</ele><time>2026-03-27T10:10:04.647Z</time></trkpt><trkpt lat="44.8548754" lon="9.4431381"><ele>747.0</ele><time>2026-03-27T10:10:05.647Z</time></trkpt><trkpt lat="44.8548745" lon="9.4430269"><ele>747.0</ele><time>2026-03-27T10:10:06.647Z</time></trkpt><trkpt lat="44.8548823" lon="9.4429073"><ele>747.0</ele><time>2026-03-27T10:10:07.647Z</time></trkpt><trkpt lat="44.8548917" lon="9.4427804"><ele>747.0</ele><time>2026-03-27T10:10:08.651Z</time></trkpt><trkpt lat="44.8548943" lon="9.44264"><ele>749.0</ele><time>2026-03-27T10:10:09.647Z</time></trkpt><trkpt lat="44.8548714" lon="9.4425025"><ele>751.0</ele><time>2026-03-27T10:10:10.65Z</time></trkpt><trkpt lat="44.854834" lon="9.4423803"><ele>753.0</ele><time>2026-03-27T10:10:11.647Z</time></trkpt><trkpt lat="44.8547159" lon="9.4423308"><ele>755.0</ele><time>2026-03-27T10:10:12.647Z</time></trkpt><trkpt lat="44.8545588" lon="9.4423145"><ele>755.0</ele><time>2026-03-27T10:10:13.648Z</time></trkpt><trkpt lat="44.854409" lon="9.4422991"><ele>755.0</ele><time>2026-03-27T10:10:14.647Z</time></trkpt><trkpt lat="44.8542777" lon="9.4422545"><ele>755.0</ele><time>2026-03-27T10:10:15.647Z</time></trkpt><trkpt lat="44.854163" lon="9.4421742"><ele>755.0</ele><time>2026-03-27T10:10:16.648Z</time></trkpt><trkpt lat="44.8540618" lon="9.4420587"><ele>753.5</ele><time>2026-03-27T10:10:17.647Z</time></trkpt><trkpt lat="44.8539712" lon="9.4419145"><ele>752.0</ele><time>2026-03-27T10:10:18.649Z</time></trkpt><trkpt lat="44.853879" lon="9.4417584"><ele>750.5</ele><time>2026-03-27T10:10:19.646Z</time></trkpt><trkpt lat="44.8537873" lon="9.4416045"><ele>749.0</ele><time>2026-03-27T10:10:20.65Z</time></trkpt><trkpt lat="44.8537017" lon="9.4414574"><ele>749.0</ele><time>2026-03-27T10:10:21.647Z</time></trkpt><trkpt lat="44.8536228" lon="9.4413159"><ele>749.0</ele><time>2026-03-27T10:10:22.652Z</time></trkpt><trkpt lat="44.853551" lon="9.441181"><ele>749.0</ele><time>2026-03-27T10:10:23.648Z</time></trkpt><trkpt lat="44.8534929" lon="9.4410351"><ele>749.0</ele><time>2026-03-27T10:10:24.649Z</time></trkpt><trkpt lat="44.853449" lon="9.4408686"><ele>747.25</ele><time>2026-03-27T10:10:25.648Z</time></trkpt><trkpt lat="44.8534059" lon="9.4406872"><ele>745.5</ele><time>2026-03-27T10:10:26.648Z</time></trkpt><trkpt lat="44.8533548" lon="9.4405076"><ele>743.75</ele><time>2026-03-27T10:10:27.647Z</time></trkpt><trkpt lat="44.8532889" lon="9.4403373"><ele>742.0</ele><time>2026-03-27T10:10:28.648Z</time></trkpt><trkpt lat="44.8532053" lon="9.4401947"><ele>742.0</ele><time>2026-03-27T10:10:29.649Z</time></trkpt><trkpt lat="44.8530998" lon="9.4400997"><ele>742.0</ele><time>2026-03-27T10:10:30.647Z</time></trkpt><trkpt lat="44.8529791" lon="9.4400312"><ele>742.0</ele><time>2026-03-27T10:10:31.647Z</time></trkpt><trkpt lat="44.8528596" lon="9.4399548"><ele>742.0</ele><time>2026-03-27T10:10:32.653Z</time></trkpt><trkpt lat="44.8527515" lon="9.4398576"><ele>742.0</ele><time>2026-03-27T10:10:33.647Z</time></trkpt><trkpt lat="44.8526614" lon="9.4397469"><ele>742.0</ele><time>2026-03-27T10:10:34.647Z</time></trkpt><trkpt lat="44.8525756" lon="9.439638"><ele>742.0</ele><time>2026-03-27T10:10:35.647Z</time></trkpt><trkpt lat="44.8524782" lon="9.4395628"><ele>742.0</ele><time>2026-03-27T10:10:36.647Z</time></trkpt><trkpt lat="44.8523569" lon="9.4395388"><ele>743.5</ele><time>2026-03-27T10:10:37.648Z</time></trkpt><trkpt lat="44.8522232" lon="9.4395649"><ele>745.0</ele><time>2026-03-27T10:10:38.647Z</time></trkpt><trkpt lat="44.8520854" lon="9.4396175"><ele>746.5</ele><time>2026-03-27T10:10:39.647Z</time></trkpt><trkpt lat="44.8519492" lon="9.4396689"><ele>748.0</ele><time>2026-03-27T10:10:40.647Z</time></trkpt><trkpt lat="44.8518091" lon="9.4397125"><ele>742.25</ele><time>2026-03-27T10:10:41.647Z</time></trkpt><trkpt lat="44.8516668" lon="9.4397519"><ele>736.5</ele><time>2026-03-27T10:10:42.647Z</time></trkpt><trkpt lat="44.8515275" lon="9.4397936"><ele>730.75</ele><time>2026-03-27T10:10:43.647Z</time></trkpt><trkpt lat="44.8513932" lon="9.4398399"><ele>725.0</ele><time>2026-03-27T10:10:44.647Z</time></trkpt><trkpt lat="44.85126" lon="9.4398777"><ele>725.0</ele><time>2026-03-27T10:10:45.648Z</time></trkpt><trkpt lat="44.8511337" lon="9.4399051"><ele>725.0</ele><time>2026-03-27T10:10:46.648Z</time></trkpt><trkpt lat="44.8510186" lon="9.4399487"><ele>725.0</ele><time>2026-03-27T10:10:47.649Z</time></trkpt><trkpt lat="44.8509176" lon="9.440035"><ele>725.0</ele><time>2026-03-27T10:10:48.648Z</time></trkpt><trkpt lat="44.8508325" lon="9.4401532"><ele>725.6</ele><time>2026-03-27T10:10:49.647Z</time></trkpt><trkpt lat="44.8507521" lon="9.4402775"><ele>726.2</ele><time>2026-03-27T10:10:50.647Z</time></trkpt><trkpt lat="44.8506707" lon="9.4403783"><ele>726.8</ele><time>2026-03-27T10:10:51.647Z</time></trkpt><trkpt lat="44.8505843" lon="9.4404416"><ele>727.4</ele><time>2026-03-27T10:10:52.647Z</time></trkpt><trkpt lat="44.8504894" lon="9.4404621"><ele>728.0</ele><time>2026-03-27T10:10:53.648Z</time></trkpt><trkpt lat="44.8503936" lon="9.4404378"><ele>728.0</ele><time>2026-03-27T10:10:54.648Z</time></trkpt><trkpt lat="44.8503028" lon="9.440369"><ele>728.0</ele><time>2026-03-27T10:10:55.646Z</time></trkpt><trkpt lat="44.850223" lon="9.4402526"><ele>728.0</ele><time>2026-03-27T10:10:56.649Z</time></trkpt><trkpt lat="44.8501539" lon="9.4401028"><ele>728.0</ele><time>2026-03-27T10:10:57.648Z</time></trkpt><trkpt lat="44.8500938" lon="9.4399249"><ele>726.5</ele><time>2026-03-27T10:10:58.647Z</time></trkpt><trkpt lat="44.8500393" lon="9.4397284"><ele>725.0</ele><time>2026-03-27T10:10:59.648Z</time></trkpt><trkpt lat="44.8499855" lon="9.4395348"><ele>723.5</ele><time>2026-03-27T10:11:00.648Z</time></trkpt><trkpt lat="44.849931" lon="9.4393614"><ele>722.0</ele><time>2026-03-27T10:11:01.647Z</time></trkpt><trkpt lat="44.8498722" lon="9.4392114"><ele>722.0</ele><time>2026-03-27T10:11:02.647Z</time></trkpt><trkpt lat="44.8497904" lon="9.4390911"><ele>722.0</ele><time>2026-03-27T10:11:03.647Z</time></trkpt><trkpt lat="44.8496814" lon="9.4390048"><ele>722.0</ele><time>2026-03-27T10:11:04.648Z</time></trkpt><trkpt lat="44.8495579" lon="9.4389437"><ele>722.0</ele><time>2026-03-27T10:11:05.647Z</time></trkpt><trkpt lat="44.849432" lon="9.4389005"><ele>722.0</ele><time>2026-03-27T10:11:06.648Z</time></trkpt><trkpt lat="44.8493109" lon="9.4388604"><ele>722.0</ele><time>2026-03-27T10:11:07.647Z</time></trkpt><trkpt lat="44.8492014" lon="9.438804"><ele>722.0</ele><time>2026-03-27T10:11:08.649Z</time></trkpt><trkpt lat="44.8491107" lon="9.4387167"><ele>722.0</ele><time>2026-03-27T10:11:09.648Z</time></trkpt><trkpt lat="44.8490348" lon="9.4385954"><ele>722.0</ele><time>2026-03-27T10:11:10.648Z</time></trkpt><trkpt lat="44.8489622" lon="9.4384682"><ele>722.0</ele><time>2026-03-27T10:11:11.647Z</time></trkpt><trkpt lat="44.8488735" lon="9.4383747"><ele>722.0</ele><time>2026-03-27T10:11:12.647Z</time></trkpt><trkpt lat="44.8487689" lon="9.4383355"><ele>722.0</ele><time>2026-03-27T10:11:13.647Z</time></trkpt><trkpt lat="44.8486455" lon="9.4383546"><ele>722.0</ele><time>2026-03-27T10:11:14.648Z</time></trkpt><trkpt lat="44.848516" lon="9.4384241"><ele>722.0</ele><time>2026-03-27T10:11:15.647Z</time></trkpt><trkpt lat="44.8483866" lon="9.4385139"><ele>722.0</ele><time>2026-03-27T10:11:16.648Z</time></trkpt><trkpt lat="44.8482556" lon="9.4386075"><ele>722.0</ele><time>2026-03-27T10:11:17.649Z</time></trkpt><trkpt lat="44.8481265" lon="9.4387036"><ele>720.75</ele><time>2026-03-27T10:11:18.647Z</time></trkpt><trkpt lat="44.8480051" lon="9.4387972"><ele>719.5</ele><time>2026-03-27T10:11:19.648Z</time></trkpt><trkpt lat="44.8478949" lon="9.4388873"><ele>718.25</ele><time>2026-03-27T10:11:20.649Z</time></trkpt><trkpt lat="44.8477867" lon="9.4389717"><ele>717.0</ele><time>2026-03-27T10:11:21.647Z</time></trkpt><trkpt lat="44.84768" lon="9.4390267"><ele>718.6</ele><time>2026-03-27T10:11:22.648Z</time></trkpt><trkpt lat="44.8475733" lon="9.4390333"><ele>720.2</ele><time>2026-03-27T10:11:23.647Z</time></trkpt><trkpt lat="44.8474783" lon="9.4389933"><ele>721.8</ele><time>2026-03-27T10:11:24.647Z</time></trkpt><trkpt lat="44.847385" lon="9.4389133"><ele>723.4</ele><time>2026-03-27T10:11:25.646Z</time></trkpt><trkpt lat="44.847285" lon="9.4388233"><ele>725.0</ele><time>2026-03-27T10:11:26.647Z</time></trkpt><trkpt lat="44.8471683" lon="9.4387567"><ele>725.0</ele><time>2026-03-27T10:11:27.652Z</time></trkpt><trkpt lat="44.8470367" lon="9.4386917"><ele>725.0</ele><time>2026-03-27T10:11:28.647Z</time></trkpt><trkpt lat="44.8468967" lon="9.4386217"><ele>725.0</ele><time>2026-03-27T10:11:29.648Z</time></trkpt><trkpt lat="44.846755" lon="9.43854"><ele>725.0</ele><time>2026-03-27T10:11:30.648Z</time></trkpt><trkpt lat="44.8465983" lon="9.4384633"><ele>720.6666666666666</ele><time>2026-03-27T10:11:31.648Z</time></trkpt><trkpt lat="44.846435" lon="9.438415"><ele>716.3333333333334</ele><time>2026-03-27T10:11:32.647Z</time></trkpt><trkpt lat="44.8462717" lon="9.4383983"><ele>712.0</ele><time>2026-03-27T10:11:33.648Z</time></trkpt><trkpt lat="44.8461233" lon="9.4383983"><ele>712.0</ele><time>2026-03-27T10:11:34.648Z</time></trkpt><trkpt lat="44.8459917" lon="9.438405"><ele>712.0</ele><time>2026-03-27T10:11:35.648Z</time></trkpt><trkpt lat="44.8458783" lon="9.438395"><ele>712.0</ele><time>2026-03-27T10:11:36.647Z</time></trkpt><trkpt lat="44.8458" lon="9.438355"><ele>712.0</ele><time>2026-03-27T10:11:37.647Z</time></trkpt><trkpt lat="44.8457433" lon="9.4383033"><ele>712.0</ele><time>2026-03-27T10:11:38.647Z</time></trkpt><trkpt lat="44.8457067" lon="9.438105"><ele>712.6</ele><time>2026-03-27T10:11:40.647Z</time></trkpt><trkpt lat="44.8456967" lon="9.437975"><ele>713.2</ele><time>2026-03-27T10:11:41.647Z</time></trkpt><trkpt lat="44.84566" lon="9.4378317"><ele>713.8</ele><time>2026-03-27T10:11:42.647Z</time></trkpt><trkpt lat="44.8455883" lon="9.4377267"><ele>714.4</ele><time>2026-03-27T10:11:43.647Z</time></trkpt><trkpt lat="44.8454933" lon="9.437665"><ele>715.0</ele><time>2026-03-27T10:11:44.647Z</time></trkpt><trkpt lat="44.845385" lon="9.4376283"><ele>715.0</ele><time>2026-03-27T10:11:45.646Z</time></trkpt><trkpt lat="44.845265" lon="9.4376017"><ele>715.0</ele><time>2026-03-27T10:11:46.647Z</time></trkpt><trkpt lat="44.845135" lon="9.4375683"><ele>715.0</ele><time>2026-03-27T10:11:47.648Z</time></trkpt><trkpt lat="44.8450117" lon="9.43752"><ele>715.0</ele><time>2026-03-27T10:11:48.648Z</time></trkpt><trkpt lat="44.8448917" lon="9.4374583"><ele>718.25</ele><time>2026-03-27T10:11:49.648Z</time></trkpt><trkpt lat="44.8447733" lon="9.43738"><ele>721.5</ele><time>2026-03-27T10:11:50.648Z</time></trkpt><trkpt lat="44.844665" lon="9.4372717"><ele>724.75</ele><time>2026-03-27T10:11:51.648Z</time></trkpt><trkpt lat="44.84456" lon="9.4371683"><ele>728.0</ele><time>2026-03-27T10:11:52.648Z</time></trkpt><trkpt lat="44.8444433" lon="9.4370983"><ele>728.0</ele><time>2026-03-27T10:11:53.648Z</time></trkpt><trkpt lat="44.8443233" lon="9.4370383"><ele>728.0</ele><time>2026-03-27T10:11:54.649Z</time></trkpt><trkpt lat="44.8442083" lon="9.43696"><ele>728.0</ele><time>2026-03-27T10:11:55.646Z</time></trkpt><trkpt lat="44.8440917" lon="9.4368833"><ele>728.0</ele><time>2026-03-27T10:11:56.647Z</time></trkpt><trkpt lat="44.8439683" lon="9.436855"><ele>724.25</ele><time>2026-03-27T10:11:57.646Z</time></trkpt><trkpt lat="44.84384" lon="9.4368833"><ele>720.5</ele><time>2026-03-27T10:11:58.648Z</time></trkpt><trkpt lat="44.8437033" lon="9.4369467"><ele>716.75</ele><time>2026-03-27T10:11:59.647Z</time></trkpt><trkpt lat="44.8435617" lon="9.437015"><ele>713.0</ele><time>2026-03-27T10:12:00.648Z</time></trkpt><trkpt lat="44.8434183" lon="9.4370733"><ele>705.75</ele><time>2026-03-27T10:12:01.647Z</time></trkpt><trkpt lat="44.8432817" lon="9.4371367"><ele>698.5</ele><time>2026-03-27T10:12:02.648Z</time></trkpt><trkpt lat="44.84315" lon="9.43722"><ele>691.25</ele><time>2026-03-27T10:12:03.647Z</time></trkpt><trkpt lat="44.8430183" lon="9.43731"><ele>684.0</ele><time>2026-03-27T10:12:04.647Z</time></trkpt><trkpt lat="44.8428983" lon="9.4374083"><ele>684.0</ele><time>2026-03-27T10:12:05.649Z</time></trkpt><trkpt lat="44.8427967" lon="9.4375367"><ele>684.0</ele><time>2026-03-27T10:12:06.649Z</time></trkpt><trkpt lat="44.8427167" lon="9.437705"><ele>684.0</ele><time>2026-03-27T10:12:07.648Z</time></trkpt><trkpt lat="44.842655" lon="9.4379017"><ele>684.0</ele><time>2026-03-27T10:12:08.65Z</time></trkpt><trkpt lat="44.842595" lon="9.438095"><ele>684.25</ele><time>2026-03-27T10:12:09.647Z</time></trkpt><trkpt lat="44.8425333" lon="9.4382683"><ele>684.5</ele><time>2026-03-27T10:12:10.648Z</time></trkpt><trkpt lat="44.8424667" lon="9.4384283"><ele>684.75</ele><time>2026-03-27T10:12:11.648Z</time></trkpt><trkpt lat="44.8423933" lon="9.43857"><ele>685.0</ele><time>2026-03-27T10:12:12.648Z</time></trkpt><trkpt lat="44.8423133" lon="9.43869"><ele>685.0</ele><time>2026-03-27T10:12:13.648Z</time></trkpt><trkpt lat="44.84222" lon="9.43878"><ele>685.0</ele><time>2026-03-27T10:12:14.649Z</time></trkpt><trkpt lat="44.8421167" lon="9.438815"><ele>685.0</ele><time>2026-03-27T10:12:15.647Z</time></trkpt><trkpt lat="44.8419933" lon="9.4388067"><ele>685.0</ele><time>2026-03-27T10:12:16.646Z</time></trkpt><trkpt lat="44.8418633" lon="9.4388017"><ele>683.75</ele><time>2026-03-27T10:12:17.648Z</time></trkpt><trkpt lat="44.8417283" lon="9.438805"><ele>682.5</ele><time>2026-03-27T10:12:18.648Z</time></trkpt><trkpt lat="44.8415967" lon="9.4388667"><ele>681.25</ele><time>2026-03-27T10:12:19.648Z</time></trkpt><trkpt lat="44.8414783" lon="9.4389767"><ele>680.0</ele><time>2026-03-27T10:12:20.649Z</time></trkpt><trkpt lat="44.84139" lon="9.4390983"><ele>680.0</ele><time>2026-03-27T10:12:21.647Z</time></trkpt><trkpt lat="44.8413017" lon="9.43919"><ele>680.0</ele><time>2026-03-27T10:12:22.647Z</time></trkpt><trkpt lat="44.8412083" lon="9.4392133"><ele>680.0</ele><time>2026-03-27T10:12:23.647Z</time></trkpt><trkpt lat="44.8411133" lon="9.4391883"><ele>680.0</ele><time>2026-03-27T10:12:24.649Z</time></trkpt><trkpt lat="44.841005" lon="9.4391433"><ele>680.0</ele><time>2026-03-27T10:12:25.65Z</time></trkpt><trkpt lat="44.8408833" lon="9.4391283"><ele>681.25</ele><time>2026-03-27T10:12:26.648Z</time></trkpt><trkpt lat="44.84076" lon="9.439175"><ele>682.5</ele><time>2026-03-27T10:12:27.648Z</time></trkpt><trkpt lat="44.8406517" lon="9.43927"><ele>683.75</ele><time>2026-03-27T10:12:28.646Z</time></trkpt><trkpt lat="44.8405633" lon="9.439385"><ele>685.0</ele><time>2026-03-27T10:12:29.648Z</time></trkpt><trkpt lat="44.84049" lon="9.4395283"><ele>680.0</ele><time>2026-03-27T10:12:30.646Z</time></trkpt><trkpt lat="44.8404317" lon="9.4396967"><ele>675.0</ele><time>2026-03-27T10:12:31.648Z</time></trkpt><trkpt lat="44.8403733" lon="9.43989"><ele>670.0</ele><time>2026-03-27T10:12:32.647Z</time></trkpt><trkpt lat="44.8402983" lon="9.4400867"><ele>665.0</ele><time>2026-03-27T10:12:33.648Z</time></trkpt><trkpt lat="44.8402267" lon="9.4402633"><ele>665.0</ele><time>2026-03-27T10:12:34.647Z</time></trkpt><trkpt lat="44.8401567" lon="9.4404317"><ele>665.0</ele><time>2026-03-27T10:12:35.646Z</time></trkpt><trkpt lat="44.8400883" lon="9.4405933"><ele>665.0</ele><time>2026-03-27T10:12:36.647Z</time></trkpt><trkpt lat="44.8400133" lon="9.4407583"><ele>665.0</ele><time>2026-03-27T10:12:37.647Z</time></trkpt><trkpt lat="44.8399267" lon="9.4409117"><ele>665.5</ele><time>2026-03-27T10:12:38.649Z</time></trkpt><trkpt lat="44.839835" lon="9.4410333"><ele>666.0</ele><time>2026-03-27T10:12:39.647Z</time></trkpt><trkpt lat="44.8397417" lon="9.441115"><ele>666.5</ele><time>2026-03-27T10:12:40.647Z</time></trkpt><trkpt lat="44.8396267" lon="9.4411583"><ele>667.0</ele><time>2026-03-27T10:12:41.646Z</time></trkpt><trkpt lat="44.839495" lon="9.4411983"><ele>667.0</ele><time>2026-03-27T10:12:42.647Z</time></trkpt><trkpt lat="44.839355" lon="9.441265"><ele>667.0</ele><time>2026-03-27T10:12:43.649Z</time></trkpt><trkpt lat="44.8392183" lon="9.4413467"><ele>667.0</ele><time>2026-03-27T10:12:44.648Z</time></trkpt><trkpt lat="44.839095" lon="9.4414233"><ele>667.0</ele><time>2026-03-27T10:12:45.646Z</time></trkpt><trkpt lat="44.838975" lon="9.44147"><ele>663.25</ele><time>2026-03-27T10:12:46.646Z</time></trkpt><trkpt lat="44.8388617" lon="9.44148"><ele>659.5</ele><time>2026-03-27T10:12:47.647Z</time></trkpt><trkpt lat="44.8387517" lon="9.4414417"><ele>655.75</ele><time>2026-03-27T10:12:48.648Z</time></trkpt><trkpt lat="44.83864" lon="9.4413917"><ele>652.0</ele><time>2026-03-27T10:12:49.647Z</time></trkpt><trkpt lat="44.8385267" lon="9.4413533"><ele>652.0</ele><time>2026-03-27T10:12:50.648Z</time></trkpt><trkpt lat="44.8384067" lon="9.4413467"><ele>652.0</ele><time>2026-03-27T10:12:51.647Z</time></trkpt><trkpt lat="44.83829" lon="9.4413633"><ele>652.0</ele><time>2026-03-27T10:12:52.647Z</time></trkpt><trkpt lat="44.838175" lon="9.4413817"><ele>652.0</ele><time>2026-03-27T10:12:53.647Z</time></trkpt><trkpt lat="44.83806" lon="9.44141"><ele>652.0</ele><time>2026-03-27T10:12:54.648Z</time></trkpt><trkpt lat="44.8379567" lon="9.4414683"><ele>652.0</ele><time>2026-03-27T10:12:55.651Z</time></trkpt><trkpt lat="44.8378667" lon="9.4415617"><ele>652.0</ele><time>2026-03-27T10:12:56.647Z</time></trkpt><trkpt lat="44.837795" lon="9.4416833"><ele>652.0</ele><time>2026-03-27T10:12:57.647Z</time></trkpt><trkpt lat="44.837745" lon="9.4418183"><ele>652.0</ele><time>2026-03-27T10:12:58.648Z</time></trkpt><trkpt lat="44.837695" lon="9.4419483"><ele>649.25</ele><time>2026-03-27T10:12:59.648Z</time></trkpt><trkpt lat="44.8376133" lon="9.4420617"><ele>646.5</ele><time>2026-03-27T10:13:00.648Z</time></trkpt><trkpt lat="44.83751" lon="9.442155"><ele>643.75</ele><time>2026-03-27T10:13:01.647Z</time></trkpt><trkpt lat="44.837405" lon="9.442235"><ele>641.0</ele><time>2026-03-27T10:13:02.648Z</time></trkpt><trkpt lat="44.8373033" lon="9.4423017"><ele>641.0</ele><time>2026-03-27T10:13:03.648Z</time></trkpt><trkpt lat="44.837195" lon="9.442345"><ele>641.0</ele><time>2026-03-27T10:13:04.646Z</time></trkpt><trkpt lat="44.8370733" lon="9.4423617"><ele>641.0</ele><time>2026-03-27T10:13:05.649Z</time></trkpt><trkpt lat="44.8369417" lon="9.4423417"><ele>641.0</ele><time>2026-03-27T10:13:06.648Z</time></trkpt><trkpt lat="44.8368233" lon="9.4422867"><ele>640.5</ele><time>2026-03-27T10:13:07.648Z</time></trkpt><trkpt lat="44.8367167" lon="9.4422033"><ele>640.0</ele><time>2026-03-27T10:13:08.647Z</time></trkpt><trkpt lat="44.8366267" lon="9.44211"><ele>639.5</ele><time>2026-03-27T10:13:09.647Z</time></trkpt><trkpt lat="44.83655" lon="9.4420033"><ele>639.0</ele><time>2026-03-27T10:13:10.647Z</time></trkpt><trkpt lat="44.836495" lon="9.441865"><ele>642.75</ele><time>2026-03-27T10:13:11.648Z</time></trkpt><trkpt lat="44.836455" lon="9.4417017"><ele>646.5</ele><time>2026-03-27T10:13:12.648Z</time></trkpt><trkpt lat="44.8364117" lon="9.441535"><ele>650.25</ele><time>2026-03-27T10:13:13.647Z</time></trkpt><trkpt lat="44.8363533" lon="9.441385"><ele>654.0</ele><time>2026-03-27T10:13:14.648Z</time></trkpt><trkpt lat="44.8362783" lon="9.441255"><ele>654.4000000000001</ele><time>2026-03-27T10:13:15.647Z</time></trkpt><trkpt lat="44.8361833" lon="9.4411717"><ele>654.8</ele><time>2026-03-27T10:13:16.647Z</time></trkpt><trkpt lat="44.836085" lon="9.4411317"><ele>655.2</ele><time>2026-03-27T10:13:17.65Z</time></trkpt><trkpt lat="44.8359983" lon="9.441105"><ele>655.5999999999999</ele><time>2026-03-27T10:13:18.649Z</time></trkpt><trkpt lat="44.8359167" lon="9.4410583"><ele>656.0</ele><time>2026-03-27T10:13:19.648Z</time></trkpt><trkpt lat="44.83584" lon="9.440975"><ele>654.0</ele><time>2026-03-27T10:13:20.649Z</time></trkpt><trkpt lat="44.835765" lon="9.44086"><ele>652.0</ele><time>2026-03-27T10:13:21.648Z</time></trkpt><trkpt lat="44.83569" lon="9.4407283"><ele>650.0</ele><time>2026-03-27T10:13:22.65Z</time></trkpt><trkpt lat="44.8356167" lon="9.4405817"><ele>648.0</ele><time>2026-03-27T10:13:23.651Z</time></trkpt><trkpt lat="44.8355567" lon="9.4404283"><ele>648.0</ele><time>2026-03-27T10:13:24.648Z</time></trkpt><trkpt lat="44.8355117" lon="9.440265"><ele>648.0</ele><time>2026-03-27T10:13:25.648Z</time></trkpt><trkpt lat="44.83548" lon="9.440085"><ele>648.0</ele><time>2026-03-27T10:13:26.649Z</time></trkpt><trkpt lat="44.8354533" lon="9.4398933"><ele>648.0</ele><time>2026-03-27T10:13:27.647Z</time></trkpt><trkpt lat="44.835425" lon="9.4397"><ele>649.75</ele><time>2026-03-27T10:13:28.647Z</time></trkpt><trkpt lat="44.8353733" lon="9.4395267"><ele>651.5</ele><time>2026-03-27T10:13:29.647Z</time></trkpt><trkpt lat="44.8353033" lon="9.439385"><ele>653.25</ele><time>2026-03-27T10:13:30.648Z</time></trkpt><trkpt lat="44.8352167" lon="9.4392517"><ele>655.0</ele><time>2026-03-27T10:13:31.647Z</time></trkpt><trkpt lat="44.8351167" lon="9.4391167"><ele>650.25</ele><time>2026-03-27T10:13:32.647Z</time></trkpt><trkpt lat="44.83501" lon="9.438975"><ele>645.5</ele><time>2026-03-27T10:13:33.646Z</time></trkpt><trkpt lat="44.834905" lon="9.438835"><ele>640.75</ele><time>2026-03-27T10:13:34.654Z</time></trkpt><trkpt lat="44.8348067" lon="9.4386933"><ele>636.0</ele><time>2026-03-27T10:13:35.649Z</time></trkpt><trkpt lat="44.8347117" lon="9.4385567"><ele>636.0</ele><time>2026-03-27T10:13:36.647Z</time></trkpt><trkpt lat="44.8346233" lon="9.4384267"><ele>636.0</ele><time>2026-03-27T10:13:37.646Z</time></trkpt><trkpt lat="44.8345467" lon="9.4382833"><ele>636.0</ele><time>2026-03-27T10:13:38.65Z</time></trkpt><trkpt lat="44.8344717" lon="9.438145"><ele>636.0</ele><time>2026-03-27T10:13:39.648Z</time></trkpt><trkpt lat="44.8343717" lon="9.4380317"><ele>633.0</ele><time>2026-03-27T10:13:40.646Z</time></trkpt><trkpt lat="44.8342533" lon="9.43795"><ele>630.0</ele><time>2026-03-27T10:13:41.646Z</time></trkpt><trkpt lat="44.8341383" lon="9.4378733"><ele>627.0</ele><time>2026-03-27T10:13:42.647Z</time></trkpt><trkpt lat="44.8340333" lon="9.4377783"><ele>624.0</ele><time>2026-03-27T10:13:43.646Z</time></trkpt><trkpt lat="44.8339433" lon="9.4376783"><ele>624.0</ele><time>2026-03-27T10:13:44.647Z</time></trkpt><trkpt lat="44.8338617" lon="9.4375817"><ele>624.0</ele><time>2026-03-27T10:13:45.647Z</time></trkpt><trkpt lat="44.8337833" lon="9.4374883"><ele>624.0</ele><time>2026-03-27T10:13:46.647Z</time></trkpt><trkpt lat="44.8337117" lon="9.437395"><ele>624.0</ele><time>2026-03-27T10:13:47.647Z</time></trkpt><trkpt lat="44.83364" lon="9.4373067"><ele>624.0</ele><time>2026-03-27T10:13:48.647Z</time></trkpt><trkpt lat="44.8335783" lon="9.4372183"><ele>624.1428571428572</ele><time>2026-03-27T10:13:49.647Z</time></trkpt><trkpt lat="44.833535" lon="9.4371217"><ele>624.2857142857142</ele><time>2026-03-27T10:13:50.649Z</time></trkpt><trkpt lat="44.8335083" lon="9.4370167"><ele>624.4285714285714</ele><time>2026-03-27T10:13:51.647Z</time></trkpt><trkpt lat="44.8334967" lon="9.4369117"><ele>624.5714285714287</ele><time>2026-03-27T10:13:52.648Z</time></trkpt><trkpt lat="44.83351" lon="9.4368167"><ele>624.7142857142858</ele><time>2026-03-27T10:13:53.649Z</time></trkpt><trkpt lat="44.833535" lon="9.4367233"><ele>624.8571428571429</ele><time>2026-03-27T10:13:54.647Z</time></trkpt><trkpt lat="44.8335733" lon="9.4366433"><ele>625.0</ele><time>2026-03-27T10:13:55.648Z</time></trkpt><trkpt lat="44.8336283" lon="9.43656"><ele>625.0</ele><time>2026-03-27T10:13:56.647Z</time></trkpt><trkpt lat="44.8336933" lon="9.436485"><ele>625.0</ele><time>2026-03-27T10:13:57.652Z</time></trkpt><trkpt lat="44.8337633" lon="9.4364083"><ele>625.0</ele><time>2026-03-27T10:13:58.647Z</time></trkpt><trkpt lat="44.8338383" lon="9.4363217"><ele>625.0</ele><time>2026-03-27T10:13:59.647Z</time></trkpt><trkpt lat="44.833925" lon="9.436215"><ele>625.0</ele><time>2026-03-27T10:14:00.648Z</time></trkpt><trkpt lat="44.834025" lon="9.436095"><ele>622.3333333333334</ele><time>2026-03-27T10:14:01.649Z</time></trkpt><trkpt lat="44.83413" lon="9.435955"><ele>619.6666666666666</ele><time>2026-03-27T10:14:02.647Z</time></trkpt><trkpt lat="44.8342317" lon="9.4357967"><ele>617.0</ele><time>2026-03-27T10:14:03.647Z</time></trkpt><trkpt lat="44.834325" lon="9.4356217"><ele>618.3333333333333</ele><time>2026-03-27T10:14:04.647Z</time></trkpt><trkpt lat="44.834415" lon="9.435425"><ele>619.6666666666666</ele><time>2026-03-27T10:14:05.646Z</time></trkpt><trkpt lat="44.8345017" lon="9.4352317"><ele>621.0</ele><time>2026-03-27T10:14:06.646Z</time></trkpt><trkpt lat="44.8345817" lon="9.4350633"><ele>621.0</ele><time>2026-03-27T10:14:07.646Z</time></trkpt><trkpt lat="44.834655" lon="9.4349267"><ele>621.0</ele><time>2026-03-27T10:14:08.648Z</time></trkpt><trkpt lat="44.834705" lon="9.4347983"><ele>621.0</ele><time>2026-03-27T10:14:09.649Z</time></trkpt><trkpt lat="44.8347217" lon="9.4346833"><ele>621.0</ele><time>2026-03-27T10:14:10.647Z</time></trkpt><trkpt lat="44.8347133" lon="9.4345767"><ele>621.0</ele><time>2026-03-27T10:14:11.646Z</time></trkpt><trkpt lat="44.8346467" lon="9.4345233"><ele>621.0</ele><time>2026-03-27T10:14:12.647Z</time></trkpt><trkpt lat="44.834555" lon="9.434525"><ele>621.0</ele><time>2026-03-27T10:14:13.647Z</time></trkpt><trkpt lat="44.8344717" lon="9.4345783"><ele>621.0</ele><time>2026-03-27T10:14:14.648Z</time></trkpt><trkpt lat="44.8343983" lon="9.4346633"><ele>621.0</ele><time>2026-03-27T10:14:15.646Z</time></trkpt><trkpt lat="44.8343483" lon="9.434805"><ele>621.0</ele><time>2026-03-27T10:14:16.647Z</time></trkpt><trkpt lat="44.834305" lon="9.4349467"><ele>618.2</ele><time>2026-03-27T10:14:17.648Z</time></trkpt><trkpt lat="44.8342567" lon="9.4350733"><ele>615.4000000000001</ele><time>2026-03-27T10:14:18.647Z</time></trkpt><trkpt lat="44.8341983" lon="9.4351933"><ele>612.6</ele><time>2026-03-27T10:14:19.649Z</time></trkpt><trkpt lat="44.83413" lon="9.4353017"><ele>609.8000000000001</ele><time>2026-03-27T10:14:20.647Z</time></trkpt><trkpt lat="44.8340467" lon="9.4353917"><ele>607.0</ele><time>2026-03-27T10:14:21.646Z</time></trkpt><trkpt lat="44.8339483" lon="9.4354633"><ele>609.5</ele><time>2026-03-27T10:14:22.648Z</time></trkpt><trkpt lat="44.83384" lon="9.435505"><ele>612.0</ele><time>2026-03-27T10:14:23.648Z</time></trkpt><trkpt lat="44.8337267" lon="9.43553"><ele>614.5</ele><time>2026-03-27T10:14:24.646Z</time></trkpt><trkpt lat="44.8336083" lon="9.4355417"><ele>617.0</ele><time>2026-03-27T10:14:25.648Z</time></trkpt><trkpt lat="44.8334967" lon="9.4355383"><ele>615.0</ele><time>2026-03-27T10:14:26.653Z</time></trkpt><trkpt lat="44.8333883" lon="9.43552"><ele>613.0</ele><time>2026-03-27T10:14:27.647Z</time></trkpt><trkpt lat="44.8332833" lon="9.4354967"><ele>611.0</ele><time>2026-03-27T10:14:28.647Z</time></trkpt><trkpt lat="44.8331733" lon="9.4354883"><ele>609.0</ele><time>2026-03-27T10:14:29.647Z</time></trkpt><trkpt lat="44.8330633" lon="9.4355067"><ele>607.0</ele><time>2026-03-27T10:14:30.651Z</time></trkpt><trkpt lat="44.8329517" lon="9.4355467"><ele>607.0</ele><time>2026-03-27T10:14:31.647Z</time></trkpt><trkpt lat="44.832835" lon="9.4355933"><ele>607.0</ele><time>2026-03-27T10:14:32.646Z</time></trkpt><trkpt lat="44.8327133" lon="9.435645"><ele>607.0</ele><time>2026-03-27T10:14:33.647Z</time></trkpt><trkpt lat="44.8325933" lon="9.4357017"><ele>607.0</ele><time>2026-03-27T10:14:34.647Z</time></trkpt><trkpt lat="44.83248" lon="9.435765"><ele>604.8000000000001</ele><time>2026-03-27T10:14:35.648Z</time></trkpt><trkpt lat="44.8323883" lon="9.435845"><ele>602.6</ele><time>2026-03-27T10:14:36.649Z</time></trkpt><trkpt lat="44.83232" lon="9.4359533"><ele>600.4000000000001</ele><time>2026-03-27T10:14:37.646Z</time></trkpt><trkpt lat="44.83228" lon="9.4360833"><ele>598.2</ele><time>2026-03-27T10:14:38.646Z</time></trkpt><trkpt lat="44.8322667" lon="9.4362383"><ele>596.0</ele><time>2026-03-27T10:14:39.649Z</time></trkpt><trkpt lat="44.8322683" lon="9.4364133"><ele>595.75</ele><time>2026-03-27T10:14:40.647Z</time></trkpt><trkpt lat="44.8322717" lon="9.4366"><ele>595.5</ele><time>2026-03-27T10:14:41.647Z</time></trkpt><trkpt lat="44.8322767" lon="9.436795"><ele>595.25</ele><time>2026-03-27T10:14:42.646Z</time></trkpt><trkpt lat="44.83228" lon="9.4369917"><ele>595.0</ele><time>2026-03-27T10:14:43.648Z</time></trkpt><trkpt lat="44.8322833" lon="9.4371983"><ele>594.0</ele><time>2026-03-27T10:14:44.647Z</time></trkpt><trkpt lat="44.83229" lon="9.4374033"><ele>593.0</ele><time>2026-03-27T10:14:45.646Z</time></trkpt><trkpt lat="44.8322983" lon="9.4376017"><ele>592.0</ele><time>2026-03-27T10:14:46.65Z</time></trkpt><trkpt lat="44.8323067" lon="9.4377917"><ele>591.0</ele><time>2026-03-27T10:14:47.647Z</time></trkpt><trkpt lat="44.832315" lon="9.4379783"><ele>589.5</ele><time>2026-03-27T10:14:48.647Z</time></trkpt><trkpt lat="44.83232" lon="9.43816"><ele>588.0</ele><time>2026-03-27T10:14:49.647Z</time></trkpt><trkpt lat="44.8323283" lon="9.4383383"><ele>586.5</ele><time>2026-03-27T10:14:50.648Z</time></trkpt><trkpt lat="44.8323417" lon="9.4385117"><ele>585.0</ele><time>2026-03-27T10:14:51.647Z</time></trkpt><trkpt lat="44.83235" lon="9.4386717"><ele>583.8</ele><time>2026-03-27T10:14:52.647Z</time></trkpt><trkpt lat="44.8323367" lon="9.43881"><ele>582.6</ele><time>2026-03-27T10:14:53.648Z</time></trkpt><trkpt lat="44.8322883" lon="9.43892"><ele>581.4</ele><time>2026-03-27T10:14:54.646Z</time></trkpt><trkpt lat="44.832215" lon="9.4389783"><ele>580.2</ele><time>2026-03-27T10:14:55.649Z</time></trkpt><trkpt lat="44.83212" lon="9.4389517"><ele>579.0</ele><time>2026-03-27T10:14:56.648Z</time></trkpt><trkpt lat="44.832035" lon="9.43886"><ele>580.5</ele><time>2026-03-27T10:14:57.647Z</time></trkpt><trkpt lat="44.831975" lon="9.4386983"><ele>582.0</ele><time>2026-03-27T10:14:58.647Z</time></trkpt><trkpt lat="44.8319383" lon="9.438515"><ele>583.5</ele><time>2026-03-27T10:14:59.648Z</time></trkpt><trkpt lat="44.8319167" lon="9.43833"><ele>585.0</ele><time>2026-03-27T10:15:00.648Z</time></trkpt><trkpt lat="44.8318767" lon="9.43816"><ele>585.0</ele><time>2026-03-27T10:15:01.646Z</time></trkpt><trkpt lat="44.8318133" lon="9.4380067"><ele>585.0</ele><time>2026-03-27T10:15:02.649Z</time></trkpt><trkpt lat="44.8317333" lon="9.43787"><ele>585.0</ele><time>2026-03-27T10:15:03.646Z</time></trkpt><trkpt lat="44.8316533" lon="9.4377483"><ele>585.0</ele><time>2026-03-27T10:15:04.65Z</time></trkpt><trkpt lat="44.831575" lon="9.4376333"><ele>582.75</ele><time>2026-03-27T10:15:05.646Z</time></trkpt><trkpt lat="44.8315117" lon="9.4375067"><ele>580.5</ele><time>2026-03-27T10:15:06.647Z</time></trkpt><trkpt lat="44.83146" lon="9.4373567"><ele>578.25</ele><time>2026-03-27T10:15:07.647Z</time></trkpt><trkpt lat="44.8314233" lon="9.4371883"><ele>576.0</ele><time>2026-03-27T10:15:08.649Z</time></trkpt><trkpt lat="44.8313833" lon="9.4370067"><ele>576.0</ele><time>2026-03-27T10:15:09.647Z</time></trkpt><trkpt lat="44.8313267" lon="9.43683"><ele>576.0</ele><time>2026-03-27T10:15:10.647Z</time></trkpt><trkpt lat="44.8312617" lon="9.436665"><ele>576.0</ele><time>2026-03-27T10:15:11.647Z</time></trkpt><trkpt lat="44.8311933" lon="9.436515"><ele>576.0</ele><time>2026-03-27T10:15:12.649Z</time></trkpt><trkpt lat="44.8311233" lon="9.436375"><ele>576.0</ele><time>2026-03-27T10:15:13.648Z</time></trkpt><trkpt lat="44.8310683" lon="9.43623"><ele>576.0</ele><time>2026-03-27T10:15:14.648Z</time></trkpt><trkpt lat="44.8310383" lon="9.4360733"><ele>576.0</ele><time>2026-03-27T10:15:15.649Z</time></trkpt><trkpt lat="44.831035" lon="9.4358967"><ele>576.0</ele><time>2026-03-27T10:15:16.65Z</time></trkpt><trkpt lat="44.831045" lon="9.4357017"><ele>576.0</ele><time>2026-03-27T10:15:17.647Z</time></trkpt><trkpt lat="44.831055" lon="9.4355"><ele>576.0</ele><time>2026-03-27T10:15:18.648Z</time></trkpt><trkpt lat="44.8310617" lon="9.4353133"><ele>576.0</ele><time>2026-03-27T10:15:19.648Z</time></trkpt><trkpt lat="44.8310667" lon="9.4351383"><ele>576.0</ele><time>2026-03-27T10:15:20.647Z</time></trkpt><trkpt lat="44.8310667" lon="9.4349733"><ele>575.0</ele><time>2026-03-27T10:15:21.649Z</time></trkpt><trkpt lat="44.8310617" lon="9.43481"><ele>574.0</ele><time>2026-03-27T10:15:22.646Z</time></trkpt><trkpt lat="44.8310383" lon="9.4346417"><ele>573.0</ele><time>2026-03-27T10:15:23.648Z</time></trkpt><trkpt lat="44.830985" lon="9.4344733"><ele>572.0</ele><time>2026-03-27T10:15:24.647Z</time></trkpt><trkpt lat="44.8309083" lon="9.4343283"><ele>567.6</ele><time>2026-03-27T10:15:25.651Z</time></trkpt><trkpt lat="44.83084" lon="9.4342067"><ele>563.2</ele><time>2026-03-27T10:15:26.647Z</time></trkpt><trkpt lat="44.8308033" lon="9.4340833"><ele>558.8</ele><time>2026-03-27T10:15:27.648Z</time></trkpt><trkpt lat="44.8308017" lon="9.4339633"><ele>554.4</ele><time>2026-03-27T10:15:28.647Z</time></trkpt><trkpt lat="44.8308517" lon="9.4338533"><ele>550.0</ele><time>2026-03-27T10:15:29.648Z</time></trkpt><trkpt lat="44.83094" lon="9.4337567"><ele>550.25</ele><time>2026-03-27T10:15:30.649Z</time></trkpt><trkpt lat="44.8310433" lon="9.4336833"><ele>550.5</ele><time>2026-03-27T10:15:31.646Z</time></trkpt><trkpt lat="44.8311533" lon="9.4336283"><ele>550.75</ele><time>2026-03-27T10:15:32.646Z</time></trkpt><trkpt lat="44.831265" lon="9.433595"><ele>551.0</ele><time>2026-03-27T10:15:33.647Z</time></trkpt><trkpt lat="44.83137" lon="9.4335717"><ele>551.0</ele><time>2026-03-27T10:15:34.647Z</time></trkpt><trkpt lat="44.8314617" lon="9.4335333"><ele>551.0</ele><time>2026-03-27T10:15:35.646Z</time></trkpt><trkpt lat="44.8315417" lon="9.433455"><ele>551.0</ele><time>2026-03-27T10:15:36.646Z</time></trkpt><trkpt lat="44.8315883" lon="9.4333433"><ele>551.0</ele><time>2026-03-27T10:15:37.647Z</time></trkpt><trkpt lat="44.8316017" lon="9.4332017"><ele>551.0</ele><time>2026-03-27T10:15:38.651Z</time></trkpt><trkpt lat="44.8315833" lon="9.433045"><ele>549.0</ele><time>2026-03-27T10:15:39.646Z</time></trkpt><trkpt lat="44.8315667" lon="9.4328833"><ele>547.0</ele><time>2026-03-27T10:15:40.647Z</time></trkpt><trkpt lat="44.8315767" lon="9.43272"><ele>545.0</ele><time>2026-03-27T10:15:41.647Z</time></trkpt><trkpt lat="44.8316167" lon="9.4325533"><ele>543.0</ele><time>2026-03-27T10:15:42.647Z</time></trkpt><trkpt lat="44.8316733" lon="9.4323917"><ele>543.0</ele><time>2026-03-27T10:15:43.646Z</time></trkpt><trkpt lat="44.831735" lon="9.432225"><ele>543.0</ele><time>2026-03-27T10:15:44.649Z</time></trkpt><trkpt lat="44.8317967" lon="9.4320583"><ele>543.0</ele><time>2026-03-27T10:15:45.649Z</time></trkpt><trkpt lat="44.83186" lon="9.43189"><ele>543.0</ele><time>2026-03-27T10:15:46.647Z</time></trkpt><trkpt lat="44.8319233" lon="9.431725"><ele>543.8</ele><time>2026-03-27T10:15:47.647Z</time></trkpt><trkpt lat="44.8319883" lon="9.4315683"><ele>544.5999999999999</ele><time>2026-03-27T10:15:48.647Z</time></trkpt><trkpt lat="44.83205" lon="9.43143"><ele>545.4000000000001</ele><time>2026-03-27T10:15:49.647Z</time></trkpt><trkpt lat="44.8320983" lon="9.4313017"><ele>546.2</ele><time>2026-03-27T10:15:50.647Z</time></trkpt><trkpt lat="44.8321167" lon="9.43118"><ele>547.0</ele><time>2026-03-27T10:15:51.647Z</time></trkpt><trkpt lat="44.8321083" lon="9.431055"><ele>544.6</ele><time>2026-03-27T10:15:52.649Z</time></trkpt><trkpt lat="44.8320683" lon="9.4309333"><ele>542.2</ele><time>2026-03-27T10:15:53.648Z</time></trkpt><trkpt lat="44.83199" lon="9.43086"><ele>539.8</ele><time>2026-03-27T10:15:54.647Z</time></trkpt><trkpt lat="44.8318967" lon="9.430845"><ele>537.4</ele><time>2026-03-27T10:15:55.647Z</time></trkpt><trkpt lat="44.8318133" lon="9.43087"><ele>535.0</ele><time>2026-03-27T10:15:56.648Z</time></trkpt><trkpt lat="44.8317417" lon="9.4309317"><ele>534.5</ele><time>2026-03-27T10:15:57.647Z</time></trkpt><trkpt lat="44.8316833" lon="9.4310317"><ele>534.0</ele><time>2026-03-27T10:15:58.648Z</time></trkpt><trkpt lat="44.8316317" lon="9.4311683"><ele>533.5</ele><time>2026-03-27T10:15:59.647Z</time></trkpt><trkpt lat="44.8315867" lon="9.43133"><ele>533.0</ele><time>2026-03-27T10:16:00.646Z</time></trkpt><trkpt lat="44.8315233" lon="9.43149"><ele>533.0</ele><time>2026-03-27T10:16:01.647Z</time></trkpt><trkpt lat="44.8314517" lon="9.4316433"><ele>533.0</ele><time>2026-03-27T10:16:02.647Z</time></trkpt><trkpt lat="44.8313633" lon="9.4317683"><ele>533.0</ele><time>2026-03-27T10:16:03.647Z</time></trkpt><trkpt lat="44.8312533" lon="9.4318517"><ele>533.0</ele><time>2026-03-27T10:16:04.646Z</time></trkpt><trkpt lat="44.8311217" lon="9.4318933"><ele>533.0</ele><time>2026-03-27T10:16:05.646Z</time></trkpt><trkpt lat="44.8309867" lon="9.4319283"><ele>533.0</ele><time>2026-03-27T10:16:06.646Z</time></trkpt><trkpt lat="44.8308533" lon="9.4319967"><ele>533.0</ele><time>2026-03-27T10:16:07.646Z</time></trkpt><trkpt lat="44.8307333" lon="9.4321183"><ele>533.0</ele><time>2026-03-27T10:16:08.647Z</time></trkpt><trkpt lat="44.8306283" lon="9.4322733"><ele>530.75</ele><time>2026-03-27T10:16:09.646Z</time></trkpt><trkpt lat="44.830515" lon="9.43241"><ele>528.5</ele><time>2026-03-27T10:16:10.646Z</time></trkpt><trkpt lat="44.8303933" lon="9.432515"><ele>526.25</ele><time>2026-03-27T10:16:11.646Z</time></trkpt><trkpt lat="44.8302783" lon="9.4326267"><ele>524.0</ele><time>2026-03-27T10:16:12.647Z</time></trkpt><trkpt lat="44.8301717" lon="9.4327683"><ele>522.25</ele><time>2026-03-27T10:16:13.648Z</time></trkpt><trkpt lat="44.83007" lon="9.4329283"><ele>520.5</ele><time>2026-03-27T10:16:14.648Z</time></trkpt><trkpt lat="44.8299667" lon="9.43309"><ele>518.75</ele><time>2026-03-27T10:16:15.647Z</time></trkpt><trkpt lat="44.8298633" lon="9.4332233"><ele>517.0</ele><time>2026-03-27T10:16:16.647Z</time></trkpt><trkpt lat="44.82976" lon="9.4333167"><ele>517.0</ele><time>2026-03-27T10:16:17.65Z</time></trkpt><trkpt lat="44.8296746" lon="9.4333961"><ele>517.0</ele><time>2026-03-27T10:16:18.649Z</time></trkpt><trkpt lat="44.8296141" lon="9.4334936"><ele>517.0</ele><time>2026-03-27T10:16:19.648Z</time></trkpt><trkpt lat="44.8295826" lon="9.433626"><ele>517.0</ele><time>2026-03-27T10:16:20.649Z</time></trkpt><trkpt lat="44.8295664" lon="9.4337962"><ele>517.0</ele><time>2026-03-27T10:16:21.648Z</time></trkpt><trkpt lat="44.8295449" lon="9.4339796"><ele>518.75</ele><time>2026-03-27T10:16:22.65Z</time></trkpt><trkpt lat="44.8294995" lon="9.4341509"><ele>520.5</ele><time>2026-03-27T10:16:23.649Z</time></trkpt><trkpt lat="44.8294286" lon="9.4342982"><ele>522.25</ele><time>2026-03-27T10:16:24.65Z</time></trkpt><trkpt lat="44.829332" lon="9.4343982"><ele>524.0</ele><time>2026-03-27T10:16:25.648Z</time></trkpt><trkpt lat="44.8292146" lon="9.4344517"><ele>519.0</ele><time>2026-03-27T10:16:26.649Z</time></trkpt><trkpt lat="44.8290863" lon="9.4344807"><ele>514.0</ele><time>2026-03-27T10:16:27.652Z</time></trkpt><trkpt lat="44.828949" lon="9.4344973"><ele>509.0</ele><time>2026-03-27T10:16:28.649Z</time></trkpt><trkpt lat="44.8288076" lon="9.4345058"><ele>504.0</ele><time>2026-03-27T10:16:29.648Z</time></trkpt><trkpt lat="44.828665" lon="9.4345121"><ele>504.0</ele><time>2026-03-27T10:16:30.648Z</time></trkpt><trkpt lat="44.8285184" lon="9.4345209"><ele>504.0</ele><time>2026-03-27T10:16:31.647Z</time></trkpt><trkpt lat="44.8283668" lon="9.4345283"><ele>504.0</ele><time>2026-03-27T10:16:32.646Z</time></trkpt><trkpt lat="44.8282111" lon="9.4345307"><ele>500.33333333333337</ele><time>2026-03-27T10:16:33.646Z</time></trkpt><trkpt lat="44.828054" lon="9.4345303"><ele>496.6666666666667</ele><time>2026-03-27T10:16:34.647Z</time></trkpt><trkpt lat="44.827893" lon="9.4345336"><ele>493.0</ele><time>2026-03-27T10:16:35.646Z</time></trkpt><trkpt lat="44.8277336" lon="9.4345393"><ele>491.5</ele><time>2026-03-27T10:16:36.647Z</time></trkpt><trkpt lat="44.8275861" lon="9.4345444"><ele>490.0</ele><time>2026-03-27T10:16:37.647Z</time></trkpt><trkpt lat="44.8274566" lon="9.4345493"><ele>488.5</ele><time>2026-03-27T10:16:38.647Z</time></trkpt><trkpt lat="44.8273529" lon="9.4345713"><ele>487.0</ele><time>2026-03-27T10:16:39.649Z</time></trkpt><trkpt lat="44.8272698" lon="9.4346338"><ele>489.40000000000003</ele><time>2026-03-27T10:16:40.647Z</time></trkpt><trkpt lat="44.8272129" lon="9.4347323"><ele>491.80000000000007</ele><time>2026-03-27T10:16:41.646Z</time></trkpt><trkpt lat="44.8271829" lon="9.4348463"><ele>494.2</ele><time>2026-03-27T10:16:42.646Z</time></trkpt><trkpt lat="44.8271701" lon="9.4349757"><ele>496.6</ele><time>2026-03-27T10:16:43.647Z</time></trkpt><trkpt lat="44.8271743" lon="9.4351537"><ele>499.0</ele><time>2026-03-27T10:16:44.647Z</time></trkpt><trkpt lat="44.8271805" lon="9.4353649"><ele>498.6666666666667</ele><time>2026-03-27T10:16:45.647Z</time></trkpt><trkpt lat="44.8271839" lon="9.4355962"><ele>498.33333333333337</ele><time>2026-03-27T10:16:46.647Z</time></trkpt><trkpt lat="44.8271825" lon="9.4358313"><ele>498.0</ele><time>2026-03-27T10:16:47.647Z</time></trkpt><trkpt lat="44.8271806" lon="9.4360614"><ele>498.0</ele><time>2026-03-27T10:16:48.647Z</time></trkpt><trkpt lat="44.8271892" lon="9.4362814"><ele>498.0</ele><time>2026-03-27T10:16:49.653Z</time></trkpt><trkpt lat="44.8272112" lon="9.4364895"><ele>498.0</ele><time>2026-03-27T10:16:50.647Z</time></trkpt><trkpt lat="44.8272469" lon="9.4366895"><ele>496.5</ele><time>2026-03-27T10:16:51.647Z</time></trkpt><trkpt lat="44.827293" lon="9.4368885"><ele>495.0</ele><time>2026-03-27T10:16:52.647Z</time></trkpt><trkpt lat="44.8273443" lon="9.4370866"><ele>493.5</ele><time>2026-03-27T10:16:53.647Z</time></trkpt><trkpt lat="44.8273904" lon="9.43728"><ele>492.0</ele><time>2026-03-27T10:16:54.648Z</time></trkpt><trkpt lat="44.8274348" lon="9.4374702"><ele>489.5</ele><time>2026-03-27T10:16:55.649Z</time></trkpt><trkpt lat="44.8274761" lon="9.4376639"><ele>487.0</ele><time>2026-03-27T10:16:56.647Z</time></trkpt><trkpt lat="44.827508" lon="9.4378586"><ele>484.5</ele><time>2026-03-27T10:16:57.649Z</time></trkpt><trkpt lat="44.8275192" lon="9.4380454"><ele>482.0</ele><time>2026-03-27T10:16:58.647Z</time></trkpt><trkpt lat="44.8274999" lon="9.4382311"><ele>481.25</ele><time>2026-03-27T10:16:59.646Z</time></trkpt><trkpt lat="44.827457" lon="9.4384044"><ele>480.5</ele><time>2026-03-27T10:17:00.648Z</time></trkpt><trkpt lat="44.8274194" lon="9.438575"><ele>479.75</ele><time>2026-03-27T10:17:01.646Z</time></trkpt><trkpt lat="44.827413" lon="9.4387571"><ele>479.0</ele><time>2026-03-27T10:17:02.648Z</time></trkpt><trkpt lat="44.8274356" lon="9.4389545"><ele>478.0</ele><time>2026-03-27T10:17:03.647Z</time></trkpt><trkpt lat="44.8274613" lon="9.4391644"><ele>477.0</ele><time>2026-03-27T10:17:04.646Z</time></trkpt><trkpt lat="44.827482" lon="9.439382"><ele>476.0</ele><time>2026-03-27T10:17:05.649Z</time></trkpt><trkpt lat="44.8275017" lon="9.4395883"><ele>474.25</ele><time>2026-03-27T10:17:06.648Z</time></trkpt><trkpt lat="44.8275183" lon="9.43979"><ele>472.5</ele><time>2026-03-27T10:17:07.647Z</time></trkpt><trkpt lat="44.8275383" lon="9.439975"><ele>470.75</ele><time>2026-03-27T10:17:08.647Z</time></trkpt><trkpt lat="44.8275617" lon="9.4401533"><ele>469.0</ele><time>2026-03-27T10:17:09.647Z</time></trkpt><trkpt lat="44.8275767" lon="9.44032"><ele>469.0</ele><time>2026-03-27T10:17:10.647Z</time></trkpt><trkpt lat="44.827565" lon="9.440465"><ele>469.0</ele><time>2026-03-27T10:17:11.648Z</time></trkpt><trkpt lat="44.82752" lon="9.4405867"><ele>469.0</ele><time>2026-03-27T10:17:12.647Z</time></trkpt><trkpt lat="44.827455" lon="9.440665"><ele>469.0</ele><time>2026-03-27T10:17:13.648Z</time></trkpt><trkpt lat="44.8273733" lon="9.4406767"><ele>469.0</ele><time>2026-03-27T10:17:14.648Z</time></trkpt><trkpt lat="44.827285" lon="9.4406283"><ele>469.0</ele><time>2026-03-27T10:17:15.647Z</time></trkpt><trkpt lat="44.8272167" lon="9.4405117"><ele>469.0</ele><time>2026-03-27T10:17:16.648Z</time></trkpt><trkpt lat="44.82717" lon="9.4403483"><ele>469.0</ele><time>2026-03-27T10:17:17.648Z</time></trkpt><trkpt lat="44.82714" lon="9.4401583"><ele>469.0</ele><time>2026-03-27T10:17:18.648Z</time></trkpt><trkpt lat="44.8271033" lon="9.43995"><ele>469.0</ele><time>2026-03-27T10:17:19.649Z</time></trkpt><trkpt lat="44.827055" lon="9.4397383"><ele>469.0</ele><time>2026-03-27T10:17:20.648Z</time></trkpt><trkpt lat="44.82699" lon="9.4395217"><ele>469.0</ele><time>2026-03-27T10:17:21.649Z</time></trkpt><trkpt lat="44.8269183" lon="9.4393133"><ele>471.33333333333337</ele><time>2026-03-27T10:17:22.656Z</time></trkpt><trkpt lat="44.8268367" lon="9.43911"><ele>473.66666666666663</ele><time>2026-03-27T10:17:23.648Z</time></trkpt><trkpt lat="44.8267467" lon="9.438905"><ele>476.0</ele><time>2026-03-27T10:17:24.646Z</time></trkpt><trkpt lat="44.8266583" lon="9.4387033"><ele>469.66666666666663</ele><time>2026-03-27T10:17:25.648Z</time></trkpt><trkpt lat="44.8265733" lon="9.4385133"><ele>463.33333333333337</ele><time>2026-03-27T10:17:26.647Z</time></trkpt><trkpt lat="44.82648" lon="9.438335"><ele>457.0</ele><time>2026-03-27T10:17:27.647Z</time></trkpt><trkpt lat="44.8263683" lon="9.43818"><ele>457.0</ele><time>2026-03-27T10:17:28.647Z</time></trkpt><trkpt lat="44.8262283" lon="9.4380633"><ele>457.0</ele><time>2026-03-27T10:17:29.649Z</time></trkpt><trkpt lat="44.8260767" lon="9.43798"><ele>457.0</ele><time>2026-03-27T10:17:30.646Z</time></trkpt><trkpt lat="44.8259317" lon="9.437895"><ele>455.75</ele><time>2026-03-27T10:17:31.649Z</time></trkpt><trkpt lat="44.82581" lon="9.437785"><ele>454.5</ele><time>2026-03-27T10:17:32.647Z</time></trkpt><trkpt lat="44.825705" lon="9.4376417"><ele>453.25</ele><time>2026-03-27T10:17:33.648Z</time></trkpt><trkpt lat="44.8256133" lon="9.43748"><ele>452.0</ele><time>2026-03-27T10:17:34.648Z</time></trkpt><trkpt lat="44.82551" lon="9.437345"><ele>452.0</ele><time>2026-03-27T10:17:35.646Z</time></trkpt><trkpt lat="44.8253883" lon="9.4372367"><ele>452.0</ele><time>2026-03-27T10:17:36.647Z</time></trkpt><trkpt lat="44.8252483" lon="9.4371667"><ele>452.0</ele><time>2026-03-27T10:17:37.647Z</time></trkpt><trkpt lat="44.8251167" lon="9.4371183"><ele>452.0</ele><time>2026-03-27T10:17:38.647Z</time></trkpt><trkpt lat="44.82499" lon="9.4370517"><ele>449.5</ele><time>2026-03-27T10:17:39.648Z</time></trkpt><trkpt lat="44.8248783" lon="9.436965"><ele>447.0</ele><time>2026-03-27T10:17:40.648Z</time></trkpt><trkpt lat="44.8247783" lon="9.436865"><ele>444.5</ele><time>2026-03-27T10:17:41.647Z</time></trkpt><trkpt lat="44.8246883" lon="9.43675"><ele>442.0</ele><time>2026-03-27T10:17:42.649Z</time></trkpt><trkpt lat="44.8246183" lon="9.436625"><ele>442.0</ele><time>2026-03-27T10:17:43.647Z</time></trkpt><trkpt lat="44.8245583" lon="9.436485"><ele>442.0</ele><time>2026-03-27T10:17:44.647Z</time></trkpt><trkpt lat="44.8245083" lon="9.4363283"><ele>442.0</ele><time>2026-03-27T10:17:45.65Z</time></trkpt><trkpt lat="44.8244667" lon="9.436155"><ele>442.0</ele><time>2026-03-27T10:17:46.646Z</time></trkpt><trkpt lat="44.824425" lon="9.4359783"><ele>443.25</ele><time>2026-03-27T10:17:47.648Z</time></trkpt><trkpt lat="44.8243817" lon="9.4357983"><ele>444.5</ele><time>2026-03-27T10:17:48.648Z</time></trkpt><trkpt lat="44.8243367" lon="9.4356167"><ele>445.75</ele><time>2026-03-27T10:17:49.648Z</time></trkpt><trkpt lat="44.8242917" lon="9.4354333"><ele>447.0</ele><time>2026-03-27T10:17:50.648Z</time></trkpt><trkpt lat="44.8242467" lon="9.43525"><ele>443.0</ele><time>2026-03-27T10:17:51.648Z</time></trkpt><trkpt lat="44.8242033" lon="9.43507"><ele>439.0</ele><time>2026-03-27T10:17:52.648Z</time></trkpt><trkpt lat="44.8241667" lon="9.434895"><ele>435.0</ele><time>2026-03-27T10:17:53.648Z</time></trkpt><trkpt lat="44.8241383" lon="9.4347217"><ele>431.0</ele><time>2026-03-27T10:17:54.647Z</time></trkpt><trkpt lat="44.8241117" lon="9.43456"><ele>430.8</ele><time>2026-03-27T10:17:55.648Z</time></trkpt><trkpt lat="44.8240917" lon="9.4344017"><ele>430.6</ele><time>2026-03-27T10:17:56.649Z</time></trkpt><trkpt lat="44.8240844" lon="9.4342538"><ele>430.4</ele><time>2026-03-27T10:17:57.648Z</time></trkpt><trkpt lat="44.8240986" lon="9.4341143"><ele>430.2</ele><time>2026-03-27T10:17:58.647Z</time></trkpt><trkpt lat="44.8241294" lon="9.4339865"><ele>430.0</ele><time>2026-03-27T10:17:59.647Z</time></trkpt><trkpt lat="44.8241662" lon="9.4338778"><ele>430.00000000000006</ele><time>2026-03-27T10:18:00.646Z</time></trkpt><trkpt lat="44.8241879" lon="9.4337806"><ele>430.0</ele><time>2026-03-27T10:18:01.647Z</time></trkpt><trkpt lat="44.8241515" lon="9.4336598"><ele>430.0</ele><time>2026-03-27T10:18:03.647Z</time></trkpt><trkpt lat="44.8240606" lon="9.4337379"><ele>430.0</ele><time>2026-03-27T10:18:05.647Z</time></trkpt><trkpt lat="44.8240234" lon="9.4338336"><ele>430.00000000000006</ele><time>2026-03-27T10:18:06.647Z</time></trkpt><trkpt lat="44.8239848" lon="9.4339486"><ele>430.0</ele><time>2026-03-27T10:18:07.649Z</time></trkpt><trkpt lat="44.823938" lon="9.4340838"><ele>430.0</ele><time>2026-03-27T10:18:08.647Z</time></trkpt><trkpt lat="44.8238948" lon="9.434248"><ele>430.0</ele><time>2026-03-27T10:18:09.646Z</time></trkpt><trkpt lat="44.8238498" lon="9.4344257"><ele>430.0</ele><time>2026-03-27T10:18:10.648Z</time></trkpt><trkpt lat="44.8238044" lon="9.4346027"><ele>430.0</ele><time>2026-03-27T10:18:11.646Z</time></trkpt><trkpt lat="44.8237584" lon="9.4347757"><ele>430.25</ele><time>2026-03-27T10:18:12.648Z</time></trkpt><trkpt lat="44.8237189" lon="9.4349452"><ele>430.5</ele><time>2026-03-27T10:18:13.647Z</time></trkpt><trkpt lat="44.823684" lon="9.4351057"><ele>430.75</ele><time>2026-03-27T10:18:14.648Z</time></trkpt><trkpt lat="44.8236532" lon="9.4352618"><ele>431.0</ele><time>2026-03-27T10:18:15.647Z</time></trkpt><trkpt lat="44.8236304" lon="9.4354253"><ele>431.25</ele><time>2026-03-27T10:18:16.646Z</time></trkpt><trkpt lat="44.8236152" lon="9.4355968"><ele>431.5</ele><time>2026-03-27T10:18:17.651Z</time></trkpt><trkpt lat="44.8236082" lon="9.4357818"><ele>431.75</ele><time>2026-03-27T10:18:18.646Z</time></trkpt><trkpt lat="44.8235986" lon="9.4359847"><ele>432.0</ele><time>2026-03-27T10:18:19.646Z</time></trkpt><trkpt lat="44.8235686" lon="9.4361969"><ele>431.0</ele><time>2026-03-27T10:18:20.648Z</time></trkpt><trkpt lat="44.8235152" lon="9.4364149"><ele>430.0</ele><time>2026-03-27T10:18:21.648Z</time></trkpt><trkpt lat="44.8234433" lon="9.4366228"><ele>429.0</ele><time>2026-03-27T10:18:22.647Z</time></trkpt><trkpt lat="44.823365" lon="9.4368091"><ele>423.75</ele><time>2026-03-27T10:18:23.646Z</time></trkpt><trkpt lat="44.8232908" lon="9.4369812"><ele>418.5</ele><time>2026-03-27T10:18:24.647Z</time></trkpt><trkpt lat="44.8232317" lon="9.4371433"><ele>413.25</ele><time>2026-03-27T10:18:25.648Z</time></trkpt><trkpt lat="44.82319" lon="9.4372933"><ele>408.0</ele><time>2026-03-27T10:18:26.649Z</time></trkpt><trkpt lat="44.823175" lon="9.4374317"><ele>407.75</ele><time>2026-03-27T10:18:27.646Z</time></trkpt><trkpt lat="44.8231917" lon="9.43757"><ele>407.5</ele><time>2026-03-27T10:18:28.647Z</time></trkpt><trkpt lat="44.8232417" lon="9.4377067"><ele>407.25</ele><time>2026-03-27T10:18:29.646Z</time></trkpt><trkpt lat="44.82332" lon="9.4378383"><ele>407.0</ele><time>2026-03-27T10:18:30.646Z</time></trkpt><trkpt lat="44.82342" lon="9.437955"><ele>407.25</ele><time>2026-03-27T10:18:31.648Z</time></trkpt><trkpt lat="44.82353" lon="9.4380783"><ele>407.5</ele><time>2026-03-27T10:18:32.647Z</time></trkpt><trkpt lat="44.8236367" lon="9.4382083"><ele>407.75</ele><time>2026-03-27T10:18:33.646Z</time></trkpt><trkpt lat="44.82374" lon="9.4383417"><ele>408.0</ele><time>2026-03-27T10:18:34.647Z</time></trkpt><trkpt lat="44.8238367" lon="9.4384717"><ele>408.0</ele><time>2026-03-27T10:18:35.648Z</time></trkpt><trkpt lat="44.8239183" lon="9.43861"><ele>408.0</ele><time>2026-03-27T10:18:36.646Z</time></trkpt><trkpt lat="44.8239733" lon="9.4387683"><ele>408.0</ele><time>2026-03-27T10:18:37.648Z</time></trkpt><trkpt lat="44.8239917" lon="9.4389283"><ele>408.0</ele><time>2026-03-27T10:18:38.647Z</time></trkpt><trkpt lat="44.823965" lon="9.4390667"><ele>407.4</ele><time>2026-03-27T10:18:39.647Z</time></trkpt><trkpt lat="44.8239017" lon="9.4391633"><ele>406.79999999999995</ele><time>2026-03-27T10:18:40.646Z</time></trkpt><trkpt lat="44.8238133" lon="9.4392483"><ele>406.2</ele><time>2026-03-27T10:18:41.647Z</time></trkpt><trkpt lat="44.8237267" lon="9.4393483"><ele>405.6</ele><time>2026-03-27T10:18:42.647Z</time></trkpt><trkpt lat="44.8236567" lon="9.4394833"><ele>405.0</ele><time>2026-03-27T10:18:43.647Z</time></trkpt><trkpt lat="44.8236117" lon="9.43965"><ele>405.0</ele><time>2026-03-27T10:18:44.647Z</time></trkpt><trkpt lat="44.8236" lon="9.4398383"><ele>405.0</ele><time>2026-03-27T10:18:45.648Z</time></trkpt><trkpt lat="44.823605" lon="9.440045"><ele>405.0</ele><time>2026-03-27T10:18:46.646Z</time></trkpt><trkpt lat="44.8236183" lon="9.4402567"><ele>405.0</ele><time>2026-03-27T10:18:47.647Z</time></trkpt><trkpt lat="44.823635" lon="9.4404633"><ele>404.25</ele><time>2026-03-27T10:18:48.646Z</time></trkpt><trkpt lat="44.8236483" lon="9.4406583"><ele>403.5</ele><time>2026-03-27T10:18:49.646Z</time></trkpt><trkpt lat="44.8236567" lon="9.44085"><ele>402.75</ele><time>2026-03-27T10:18:50.647Z</time></trkpt><trkpt lat="44.8236667" lon="9.4410417"><ele>402.0</ele><time>2026-03-27T10:18:51.646Z</time></trkpt><trkpt lat="44.82367" lon="9.4412333"><ele>401.5</ele><time>2026-03-27T10:18:52.646Z</time></trkpt><trkpt lat="44.8236483" lon="9.4414233"><ele>401.0</ele><time>2026-03-27T10:18:53.649Z</time></trkpt><trkpt lat="44.8235967" lon="9.4416083"><ele>400.5</ele><time>2026-03-27T10:18:54.647Z</time></trkpt><trkpt lat="44.82351" lon="9.441775"><ele>400.0</ele><time>2026-03-27T10:18:55.646Z</time></trkpt><trkpt lat="44.8234083" lon="9.4419167"><ele>395.8</ele><time>2026-03-27T10:18:56.649Z</time></trkpt><trkpt lat="44.8233117" lon="9.44204"><ele>391.6</ele><time>2026-03-27T10:18:57.646Z</time></trkpt><trkpt lat="44.82324" lon="9.442155"><ele>387.4</ele><time>2026-03-27T10:18:58.648Z</time></trkpt><trkpt lat="44.8232017" lon="9.442275"><ele>383.2</ele><time>2026-03-27T10:18:59.647Z</time></trkpt><trkpt lat="44.8231867" lon="9.4423917"><ele>379.0</ele><time>2026-03-27T10:19:00.646Z</time></trkpt><trkpt lat="44.8232183" lon="9.4425083"><ele>379.0</ele><time>2026-03-27T10:19:01.648Z</time></trkpt><trkpt lat="44.82328" lon="9.4426183"><ele>379.0</ele><time>2026-03-27T10:19:02.647Z</time></trkpt><trkpt lat="44.8233517" lon="9.4427183"><ele>379.0</ele><time>2026-03-27T10:19:03.646Z</time></trkpt><trkpt lat="44.8234267" lon="9.44282"><ele>379.0</ele><time>2026-03-27T10:19:04.646Z</time></trkpt><trkpt lat="44.8235017" lon="9.442925"><ele>379.0</ele><time>2026-03-27T10:19:05.648Z</time></trkpt><trkpt lat="44.8235717" lon="9.4430433"><ele>381.2</ele><time>2026-03-27T10:19:06.646Z</time></trkpt><trkpt lat="44.8236233" lon="9.4431833"><ele>383.4</ele><time>2026-03-27T10:19:07.646Z</time></trkpt><trkpt lat="44.8236467" lon="9.4433417"><ele>385.6</ele><time>2026-03-27T10:19:08.646Z</time></trkpt><trkpt lat="44.8236317" lon="9.4434917"><ele>387.8</ele><time>2026-03-27T10:19:09.646Z</time></trkpt><trkpt lat="44.8235783" lon="9.4436267"><ele>390.0</ele><time>2026-03-27T10:19:10.65Z</time></trkpt><trkpt lat="44.8234817" lon="9.4437467"><ele>385.25</ele><time>2026-03-27T10:19:11.647Z</time></trkpt><trkpt lat="44.8233683" lon="9.4438467"><ele>380.5</ele><time>2026-03-27T10:19:12.647Z</time></trkpt><trkpt lat="44.8232433" lon="9.4439133"><ele>375.75</ele><time>2026-03-27T10:19:13.647Z</time></trkpt><trkpt lat="44.8231283" lon="9.4439683"><ele>371.0</ele><time>2026-03-27T10:19:14.648Z</time></trkpt><trkpt lat="44.8230267" lon="9.44404"><ele>371.0</ele><time>2026-03-27T10:19:15.647Z</time></trkpt><trkpt lat="44.822935" lon="9.4441483"><ele>371.0</ele><time>2026-03-27T10:19:16.646Z</time></trkpt><trkpt lat="44.82285" lon="9.4442867"><ele>371.0</ele><time>2026-03-27T10:19:17.648Z</time></trkpt><trkpt lat="44.8227717" lon="9.44444"><ele>371.0</ele><time>2026-03-27T10:19:18.648Z</time></trkpt><trkpt lat="44.8227017" lon="9.444585"><ele>370.20000000000005</ele><time>2026-03-27T10:19:19.647Z</time></trkpt><trkpt lat="44.82263" lon="9.4447133"><ele>369.40000000000003</ele><time>2026-03-27T10:19:20.648Z</time></trkpt><trkpt lat="44.8225467" lon="9.4448033"><ele>368.6</ele><time>2026-03-27T10:19:21.646Z</time></trkpt><trkpt lat="44.8224467" lon="9.4448433"><ele>367.8</ele><time>2026-03-27T10:19:22.649Z</time></trkpt><trkpt lat="44.8223333" lon="9.4448317"><ele>367.0</ele><time>2026-03-27T10:19:23.648Z</time></trkpt><trkpt lat="44.82222" lon="9.4447783"><ele>367.0</ele><time>2026-03-27T10:19:24.646Z</time></trkpt><trkpt lat="44.8221083" lon="9.4447067"><ele>367.0</ele><time>2026-03-27T10:19:25.647Z</time></trkpt><trkpt lat="44.8220033" lon="9.44468"><ele>367.0</ele><time>2026-03-27T10:19:26.648Z</time></trkpt><trkpt lat="44.8219017" lon="9.4447"><ele>367.0</ele><time>2026-03-27T10:19:27.646Z</time></trkpt><trkpt lat="44.8218133" lon="9.4447717"><ele>367.0</ele><time>2026-03-27T10:19:28.647Z</time></trkpt><trkpt lat="44.82174" lon="9.4448917"><ele>365.0</ele><time>2026-03-27T10:19:29.647Z</time></trkpt><trkpt lat="44.821695" lon="9.4450567"><ele>363.0</ele><time>2026-03-27T10:19:30.647Z</time></trkpt><trkpt lat="44.82167" lon="9.44524"><ele>361.0</ele><time>2026-03-27T10:19:31.647Z</time></trkpt><trkpt lat="44.8216467" lon="9.445415"><ele>359.0</ele><time>2026-03-27T10:19:32.647Z</time></trkpt><trkpt lat="44.821605" lon="9.4455583"><ele>359.0</ele><time>2026-03-27T10:19:33.646Z</time></trkpt><trkpt lat="44.8215517" lon="9.445665"><ele>359.0</ele><time>2026-03-27T10:19:34.647Z</time></trkpt><trkpt lat="44.8214833" lon="9.4457317"><ele>359.0</ele><time>2026-03-27T10:19:35.648Z</time></trkpt><trkpt lat="44.821405" lon="9.4457267"><ele>359.0</ele><time>2026-03-27T10:19:36.649Z</time></trkpt><trkpt lat="44.8213333" lon="9.44569"><ele>359.0</ele><time>2026-03-27T10:19:37.646Z</time></trkpt><trkpt lat="44.8213" lon="9.4455817"><ele>359.0</ele><time>2026-03-27T10:19:38.647Z</time></trkpt><trkpt lat="44.821285" lon="9.4454483"><ele>358.25</ele><time>2026-03-27T10:19:39.646Z</time></trkpt><trkpt lat="44.821315" lon="9.44525"><ele>357.5</ele><time>2026-03-27T10:19:40.646Z</time></trkpt><trkpt lat="44.821345" lon="9.4450633"><ele>356.75</ele><time>2026-03-27T10:19:41.647Z</time></trkpt><trkpt lat="44.8213733" lon="9.444875"><ele>356.0</ele><time>2026-03-27T10:19:42.648Z</time></trkpt><trkpt lat="44.821395" lon="9.44469"><ele>353.25</ele><time>2026-03-27T10:19:43.647Z</time></trkpt><trkpt lat="44.8214283" lon="9.4445133"><ele>350.5</ele><time>2026-03-27T10:19:44.648Z</time></trkpt><trkpt lat="44.8214867" lon="9.4443467"><ele>347.75</ele><time>2026-03-27T10:19:45.646Z</time></trkpt><trkpt lat="44.8215767" lon="9.444195"><ele>345.0</ele><time>2026-03-27T10:19:46.647Z</time></trkpt><trkpt lat="44.8216883" lon="9.4440683"><ele>345.0</ele><time>2026-03-27T10:19:47.646Z</time></trkpt><trkpt lat="44.8218017" lon="9.4439583"><ele>345.0</ele><time>2026-03-27T10:19:48.647Z</time></trkpt><trkpt lat="44.821905" lon="9.4438467"><ele>345.0</ele><time>2026-03-27T10:19:49.646Z</time></trkpt><trkpt lat="44.8219917" lon="9.4436983"><ele>345.0</ele><time>2026-03-27T10:19:50.647Z</time></trkpt><trkpt lat="44.8220567" lon="9.4435133"><ele>346.75</ele><time>2026-03-27T10:19:51.649Z</time></trkpt><trkpt lat="44.8221033" lon="9.44333"><ele>348.5</ele><time>2026-03-27T10:19:52.646Z</time></trkpt><trkpt lat="44.8221233" lon="9.443155"><ele>350.25</ele><time>2026-03-27T10:19:53.646Z</time></trkpt><trkpt lat="44.8221083" lon="9.4429817"><ele>352.0</ele><time>2026-03-27T10:19:54.647Z</time></trkpt><trkpt lat="44.82205" lon="9.442835"><ele>353.0</ele><time>2026-03-27T10:19:55.647Z</time></trkpt><trkpt lat="44.8219617" lon="9.4427217"><ele>354.0</ele><time>2026-03-27T10:19:56.649Z</time></trkpt><trkpt lat="44.8218617" lon="9.4426067"><ele>355.0</ele><time>2026-03-27T10:19:57.646Z</time></trkpt><trkpt lat="44.8217667" lon="9.4424883"><ele>356.0</ele><time>2026-03-27T10:19:58.648Z</time></trkpt><trkpt lat="44.8216917" lon="9.44236"><ele>350.75</ele><time>2026-03-27T10:19:59.647Z</time></trkpt><trkpt lat="44.82165" lon="9.4422033"><ele>345.5</ele><time>2026-03-27T10:20:00.647Z</time></trkpt><trkpt lat="44.8216367" lon="9.44202"><ele>340.25</ele><time>2026-03-27T10:20:01.646Z</time></trkpt><trkpt lat="44.8216383" lon="9.441815"><ele>335.0</ele><time>2026-03-27T10:20:02.648Z</time></trkpt><trkpt lat="44.8216417" lon="9.4416117"><ele>335.0</ele><time>2026-03-27T10:20:03.646Z</time></trkpt><trkpt lat="44.8216333" lon="9.44143"><ele>335.0</ele><time>2026-03-27T10:20:04.648Z</time></trkpt><trkpt lat="44.8216065" lon="9.4412593"><ele>335.0</ele><time>2026-03-27T10:20:05.648Z</time></trkpt><trkpt lat="44.8215523" lon="9.441118"><ele>335.0</ele><time>2026-03-27T10:20:06.649Z</time></trkpt><trkpt lat="44.821475" lon="9.4410094"><ele>335.5</ele><time>2026-03-27T10:20:07.649Z</time></trkpt><trkpt lat="44.8213756" lon="9.4409442"><ele>336.0</ele><time>2026-03-27T10:20:08.649Z</time></trkpt><trkpt lat="44.821256" lon="9.4409287"><ele>336.5</ele><time>2026-03-27T10:20:09.648Z</time></trkpt><trkpt lat="44.8211339" lon="9.4409701"><ele>337.0</ele><time>2026-03-27T10:20:10.646Z</time></trkpt><trkpt lat="44.821017" lon="9.4410328"><ele>334.25</ele><time>2026-03-27T10:20:11.647Z</time></trkpt><trkpt lat="44.8208946" lon="9.4410842"><ele>331.5</ele><time>2026-03-27T10:20:12.646Z</time></trkpt><trkpt lat="44.8207538" lon="9.4411032"><ele>328.75</ele><time>2026-03-27T10:20:13.647Z</time></trkpt><trkpt lat="44.8206057" lon="9.441103"><ele>326.0</ele><time>2026-03-27T10:20:14.646Z</time></trkpt><trkpt lat="44.8204629" lon="9.4411046"><ele>326.0</ele><time>2026-03-27T10:20:15.647Z</time></trkpt><trkpt lat="44.8203305" lon="9.441107"><ele>326.0</ele><time>2026-03-27T10:20:16.646Z</time></trkpt><trkpt lat="44.8202037" lon="9.4410906"><ele>326.0</ele><time>2026-03-27T10:20:17.651Z</time></trkpt><trkpt lat="44.820092" lon="9.441051"><ele>326.0</ele><time>2026-03-27T10:20:18.646Z</time></trkpt><trkpt lat="44.820004" lon="9.4409659"><ele>326.25</ele><time>2026-03-27T10:20:19.646Z</time></trkpt><trkpt lat="44.8199207" lon="9.4408316"><ele>326.5</ele><time>2026-03-27T10:20:20.648Z</time></trkpt><trkpt lat="44.8198327" lon="9.440689"><ele>326.75</ele><time>2026-03-27T10:20:21.647Z</time></trkpt><trkpt lat="44.8197317" lon="9.4405529"><ele>327.0</ele><time>2026-03-27T10:20:22.647Z</time></trkpt><trkpt lat="44.8196128" lon="9.4404335"><ele>327.0</ele><time>2026-03-27T10:20:23.647Z</time></trkpt><trkpt lat="44.8194849" lon="9.4403374"><ele>327.0</ele><time>2026-03-27T10:20:24.648Z</time></trkpt><trkpt lat="44.8193605" lon="9.4402571"><ele>327.0</ele><time>2026-03-27T10:20:25.648Z</time></trkpt><trkpt lat="44.8192411" lon="9.4401758"><ele>327.0</ele><time>2026-03-27T10:20:26.648Z</time></trkpt><trkpt lat="44.8191338" lon="9.4400629"><ele>322.75</ele><time>2026-03-27T10:20:27.648Z</time></trkpt><trkpt lat="44.8190396" lon="9.4399173"><ele>318.5</ele><time>2026-03-27T10:20:28.647Z</time></trkpt><trkpt lat="44.8189656" lon="9.4397624"><ele>314.25</ele><time>2026-03-27T10:20:29.649Z</time></trkpt><trkpt lat="44.8189211" lon="9.4395998"><ele>310.0</ele><time>2026-03-27T10:20:30.647Z</time></trkpt><trkpt lat="44.8189041" lon="9.4394263"><ele>310.0</ele><time>2026-03-27T10:20:31.646Z</time></trkpt><trkpt lat="44.8189019" lon="9.439246"><ele>310.0</ele><time>2026-03-27T10:20:32.647Z</time></trkpt><trkpt lat="44.8188891" lon="9.4390665"><ele>310.0</ele><time>2026-03-27T10:20:33.647Z</time></trkpt><trkpt lat="44.8188384" lon="9.4388945"><ele>310.0</ele><time>2026-03-27T10:20:34.646Z</time></trkpt><trkpt lat="44.8187514" lon="9.4387531"><ele>311.25</ele><time>2026-03-27T10:20:35.647Z</time></trkpt><trkpt lat="44.8186409" lon="9.4386361"><ele>312.5</ele><time>2026-03-27T10:20:36.647Z</time></trkpt><trkpt lat="44.8185279" lon="9.4385259"><ele>313.75</ele><time>2026-03-27T10:20:37.647Z</time></trkpt><trkpt lat="44.8184278" lon="9.4384138"><ele>315.0</ele><time>2026-03-27T10:20:38.647Z</time></trkpt><trkpt lat="44.8183429" lon="9.4382833"><ele>309.5</ele><time>2026-03-27T10:20:39.649Z</time></trkpt><trkpt lat="44.8182797" lon="9.4381251"><ele>304.0</ele><time>2026-03-27T10:20:40.646Z</time></trkpt><trkpt lat="44.8182429" lon="9.4379363"><ele>298.5</ele><time>2026-03-27T10:20:41.646Z</time></trkpt><trkpt lat="44.8182317" lon="9.4377344"><ele>293.0</ele><time>2026-03-27T10:20:42.648Z</time></trkpt><trkpt lat="44.8182309" lon="9.4375345"><ele>293.0</ele><time>2026-03-27T10:20:43.647Z</time></trkpt><trkpt lat="44.8182296" lon="9.4373274"><ele>293.0</ele><time>2026-03-27T10:20:44.647Z</time></trkpt><trkpt lat="44.8182271" lon="9.4371148"><ele>293.0</ele><time>2026-03-27T10:20:45.646Z</time></trkpt><trkpt lat="44.8182254" lon="9.4369068"><ele>293.0</ele><time>2026-03-27T10:20:46.646Z</time></trkpt><trkpt lat="44.8182297" lon="9.4367064"><ele>292.5</ele><time>2026-03-27T10:20:47.646Z</time></trkpt><trkpt lat="44.8182284" lon="9.4365218"><ele>292.0</ele><time>2026-03-27T10:20:48.646Z</time></trkpt><trkpt lat="44.8182072" lon="9.4363562"><ele>291.5</ele><time>2026-03-27T10:20:49.646Z</time></trkpt><trkpt lat="44.8181475" lon="9.4362193"><ele>291.0</ele><time>2026-03-27T10:20:50.647Z</time></trkpt><trkpt lat="44.8180423" lon="9.4361197"><ele>291.0</ele><time>2026-03-27T10:20:51.651Z</time></trkpt><trkpt lat="44.8179126" lon="9.4360404"><ele>291.0</ele><time>2026-03-27T10:20:52.646Z</time></trkpt><trkpt lat="44.8177792" lon="9.4359377"><ele>291.0</ele><time>2026-03-27T10:20:53.646Z</time></trkpt><trkpt lat="44.8176537" lon="9.4357925"><ele>290.0</ele><time>2026-03-27T10:20:54.647Z</time></trkpt><trkpt lat="44.8175383" lon="9.4356201"><ele>289.0</ele><time>2026-03-27T10:20:55.648Z</time></trkpt><trkpt lat="44.81743" lon="9.4354497"><ele>288.0</ele><time>2026-03-27T10:20:56.647Z</time></trkpt><trkpt lat="44.8173276" lon="9.4352837"><ele>288.0</ele><time>2026-03-27T10:20:57.648Z</time></trkpt><trkpt lat="44.817229" lon="9.4351223"><ele>288.0</ele><time>2026-03-27T10:20:58.648Z</time></trkpt><trkpt lat="44.8171313" lon="9.4349671"><ele>288.0</ele><time>2026-03-27T10:20:59.646Z</time></trkpt><trkpt lat="44.8170358" lon="9.434818"><ele>288.0</ele><time>2026-03-27T10:21:00.648Z</time></trkpt><trkpt lat="44.8169503" lon="9.4346727"><ele>287.6</ele><time>2026-03-27T10:21:01.646Z</time></trkpt><trkpt lat="44.8168898" lon="9.4345266"><ele>287.20000000000005</ele><time>2026-03-27T10:21:02.647Z</time></trkpt><trkpt lat="44.8168621" lon="9.4343842"><ele>286.8</ele><time>2026-03-27T10:21:03.647Z</time></trkpt><trkpt lat="44.8168779" lon="9.4342471"><ele>286.40000000000003</ele><time>2026-03-27T10:21:04.647Z</time></trkpt><trkpt lat="44.8169366" lon="9.434128"><ele>286.0</ele><time>2026-03-27T10:21:05.647Z</time></trkpt><trkpt lat="44.8170231" lon="9.434024"><ele>286.0</ele><time>2026-03-27T10:21:06.648Z</time></trkpt><trkpt lat="44.8171191" lon="9.4339232"><ele>286.0</ele><time>2026-03-27T10:21:07.647Z</time></trkpt><trkpt lat="44.8172119" lon="9.4338072"><ele>286.0</ele><time>2026-03-27T10:21:08.648Z</time></trkpt><trkpt lat="44.8172927" lon="9.4336674"><ele>286.0</ele><time>2026-03-27T10:21:09.647Z</time></trkpt><trkpt lat="44.8173561" lon="9.4334953"><ele>283.3333333333333</ele><time>2026-03-27T10:21:10.647Z</time></trkpt><trkpt lat="44.8174005" lon="9.4333008"><ele>280.6666666666667</ele><time>2026-03-27T10:21:11.647Z</time></trkpt><trkpt lat="44.8174267" lon="9.4330898"><ele>278.0</ele><time>2026-03-27T10:21:12.647Z</time></trkpt><trkpt lat="44.8174316" lon="9.4328709"><ele>277.33333333333337</ele><time>2026-03-27T10:21:13.647Z</time></trkpt><trkpt lat="44.8174155" lon="9.4326445"><ele>276.6666666666667</ele><time>2026-03-27T10:21:14.649Z</time></trkpt><trkpt lat="44.8173881" lon="9.4324112"><ele>276.0</ele><time>2026-03-27T10:21:15.646Z</time></trkpt><trkpt lat="44.8173554" lon="9.432163"><ele>274.3333333333333</ele><time>2026-03-27T10:21:16.65Z</time></trkpt><trkpt lat="44.817321" lon="9.4319027"><ele>272.66666666666663</ele><time>2026-03-27T10:21:17.647Z</time></trkpt><trkpt lat="44.8172866" lon="9.4316427"><ele>271.0</ele><time>2026-03-27T10:21:18.647Z</time></trkpt><trkpt lat="44.8172549" lon="9.4313927"><ele>268.66666666666663</ele><time>2026-03-27T10:21:19.648Z</time></trkpt><trkpt lat="44.8172231" lon="9.4311522"><ele>266.3333333333333</ele><time>2026-03-27T10:21:20.648Z</time></trkpt><trkpt lat="44.8171901" lon="9.4309209"><ele>264.0</ele><time>2026-03-27T10:21:21.652Z</time></trkpt><trkpt lat="44.8171425" lon="9.4307046"><ele>264.0</ele><time>2026-03-27T10:21:22.648Z</time></trkpt><trkpt lat="44.8170682" lon="9.4305179"><ele>264.0</ele><time>2026-03-27T10:21:23.649Z</time></trkpt><trkpt lat="44.81697" lon="9.4303638"><ele>264.0</ele><time>2026-03-27T10:21:24.647Z</time></trkpt><trkpt lat="44.8168511" lon="9.4302515"><ele>264.0</ele><time>2026-03-27T10:21:25.647Z</time></trkpt><trkpt lat="44.8167234" lon="9.4301739"><ele>260.75</ele><time>2026-03-27T10:21:26.648Z</time></trkpt><trkpt lat="44.816592" lon="9.4301078"><ele>257.5</ele><time>2026-03-27T10:21:27.648Z</time></trkpt><trkpt lat="44.8164581" lon="9.4300508"><ele>254.25</ele><time>2026-03-27T10:21:28.648Z</time></trkpt><trkpt lat="44.8163306" lon="9.4299994"><ele>251.0</ele><time>2026-03-27T10:21:29.646Z</time></trkpt><trkpt lat="44.8162108" lon="9.4299508"><ele>251.0</ele><time>2026-03-27T10:21:30.646Z</time></trkpt><trkpt lat="44.8160996" lon="9.4299056"><ele>251.0</ele><time>2026-03-27T10:21:31.647Z</time></trkpt><trkpt lat="44.8159916" lon="9.4298583"><ele>251.0</ele><time>2026-03-27T10:21:32.648Z</time></trkpt><trkpt lat="44.815881" lon="9.4298133"><ele>251.0</ele><time>2026-03-27T10:21:33.648Z</time></trkpt><trkpt lat="44.8157611" lon="9.4297889"><ele>250.5</ele><time>2026-03-27T10:21:34.647Z</time></trkpt><trkpt lat="44.8156377" lon="9.4298113"><ele>250.0</ele><time>2026-03-27T10:21:35.652Z</time></trkpt><trkpt lat="44.8155274" lon="9.4298834"><ele>249.5</ele><time>2026-03-27T10:21:36.647Z</time></trkpt><trkpt lat="44.8154239" lon="9.4299927"><ele>249.0</ele><time>2026-03-27T10:21:37.651Z</time></trkpt><trkpt lat="44.8153292" lon="9.4301191"><ele>249.0</ele><time>2026-03-27T10:21:38.649Z</time></trkpt><trkpt lat="44.815232" lon="9.43025"><ele>249.0</ele><time>2026-03-27T10:21:39.65Z</time></trkpt><trkpt lat="44.8151314" lon="9.4303849"><ele>249.0</ele><time>2026-03-27T10:21:40.647Z</time></trkpt><trkpt lat="44.8150259" lon="9.4305277"><ele>249.0</ele><time>2026-03-27T10:21:41.647Z</time></trkpt><trkpt lat="44.814915" lon="9.4306817"><ele>249.75</ele><time>2026-03-27T10:21:42.648Z</time></trkpt><trkpt lat="44.814805" lon="9.4308183"><ele>250.5</ele><time>2026-03-27T10:21:43.646Z</time></trkpt><trkpt lat="44.8147083" lon="9.4309333"><ele>251.25</ele><time>2026-03-27T10:21:44.648Z</time></trkpt><trkpt lat="44.8146167" lon="9.431045"><ele>252.0</ele><time>2026-03-27T10:21:45.648Z</time></trkpt><trkpt lat="44.814535" lon="9.431155"><ele>252.0</ele><time>2026-03-27T10:21:46.646Z</time></trkpt><trkpt lat="44.8144483" lon="9.4312667"><ele>252.0</ele><time>2026-03-27T10:21:47.647Z</time></trkpt><trkpt lat="44.814355" lon="9.431375"><ele>252.0</ele><time>2026-03-27T10:21:48.646Z</time></trkpt><trkpt lat="44.8142517" lon="9.4314767"><ele>252.0</ele><time>2026-03-27T10:21:49.647Z</time></trkpt><trkpt lat="44.8141417" lon="9.4315667"><ele>251.5</ele><time>2026-03-27T10:21:50.65Z</time></trkpt><trkpt lat="44.8140267" lon="9.431645"><ele>251.0</ele><time>2026-03-27T10:21:51.649Z</time></trkpt><trkpt lat="44.8139033" lon="9.43171"><ele>250.5</ele><time>2026-03-27T10:21:52.648Z</time></trkpt><trkpt lat="44.8137733" lon="9.4317533"><ele>250.0</ele><time>2026-03-27T10:21:53.648Z</time></trkpt><trkpt lat="44.8136333" lon="9.4317833"><ele>250.75</ele><time>2026-03-27T10:21:54.647Z</time></trkpt><trkpt lat="44.8134883" lon="9.4317967"><ele>251.5</ele><time>2026-03-27T10:21:55.653Z</time></trkpt><trkpt lat="44.8133433" lon="9.4317933"><ele>252.25</ele><time>2026-03-27T10:21:56.649Z</time></trkpt><trkpt lat="44.813205" lon="9.43176"><ele>253.0</ele><time>2026-03-27T10:21:57.647Z</time></trkpt><trkpt lat="44.813065" lon="9.4317067"><ele>253.0</ele><time>2026-03-27T10:21:58.647Z</time></trkpt><trkpt lat="44.81293" lon="9.4316417"><ele>253.0</ele><time>2026-03-27T10:21:59.649Z</time></trkpt><trkpt lat="44.8128017" lon="9.4315667"><ele>253.0</ele><time>2026-03-27T10:22:00.648Z</time></trkpt><trkpt lat="44.812675" lon="9.43149"><ele>253.0</ele><time>2026-03-27T10:22:01.647Z</time></trkpt><trkpt lat="44.81255" lon="9.4314167"><ele>252.75</ele><time>2026-03-27T10:22:02.647Z</time></trkpt><trkpt lat="44.8124333" lon="9.431345"><ele>252.5</ele><time>2026-03-27T10:22:03.648Z</time></trkpt><trkpt lat="44.81232" lon="9.4312833"><ele>252.25</ele><time>2026-03-27T10:22:04.647Z</time></trkpt><trkpt lat="44.812195" lon="9.431255"><ele>252.0</ele><time>2026-03-27T10:22:05.647Z</time></trkpt><trkpt lat="44.8120617" lon="9.431275"><ele>252.0</ele><time>2026-03-27T10:22:06.649Z</time></trkpt><trkpt lat="44.81193" lon="9.4313333"><ele>252.0</ele><time>2026-03-27T10:22:07.646Z</time></trkpt><trkpt lat="44.8117967" lon="9.4314083"><ele>252.0</ele><time>2026-03-27T10:22:08.65Z</time></trkpt><trkpt lat="44.811665" lon="9.431485"><ele>252.0</ele><time>2026-03-27T10:22:09.646Z</time></trkpt><trkpt lat="44.8115333" lon="9.43156"><ele>251.25</ele><time>2026-03-27T10:22:10.646Z</time></trkpt><trkpt lat="44.8114017" lon="9.43164"><ele>250.5</ele><time>2026-03-27T10:22:11.647Z</time></trkpt><trkpt lat="44.8112683" lon="9.43172"><ele>249.75</ele><time>2026-03-27T10:22:12.647Z</time></trkpt><trkpt lat="44.8111283" lon="9.4317917"><ele>249.0</ele><time>2026-03-27T10:22:13.647Z</time></trkpt><trkpt lat="44.810985" lon="9.431845"><ele>248.0</ele><time>2026-03-27T10:22:14.647Z</time></trkpt><trkpt lat="44.8108367" lon="9.43187"><ele>247.0</ele><time>2026-03-27T10:22:15.646Z</time></trkpt><trkpt lat="44.8106833" lon="9.431875"><ele>246.0</ele><time>2026-03-27T10:22:16.646Z</time></trkpt><trkpt lat="44.8105317" lon="9.4318583"><ele>246.0</ele><time>2026-03-27T10:22:17.647Z</time></trkpt><trkpt lat="44.8103867" lon="9.4318117"><ele>246.0</ele><time>2026-03-27T10:22:18.649Z</time></trkpt><trkpt lat="44.8102383" lon="9.4317433"><ele>246.0</ele><time>2026-03-27T10:22:19.647Z</time></trkpt><trkpt lat="44.8100883" lon="9.4316667"><ele>245.0</ele><time>2026-03-27T10:22:20.646Z</time></trkpt><trkpt lat="44.8099367" lon="9.4315883"><ele>244.0</ele><time>2026-03-27T10:22:21.647Z</time></trkpt><trkpt lat="44.8097917" lon="9.4315083"><ele>243.0</ele><time>2026-03-27T10:22:22.647Z</time></trkpt><trkpt lat="44.8096467" lon="9.4314317"><ele>243.0</ele><time>2026-03-27T10:22:23.647Z</time></trkpt><trkpt lat="44.8095" lon="9.4313533"><ele>243.0</ele><time>2026-03-27T10:22:24.647Z</time></trkpt><trkpt lat="44.80935" lon="9.431275"><ele>243.0</ele><time>2026-03-27T10:22:25.646Z</time></trkpt><trkpt lat="44.8091983" lon="9.431195"><ele>245.0</ele><time>2026-03-27T10:22:26.647Z</time></trkpt><trkpt lat="44.8090483" lon="9.4311183"><ele>247.0</ele><time>2026-03-27T10:22:27.646Z</time></trkpt><trkpt lat="44.80891" lon="9.431045"><ele>249.0</ele><time>2026-03-27T10:22:28.649Z</time></trkpt><trkpt lat="44.80878" lon="9.430975"><ele>251.0</ele><time>2026-03-27T10:22:29.648Z</time></trkpt><trkpt lat="44.8086533" lon="9.4309067"><ele>251.0</ele><time>2026-03-27T10:22:30.647Z</time></trkpt><trkpt lat="44.8085267" lon="9.4308383"><ele>251.0</ele><time>2026-03-27T10:22:31.647Z</time></trkpt><trkpt lat="44.808395" lon="9.4307733"><ele>251.0</ele><time>2026-03-27T10:22:32.647Z</time></trkpt><trkpt lat="44.808265" lon="9.430705"><ele>251.0</ele><time>2026-03-27T10:22:33.646Z</time></trkpt><trkpt lat="44.8081383" lon="9.4306383"><ele>250.0</ele><time>2026-03-27T10:22:34.646Z</time></trkpt><trkpt lat="44.8080167" lon="9.4305817"><ele>249.0</ele><time>2026-03-27T10:22:35.646Z</time></trkpt><trkpt lat="44.8078967" lon="9.4305617"><ele>248.0</ele><time>2026-03-27T10:22:36.648Z</time></trkpt><trkpt lat="44.8077833" lon="9.4305933"><ele>247.0</ele><time>2026-03-27T10:22:37.647Z</time></trkpt><trkpt lat="44.8076767" lon="9.43068"><ele>245.5</ele><time>2026-03-27T10:22:38.651Z</time></trkpt><trkpt lat="44.8075833" lon="9.4307967"><ele>244.0</ele><time>2026-03-27T10:22:39.649Z</time></trkpt><trkpt lat="44.80753" lon="9.4309533"><ele>242.5</ele><time>2026-03-27T10:22:40.646Z</time></trkpt><trkpt lat="44.8075133" lon="9.4311383"><ele>241.0</ele><time>2026-03-27T10:22:41.647Z</time></trkpt><trkpt lat="44.8075333" lon="9.4313233"><ele>240.5</ele><time>2026-03-27T10:22:42.647Z</time></trkpt><trkpt lat="44.807595" lon="9.4314867"><ele>240.0</ele><time>2026-03-27T10:22:43.648Z</time></trkpt><trkpt lat="44.8077" lon="9.4316117"><ele>239.5</ele><time>2026-03-27T10:22:44.649Z</time></trkpt><trkpt lat="44.8078217" lon="9.4317117"><ele>239.0</ele><time>2026-03-27T10:22:45.647Z</time></trkpt><trkpt lat="44.8079433" lon="9.431795"><ele>239.0</ele><time>2026-03-27T10:22:46.646Z</time></trkpt><trkpt lat="44.8080533" lon="9.4318767"><ele>239.0</ele><time>2026-03-27T10:22:47.649Z</time></trkpt><trkpt lat="44.808155" lon="9.43196"><ele>239.0</ele><time>2026-03-27T10:22:48.649Z</time></trkpt><trkpt lat="44.80825" lon="9.4320433"><ele>239.0</ele><time>2026-03-27T10:22:49.651Z</time></trkpt><trkpt lat="44.80834" lon="9.43213"><ele>237.00000000000003</ele><time>2026-03-27T10:22:50.649Z</time></trkpt><trkpt lat="44.8084133" lon="9.43222"><ele>235.0</ele><time>2026-03-27T10:22:51.648Z</time></trkpt><trkpt lat="44.8084617" lon="9.4323083"><ele>233.0</ele><time>2026-03-27T10:22:52.648Z</time></trkpt><trkpt lat="44.8084417" lon="9.4324733"><ele>231.0</ele><time>2026-03-27T10:22:54.647Z</time></trkpt><trkpt lat="44.8083917" lon="9.4325283"><ele>229.00000000000003</ele><time>2026-03-27T10:22:55.647Z</time></trkpt><trkpt lat="44.808305" lon="9.4325233"><ele>227.0</ele><time>2026-03-27T10:22:56.648Z</time></trkpt><trkpt lat="44.8082217" lon="9.4324817"><ele>227.00000000000003</ele><time>2026-03-27T10:22:57.647Z</time></trkpt><trkpt lat="44.8081417" lon="9.4324167"><ele>227.0</ele><time>2026-03-27T10:22:58.646Z</time></trkpt><trkpt lat="44.8080633" lon="9.4323533"><ele>227.0</ele><time>2026-03-27T10:22:59.65Z</time></trkpt><trkpt lat="44.80799" lon="9.4322967"><ele>227.0</ele><time>2026-03-27T10:23:00.647Z</time></trkpt><trkpt lat="44.807925" lon="9.4322483"><ele>227.00000000000003</ele><time>2026-03-27T10:23:01.646Z</time></trkpt><trkpt lat="44.807865" lon="9.4322017"><ele>227.0</ele><time>2026-03-27T10:23:02.648Z</time></trkpt><trkpt lat="44.807805" lon="9.4321567"><ele>228.16666666666669</ele><time>2026-03-27T10:23:03.648Z</time></trkpt><trkpt lat="44.80774" lon="9.4321133"><ele>229.33333333333334</ele><time>2026-03-27T10:23:04.655Z</time></trkpt><trkpt lat="44.8076717" lon="9.43207"><ele>230.5</ele><time>2026-03-27T10:23:05.646Z</time></trkpt><trkpt lat="44.8076017" lon="9.4320267"><ele>231.66666666666669</ele><time>2026-03-27T10:23:06.646Z</time></trkpt><trkpt lat="44.80754" lon="9.431985"><ele>232.83333333333334</ele><time>2026-03-27T10:23:07.648Z</time></trkpt><trkpt lat="44.8074317" lon="9.4319183"><ele>234.0</ele><time>2026-03-27T10:23:09.646Z</time></trkpt><trkpt lat="44.8073417" lon="9.4318633"><ele>234.0</ele><time>2026-03-27T10:23:11.647Z</time></trkpt><trkpt lat="44.80728" lon="9.4318067"><ele>234.0</ele><time>2026-03-27T10:23:13.648Z</time></trkpt><trkpt lat="44.8072633" lon="9.4316933"><ele>234.0</ele><time>2026-03-27T10:23:31.647Z</time></trkpt><trkpt lat="44.8072117" lon="9.4316383"><ele>234.0</ele><time>2026-03-27T10:23:45.647Z</time></trkpt><trkpt lat="44.8071183" lon="9.4315283"><ele>234.0</ele><time>2026-03-27T10:23:47.648Z</time></trkpt><trkpt lat="44.8070567" lon="9.4314083"><ele>234.0</ele><time>2026-03-27T10:23:48.65Z</time></trkpt><trkpt lat="44.806975" lon="9.431255"><ele>232.33333333333331</ele><time>2026-03-27T10:23:49.649Z</time></trkpt><trkpt lat="44.8068933" lon="9.4310917"><ele>230.66666666666666</ele><time>2026-03-27T10:23:50.649Z</time></trkpt><trkpt lat="44.8067967" lon="9.4309133"><ele>229.0</ele><time>2026-03-27T10:23:51.649Z</time></trkpt><trkpt lat="44.8066933" lon="9.4307167"><ele>229.0</ele><time>2026-03-27T10:23:52.648Z</time></trkpt><trkpt lat="44.8065833" lon="9.4305183"><ele>229.0</ele><time>2026-03-27T10:23:53.649Z</time></trkpt><trkpt lat="44.8064617" lon="9.4303283"><ele>229.0</ele><time>2026-03-27T10:23:54.649Z</time></trkpt><trkpt lat="44.806335" lon="9.4301383"><ele>229.0</ele><time>2026-03-27T10:23:55.649Z</time></trkpt><trkpt lat="44.8062017" lon="9.4299433"><ele>229.0</ele><time>2026-03-27T10:23:56.653Z</time></trkpt><trkpt lat="44.8060683" lon="9.4297583"><ele>229.0</ele><time>2026-03-27T10:23:57.65Z</time></trkpt><trkpt lat="44.8059317" lon="9.4295783"><ele>228.0</ele><time>2026-03-27T10:23:58.647Z</time></trkpt><trkpt lat="44.805795" lon="9.4294017"><ele>227.0</ele><time>2026-03-27T10:23:59.647Z</time></trkpt><trkpt lat="44.8056633" lon="9.42923"><ele>226.0</ele><time>2026-03-27T10:24:00.647Z</time></trkpt><trkpt lat="44.8055283" lon="9.4290583"><ele>226.0</ele><time>2026-03-27T10:24:01.648Z</time></trkpt><trkpt lat="44.8053967" lon="9.4288917"><ele>226.0</ele><time>2026-03-27T10:24:02.648Z</time></trkpt><trkpt lat="44.8052633" lon="9.42872"><ele>226.0</ele><time>2026-03-27T10:24:03.649Z</time></trkpt><trkpt lat="44.805135" lon="9.4285433"><ele>226.0</ele><time>2026-03-27T10:24:04.65Z</time></trkpt><trkpt lat="44.8050083" lon="9.4283683"><ele>226.0</ele><time>2026-03-27T10:24:05.648Z</time></trkpt><trkpt lat="44.80488" lon="9.428195"><ele>226.0</ele><time>2026-03-27T10:24:06.647Z</time></trkpt><trkpt lat="44.80475" lon="9.428025"><ele>226.66666666666666</ele><time>2026-03-27T10:24:07.649Z</time></trkpt><trkpt lat="44.8046167" lon="9.4278583"><ele>227.33333333333331</ele><time>2026-03-27T10:24:08.649Z</time></trkpt><trkpt lat="44.804485" lon="9.42769"><ele>228.0</ele><time>2026-03-27T10:24:09.648Z</time></trkpt><trkpt lat="44.80436" lon="9.4275267"><ele>227.5</ele><time>2026-03-27T10:24:10.649Z</time></trkpt><trkpt lat="44.804245" lon="9.4273683"><ele>227.0</ele><time>2026-03-27T10:24:11.65Z</time></trkpt><trkpt lat="44.8041367" lon="9.427225"><ele>226.5</ele><time>2026-03-27T10:24:12.647Z</time></trkpt><trkpt lat="44.8040317" lon="9.4270983"><ele>226.0</ele><time>2026-03-27T10:24:13.647Z</time></trkpt><trkpt lat="44.8039333" lon="9.4269833"><ele>226.8</ele><time>2026-03-27T10:24:14.648Z</time></trkpt><trkpt lat="44.8038483" lon="9.42687"><ele>227.60000000000002</ele><time>2026-03-27T10:24:15.647Z</time></trkpt><trkpt lat="44.8037683" lon="9.42677"><ele>228.4</ele><time>2026-03-27T10:24:16.646Z</time></trkpt><trkpt lat="44.8037067" lon="9.426675"><ele>229.2</ele><time>2026-03-27T10:24:17.647Z</time></trkpt><trkpt lat="44.803665" lon="9.426595"><ele>230.0</ele><time>2026-03-27T10:24:18.649Z</time></trkpt><trkpt lat="44.8036333" lon="9.42644"><ele>230.0</ele><time>2026-03-27T10:24:20.647Z</time></trkpt><trkpt lat="44.8037017" lon="9.4263317"><ele>230.0</ele><time>2026-03-27T10:24:22.647Z</time></trkpt><trkpt lat="44.8037667" lon="9.4262017"><ele>230.0</ele><time>2026-03-27T10:24:24.646Z</time></trkpt><trkpt lat="44.8037833" lon="9.4260783"><ele>230.0</ele><time>2026-03-27T10:24:26.646Z</time></trkpt><trkpt lat="44.80376" lon="9.425905"><ele>230.0</ele><time>2026-03-27T10:24:28.648Z</time></trkpt><trkpt lat="44.8037367" lon="9.4257633"><ele>230.75</ele><time>2026-03-27T10:24:29.65Z</time></trkpt><trkpt lat="44.8037033" lon="9.425595"><ele>231.5</ele><time>2026-03-27T10:24:30.648Z</time></trkpt><trkpt lat="44.803665" lon="9.4254233"><ele>232.25</ele><time>2026-03-27T10:24:31.651Z</time></trkpt><trkpt lat="44.8036317" lon="9.4252633"><ele>233.0</ele><time>2026-03-27T10:24:32.649Z</time></trkpt><trkpt lat="44.8035867" lon="9.4251233"><ele>233.0</ele><time>2026-03-27T10:24:33.649Z</time></trkpt><trkpt lat="44.8035217" lon="9.425005"><ele>233.0</ele><time>2026-03-27T10:24:34.65Z</time></trkpt><trkpt lat="44.8034333" lon="9.4249"><ele>233.0</ele><time>2026-03-27T10:24:35.648Z</time></trkpt><trkpt lat="44.8033483" lon="9.424795"><ele>233.0</ele><time>2026-03-27T10:24:36.649Z</time></trkpt><trkpt lat="44.8032633" lon="9.4247117"><ele>233.0</ele><time>2026-03-27T10:24:37.65Z</time></trkpt><trkpt lat="44.8031833" lon="9.4246317"><ele>235.4</ele><time>2026-03-27T10:24:38.651Z</time></trkpt><trkpt lat="44.8031067" lon="9.4245483"><ele>237.8</ele><time>2026-03-27T10:24:39.648Z</time></trkpt><trkpt lat="44.8030333" lon="9.4244583"><ele>240.2</ele><time>2026-03-27T10:24:40.65Z</time></trkpt><trkpt lat="44.8029617" lon="9.424355"><ele>242.6</ele><time>2026-03-27T10:24:41.649Z</time></trkpt><trkpt lat="44.8028967" lon="9.424225"><ele>245.0</ele><time>2026-03-27T10:24:42.649Z</time></trkpt><trkpt lat="44.80285" lon="9.424075"><ele>245.0</ele><time>2026-03-27T10:24:43.648Z</time></trkpt><trkpt lat="44.8028033" lon="9.4239283"><ele>245.0</ele><time>2026-03-27T10:24:44.649Z</time></trkpt><trkpt lat="44.8027467" lon="9.4237883"><ele>245.0</ele><time>2026-03-27T10:24:45.648Z</time></trkpt><trkpt lat="44.8026917" lon="9.423645"><ele>245.0</ele><time>2026-03-27T10:24:46.647Z</time></trkpt><trkpt lat="44.8026467" lon="9.4234967"><ele>244.6</ele><time>2026-03-27T10:24:47.648Z</time></trkpt><trkpt lat="44.802615" lon="9.42334"><ele>244.2</ele><time>2026-03-27T10:24:48.649Z</time></trkpt><trkpt lat="44.8025967" lon="9.4231783"><ele>243.8</ele><time>2026-03-27T10:24:49.648Z</time></trkpt><trkpt lat="44.8025917" lon="9.4230267"><ele>243.4</ele><time>2026-03-27T10:24:50.649Z</time></trkpt><trkpt lat="44.8025933" lon="9.4229033"><ele>243.0</ele><time>2026-03-27T10:24:51.648Z</time></trkpt><trkpt lat="44.8026017" lon="9.42281"><ele>244.4</ele><time>2026-03-27T10:24:52.649Z</time></trkpt><trkpt lat="44.80263" lon="9.4227133"><ele>245.8</ele><time>2026-03-27T10:24:54.648Z</time></trkpt><trkpt lat="44.80263" lon="9.422585"><ele>247.2</ele><time>2026-03-27T10:24:56.647Z</time></trkpt><trkpt lat="44.8026033" lon="9.42249"><ele>248.6</ele><time>2026-03-27T10:24:57.647Z</time></trkpt><trkpt lat="44.80255" lon="9.4223667"><ele>250.0</ele><time>2026-03-27T10:24:58.646Z</time></trkpt><trkpt lat="44.8024733" lon="9.4222333"><ele>252.5</ele><time>2026-03-27T10:24:59.647Z</time></trkpt><trkpt lat="44.8023883" lon="9.4221033"><ele>255.0</ele><time>2026-03-27T10:25:00.647Z</time></trkpt><trkpt lat="44.802295" lon="9.4219867"><ele>257.5</ele><time>2026-03-27T10:25:01.646Z</time></trkpt><trkpt lat="44.8021967" lon="9.4218867"><ele>260.0</ele><time>2026-03-27T10:25:02.647Z</time></trkpt><trkpt lat="44.8020983" lon="9.4217867"><ele>260.0</ele><time>2026-03-27T10:25:03.647Z</time></trkpt><trkpt lat="44.8020067" lon="9.42169"><ele>260.0</ele><time>2026-03-27T10:25:04.648Z</time></trkpt><trkpt lat="44.8019183" lon="9.4215833"><ele>260.0</ele><time>2026-03-27T10:25:05.65Z</time></trkpt><trkpt lat="44.801835" lon="9.421465"><ele>260.0</ele><time>2026-03-27T10:25:06.647Z</time></trkpt><trkpt lat="44.801765" lon="9.4213267"><ele>259.5</ele><time>2026-03-27T10:25:07.648Z</time></trkpt><trkpt lat="44.8017183" lon="9.4211667"><ele>259.0</ele><time>2026-03-27T10:25:08.649Z</time></trkpt><trkpt lat="44.8016867" lon="9.42099"><ele>258.5</ele><time>2026-03-27T10:25:09.646Z</time></trkpt><trkpt lat="44.8016483" lon="9.4208133"><ele>258.0</ele><time>2026-03-27T10:25:10.647Z</time></trkpt><trkpt lat="44.801595" lon="9.420645"><ele>258.0</ele><time>2026-03-27T10:25:11.648Z</time></trkpt><trkpt lat="44.8015217" lon="9.4205017"><ele>258.0</ele><time>2026-03-27T10:25:12.647Z</time></trkpt><trkpt lat="44.8014233" lon="9.4203833"><ele>258.0</ele><time>2026-03-27T10:25:13.647Z</time></trkpt><trkpt lat="44.8013" lon="9.4202767"><ele>258.0</ele><time>2026-03-27T10:25:14.65Z</time></trkpt><trkpt lat="44.8011683" lon="9.4201767"><ele>259.6666666666667</ele><time>2026-03-27T10:25:15.647Z</time></trkpt><trkpt lat="44.8010267" lon="9.4200783"><ele>261.33333333333337</ele><time>2026-03-27T10:25:16.647Z</time></trkpt><trkpt lat="44.8008817" lon="9.4199817"><ele>263.0</ele><time>2026-03-27T10:25:17.647Z</time></trkpt><trkpt lat="44.8007333" lon="9.4199017"><ele>263.0</ele><time>2026-03-27T10:25:18.647Z</time></trkpt><trkpt lat="44.8005917" lon="9.4198367"><ele>263.0</ele><time>2026-03-27T10:25:19.65Z</time></trkpt><trkpt lat="44.800455" lon="9.419775"><ele>263.0</ele><time>2026-03-27T10:25:20.65Z</time></trkpt><trkpt lat="44.800335" lon="9.4197133"><ele>263.0</ele><time>2026-03-27T10:25:21.648Z</time></trkpt><trkpt lat="44.800225" lon="9.41965"><ele>264.25</ele><time>2026-03-27T10:25:22.648Z</time></trkpt><trkpt lat="44.8001233" lon="9.4195733"><ele>265.5</ele><time>2026-03-27T10:25:23.648Z</time></trkpt><trkpt lat="44.8000267" lon="9.4194633"><ele>266.75</ele><time>2026-03-27T10:25:24.647Z</time></trkpt><trkpt lat="44.7999433" lon="9.4193217"><ele>268.0</ele><time>2026-03-27T10:25:25.646Z</time></trkpt><trkpt lat="44.79986" lon="9.4191583"><ele>268.0</ele><time>2026-03-27T10:25:26.647Z</time></trkpt><trkpt lat="44.7997733" lon="9.419"><ele>268.0</ele><time>2026-03-27T10:25:27.648Z</time></trkpt><trkpt lat="44.79968" lon="9.4188717"><ele>268.0</ele><time>2026-03-27T10:25:28.649Z</time></trkpt><trkpt lat="44.7995883" lon="9.41877"><ele>268.0</ele><time>2026-03-27T10:25:29.647Z</time></trkpt><trkpt lat="44.7995" lon="9.4187133"><ele>270.0</ele><time>2026-03-27T10:25:30.647Z</time></trkpt><trkpt lat="44.799425" lon="9.41867"><ele>272.0</ele><time>2026-03-27T10:25:31.646Z</time></trkpt><trkpt lat="44.7993317" lon="9.4185667"><ele>274.0</ele><time>2026-03-27T10:25:33.647Z</time></trkpt><trkpt lat="44.79941" lon="9.4184267"><ele>276.0</ele><time>2026-03-27T10:25:35.646Z</time></trkpt><trkpt lat="44.79949" lon="9.4183583"><ele>278.0</ele><time>2026-03-27T10:25:36.647Z</time></trkpt><trkpt lat="44.7995817" lon="9.418305"><ele>279.75</ele><time>2026-03-27T10:25:37.647Z</time></trkpt><trkpt lat="44.7996867" lon="9.4182883"><ele>281.5</ele><time>2026-03-27T10:25:38.646Z</time></trkpt><trkpt lat="44.7997983" lon="9.4183083"><ele>283.25</ele><time>2026-03-27T10:25:39.649Z</time></trkpt><trkpt lat="44.7999167" lon="9.4183633"><ele>285.0</ele><time>2026-03-27T10:25:40.647Z</time></trkpt><trkpt lat="44.800035" lon="9.4184283"><ele>285.0</ele><time>2026-03-27T10:25:41.647Z</time></trkpt><trkpt lat="44.800135" lon="9.4185033"><ele>285.0</ele><time>2026-03-27T10:25:42.649Z</time></trkpt><trkpt lat="44.8002067" lon="9.41858"><ele>285.0</ele><time>2026-03-27T10:25:43.649Z</time></trkpt><trkpt lat="44.80026" lon="9.4186817"><ele>285.0</ele><time>2026-03-27T10:25:44.647Z</time></trkpt><trkpt lat="44.800295" lon="9.4187833"><ele>285.0</ele><time>2026-03-27T10:25:45.648Z</time></trkpt><trkpt lat="44.8003317" lon="9.41888"><ele>284.2</ele><time>2026-03-27T10:25:46.647Z</time></trkpt><trkpt lat="44.800375" lon="9.4189533"><ele>283.4</ele><time>2026-03-27T10:25:47.646Z</time></trkpt><trkpt lat="44.80048" lon="9.418915"><ele>282.6</ele><time>2026-03-27T10:25:49.648Z</time></trkpt><trkpt lat="44.8004633" lon="9.41876"><ele>281.8</ele><time>2026-03-27T10:25:51.646Z</time></trkpt><trkpt lat="44.80042" lon="9.418645"><ele>281.0</ele><time>2026-03-27T10:25:52.646Z</time></trkpt><trkpt lat="44.800375" lon="9.4185067"><ele>285.25</ele><time>2026-03-27T10:25:53.646Z</time></trkpt><trkpt lat="44.80033" lon="9.4183417"><ele>289.5</ele><time>2026-03-27T10:25:54.648Z</time></trkpt><trkpt lat="44.8002767" lon="9.4181733"><ele>293.75</ele><time>2026-03-27T10:25:55.647Z</time></trkpt><trkpt lat="44.8002117" lon="9.41802"><ele>298.0</ele><time>2026-03-27T10:25:56.647Z</time></trkpt><trkpt lat="44.8001283" lon="9.417895"><ele>299.0</ele><time>2026-03-27T10:25:57.646Z</time></trkpt><trkpt lat="44.8000317" lon="9.4177967"><ele>300.0</ele><time>2026-03-27T10:25:58.648Z</time></trkpt><trkpt lat="44.7999383" lon="9.4177083"><ele>301.0</ele><time>2026-03-27T10:25:59.647Z</time></trkpt><trkpt lat="44.799865" lon="9.41761"><ele>302.0</ele><time>2026-03-27T10:26:00.647Z</time></trkpt><trkpt lat="44.7997983" lon="9.41749"><ele>303.0</ele><time>2026-03-27T10:26:01.648Z</time></trkpt><trkpt lat="44.799745" lon="9.417355"><ele>303.0</ele><time>2026-03-27T10:26:02.647Z</time></trkpt><trkpt lat="44.7996917" lon="9.41723"><ele>303.0</ele><time>2026-03-27T10:26:03.648Z</time></trkpt><trkpt lat="44.7996267" lon="9.4171333"><ele>303.0</ele><time>2026-03-27T10:26:04.647Z</time></trkpt><trkpt lat="44.799545" lon="9.41706"><ele>303.0</ele><time>2026-03-27T10:26:05.65Z</time></trkpt><trkpt lat="44.799445" lon="9.4170233"><ele>303.0</ele><time>2026-03-27T10:26:06.646Z</time></trkpt><trkpt lat="44.7993383" lon="9.4170033"><ele>305.4</ele><time>2026-03-27T10:26:07.646Z</time></trkpt><trkpt lat="44.7992383" lon="9.4169917"><ele>307.8</ele><time>2026-03-27T10:26:08.649Z</time></trkpt><trkpt lat="44.7991433" lon="9.4169917"><ele>310.2</ele><time>2026-03-27T10:26:09.647Z</time></trkpt><trkpt lat="44.7990567" lon="9.4170033"><ele>312.6</ele><time>2026-03-27T10:26:10.647Z</time></trkpt><trkpt lat="44.7989817" lon="9.41701"><ele>315.0</ele><time>2026-03-27T10:26:11.648Z</time></trkpt><trkpt lat="44.79887" lon="9.4169617"><ele>315.0</ele><time>2026-03-27T10:26:13.648Z</time></trkpt><trkpt lat="44.7989033" lon="9.4168217"><ele>315.0</ele><time>2026-03-27T10:26:15.647Z</time></trkpt><trkpt lat="44.7989633" lon="9.4167367"><ele>315.0</ele><time>2026-03-27T10:26:16.647Z</time></trkpt><trkpt lat="44.7990383" lon="9.4166433"><ele>315.0</ele><time>2026-03-27T10:26:17.651Z</time></trkpt><trkpt lat="44.79914" lon="9.4165333"><ele>315.0</ele><time>2026-03-27T10:26:18.648Z</time></trkpt><trkpt lat="44.7992567" lon="9.41643"><ele>316.3333333333333</ele><time>2026-03-27T10:26:19.648Z</time></trkpt><trkpt lat="44.799395" lon="9.41634"><ele>317.66666666666663</ele><time>2026-03-27T10:26:20.649Z</time></trkpt><trkpt lat="44.799545" lon="9.416255"><ele>319.0</ele><time>2026-03-27T10:26:21.646Z</time></trkpt><trkpt lat="44.7996983" lon="9.4161683"><ele>322.75</ele><time>2026-03-27T10:26:22.646Z</time></trkpt><trkpt lat="44.7998317" lon="9.4160933"><ele>326.5</ele><time>2026-03-27T10:26:23.647Z</time></trkpt><trkpt lat="44.799945" lon="9.4160367"><ele>330.25</ele><time>2026-03-27T10:26:24.647Z</time></trkpt><trkpt lat="44.8000417" lon="9.416025"><ele>334.0</ele><time>2026-03-27T10:26:25.649Z</time></trkpt><trkpt lat="44.8001367" lon="9.4160617"><ele>333.66666666666663</ele><time>2026-03-27T10:26:26.647Z</time></trkpt><trkpt lat="44.800215" lon="9.4161333"><ele>333.3333333333333</ele><time>2026-03-27T10:26:27.647Z</time></trkpt><trkpt lat="44.80027" lon="9.4162333"><ele>333.0</ele><time>2026-03-27T10:26:28.647Z</time></trkpt><trkpt lat="44.8003" lon="9.4163417"><ele>332.6666666666667</ele><time>2026-03-27T10:26:29.646Z</time></trkpt><trkpt lat="44.8003367" lon="9.4164367"><ele>332.33333333333337</ele><time>2026-03-27T10:26:30.647Z</time></trkpt><trkpt lat="44.8003883" lon="9.416515"><ele>332.0</ele><time>2026-03-27T10:26:31.647Z</time></trkpt><trkpt lat="44.8004483" lon="9.4165667"><ele>332.0</ele><time>2026-03-27T10:26:32.648Z</time></trkpt><trkpt lat="44.8005183" lon="9.4165783"><ele>332.0</ele><time>2026-03-27T10:26:33.647Z</time></trkpt><trkpt lat="44.8006067" lon="9.4165783"><ele>332.0</ele><time>2026-03-27T10:26:34.647Z</time></trkpt><trkpt lat="44.8007117" lon="9.4165833"><ele>332.0</ele><time>2026-03-27T10:26:35.646Z</time></trkpt><trkpt lat="44.800825" lon="9.41662"><ele>332.0</ele><time>2026-03-27T10:26:36.649Z</time></trkpt><trkpt lat="44.80093" lon="9.416675"><ele>334.6</ele><time>2026-03-27T10:26:37.647Z</time></trkpt><trkpt lat="44.8010317" lon="9.4167317"><ele>337.20000000000005</ele><time>2026-03-27T10:26:38.647Z</time></trkpt><trkpt lat="44.8011333" lon="9.41678"><ele>339.8</ele><time>2026-03-27T10:26:39.646Z</time></trkpt><trkpt lat="44.8012367" lon="9.4168083"><ele>342.4</ele><time>2026-03-27T10:26:40.647Z</time></trkpt><trkpt lat="44.8013317" lon="9.4168083"><ele>345.0</ele><time>2026-03-27T10:26:41.65Z</time></trkpt><trkpt lat="44.801425" lon="9.41679"><ele>345.0</ele><time>2026-03-27T10:26:42.646Z</time></trkpt><trkpt lat="44.8015217" lon="9.4167783"><ele>345.0</ele><time>2026-03-27T10:26:43.647Z</time></trkpt><trkpt lat="44.8016133" lon="9.4167817"><ele>345.0</ele><time>2026-03-27T10:26:44.646Z</time></trkpt><trkpt lat="44.8017017" lon="9.4167833"><ele>345.0</ele><time>2026-03-27T10:26:45.646Z</time></trkpt><trkpt lat="44.8017867" lon="9.4167533"><ele>345.0</ele><time>2026-03-27T10:26:46.649Z</time></trkpt><trkpt lat="44.8018483" lon="9.416715"><ele>345.0</ele><time>2026-03-27T10:26:47.647Z</time></trkpt><trkpt lat="44.801885" lon="9.4166367"><ele>345.8333333333333</ele><time>2026-03-27T10:26:48.647Z</time></trkpt><trkpt lat="44.8019017" lon="9.4165267"><ele>346.6666666666667</ele><time>2026-03-27T10:26:49.646Z</time></trkpt><trkpt lat="44.8019383" lon="9.41642"><ele>347.5</ele><time>2026-03-27T10:26:50.647Z</time></trkpt><trkpt lat="44.8019833" lon="9.41633"><ele>348.33333333333337</ele><time>2026-03-27T10:26:51.647Z</time></trkpt><trkpt lat="44.8020933" lon="9.4162933"><ele>349.1666666666667</ele><time>2026-03-27T10:26:53.649Z</time></trkpt><trkpt lat="44.8021467" lon="9.416345"><ele>350.0</ele><time>2026-03-27T10:26:54.647Z</time></trkpt><trkpt lat="44.8021933" lon="9.4164317"><ele>350.0</ele><time>2026-03-27T10:26:55.646Z</time></trkpt><trkpt lat="44.8022283" lon="9.4165267"><ele>350.0</ele><time>2026-03-27T10:26:56.648Z</time></trkpt><trkpt lat="44.8022633" lon="9.4166033"><ele>350.0</ele><time>2026-03-27T10:26:57.647Z</time></trkpt><trkpt lat="44.80234" lon="9.416665"><ele>350.0</ele><time>2026-03-27T10:26:59.646Z</time></trkpt><trkpt lat="44.8024283" lon="9.4166433"><ele>350.0</ele><time>2026-03-27T10:27:01.648Z</time></trkpt><trkpt lat="44.80255" lon="9.416585"><ele>350.0</ele><time>2026-03-27T10:27:03.649Z</time></trkpt><trkpt lat="44.80263" lon="9.4165583"><ele>351.8</ele><time>2026-03-27T10:27:04.646Z</time></trkpt><trkpt lat="44.8027217" lon="9.4165483"><ele>353.6</ele><time>2026-03-27T10:27:05.646Z</time></trkpt><trkpt lat="44.8028183" lon="9.416555"><ele>355.4</ele><time>2026-03-27T10:27:06.648Z</time></trkpt><trkpt lat="44.8029117" lon="9.4165967"><ele>357.2</ele><time>2026-03-27T10:27:07.649Z</time></trkpt><trkpt lat="44.8030017" lon="9.41668"><ele>359.0</ele><time>2026-03-27T10:27:08.648Z</time></trkpt><trkpt lat="44.8030933" lon="9.4167917"><ele>359.0</ele><time>2026-03-27T10:27:09.647Z</time></trkpt><trkpt lat="44.8031898" lon="9.4169075"><ele>359.0</ele><time>2026-03-27T10:27:10.647Z</time></trkpt><trkpt lat="44.8032812" lon="9.4170202"><ele>359.0</ele><time>2026-03-27T10:27:11.646Z</time></trkpt><trkpt lat="44.8033627" lon="9.4171007"><ele>359.0</ele><time>2026-03-27T10:27:12.646Z</time></trkpt><trkpt lat="44.8034395" lon="9.4171426"><ele>359.0</ele><time>2026-03-27T10:27:13.647Z</time></trkpt><trkpt lat="44.8035048" lon="9.4171427"><ele>359.25</ele><time>2026-03-27T10:27:14.648Z</time></trkpt><trkpt lat="44.8036105" lon="9.4170226"><ele>359.5</ele><time>2026-03-27T10:27:16.646Z</time></trkpt><trkpt lat="44.8036715" lon="9.4169167"><ele>359.75</ele><time>2026-03-27T10:27:17.647Z</time></trkpt><trkpt lat="44.8037451" lon="9.4167768"><ele>360.0</ele><time>2026-03-27T10:27:18.648Z</time></trkpt><trkpt lat="44.8038157" lon="9.4166277"><ele>360.0</ele><time>2026-03-27T10:27:19.649Z</time></trkpt><trkpt lat="44.8038778" lon="9.4164739"><ele>360.0</ele><time>2026-03-27T10:27:20.649Z</time></trkpt><trkpt lat="44.8039335" lon="9.4163118"><ele>360.0</ele><time>2026-03-27T10:27:21.651Z</time></trkpt><trkpt lat="44.8039875" lon="9.4161497"><ele>360.0</ele><time>2026-03-27T10:27:22.648Z</time></trkpt><trkpt lat="44.8040495" lon="9.416015"><ele>362.6666666666667</ele><time>2026-03-27T10:27:23.649Z</time></trkpt><trkpt lat="44.804116" lon="9.4159204"><ele>365.3333333333333</ele><time>2026-03-27T10:27:24.648Z</time></trkpt><trkpt lat="44.8041899" lon="9.4158593"><ele>368.0</ele><time>2026-03-27T10:27:25.648Z</time></trkpt><trkpt lat="44.8042678" lon="9.4158338"><ele>370.66666666666663</ele><time>2026-03-27T10:27:26.654Z</time></trkpt><trkpt lat="44.8043517" lon="9.4158475"><ele>373.3333333333333</ele><time>2026-03-27T10:27:27.648Z</time></trkpt><trkpt lat="44.8044313" lon="9.4158952"><ele>376.0</ele><time>2026-03-27T10:27:28.648Z</time></trkpt><trkpt lat="44.804507" lon="9.4159622"><ele>376.3333333333333</ele><time>2026-03-27T10:27:29.648Z</time></trkpt><trkpt lat="44.8045768" lon="9.4160242"><ele>376.66666666666663</ele><time>2026-03-27T10:27:30.647Z</time></trkpt><trkpt lat="44.8046431" lon="9.4160691"><ele>377.0</ele><time>2026-03-27T10:27:31.646Z</time></trkpt><trkpt lat="44.8047096" lon="9.4160861"><ele>377.3333333333333</ele><time>2026-03-27T10:27:32.648Z</time></trkpt><trkpt lat="44.8047875" lon="9.4160697"><ele>377.6666666666667</ele><time>2026-03-27T10:27:33.647Z</time></trkpt><trkpt lat="44.8048695" lon="9.4160355"><ele>378.0</ele><time>2026-03-27T10:27:34.648Z</time></trkpt><trkpt lat="44.8049423" lon="9.4159855"><ele>378.0</ele><time>2026-03-27T10:27:35.646Z</time></trkpt><trkpt lat="44.8050124" lon="9.4159275"><ele>378.0</ele><time>2026-03-27T10:27:36.646Z</time></trkpt><trkpt lat="44.8050767" lon="9.4158116"><ele>378.0</ele><time>2026-03-27T10:27:37.649Z</time></trkpt><trkpt lat="44.8051461" lon="9.4156882"><ele>378.0</ele><time>2026-03-27T10:27:38.647Z</time></trkpt><trkpt lat="44.8052256" lon="9.4155729"><ele>378.0</ele><time>2026-03-27T10:27:39.647Z</time></trkpt><trkpt lat="44.8053161" lon="9.4154764"><ele>380.4</ele><time>2026-03-27T10:27:40.648Z</time></trkpt><trkpt lat="44.8054122" lon="9.4153952"><ele>382.79999999999995</ele><time>2026-03-27T10:27:41.649Z</time></trkpt><trkpt lat="44.8055088" lon="9.415347"><ele>385.2</ele><time>2026-03-27T10:27:42.646Z</time></trkpt><trkpt lat="44.8055974" lon="9.415328"><ele>387.6</ele><time>2026-03-27T10:27:43.647Z</time></trkpt><trkpt lat="44.805674" lon="9.4153173"><ele>390.0</ele><time>2026-03-27T10:27:44.647Z</time></trkpt><trkpt lat="44.8057411" lon="9.4152857"><ele>390.0</ele><time>2026-03-27T10:27:45.647Z</time></trkpt><trkpt lat="44.8057804" lon="9.4151414"><ele>390.0</ele><time>2026-03-27T10:27:47.648Z</time></trkpt><trkpt lat="44.8056992" lon="9.4150389"><ele>390.0</ele><time>2026-03-27T10:27:49.648Z</time></trkpt><trkpt lat="44.8055933" lon="9.4150367"><ele>390.0</ele><time>2026-03-27T10:27:50.65Z</time></trkpt><trkpt lat="44.80549" lon="9.4150217"><ele>390.0</ele><time>2026-03-27T10:27:51.648Z</time></trkpt><trkpt lat="44.80537" lon="9.4149967"><ele>390.0</ele><time>2026-03-27T10:27:52.648Z</time></trkpt><trkpt lat="44.8052417" lon="9.41497"><ele>390.0</ele><time>2026-03-27T10:27:53.648Z</time></trkpt><trkpt lat="44.80513" lon="9.41495"><ele>390.0</ele><time>2026-03-27T10:27:54.648Z</time></trkpt><trkpt lat="44.8050217" lon="9.4149417"><ele>390.0</ele><time>2026-03-27T10:27:55.651Z</time></trkpt><trkpt lat="44.80493" lon="9.414935"><ele>390.0</ele><time>2026-03-27T10:27:56.649Z</time></trkpt><trkpt lat="44.8048433" lon="9.4149183"><ele>390.8</ele><time>2026-03-27T10:27:57.649Z</time></trkpt><trkpt lat="44.80476" lon="9.414895"><ele>391.6</ele><time>2026-03-27T10:27:58.65Z</time></trkpt><trkpt lat="44.80468" lon="9.4148633"><ele>392.4</ele><time>2026-03-27T10:27:59.646Z</time></trkpt><trkpt lat="44.804595" lon="9.4148183"><ele>393.2</ele><time>2026-03-27T10:28:00.647Z</time></trkpt><trkpt lat="44.8045067" lon="9.4147567"><ele>394.0</ele><time>2026-03-27T10:28:01.646Z</time></trkpt><trkpt lat="44.804415" lon="9.4146933"><ele>394.00000000000006</ele><time>2026-03-27T10:28:02.648Z</time></trkpt><trkpt lat="44.804325" lon="9.4146333"><ele>394.0</ele><time>2026-03-27T10:28:03.648Z</time></trkpt><trkpt lat="44.8042567" lon="9.41457"><ele>394.0</ele><time>2026-03-27T10:28:04.648Z</time></trkpt><trkpt lat="44.8042033" lon="9.4144983"><ele>394.0</ele><time>2026-03-27T10:28:05.646Z</time></trkpt><trkpt lat="44.80417" lon="9.4144133"><ele>394.00000000000006</ele><time>2026-03-27T10:28:06.647Z</time></trkpt><trkpt lat="44.804165" lon="9.414315"><ele>394.0</ele><time>2026-03-27T10:28:07.646Z</time></trkpt><trkpt lat="44.8041883" lon="9.4142"><ele>394.0</ele><time>2026-03-27T10:28:08.648Z</time></trkpt><trkpt lat="44.80422" lon="9.414075"><ele>394.0</ele><time>2026-03-27T10:28:09.647Z</time></trkpt><trkpt lat="44.8042617" lon="9.41393"><ele>394.0</ele><time>2026-03-27T10:28:10.651Z</time></trkpt><trkpt lat="44.8043067" lon="9.4137583"><ele>394.0</ele><time>2026-03-27T10:28:11.647Z</time></trkpt><trkpt lat="44.80435" lon="9.413565"><ele>399.75</ele><time>2026-03-27T10:28:12.646Z</time></trkpt><trkpt lat="44.8043817" lon="9.4133717"><ele>405.5</ele><time>2026-03-27T10:28:13.647Z</time></trkpt><trkpt lat="44.8044083" lon="9.4131667"><ele>411.25</ele><time>2026-03-27T10:28:14.648Z</time></trkpt><trkpt lat="44.80443" lon="9.4129683"><ele>417.0</ele><time>2026-03-27T10:28:15.648Z</time></trkpt><trkpt lat="44.8044433" lon="9.4127767"><ele>418.0</ele><time>2026-03-27T10:28:16.647Z</time></trkpt><trkpt lat="44.8044367" lon="9.412595"><ele>419.0</ele><time>2026-03-27T10:28:17.646Z</time></trkpt><trkpt lat="44.8044067" lon="9.4124367"><ele>420.0</ele><time>2026-03-27T10:28:18.649Z</time></trkpt><trkpt lat="44.80436" lon="9.4122983"><ele>421.0</ele><time>2026-03-27T10:28:19.648Z</time></trkpt><trkpt lat="44.804305" lon="9.41217"><ele>419.5</ele><time>2026-03-27T10:28:20.649Z</time></trkpt><trkpt lat="44.80425" lon="9.4120283"><ele>418.0</ele><time>2026-03-27T10:28:21.649Z</time></trkpt><trkpt lat="44.8041933" lon="9.4118767"><ele>416.5</ele><time>2026-03-27T10:28:22.65Z</time></trkpt><trkpt lat="44.8041383" lon="9.411725"><ele>415.0</ele><time>2026-03-27T10:28:23.648Z</time></trkpt><trkpt lat="44.8040883" lon="9.4115917"><ele>415.0</ele><time>2026-03-27T10:28:24.65Z</time></trkpt><trkpt lat="44.8040383" lon="9.41149"><ele>415.0</ele><time>2026-03-27T10:28:25.65Z</time></trkpt><trkpt lat="44.8039883" lon="9.4114083"><ele>415.0</ele><time>2026-03-27T10:28:26.648Z</time></trkpt><trkpt lat="44.8038983" lon="9.4113033"><ele>415.0</ele><time>2026-03-27T10:28:28.648Z</time></trkpt><trkpt lat="44.8038267" lon="9.4112033"><ele>415.0</ele><time>2026-03-27T10:28:30.649Z</time></trkpt><trkpt lat="44.8038" lon="9.4110633"><ele>416.6</ele><time>2026-03-27T10:28:32.649Z</time></trkpt><trkpt lat="44.8037883" lon="9.4109717"><ele>418.2</ele><time>2026-03-27T10:28:33.646Z</time></trkpt><trkpt lat="44.80377" lon="9.4108633"><ele>419.79999999999995</ele><time>2026-03-27T10:28:34.646Z</time></trkpt><trkpt lat="44.803735" lon="9.4107317"><ele>421.4</ele><time>2026-03-27T10:28:35.647Z</time></trkpt><trkpt lat="44.8036983" lon="9.41059"><ele>423.0</ele><time>2026-03-27T10:28:36.648Z</time></trkpt><trkpt lat="44.8036483" lon="9.41045"><ele>423.75</ele><time>2026-03-27T10:28:37.648Z</time></trkpt><trkpt lat="44.8035867" lon="9.410295"><ele>424.5</ele><time>2026-03-27T10:28:38.649Z</time></trkpt><trkpt lat="44.8035267" lon="9.4101317"><ele>425.25</ele><time>2026-03-27T10:28:39.647Z</time></trkpt><trkpt lat="44.8034667" lon="9.409955"><ele>426.0</ele><time>2026-03-27T10:28:40.648Z</time></trkpt><trkpt lat="44.8034" lon="9.409795"><ele>430.0</ele><time>2026-03-27T10:28:41.647Z</time></trkpt><trkpt lat="44.8033317" lon="9.4096583"><ele>434.0</ele><time>2026-03-27T10:28:42.651Z</time></trkpt><trkpt lat="44.803245" lon="9.4095483"><ele>438.0</ele><time>2026-03-27T10:28:43.647Z</time></trkpt><trkpt lat="44.8031433" lon="9.4094617"><ele>442.0</ele><time>2026-03-27T10:28:44.647Z</time></trkpt><trkpt lat="44.8030367" lon="9.409385"><ele>442.0</ele><time>2026-03-27T10:28:45.648Z</time></trkpt><trkpt lat="44.8029217" lon="9.409315"><ele>442.0</ele><time>2026-03-27T10:28:46.649Z</time></trkpt><trkpt lat="44.8028" lon="9.409245"><ele>442.0</ele><time>2026-03-27T10:28:47.651Z</time></trkpt><trkpt lat="44.8026733" lon="9.4091817"><ele>442.0</ele><time>2026-03-27T10:28:48.648Z</time></trkpt><trkpt lat="44.80254" lon="9.4091217"><ele>442.5</ele><time>2026-03-27T10:28:49.648Z</time></trkpt><trkpt lat="44.8024083" lon="9.40906"><ele>443.0</ele><time>2026-03-27T10:28:50.649Z</time></trkpt><trkpt lat="44.8022817" lon="9.4089983"><ele>443.5</ele><time>2026-03-27T10:28:51.648Z</time></trkpt><trkpt lat="44.802165" lon="9.4089383"><ele>444.0</ele><time>2026-03-27T10:28:52.649Z</time></trkpt><trkpt lat="44.8020533" lon="9.40888"><ele>446.5</ele><time>2026-03-27T10:28:53.648Z</time></trkpt><trkpt lat="44.80194" lon="9.40881"><ele>449.0</ele><time>2026-03-27T10:28:54.649Z</time></trkpt><trkpt lat="44.8018267" lon="9.40872"><ele>451.5</ele><time>2026-03-27T10:28:55.648Z</time></trkpt><trkpt lat="44.801715" lon="9.40863"><ele>454.0</ele><time>2026-03-27T10:28:56.648Z</time></trkpt><trkpt lat="44.801625" lon="9.408535"><ele>454.00000000000006</ele><time>2026-03-27T10:28:57.649Z</time></trkpt><trkpt lat="44.80155" lon="9.4084433"><ele>454.0</ele><time>2026-03-27T10:28:58.648Z</time></trkpt><trkpt lat="44.8014933" lon="9.408355"><ele>454.0</ele><time>2026-03-27T10:28:59.653Z</time></trkpt><trkpt lat="44.80146" lon="9.4082567"><ele>454.0</ele><time>2026-03-27T10:29:00.648Z</time></trkpt><trkpt lat="44.8014483" lon="9.4081383"><ele>454.00000000000006</ele><time>2026-03-27T10:29:01.647Z</time></trkpt><trkpt lat="44.8014517" lon="9.4080033"><ele>454.0</ele><time>2026-03-27T10:29:02.647Z</time></trkpt><trkpt lat="44.801455" lon="9.40786"><ele>455.0</ele><time>2026-03-27T10:29:03.647Z</time></trkpt><trkpt lat="44.80145" lon="9.407705"><ele>456.0</ele><time>2026-03-27T10:29:04.649Z</time></trkpt><trkpt lat="44.80144" lon="9.40754"><ele>457.0</ele><time>2026-03-27T10:29:05.646Z</time></trkpt><trkpt lat="44.8014283" lon="9.4073567"><ele>458.0</ele><time>2026-03-27T10:29:06.648Z</time></trkpt><trkpt lat="44.801415" lon="9.4071767"><ele>460.0</ele><time>2026-03-27T10:29:07.646Z</time></trkpt><trkpt lat="44.80141" lon="9.4069917"><ele>462.0</ele><time>2026-03-27T10:29:08.647Z</time></trkpt><trkpt lat="44.8013967" lon="9.4068167"><ele>464.0</ele><time>2026-03-27T10:29:09.646Z</time></trkpt><trkpt lat="44.8013617" lon="9.4066567"><ele>466.0</ele><time>2026-03-27T10:29:10.651Z</time></trkpt><trkpt lat="44.8013067" lon="9.406505"><ele>466.0</ele><time>2026-03-27T10:29:11.647Z</time></trkpt><trkpt lat="44.80125" lon="9.4063667"><ele>466.0</ele><time>2026-03-27T10:29:12.646Z</time></trkpt><trkpt lat="44.8011983" lon="9.4062433"><ele>466.0</ele><time>2026-03-27T10:29:13.647Z</time></trkpt><trkpt lat="44.8011567" lon="9.4061383"><ele>466.0</ele><time>2026-03-27T10:29:14.647Z</time></trkpt><trkpt lat="44.8011333" lon="9.4060517"><ele>466.0</ele><time>2026-03-27T10:29:15.647Z</time></trkpt><trkpt lat="44.80112" lon="9.4059183"><ele>466.4</ele><time>2026-03-27T10:29:17.649Z</time></trkpt><trkpt lat="44.8011583" lon="9.4058167"><ele>466.8</ele><time>2026-03-27T10:29:19.648Z</time></trkpt><trkpt lat="44.8012233" lon="9.40568"><ele>467.19999999999993</ele><time>2026-03-27T10:29:21.649Z</time></trkpt><trkpt lat="44.8012833" lon="9.4055767"><ele>467.59999999999997</ele><time>2026-03-27T10:29:22.647Z</time></trkpt><trkpt lat="44.8013483" lon="9.40546"><ele>468.0</ele><time>2026-03-27T10:29:23.647Z</time></trkpt><trkpt lat="44.8014" lon="9.4053383"><ele>467.2</ele><time>2026-03-27T10:29:24.646Z</time></trkpt><trkpt lat="44.8014283" lon="9.4052117"><ele>466.4</ele><time>2026-03-27T10:29:25.647Z</time></trkpt><trkpt lat="44.8014217" lon="9.4050733"><ele>465.59999999999997</ele><time>2026-03-27T10:29:26.647Z</time></trkpt><trkpt lat="44.8013817" lon="9.4049233"><ele>464.79999999999995</ele><time>2026-03-27T10:29:27.647Z</time></trkpt><trkpt lat="44.801315" lon="9.40478"><ele>464.0</ele><time>2026-03-27T10:29:28.647Z</time></trkpt><trkpt lat="44.8012383" lon="9.4046533"><ele>466.0</ele><time>2026-03-27T10:29:29.648Z</time></trkpt><trkpt lat="44.8011633" lon="9.4045433"><ele>468.0</ele><time>2026-03-27T10:29:30.647Z</time></trkpt><trkpt lat="44.8011033" lon="9.4044483"><ele>470.0</ele><time>2026-03-27T10:29:31.647Z</time></trkpt><trkpt lat="44.8010583" lon="9.4043533"><ele>472.0</ele><time>2026-03-27T10:29:32.649Z</time></trkpt><trkpt lat="44.801025" lon="9.4042433"><ele>474.0</ele><time>2026-03-27T10:29:33.648Z</time></trkpt><trkpt lat="44.8010017" lon="9.404115"><ele>470.79999999999995</ele><time>2026-03-27T10:29:34.648Z</time></trkpt><trkpt lat="44.800985" lon="9.4039733"><ele>467.59999999999997</ele><time>2026-03-27T10:29:35.649Z</time></trkpt><trkpt lat="44.8009667" lon="9.4038183"><ele>464.4</ele><time>2026-03-27T10:29:36.648Z</time></trkpt><trkpt lat="44.80095" lon="9.4036533"><ele>461.2</ele><time>2026-03-27T10:29:37.645Z</time></trkpt><trkpt lat="44.8009383" lon="9.4034933"><ele>458.0</ele><time>2026-03-27T10:29:38.646Z</time></trkpt><trkpt lat="44.8009367" lon="9.403335"><ele>458.0</ele><time>2026-03-27T10:29:39.646Z</time></trkpt><trkpt lat="44.8009517" lon="9.4031733"><ele>458.0</ele><time>2026-03-27T10:29:40.647Z</time></trkpt><trkpt lat="44.8009833" lon="9.403005"><ele>458.0</ele><time>2026-03-27T10:29:41.646Z</time></trkpt><trkpt lat="44.801025" lon="9.4028233"><ele>458.0</ele><time>2026-03-27T10:29:42.647Z</time></trkpt><trkpt lat="44.8010667" lon="9.402645"><ele>460.2</ele><time>2026-03-27T10:29:43.645Z</time></trkpt><trkpt lat="44.8011117" lon="9.4024933"><ele>462.4</ele><time>2026-03-27T10:29:44.648Z</time></trkpt><trkpt lat="44.8011567" lon="9.4023567"><ele>464.59999999999997</ele><time>2026-03-27T10:29:45.646Z</time></trkpt><trkpt lat="44.8011967" lon="9.402235"><ele>466.79999999999995</ele><time>2026-03-27T10:29:46.647Z</time></trkpt><trkpt lat="44.8012333" lon="9.402125"><ele>469.0</ele><time>2026-03-27T10:29:47.647Z</time></trkpt><trkpt lat="44.8012667" lon="9.4020167"><ele>469.0</ele><time>2026-03-27T10:29:48.649Z</time></trkpt><trkpt lat="44.8013083" lon="9.4019133"><ele>469.0</ele><time>2026-03-27T10:29:49.648Z</time></trkpt><trkpt lat="44.8013633" lon="9.4018133"><ele>469.0</ele><time>2026-03-27T10:29:50.65Z</time></trkpt><trkpt lat="44.8014317" lon="9.4017083"><ele>469.0</ele><time>2026-03-27T10:29:51.647Z</time></trkpt><trkpt lat="44.8014967" lon="9.4015883"><ele>469.0</ele><time>2026-03-27T10:29:52.647Z</time></trkpt><trkpt lat="44.8015583" lon="9.4014517"><ele>468.0</ele><time>2026-03-27T10:29:53.648Z</time></trkpt><trkpt lat="44.8016183" lon="9.401315"><ele>467.0</ele><time>2026-03-27T10:29:54.646Z</time></trkpt><trkpt lat="44.8016967" lon="9.4011967"><ele>466.0</ele><time>2026-03-27T10:29:55.648Z</time></trkpt><trkpt lat="44.8017717" lon="9.4011183"><ele>465.0</ele><time>2026-03-27T10:29:56.647Z</time></trkpt><trkpt lat="44.801835" lon="9.4010633"><ele>464.0</ele><time>2026-03-27T10:29:57.647Z</time></trkpt><trkpt lat="44.801895" lon="9.4009583"><ele>464.0</ele><time>2026-03-27T10:29:59.646Z</time></trkpt><trkpt lat="44.801805" lon="9.4008717"><ele>464.0</ele><time>2026-03-27T10:30:01.646Z</time></trkpt><trkpt lat="44.801715" lon="9.400835"><ele>464.0</ele><time>2026-03-27T10:30:02.646Z</time></trkpt><trkpt lat="44.801625" lon="9.4007933"><ele>464.0</ele><time>2026-03-27T10:30:03.646Z</time></trkpt><trkpt lat="44.8015467" lon="9.4007233"><ele>464.0</ele><time>2026-03-27T10:30:04.647Z</time></trkpt><trkpt lat="44.8014867" lon="9.4006117"><ele>464.25</ele><time>2026-03-27T10:30:05.646Z</time></trkpt><trkpt lat="44.8014267" lon="9.4004683"><ele>464.5</ele><time>2026-03-27T10:30:06.647Z</time></trkpt><trkpt lat="44.8013583" lon="9.400305"><ele>464.75</ele><time>2026-03-27T10:30:07.646Z</time></trkpt><trkpt lat="44.801295" lon="9.40014"><ele>465.0</ele><time>2026-03-27T10:30:08.646Z</time></trkpt><trkpt lat="44.80124" lon="9.39997"><ele>465.0</ele><time>2026-03-27T10:30:09.647Z</time></trkpt><trkpt lat="44.8011867" lon="9.3997883"><ele>465.0</ele><time>2026-03-27T10:30:10.646Z</time></trkpt><trkpt lat="44.8011383" lon="9.399615"><ele>465.0</ele><time>2026-03-27T10:30:11.647Z</time></trkpt><trkpt lat="44.801085" lon="9.399465"><ele>465.0</ele><time>2026-03-27T10:30:12.648Z</time></trkpt><trkpt lat="44.8010117" lon="9.3993433"><ele>466.0</ele><time>2026-03-27T10:30:13.645Z</time></trkpt><trkpt lat="44.80091" lon="9.3992533"><ele>467.0</ele><time>2026-03-27T10:30:14.647Z</time></trkpt><trkpt lat="44.8007917" lon="9.399175"><ele>468.0</ele><time>2026-03-27T10:30:15.647Z</time></trkpt><trkpt lat="44.8006733" lon="9.3990967"><ele>469.0</ele><time>2026-03-27T10:30:16.647Z</time></trkpt><trkpt lat="44.800575" lon="9.3990067"><ele>469.0</ele><time>2026-03-27T10:30:17.645Z</time></trkpt><trkpt lat="44.8004883" lon="9.3988933"><ele>469.0</ele><time>2026-03-27T10:30:18.647Z</time></trkpt><trkpt lat="44.8004067" lon="9.3987733"><ele>469.0</ele><time>2026-03-27T10:30:19.645Z</time></trkpt><trkpt lat="44.80033" lon="9.3986567"><ele>469.0</ele><time>2026-03-27T10:30:20.647Z</time></trkpt><trkpt lat="44.8002683" lon="9.3985533"><ele>469.0</ele><time>2026-03-27T10:30:21.645Z</time></trkpt><trkpt lat="44.800225" lon="9.3984667"><ele>472.75</ele><time>2026-03-27T10:30:22.646Z</time></trkpt><trkpt lat="44.800145" lon="9.3983533"><ele>476.5</ele><time>2026-03-27T10:30:24.646Z</time></trkpt><trkpt lat="44.8000417" lon="9.39834"><ele>480.25</ele><time>2026-03-27T10:30:26.65Z</time></trkpt><trkpt lat="44.7999233" lon="9.398385"><ele>484.0</ele><time>2026-03-27T10:30:28.647Z</time></trkpt><trkpt lat="44.7998083" lon="9.39843"><ele>484.00000000000006</ele><time>2026-03-27T10:30:30.648Z</time></trkpt><trkpt lat="44.7997417" lon="9.3984533"><ele>484.0</ele><time>2026-03-27T10:30:31.648Z</time></trkpt><trkpt lat="44.7996733" lon="9.3984667"><ele>484.0</ele><time>2026-03-27T10:30:32.647Z</time></trkpt><trkpt lat="44.7995917" lon="9.3984717"><ele>484.0</ele><time>2026-03-27T10:30:33.65Z</time></trkpt><trkpt lat="44.7995117" lon="9.398465"><ele>484.00000000000006</ele><time>2026-03-27T10:30:34.646Z</time></trkpt><trkpt lat="44.7994383" lon="9.398445"><ele>484.0</ele><time>2026-03-27T10:30:35.646Z</time></trkpt><trkpt lat="44.79936" lon="9.3984167"><ele>483.4</ele><time>2026-03-27T10:30:36.647Z</time></trkpt><trkpt lat="44.7992683" lon="9.3983733"><ele>482.79999999999995</ele><time>2026-03-27T10:30:37.646Z</time></trkpt><trkpt lat="44.7991667" lon="9.3983283"><ele>482.20000000000005</ele><time>2026-03-27T10:30:38.646Z</time></trkpt><trkpt lat="44.7990733" lon="9.398285"><ele>481.6</ele><time>2026-03-27T10:30:39.647Z</time></trkpt><trkpt lat="44.799" lon="9.39825"><ele>481.0</ele><time>2026-03-27T10:30:40.647Z</time></trkpt><trkpt lat="44.7988983" lon="9.3982117"><ele>481.00000000000006</ele><time>2026-03-27T10:30:42.648Z</time></trkpt><trkpt lat="44.7988233" lon="9.3981833"><ele>481.0</ele><time>2026-03-27T10:30:44.646Z</time></trkpt><trkpt lat="44.7987733" lon="9.3981283"><ele>481.0</ele><time>2026-03-27T10:30:46.646Z</time></trkpt><trkpt lat="44.798725" lon="9.3980367"><ele>481.0</ele><time>2026-03-27T10:30:48.646Z</time></trkpt><trkpt lat="44.7987283" lon="9.39787"><ele>481.00000000000006</ele><time>2026-03-27T10:30:50.647Z</time></trkpt><trkpt lat="44.7987483" lon="9.39775"><ele>481.0</ele><time>2026-03-27T10:30:51.647Z</time></trkpt><trkpt lat="44.7987583" lon="9.3976167"><ele>484.0</ele><time>2026-03-27T10:30:52.647Z</time></trkpt><trkpt lat="44.798745" lon="9.3974833"><ele>487.0</ele><time>2026-03-27T10:30:53.646Z</time></trkpt><trkpt lat="44.79871" lon="9.3973617"><ele>490.0</ele><time>2026-03-27T10:30:54.645Z</time></trkpt><trkpt lat="44.7986617" lon="9.397245"><ele>493.0</ele><time>2026-03-27T10:30:55.646Z</time></trkpt><trkpt lat="44.7986133" lon="9.3971367"><ele>496.0</ele><time>2026-03-27T10:30:56.648Z</time></trkpt><trkpt lat="44.7985683" lon="9.3970167"><ele>498.0</ele><time>2026-03-27T10:30:57.647Z</time></trkpt><trkpt lat="44.79854" lon="9.396895"><ele>500.0</ele><time>2026-03-27T10:30:58.646Z</time></trkpt><trkpt lat="44.798525" lon="9.3967733"><ele>502.0</ele><time>2026-03-27T10:30:59.647Z</time></trkpt><trkpt lat="44.7985267" lon="9.3966383"><ele>504.0</ele><time>2026-03-27T10:31:00.65Z</time></trkpt><trkpt lat="44.7985417" lon="9.396495"><ele>506.0</ele><time>2026-03-27T10:31:01.646Z</time></trkpt><trkpt lat="44.798565" lon="9.396355"><ele>504.4</ele><time>2026-03-27T10:31:02.646Z</time></trkpt><trkpt lat="44.7985983" lon="9.3962267"><ele>502.8</ele><time>2026-03-27T10:31:03.646Z</time></trkpt><trkpt lat="44.7986433" lon="9.3961133"><ele>501.19999999999993</ele><time>2026-03-27T10:31:04.646Z</time></trkpt><trkpt lat="44.798705" lon="9.3960133"><ele>499.59999999999997</ele><time>2026-03-27T10:31:05.647Z</time></trkpt><trkpt lat="44.79877" lon="9.39592"><ele>498.0</ele><time>2026-03-27T10:31:06.646Z</time></trkpt><trkpt lat="44.7988317" lon="9.39583"><ele>498.0</ele><time>2026-03-27T10:31:07.65Z</time></trkpt><trkpt lat="44.79889" lon="9.39574"><ele>497.99999999999994</ele><time>2026-03-27T10:31:08.648Z</time></trkpt><trkpt lat="44.7989517" lon="9.3956517"><ele>497.99999999999994</ele><time>2026-03-27T10:31:09.647Z</time></trkpt><trkpt lat="44.7990183" lon="9.3955567"><ele>498.0</ele><time>2026-03-27T10:31:10.648Z</time></trkpt><trkpt lat="44.7990917" lon="9.3954683"><ele>498.0</ele><time>2026-03-27T10:31:11.646Z</time></trkpt><trkpt lat="44.7991717" lon="9.3953933"><ele>497.5</ele><time>2026-03-27T10:31:12.646Z</time></trkpt><trkpt lat="44.799275" lon="9.3953333"><ele>497.0</ele><time>2026-03-27T10:31:13.648Z</time></trkpt><trkpt lat="44.79939" lon="9.3952817"><ele>496.5</ele><time>2026-03-27T10:31:14.647Z</time></trkpt><trkpt lat="44.79951" lon="9.395215"><ele>496.0</ele><time>2026-03-27T10:31:15.648Z</time></trkpt><trkpt lat="44.799615" lon="9.39512"><ele>500.4</ele><time>2026-03-27T10:31:16.646Z</time></trkpt><trkpt lat="44.7997" lon="9.3950233"><ele>504.8</ele><time>2026-03-27T10:31:17.647Z</time></trkpt><trkpt lat="44.7997717" lon="9.3949067"><ele>509.19999999999993</ele><time>2026-03-27T10:31:18.647Z</time></trkpt><trkpt lat="44.799825" lon="9.3947883"><ele>513.6</ele><time>2026-03-27T10:31:19.647Z</time></trkpt><trkpt lat="44.79986" lon="9.3946783"><ele>518.0</ele><time>2026-03-27T10:31:20.646Z</time></trkpt><trkpt lat="44.7998767" lon="9.39458"><ele>518.6</ele><time>2026-03-27T10:31:21.646Z</time></trkpt><trkpt lat="44.799875" lon="9.39448"><ele>519.1999999999999</ele><time>2026-03-27T10:31:22.654Z</time></trkpt><trkpt lat="44.7998417" lon="9.394375"><ele>519.8</ele><time>2026-03-27T10:31:23.648Z</time></trkpt><trkpt lat="44.799775" lon="9.3942817"><ele>520.4</ele><time>2026-03-27T10:31:24.647Z</time></trkpt><trkpt lat="44.7997033" lon="9.3941917"><ele>521.0</ele><time>2026-03-27T10:31:25.646Z</time></trkpt><trkpt lat="44.799605" lon="9.394125"><ele>521.0</ele><time>2026-03-27T10:31:26.646Z</time></trkpt><trkpt lat="44.799495" lon="9.3940767"><ele>521.0</ele><time>2026-03-27T10:31:27.645Z</time></trkpt><trkpt lat="44.79939" lon="9.3940333"><ele>521.0</ele><time>2026-03-27T10:31:28.648Z</time></trkpt><trkpt lat="44.799295" lon="9.3939933"><ele>521.0</ele><time>2026-03-27T10:31:29.646Z</time></trkpt><trkpt lat="44.7992017" lon="9.393955"><ele>521.0</ele><time>2026-03-27T10:31:30.647Z</time></trkpt><trkpt lat="44.7991183" lon="9.3939183"><ele>519.0</ele><time>2026-03-27T10:31:31.647Z</time></trkpt><trkpt lat="44.7990383" lon="9.3938867"><ele>517.0</ele><time>2026-03-27T10:31:32.648Z</time></trkpt><trkpt lat="44.7989667" lon="9.3938567"><ele>515.0</ele><time>2026-03-27T10:31:33.646Z</time></trkpt><trkpt lat="44.7989083" lon="9.3938233"><ele>513.0</ele><time>2026-03-27T10:31:34.646Z</time></trkpt><trkpt lat="44.7988" lon="9.39377"><ele>510.99999999999994</ele><time>2026-03-27T10:31:36.648Z</time></trkpt><trkpt lat="44.7987383" lon="9.39374"><ele>509.0</ele><time>2026-03-27T10:31:37.646Z</time></trkpt><trkpt lat="44.7986617" lon="9.3937267"><ele>510.6</ele><time>2026-03-27T10:31:38.646Z</time></trkpt><trkpt lat="44.79858" lon="9.3937133"><ele>512.2</ele><time>2026-03-27T10:31:39.646Z</time></trkpt><trkpt lat="44.7984917" lon="9.3936983"><ele>513.8000000000001</ele><time>2026-03-27T10:31:40.649Z</time></trkpt><trkpt lat="44.7984083" lon="9.3936717"><ele>515.4</ele><time>2026-03-27T10:31:41.645Z</time></trkpt><trkpt lat="44.7983133" lon="9.3936383"><ele>517.0</ele><time>2026-03-27T10:31:42.649Z</time></trkpt><trkpt lat="44.7982017" lon="9.3935983"><ele>517.0</ele><time>2026-03-27T10:31:43.647Z</time></trkpt><trkpt lat="44.79808" lon="9.3935383"><ele>517.0</ele><time>2026-03-27T10:31:44.647Z</time></trkpt><trkpt lat="44.7979633" lon="9.3934433"><ele>517.0</ele><time>2026-03-27T10:31:45.646Z</time></trkpt><trkpt lat="44.797845" lon="9.3933017"><ele>517.0</ele><time>2026-03-27T10:31:46.646Z</time></trkpt><trkpt lat="44.7977233" lon="9.3931517"><ele>515.3333333333334</ele><time>2026-03-27T10:31:47.647Z</time></trkpt><trkpt lat="44.7976" lon="9.392995"><ele>513.6666666666666</ele><time>2026-03-27T10:31:48.646Z</time></trkpt><trkpt lat="44.7974733" lon="9.3928417"><ele>512.0</ele><time>2026-03-27T10:31:49.646Z</time></trkpt><trkpt lat="44.7973467" lon="9.3927"><ele>512.0</ele><time>2026-03-27T10:31:50.646Z</time></trkpt><trkpt lat="44.7972217" lon="9.3925667"><ele>512.0</ele><time>2026-03-27T10:31:51.647Z</time></trkpt><trkpt lat="44.7970917" lon="9.3924367"><ele>512.0</ele><time>2026-03-27T10:31:52.646Z</time></trkpt><trkpt lat="44.7969783" lon="9.3922983"><ele>515.25</ele><time>2026-03-27T10:31:53.647Z</time></trkpt><trkpt lat="44.7968717" lon="9.3921617"><ele>518.5</ele><time>2026-03-27T10:31:54.647Z</time></trkpt><trkpt lat="44.7967767" lon="9.3920267"><ele>521.75</ele><time>2026-03-27T10:31:55.652Z</time></trkpt><trkpt lat="44.796705" lon="9.391885"><ele>525.0</ele><time>2026-03-27T10:31:56.646Z</time></trkpt><trkpt lat="44.79665" lon="9.3917467"><ele>519.75</ele><time>2026-03-27T10:31:57.647Z</time></trkpt><trkpt lat="44.7966267" lon="9.391605"><ele>514.5</ele><time>2026-03-27T10:31:58.646Z</time></trkpt><trkpt lat="44.7966133" lon="9.3914517"><ele>509.25</ele><time>2026-03-27T10:31:59.648Z</time></trkpt><trkpt lat="44.796585" lon="9.3912917"><ele>504.0</ele><time>2026-03-27T10:32:00.648Z</time></trkpt><trkpt lat="44.7965283" lon="9.3911333"><ele>504.0</ele><time>2026-03-27T10:32:01.651Z</time></trkpt><trkpt lat="44.7964433" lon="9.3909883"><ele>504.0</ele><time>2026-03-27T10:32:02.648Z</time></trkpt><trkpt lat="44.796335" lon="9.3908567"><ele>504.0</ele><time>2026-03-27T10:32:03.648Z</time></trkpt><trkpt lat="44.7962333" lon="9.390755"><ele>504.0</ele><time>2026-03-27T10:32:04.649Z</time></trkpt><trkpt lat="44.796135" lon="9.3906867"><ele>504.0</ele><time>2026-03-27T10:32:05.65Z</time></trkpt><trkpt lat="44.7960483" lon="9.390655"><ele>504.0</ele><time>2026-03-27T10:32:06.648Z</time></trkpt><trkpt lat="44.7959567" lon="9.390665"><ele>504.0</ele><time>2026-03-27T10:32:07.649Z</time></trkpt><trkpt lat="44.7958833" lon="9.3907717"><ele>504.0</ele><time>2026-03-27T10:32:08.647Z</time></trkpt><trkpt lat="44.7958133" lon="9.3909017"><ele>504.0</ele><time>2026-03-27T10:32:09.648Z</time></trkpt><trkpt lat="44.795745" lon="9.391055"><ele>502.75</ele><time>2026-03-27T10:32:10.646Z</time></trkpt><trkpt lat="44.79567" lon="9.391195"><ele>501.5</ele><time>2026-03-27T10:32:11.645Z</time></trkpt><trkpt lat="44.7955783" lon="9.3913133"><ele>500.25</ele><time>2026-03-27T10:32:12.646Z</time></trkpt><trkpt lat="44.79548" lon="9.391415"><ele>499.0</ele><time>2026-03-27T10:32:13.645Z</time></trkpt><trkpt lat="44.7953933" lon="9.391515"><ele>497.2</ele><time>2026-03-27T10:32:14.646Z</time></trkpt><trkpt lat="44.7953117" lon="9.3916133"><ele>495.4</ele><time>2026-03-27T10:32:15.648Z</time></trkpt><trkpt lat="44.7952367" lon="9.39169"><ele>493.6</ele><time>2026-03-27T10:32:16.645Z</time></trkpt><trkpt lat="44.7951617" lon="9.3917517"><ele>491.8</ele><time>2026-03-27T10:32:17.647Z</time></trkpt><trkpt lat="44.7950833" lon="9.3917933"><ele>490.0</ele><time>2026-03-27T10:32:18.646Z</time></trkpt><trkpt lat="44.7949933" lon="9.3918233"><ele>490.0</ele><time>2026-03-27T10:32:19.65Z</time></trkpt><trkpt lat="44.794875" lon="9.39179"><ele>490.0</ele><time>2026-03-27T10:32:20.649Z</time></trkpt><trkpt lat="44.7947517" lon="9.391745"><ele>490.0</ele><time>2026-03-27T10:32:21.647Z</time></trkpt><trkpt lat="44.7946167" lon="9.3917033"><ele>490.0</ele><time>2026-03-27T10:32:22.648Z</time></trkpt><trkpt lat="44.7944983" lon="9.391725"><ele>490.00000000000006</ele><time>2026-03-27T10:32:23.646Z</time></trkpt><trkpt lat="44.7944017" lon="9.3917867"><ele>490.0</ele><time>2026-03-27T10:32:24.646Z</time></trkpt><trkpt lat="44.7943167" lon="9.3918267"><ele>490.0</ele><time>2026-03-27T10:32:25.648Z</time></trkpt><trkpt lat="44.7942383" lon="9.39184"><ele>490.0</ele><time>2026-03-27T10:32:26.646Z</time></trkpt><trkpt lat="44.79417" lon="9.3917967"><ele>490.00000000000006</ele><time>2026-03-27T10:32:27.645Z</time></trkpt><trkpt lat="44.7941133" lon="9.3917183"><ele>490.0</ele><time>2026-03-27T10:32:28.648Z</time></trkpt><trkpt lat="44.79406" lon="9.3915967"><ele>489.4</ele><time>2026-03-27T10:32:29.647Z</time></trkpt><trkpt lat="44.7939983" lon="9.3914517"><ele>488.8</ele><time>2026-03-27T10:32:30.649Z</time></trkpt><trkpt lat="44.7939267" lon="9.391325"><ele>488.20000000000005</ele><time>2026-03-27T10:32:31.646Z</time></trkpt><trkpt lat="44.793855" lon="9.3912183"><ele>487.6</ele><time>2026-03-27T10:32:32.647Z</time></trkpt><trkpt lat="44.7937867" lon="9.3911283"><ele>487.0</ele><time>2026-03-27T10:32:33.648Z</time></trkpt><trkpt lat="44.7937167" lon="9.39105"><ele>487.0</ele><time>2026-03-27T10:32:34.647Z</time></trkpt><trkpt lat="44.7936533" lon="9.39104"><ele>487.00000000000006</ele><time>2026-03-27T10:32:35.649Z</time></trkpt><trkpt lat="44.793565" lon="9.39114"><ele>487.00000000000006</ele><time>2026-03-27T10:32:37.647Z</time></trkpt><trkpt lat="44.7935633" lon="9.3912433"><ele>487.0</ele><time>2026-03-27T10:32:38.646Z</time></trkpt><trkpt lat="44.7935933" lon="9.3913917"><ele>487.0</ele><time>2026-03-27T10:32:39.649Z</time></trkpt><trkpt lat="44.7936083" lon="9.3915267"><ele>485.40000000000003</ele><time>2026-03-27T10:32:40.65Z</time></trkpt><trkpt lat="44.79361" lon="9.391655"><ele>483.80000000000007</ele><time>2026-03-27T10:32:41.646Z</time></trkpt><trkpt lat="44.7935983" lon="9.3917717"><ele>482.2</ele><time>2026-03-27T10:32:42.646Z</time></trkpt><trkpt lat="44.7935583" lon="9.3918767"><ele>480.6</ele><time>2026-03-27T10:32:43.646Z</time></trkpt><trkpt lat="44.7934933" lon="9.3919783"><ele>479.0</ele><time>2026-03-27T10:32:44.647Z</time></trkpt><trkpt lat="44.7933733" lon="9.3920733"><ele>476.75</ele><time>2026-03-27T10:32:45.645Z</time></trkpt><trkpt lat="44.79324" lon="9.39215"><ele>474.5</ele><time>2026-03-27T10:32:46.646Z</time></trkpt><trkpt lat="44.7930983" lon="9.392205"><ele>472.25</ele><time>2026-03-27T10:32:47.646Z</time></trkpt><trkpt lat="44.7929533" lon="9.39226"><ele>470.0</ele><time>2026-03-27T10:32:48.646Z</time></trkpt><trkpt lat="44.7928233" lon="9.3923433"><ele>469.0</ele><time>2026-03-27T10:32:49.646Z</time></trkpt><trkpt lat="44.7927083" lon="9.3924267"><ele>468.0</ele><time>2026-03-27T10:32:50.648Z</time></trkpt><trkpt lat="44.7926067" lon="9.3925033"><ele>467.0</ele><time>2026-03-27T10:32:51.65Z</time></trkpt><trkpt lat="44.7925117" lon="9.3925717"><ele>466.0</ele><time>2026-03-27T10:32:52.646Z</time></trkpt><trkpt lat="44.7924317" lon="9.3926317"><ele>465.0</ele><time>2026-03-27T10:32:53.648Z</time></trkpt><trkpt lat="44.7923517" lon="9.39269"><ele>465.0</ele><time>2026-03-27T10:32:54.646Z</time></trkpt><trkpt lat="44.7922667" lon="9.3927433"><ele>465.0</ele><time>2026-03-27T10:32:55.646Z</time></trkpt><trkpt lat="44.7921583" lon="9.3928217"><ele>465.0</ele><time>2026-03-27T10:32:56.651Z</time></trkpt><trkpt lat="44.79204" lon="9.3929267"><ele>465.0</ele><time>2026-03-27T10:32:57.646Z</time></trkpt><trkpt lat="44.7919167" lon="9.3930483"><ele>463.66666666666663</ele><time>2026-03-27T10:32:58.648Z</time></trkpt><trkpt lat="44.7918033" lon="9.3931817"><ele>462.3333333333333</ele><time>2026-03-27T10:32:59.647Z</time></trkpt><trkpt lat="44.7917083" lon="9.39334"><ele>461.0</ele><time>2026-03-27T10:33:00.649Z</time></trkpt><trkpt lat="44.7916383" lon="9.3935383"><ele>461.0</ele><time>2026-03-27T10:33:01.648Z</time></trkpt><trkpt lat="44.7915883" lon="9.3937567"><ele>461.0</ele><time>2026-03-27T10:33:02.647Z</time></trkpt><trkpt lat="44.791535" lon="9.3939733"><ele>461.0</ele><time>2026-03-27T10:33:03.649Z</time></trkpt><trkpt lat="44.79148" lon="9.3941917"><ele>457.66666666666663</ele><time>2026-03-27T10:33:04.647Z</time></trkpt><trkpt lat="44.7914233" lon="9.394395"><ele>454.33333333333337</ele><time>2026-03-27T10:33:05.651Z</time></trkpt><trkpt lat="44.79137" lon="9.3946"><ele>451.0</ele><time>2026-03-27T10:33:06.648Z</time></trkpt><trkpt lat="44.7913183" lon="9.3948083"><ele>449.5</ele><time>2026-03-27T10:33:07.647Z</time></trkpt><trkpt lat="44.7912683" lon="9.3950033"><ele>448.0</ele><time>2026-03-27T10:33:08.647Z</time></trkpt><trkpt lat="44.79122" lon="9.3951917"><ele>446.5</ele><time>2026-03-27T10:33:09.646Z</time></trkpt><trkpt lat="44.79117" lon="9.3953683"><ele>445.0</ele><time>2026-03-27T10:33:10.65Z</time></trkpt><trkpt lat="44.7911233" lon="9.3955333"><ele>446.5</ele><time>2026-03-27T10:33:11.647Z</time></trkpt><trkpt lat="44.7910767" lon="9.395695"><ele>448.0</ele><time>2026-03-27T10:33:12.646Z</time></trkpt><trkpt lat="44.7910317" lon="9.3958517"><ele>449.5</ele><time>2026-03-27T10:33:13.646Z</time></trkpt><trkpt lat="44.790985" lon="9.3959867"><ele>451.0</ele><time>2026-03-27T10:33:14.646Z</time></trkpt><trkpt lat="44.7909283" lon="9.3961083"><ele>451.0</ele><time>2026-03-27T10:33:15.647Z</time></trkpt><trkpt lat="44.7908667" lon="9.3962217"><ele>451.0</ele><time>2026-03-27T10:33:16.65Z</time></trkpt><trkpt lat="44.7907883" lon="9.39633"><ele>451.0</ele><time>2026-03-27T10:33:17.646Z</time></trkpt><trkpt lat="44.7907117" lon="9.3964383"><ele>451.0</ele><time>2026-03-27T10:33:18.649Z</time></trkpt><trkpt lat="44.790635" lon="9.396545"><ele>451.0</ele><time>2026-03-27T10:33:19.647Z</time></trkpt><trkpt lat="44.7905483" lon="9.3966433"><ele>449.20000000000005</ele><time>2026-03-27T10:33:20.647Z</time></trkpt><trkpt lat="44.7904567" lon="9.3967083"><ele>447.40000000000003</ele><time>2026-03-27T10:33:21.646Z</time></trkpt><trkpt lat="44.7903667" lon="9.39673"><ele>445.6</ele><time>2026-03-27T10:33:22.652Z</time></trkpt><trkpt lat="44.7902717" lon="9.3967117"><ele>443.8</ele><time>2026-03-27T10:33:23.646Z</time></trkpt><trkpt lat="44.7901783" lon="9.3966617"><ele>442.0</ele><time>2026-03-27T10:33:24.647Z</time></trkpt><trkpt lat="44.790075" lon="9.3966"><ele>442.0</ele><time>2026-03-27T10:33:25.646Z</time></trkpt><trkpt lat="44.7899683" lon="9.39655"><ele>442.00000000000006</ele><time>2026-03-27T10:33:26.646Z</time></trkpt><trkpt lat="44.7898667" lon="9.3965067"><ele>442.00000000000006</ele><time>2026-03-27T10:33:27.647Z</time></trkpt><trkpt lat="44.7897717" lon="9.3964717"><ele>442.0</ele><time>2026-03-27T10:33:28.647Z</time></trkpt><trkpt lat="44.7896817" lon="9.39644"><ele>442.0</ele><time>2026-03-27T10:33:29.647Z</time></trkpt><trkpt lat="44.7895883" lon="9.3964083"><ele>442.00000000000006</ele><time>2026-03-27T10:33:30.648Z</time></trkpt><trkpt lat="44.7894933" lon="9.3963683"><ele>442.0</ele><time>2026-03-27T10:33:31.647Z</time></trkpt><trkpt lat="44.7894083" lon="9.3963233"><ele>442.0</ele><time>2026-03-27T10:33:32.648Z</time></trkpt><trkpt lat="44.7893417" lon="9.3962633"><ele>442.0</ele><time>2026-03-27T10:33:33.647Z</time></trkpt><trkpt lat="44.789285" lon="9.3961867"><ele>442.00000000000006</ele><time>2026-03-27T10:33:34.647Z</time></trkpt><trkpt lat="44.7892433" lon="9.3960983"><ele>442.0</ele><time>2026-03-27T10:33:35.648Z</time></trkpt><trkpt lat="44.78921" lon="9.3960017"><ele>441.50000000000006</ele><time>2026-03-27T10:33:36.648Z</time></trkpt><trkpt lat="44.7891783" lon="9.395895"><ele>441.0</ele><time>2026-03-27T10:33:37.648Z</time></trkpt><trkpt lat="44.7891467" lon="9.39579"><ele>440.5</ele><time>2026-03-27T10:33:38.647Z</time></trkpt><trkpt lat="44.7891183" lon="9.39568"><ele>440.0</ele><time>2026-03-27T10:33:39.647Z</time></trkpt><trkpt lat="44.7890833" lon="9.3955683"><ele>439.50000000000006</ele><time>2026-03-27T10:33:40.646Z</time></trkpt><trkpt lat="44.78904" lon="9.3954533"><ele>439.0</ele><time>2026-03-27T10:33:41.648Z</time></trkpt><trkpt lat="44.7889833" lon="9.3953417"><ele>439.0</ele><time>2026-03-27T10:33:42.648Z</time></trkpt><trkpt lat="44.788905" lon="9.39524"><ele>439.0</ele><time>2026-03-27T10:33:43.647Z</time></trkpt><trkpt lat="44.7888167" lon="9.3951733"><ele>439.0</ele><time>2026-03-27T10:33:44.648Z</time></trkpt><trkpt lat="44.78868" lon="9.3951567"><ele>439.0</ele><time>2026-03-27T10:33:45.647Z</time></trkpt><trkpt lat="44.7885267" lon="9.39514"><ele>432.0</ele><time>2026-03-27T10:33:46.646Z</time></trkpt><trkpt lat="44.7883633" lon="9.3950983"><ele>425.0</ele><time>2026-03-27T10:33:47.648Z</time></trkpt><trkpt lat="44.7882017" lon="9.3950517"><ele>418.0</ele><time>2026-03-27T10:33:48.646Z</time></trkpt><trkpt lat="44.7880633" lon="9.3950067"><ele>418.0</ele><time>2026-03-27T10:33:49.646Z</time></trkpt><trkpt lat="44.78796" lon="9.3949517"><ele>418.0</ele><time>2026-03-27T10:33:50.646Z</time></trkpt><trkpt lat="44.787875" lon="9.394865"><ele>418.0</ele><time>2026-03-27T10:33:51.647Z</time></trkpt><trkpt lat="44.7877917" lon="9.3947433"><ele>418.0</ele><time>2026-03-27T10:33:52.649Z</time></trkpt><trkpt lat="44.7877217" lon="9.3946083"><ele>413.75</ele><time>2026-03-27T10:33:53.646Z</time></trkpt><trkpt lat="44.787665" lon="9.3944633"><ele>409.5</ele><time>2026-03-27T10:33:54.646Z</time></trkpt><trkpt lat="44.7876317" lon="9.3942983"><ele>405.25</ele><time>2026-03-27T10:33:55.646Z</time></trkpt><trkpt lat="44.7875933" lon="9.3941267"><ele>401.0</ele><time>2026-03-27T10:33:56.646Z</time></trkpt><trkpt lat="44.7875633" lon="9.3939717"><ele>402.5</ele><time>2026-03-27T10:33:57.647Z</time></trkpt><trkpt lat="44.7875567" lon="9.3938183"><ele>404.0</ele><time>2026-03-27T10:33:58.647Z</time></trkpt><trkpt lat="44.7875767" lon="9.3936533"><ele>405.5</ele><time>2026-03-27T10:33:59.647Z</time></trkpt><trkpt lat="44.787615" lon="9.393495"><ele>407.0</ele><time>2026-03-27T10:34:00.647Z</time></trkpt><trkpt lat="44.7876583" lon="9.3933533"><ele>411.49999999999994</ele><time>2026-03-27T10:34:01.647Z</time></trkpt><trkpt lat="44.7876867" lon="9.3932333"><ele>416.0</ele><time>2026-03-27T10:34:02.648Z</time></trkpt><trkpt lat="44.7877017" lon="9.3931217"><ele>420.5</ele><time>2026-03-27T10:34:03.65Z</time></trkpt><trkpt lat="44.7876883" lon="9.393025"><ele>425.0</ele><time>2026-03-27T10:34:04.647Z</time></trkpt><trkpt lat="44.787625" lon="9.3929917"><ele>429.49999999999994</ele><time>2026-03-27T10:34:05.646Z</time></trkpt><trkpt lat="44.7875633" lon="9.3929533"><ele>434.0</ele><time>2026-03-27T10:34:06.646Z</time></trkpt><trkpt lat="44.7874417" lon="9.3929717"><ele>425.0</ele><time>2026-03-27T10:34:07.646Z</time></trkpt><trkpt lat="44.7873067" lon="9.393025"><ele>416.0</ele><time>2026-03-27T10:34:08.649Z</time></trkpt><trkpt lat="44.7871667" lon="9.393115"><ele>407.0</ele><time>2026-03-27T10:34:09.646Z</time></trkpt><trkpt lat="44.7870133" lon="9.39319"><ele>407.0</ele><time>2026-03-27T10:34:10.646Z</time></trkpt><trkpt lat="44.786855" lon="9.3932433"><ele>407.0</ele><time>2026-03-27T10:34:11.647Z</time></trkpt><trkpt lat="44.7866917" lon="9.3933317"><ele>407.0</ele><time>2026-03-27T10:34:12.647Z</time></trkpt><trkpt lat="44.78653" lon="9.3934683"><ele>407.0</ele><time>2026-03-27T10:34:13.651Z</time></trkpt><trkpt lat="44.786375" lon="9.3936133"><ele>407.0</ele><time>2026-03-27T10:34:14.646Z</time></trkpt><trkpt lat="44.7862329" lon="9.3937547"><ele>407.0</ele><time>2026-03-27T10:34:15.647Z</time></trkpt><trkpt lat="44.7861013" lon="9.3938773"><ele>401.25</ele><time>2026-03-27T10:34:16.646Z</time></trkpt><trkpt lat="44.7859771" lon="9.3939785"><ele>395.5</ele><time>2026-03-27T10:34:17.646Z</time></trkpt><trkpt lat="44.7858576" lon="9.3940733"><ele>389.75</ele><time>2026-03-27T10:34:18.646Z</time></trkpt><trkpt lat="44.7857428" lon="9.3941732"><ele>384.0</ele><time>2026-03-27T10:34:19.645Z</time></trkpt><trkpt lat="44.7856311" lon="9.3942697"><ele>384.0</ele><time>2026-03-27T10:34:20.646Z</time></trkpt><trkpt lat="44.7855155" lon="9.3943441"><ele>384.0</ele><time>2026-03-27T10:34:21.647Z</time></trkpt><trkpt lat="44.785392" lon="9.3943948"><ele>384.0</ele><time>2026-03-27T10:34:22.647Z</time></trkpt><trkpt lat="44.7852707" lon="9.3944374"><ele>384.0</ele><time>2026-03-27T10:34:23.646Z</time></trkpt><trkpt lat="44.7851506" lon="9.3944878"><ele>384.5</ele><time>2026-03-27T10:34:24.647Z</time></trkpt><trkpt lat="44.7850252" lon="9.3945569"><ele>385.0</ele><time>2026-03-27T10:34:25.646Z</time></trkpt><trkpt lat="44.7848988" lon="9.3946467"><ele>385.5</ele><time>2026-03-27T10:34:26.647Z</time></trkpt><trkpt lat="44.7847764" lon="9.3947427"><ele>386.0</ele><time>2026-03-27T10:34:27.646Z</time></trkpt><trkpt lat="44.784654" lon="9.3948386"><ele>382.0</ele><time>2026-03-27T10:34:28.648Z</time></trkpt><trkpt lat="44.7845334" lon="9.3949393"><ele>378.0</ele><time>2026-03-27T10:34:29.647Z</time></trkpt><trkpt lat="44.784419" lon="9.3950541"><ele>374.0</ele><time>2026-03-27T10:34:30.65Z</time></trkpt><trkpt lat="44.784317" lon="9.3951874"><ele>370.0</ele><time>2026-03-27T10:34:31.648Z</time></trkpt><trkpt lat="44.784231" lon="9.3953333"><ele>369.5</ele><time>2026-03-27T10:34:32.649Z</time></trkpt><trkpt lat="44.7841521" lon="9.3954805"><ele>369.0</ele><time>2026-03-27T10:34:33.648Z</time></trkpt><trkpt lat="44.7840768" lon="9.395618"><ele>368.5</ele><time>2026-03-27T10:34:34.646Z</time></trkpt><trkpt lat="44.7840028" lon="9.3957415"><ele>368.0</ele><time>2026-03-27T10:34:35.646Z</time></trkpt><trkpt lat="44.7839392" lon="9.3958428"><ele>366.33333333333337</ele><time>2026-03-27T10:34:36.647Z</time></trkpt><trkpt lat="44.7838797" lon="9.3959154"><ele>364.6666666666667</ele><time>2026-03-27T10:34:37.646Z</time></trkpt><trkpt lat="44.7838147" lon="9.3959611"><ele>363.0</ele><time>2026-03-27T10:34:38.648Z</time></trkpt><trkpt lat="44.7837434" lon="9.3959754"><ele>361.3333333333333</ele><time>2026-03-27T10:34:39.649Z</time></trkpt><trkpt lat="44.7836729" lon="9.3958962"><ele>359.66666666666663</ele><time>2026-03-27T10:34:40.648Z</time></trkpt><trkpt lat="44.7836116" lon="9.3957695"><ele>358.0</ele><time>2026-03-27T10:34:41.646Z</time></trkpt><trkpt lat="44.7835529" lon="9.3956255"><ele>357.5</ele><time>2026-03-27T10:34:42.645Z</time></trkpt><trkpt lat="44.7834852" lon="9.3954789"><ele>357.0</ele><time>2026-03-27T10:34:43.649Z</time></trkpt><trkpt lat="44.7833949" lon="9.3953336"><ele>356.5</ele><time>2026-03-27T10:34:44.647Z</time></trkpt><trkpt lat="44.7832742" lon="9.3952084"><ele>356.0</ele><time>2026-03-27T10:34:45.646Z</time></trkpt><trkpt lat="44.7831318" lon="9.3951006"><ele>356.0</ele><time>2026-03-27T10:34:46.647Z</time></trkpt><trkpt lat="44.7829957" lon="9.395001"><ele>356.0</ele><time>2026-03-27T10:34:47.647Z</time></trkpt><trkpt lat="44.7828713" lon="9.394904"><ele>356.0</ele><time>2026-03-27T10:34:48.647Z</time></trkpt><trkpt lat="44.7827563" lon="9.3948011"><ele>356.0</ele><time>2026-03-27T10:34:49.646Z</time></trkpt><trkpt lat="44.7826435" lon="9.3946783"><ele>354.0</ele><time>2026-03-27T10:34:50.647Z</time></trkpt><trkpt lat="44.7825333" lon="9.3945282"><ele>352.0</ele><time>2026-03-27T10:34:51.647Z</time></trkpt><trkpt lat="44.7824243" lon="9.3943586"><ele>350.0</ele><time>2026-03-27T10:34:52.647Z</time></trkpt><trkpt lat="44.7823177" lon="9.3941874"><ele>350.0</ele><time>2026-03-27T10:34:53.648Z</time></trkpt><trkpt lat="44.7822172" lon="9.3940239"><ele>350.0</ele><time>2026-03-27T10:34:54.646Z</time></trkpt><trkpt lat="44.7821261" lon="9.3938535"><ele>350.0</ele><time>2026-03-27T10:34:55.648Z</time></trkpt><trkpt lat="44.7820423" lon="9.3936653"><ele>354.6666666666667</ele><time>2026-03-27T10:34:56.646Z</time></trkpt><trkpt lat="44.7819499" lon="9.3934712"><ele>359.3333333333333</ele><time>2026-03-27T10:34:57.646Z</time></trkpt><trkpt lat="44.781841" lon="9.3932909"><ele>364.0</ele><time>2026-03-27T10:34:58.645Z</time></trkpt><trkpt lat="44.7817193" lon="9.3931429"><ele>361.25</ele><time>2026-03-27T10:34:59.646Z</time></trkpt><trkpt lat="44.7815944" lon="9.3930292"><ele>358.5</ele><time>2026-03-27T10:35:00.647Z</time></trkpt><trkpt lat="44.7814727" lon="9.3929473"><ele>355.75</ele><time>2026-03-27T10:35:01.647Z</time></trkpt><trkpt lat="44.7813568" lon="9.3928909"><ele>353.0</ele><time>2026-03-27T10:35:02.65Z</time></trkpt><trkpt lat="44.781245" lon="9.3928233"><ele>353.0</ele><time>2026-03-27T10:35:03.646Z</time></trkpt><trkpt lat="44.7811433" lon="9.39272"><ele>353.0</ele><time>2026-03-27T10:35:04.647Z</time></trkpt><trkpt lat="44.7810517" lon="9.3925783"><ele>353.0</ele><time>2026-03-27T10:35:05.646Z</time></trkpt><trkpt lat="44.7809567" lon="9.392425"><ele>353.0</ele><time>2026-03-27T10:35:06.646Z</time></trkpt><trkpt lat="44.7808483" lon="9.392285"><ele>353.75</ele><time>2026-03-27T10:35:07.647Z</time></trkpt><trkpt lat="44.7807383" lon="9.3921733"><ele>354.5</ele><time>2026-03-27T10:35:08.648Z</time></trkpt><trkpt lat="44.78063" lon="9.3920683"><ele>355.25</ele><time>2026-03-27T10:35:09.651Z</time></trkpt><trkpt lat="44.780525" lon="9.3919567"><ele>356.0</ele><time>2026-03-27T10:35:10.648Z</time></trkpt><trkpt lat="44.78042" lon="9.3918533"><ele>356.0</ele><time>2026-03-27T10:35:11.646Z</time></trkpt><trkpt lat="44.780315" lon="9.3918"><ele>356.0</ele><time>2026-03-27T10:35:12.646Z</time></trkpt><trkpt lat="44.7802017" lon="9.3918017"><ele>356.0</ele><time>2026-03-27T10:35:13.649Z</time></trkpt><trkpt lat="44.7800733" lon="9.391825"><ele>356.0</ele><time>2026-03-27T10:35:14.647Z</time></trkpt><trkpt lat="44.7799417" lon="9.3918233"><ele>352.0</ele><time>2026-03-27T10:35:15.648Z</time></trkpt><trkpt lat="44.7798117" lon="9.3918117"><ele>348.0</ele><time>2026-03-27T10:35:16.648Z</time></trkpt><trkpt lat="44.7796867" lon="9.3918"><ele>344.0</ele><time>2026-03-27T10:35:17.647Z</time></trkpt><trkpt lat="44.7795667" lon="9.3917883"><ele>340.0</ele><time>2026-03-27T10:35:18.646Z</time></trkpt><trkpt lat="44.7794617" lon="9.391765"><ele>340.0</ele><time>2026-03-27T10:35:19.646Z</time></trkpt><trkpt lat="44.779375" lon="9.3917317"><ele>340.0</ele><time>2026-03-27T10:35:20.649Z</time></trkpt><trkpt lat="44.7792917" lon="9.391685"><ele>340.0</ele><time>2026-03-27T10:35:21.648Z</time></trkpt><trkpt lat="44.7792117" lon="9.3916167"><ele>340.0</ele><time>2026-03-27T10:35:22.646Z</time></trkpt><trkpt lat="44.7791317" lon="9.39153"><ele>340.0</ele><time>2026-03-27T10:35:23.646Z</time></trkpt><trkpt lat="44.7790533" lon="9.3914183"><ele>339.0</ele><time>2026-03-27T10:35:24.646Z</time></trkpt><trkpt lat="44.778975" lon="9.3912883"><ele>338.0</ele><time>2026-03-27T10:35:25.647Z</time></trkpt><trkpt lat="44.7788867" lon="9.3911483"><ele>337.0</ele><time>2026-03-27T10:35:26.648Z</time></trkpt><trkpt lat="44.7787883" lon="9.3910083"><ele>336.0</ele><time>2026-03-27T10:35:27.647Z</time></trkpt><trkpt lat="44.7786883" lon="9.3908817"><ele>336.0</ele><time>2026-03-27T10:35:28.647Z</time></trkpt><trkpt lat="44.7785867" lon="9.39076"><ele>336.0</ele><time>2026-03-27T10:35:29.646Z</time></trkpt><trkpt lat="44.77849" lon="9.3906367"><ele>336.0</ele><time>2026-03-27T10:35:30.646Z</time></trkpt><trkpt lat="44.7784" lon="9.3905117"><ele>336.0</ele><time>2026-03-27T10:35:31.647Z</time></trkpt><trkpt lat="44.7783183" lon="9.3903883"><ele>333.0</ele><time>2026-03-27T10:35:32.647Z</time></trkpt><trkpt lat="44.7782417" lon="9.3902667"><ele>330.0</ele><time>2026-03-27T10:35:33.647Z</time></trkpt><trkpt lat="44.7781867" lon="9.3901383"><ele>327.0</ele><time>2026-03-27T10:35:34.646Z</time></trkpt><trkpt lat="44.778145" lon="9.3900067"><ele>324.0</ele><time>2026-03-27T10:35:35.647Z</time></trkpt><trkpt lat="44.7781267" lon="9.38985"><ele>321.0</ele><time>2026-03-27T10:35:36.651Z</time></trkpt><trkpt lat="44.778125" lon="9.38968"><ele>321.25</ele><time>2026-03-27T10:35:37.646Z</time></trkpt><trkpt lat="44.778135" lon="9.3894983"><ele>321.5</ele><time>2026-03-27T10:35:38.648Z</time></trkpt><trkpt lat="44.77815" lon="9.389305"><ele>321.75</ele><time>2026-03-27T10:35:39.646Z</time></trkpt><trkpt lat="44.7781667" lon="9.38912"><ele>322.0</ele><time>2026-03-27T10:35:40.646Z</time></trkpt><trkpt lat="44.778195" lon="9.3889333"><ele>323.75</ele><time>2026-03-27T10:35:41.646Z</time></trkpt><trkpt lat="44.778215" lon="9.3887533"><ele>325.5</ele><time>2026-03-27T10:35:42.647Z</time></trkpt><trkpt lat="44.778215" lon="9.3885717"><ele>327.25</ele><time>2026-03-27T10:35:43.646Z</time></trkpt><trkpt lat="44.7781833" lon="9.3883967"><ele>329.0</ele><time>2026-03-27T10:35:44.648Z</time></trkpt><trkpt lat="44.7781417" lon="9.3882217"><ele>329.0</ele><time>2026-03-27T10:35:45.646Z</time></trkpt><trkpt lat="44.7780983" lon="9.38805"><ele>329.0</ele><time>2026-03-27T10:35:46.645Z</time></trkpt><trkpt lat="44.7780533" lon="9.3878883"><ele>329.0</ele><time>2026-03-27T10:35:47.647Z</time></trkpt><trkpt lat="44.7780133" lon="9.38773"><ele>329.0</ele><time>2026-03-27T10:35:48.648Z</time></trkpt><trkpt lat="44.77797" lon="9.387565"><ele>330.25</ele><time>2026-03-27T10:35:49.647Z</time></trkpt><trkpt lat="44.777925" lon="9.3874"><ele>331.5</ele><time>2026-03-27T10:35:50.648Z</time></trkpt><trkpt lat="44.7778883" lon="9.387225"><ele>332.75</ele><time>2026-03-27T10:35:51.647Z</time></trkpt><trkpt lat="44.7778517" lon="9.387045"><ele>334.0</ele><time>2026-03-27T10:35:52.649Z</time></trkpt><trkpt lat="44.777815" lon="9.386855"><ele>334.0</ele><time>2026-03-27T10:35:53.649Z</time></trkpt><trkpt lat="44.77776" lon="9.386675"><ele>334.0</ele><time>2026-03-27T10:35:54.647Z</time></trkpt><trkpt lat="44.7776617" lon="9.3865283"><ele>334.0</ele><time>2026-03-27T10:35:55.647Z</time></trkpt><trkpt lat="44.7775483" lon="9.3864"><ele>334.0</ele><time>2026-03-27T10:35:56.646Z</time></trkpt><trkpt lat="44.77743" lon="9.386305"><ele>330.5</ele><time>2026-03-27T10:35:57.646Z</time></trkpt><trkpt lat="44.777315" lon="9.3862383"><ele>327.0</ele><time>2026-03-27T10:35:58.648Z</time></trkpt><trkpt lat="44.7771983" lon="9.3862033"><ele>323.5</ele><time>2026-03-27T10:35:59.647Z</time></trkpt><trkpt lat="44.7770733" lon="9.3861717"><ele>320.0</ele><time>2026-03-27T10:36:00.649Z</time></trkpt><trkpt lat="44.7769367" lon="9.3861467"><ele>317.75</ele><time>2026-03-27T10:36:01.646Z</time></trkpt><trkpt lat="44.776795" lon="9.3861217"><ele>315.5</ele><time>2026-03-27T10:36:02.647Z</time></trkpt><trkpt lat="44.77665" lon="9.3861017"><ele>313.25</ele><time>2026-03-27T10:36:03.647Z</time></trkpt><trkpt lat="44.776505" lon="9.3860883"><ele>311.0</ele><time>2026-03-27T10:36:04.648Z</time></trkpt><trkpt lat="44.77637" lon="9.386075"><ele>311.0</ele><time>2026-03-27T10:36:05.646Z</time></trkpt><trkpt lat="44.7762483" lon="9.3860367"><ele>311.0</ele><time>2026-03-27T10:36:06.651Z</time></trkpt><trkpt lat="44.7761483" lon="9.385945"><ele>311.0</ele><time>2026-03-27T10:36:07.646Z</time></trkpt><trkpt lat="44.7760783" lon="9.3858033"><ele>311.0</ele><time>2026-03-27T10:36:08.647Z</time></trkpt><trkpt lat="44.7760367" lon="9.3856217"><ele>306.5</ele><time>2026-03-27T10:36:09.646Z</time></trkpt><trkpt lat="44.7760067" lon="9.3854267"><ele>302.0</ele><time>2026-03-27T10:36:10.647Z</time></trkpt><trkpt lat="44.7759867" lon="9.3852217"><ele>297.5</ele><time>2026-03-27T10:36:11.647Z</time></trkpt><trkpt lat="44.7759667" lon="9.38503"><ele>293.0</ele><time>2026-03-27T10:36:12.648Z</time></trkpt><trkpt lat="44.7759483" lon="9.3848483"><ele>292.25</ele><time>2026-03-27T10:36:13.647Z</time></trkpt><trkpt lat="44.7759317" lon="9.3846767"><ele>291.5</ele><time>2026-03-27T10:36:14.648Z</time></trkpt><trkpt lat="44.7759133" lon="9.3845067"><ele>290.75</ele><time>2026-03-27T10:36:15.647Z</time></trkpt><trkpt lat="44.7759" lon="9.38434"><ele>290.0</ele><time>2026-03-27T10:36:16.646Z</time></trkpt><trkpt lat="44.7759017" lon="9.3841783"><ele>290.0</ele><time>2026-03-27T10:36:17.648Z</time></trkpt><trkpt lat="44.7759233" lon="9.3840233"><ele>290.0</ele><time>2026-03-27T10:36:18.648Z</time></trkpt><trkpt lat="44.7759667" lon="9.3838833"><ele>290.0</ele><time>2026-03-27T10:36:19.648Z</time></trkpt><trkpt lat="44.7760217" lon="9.38375"><ele>290.0</ele><time>2026-03-27T10:36:20.648Z</time></trkpt><trkpt lat="44.776055" lon="9.3836267"><ele>290.0</ele><time>2026-03-27T10:36:21.648Z</time></trkpt><trkpt lat="44.7760567" lon="9.3835117"><ele>289.83333333333337</ele><time>2026-03-27T10:36:22.647Z</time></trkpt><trkpt lat="44.7760183" lon="9.383435"><ele>289.6666666666667</ele><time>2026-03-27T10:36:23.648Z</time></trkpt><trkpt lat="44.7759567" lon="9.38339"><ele>289.5</ele><time>2026-03-27T10:36:24.648Z</time></trkpt><trkpt lat="44.7758717" lon="9.383435"><ele>289.3333333333333</ele><time>2026-03-27T10:36:25.646Z</time></trkpt><trkpt lat="44.7757983" lon="9.3835133"><ele>289.16666666666663</ele><time>2026-03-27T10:36:26.647Z</time></trkpt><trkpt lat="44.77573" lon="9.3836233"><ele>289.0</ele><time>2026-03-27T10:36:27.648Z</time></trkpt><trkpt lat="44.7756717" lon="9.3837633"><ele>289.25</ele><time>2026-03-27T10:36:28.647Z</time></trkpt><trkpt lat="44.7756133" lon="9.3839183"><ele>289.5</ele><time>2026-03-27T10:36:29.647Z</time></trkpt><trkpt lat="44.7755583" lon="9.3840783"><ele>289.75</ele><time>2026-03-27T10:36:30.647Z</time></trkpt><trkpt lat="44.77551" lon="9.384235"><ele>290.0</ele><time>2026-03-27T10:36:31.647Z</time></trkpt><trkpt lat="44.7754667" lon="9.3843833"><ele>290.0</ele><time>2026-03-27T10:36:32.648Z</time></trkpt><trkpt lat="44.7754267" lon="9.3845267"><ele>290.0</ele><time>2026-03-27T10:36:33.647Z</time></trkpt><trkpt lat="44.775385" lon="9.3846617"><ele>290.0</ele><time>2026-03-27T10:36:34.65Z</time></trkpt><trkpt lat="44.775335" lon="9.3847967"><ele>290.0</ele><time>2026-03-27T10:36:35.648Z</time></trkpt><trkpt lat="44.77527" lon="9.3849317"><ele>290.0</ele><time>2026-03-27T10:36:36.648Z</time></trkpt><trkpt lat="44.775195" lon="9.3850583"><ele>287.8</ele><time>2026-03-27T10:36:37.647Z</time></trkpt><trkpt lat="44.7751117" lon="9.3851783"><ele>285.6</ele><time>2026-03-27T10:36:38.648Z</time></trkpt><trkpt lat="44.7750283" lon="9.3852833"><ele>283.4</ele><time>2026-03-27T10:36:39.647Z</time></trkpt><trkpt lat="44.77495" lon="9.3853867"><ele>281.2</ele><time>2026-03-27T10:36:40.648Z</time></trkpt><trkpt lat="44.774885" lon="9.3855017"><ele>279.0</ele><time>2026-03-27T10:36:41.647Z</time></trkpt><trkpt lat="44.7748367" lon="9.3856333"><ele>279.0</ele><time>2026-03-27T10:36:42.647Z</time></trkpt><trkpt lat="44.7747933" lon="9.385775"><ele>279.0</ele><time>2026-03-27T10:36:43.647Z</time></trkpt><trkpt lat="44.7747483" lon="9.3859183"><ele>279.0</ele><time>2026-03-27T10:36:44.646Z</time></trkpt><trkpt lat="44.7747" lon="9.3860667"><ele>279.0</ele><time>2026-03-27T10:36:45.646Z</time></trkpt><trkpt lat="44.774655" lon="9.3862083"><ele>279.0</ele><time>2026-03-27T10:36:46.646Z</time></trkpt><trkpt lat="44.7746133" lon="9.3863417"><ele>278.6666666666667</ele><time>2026-03-27T10:36:47.647Z</time></trkpt><trkpt lat="44.7745733" lon="9.386465"><ele>278.3333333333333</ele><time>2026-03-27T10:36:48.646Z</time></trkpt><trkpt lat="44.7745383" lon="9.38657"><ele>278.0</ele><time>2026-03-27T10:36:49.647Z</time></trkpt><trkpt lat="44.7745083" lon="9.386655"><ele>277.66666666666663</ele><time>2026-03-27T10:36:50.651Z</time></trkpt><trkpt lat="44.77445" lon="9.38677"><ele>277.3333333333333</ele><time>2026-03-27T10:36:52.646Z</time></trkpt><trkpt lat="44.7743683" lon="9.3868483"><ele>277.0</ele><time>2026-03-27T10:36:54.649Z</time></trkpt><trkpt lat="44.7742583" lon="9.3868533"><ele>274.66666666666663</ele><time>2026-03-27T10:36:56.646Z</time></trkpt><trkpt lat="44.7741933" lon="9.3868433"><ele>272.3333333333333</ele><time>2026-03-27T10:36:57.648Z</time></trkpt><trkpt lat="44.77412" lon="9.3868383"><ele>270.0</ele><time>2026-03-27T10:36:58.646Z</time></trkpt><trkpt lat="44.77404" lon="9.38683"><ele>267.6666666666667</ele><time>2026-03-27T10:36:59.646Z</time></trkpt><trkpt lat="44.7739483" lon="9.3868217"><ele>265.33333333333337</ele><time>2026-03-27T10:37:00.649Z</time></trkpt><trkpt lat="44.7738483" lon="9.38681"><ele>263.0</ele><time>2026-03-27T10:37:01.646Z</time></trkpt><trkpt lat="44.77375" lon="9.3868"><ele>263.0</ele><time>2026-03-27T10:37:02.647Z</time></trkpt><trkpt lat="44.7736483" lon="9.386785"><ele>263.0</ele><time>2026-03-27T10:37:03.648Z</time></trkpt><trkpt lat="44.77355" lon="9.3867667"><ele>263.0</ele><time>2026-03-27T10:37:04.647Z</time></trkpt><trkpt lat="44.7734467" lon="9.386745"><ele>263.0</ele><time>2026-03-27T10:37:05.647Z</time></trkpt><trkpt lat="44.7733467" lon="9.3867217"><ele>263.0</ele><time>2026-03-27T10:37:06.648Z</time></trkpt><trkpt lat="44.7732567" lon="9.3867017"><ele>263.6666666666667</ele><time>2026-03-27T10:37:07.647Z</time></trkpt><trkpt lat="44.77317" lon="9.3866833"><ele>264.33333333333337</ele><time>2026-03-27T10:37:08.646Z</time></trkpt><trkpt lat="44.7730817" lon="9.3866667"><ele>265.0</ele><time>2026-03-27T10:37:09.646Z</time></trkpt><trkpt lat="44.7729967" lon="9.3866467"><ele>265.6666666666667</ele><time>2026-03-27T10:37:10.648Z</time></trkpt><trkpt lat="44.7729033" lon="9.3866267"><ele>266.3333333333333</ele><time>2026-03-27T10:37:11.648Z</time></trkpt><trkpt lat="44.7728167" lon="9.3866083"><ele>267.0</ele><time>2026-03-27T10:37:12.647Z</time></trkpt><trkpt lat="44.7727217" lon="9.386585"><ele>267.8</ele><time>2026-03-27T10:37:13.646Z</time></trkpt><trkpt lat="44.7726333" lon="9.3865667"><ele>268.6</ele><time>2026-03-27T10:37:14.648Z</time></trkpt><trkpt lat="44.7725417" lon="9.3865467"><ele>269.40000000000003</ele><time>2026-03-27T10:37:15.649Z</time></trkpt><trkpt lat="44.7724483" lon="9.386525"><ele>270.2</ele><time>2026-03-27T10:37:16.647Z</time></trkpt><trkpt lat="44.772345" lon="9.386495"><ele>271.0</ele><time>2026-03-27T10:37:17.647Z</time></trkpt><trkpt lat="44.772245" lon="9.386465"><ele>271.0</ele><time>2026-03-27T10:37:18.647Z</time></trkpt><trkpt lat="44.7721433" lon="9.386435"><ele>271.0</ele><time>2026-03-27T10:37:19.646Z</time></trkpt><trkpt lat="44.7720567" lon="9.3864217"><ele>271.0</ele><time>2026-03-27T10:37:20.646Z</time></trkpt><trkpt lat="44.7719717" lon="9.3864"><ele>271.0</ele><time>2026-03-27T10:37:21.648Z</time></trkpt><trkpt lat="44.771895" lon="9.3863783"><ele>271.0</ele><time>2026-03-27T10:37:22.648Z</time></trkpt><trkpt lat="44.77182" lon="9.386355"><ele>271.0</ele><time>2026-03-27T10:37:23.647Z</time></trkpt><trkpt lat="44.7717433" lon="9.38633"><ele>272.3333333333333</ele><time>2026-03-27T10:37:24.647Z</time></trkpt><trkpt lat="44.77167" lon="9.386305"><ele>273.66666666666663</ele><time>2026-03-27T10:37:25.646Z</time></trkpt><trkpt lat="44.771575" lon="9.38629"><ele>275.0</ele><time>2026-03-27T10:37:26.647Z</time></trkpt><trkpt lat="44.7714867" lon="9.3862783"><ele>276.3333333333333</ele><time>2026-03-27T10:37:27.647Z</time></trkpt><trkpt lat="44.7713967" lon="9.38626"><ele>277.6666666666667</ele><time>2026-03-27T10:37:28.647Z</time></trkpt><trkpt lat="44.77131" lon="9.38624"><ele>279.0</ele><time>2026-03-27T10:37:29.65Z</time></trkpt><trkpt lat="44.771225" lon="9.38622"><ele>279.0</ele><time>2026-03-27T10:37:30.647Z</time></trkpt><trkpt lat="44.7711417" lon="9.3861917"><ele>279.0</ele><time>2026-03-27T10:37:31.647Z</time></trkpt><trkpt lat="44.771055" lon="9.3861733"><ele>279.0</ele><time>2026-03-27T10:37:32.647Z</time></trkpt><trkpt lat="44.7709733" lon="9.3861533"><ele>279.0</ele><time>2026-03-27T10:37:33.647Z</time></trkpt><trkpt lat="44.7708917" lon="9.386135"><ele>279.0</ele><time>2026-03-27T10:37:34.649Z</time></trkpt><trkpt lat="44.7708217" lon="9.3861183"><ele>279.0</ele><time>2026-03-27T10:37:35.647Z</time></trkpt><trkpt lat="44.7707483" lon="9.3861017"><ele>279.8333333333333</ele><time>2026-03-27T10:37:36.646Z</time></trkpt><trkpt lat="44.77067" lon="9.3860833"><ele>280.6666666666667</ele><time>2026-03-27T10:37:37.647Z</time></trkpt><trkpt lat="44.7705933" lon="9.3860667"><ele>281.5</ele><time>2026-03-27T10:37:38.65Z</time></trkpt><trkpt lat="44.7705167" lon="9.3860483"><ele>282.33333333333337</ele><time>2026-03-27T10:37:39.649Z</time></trkpt><trkpt lat="44.770385" lon="9.386015"><ele>283.1666666666667</ele><time>2026-03-27T10:37:41.649Z</time></trkpt><trkpt lat="44.770315" lon="9.3860067"><ele>284.0</ele><time>2026-03-27T10:37:42.647Z</time></trkpt><trkpt lat="44.7702417" lon="9.3860033"><ele>284.0</ele><time>2026-03-27T10:37:43.649Z</time></trkpt><trkpt lat="44.7701617" lon="9.38601"><ele>284.0</ele><time>2026-03-27T10:37:44.646Z</time></trkpt><trkpt lat="44.7700867" lon="9.38602"><ele>284.0</ele><time>2026-03-27T10:37:45.649Z</time></trkpt><trkpt lat="44.7700133" lon="9.3860383"><ele>284.0</ele><time>2026-03-27T10:37:46.647Z</time></trkpt><trkpt lat="44.76994" lon="9.3860583"><ele>284.0</ele><time>2026-03-27T10:37:47.648Z</time></trkpt><trkpt lat="44.7698683" lon="9.38608"><ele>284.0</ele><time>2026-03-27T10:37:48.648Z</time></trkpt><trkpt lat="44.7697967" lon="9.3861017"><ele>284.0</ele><time>2026-03-27T10:37:49.648Z</time></trkpt><trkpt lat="44.76972" lon="9.38613"><ele>284.0</ele><time>2026-03-27T10:37:50.648Z</time></trkpt><trkpt lat="44.7696467" lon="9.3861633"><ele>284.0</ele><time>2026-03-27T10:37:51.647Z</time></trkpt><trkpt lat="44.7695733" lon="9.3862083"><ele>284.0</ele><time>2026-03-27T10:37:52.647Z</time></trkpt><trkpt lat="44.769495" lon="9.38626"><ele>284.0</ele><time>2026-03-27T10:37:53.646Z</time></trkpt><trkpt lat="44.7694217" lon="9.3863283"><ele>284.0</ele><time>2026-03-27T10:37:54.648Z</time></trkpt><trkpt lat="44.7693533" lon="9.38641"><ele>283.5</ele><time>2026-03-27T10:37:55.649Z</time></trkpt><trkpt lat="44.7692983" lon="9.3864967"><ele>283.0</ele><time>2026-03-27T10:37:56.648Z</time></trkpt><trkpt lat="44.7692533" lon="9.386585"><ele>282.5</ele><time>2026-03-27T10:37:57.651Z</time></trkpt><trkpt lat="44.7692183" lon="9.3866717"><ele>282.0</ele><time>2026-03-27T10:37:58.646Z</time></trkpt><trkpt lat="44.7691867" lon="9.3867517"><ele>281.5</ele><time>2026-03-27T10:37:59.647Z</time></trkpt><trkpt lat="44.76914" lon="9.3869133"><ele>281.0</ele><time>2026-03-27T10:38:01.648Z</time></trkpt><trkpt lat="44.7691117" lon="9.387"><ele>281.0</ele><time>2026-03-27T10:38:02.648Z</time></trkpt><trkpt lat="44.7690867" lon="9.3870967"><ele>281.0</ele><time>2026-03-27T10:38:03.647Z</time></trkpt><trkpt lat="44.76906" lon="9.3871933"><ele>281.0</ele><time>2026-03-27T10:38:04.647Z</time></trkpt><trkpt lat="44.7690383" lon="9.3872833"><ele>281.0</ele><time>2026-03-27T10:38:05.646Z</time></trkpt><trkpt lat="44.7690083" lon="9.387365"><ele>281.0</ele><time>2026-03-27T10:38:06.647Z</time></trkpt><trkpt lat="44.768915" lon="9.3874683"><ele>281.0</ele><time>2026-03-27T10:38:08.647Z</time></trkpt><trkpt lat="44.7688517" lon="9.3874933"><ele>280.0</ele><time>2026-03-27T10:38:09.646Z</time></trkpt><trkpt lat="44.768775" lon="9.3874967"><ele>279.0</ele><time>2026-03-27T10:38:10.648Z</time></trkpt><trkpt lat="44.7686867" lon="9.3874933"><ele>278.0</ele><time>2026-03-27T10:38:11.646Z</time></trkpt><trkpt lat="44.7685933" lon="9.3874967"><ele>277.0</ele><time>2026-03-27T10:38:12.648Z</time></trkpt><trkpt lat="44.7684983" lon="9.3874967"><ele>276.0</ele><time>2026-03-27T10:38:13.647Z</time></trkpt><trkpt lat="44.768405" lon="9.3875033"><ele>275.0</ele><time>2026-03-27T10:38:14.646Z</time></trkpt><trkpt lat="44.7683133" lon="9.38752"><ele>275.0</ele><time>2026-03-27T10:38:15.646Z</time></trkpt><trkpt lat="44.768225" lon="9.3875417"><ele>275.0</ele><time>2026-03-27T10:38:16.646Z</time></trkpt><trkpt lat="44.7681433" lon="9.3875683"><ele>275.0</ele><time>2026-03-27T10:38:17.65Z</time></trkpt><trkpt lat="44.7680633" lon="9.3876017"><ele>275.0</ele><time>2026-03-27T10:38:18.647Z</time></trkpt><trkpt lat="44.7679867" lon="9.387645"><ele>275.0</ele><time>2026-03-27T10:38:19.648Z</time></trkpt><trkpt lat="44.767905" lon="9.3876917"><ele>275.0</ele><time>2026-03-27T10:38:20.647Z</time></trkpt><trkpt lat="44.7678267" lon="9.3877433"><ele>275.0</ele><time>2026-03-27T10:38:21.646Z</time></trkpt><trkpt lat="44.7677517" lon="9.3878117"><ele>275.0</ele><time>2026-03-27T10:38:22.647Z</time></trkpt><trkpt lat="44.76768" lon="9.3879017"><ele>275.0</ele><time>2026-03-27T10:38:23.647Z</time></trkpt><trkpt lat="44.7676133" lon="9.3880083"><ele>275.0</ele><time>2026-03-27T10:38:24.647Z</time></trkpt><trkpt lat="44.7675467" lon="9.3881167"><ele>275.0</ele><time>2026-03-27T10:38:25.646Z</time></trkpt><trkpt lat="44.7674833" lon="9.388215"><ele>274.1666666666667</ele><time>2026-03-27T10:38:26.648Z</time></trkpt><trkpt lat="44.7674183" lon="9.3883033"><ele>273.33333333333337</ele><time>2026-03-27T10:38:27.646Z</time></trkpt><trkpt lat="44.7673583" lon="9.38839"><ele>272.5</ele><time>2026-03-27T10:38:28.646Z</time></trkpt><trkpt lat="44.7673" lon="9.3884683"><ele>271.6666666666667</ele><time>2026-03-27T10:38:29.647Z</time></trkpt><trkpt lat="44.7672367" lon="9.3885333"><ele>270.8333333333333</ele><time>2026-03-27T10:38:30.651Z</time></trkpt><trkpt lat="44.7671683" lon="9.3885733"><ele>270.0</ele><time>2026-03-27T10:38:31.647Z</time></trkpt><trkpt lat="44.7670883" lon="9.3885833"><ele>270.0</ele><time>2026-03-27T10:38:32.647Z</time></trkpt><trkpt lat="44.76699" lon="9.388565"><ele>270.0</ele><time>2026-03-27T10:38:33.646Z</time></trkpt><trkpt lat="44.766885" lon="9.38851"><ele>270.0</ele><time>2026-03-27T10:38:34.645Z</time></trkpt><trkpt lat="44.766785" lon="9.3884617"><ele>270.0</ele><time>2026-03-27T10:38:35.652Z</time></trkpt><trkpt lat="44.7666833" lon="9.3884167"><ele>270.0</ele><time>2026-03-27T10:38:36.647Z</time></trkpt><trkpt lat="44.7665817" lon="9.3883783"><ele>270.2</ele><time>2026-03-27T10:38:37.646Z</time></trkpt><trkpt lat="44.7664767" lon="9.38834"><ele>270.4</ele><time>2026-03-27T10:38:38.647Z</time></trkpt><trkpt lat="44.766375" lon="9.3882983"><ele>270.6</ele><time>2026-03-27T10:38:39.646Z</time></trkpt><trkpt lat="44.7662817" lon="9.38825"><ele>270.8</ele><time>2026-03-27T10:38:40.648Z</time></trkpt><trkpt lat="44.76621" lon="9.38818"><ele>271.0</ele><time>2026-03-27T10:38:41.646Z</time></trkpt><trkpt lat="44.7661567" lon="9.38806"><ele>273.25</ele><time>2026-03-27T10:38:42.646Z</time></trkpt><trkpt lat="44.766125" lon="9.38791"><ele>275.5</ele><time>2026-03-27T10:38:43.646Z</time></trkpt><trkpt lat="44.7661083" lon="9.3877533"><ele>277.75</ele><time>2026-03-27T10:38:44.646Z</time></trkpt><trkpt lat="44.7660917" lon="9.3875917"><ele>280.0</ele><time>2026-03-27T10:38:45.646Z</time></trkpt><trkpt lat="44.7660833" lon="9.38743"><ele>280.0</ele><time>2026-03-27T10:38:46.647Z</time></trkpt><trkpt lat="44.7660867" lon="9.3872733"><ele>280.0</ele><time>2026-03-27T10:38:47.648Z</time></trkpt><trkpt lat="44.7660867" lon="9.3871267"><ele>280.0</ele><time>2026-03-27T10:38:48.647Z</time></trkpt><trkpt lat="44.7660867" lon="9.38698"><ele>280.0</ele><time>2026-03-27T10:38:49.647Z</time></trkpt><trkpt lat="44.7660717" lon="9.38685"><ele>280.0</ele><time>2026-03-27T10:38:50.648Z</time></trkpt><trkpt lat="44.7660433" lon="9.386735"><ele>278.3333333333333</ele><time>2026-03-27T10:38:51.647Z</time></trkpt><trkpt lat="44.766005" lon="9.3866433"><ele>276.66666666666663</ele><time>2026-03-27T10:38:52.652Z</time></trkpt><trkpt lat="44.76595" lon="9.3865667"><ele>275.0</ele><time>2026-03-27T10:38:53.646Z</time></trkpt><trkpt lat="44.7658917" lon="9.3865117"><ele>273.3333333333333</ele><time>2026-03-27T10:38:54.649Z</time></trkpt><trkpt lat="44.7658183" lon="9.3864683"><ele>271.6666666666667</ele><time>2026-03-27T10:38:55.646Z</time></trkpt><trkpt lat="44.765735" lon="9.3864317"><ele>270.0</ele><time>2026-03-27T10:38:56.646Z</time></trkpt><trkpt lat="44.7656533" lon="9.386405"><ele>270.0</ele><time>2026-03-27T10:38:57.647Z</time></trkpt><trkpt lat="44.7655767" lon="9.38638"><ele>270.0</ele><time>2026-03-27T10:38:58.647Z</time></trkpt><trkpt lat="44.7655017" lon="9.3863583"><ele>270.0</ele><time>2026-03-27T10:38:59.648Z</time></trkpt><trkpt lat="44.765425" lon="9.3863367"><ele>270.0</ele><time>2026-03-27T10:39:00.646Z</time></trkpt><trkpt lat="44.76535" lon="9.386315"><ele>270.0</ele><time>2026-03-27T10:39:01.646Z</time></trkpt><trkpt lat="44.76527" lon="9.3862917"><ele>270.0</ele><time>2026-03-27T10:39:02.648Z</time></trkpt><trkpt lat="44.7651867" lon="9.3862667"><ele>269.8333333333333</ele><time>2026-03-27T10:39:03.647Z</time></trkpt><trkpt lat="44.7651033" lon="9.3862383"><ele>269.6666666666667</ele><time>2026-03-27T10:39:04.646Z</time></trkpt><trkpt lat="44.7650217" lon="9.3862083"><ele>269.5</ele><time>2026-03-27T10:39:05.646Z</time></trkpt><trkpt lat="44.764935" lon="9.3861833"><ele>269.33333333333337</ele><time>2026-03-27T10:39:06.646Z</time></trkpt><trkpt lat="44.76485" lon="9.3861533"><ele>269.1666666666667</ele><time>2026-03-27T10:39:07.646Z</time></trkpt><trkpt lat="44.7647567" lon="9.386125"><ele>269.0</ele><time>2026-03-27T10:39:08.65Z</time></trkpt><trkpt lat="44.7646633" lon="9.3860967"><ele>269.0</ele><time>2026-03-27T10:39:09.649Z</time></trkpt><trkpt lat="44.7645733" lon="9.38607"><ele>269.0</ele><time>2026-03-27T10:39:10.646Z</time></trkpt><trkpt lat="44.764485" lon="9.3860417"><ele>269.0</ele><time>2026-03-27T10:39:11.646Z</time></trkpt><trkpt lat="44.7643983" lon="9.3860067"><ele>269.0</ele><time>2026-03-27T10:39:12.646Z</time></trkpt><trkpt lat="44.7643217" lon="9.3859717"><ele>269.0</ele><time>2026-03-27T10:39:13.647Z</time></trkpt><trkpt lat="44.7642533" lon="9.385935"><ele>269.0</ele><time>2026-03-27T10:39:14.646Z</time></trkpt><trkpt lat="44.7641917" lon="9.38589"><ele>268.5</ele><time>2026-03-27T10:39:15.648Z</time></trkpt><trkpt lat="44.76414" lon="9.3858367"><ele>268.0</ele><time>2026-03-27T10:39:16.647Z</time></trkpt><trkpt lat="44.7640667" lon="9.3857483"><ele>267.5</ele><time>2026-03-27T10:39:18.647Z</time></trkpt><trkpt lat="44.7640317" lon="9.3856717"><ele>267.0</ele><time>2026-03-27T10:40:26.647Z</time></trkpt><trkpt lat="44.7639617" lon="9.38558"><ele>266.5</ele><time>2026-03-27T10:40:28.647Z</time></trkpt><trkpt lat="44.76392" lon="9.3854967"><ele>266.0</ele><time>2026-03-27T10:40:29.648Z</time></trkpt><trkpt lat="44.7638667" lon="9.385375"><ele>269.75</ele><time>2026-03-27T10:40:30.647Z</time></trkpt><trkpt lat="44.7638017" lon="9.385225"><ele>273.5</ele><time>2026-03-27T10:40:31.647Z</time></trkpt><trkpt lat="44.763725" lon="9.385065"><ele>277.25</ele><time>2026-03-27T10:40:32.647Z</time></trkpt><trkpt lat="44.7636433" lon="9.38489"><ele>281.0</ele><time>2026-03-27T10:40:33.646Z</time></trkpt><trkpt lat="44.7635617" lon="9.3847067"><ele>276.6666666666667</ele><time>2026-03-27T10:40:34.646Z</time></trkpt><trkpt lat="44.7634667" lon="9.3845133"><ele>272.3333333333333</ele><time>2026-03-27T10:40:35.646Z</time></trkpt><trkpt lat="44.7633667" lon="9.3843067"><ele>268.0</ele><time>2026-03-27T10:40:36.648Z</time></trkpt><trkpt lat="44.76325" lon="9.3841033"><ele>268.0</ele><time>2026-03-27T10:40:37.65Z</time></trkpt><trkpt lat="44.7631283" lon="9.3839017"><ele>268.0</ele><time>2026-03-27T10:40:38.647Z</time></trkpt><trkpt lat="44.7629933" lon="9.3837133"><ele>268.0</ele><time>2026-03-27T10:40:39.646Z</time></trkpt><trkpt lat="44.762845" lon="9.3835317"><ele>266.3333333333333</ele><time>2026-03-27T10:40:40.647Z</time></trkpt><trkpt lat="44.7626867" lon="9.38337"><ele>264.6666666666667</ele><time>2026-03-27T10:40:41.647Z</time></trkpt><trkpt lat="44.76253" lon="9.38324"><ele>263.0</ele><time>2026-03-27T10:40:42.648Z</time></trkpt><trkpt lat="44.7623783" lon="9.3831317"><ele>263.0</ele><time>2026-03-27T10:40:43.652Z</time></trkpt><trkpt lat="44.7622333" lon="9.383035"><ele>263.0</ele><time>2026-03-27T10:40:44.647Z</time></trkpt><trkpt lat="44.7620967" lon="9.3829433"><ele>263.0</ele><time>2026-03-27T10:40:45.647Z</time></trkpt><trkpt lat="44.7619633" lon="9.3828533"><ele>263.0</ele><time>2026-03-27T10:40:46.646Z</time></trkpt><trkpt lat="44.7618283" lon="9.382765"><ele>263.0</ele><time>2026-03-27T10:40:47.647Z</time></trkpt><trkpt lat="44.7616933" lon="9.3826733"><ele>263.0</ele><time>2026-03-27T10:40:48.648Z</time></trkpt><trkpt lat="44.7615567" lon="9.3825783"><ele>263.0</ele><time>2026-03-27T10:40:49.647Z</time></trkpt><trkpt lat="44.76142" lon="9.3824817"><ele>263.0</ele><time>2026-03-27T10:40:50.647Z</time></trkpt><trkpt lat="44.7612833" lon="9.3823833"><ele>263.0</ele><time>2026-03-27T10:40:51.647Z</time></trkpt><trkpt lat="44.7611383" lon="9.3822933"><ele>262.0</ele><time>2026-03-27T10:40:52.647Z</time></trkpt><trkpt lat="44.7609933" lon="9.3822"><ele>261.0</ele><time>2026-03-27T10:40:53.647Z</time></trkpt><trkpt lat="44.7608483" lon="9.3821017"><ele>260.0</ele><time>2026-03-27T10:40:54.647Z</time></trkpt><trkpt lat="44.7606967" lon="9.382005"><ele>262.6666666666667</ele><time>2026-03-27T10:40:55.647Z</time></trkpt><trkpt lat="44.76054" lon="9.38191"><ele>265.3333333333333</ele><time>2026-03-27T10:40:56.647Z</time></trkpt><trkpt lat="44.760385" lon="9.3818117"><ele>268.0</ele><time>2026-03-27T10:40:57.647Z</time></trkpt><trkpt lat="44.760225" lon="9.3817333"><ele>267.3333333333333</ele><time>2026-03-27T10:40:58.646Z</time></trkpt><trkpt lat="44.760065" lon="9.381665"><ele>266.6666666666667</ele><time>2026-03-27T10:40:59.646Z</time></trkpt><trkpt lat="44.7598983" lon="9.3816233"><ele>266.0</ele><time>2026-03-27T10:41:00.646Z</time></trkpt><trkpt lat="44.7597267" lon="9.38161"><ele>266.0</ele><time>2026-03-27T10:41:01.648Z</time></trkpt><trkpt lat="44.75955" lon="9.3816267"><ele>266.0</ele><time>2026-03-27T10:41:02.648Z</time></trkpt><trkpt lat="44.7593667" lon="9.3816533"><ele>266.0</ele><time>2026-03-27T10:41:03.646Z</time></trkpt><trkpt lat="44.7591833" lon="9.3816833"><ele>266.0</ele><time>2026-03-27T10:41:04.647Z</time></trkpt><trkpt lat="44.759" lon="9.381715"><ele>266.0</ele><time>2026-03-27T10:41:05.646Z</time></trkpt><trkpt lat="44.7588167" lon="9.381745"><ele>266.0</ele><time>2026-03-27T10:41:06.647Z</time></trkpt><trkpt lat="44.7586333" lon="9.381775"><ele>266.33333333333337</ele><time>2026-03-27T10:41:07.65Z</time></trkpt><trkpt lat="44.7584483" lon="9.381805"><ele>266.6666666666667</ele><time>2026-03-27T10:41:08.647Z</time></trkpt><trkpt lat="44.7582617" lon="9.3818383"><ele>267.0</ele><time>2026-03-27T10:41:09.646Z</time></trkpt><trkpt lat="44.75807" lon="9.381875"><ele>267.0</ele><time>2026-03-27T10:41:10.647Z</time></trkpt><trkpt lat="44.757875" lon="9.3819083"><ele>267.0</ele><time>2026-03-27T10:41:11.647Z</time></trkpt><trkpt lat="44.7576833" lon="9.3819433"><ele>267.0</ele><time>2026-03-27T10:41:12.648Z</time></trkpt><trkpt lat="44.75749" lon="9.3819767"><ele>267.6666666666667</ele><time>2026-03-27T10:41:13.648Z</time></trkpt><trkpt lat="44.757295" lon="9.382005"><ele>268.33333333333337</ele><time>2026-03-27T10:41:14.65Z</time></trkpt><trkpt lat="44.7570983" lon="9.38203"><ele>269.0</ele><time>2026-03-27T10:41:15.646Z</time></trkpt><trkpt lat="44.7569017" lon="9.3820467"><ele>269.6666666666667</ele><time>2026-03-27T10:41:16.648Z</time></trkpt><trkpt lat="44.7567033" lon="9.38205"><ele>270.3333333333333</ele><time>2026-03-27T10:41:17.648Z</time></trkpt><trkpt lat="44.7565" lon="9.38202"><ele>271.0</ele><time>2026-03-27T10:41:18.648Z</time></trkpt><trkpt lat="44.7562933" lon="9.3819433"><ele>271.0</ele><time>2026-03-27T10:41:19.648Z</time></trkpt><trkpt lat="44.7560833" lon="9.3818317"><ele>271.0</ele><time>2026-03-27T10:41:20.649Z</time></trkpt><trkpt lat="44.7558767" lon="9.3816867"><ele>270.5</ele><time>2026-03-27T10:41:21.648Z</time></trkpt><trkpt lat="44.7556733" lon="9.3815133"><ele>270.0</ele><time>2026-03-27T10:41:22.649Z</time></trkpt><trkpt lat="44.7554717" lon="9.3813317"><ele>270.5</ele><time>2026-03-27T10:41:23.649Z</time></trkpt><trkpt lat="44.7552683" lon="9.3811517"><ele>271.0</ele><time>2026-03-27T10:41:24.649Z</time></trkpt><trkpt lat="44.7550683" lon="9.380975"><ele>271.0</ele><time>2026-03-27T10:41:25.648Z</time></trkpt><trkpt lat="44.7548717" lon="9.380795"><ele>271.0</ele><time>2026-03-27T10:41:26.647Z</time></trkpt><trkpt lat="44.7546733" lon="9.38061"><ele>271.0</ele><time>2026-03-27T10:41:27.647Z</time></trkpt><trkpt lat="44.754475" lon="9.3804283"><ele>271.0</ele><time>2026-03-27T10:41:28.647Z</time></trkpt><trkpt lat="44.75428" lon="9.3802517"><ele>271.0</ele><time>2026-03-27T10:41:29.648Z</time></trkpt><trkpt lat="44.7540817" lon="9.3800933"><ele>271.0</ele><time>2026-03-27T10:41:30.646Z</time></trkpt><trkpt lat="44.7538733" lon="9.3799733"><ele>271.0</ele><time>2026-03-27T10:41:31.65Z</time></trkpt><trkpt lat="44.7536583" lon="9.3798983"><ele>271.0</ele><time>2026-03-27T10:41:32.648Z</time></trkpt><trkpt lat="44.7534367" lon="9.3798583"><ele>271.0</ele><time>2026-03-27T10:41:33.646Z</time></trkpt><trkpt lat="44.7532133" lon="9.3798367"><ele>268.66666666666663</ele><time>2026-03-27T10:41:34.648Z</time></trkpt><trkpt lat="44.7529917" lon="9.3798217"><ele>266.3333333333333</ele><time>2026-03-27T10:41:35.648Z</time></trkpt><trkpt lat="44.75277" lon="9.3798083"><ele>264.0</ele><time>2026-03-27T10:41:36.646Z</time></trkpt><trkpt lat="44.7525517" lon="9.3797917"><ele>263.3333333333333</ele><time>2026-03-27T10:41:37.647Z</time></trkpt><trkpt lat="44.7523333" lon="9.37977"><ele>262.66666666666663</ele><time>2026-03-27T10:41:38.649Z</time></trkpt><trkpt lat="44.7521133" lon="9.37975"><ele>262.0</ele><time>2026-03-27T10:41:39.648Z</time></trkpt><trkpt lat="44.7518967" lon="9.3797317"><ele>262.66666666666663</ele><time>2026-03-27T10:41:40.647Z</time></trkpt><trkpt lat="44.75168" lon="9.3797117"><ele>263.3333333333333</ele><time>2026-03-27T10:41:41.646Z</time></trkpt><trkpt lat="44.75146" lon="9.379695"><ele>264.0</ele><time>2026-03-27T10:41:42.646Z</time></trkpt><trkpt lat="44.7512433" lon="9.3796767"><ele>265.0</ele><time>2026-03-27T10:41:43.648Z</time></trkpt><trkpt lat="44.7510233" lon="9.37966"><ele>266.0</ele><time>2026-03-27T10:41:44.648Z</time></trkpt><trkpt lat="44.7508033" lon="9.3796417"><ele>267.0</ele><time>2026-03-27T10:41:45.649Z</time></trkpt><trkpt lat="44.7505867" lon="9.3796267"><ele>267.0</ele><time>2026-03-27T10:41:46.649Z</time></trkpt><trkpt lat="44.7503717" lon="9.3796283"><ele>267.0</ele><time>2026-03-27T10:41:47.649Z</time></trkpt><trkpt lat="44.7501567" lon="9.3796567"><ele>267.0</ele><time>2026-03-27T10:41:48.649Z</time></trkpt><trkpt lat="44.7499467" lon="9.3797233"><ele>268.0</ele><time>2026-03-27T10:41:49.648Z</time></trkpt><trkpt lat="44.749745" lon="9.3798283"><ele>269.0</ele><time>2026-03-27T10:41:50.647Z</time></trkpt><trkpt lat="44.7495567" lon="9.3799717"><ele>270.0</ele><time>2026-03-27T10:41:51.648Z</time></trkpt><trkpt lat="44.7493733" lon="9.3801483"><ele>272.0</ele><time>2026-03-27T10:41:52.647Z</time></trkpt><trkpt lat="44.74921" lon="9.3803633"><ele>274.0</ele><time>2026-03-27T10:41:53.649Z</time></trkpt><trkpt lat="44.7490733" lon="9.3806017"><ele>276.0</ele><time>2026-03-27T10:41:54.647Z</time></trkpt><trkpt lat="44.748945" lon="9.3808483"><ele>280.5</ele><time>2026-03-27T10:41:55.647Z</time></trkpt><trkpt lat="44.74883" lon="9.3811317"><ele>285.0</ele><time>2026-03-27T10:41:56.647Z</time></trkpt><trkpt lat="44.74875" lon="9.3814333"><ele>292.0</ele><time>2026-03-27T10:41:57.647Z</time></trkpt><trkpt lat="44.7487067" lon="9.3817433"><ele>299.0</ele><time>2026-03-27T10:41:58.648Z</time></trkpt><trkpt lat="44.7486983" lon="9.3820783"><ele>302.5</ele><time>2026-03-27T10:41:59.649Z</time></trkpt><trkpt lat="44.7487233" lon="9.3824167"><ele>306.0</ele><time>2026-03-27T10:42:00.648Z</time></trkpt><trkpt lat="44.7487767" lon="9.3827583"><ele>306.5</ele><time>2026-03-27T10:42:01.646Z</time></trkpt><trkpt lat="44.7488383" lon="9.383095"><ele>307.0</ele><time>2026-03-27T10:42:02.647Z</time></trkpt><trkpt lat="44.748895" lon="9.3834267"><ele>307.0</ele><time>2026-03-27T10:42:03.647Z</time></trkpt><trkpt lat="44.7489417" lon="9.3837633"><ele>307.0</ele><time>2026-03-27T10:42:04.65Z</time></trkpt><trkpt lat="44.7489717" lon="9.3840883"><ele>308.0</ele><time>2026-03-27T10:42:05.647Z</time></trkpt><trkpt lat="44.7489833" lon="9.3844217"><ele>309.0</ele><time>2026-03-27T10:42:06.647Z</time></trkpt><trkpt lat="44.7489867" lon="9.3847483"><ele>309.0</ele><time>2026-03-27T10:42:07.646Z</time></trkpt><trkpt lat="44.7489917" lon="9.3850667"><ele>309.0</ele><time>2026-03-27T10:42:08.647Z</time></trkpt><trkpt lat="44.7489933" lon="9.38538"><ele>309.0</ele><time>2026-03-27T10:42:09.648Z</time></trkpt><trkpt lat="44.7489917" lon="9.3856833"><ele>311.6666666666667</ele><time>2026-03-27T10:42:10.646Z</time></trkpt><trkpt lat="44.7489783" lon="9.3859917"><ele>314.33333333333337</ele><time>2026-03-27T10:42:11.646Z</time></trkpt><trkpt lat="44.748955" lon="9.3862933"><ele>317.0</ele><time>2026-03-27T10:42:12.647Z</time></trkpt><trkpt lat="44.7489167" lon="9.3865933"><ele>321.6666666666667</ele><time>2026-03-27T10:42:13.646Z</time></trkpt><trkpt lat="44.7488733" lon="9.3868917"><ele>326.3333333333333</ele><time>2026-03-27T10:42:14.647Z</time></trkpt><trkpt lat="44.7488117" lon="9.3871783"><ele>331.0</ele><time>2026-03-27T10:42:15.648Z</time></trkpt><trkpt lat="44.7487417" lon="9.3874567"><ele>336.3333333333333</ele><time>2026-03-27T10:42:16.649Z</time></trkpt><trkpt lat="44.7486483" lon="9.3877383"><ele>341.6666666666667</ele><time>2026-03-27T10:42:17.646Z</time></trkpt><trkpt lat="44.7485417" lon="9.3879983"><ele>347.0</ele><time>2026-03-27T10:42:18.646Z</time></trkpt><trkpt lat="44.748435" lon="9.3882583"><ele>343.6666666666667</ele><time>2026-03-27T10:42:19.649Z</time></trkpt><trkpt lat="44.7483217" lon="9.3885133"><ele>340.3333333333333</ele><time>2026-03-27T10:42:20.647Z</time></trkpt><trkpt lat="44.7482083" lon="9.388765"><ele>337.0</ele><time>2026-03-27T10:42:21.648Z</time></trkpt><trkpt lat="44.74809" lon="9.389015"><ele>337.0</ele><time>2026-03-27T10:42:22.647Z</time></trkpt><trkpt lat="44.7479617" lon="9.38925"><ele>337.0</ele><time>2026-03-27T10:42:23.649Z</time></trkpt><trkpt lat="44.7478183" lon="9.389465"><ele>337.0</ele><time>2026-03-27T10:42:24.647Z</time></trkpt><trkpt lat="44.747655" lon="9.3896467"><ele>332.66666666666663</ele><time>2026-03-27T10:42:25.646Z</time></trkpt><trkpt lat="44.74748" lon="9.3898083"><ele>328.3333333333333</ele><time>2026-03-27T10:42:26.648Z</time></trkpt><trkpt lat="44.7472983" lon="9.3899383"><ele>324.0</ele><time>2026-03-27T10:42:27.647Z</time></trkpt><trkpt lat="44.7471033" lon="9.3900333"><ele>324.0</ele><time>2026-03-27T10:42:28.647Z</time></trkpt><trkpt lat="44.7468967" lon="9.3900933"><ele>324.0</ele><time>2026-03-27T10:42:29.654Z</time></trkpt><trkpt lat="44.7466867" lon="9.3901183"><ele>324.0</ele><time>2026-03-27T10:42:30.648Z</time></trkpt><trkpt lat="44.74648" lon="9.3901167"><ele>323.3333333333333</ele><time>2026-03-27T10:42:31.647Z</time></trkpt><trkpt lat="44.746275" lon="9.3900833"><ele>322.66666666666663</ele><time>2026-03-27T10:42:32.647Z</time></trkpt><trkpt lat="44.746075" lon="9.3900233"><ele>322.0</ele><time>2026-03-27T10:42:33.647Z</time></trkpt><trkpt lat="44.7458783" lon="9.38994"><ele>322.0</ele><time>2026-03-27T10:42:34.648Z</time></trkpt><trkpt lat="44.7456867" lon="9.3898367"><ele>322.0</ele><time>2026-03-27T10:42:35.648Z</time></trkpt><trkpt lat="44.7454983" lon="9.3897183"><ele>322.0</ele><time>2026-03-27T10:42:36.647Z</time></trkpt><trkpt lat="44.7453133" lon="9.3895767"><ele>319.3333333333333</ele><time>2026-03-27T10:42:37.648Z</time></trkpt><trkpt lat="44.7451283" lon="9.3894267"><ele>316.6666666666667</ele><time>2026-03-27T10:42:38.648Z</time></trkpt><trkpt lat="44.7449317" lon="9.3892783"><ele>314.0</ele><time>2026-03-27T10:42:39.648Z</time></trkpt><trkpt lat="44.7447267" lon="9.3891483"><ele>314.0</ele><time>2026-03-27T10:42:40.646Z</time></trkpt><trkpt lat="44.7445133" lon="9.38905"><ele>314.0</ele><time>2026-03-27T10:42:41.646Z</time></trkpt><trkpt lat="44.744295" lon="9.3889917"><ele>314.0</ele><time>2026-03-27T10:42:42.648Z</time></trkpt><trkpt lat="44.7440833" lon="9.3889783"><ele>319.33333333333337</ele><time>2026-03-27T10:42:43.646Z</time></trkpt><trkpt lat="44.7438867" lon="9.38899"><ele>324.6666666666667</ele><time>2026-03-27T10:42:44.648Z</time></trkpt><trkpt lat="44.74371" lon="9.3890017"><ele>330.0</ele><time>2026-03-27T10:42:45.647Z</time></trkpt><trkpt lat="44.7435467" lon="9.3889933"><ele>334.25</ele><time>2026-03-27T10:42:46.649Z</time></trkpt><trkpt lat="44.7433933" lon="9.388975"><ele>338.5</ele><time>2026-03-27T10:42:47.651Z</time></trkpt><trkpt lat="44.7432583" lon="9.3889467"><ele>342.75</ele><time>2026-03-27T10:42:48.647Z</time></trkpt><trkpt lat="44.7431483" lon="9.38891"><ele>347.0</ele><time>2026-03-27T10:42:49.646Z</time></trkpt><trkpt lat="44.7430567" lon="9.3888733"><ele>344.6666666666667</ele><time>2026-03-27T10:42:50.648Z</time></trkpt><trkpt lat="44.74298" lon="9.3888333"><ele>342.33333333333337</ele><time>2026-03-27T10:42:51.648Z</time></trkpt><trkpt lat="44.7429133" lon="9.3887917"><ele>340.0</ele><time>2026-03-27T10:42:52.649Z</time></trkpt><trkpt lat="44.742855" lon="9.3887567"><ele>337.6666666666667</ele><time>2026-03-27T10:42:53.649Z</time></trkpt><trkpt lat="44.74276" lon="9.3887067"><ele>335.3333333333333</ele><time>2026-03-27T10:42:55.648Z</time></trkpt><trkpt lat="44.7426583" lon="9.3887033"><ele>333.0</ele><time>2026-03-27T10:44:36.649Z</time></trkpt><trkpt lat="44.7425317" lon="9.388625"><ele>333.0</ele><time>2026-03-27T10:44:38.651Z</time></trkpt><trkpt lat="44.74244" lon="9.3885617"><ele>333.0</ele><time>2026-03-27T10:44:39.648Z</time></trkpt><trkpt lat="44.742335" lon="9.388515"><ele>333.0</ele><time>2026-03-27T10:44:40.646Z</time></trkpt><trkpt lat="44.7422267" lon="9.3884767"><ele>333.0</ele><time>2026-03-27T10:44:41.648Z</time></trkpt><trkpt lat="44.742115" lon="9.3884383"><ele>333.0</ele><time>2026-03-27T10:44:42.647Z</time></trkpt><trkpt lat="44.7420033" lon="9.3884"><ele>356.0</ele><time>2026-03-27T10:44:43.648Z</time></trkpt><trkpt lat="44.740275" lon="9.38731"><ele>342.6666666666667</ele><time>2026-03-27T10:44:52.647Z</time></trkpt><trkpt lat="44.7401062" lon="9.3872327"><ele>329.3333333333333</ele><time>2026-03-27T10:44:53.648Z</time></trkpt><trkpt lat="44.7399342" lon="9.3871882"><ele>316.0</ele><time>2026-03-27T10:44:54.649Z</time></trkpt><trkpt lat="44.7397582" lon="9.3871758"><ele>316.0</ele><time>2026-03-27T10:44:55.648Z</time></trkpt><trkpt lat="44.7395813" lon="9.3871956"><ele>316.0</ele><time>2026-03-27T10:44:56.647Z</time></trkpt><trkpt lat="44.7394059" lon="9.3872505"><ele>316.0</ele><time>2026-03-27T10:44:57.647Z</time></trkpt><trkpt lat="44.7392391" lon="9.3873286"><ele>320.0</ele><time>2026-03-27T10:44:58.648Z</time></trkpt><trkpt lat="44.7390822" lon="9.3874211"><ele>324.0</ele><time>2026-03-27T10:44:59.647Z</time></trkpt><trkpt lat="44.7389376" lon="9.3875392"><ele>328.0</ele><time>2026-03-27T10:45:00.647Z</time></trkpt><trkpt lat="44.7387964" lon="9.3876878"><ele>328.0</ele><time>2026-03-27T10:45:01.646Z</time></trkpt><trkpt lat="44.7386569" lon="9.3878528"><ele>328.0</ele><time>2026-03-27T10:45:02.649Z</time></trkpt><trkpt lat="44.7385221" lon="9.3880256"><ele>328.0</ele><time>2026-03-27T10:45:03.647Z</time></trkpt><trkpt lat="44.7383862" lon="9.3881991"><ele>327.3333333333333</ele><time>2026-03-27T10:45:04.647Z</time></trkpt><trkpt lat="44.738256" lon="9.388375"><ele>326.6666666666667</ele><time>2026-03-27T10:45:05.648Z</time></trkpt><trkpt lat="44.7381292" lon="9.3885379"><ele>326.0</ele><time>2026-03-27T10:45:06.647Z</time></trkpt><trkpt lat="44.7380001" lon="9.3886821"><ele>326.0</ele><time>2026-03-27T10:45:07.647Z</time></trkpt><trkpt lat="44.7378708" lon="9.3888145"><ele>326.0</ele><time>2026-03-27T10:45:08.648Z</time></trkpt><trkpt lat="44.7377344" lon="9.3889521"><ele>326.0</ele><time>2026-03-27T10:45:09.647Z</time></trkpt><trkpt lat="44.7375857" lon="9.3890993"><ele>328.33333333333337</ele><time>2026-03-27T10:45:10.646Z</time></trkpt><trkpt lat="44.7374324" lon="9.3892453"><ele>330.6666666666667</ele><time>2026-03-27T10:45:11.648Z</time></trkpt><trkpt lat="44.7372731" lon="9.3893837"><ele>333.0</ele><time>2026-03-27T10:45:12.648Z</time></trkpt><trkpt lat="44.7371083" lon="9.3894963"><ele>333.0</ele><time>2026-03-27T10:45:13.647Z</time></trkpt><trkpt lat="44.7369288" lon="9.3895753"><ele>333.0</ele><time>2026-03-27T10:45:14.648Z</time></trkpt><trkpt lat="44.7367367" lon="9.3896167"><ele>333.0</ele><time>2026-03-27T10:45:15.648Z</time></trkpt><trkpt lat="44.7365433" lon="9.3896483"><ele>330.0</ele><time>2026-03-27T10:45:16.647Z</time></trkpt><trkpt lat="44.7363433" lon="9.3896667"><ele>327.0</ele><time>2026-03-27T10:45:17.649Z</time></trkpt><trkpt lat="44.7361383" lon="9.3896733"><ele>324.0</ele><time>2026-03-27T10:45:18.647Z</time></trkpt><trkpt lat="44.7359283" lon="9.3896883"><ele>322.6666666666667</ele><time>2026-03-27T10:45:19.646Z</time></trkpt><trkpt lat="44.7357233" lon="9.3896917"><ele>321.33333333333337</ele><time>2026-03-27T10:45:20.648Z</time></trkpt><trkpt lat="44.73552" lon="9.3896783"><ele>320.0</ele><time>2026-03-27T10:45:21.646Z</time></trkpt><trkpt lat="44.73532" lon="9.38964"><ele>323.33333333333337</ele><time>2026-03-27T10:45:22.646Z</time></trkpt><trkpt lat="44.73513" lon="9.3895783"><ele>326.6666666666667</ele><time>2026-03-27T10:45:23.647Z</time></trkpt><trkpt lat="44.7349583" lon="9.3895067"><ele>330.0</ele><time>2026-03-27T10:45:24.648Z</time></trkpt><trkpt lat="44.734795" lon="9.389435"><ele>330.0</ele><time>2026-03-27T10:45:25.647Z</time></trkpt><trkpt lat="44.73464" lon="9.3893483"><ele>330.0</ele><time>2026-03-27T10:45:26.646Z</time></trkpt><trkpt lat="44.7344933" lon="9.3892383"><ele>330.0</ele><time>2026-03-27T10:45:27.646Z</time></trkpt><trkpt lat="44.734335" lon="9.389155"><ele>335.0</ele><time>2026-03-27T10:45:28.646Z</time></trkpt><trkpt lat="44.7341633" lon="9.3891083"><ele>340.0</ele><time>2026-03-27T10:45:29.646Z</time></trkpt><trkpt lat="44.73398" lon="9.3890867"><ele>345.0</ele><time>2026-03-27T10:45:30.647Z</time></trkpt><trkpt lat="44.7337917" lon="9.3890933"><ele>345.0</ele><time>2026-03-27T10:45:31.648Z</time></trkpt><trkpt lat="44.7336067" lon="9.3891117"><ele>345.0</ele><time>2026-03-27T10:45:32.648Z</time></trkpt><trkpt lat="44.7334267" lon="9.3891283"><ele>345.0</ele><time>2026-03-27T10:45:33.647Z</time></trkpt><trkpt lat="44.73325" lon="9.389115"><ele>346.0</ele><time>2026-03-27T10:45:34.647Z</time></trkpt><trkpt lat="44.7330783" lon="9.3890733"><ele>347.0</ele><time>2026-03-27T10:45:35.647Z</time></trkpt><trkpt lat="44.7329" lon="9.3890483"><ele>348.0</ele><time>2026-03-27T10:45:36.647Z</time></trkpt><trkpt lat="44.7327317" lon="9.38903"><ele>353.25</ele><time>2026-03-27T10:45:37.646Z</time></trkpt><trkpt lat="44.7325817" lon="9.3890017"><ele>358.5</ele><time>2026-03-27T10:45:38.648Z</time></trkpt><trkpt lat="44.7324567" lon="9.38896"><ele>363.75</ele><time>2026-03-27T10:45:39.646Z</time></trkpt><trkpt lat="44.73236" lon="9.3888817"><ele>369.0</ele><time>2026-03-27T10:45:40.648Z</time></trkpt><trkpt lat="44.7322817" lon="9.38877"><ele>362.0</ele><time>2026-03-27T10:45:41.647Z</time></trkpt><trkpt lat="44.7321983" lon="9.38865"><ele>355.0</ele><time>2026-03-27T10:45:42.646Z</time></trkpt><trkpt lat="44.7320817" lon="9.38855"><ele>348.0</ele><time>2026-03-27T10:45:43.649Z</time></trkpt><trkpt lat="44.73194" lon="9.3884667"><ele>341.0</ele><time>2026-03-27T10:45:44.647Z</time></trkpt><trkpt lat="44.731795" lon="9.388405"><ele>341.0</ele><time>2026-03-27T10:45:45.649Z</time></trkpt><trkpt lat="44.731645" lon="9.3883783"><ele>341.0</ele><time>2026-03-27T10:45:46.646Z</time></trkpt><trkpt lat="44.7315" lon="9.388395"><ele>341.0</ele><time>2026-03-27T10:45:47.647Z</time></trkpt><trkpt lat="44.7313633" lon="9.3884333"><ele>341.0</ele><time>2026-03-27T10:45:48.647Z</time></trkpt><trkpt lat="44.7312333" lon="9.388455"><ele>341.0</ele><time>2026-03-27T10:45:49.649Z</time></trkpt><trkpt lat="44.73112" lon="9.3884467"><ele>341.0</ele><time>2026-03-27T10:45:50.648Z</time></trkpt><trkpt lat="44.73102" lon="9.3884017"><ele>341.0</ele><time>2026-03-27T10:45:51.648Z</time></trkpt><trkpt lat="44.7309367" lon="9.388315"><ele>341.0</ele><time>2026-03-27T10:45:52.647Z</time></trkpt><trkpt lat="44.7308667" lon="9.3882083"><ele>341.0</ele><time>2026-03-27T10:45:53.647Z</time></trkpt><trkpt lat="44.7307767" lon="9.388115"><ele>345.75</ele><time>2026-03-27T10:45:54.65Z</time></trkpt><trkpt lat="44.730655" lon="9.3880783"><ele>350.5</ele><time>2026-03-27T10:45:55.647Z</time></trkpt><trkpt lat="44.7305183" lon="9.3880583"><ele>355.25</ele><time>2026-03-27T10:45:56.648Z</time></trkpt><trkpt lat="44.7303783" lon="9.3880067"><ele>360.0</ele><time>2026-03-27T10:45:57.649Z</time></trkpt><trkpt lat="44.73024" lon="9.3879167"><ele>352.0</ele><time>2026-03-27T10:45:58.647Z</time></trkpt><trkpt lat="44.7300983" lon="9.3878283"><ele>344.0</ele><time>2026-03-27T10:45:59.649Z</time></trkpt><trkpt lat="44.7299517" lon="9.38777"><ele>336.0</ele><time>2026-03-27T10:46:00.647Z</time></trkpt><trkpt lat="44.7298117" lon="9.3876983"><ele>336.0</ele><time>2026-03-27T10:46:01.648Z</time></trkpt><trkpt lat="44.729695" lon="9.3875917"><ele>336.0</ele><time>2026-03-27T10:46:02.649Z</time></trkpt><trkpt lat="44.72959" lon="9.38748"><ele>336.0</ele><time>2026-03-27T10:46:03.647Z</time></trkpt><trkpt lat="44.729475" lon="9.3873883"><ele>336.0</ele><time>2026-03-27T10:46:04.649Z</time></trkpt><trkpt lat="44.7293467" lon="9.38736"><ele>345.75</ele><time>2026-03-27T10:46:05.65Z</time></trkpt><trkpt lat="44.7292233" lon="9.3873717"><ele>355.5</ele><time>2026-03-27T10:46:06.646Z</time></trkpt><trkpt lat="44.729105" lon="9.3873717"><ele>365.25</ele><time>2026-03-27T10:46:07.647Z</time></trkpt><trkpt lat="44.72899" lon="9.3873317"><ele>375.0</ele><time>2026-03-27T10:46:08.647Z</time></trkpt><trkpt lat="44.7288817" lon="9.387265"><ele>361.25</ele><time>2026-03-27T10:46:09.647Z</time></trkpt><trkpt lat="44.7287917" lon="9.3871633"><ele>347.5</ele><time>2026-03-27T10:46:10.647Z</time></trkpt><trkpt lat="44.7287367" lon="9.387015"><ele>333.75</ele><time>2026-03-27T10:46:11.649Z</time></trkpt><trkpt lat="44.7286917" lon="9.386865"><ele>320.0</ele><time>2026-03-27T10:46:12.647Z</time></trkpt><trkpt lat="44.728635" lon="9.3867433"><ele>330.0</ele><time>2026-03-27T10:46:13.652Z</time></trkpt><trkpt lat="44.7285433" lon="9.3866767"><ele>340.0</ele><time>2026-03-27T10:46:14.647Z</time></trkpt><trkpt lat="44.7284183" lon="9.38665"><ele>350.0</ele><time>2026-03-27T10:46:15.646Z</time></trkpt><trkpt lat="44.7282833" lon="9.3866217"><ele>360.0</ele><time>2026-03-27T10:46:16.648Z</time></trkpt><trkpt lat="44.7281433" lon="9.38658"><ele>360.0</ele><time>2026-03-27T10:46:17.648Z</time></trkpt><trkpt lat="44.7279983" lon="9.3865267"><ele>360.0</ele><time>2026-03-27T10:46:18.646Z</time></trkpt><trkpt lat="44.7278467" lon="9.3864617"><ele>360.0</ele><time>2026-03-27T10:46:19.646Z</time></trkpt><trkpt lat="44.7276883" lon="9.38637"><ele>351.0</ele><time>2026-03-27T10:46:20.648Z</time></trkpt><trkpt lat="44.72753" lon="9.386255"><ele>342.0</ele><time>2026-03-27T10:46:21.647Z</time></trkpt><trkpt lat="44.7273733" lon="9.38613"><ele>333.0</ele><time>2026-03-27T10:46:22.647Z</time></trkpt><trkpt lat="44.727225" lon="9.386005"><ele>333.0</ele><time>2026-03-27T10:46:23.648Z</time></trkpt><trkpt lat="44.7270867" lon="9.3858883"><ele>333.0</ele><time>2026-03-27T10:46:24.646Z</time></trkpt><trkpt lat="44.726965" lon="9.3857667"><ele>333.0</ele><time>2026-03-27T10:46:25.646Z</time></trkpt><trkpt lat="44.7268717" lon="9.3856283"><ele>333.0</ele><time>2026-03-27T10:46:26.647Z</time></trkpt><trkpt lat="44.7267783" lon="9.3855"><ele>329.0</ele><time>2026-03-27T10:46:27.647Z</time></trkpt><trkpt lat="44.7266583" lon="9.3854"><ele>325.0</ele><time>2026-03-27T10:46:28.646Z</time></trkpt><trkpt lat="44.7265267" lon="9.3853267"><ele>321.0</ele><time>2026-03-27T10:46:29.646Z</time></trkpt><trkpt lat="44.7264183" lon="9.3852683"><ele>317.0</ele><time>2026-03-27T10:46:30.647Z</time></trkpt><trkpt lat="44.7263267" lon="9.3852317"><ele>317.0</ele><time>2026-03-27T10:46:31.646Z</time></trkpt><trkpt lat="44.72625" lon="9.38526"><ele>317.0</ele><time>2026-03-27T10:46:32.648Z</time></trkpt><trkpt lat="44.7261917" lon="9.3853317"><ele>317.0</ele><time>2026-03-27T10:46:33.648Z</time></trkpt><trkpt lat="44.7261733" lon="9.38544"><ele>317.0</ele><time>2026-03-27T10:46:34.647Z</time></trkpt><trkpt lat="44.7261817" lon="9.3855717"><ele>317.0</ele><time>2026-03-27T10:46:35.648Z</time></trkpt><trkpt lat="44.7262183" lon="9.3857217"><ele>317.0</ele><time>2026-03-27T10:46:36.646Z</time></trkpt><trkpt lat="44.7262517" lon="9.38588"><ele>327.0</ele><time>2026-03-27T10:46:37.647Z</time></trkpt><trkpt lat="44.7262833" lon="9.3860467"><ele>337.0</ele><time>2026-03-27T10:46:38.647Z</time></trkpt><trkpt lat="44.7263183" lon="9.3862317"><ele>347.0</ele><time>2026-03-27T10:46:39.646Z</time></trkpt><trkpt lat="44.7263517" lon="9.3864267"><ele>357.0</ele><time>2026-03-27T10:46:40.648Z</time></trkpt><trkpt lat="44.7263817" lon="9.3866283"><ele>363.3333333333333</ele><time>2026-03-27T10:46:41.647Z</time></trkpt><trkpt lat="44.7263833" lon="9.3868317"><ele>369.66666666666663</ele><time>2026-03-27T10:46:42.649Z</time></trkpt><trkpt lat="44.7263567" lon="9.38704"><ele>376.0</ele><time>2026-03-27T10:46:43.647Z</time></trkpt><trkpt lat="44.72631" lon="9.38726"><ele>382.3333333333333</ele><time>2026-03-27T10:46:44.649Z</time></trkpt><trkpt lat="44.72624" lon="9.38748"><ele>388.66666666666663</ele><time>2026-03-27T10:46:45.647Z</time></trkpt><trkpt lat="44.72615" lon="9.387695"><ele>395.0</ele><time>2026-03-27T10:46:46.647Z</time></trkpt><trkpt lat="44.7260517" lon="9.3878967"><ele>386.3333333333333</ele><time>2026-03-27T10:46:47.646Z</time></trkpt><trkpt lat="44.725945" lon="9.3880883"><ele>377.66666666666663</ele><time>2026-03-27T10:46:48.648Z</time></trkpt><trkpt lat="44.7258317" lon="9.38827"><ele>369.0</ele><time>2026-03-27T10:46:49.646Z</time></trkpt><trkpt lat="44.7257067" lon="9.388435"><ele>369.0</ele><time>2026-03-27T10:46:50.647Z</time></trkpt><trkpt lat="44.7255683" lon="9.3885883"><ele>369.0</ele><time>2026-03-27T10:46:51.647Z</time></trkpt><trkpt lat="44.7254267" lon="9.3887233"><ele>369.0</ele><time>2026-03-27T10:46:52.647Z</time></trkpt><trkpt lat="44.7252867" lon="9.3888433"><ele>366.0</ele><time>2026-03-27T10:46:53.647Z</time></trkpt><trkpt lat="44.7251483" lon="9.388925"><ele>363.0</ele><time>2026-03-27T10:46:54.648Z</time></trkpt><trkpt lat="44.7250383" lon="9.3890267"><ele>360.0</ele><time>2026-03-27T10:46:55.646Z</time></trkpt><trkpt lat="44.7249417" lon="9.38917"><ele>357.0</ele><time>2026-03-27T10:46:56.647Z</time></trkpt><trkpt lat="44.7248633" lon="9.3893517"><ele>357.0</ele><time>2026-03-27T10:46:57.647Z</time></trkpt><trkpt lat="44.7248" lon="9.3895483"><ele>357.0</ele><time>2026-03-27T10:46:58.647Z</time></trkpt><trkpt lat="44.7247517" lon="9.38974"><ele>357.0</ele><time>2026-03-27T10:46:59.646Z</time></trkpt><trkpt lat="44.724725" lon="9.3899217"><ele>357.0</ele><time>2026-03-27T10:47:00.646Z</time></trkpt><trkpt lat="44.7247367" lon="9.3900883"><ele>357.40000000000003</ele><time>2026-03-27T10:47:01.647Z</time></trkpt><trkpt lat="44.7247867" lon="9.390235"><ele>357.8</ele><time>2026-03-27T10:47:02.647Z</time></trkpt><trkpt lat="44.72485" lon="9.3903583"><ele>358.2</ele><time>2026-03-27T10:47:03.649Z</time></trkpt><trkpt lat="44.7248967" lon="9.3904883"><ele>358.6</ele><time>2026-03-27T10:47:04.647Z</time></trkpt><trkpt lat="44.72491" lon="9.3906417"><ele>359.0</ele><time>2026-03-27T10:47:05.647Z</time></trkpt><trkpt lat="44.7248867" lon="9.3908133"><ele>360.0</ele><time>2026-03-27T10:47:06.646Z</time></trkpt><trkpt lat="44.7248467" lon="9.391"><ele>361.0</ele><time>2026-03-27T10:47:07.647Z</time></trkpt><trkpt lat="44.724795" lon="9.39121"><ele>362.0</ele><time>2026-03-27T10:47:08.647Z</time></trkpt><trkpt lat="44.7247383" lon="9.3914317"><ele>362.0</ele><time>2026-03-27T10:47:09.648Z</time></trkpt><trkpt lat="44.72468" lon="9.391665"><ele>362.0</ele><time>2026-03-27T10:47:10.648Z</time></trkpt><trkpt lat="44.72462" lon="9.3918983"><ele>362.0</ele><time>2026-03-27T10:47:11.648Z</time></trkpt><trkpt lat="44.7245667" lon="9.3921117"><ele>367.6666666666667</ele><time>2026-03-27T10:47:12.647Z</time></trkpt><trkpt lat="44.7245067" lon="9.3923167"><ele>373.3333333333333</ele><time>2026-03-27T10:47:13.647Z</time></trkpt><trkpt lat="44.724425" lon="9.39252"><ele>379.0</ele><time>2026-03-27T10:47:14.647Z</time></trkpt><trkpt lat="44.7243167" lon="9.3927133"><ele>374.66666666666663</ele><time>2026-03-27T10:47:15.648Z</time></trkpt><trkpt lat="44.7242017" lon="9.3929117"><ele>370.3333333333333</ele><time>2026-03-27T10:47:16.649Z</time></trkpt><trkpt lat="44.724095" lon="9.39311"><ele>366.0</ele><time>2026-03-27T10:47:17.647Z</time></trkpt><trkpt lat="44.7239933" lon="9.393295"><ele>366.0</ele><time>2026-03-27T10:47:18.647Z</time></trkpt><trkpt lat="44.7238833" lon="9.393465"><ele>366.0</ele><time>2026-03-27T10:47:19.648Z</time></trkpt><trkpt lat="44.72376" lon="9.3936133"><ele>366.0</ele><time>2026-03-27T10:47:20.649Z</time></trkpt><trkpt lat="44.7236267" lon="9.39373"><ele>366.6666666666667</ele><time>2026-03-27T10:47:21.647Z</time></trkpt><trkpt lat="44.7234733" lon="9.39382"><ele>367.33333333333337</ele><time>2026-03-27T10:47:22.648Z</time></trkpt><trkpt lat="44.7233117" lon="9.3938983"><ele>368.0</ele><time>2026-03-27T10:47:23.647Z</time></trkpt><trkpt lat="44.7231467" lon="9.3939583"><ele>368.0</ele><time>2026-03-27T10:47:24.647Z</time></trkpt><trkpt lat="44.72299" lon="9.394015"><ele>368.0</ele><time>2026-03-27T10:47:25.646Z</time></trkpt><trkpt lat="44.7228567" lon="9.39408"><ele>368.0</ele><time>2026-03-27T10:47:26.647Z</time></trkpt><trkpt lat="44.7227433" lon="9.3941617"><ele>368.0</ele><time>2026-03-27T10:47:27.647Z</time></trkpt><trkpt lat="44.7226633" lon="9.3942633"><ele>363.33333333333337</ele><time>2026-03-27T10:47:28.646Z</time></trkpt><trkpt lat="44.72261" lon="9.394385"><ele>358.6666666666667</ele><time>2026-03-27T10:47:29.651Z</time></trkpt><trkpt lat="44.7225633" lon="9.3944917"><ele>354.0</ele><time>2026-03-27T10:47:30.645Z</time></trkpt><trkpt lat="44.722515" lon="9.3945767"><ele>349.3333333333333</ele><time>2026-03-27T10:47:31.646Z</time></trkpt><trkpt lat="44.7224483" lon="9.394585"><ele>344.66666666666663</ele><time>2026-03-27T10:47:32.646Z</time></trkpt><trkpt lat="44.7223783" lon="9.39455"><ele>340.0</ele><time>2026-03-27T10:47:33.649Z</time></trkpt><trkpt lat="44.72231" lon="9.3944733"><ele>340.0</ele><time>2026-03-27T10:47:34.647Z</time></trkpt><trkpt lat="44.7222283" lon="9.3943483"><ele>340.0</ele><time>2026-03-27T10:47:35.647Z</time></trkpt><trkpt lat="44.72213" lon="9.3942067"><ele>340.0</ele><time>2026-03-27T10:47:36.646Z</time></trkpt><trkpt lat="44.7220167" lon="9.394075"><ele>340.0</ele><time>2026-03-27T10:47:37.646Z</time></trkpt><trkpt lat="44.7219017" lon="9.3939667"><ele>339.25</ele><time>2026-03-27T10:47:38.646Z</time></trkpt><trkpt lat="44.7217783" lon="9.3938833"><ele>338.5</ele><time>2026-03-27T10:47:39.647Z</time></trkpt><trkpt lat="44.7216617" lon="9.3938633"><ele>337.75</ele><time>2026-03-27T10:47:40.645Z</time></trkpt><trkpt lat="44.7215467" lon="9.393905"><ele>337.0</ele><time>2026-03-27T10:47:41.649Z</time></trkpt><trkpt lat="44.7214517" lon="9.3939917"><ele>337.0</ele><time>2026-03-27T10:47:42.646Z</time></trkpt><trkpt lat="44.7214017" lon="9.3941417"><ele>337.0</ele><time>2026-03-27T10:47:43.646Z</time></trkpt><trkpt lat="44.7213783" lon="9.394315"><ele>337.0</ele><time>2026-03-27T10:47:44.648Z</time></trkpt><trkpt lat="44.72134" lon="9.3944833"><ele>337.0</ele><time>2026-03-27T10:47:45.645Z</time></trkpt><trkpt lat="44.7212567" lon="9.3946317"><ele>340.0</ele><time>2026-03-27T10:47:46.646Z</time></trkpt><trkpt lat="44.7211433" lon="9.3947717"><ele>343.0</ele><time>2026-03-27T10:47:47.647Z</time></trkpt><trkpt lat="44.7210183" lon="9.3948967"><ele>346.0</ele><time>2026-03-27T10:47:48.647Z</time></trkpt><trkpt lat="44.7208983" lon="9.3949983"><ele>349.0</ele><time>2026-03-27T10:47:49.649Z</time></trkpt><trkpt lat="44.7207833" lon="9.395065"><ele>349.0</ele><time>2026-03-27T10:47:50.646Z</time></trkpt><trkpt lat="44.7206717" lon="9.39507"><ele>349.0</ele><time>2026-03-27T10:47:51.647Z</time></trkpt><trkpt lat="44.7205733" lon="9.3950383"><ele>349.0</ele><time>2026-03-27T10:47:52.647Z</time></trkpt><trkpt lat="44.7204983" lon="9.39496"><ele>349.0</ele><time>2026-03-27T10:47:53.651Z</time></trkpt><trkpt lat="44.720465" lon="9.394835"><ele>349.0</ele><time>2026-03-27T10:47:54.646Z</time></trkpt><trkpt lat="44.7204517" lon="9.3946783"><ele>343.0</ele><time>2026-03-27T10:47:55.646Z</time></trkpt><trkpt lat="44.7204583" lon="9.3944867"><ele>337.0</ele><time>2026-03-27T10:47:56.646Z</time></trkpt><trkpt lat="44.720485" lon="9.39427"><ele>331.0</ele><time>2026-03-27T10:47:57.646Z</time></trkpt><trkpt lat="44.72054" lon="9.3940633"><ele>325.0</ele><time>2026-03-27T10:47:58.65Z</time></trkpt><trkpt lat="44.7206183" lon="9.3938617"><ele>325.5</ele><time>2026-03-27T10:47:59.648Z</time></trkpt><trkpt lat="44.7206983" lon="9.3936717"><ele>326.0</ele><time>2026-03-27T10:48:00.649Z</time></trkpt><trkpt lat="44.720775" lon="9.3934983"><ele>326.5</ele><time>2026-03-27T10:48:01.646Z</time></trkpt><trkpt lat="44.720825" lon="9.393325"><ele>327.0</ele><time>2026-03-27T10:48:02.647Z</time></trkpt><trkpt lat="44.720825" lon="9.3931467"><ele>325.75</ele><time>2026-03-27T10:48:03.646Z</time></trkpt><trkpt lat="44.7207633" lon="9.3929733"><ele>324.5</ele><time>2026-03-27T10:48:04.647Z</time></trkpt><trkpt lat="44.7206583" lon="9.3928217"><ele>323.25</ele><time>2026-03-27T10:48:05.648Z</time></trkpt><trkpt lat="44.7205533" lon="9.3926717"><ele>322.0</ele><time>2026-03-27T10:48:06.648Z</time></trkpt><trkpt lat="44.7204667" lon="9.39251"><ele>322.0</ele><time>2026-03-27T10:48:07.65Z</time></trkpt><trkpt lat="44.7203967" lon="9.3923183"><ele>322.0</ele><time>2026-03-27T10:48:08.646Z</time></trkpt><trkpt lat="44.720335" lon="9.3921067"><ele>322.0</ele><time>2026-03-27T10:48:09.646Z</time></trkpt><trkpt lat="44.72029" lon="9.3918867"><ele>317.66666666666663</ele><time>2026-03-27T10:48:10.645Z</time></trkpt><trkpt lat="44.7202667" lon="9.3916533"><ele>313.3333333333333</ele><time>2026-03-27T10:48:11.646Z</time></trkpt><trkpt lat="44.7202567" lon="9.3914033"><ele>309.0</ele><time>2026-03-27T10:48:12.645Z</time></trkpt><trkpt lat="44.7202417" lon="9.3911483"><ele>312.3333333333333</ele><time>2026-03-27T10:48:13.648Z</time></trkpt><trkpt lat="44.7202267" lon="9.3908867"><ele>315.66666666666663</ele><time>2026-03-27T10:48:14.647Z</time></trkpt><trkpt lat="44.720205" lon="9.3906517"><ele>319.0</ele><time>2026-03-27T10:48:15.647Z</time></trkpt><trkpt lat="44.7201733" lon="9.39045"><ele>319.0</ele><time>2026-03-27T10:48:16.647Z</time></trkpt><trkpt lat="44.720115" lon="9.3902717"><ele>319.0</ele><time>2026-03-27T10:48:17.648Z</time></trkpt><trkpt lat="44.7200167" lon="9.3901233"><ele>319.0</ele><time>2026-03-27T10:48:18.649Z</time></trkpt><trkpt lat="44.7198817" lon="9.390025"><ele>319.0</ele><time>2026-03-27T10:48:19.647Z</time></trkpt><trkpt lat="44.719725" lon="9.3899717"><ele>319.0</ele><time>2026-03-27T10:48:20.647Z</time></trkpt><trkpt lat="44.7195467" lon="9.38994"><ele>319.0</ele><time>2026-03-27T10:48:21.647Z</time></trkpt><trkpt lat="44.7193717" lon="9.3899317"><ele>319.0</ele><time>2026-03-27T10:48:22.647Z</time></trkpt><trkpt lat="44.7192067" lon="9.3899617"><ele>320.3333333333333</ele><time>2026-03-27T10:48:23.648Z</time></trkpt><trkpt lat="44.7190517" lon="9.390025"><ele>321.6666666666667</ele><time>2026-03-27T10:48:24.646Z</time></trkpt><trkpt lat="44.7188933" lon="9.3901233"><ele>323.0</ele><time>2026-03-27T10:48:25.646Z</time></trkpt><trkpt lat="44.7187333" lon="9.3901983"><ele>323.6666666666667</ele><time>2026-03-27T10:48:26.647Z</time></trkpt><trkpt lat="44.7185533" lon="9.3902233"><ele>324.3333333333333</ele><time>2026-03-27T10:48:27.649Z</time></trkpt><trkpt lat="44.7183567" lon="9.3902233"><ele>325.0</ele><time>2026-03-27T10:48:28.647Z</time></trkpt><trkpt lat="44.718155" lon="9.390205"><ele>325.0</ele><time>2026-03-27T10:48:29.646Z</time></trkpt><trkpt lat="44.7179483" lon="9.3901967"><ele>325.0</ele><time>2026-03-27T10:48:30.646Z</time></trkpt><trkpt lat="44.717735" lon="9.39018"><ele>325.0</ele><time>2026-03-27T10:48:31.645Z</time></trkpt><trkpt lat="44.71753" lon="9.3901517"><ele>327.3333333333333</ele><time>2026-03-27T10:48:32.646Z</time></trkpt><trkpt lat="44.7173367" lon="9.3900967"><ele>329.6666666666667</ele><time>2026-03-27T10:48:33.646Z</time></trkpt><trkpt lat="44.7171517" lon="9.3900067"><ele>332.0</ele><time>2026-03-27T10:48:34.65Z</time></trkpt><trkpt lat="44.7169683" lon="9.3899033"><ele>337.0</ele><time>2026-03-27T10:48:35.646Z</time></trkpt><trkpt lat="44.7167817" lon="9.3898017"><ele>342.0</ele><time>2026-03-27T10:48:36.646Z</time></trkpt><trkpt lat="44.7165967" lon="9.389675"><ele>347.0</ele><time>2026-03-27T10:48:37.647Z</time></trkpt><trkpt lat="44.7164183" lon="9.3895333"><ele>347.6666666666667</ele><time>2026-03-27T10:48:38.646Z</time></trkpt><trkpt lat="44.7162533" lon="9.3893767"><ele>348.3333333333333</ele><time>2026-03-27T10:48:39.646Z</time></trkpt><trkpt lat="44.7161133" lon="9.3892117"><ele>349.0</ele><time>2026-03-27T10:48:40.645Z</time></trkpt><trkpt lat="44.716005" lon="9.3890183"><ele>340.66666666666663</ele><time>2026-03-27T10:48:41.646Z</time></trkpt><trkpt lat="44.715925" lon="9.388795"><ele>332.3333333333333</ele><time>2026-03-27T10:48:42.647Z</time></trkpt><trkpt lat="44.7158583" lon="9.3885583"><ele>324.0</ele><time>2026-03-27T10:48:43.648Z</time></trkpt><trkpt lat="44.7157817" lon="9.388325"><ele>324.0</ele><time>2026-03-27T10:48:44.646Z</time></trkpt><trkpt lat="44.7156883" lon="9.3880983"><ele>324.0</ele><time>2026-03-27T10:48:45.647Z</time></trkpt><trkpt lat="44.7155783" lon="9.3878983"><ele>324.0</ele><time>2026-03-27T10:48:46.647Z</time></trkpt><trkpt lat="44.7154567" lon="9.3877183"><ele>324.6666666666667</ele><time>2026-03-27T10:48:47.647Z</time></trkpt><trkpt lat="44.7153433" lon="9.3875467"><ele>325.33333333333337</ele><time>2026-03-27T10:48:48.646Z</time></trkpt><trkpt lat="44.715245" lon="9.3873617"><ele>326.0</ele><time>2026-03-27T10:48:49.65Z</time></trkpt><trkpt lat="44.7151633" lon="9.3871467"><ele>326.0</ele><time>2026-03-27T10:48:50.647Z</time></trkpt><trkpt lat="44.7150867" lon="9.38692"><ele>326.0</ele><time>2026-03-27T10:48:51.646Z</time></trkpt><trkpt lat="44.7150033" lon="9.3866817"><ele>326.0</ele><time>2026-03-27T10:48:52.645Z</time></trkpt><trkpt lat="44.7149133" lon="9.386435"><ele>322.33333333333337</ele><time>2026-03-27T10:48:53.648Z</time></trkpt><trkpt lat="44.714825" lon="9.3861883"><ele>318.6666666666667</ele><time>2026-03-27T10:48:54.647Z</time></trkpt><trkpt lat="44.7147367" lon="9.3859433"><ele>315.0</ele><time>2026-03-27T10:48:55.646Z</time></trkpt><trkpt lat="44.7146467" lon="9.3857133"><ele>312.6666666666667</ele><time>2026-03-27T10:48:56.647Z</time></trkpt><trkpt lat="44.7145633" lon="9.38549"><ele>310.33333333333337</ele><time>2026-03-27T10:48:57.645Z</time></trkpt><trkpt lat="44.7144967" lon="9.3852767"><ele>308.0</ele><time>2026-03-27T10:48:58.648Z</time></trkpt><trkpt lat="44.71445" lon="9.3850583"><ele>308.0</ele><time>2026-03-27T10:48:59.646Z</time></trkpt><trkpt lat="44.7144367" lon="9.384835"><ele>308.0</ele><time>2026-03-27T10:49:00.646Z</time></trkpt><trkpt lat="44.714445" lon="9.3846017"><ele>308.0</ele><time>2026-03-27T10:49:01.647Z</time></trkpt><trkpt lat="44.714455" lon="9.38436"><ele>308.0</ele><time>2026-03-27T10:49:02.647Z</time></trkpt><trkpt lat="44.7144733" lon="9.3841267"><ele>308.0</ele><time>2026-03-27T10:49:03.646Z</time></trkpt><trkpt lat="44.7144983" lon="9.3839183"><ele>308.0</ele><time>2026-03-27T10:49:04.646Z</time></trkpt><trkpt lat="44.7145233" lon="9.3837383"><ele>308.0</ele><time>2026-03-27T10:49:05.646Z</time></trkpt><trkpt lat="44.7145267" lon="9.3835817"><ele>308.8</ele><time>2026-03-27T10:49:06.646Z</time></trkpt><trkpt lat="44.714495" lon="9.3834383"><ele>309.6</ele><time>2026-03-27T10:49:07.646Z</time></trkpt><trkpt lat="44.7144433" lon="9.3833067"><ele>310.4</ele><time>2026-03-27T10:49:08.646Z</time></trkpt><trkpt lat="44.71438" lon="9.3831817"><ele>311.2</ele><time>2026-03-27T10:49:09.646Z</time></trkpt><trkpt lat="44.7143083" lon="9.38306"><ele>312.0</ele><time>2026-03-27T10:49:10.646Z</time></trkpt><trkpt lat="44.7142317" lon="9.3829417"><ele>313.0</ele><time>2026-03-27T10:49:11.646Z</time></trkpt><trkpt lat="44.714155" lon="9.382825"><ele>314.0</ele><time>2026-03-27T10:49:12.646Z</time></trkpt><trkpt lat="44.714085" lon="9.38271"><ele>315.0</ele><time>2026-03-27T10:49:13.646Z</time></trkpt><trkpt lat="44.7140167" lon="9.3825883"><ele>316.0</ele><time>2026-03-27T10:49:14.647Z</time></trkpt><trkpt lat="44.7139583" lon="9.38246"><ele>317.0</ele><time>2026-03-27T10:49:15.646Z</time></trkpt><trkpt lat="44.7139217" lon="9.3823183"><ele>316.4</ele><time>2026-03-27T10:49:16.646Z</time></trkpt><trkpt lat="44.7139017" lon="9.3821667"><ele>315.79999999999995</ele><time>2026-03-27T10:49:17.646Z</time></trkpt><trkpt lat="44.71389" lon="9.382005"><ele>315.2</ele><time>2026-03-27T10:49:18.646Z</time></trkpt><trkpt lat="44.7138783" lon="9.38185"><ele>314.59999999999997</ele><time>2026-03-27T10:49:19.647Z</time></trkpt><trkpt lat="44.713865" lon="9.381705"><ele>314.0</ele><time>2026-03-27T10:49:20.647Z</time></trkpt><trkpt lat="44.7138533" lon="9.3815667"><ele>314.0</ele><time>2026-03-27T10:49:21.647Z</time></trkpt><trkpt lat="44.713835" lon="9.3814283"><ele>314.0</ele><time>2026-03-27T10:49:22.646Z</time></trkpt><trkpt lat="44.71381" lon="9.3812917"><ele>314.0</ele><time>2026-03-27T10:49:23.647Z</time></trkpt><trkpt lat="44.7137717" lon="9.3811583"><ele>314.0</ele><time>2026-03-27T10:49:24.646Z</time></trkpt><trkpt lat="44.71372" lon="9.3810317"><ele>314.0</ele><time>2026-03-27T10:49:25.648Z</time></trkpt><trkpt lat="44.7136633" lon="9.380905"><ele>314.0</ele><time>2026-03-27T10:49:26.647Z</time></trkpt><trkpt lat="44.71359" lon="9.38079"><ele>314.0</ele><time>2026-03-27T10:49:27.646Z</time></trkpt><trkpt lat="44.713515" lon="9.3806733"><ele>314.0</ele><time>2026-03-27T10:49:28.647Z</time></trkpt><trkpt lat="44.7134367" lon="9.38056"><ele>314.0</ele><time>2026-03-27T10:49:29.647Z</time></trkpt><trkpt lat="44.7133583" lon="9.380445"><ele>314.0</ele><time>2026-03-27T10:49:30.65Z</time></trkpt><trkpt lat="44.7132783" lon="9.380335"><ele>315.25</ele><time>2026-03-27T10:49:31.647Z</time></trkpt><trkpt lat="44.7131867" lon="9.3802433"><ele>316.5</ele><time>2026-03-27T10:49:32.647Z</time></trkpt><trkpt lat="44.7130817" lon="9.38018"><ele>317.75</ele><time>2026-03-27T10:49:33.649Z</time></trkpt><trkpt lat="44.7129717" lon="9.3801317"><ele>319.0</ele><time>2026-03-27T10:49:34.65Z</time></trkpt><trkpt lat="44.7128583" lon="9.3801067"><ele>319.0</ele><time>2026-03-27T10:49:35.647Z</time></trkpt><trkpt lat="44.7127517" lon="9.3800883"><ele>319.0</ele><time>2026-03-27T10:49:36.649Z</time></trkpt><trkpt lat="44.71265" lon="9.3800717"><ele>319.0</ele><time>2026-03-27T10:49:37.648Z</time></trkpt><trkpt lat="44.712545" lon="9.380055"><ele>319.0</ele><time>2026-03-27T10:49:38.648Z</time></trkpt><trkpt lat="44.7124383" lon="9.3800417"><ele>319.0</ele><time>2026-03-27T10:49:39.647Z</time></trkpt><trkpt lat="44.712345" lon="9.3800267"><ele>318.8</ele><time>2026-03-27T10:49:40.647Z</time></trkpt><trkpt lat="44.7122517" lon="9.380015"><ele>318.59999999999997</ele><time>2026-03-27T10:49:41.647Z</time></trkpt><trkpt lat="44.712155" lon="9.380005"><ele>318.4</ele><time>2026-03-27T10:49:42.65Z</time></trkpt><trkpt lat="44.7120567" lon="9.3799833"><ele>318.2</ele><time>2026-03-27T10:49:43.647Z</time></trkpt><trkpt lat="44.7119567" lon="9.3799617"><ele>318.0</ele><time>2026-03-27T10:49:44.648Z</time></trkpt><trkpt lat="44.7118583" lon="9.3799417"><ele>318.0</ele><time>2026-03-27T10:49:45.648Z</time></trkpt><trkpt lat="44.711755" lon="9.3799067"><ele>318.0</ele><time>2026-03-27T10:49:46.648Z</time></trkpt><trkpt lat="44.7116583" lon="9.3798417"><ele>318.0</ele><time>2026-03-27T10:49:47.65Z</time></trkpt><trkpt lat="44.7115733" lon="9.37975"><ele>318.0</ele><time>2026-03-27T10:49:48.646Z</time></trkpt><trkpt lat="44.7114933" lon="9.3796333"><ele>318.0</ele><time>2026-03-27T10:49:49.647Z</time></trkpt><trkpt lat="44.71142" lon="9.3795033"><ele>316.75</ele><time>2026-03-27T10:49:50.646Z</time></trkpt><trkpt lat="44.7113467" lon="9.3793567"><ele>315.5</ele><time>2026-03-27T10:49:51.647Z</time></trkpt><trkpt lat="44.7112717" lon="9.379205"><ele>314.25</ele><time>2026-03-27T10:49:52.645Z</time></trkpt><trkpt lat="44.711195" lon="9.379045"><ele>313.0</ele><time>2026-03-27T10:49:53.647Z</time></trkpt><trkpt lat="44.7111183" lon="9.3788817"><ele>314.0</ele><time>2026-03-27T10:49:54.647Z</time></trkpt><trkpt lat="44.711035" lon="9.37871"><ele>315.0</ele><time>2026-03-27T10:49:55.648Z</time></trkpt><trkpt lat="44.7109467" lon="9.378525"><ele>316.0</ele><time>2026-03-27T10:49:56.647Z</time></trkpt><trkpt lat="44.710855" lon="9.3783267"><ele>316.0</ele><time>2026-03-27T10:49:57.646Z</time></trkpt><trkpt lat="44.7107583" lon="9.37812"><ele>316.0</ele><time>2026-03-27T10:49:58.647Z</time></trkpt><trkpt lat="44.7106633" lon="9.3779133"><ele>316.0</ele><time>2026-03-27T10:49:59.648Z</time></trkpt><trkpt lat="44.7105733" lon="9.377725"><ele>318.66666666666663</ele><time>2026-03-27T10:50:00.648Z</time></trkpt><trkpt lat="44.7104667" lon="9.3775733"><ele>321.3333333333333</ele><time>2026-03-27T10:50:01.648Z</time></trkpt><trkpt lat="44.7103267" lon="9.3774867"><ele>324.0</ele><time>2026-03-27T10:50:02.649Z</time></trkpt><trkpt lat="44.7101667" lon="9.377465"><ele>326.3333333333333</ele><time>2026-03-27T10:50:03.647Z</time></trkpt><trkpt lat="44.71001" lon="9.37751"><ele>328.66666666666663</ele><time>2026-03-27T10:50:04.647Z</time></trkpt><trkpt lat="44.7098683" lon="9.3776117"><ele>331.0</ele><time>2026-03-27T10:50:05.648Z</time></trkpt><trkpt lat="44.7097317" lon="9.3777383"><ele>331.0</ele><time>2026-03-27T10:50:06.646Z</time></trkpt><trkpt lat="44.7095933" lon="9.377865"><ele>331.0</ele><time>2026-03-27T10:50:07.646Z</time></trkpt><trkpt lat="44.7094483" lon="9.3779667"><ele>331.0</ele><time>2026-03-27T10:50:08.648Z</time></trkpt><trkpt lat="44.7093017" lon="9.3780467"><ele>328.25</ele><time>2026-03-27T10:50:09.646Z</time></trkpt><trkpt lat="44.7091783" lon="9.3780933"><ele>325.5</ele><time>2026-03-27T10:50:10.646Z</time></trkpt><trkpt lat="44.7090617" lon="9.3781267"><ele>322.75</ele><time>2026-03-27T10:50:11.646Z</time></trkpt><trkpt lat="44.7089433" lon="9.3781267"><ele>320.0</ele><time>2026-03-27T10:50:12.647Z</time></trkpt><trkpt lat="44.7088167" lon="9.3780883"><ele>320.0</ele><time>2026-03-27T10:50:13.646Z</time></trkpt><trkpt lat="44.7086883" lon="9.3780333"><ele>320.0</ele><time>2026-03-27T10:50:14.646Z</time></trkpt><trkpt lat="44.70856" lon="9.3779783"><ele>320.0</ele><time>2026-03-27T10:50:15.646Z</time></trkpt><trkpt lat="44.7084317" lon="9.3779217"><ele>320.0</ele><time>2026-03-27T10:50:16.646Z</time></trkpt><trkpt lat="44.7083133" lon="9.3778533"><ele>323.75</ele><time>2026-03-27T10:50:17.647Z</time></trkpt><trkpt lat="44.708215" lon="9.3777583"><ele>327.5</ele><time>2026-03-27T10:50:18.647Z</time></trkpt><trkpt lat="44.7081433" lon="9.3776383"><ele>331.25</ele><time>2026-03-27T10:50:19.646Z</time></trkpt><trkpt lat="44.7080933" lon="9.3775"><ele>335.0</ele><time>2026-03-27T10:50:20.648Z</time></trkpt><trkpt lat="44.7080517" lon="9.3773567"><ele>335.0</ele><time>2026-03-27T10:50:21.646Z</time></trkpt><trkpt lat="44.7080267" lon="9.3772117"><ele>335.0</ele><time>2026-03-27T10:50:22.645Z</time></trkpt><trkpt lat="44.7080033" lon="9.3770567"><ele>335.0</ele><time>2026-03-27T10:50:23.647Z</time></trkpt><trkpt lat="44.70796" lon="9.376935"><ele>335.0</ele><time>2026-03-27T10:50:24.648Z</time></trkpt><trkpt lat="44.7078633" lon="9.3768717"><ele>335.0</ele><time>2026-03-27T10:50:25.649Z</time></trkpt><trkpt lat="44.70775" lon="9.3768233"><ele>337.5</ele><time>2026-03-27T10:50:26.648Z</time></trkpt><trkpt lat="44.707625" lon="9.3768233"><ele>340.0</ele><time>2026-03-27T10:50:27.647Z</time></trkpt><trkpt lat="44.7075" lon="9.3768367"><ele>342.5</ele><time>2026-03-27T10:50:28.648Z</time></trkpt><trkpt lat="44.7073667" lon="9.3768533"><ele>345.0</ele><time>2026-03-27T10:50:29.646Z</time></trkpt><trkpt lat="44.707245" lon="9.376865"><ele>345.0</ele><time>2026-03-27T10:50:30.646Z</time></trkpt><trkpt lat="44.7071417" lon="9.3769033"><ele>345.0</ele><time>2026-03-27T10:50:31.647Z</time></trkpt><trkpt lat="44.7070517" lon="9.37698"><ele>345.0</ele><time>2026-03-27T10:50:32.646Z</time></trkpt><trkpt lat="44.7069683" lon="9.37708"><ele>345.0</ele><time>2026-03-27T10:50:33.647Z</time></trkpt><trkpt lat="44.7068733" lon="9.3771583"><ele>345.0</ele><time>2026-03-27T10:50:34.647Z</time></trkpt><trkpt lat="44.7068" lon="9.3772633"><ele>345.8</ele><time>2026-03-27T10:50:35.646Z</time></trkpt><trkpt lat="44.7067283" lon="9.3773183"><ele>346.6</ele><time>2026-03-27T10:50:36.646Z</time></trkpt><trkpt lat="44.70665" lon="9.3773367"><ele>347.4</ele><time>2026-03-27T10:50:37.647Z</time></trkpt><trkpt lat="44.706555" lon="9.3773017"><ele>348.2</ele><time>2026-03-27T10:50:38.648Z</time></trkpt><trkpt lat="44.706455" lon="9.377235"><ele>349.0</ele><time>2026-03-27T10:50:39.648Z</time></trkpt><trkpt lat="44.7063517" lon="9.3771517"><ele>349.0</ele><time>2026-03-27T10:50:40.646Z</time></trkpt><trkpt lat="44.70626" lon="9.3770667"><ele>349.0</ele><time>2026-03-27T10:50:41.646Z</time></trkpt><trkpt lat="44.7061733" lon="9.37698"><ele>349.0</ele><time>2026-03-27T10:50:42.646Z</time></trkpt><trkpt lat="44.706095" lon="9.376895"><ele>349.0</ele><time>2026-03-27T10:50:43.648Z</time></trkpt><trkpt lat="44.70602" lon="9.37681"><ele>349.0</ele><time>2026-03-27T10:50:44.648Z</time></trkpt><trkpt lat="44.7059483" lon="9.3767283"><ele>348.25</ele><time>2026-03-27T10:50:45.648Z</time></trkpt><trkpt lat="44.705875" lon="9.3766317"><ele>347.5</ele><time>2026-03-27T10:50:46.648Z</time></trkpt><trkpt lat="44.7058033" lon="9.3765083"><ele>346.75</ele><time>2026-03-27T10:50:47.646Z</time></trkpt><trkpt lat="44.7057367" lon="9.3763617"><ele>346.0</ele><time>2026-03-27T10:50:48.645Z</time></trkpt><trkpt lat="44.705675" lon="9.3761917"><ele>347.75</ele><time>2026-03-27T10:50:49.648Z</time></trkpt><trkpt lat="44.7056117" lon="9.3760133"><ele>349.5</ele><time>2026-03-27T10:50:50.647Z</time></trkpt><trkpt lat="44.7055517" lon="9.3758333"><ele>351.25</ele><time>2026-03-27T10:50:51.646Z</time></trkpt><trkpt lat="44.7055133" lon="9.3756467"><ele>353.0</ele><time>2026-03-27T10:50:52.645Z</time></trkpt><trkpt lat="44.70551" lon="9.3754667"><ele>354.0</ele><time>2026-03-27T10:50:53.647Z</time></trkpt><trkpt lat="44.7055333" lon="9.375285"><ele>355.0</ele><time>2026-03-27T10:50:54.651Z</time></trkpt><trkpt lat="44.70558" lon="9.375105"><ele>356.0</ele><time>2026-03-27T10:50:55.646Z</time></trkpt><trkpt lat="44.7056283" lon="9.3749183"><ele>357.0</ele><time>2026-03-27T10:50:56.651Z</time></trkpt><trkpt lat="44.7056783" lon="9.3747283"><ele>358.0</ele><time>2026-03-27T10:50:57.647Z</time></trkpt><trkpt lat="44.7057317" lon="9.3745383"><ele>359.0</ele><time>2026-03-27T10:50:58.647Z</time></trkpt><trkpt lat="44.7057717" lon="9.3743517"><ele>360.0</ele><time>2026-03-27T10:50:59.646Z</time></trkpt><trkpt lat="44.7057933" lon="9.37416"><ele>361.0</ele><time>2026-03-27T10:51:00.646Z</time></trkpt><trkpt lat="44.7057767" lon="9.3739783"><ele>365.5</ele><time>2026-03-27T10:51:01.647Z</time></trkpt><trkpt lat="44.7057233" lon="9.3738"><ele>370.0</ele><time>2026-03-27T10:51:02.647Z</time></trkpt><trkpt lat="44.7056383" lon="9.37363"><ele>374.5</ele><time>2026-03-27T10:51:03.646Z</time></trkpt><trkpt lat="44.7055283" lon="9.3734633"><ele>379.0</ele><time>2026-03-27T10:51:04.649Z</time></trkpt><trkpt lat="44.7054167" lon="9.3733033"><ele>379.0</ele><time>2026-03-27T10:51:05.649Z</time></trkpt><trkpt lat="44.705315" lon="9.3731583"><ele>379.0</ele><time>2026-03-27T10:51:06.646Z</time></trkpt><trkpt lat="44.7052117" lon="9.3730517"><ele>379.0</ele><time>2026-03-27T10:51:07.646Z</time></trkpt><trkpt lat="44.7050967" lon="9.3729933"><ele>379.0</ele><time>2026-03-27T10:51:08.647Z</time></trkpt><trkpt lat="44.704965" lon="9.3729533"><ele>380.75</ele><time>2026-03-27T10:51:09.646Z</time></trkpt><trkpt lat="44.7048283" lon="9.372895"><ele>382.5</ele><time>2026-03-27T10:51:10.648Z</time></trkpt><trkpt lat="44.70468" lon="9.3728367"><ele>384.25</ele><time>2026-03-27T10:51:11.646Z</time></trkpt><trkpt lat="44.7045317" lon="9.3728067"><ele>386.0</ele><time>2026-03-27T10:51:12.648Z</time></trkpt><trkpt lat="44.70439" lon="9.37282"><ele>386.0</ele><time>2026-03-27T10:51:13.648Z</time></trkpt><trkpt lat="44.7042533" lon="9.3728467"><ele>386.0</ele><time>2026-03-27T10:51:14.647Z</time></trkpt><trkpt lat="44.7041283" lon="9.372855"><ele>386.0</ele><time>2026-03-27T10:51:15.647Z</time></trkpt><trkpt lat="44.7040067" lon="9.372815"><ele>386.0</ele><time>2026-03-27T10:51:16.646Z</time></trkpt><trkpt lat="44.7038933" lon="9.3727417"><ele>386.0</ele><time>2026-03-27T10:51:17.646Z</time></trkpt><trkpt lat="44.7037767" lon="9.3726483"><ele>386.0</ele><time>2026-03-27T10:51:18.649Z</time></trkpt><trkpt lat="44.7036683" lon="9.3725333"><ele>386.0</ele><time>2026-03-27T10:51:19.648Z</time></trkpt><trkpt lat="44.7035717" lon="9.3723933"><ele>386.0</ele><time>2026-03-27T10:51:20.65Z</time></trkpt><trkpt lat="44.7034917" lon="9.3722417"><ele>386.5</ele><time>2026-03-27T10:51:21.647Z</time></trkpt><trkpt lat="44.7034167" lon="9.37209"><ele>387.0</ele><time>2026-03-27T10:51:22.648Z</time></trkpt><trkpt lat="44.7033367" lon="9.371945"><ele>387.5</ele><time>2026-03-27T10:51:23.647Z</time></trkpt><trkpt lat="44.703255" lon="9.37181"><ele>388.0</ele><time>2026-03-27T10:51:24.648Z</time></trkpt><trkpt lat="44.70317" lon="9.3716933"><ele>388.0</ele><time>2026-03-27T10:51:25.647Z</time></trkpt><trkpt lat="44.7030767" lon="9.3715917"><ele>388.0</ele><time>2026-03-27T10:51:26.647Z</time></trkpt><trkpt lat="44.7029717" lon="9.3715167"><ele>388.0</ele><time>2026-03-27T10:51:27.648Z</time></trkpt><trkpt lat="44.70286" lon="9.37146"><ele>388.0</ele><time>2026-03-27T10:51:28.647Z</time></trkpt><trkpt lat="44.702745" lon="9.3714067"><ele>391.0</ele><time>2026-03-27T10:51:29.647Z</time></trkpt><trkpt lat="44.70263" lon="9.3713567"><ele>394.0</ele><time>2026-03-27T10:51:30.646Z</time></trkpt><trkpt lat="44.7025117" lon="9.3713117"><ele>397.0</ele><time>2026-03-27T10:51:31.648Z</time></trkpt><trkpt lat="44.7023967" lon="9.3712767"><ele>400.0</ele><time>2026-03-27T10:51:32.647Z</time></trkpt><trkpt lat="44.7022883" lon="9.3712483"><ele>400.0</ele><time>2026-03-27T10:51:33.647Z</time></trkpt><trkpt lat="44.7021867" lon="9.371215"><ele>400.0</ele><time>2026-03-27T10:51:34.649Z</time></trkpt><trkpt lat="44.70208" lon="9.3711767"><ele>400.0</ele><time>2026-03-27T10:51:35.648Z</time></trkpt><trkpt lat="44.701975" lon="9.3711033"><ele>400.0</ele><time>2026-03-27T10:51:36.648Z</time></trkpt><trkpt lat="44.70188" lon="9.370995"><ele>397.0</ele><time>2026-03-27T10:51:37.646Z</time></trkpt><trkpt lat="44.7018" lon="9.3708633"><ele>394.0</ele><time>2026-03-27T10:51:38.646Z</time></trkpt><trkpt lat="44.7017617" lon="9.3707017"><ele>391.0</ele><time>2026-03-27T10:51:39.647Z</time></trkpt><trkpt lat="44.7017517" lon="9.3705317"><ele>388.0</ele><time>2026-03-27T10:51:40.646Z</time></trkpt><trkpt lat="44.7017867" lon="9.370355"><ele>388.0</ele><time>2026-03-27T10:51:41.647Z</time></trkpt><trkpt lat="44.7018367" lon="9.3701983"><ele>388.0</ele><time>2026-03-27T10:51:42.647Z</time></trkpt><trkpt lat="44.701875" lon="9.3700533"><ele>388.0</ele><time>2026-03-27T10:51:43.646Z</time></trkpt><trkpt lat="44.7018767" lon="9.3699133"><ele>388.0</ele><time>2026-03-27T10:51:44.646Z</time></trkpt><trkpt lat="44.701845" lon="9.36977"><ele>388.0</ele><time>2026-03-27T10:51:45.648Z</time></trkpt><trkpt lat="44.7017933" lon="9.36963"><ele>391.79999999999995</ele><time>2026-03-27T10:51:46.646Z</time></trkpt><trkpt lat="44.701745" lon="9.36949"><ele>395.6</ele><time>2026-03-27T10:51:47.646Z</time></trkpt><trkpt lat="44.7017117" lon="9.369345"><ele>399.4</ele><time>2026-03-27T10:51:48.645Z</time></trkpt><trkpt lat="44.70169" lon="9.3691917"><ele>403.20000000000005</ele><time>2026-03-27T10:51:49.646Z</time></trkpt><trkpt lat="44.7016583" lon="9.3690433"><ele>407.0</ele><time>2026-03-27T10:51:50.646Z</time></trkpt><trkpt lat="44.70161" lon="9.368905"><ele>412.5</ele><time>2026-03-27T10:51:51.646Z</time></trkpt><trkpt lat="44.7015333" lon="9.3687883"><ele>418.0</ele><time>2026-03-27T10:51:52.646Z</time></trkpt><trkpt lat="44.7014517" lon="9.368675"><ele>423.5</ele><time>2026-03-27T10:51:53.646Z</time></trkpt><trkpt lat="44.7013733" lon="9.3685467"><ele>429.0</ele><time>2026-03-27T10:51:54.648Z</time></trkpt><trkpt lat="44.70132" lon="9.3684133"><ele>429.0</ele><time>2026-03-27T10:51:55.647Z</time></trkpt><trkpt lat="44.7012733" lon="9.368275"><ele>429.0</ele><time>2026-03-27T10:51:56.646Z</time></trkpt><trkpt lat="44.70122" lon="9.36814"><ele>429.0</ele><time>2026-03-27T10:51:57.647Z</time></trkpt><trkpt lat="44.701165" lon="9.3680033"><ele>429.0</ele><time>2026-03-27T10:51:58.647Z</time></trkpt><trkpt lat="44.7010933" lon="9.3678733"><ele>429.0</ele><time>2026-03-27T10:51:59.647Z</time></trkpt><trkpt lat="44.7010017" lon="9.3677683"><ele>426.2</ele><time>2026-03-27T10:52:00.648Z</time></trkpt><trkpt lat="44.7009083" lon="9.3676767"><ele>423.4</ele><time>2026-03-27T10:52:01.646Z</time></trkpt><trkpt lat="44.7008217" lon="9.3675933"><ele>420.6</ele><time>2026-03-27T10:52:02.648Z</time></trkpt><trkpt lat="44.7007333" lon="9.3675067"><ele>417.8</ele><time>2026-03-27T10:52:03.648Z</time></trkpt><trkpt lat="44.7006433" lon="9.3674133"><ele>415.0</ele><time>2026-03-27T10:52:04.646Z</time></trkpt><trkpt lat="44.70056" lon="9.3673083"><ele>419.0</ele><time>2026-03-27T10:52:05.648Z</time></trkpt><trkpt lat="44.7004967" lon="9.3671867"><ele>423.0</ele><time>2026-03-27T10:52:06.646Z</time></trkpt><trkpt lat="44.700455" lon="9.367055"><ele>427.0</ele><time>2026-03-27T10:52:07.647Z</time></trkpt><trkpt lat="44.7004467" lon="9.3669117"><ele>431.0</ele><time>2026-03-27T10:52:08.647Z</time></trkpt><trkpt lat="44.7004617" lon="9.366775"><ele>435.0</ele><time>2026-03-27T10:52:09.649Z</time></trkpt><trkpt lat="44.7004867" lon="9.3666483"><ele>435.0</ele><time>2026-03-27T10:52:10.647Z</time></trkpt><trkpt lat="44.7004967" lon="9.36653"><ele>435.0</ele><time>2026-03-27T10:52:11.649Z</time></trkpt><trkpt lat="44.70049" lon="9.366405"><ele>435.0</ele><time>2026-03-27T10:52:12.647Z</time></trkpt><trkpt lat="44.7004683" lon="9.3662833"><ele>435.0</ele><time>2026-03-27T10:52:13.646Z</time></trkpt><trkpt lat="44.70043" lon="9.3661733"><ele>435.0</ele><time>2026-03-27T10:52:14.648Z</time></trkpt><trkpt lat="44.7003817" lon="9.366085"><ele>435.0</ele><time>2026-03-27T10:52:15.647Z</time></trkpt><trkpt lat="44.7002233" lon="9.3661217"><ele>437.0</ele><time>2026-03-27T10:52:16.648Z</time></trkpt><trkpt lat="44.7000867" lon="9.366155"><ele>439.0</ele><time>2026-03-27T10:52:17.647Z</time></trkpt><trkpt lat="44.6999083" lon="9.3662133"><ele>441.0</ele><time>2026-03-27T10:52:18.647Z</time></trkpt><trkpt lat="44.6997033" lon="9.36627"><ele>441.0</ele><time>2026-03-27T10:52:19.646Z</time></trkpt><trkpt lat="44.6995333" lon="9.36631"><ele>441.0</ele><time>2026-03-27T10:52:20.646Z</time></trkpt><trkpt lat="44.699385" lon="9.3663283"><ele>441.0</ele><time>2026-03-27T10:52:21.647Z</time></trkpt><trkpt lat="44.69926" lon="9.3662983"><ele>441.0</ele><time>2026-03-27T10:52:22.646Z</time></trkpt><trkpt lat="44.6991467" lon="9.3662217"><ele>437.4</ele><time>2026-03-27T10:52:23.646Z</time></trkpt><trkpt lat="44.6990383" lon="9.3661333"><ele>433.8</ele><time>2026-03-27T10:52:24.648Z</time></trkpt><trkpt lat="44.69894" lon="9.3660567"><ele>430.2</ele><time>2026-03-27T10:52:25.648Z</time></trkpt><trkpt lat="44.69887" lon="9.3659733"><ele>426.59999999999997</ele><time>2026-03-27T10:52:26.646Z</time></trkpt><trkpt lat="44.6988267" lon="9.3658817"><ele>423.0</ele><time>2026-03-27T10:52:27.647Z</time></trkpt><trkpt lat="44.6988183" lon="9.3657667"><ele>423.0</ele><time>2026-03-27T10:52:28.646Z</time></trkpt><trkpt lat="44.69882" lon="9.3656283"><ele>423.0</ele><time>2026-03-27T10:52:29.646Z</time></trkpt><trkpt lat="44.6988017" lon="9.3654633"><ele>423.0</ele><time>2026-03-27T10:52:30.646Z</time></trkpt><trkpt lat="44.6987483" lon="9.365285"><ele>423.0</ele><time>2026-03-27T10:52:31.649Z</time></trkpt><trkpt lat="44.69868" lon="9.3651083"><ele>421.5</ele><time>2026-03-27T10:52:32.646Z</time></trkpt><trkpt lat="44.6986083" lon="9.364955"><ele>420.0</ele><time>2026-03-27T10:52:33.648Z</time></trkpt><trkpt lat="44.6985183" lon="9.3648433"><ele>418.5</ele><time>2026-03-27T10:52:34.649Z</time></trkpt><trkpt lat="44.69841" lon="9.3647867"><ele>417.0</ele><time>2026-03-27T10:52:35.647Z</time></trkpt><trkpt lat="44.6982983" lon="9.3647733"><ele>417.0</ele><time>2026-03-27T10:52:36.647Z</time></trkpt><trkpt lat="44.6981867" lon="9.3647417"><ele>417.0</ele><time>2026-03-27T10:52:37.646Z</time></trkpt><trkpt lat="44.6980817" lon="9.36466"><ele>417.0</ele><time>2026-03-27T10:52:38.647Z</time></trkpt><trkpt lat="44.697985" lon="9.364545"><ele>417.0</ele><time>2026-03-27T10:52:39.649Z</time></trkpt><trkpt lat="44.697915" lon="9.3643967"><ele>421.5</ele><time>2026-03-27T10:52:40.646Z</time></trkpt><trkpt lat="44.6978533" lon="9.3642433"><ele>426.0</ele><time>2026-03-27T10:52:41.646Z</time></trkpt><trkpt lat="44.6977767" lon="9.3641167"><ele>430.5</ele><time>2026-03-27T10:52:42.647Z</time></trkpt><trkpt lat="44.6976783" lon="9.3640333"><ele>435.0</ele><time>2026-03-27T10:52:43.647Z</time></trkpt><trkpt lat="44.697555" lon="9.3639983"><ele>435.0</ele><time>2026-03-27T10:52:44.648Z</time></trkpt><trkpt lat="44.697415" lon="9.3639817"><ele>435.0</ele><time>2026-03-27T10:52:45.647Z</time></trkpt><trkpt lat="44.6972817" lon="9.3639533"><ele>435.0</ele><time>2026-03-27T10:52:46.65Z</time></trkpt><trkpt lat="44.6971483" lon="9.3639233"><ele>435.0</ele><time>2026-03-27T10:52:47.646Z</time></trkpt><trkpt lat="44.697015" lon="9.3639217"><ele>437.25</ele><time>2026-03-27T10:52:48.649Z</time></trkpt><trkpt lat="44.696885" lon="9.3639617"><ele>439.5</ele><time>2026-03-27T10:52:49.646Z</time></trkpt><trkpt lat="44.69675" lon="9.36399"><ele>441.75</ele><time>2026-03-27T10:52:50.647Z</time></trkpt><trkpt lat="44.6966067" lon="9.3639867"><ele>444.0</ele><time>2026-03-27T10:52:51.647Z</time></trkpt><trkpt lat="44.6964583" lon="9.3639683"><ele>444.0</ele><time>2026-03-27T10:52:52.646Z</time></trkpt><trkpt lat="44.6963017" lon="9.3639483"><ele>444.0</ele><time>2026-03-27T10:52:53.646Z</time></trkpt><trkpt lat="44.69614" lon="9.3639267"><ele>444.0</ele><time>2026-03-27T10:52:54.646Z</time></trkpt><trkpt lat="44.695985" lon="9.3638883"><ele>457.0</ele><time>2026-03-27T10:52:55.647Z</time></trkpt><trkpt lat="44.6958383" lon="9.3638333"><ele>470.0</ele><time>2026-03-27T10:52:56.646Z</time></trkpt><trkpt lat="44.6956933" lon="9.363785"><ele>483.0</ele><time>2026-03-27T10:52:57.647Z</time></trkpt><trkpt lat="44.6955333" lon="9.36378"><ele>483.0</ele><time>2026-03-27T10:52:58.646Z</time></trkpt><trkpt lat="44.6953617" lon="9.3638017"><ele>483.0</ele><time>2026-03-27T10:52:59.646Z</time></trkpt><trkpt lat="44.6951867" lon="9.36383"><ele>483.0</ele><time>2026-03-27T10:53:00.645Z</time></trkpt><trkpt lat="44.6950133" lon="9.363855"><ele>473.75</ele><time>2026-03-27T10:53:01.646Z</time></trkpt><trkpt lat="44.694855" lon="9.3638817"><ele>464.5</ele><time>2026-03-27T10:53:02.647Z</time></trkpt><trkpt lat="44.69471" lon="9.3639133"><ele>455.25</ele><time>2026-03-27T10:53:03.646Z</time></trkpt><trkpt lat="44.69458" lon="9.3639483"><ele>446.0</ele><time>2026-03-27T10:53:04.646Z</time></trkpt><trkpt lat="44.69446" lon="9.3639867"><ele>444.8</ele><time>2026-03-27T10:53:05.645Z</time></trkpt><trkpt lat="44.694355" lon="9.3640017"><ele>443.6</ele><time>2026-03-27T10:53:06.647Z</time></trkpt><trkpt lat="44.69428" lon="9.36397"><ele>442.4</ele><time>2026-03-27T10:53:07.646Z</time></trkpt><trkpt lat="44.6942717" lon="9.363815"><ele>441.2</ele><time>2026-03-27T10:53:09.645Z</time></trkpt><trkpt lat="44.69432" lon="9.36374"><ele>440.0</ele><time>2026-03-27T10:53:10.647Z</time></trkpt><trkpt lat="44.6944117" lon="9.3636817"><ele>446.0</ele><time>2026-03-27T10:53:11.645Z</time></trkpt><trkpt lat="44.6944983" lon="9.36362"><ele>452.0</ele><time>2026-03-27T10:53:12.646Z</time></trkpt><trkpt lat="44.6945733" lon="9.36353"><ele>458.0</ele><time>2026-03-27T10:53:13.646Z</time></trkpt><trkpt lat="44.6946117" lon="9.3634233"><ele>464.0</ele><time>2026-03-27T10:53:14.646Z</time></trkpt><trkpt lat="44.6946283" lon="9.3633133"><ele>470.0</ele><time>2026-03-27T10:53:15.648Z</time></trkpt><trkpt lat="44.69461" lon="9.3631817"><ele>467.75</ele><time>2026-03-27T10:53:16.645Z</time></trkpt><trkpt lat="44.6946" lon="9.3630233"><ele>465.5</ele><time>2026-03-27T10:53:17.647Z</time></trkpt><trkpt lat="44.6946267" lon="9.3628417"><ele>463.25</ele><time>2026-03-27T10:53:18.647Z</time></trkpt><trkpt lat="44.69469" lon="9.362665"><ele>461.0</ele><time>2026-03-27T10:53:19.649Z</time></trkpt><trkpt lat="44.6947817" lon="9.3624967"><ele>461.0</ele><time>2026-03-27T10:53:20.648Z</time></trkpt><trkpt lat="44.6948933" lon="9.3623583"><ele>461.0</ele><time>2026-03-27T10:53:21.649Z</time></trkpt><trkpt lat="44.695025" lon="9.36226"><ele>461.0</ele><time>2026-03-27T10:53:22.648Z</time></trkpt><trkpt lat="44.6951517" lon="9.362185"><ele>461.0</ele><time>2026-03-27T10:53:23.649Z</time></trkpt><trkpt lat="44.6952633" lon="9.3621067"><ele>466.75</ele><time>2026-03-27T10:53:24.648Z</time></trkpt><trkpt lat="44.6953467" lon="9.3619833"><ele>472.5</ele><time>2026-03-27T10:53:25.647Z</time></trkpt><trkpt lat="44.6953817" lon="9.3618317"><ele>478.25</ele><time>2026-03-27T10:53:26.647Z</time></trkpt><trkpt lat="44.695375" lon="9.3616567"><ele>484.0</ele><time>2026-03-27T10:53:27.645Z</time></trkpt><trkpt lat="44.6953417" lon="9.3614733"><ele>482.5</ele><time>2026-03-27T10:53:28.646Z</time></trkpt><trkpt lat="44.6952983" lon="9.3612933"><ele>481.0</ele><time>2026-03-27T10:53:29.646Z</time></trkpt><trkpt lat="44.6952783" lon="9.3611083"><ele>479.5</ele><time>2026-03-27T10:53:30.646Z</time></trkpt><trkpt lat="44.6952867" lon="9.3609167"><ele>478.0</ele><time>2026-03-27T10:53:31.646Z</time></trkpt><trkpt lat="44.6953267" lon="9.3607083"><ele>478.6666666666667</ele><time>2026-03-27T10:53:32.651Z</time></trkpt><trkpt lat="44.6953817" lon="9.360505"><ele>479.33333333333337</ele><time>2026-03-27T10:53:33.646Z</time></trkpt><trkpt lat="44.69544" lon="9.3602983"><ele>480.0</ele><time>2026-03-27T10:53:34.646Z</time></trkpt><trkpt lat="44.6955" lon="9.3600967"><ele>480.0</ele><time>2026-03-27T10:53:35.646Z</time></trkpt><trkpt lat="44.6955467" lon="9.3598967"><ele>480.0</ele><time>2026-03-27T10:53:36.646Z</time></trkpt><trkpt lat="44.6955783" lon="9.3596917"><ele>480.0</ele><time>2026-03-27T10:53:37.647Z</time></trkpt><trkpt lat="44.695575" lon="9.359505"><ele>480.0</ele><time>2026-03-27T10:53:38.647Z</time></trkpt><trkpt lat="44.6955367" lon="9.3593483"><ele>480.5</ele><time>2026-03-27T10:53:39.647Z</time></trkpt><trkpt lat="44.6954767" lon="9.3592067"><ele>481.0</ele><time>2026-03-27T10:53:40.646Z</time></trkpt><trkpt lat="44.6953733" lon="9.3591167"><ele>481.5</ele><time>2026-03-27T10:53:41.646Z</time></trkpt><trkpt lat="44.6952467" lon="9.3590867"><ele>482.0</ele><time>2026-03-27T10:53:42.647Z</time></trkpt><trkpt lat="44.6950983" lon="9.3591233"><ele>479.0</ele><time>2026-03-27T10:53:43.647Z</time></trkpt><trkpt lat="44.6949467" lon="9.359175"><ele>476.0</ele><time>2026-03-27T10:53:44.647Z</time></trkpt><trkpt lat="44.6947983" lon="9.3592217"><ele>473.0</ele><time>2026-03-27T10:53:45.646Z</time></trkpt><trkpt lat="44.694655" lon="9.3592633"><ele>473.0</ele><time>2026-03-27T10:53:46.646Z</time></trkpt><trkpt lat="44.6945283" lon="9.3592733"><ele>473.0</ele><time>2026-03-27T10:53:47.648Z</time></trkpt><trkpt lat="44.6944267" lon="9.359235"><ele>473.0</ele><time>2026-03-27T10:53:48.65Z</time></trkpt><trkpt lat="44.69434" lon="9.3591433"><ele>473.0</ele><time>2026-03-27T10:53:49.647Z</time></trkpt><trkpt lat="44.6942583" lon="9.35901"><ele>471.5</ele><time>2026-03-27T10:53:50.648Z</time></trkpt><trkpt lat="44.69418" lon="9.358875"><ele>470.0</ele><time>2026-03-27T10:53:51.647Z</time></trkpt><trkpt lat="44.6940983" lon="9.3587433"><ele>468.5</ele><time>2026-03-27T10:53:52.647Z</time></trkpt><trkpt lat="44.694015" lon="9.358615"><ele>467.0</ele><time>2026-03-27T10:53:53.651Z</time></trkpt><trkpt lat="44.6939483" lon="9.3584867"><ele>467.0</ele><time>2026-03-27T10:53:54.647Z</time></trkpt><trkpt lat="44.6939133" lon="9.3583567"><ele>467.0</ele><time>2026-03-27T10:53:55.645Z</time></trkpt><trkpt lat="44.6939167" lon="9.358215"><ele>467.0</ele><time>2026-03-27T10:53:56.647Z</time></trkpt><trkpt lat="44.6939667" lon="9.3580617"><ele>467.0</ele><time>2026-03-27T10:53:57.648Z</time></trkpt><trkpt lat="44.69404" lon="9.3579033"><ele>473.3333333333333</ele><time>2026-03-27T10:53:58.646Z</time></trkpt><trkpt lat="44.6941433" lon="9.3577567"><ele>479.66666666666663</ele><time>2026-03-27T10:53:59.647Z</time></trkpt><trkpt lat="44.6942933" lon="9.3576567"><ele>486.0</ele><time>2026-03-27T10:54:00.646Z</time></trkpt><trkpt lat="44.694425" lon="9.357565"><ele>486.0</ele><time>2026-03-27T10:54:01.648Z</time></trkpt><trkpt lat="44.6945467" lon="9.3574583"><ele>486.0</ele><time>2026-03-27T10:54:02.647Z</time></trkpt><trkpt lat="44.6946367" lon="9.3572917"><ele>486.0</ele><time>2026-03-27T10:54:03.646Z</time></trkpt><trkpt lat="44.6947067" lon="9.357085"><ele>481.66666666666663</ele><time>2026-03-27T10:54:04.646Z</time></trkpt><trkpt lat="44.6947683" lon="9.3568633"><ele>477.3333333333333</ele><time>2026-03-27T10:54:05.647Z</time></trkpt><trkpt lat="44.694825" lon="9.3566467"><ele>473.0</ele><time>2026-03-27T10:54:06.647Z</time></trkpt><trkpt lat="44.694865" lon="9.3564383"><ele>472.25</ele><time>2026-03-27T10:54:07.645Z</time></trkpt><trkpt lat="44.69489" lon="9.3562433"><ele>471.5</ele><time>2026-03-27T10:54:08.646Z</time></trkpt><trkpt lat="44.694895" lon="9.3560717"><ele>470.75</ele><time>2026-03-27T10:54:09.646Z</time></trkpt><trkpt lat="44.69487" lon="9.3559233"><ele>470.0</ele><time>2026-03-27T10:54:10.645Z</time></trkpt><trkpt lat="44.69482" lon="9.355815"><ele>470.0</ele><time>2026-03-27T10:54:11.645Z</time></trkpt><trkpt lat="44.6947633" lon="9.3557017"><ele>470.0</ele><time>2026-03-27T10:54:12.646Z</time></trkpt><trkpt lat="44.694725" lon="9.355575"><ele>470.0</ele><time>2026-03-27T10:54:13.647Z</time></trkpt><trkpt lat="44.6947267" lon="9.355415"><ele>470.0</ele><time>2026-03-27T10:54:14.65Z</time></trkpt><trkpt lat="44.6947633" lon="9.355225"><ele>469.25</ele><time>2026-03-27T10:54:15.646Z</time></trkpt><trkpt lat="44.6947983" lon="9.3550433"><ele>468.5</ele><time>2026-03-27T10:54:16.65Z</time></trkpt><trkpt lat="44.694835" lon="9.35487"><ele>467.75</ele><time>2026-03-27T10:54:17.646Z</time></trkpt><trkpt lat="44.6948517" lon="9.354695"><ele>467.0</ele><time>2026-03-27T10:54:18.646Z</time></trkpt><trkpt lat="44.6948267" lon="9.3545317"><ele>469.75</ele><time>2026-03-27T10:54:19.649Z</time></trkpt><trkpt lat="44.69477" lon="9.35438"><ele>472.5</ele><time>2026-03-27T10:54:20.648Z</time></trkpt><trkpt lat="44.6947083" lon="9.3542333"><ele>475.25</ele><time>2026-03-27T10:54:21.646Z</time></trkpt><trkpt lat="44.69467" lon="9.3540767"><ele>478.0</ele><time>2026-03-27T10:54:22.646Z</time></trkpt><trkpt lat="44.6946667" lon="9.3538933"><ele>475.0</ele><time>2026-03-27T10:54:23.646Z</time></trkpt><trkpt lat="44.6946633" lon="9.3537233"><ele>471.99999999999994</ele><time>2026-03-27T10:54:24.646Z</time></trkpt><trkpt lat="44.694645" lon="9.3535733"><ele>468.99999999999994</ele><time>2026-03-27T10:54:25.647Z</time></trkpt><trkpt lat="44.6945833" lon="9.3534617"><ele>466.0</ele><time>2026-03-27T10:54:26.647Z</time></trkpt><trkpt lat="44.6945" lon="9.3534017"><ele>463.0</ele><time>2026-03-27T10:54:27.649Z</time></trkpt><trkpt lat="44.69441" lon="9.3533667"><ele>463.0</ele><time>2026-03-27T10:54:28.646Z</time></trkpt><trkpt lat="44.69427" lon="9.3533983"><ele>463.0</ele><time>2026-03-27T10:54:29.647Z</time></trkpt><trkpt lat="44.69414" lon="9.35343"><ele>463.0</ele><time>2026-03-27T10:54:30.647Z</time></trkpt><trkpt lat="44.69402" lon="9.35345"><ele>463.0</ele><time>2026-03-27T10:54:31.647Z</time></trkpt><trkpt lat="44.69392" lon="9.3534167"><ele>463.0</ele><time>2026-03-27T10:54:32.647Z</time></trkpt><trkpt lat="44.6938367" lon="9.353335"><ele>462.99999999999994</ele><time>2026-03-27T10:54:33.646Z</time></trkpt><trkpt lat="44.69375" lon="9.35325"><ele>462.99999999999994</ele><time>2026-03-27T10:54:34.646Z</time></trkpt><trkpt lat="44.693655" lon="9.3532033"><ele>463.0</ele><time>2026-03-27T10:54:35.646Z</time></trkpt><trkpt lat="44.69354" lon="9.353215"><ele>463.0</ele><time>2026-03-27T10:54:36.647Z</time></trkpt><trkpt lat="44.693435" lon="9.3532117"><ele>459.0</ele><time>2026-03-27T10:54:37.648Z</time></trkpt><trkpt lat="44.693335" lon="9.3531717"><ele>454.99999999999994</ele><time>2026-03-27T10:54:38.647Z</time></trkpt><trkpt lat="44.6932633" lon="9.353075"><ele>450.99999999999994</ele><time>2026-03-27T10:54:39.646Z</time></trkpt><trkpt lat="44.693235" lon="9.3529433"><ele>447.0</ele><time>2026-03-27T10:54:40.646Z</time></trkpt><trkpt lat="44.6932583" lon="9.3527833"><ele>443.0</ele><time>2026-03-27T10:54:41.649Z</time></trkpt><trkpt lat="44.6932783" lon="9.3526083"><ele>443.0</ele><time>2026-03-27T10:54:42.646Z</time></trkpt><trkpt lat="44.6932767" lon="9.3524183"><ele>443.0</ele><time>2026-03-27T10:54:43.647Z</time></trkpt><trkpt lat="44.6932333" lon="9.3522083"><ele>443.0</ele><time>2026-03-27T10:54:44.646Z</time></trkpt><trkpt lat="44.6931483" lon="9.3519967"><ele>451.0</ele><time>2026-03-27T10:54:45.646Z</time></trkpt><trkpt lat="44.693055" lon="9.3517933"><ele>459.0</ele><time>2026-03-27T10:54:46.652Z</time></trkpt><trkpt lat="44.69297" lon="9.3516033"><ele>467.0</ele><time>2026-03-27T10:54:47.646Z</time></trkpt><trkpt lat="44.692915" lon="9.3514217"><ele>471.0</ele><time>2026-03-27T10:54:48.648Z</time></trkpt><trkpt lat="44.6928733" lon="9.3512333"><ele>475.0</ele><time>2026-03-27T10:54:49.645Z</time></trkpt><trkpt lat="44.692805" lon="9.35106"><ele>479.0</ele><time>2026-03-27T10:54:50.647Z</time></trkpt><trkpt lat="44.6926933" lon="9.350905"><ele>483.0</ele><time>2026-03-27T10:54:51.646Z</time></trkpt><trkpt lat="44.692565" lon="9.35075"><ele>478.0</ele><time>2026-03-27T10:54:52.646Z</time></trkpt><trkpt lat="44.692445" lon="9.3505883"><ele>473.0</ele><time>2026-03-27T10:54:53.647Z</time></trkpt><trkpt lat="44.69235" lon="9.350395"><ele>468.0</ele><time>2026-03-27T10:54:54.648Z</time></trkpt><trkpt lat="44.69226" lon="9.350205"><ele>468.0</ele><time>2026-03-27T10:54:55.646Z</time></trkpt><trkpt lat="44.6921633" lon="9.3500417"><ele>468.0</ele><time>2026-03-27T10:54:56.647Z</time></trkpt><trkpt lat="44.6920783" lon="9.34989"><ele>468.0</ele><time>2026-03-27T10:54:57.647Z</time></trkpt><trkpt lat="44.6920183" lon="9.3497383"><ele>468.0</ele><time>2026-03-27T10:54:58.648Z</time></trkpt><trkpt lat="44.6919717" lon="9.34959"><ele>458.75</ele><time>2026-03-27T10:54:59.648Z</time></trkpt><trkpt lat="44.6918967" lon="9.3494733"><ele>449.5</ele><time>2026-03-27T10:55:00.646Z</time></trkpt><trkpt lat="44.6917967" lon="9.3493833"><ele>440.25</ele><time>2026-03-27T10:55:01.646Z</time></trkpt><trkpt lat="44.6916917" lon="9.349305"><ele>431.0</ele><time>2026-03-27T10:55:02.647Z</time></trkpt><trkpt lat="44.6916017" lon="9.3492133"><ele>431.0</ele><time>2026-03-27T10:55:03.647Z</time></trkpt><trkpt lat="44.6915383" lon="9.349105"><ele>431.0</ele><time>2026-03-27T10:55:04.646Z</time></trkpt><trkpt lat="44.691505" lon="9.3489767"><ele>431.0</ele><time>2026-03-27T10:55:05.648Z</time></trkpt><trkpt lat="44.691525" lon="9.3488433"><ele>431.0</ele><time>2026-03-27T10:55:06.648Z</time></trkpt><trkpt lat="44.6915883" lon="9.3487083"><ele>431.0</ele><time>2026-03-27T10:55:07.646Z</time></trkpt><trkpt lat="44.69166" lon="9.348555"><ele>432.0</ele><time>2026-03-27T10:55:08.648Z</time></trkpt><trkpt lat="44.6917217" lon="9.3483883"><ele>433.0</ele><time>2026-03-27T10:55:09.646Z</time></trkpt><trkpt lat="44.6917717" lon="9.348215"><ele>434.0</ele><time>2026-03-27T10:55:10.647Z</time></trkpt><trkpt lat="44.6918033" lon="9.348055"><ele>435.0</ele><time>2026-03-27T10:55:11.646Z</time></trkpt><trkpt lat="44.6918117" lon="9.347905"><ele>436.4</ele><time>2026-03-27T10:55:12.646Z</time></trkpt><trkpt lat="44.691785" lon="9.3477733"><ele>437.8</ele><time>2026-03-27T10:55:13.647Z</time></trkpt><trkpt lat="44.6917167" lon="9.347675"><ele>439.20000000000005</ele><time>2026-03-27T10:55:14.646Z</time></trkpt><trkpt lat="44.6916383" lon="9.3475833"><ele>440.6</ele><time>2026-03-27T10:55:15.646Z</time></trkpt><trkpt lat="44.6915717" lon="9.3474633"><ele>442.0</ele><time>2026-03-27T10:55:16.647Z</time></trkpt><trkpt lat="44.691505" lon="9.347325"><ele>442.6</ele><time>2026-03-27T10:55:17.647Z</time></trkpt><trkpt lat="44.691465" lon="9.3471717"><ele>443.20000000000005</ele><time>2026-03-27T10:55:18.648Z</time></trkpt><trkpt lat="44.6914583" lon="9.3470233"><ele>443.8</ele><time>2026-03-27T10:55:19.648Z</time></trkpt><trkpt lat="44.6914967" lon="9.34689"><ele>444.4</ele><time>2026-03-27T10:55:20.648Z</time></trkpt><trkpt lat="44.69154" lon="9.3467633"><ele>445.0</ele><time>2026-03-27T10:55:21.649Z</time></trkpt><trkpt lat="44.6915683" lon="9.3466283"><ele>445.0</ele><time>2026-03-27T10:55:22.647Z</time></trkpt><trkpt lat="44.691555" lon="9.34649"><ele>445.0</ele><time>2026-03-27T10:55:23.646Z</time></trkpt><trkpt lat="44.6915067" lon="9.3463617"><ele>445.0</ele><time>2026-03-27T10:55:24.647Z</time></trkpt><trkpt lat="44.69141" lon="9.34626"><ele>445.0</ele><time>2026-03-27T10:55:25.646Z</time></trkpt><trkpt lat="44.6913" lon="9.3461433"><ele>445.0</ele><time>2026-03-27T10:55:26.648Z</time></trkpt><trkpt lat="44.6912117" lon="9.3460017"><ele>445.0</ele><time>2026-03-27T10:55:27.646Z</time></trkpt><trkpt lat="44.6911567" lon="9.345835"><ele>445.0</ele><time>2026-03-27T10:55:28.649Z</time></trkpt><trkpt lat="44.6911333" lon="9.3456367"><ele>445.0</ele><time>2026-03-27T10:55:29.646Z</time></trkpt><trkpt lat="44.691125" lon="9.3454333"><ele>445.0</ele><time>2026-03-27T10:55:30.645Z</time></trkpt><trkpt lat="44.6911433" lon="9.3452283"><ele>445.0</ele><time>2026-03-27T10:55:31.646Z</time></trkpt><trkpt lat="44.6911717" lon="9.3450467"><ele>445.0</ele><time>2026-03-27T10:55:32.646Z</time></trkpt><trkpt lat="44.6912217" lon="9.3448933"><ele>445.0</ele><time>2026-03-27T10:55:33.646Z</time></trkpt><trkpt lat="44.6913033" lon="9.34479"><ele>445.0</ele><time>2026-03-27T10:55:34.648Z</time></trkpt><trkpt lat="44.6914217" lon="9.3447333"><ele>445.0</ele><time>2026-03-27T10:55:35.646Z</time></trkpt><trkpt lat="44.6915483" lon="9.3446667"><ele>445.0</ele><time>2026-03-27T10:55:36.648Z</time></trkpt><trkpt lat="44.6916767" lon="9.3445567"><ele>445.0</ele><time>2026-03-27T10:55:37.648Z</time></trkpt><trkpt lat="44.6918083" lon="9.3444217"><ele>444.6666666666667</ele><time>2026-03-27T10:55:38.648Z</time></trkpt><trkpt lat="44.6919533" lon="9.3442883"><ele>444.33333333333337</ele><time>2026-03-27T10:55:39.646Z</time></trkpt><trkpt lat="44.6921117" lon="9.3441517"><ele>444.0</ele><time>2026-03-27T10:55:40.649Z</time></trkpt><trkpt lat="44.6922733" lon="9.343995"><ele>431.66666666666663</ele><time>2026-03-27T10:55:41.646Z</time></trkpt><trkpt lat="44.6924233" lon="9.34382"><ele>419.3333333333333</ele><time>2026-03-27T10:55:42.646Z</time></trkpt><trkpt lat="44.69256" lon="9.3436433"><ele>407.0</ele><time>2026-03-27T10:55:43.646Z</time></trkpt><trkpt lat="44.6926717" lon="9.3434683"><ele>407.0</ele><time>2026-03-27T10:55:44.646Z</time></trkpt><trkpt lat="44.69275" lon="9.3432583"><ele>407.0</ele><time>2026-03-27T10:55:45.647Z</time></trkpt><trkpt lat="44.6928133" lon="9.3430283"><ele>407.0</ele><time>2026-03-27T10:55:46.646Z</time></trkpt><trkpt lat="44.69288" lon="9.3428033"><ele>412.66666666666663</ele><time>2026-03-27T10:55:47.647Z</time></trkpt><trkpt lat="44.6929783" lon="9.3426"><ele>418.33333333333337</ele><time>2026-03-27T10:55:48.647Z</time></trkpt><trkpt lat="44.6930833" lon="9.3424133"><ele>424.0</ele><time>2026-03-27T10:55:49.646Z</time></trkpt><trkpt lat="44.693185" lon="9.3422467"><ele>421.0</ele><time>2026-03-27T10:55:50.648Z</time></trkpt><trkpt lat="44.693285" lon="9.3421067"><ele>418.0</ele><time>2026-03-27T10:55:51.646Z</time></trkpt><trkpt lat="44.6933667" lon="9.341975"><ele>415.0</ele><time>2026-03-27T10:55:52.648Z</time></trkpt><trkpt lat="44.693415" lon="9.341825"><ele>412.0</ele><time>2026-03-27T10:55:53.646Z</time></trkpt><trkpt lat="44.6934267" lon="9.3416617"><ele>412.0</ele><time>2026-03-27T10:55:54.647Z</time></trkpt><trkpt lat="44.6934133" lon="9.3415133"><ele>412.0</ele><time>2026-03-27T10:55:55.646Z</time></trkpt><trkpt lat="44.6933867" lon="9.3413883"><ele>412.0</ele><time>2026-03-27T10:55:56.646Z</time></trkpt><trkpt lat="44.6933317" lon="9.34128"><ele>412.0</ele><time>2026-03-27T10:55:57.646Z</time></trkpt><trkpt lat="44.6932483" lon="9.3412017"><ele>412.0</ele><time>2026-03-27T10:55:58.645Z</time></trkpt><trkpt lat="44.6931467" lon="9.3411467"><ele>418.75</ele><time>2026-03-27T10:55:59.646Z</time></trkpt><trkpt lat="44.6930217" lon="9.3411233"><ele>425.5</ele><time>2026-03-27T10:56:00.646Z</time></trkpt><trkpt lat="44.6928883" lon="9.34112"><ele>432.25</ele><time>2026-03-27T10:56:01.646Z</time></trkpt><trkpt lat="44.6927517" lon="9.3411517"><ele>439.0</ele><time>2026-03-27T10:56:02.648Z</time></trkpt><trkpt lat="44.6926267" lon="9.34123"><ele>439.0</ele><time>2026-03-27T10:56:03.648Z</time></trkpt><trkpt lat="44.6925117" lon="9.341355"><ele>439.0</ele><time>2026-03-27T10:56:04.646Z</time></trkpt><trkpt lat="44.6924067" lon="9.3415283"><ele>439.0</ele><time>2026-03-27T10:56:05.648Z</time></trkpt><trkpt lat="44.6923" lon="9.3416933"><ele>432.5</ele><time>2026-03-27T10:56:06.646Z</time></trkpt><trkpt lat="44.6922033" lon="9.3418483"><ele>426.0</ele><time>2026-03-27T10:56:07.646Z</time></trkpt><trkpt lat="44.6921183" lon="9.3419833"><ele>419.5</ele><time>2026-03-27T10:56:08.646Z</time></trkpt><trkpt lat="44.69204" lon="9.3421117"><ele>413.0</ele><time>2026-03-27T10:56:09.648Z</time></trkpt><trkpt lat="44.691945" lon="9.342215"><ele>410.2</ele><time>2026-03-27T10:56:10.647Z</time></trkpt><trkpt lat="44.691835" lon="9.3422917"><ele>407.4</ele><time>2026-03-27T10:56:11.647Z</time></trkpt><trkpt lat="44.6917217" lon="9.3423417"><ele>404.59999999999997</ele><time>2026-03-27T10:56:12.647Z</time></trkpt><trkpt lat="44.6916183" lon="9.3423467"><ele>401.79999999999995</ele><time>2026-03-27T10:56:13.648Z</time></trkpt><trkpt lat="44.6915283" lon="9.342315"><ele>399.0</ele><time>2026-03-27T10:56:14.646Z</time></trkpt><trkpt lat="44.6914717" lon="9.3422433"><ele>402.6</ele><time>2026-03-27T10:56:15.647Z</time></trkpt><trkpt lat="44.6914483" lon="9.3421533"><ele>406.2</ele><time>2026-03-27T10:56:16.647Z</time></trkpt><trkpt lat="44.6914383" lon="9.3420467"><ele>409.8</ele><time>2026-03-27T10:56:17.646Z</time></trkpt><trkpt lat="44.6914533" lon="9.3419167"><ele>413.40000000000003</ele><time>2026-03-27T10:56:18.646Z</time></trkpt><trkpt lat="44.69147" lon="9.3417567"><ele>417.0</ele><time>2026-03-27T10:56:19.646Z</time></trkpt><trkpt lat="44.691455" lon="9.3415683"><ele>418.25</ele><time>2026-03-27T10:56:20.646Z</time></trkpt><trkpt lat="44.6914267" lon="9.341375"><ele>419.5</ele><time>2026-03-27T10:56:21.649Z</time></trkpt><trkpt lat="44.691395" lon="9.3411917"><ele>420.75</ele><time>2026-03-27T10:56:22.646Z</time></trkpt><trkpt lat="44.69137" lon="9.3410267"><ele>422.0</ele><time>2026-03-27T10:56:23.646Z</time></trkpt><trkpt lat="44.6913717" lon="9.34086"><ele>422.0</ele><time>2026-03-27T10:56:24.646Z</time></trkpt><trkpt lat="44.6913967" lon="9.340685"><ele>422.0</ele><time>2026-03-27T10:56:25.647Z</time></trkpt><trkpt lat="44.691435" lon="9.34051"><ele>422.0</ele><time>2026-03-27T10:56:26.653Z</time></trkpt><trkpt lat="44.6914783" lon="9.3403383"><ele>422.0</ele><time>2026-03-27T10:56:27.648Z</time></trkpt><trkpt lat="44.6915233" lon="9.3401633"><ele>422.25</ele><time>2026-03-27T10:56:28.648Z</time></trkpt><trkpt lat="44.6915467" lon="9.339995"><ele>422.5</ele><time>2026-03-27T10:56:29.646Z</time></trkpt><trkpt lat="44.6915434" lon="9.3398339"><ele>422.75</ele><time>2026-03-27T10:56:30.649Z</time></trkpt><trkpt lat="44.6915084" lon="9.3396835"><ele>423.0</ele><time>2026-03-27T10:56:31.646Z</time></trkpt><trkpt lat="44.6914586" lon="9.3395518"><ele>422.5</ele><time>2026-03-27T10:56:32.646Z</time></trkpt><trkpt lat="44.6914344" lon="9.3394226"><ele>422.0</ele><time>2026-03-27T10:56:33.646Z</time></trkpt><trkpt lat="44.6914531" lon="9.3392809"><ele>421.5</ele><time>2026-03-27T10:56:34.647Z</time></trkpt><trkpt lat="44.6915089" lon="9.3391328"><ele>421.0</ele><time>2026-03-27T10:56:35.649Z</time></trkpt><trkpt lat="44.6915896" lon="9.3389802"><ele>420.75</ele><time>2026-03-27T10:56:36.646Z</time></trkpt><trkpt lat="44.691679" lon="9.3388291"><ele>420.5</ele><time>2026-03-27T10:56:37.646Z</time></trkpt><trkpt lat="44.6917572" lon="9.3386899"><ele>420.25</ele><time>2026-03-27T10:56:38.646Z</time></trkpt><trkpt lat="44.6917968" lon="9.3385392"><ele>420.0</ele><time>2026-03-27T10:56:39.646Z</time></trkpt><trkpt lat="44.6917912" lon="9.3383661"><ele>420.0</ele><time>2026-03-27T10:56:40.647Z</time></trkpt><trkpt lat="44.6917461" lon="9.3381784"><ele>420.0</ele><time>2026-03-27T10:56:41.646Z</time></trkpt><trkpt lat="44.6916648" lon="9.3380161"><ele>420.0</ele><time>2026-03-27T10:56:42.647Z</time></trkpt><trkpt lat="44.6915609" lon="9.3379226"><ele>420.0</ele><time>2026-03-27T10:56:43.646Z</time></trkpt><trkpt lat="44.6914545" lon="9.3378829"><ele>420.0</ele><time>2026-03-27T10:56:44.651Z</time></trkpt><trkpt lat="44.6913463" lon="9.3378658"><ele>420.0</ele><time>2026-03-27T10:56:45.648Z</time></trkpt><trkpt lat="44.6912473" lon="9.337846"><ele>420.0</ele><time>2026-03-27T10:56:46.646Z</time></trkpt><trkpt lat="44.6911588" lon="9.3378312"><ele>420.0</ele><time>2026-03-27T10:56:47.646Z</time></trkpt><trkpt lat="44.6910761" lon="9.3378192"><ele>420.0</ele><time>2026-03-27T10:56:48.646Z</time></trkpt><trkpt lat="44.6909989" lon="9.337798"><ele>420.0</ele><time>2026-03-27T10:56:49.647Z</time></trkpt><trkpt lat="44.6909183" lon="9.3377544"><ele>420.0</ele><time>2026-03-27T10:56:50.648Z</time></trkpt><trkpt lat="44.6908382" lon="9.3376898"><ele>420.0</ele><time>2026-03-27T10:56:51.646Z</time></trkpt><trkpt lat="44.6907593" lon="9.337591"><ele>420.0</ele><time>2026-03-27T10:56:52.647Z</time></trkpt><trkpt lat="44.6906785" lon="9.3374782"><ele>420.0</ele><time>2026-03-27T10:56:53.647Z</time></trkpt><trkpt lat="44.6906" lon="9.3373417"><ele>420.0</ele><time>2026-03-27T10:56:54.734Z</time></trkpt><trkpt lat="44.6905333" lon="9.3372217"><ele>420.0</ele><time>2026-03-27T10:56:55.648Z</time></trkpt><trkpt lat="44.690495" lon="9.3370833"><ele>420.0</ele><time>2026-03-27T10:56:56.648Z</time></trkpt><trkpt lat="44.6905" lon="9.336925"><ele>420.0</ele><time>2026-03-27T10:56:57.646Z</time></trkpt><trkpt lat="44.6905183" lon="9.33675"><ele>420.75</ele><time>2026-03-27T10:56:58.646Z</time></trkpt><trkpt lat="44.6905367" lon="9.33656"><ele>421.5</ele><time>2026-03-27T10:56:59.646Z</time></trkpt><trkpt lat="44.6905517" lon="9.3363633"><ele>422.25</ele><time>2026-03-27T10:57:00.651Z</time></trkpt><trkpt lat="44.69056" lon="9.3361767"><ele>423.0</ele><time>2026-03-27T10:57:01.647Z</time></trkpt><trkpt lat="44.6905617" lon="9.3359933"><ele>422.75</ele><time>2026-03-27T10:57:02.646Z</time></trkpt><trkpt lat="44.6905583" lon="9.3358167"><ele>422.5</ele><time>2026-03-27T10:57:03.647Z</time></trkpt><trkpt lat="44.6905567" lon="9.3356417"><ele>422.25</ele><time>2026-03-27T10:57:04.646Z</time></trkpt><trkpt lat="44.69055" lon="9.3354767"><ele>422.0</ele><time>2026-03-27T10:57:05.648Z</time></trkpt><trkpt lat="44.69054" lon="9.3353117"><ele>422.0</ele><time>2026-03-27T10:57:06.646Z</time></trkpt><trkpt lat="44.69052" lon="9.33515"><ele>422.0</ele><time>2026-03-27T10:57:07.647Z</time></trkpt><trkpt lat="44.6904717" lon="9.3349983"><ele>422.0</ele><time>2026-03-27T10:57:08.646Z</time></trkpt><trkpt lat="44.6904133" lon="9.3348617"><ele>422.0</ele><time>2026-03-27T10:57:09.648Z</time></trkpt><trkpt lat="44.6903517" lon="9.3347383"><ele>421.0</ele><time>2026-03-27T10:57:10.648Z</time></trkpt><trkpt lat="44.6902883" lon="9.334625"><ele>420.0</ele><time>2026-03-27T10:57:11.646Z</time></trkpt><trkpt lat="44.69024" lon="9.3345067"><ele>419.0</ele><time>2026-03-27T10:57:12.649Z</time></trkpt><trkpt lat="44.6901933" lon="9.3343883"><ele>418.0</ele><time>2026-03-27T10:57:13.646Z</time></trkpt><trkpt lat="44.6901667" lon="9.3342583"><ele>417.0</ele><time>2026-03-27T10:57:14.647Z</time></trkpt><trkpt lat="44.6901583" lon="9.3341133"><ele>412.0</ele><time>2026-03-27T10:57:15.646Z</time></trkpt><trkpt lat="44.69016" lon="9.33395"><ele>407.0</ele><time>2026-03-27T10:57:16.647Z</time></trkpt><trkpt lat="44.6901517" lon="9.333785"><ele>402.0</ele><time>2026-03-27T10:57:17.646Z</time></trkpt><trkpt lat="44.6901367" lon="9.3336117"><ele>397.0</ele><time>2026-03-27T10:57:18.646Z</time></trkpt><trkpt lat="44.690115" lon="9.33345"><ele>397.0</ele><time>2026-03-27T10:57:19.647Z</time></trkpt><trkpt lat="44.6901" lon="9.3333033"><ele>397.0</ele><time>2026-03-27T10:57:20.646Z</time></trkpt><trkpt lat="44.6901033" lon="9.33317"><ele>397.0</ele><time>2026-03-27T10:57:21.646Z</time></trkpt><trkpt lat="44.690135" lon="9.3330533"><ele>397.0</ele><time>2026-03-27T10:57:22.647Z</time></trkpt><trkpt lat="44.6901933" lon="9.3329583"><ele>397.0</ele><time>2026-03-27T10:57:23.647Z</time></trkpt><trkpt lat="44.6902717" lon="9.3328817"><ele>397.0</ele><time>2026-03-27T10:57:24.649Z</time></trkpt><trkpt lat="44.6903633" lon="9.3328183"><ele>397.0</ele><time>2026-03-27T10:57:25.647Z</time></trkpt><trkpt lat="44.6904633" lon="9.33277"><ele>397.0</ele><time>2026-03-27T10:57:26.646Z</time></trkpt><trkpt lat="44.69058" lon="9.3327533"><ele>397.0</ele><time>2026-03-27T10:57:27.648Z</time></trkpt><trkpt lat="44.6906983" lon="9.3327517"><ele>397.0</ele><time>2026-03-27T10:57:28.647Z</time></trkpt><trkpt lat="44.69081" lon="9.3327417"><ele>397.00000000000006</ele><time>2026-03-27T10:57:29.649Z</time></trkpt><trkpt lat="44.6909117" lon="9.3327117"><ele>397.0</ele><time>2026-03-27T10:57:30.646Z</time></trkpt><trkpt lat="44.6909867" lon="9.33264"><ele>397.0</ele><time>2026-03-27T10:57:31.649Z</time></trkpt><trkpt lat="44.6910217" lon="9.33254"><ele>397.0</ele><time>2026-03-27T10:57:32.646Z</time></trkpt><trkpt lat="44.6910167" lon="9.3324283"><ele>397.00000000000006</ele><time>2026-03-27T10:57:33.648Z</time></trkpt><trkpt lat="44.6909867" lon="9.3323233"><ele>397.0</ele><time>2026-03-27T10:57:34.646Z</time></trkpt><trkpt lat="44.6909383" lon="9.33224"><ele>398.75</ele><time>2026-03-27T10:57:35.646Z</time></trkpt><trkpt lat="44.6908433" lon="9.3321867"><ele>400.5</ele><time>2026-03-27T10:57:36.654Z</time></trkpt><trkpt lat="44.6907233" lon="9.3321517"><ele>402.25</ele><time>2026-03-27T10:57:37.647Z</time></trkpt><trkpt lat="44.6906167" lon="9.332085"><ele>404.0</ele><time>2026-03-27T10:57:38.646Z</time></trkpt><trkpt lat="44.6905183" lon="9.33199"><ele>404.0</ele><time>2026-03-27T10:57:39.647Z</time></trkpt><trkpt lat="44.69043" lon="9.3318783"><ele>404.0</ele><time>2026-03-27T10:57:40.647Z</time></trkpt><trkpt lat="44.69036" lon="9.331765"><ele>404.0</ele><time>2026-03-27T10:57:41.647Z</time></trkpt><trkpt lat="44.6902983" lon="9.3316633"><ele>404.0</ele><time>2026-03-27T10:57:42.647Z</time></trkpt><trkpt lat="44.690255" lon="9.331565"><ele>404.0</ele><time>2026-03-27T10:57:43.647Z</time></trkpt><trkpt lat="44.69023" lon="9.33147"><ele>404.49999999999994</ele><time>2026-03-27T10:57:44.647Z</time></trkpt><trkpt lat="44.690225" lon="9.3313783"><ele>405.0</ele><time>2026-03-27T10:57:45.647Z</time></trkpt><trkpt lat="44.69024" lon="9.33129"><ele>405.5</ele><time>2026-03-27T10:57:46.647Z</time></trkpt><trkpt lat="44.69028" lon="9.3311367"><ele>406.0</ele><time>2026-03-27T10:57:48.647Z</time></trkpt><trkpt lat="44.690315" lon="9.3310233"><ele>406.49999999999994</ele><time>2026-03-27T10:57:50.646Z</time></trkpt><trkpt lat="44.6903517" lon="9.33093"><ele>407.0</ele><time>2026-03-27T10:57:53.646Z</time></trkpt><trkpt lat="44.690385" lon="9.3310333"><ele>406.99999999999994</ele><time>2026-03-27T11:09:18.659Z</time></trkpt><trkpt lat="44.6902917" lon="9.33111"><ele>407.0</ele><time>2026-03-27T11:10:18.657Z</time></trkpt><trkpt lat="44.6902267" lon="9.33109"><ele>407.0</ele><time>2026-03-27T11:10:26.656Z</time></trkpt><trkpt lat="44.6902183" lon="9.33099"><ele>407.0</ele><time>2026-03-27T11:10:31.656Z</time></trkpt><trkpt lat="44.69023" lon="9.3311067"><ele>406.99999999999994</ele><time>2026-03-27T11:10:36.656Z</time></trkpt><trkpt lat="44.690165" lon="9.3311817"><ele>407.0</ele><time>2026-03-27T11:10:40.658Z</time></trkpt><trkpt lat="44.6901067" lon="9.3312417"><ele>406.99999999999994</ele><time>2026-03-27T11:10:44.659Z</time></trkpt><trkpt lat="44.6900417" lon="9.33124"><ele>407.0</ele><time>2026-03-27T11:10:49.655Z</time></trkpt><trkpt lat="44.6901433" lon="9.33124"><ele>407.0</ele><time>2026-03-27T11:10:51.651Z</time></trkpt><trkpt lat="44.6902167" lon="9.3312383"><ele>407.0</ele><time>2026-03-27T11:10:52.658Z</time></trkpt><trkpt lat="44.6902833" lon="9.3312217"><ele>406.99999999999994</ele><time>2026-03-27T11:11:33.654Z</time></trkpt><trkpt lat="44.69029" lon="9.331095"><ele>407.0</ele><time>2026-03-27T11:11:34.655Z</time></trkpt><trkpt lat="44.6903633" lon="9.3311333"><ele>407.0</ele><time>2026-03-27T11:50:25.66Z</time></trkpt><trkpt lat="44.6902467" lon="9.3311233"><ele>407.0</ele><time>2026-03-27T11:52:53.651Z</time></trkpt><trkpt lat="44.6903593" lon="9.3309217"><ele>407.0</ele><time>2026-03-27T11:54:55.889Z</time></trkpt><trkpt lat="44.6903584" lon="9.3311339"><ele>407.0</ele><time>2026-03-27T11:55:48.858Z</time></trkpt><trkpt lat="44.6902233" lon="9.3311067"><ele>407.0</ele><time>2026-03-27T11:56:24.655Z</time></trkpt><trkpt lat="44.6903033" lon="9.3310467"><ele>407.0</ele><time>2026-03-27T11:56:41.655Z</time></trkpt><trkpt lat="44.6901983" lon="9.3310117"><ele>407.0</ele><time>2026-03-27T11:56:58.658Z</time></trkpt><trkpt lat="44.6901383" lon="9.33098"><ele>407.0</ele><time>2026-03-27T11:57:04.655Z</time></trkpt><trkpt lat="44.69007" lon="9.3309933"><ele>407.0</ele><time>2026-03-27T11:57:08.649Z</time></trkpt><trkpt lat="44.6899983" lon="9.3309767"><ele>407.0</ele><time>2026-03-27T11:57:12.656Z</time></trkpt><trkpt lat="44.6899233" lon="9.3309967"><ele>407.0</ele><time>2026-03-27T11:57:24.654Z</time></trkpt><trkpt lat="44.6900683" lon="9.3309733"><ele>407.0</ele><time>2026-03-27T11:57:27.655Z</time></trkpt><trkpt lat="44.6901533" lon="9.33097"><ele>407.0</ele><time>2026-03-27T11:57:29.658Z</time></trkpt><trkpt lat="44.6902683" lon="9.33092"><ele>407.0</ele><time>2026-03-27T11:57:30.655Z</time></trkpt><trkpt lat="44.690255" lon="9.33101"><ele>407.0</ele><time>2026-03-27T11:57:36.657Z</time></trkpt><trkpt lat="44.6902117" lon="9.3311333"><ele>407.0</ele><time>2026-03-27T11:57:37.657Z</time></trkpt><trkpt lat="44.6903552" lon="9.3311298"><ele>407.0</ele><time>2026-03-27T11:57:54.497Z</time></trkpt><trkpt lat="44.6900817" lon="9.330885"><ele>407.0</ele><time>2026-03-27T11:59:39.65Z</time></trkpt><trkpt lat="44.6901533" lon="9.3309783"><ele>407.0</ele><time>2026-03-27T11:59:42.659Z</time></trkpt><trkpt lat="44.6902733" lon="9.3311117"><ele>407.0</ele><time>2026-03-27T11:59:43.656Z</time></trkpt><trkpt lat="44.6903417" lon="9.3311417"><ele>407.0</ele><time>2026-03-27T11:59:44.655Z</time></trkpt><trkpt lat="44.6903633" lon="9.3310283"><ele>407.0</ele><time>2026-03-27T12:01:42.659Z</time></trkpt><trkpt lat="44.6903883" lon="9.3309274"><ele>406.99999999999994</ele><time>2026-03-27T12:02:19.646Z</time></trkpt><trkpt lat="44.6903288" lon="9.3309624"><ele>407.0</ele><time>2026-03-27T12:07:03.715Z</time></trkpt><trkpt lat="44.6902331" lon="9.3310103"><ele>407.0</ele><time>2026-03-27T12:07:40.647Z</time></trkpt><trkpt lat="44.6901894" lon="9.3309461"><ele>407.0</ele><time>2026-03-27T12:07:41.647Z</time></trkpt><trkpt lat="44.6901792" lon="9.3308444"><ele>406.99999999999994</ele><time>2026-03-27T12:07:42.647Z</time></trkpt><trkpt lat="44.6901878" lon="9.3307282"><ele>407.0</ele><time>2026-03-27T12:07:43.646Z</time></trkpt><trkpt lat="44.690198" lon="9.3306121"><ele>401.0</ele><time>2026-03-27T12:07:44.647Z</time></trkpt><trkpt lat="44.6902078" lon="9.3304906"><ele>395.0</ele><time>2026-03-27T12:07:45.648Z</time></trkpt><trkpt lat="44.6902174" lon="9.3303624"><ele>389.0</ele><time>2026-03-27T12:07:46.646Z</time></trkpt><trkpt lat="44.6902227" lon="9.3302313"><ele>383.0</ele><time>2026-03-27T12:07:47.646Z</time></trkpt><trkpt lat="44.6902249" lon="9.3301042"><ele>377.0</ele><time>2026-03-27T12:07:48.646Z</time></trkpt><trkpt lat="44.690217" lon="9.3299693"><ele>377.0</ele><time>2026-03-27T12:07:49.646Z</time></trkpt><trkpt lat="44.6901794" lon="9.3298279"><ele>377.0</ele><time>2026-03-27T12:07:50.647Z</time></trkpt><trkpt lat="44.6901118" lon="9.3296985"><ele>377.0</ele><time>2026-03-27T12:07:51.651Z</time></trkpt><trkpt lat="44.6900242" lon="9.3296023"><ele>377.0</ele><time>2026-03-27T12:07:52.646Z</time></trkpt><trkpt lat="44.6899299" lon="9.329536"><ele>377.0</ele><time>2026-03-27T12:07:53.646Z</time></trkpt><trkpt lat="44.6898356" lon="9.3294814"><ele>376.6</ele><time>2026-03-27T12:07:54.649Z</time></trkpt><trkpt lat="44.6897465" lon="9.3294269"><ele>376.20000000000005</ele><time>2026-03-27T12:07:55.647Z</time></trkpt><trkpt lat="44.6896576" lon="9.3293694"><ele>375.8</ele><time>2026-03-27T12:07:56.651Z</time></trkpt><trkpt lat="44.6895678" lon="9.3293101"><ele>375.4</ele><time>2026-03-27T12:07:57.646Z</time></trkpt><trkpt lat="44.6894787" lon="9.3292517"><ele>375.0</ele><time>2026-03-27T12:07:58.646Z</time></trkpt><trkpt lat="44.6893888" lon="9.3291942"><ele>374.6666666666667</ele><time>2026-03-27T12:07:59.654Z</time></trkpt><trkpt lat="44.6893029" lon="9.3291397"><ele>374.3333333333333</ele><time>2026-03-27T12:08:00.646Z</time></trkpt><trkpt lat="44.6892206" lon="9.329089"><ele>374.0</ele><time>2026-03-27T12:08:01.646Z</time></trkpt><trkpt lat="44.6891437" lon="9.3290435"><ele>373.66666666666663</ele><time>2026-03-27T12:08:02.646Z</time></trkpt><trkpt lat="44.6890723" lon="9.328999"><ele>373.3333333333333</ele><time>2026-03-27T12:08:03.646Z</time></trkpt><trkpt lat="44.6890055" lon="9.3289502"><ele>373.0</ele><time>2026-03-27T12:08:04.647Z</time></trkpt><trkpt lat="44.6889418" lon="9.3288903"><ele>373.0</ele><time>2026-03-27T12:08:05.647Z</time></trkpt><trkpt lat="44.6888931" lon="9.3288125"><ele>373.0</ele><time>2026-03-27T12:08:06.649Z</time></trkpt><trkpt lat="44.688872" lon="9.328719"><ele>373.0</ele><time>2026-03-27T12:08:07.647Z</time></trkpt><trkpt lat="44.6888836" lon="9.3286104"><ele>373.0</ele><time>2026-03-27T12:08:08.647Z</time></trkpt><trkpt lat="44.6889173" lon="9.3284972"><ele>373.0</ele><time>2026-03-27T12:08:09.648Z</time></trkpt><trkpt lat="44.6889508" lon="9.3283895"><ele>373.0</ele><time>2026-03-27T12:08:10.647Z</time></trkpt><trkpt lat="44.6889783" lon="9.328283"><ele>373.0</ele><time>2026-03-27T12:08:11.646Z</time></trkpt><trkpt lat="44.6890022" lon="9.3281826"><ele>373.0</ele><time>2026-03-27T12:08:12.651Z</time></trkpt><trkpt lat="44.6890244" lon="9.3280884"><ele>373.0</ele><time>2026-03-27T12:08:13.647Z</time></trkpt><trkpt lat="44.6890451" lon="9.3279952"><ele>373.0</ele><time>2026-03-27T12:08:14.648Z</time></trkpt><trkpt lat="44.6890661" lon="9.3279026"><ele>373.0</ele><time>2026-03-27T12:08:15.647Z</time></trkpt><trkpt lat="44.6890835" lon="9.3278098"><ele>373.0</ele><time>2026-03-27T12:08:16.646Z</time></trkpt><trkpt lat="44.6890954" lon="9.3277189"><ele>373.0</ele><time>2026-03-27T12:08:17.65Z</time></trkpt><trkpt lat="44.6891033" lon="9.3276307"><ele>374.0</ele><time>2026-03-27T12:08:18.646Z</time></trkpt><trkpt lat="44.6891209" lon="9.3274628"><ele>375.0</ele><time>2026-03-27T12:08:20.647Z</time></trkpt><trkpt lat="44.6891379" lon="9.3273106"><ele>376.0</ele><time>2026-03-27T12:08:22.646Z</time></trkpt><trkpt lat="44.6891425" lon="9.327192"><ele>377.0</ele><time>2026-03-27T12:08:24.647Z</time></trkpt><trkpt lat="44.6891543" lon="9.3270757"><ele>378.0</ele><time>2026-03-27T12:08:27.648Z</time></trkpt><trkpt lat="44.689165" lon="9.3269641"><ele>379.4</ele><time>2026-03-27T12:09:24.648Z</time></trkpt><trkpt lat="44.6891724" lon="9.3267924"><ele>380.79999999999995</ele><time>2026-03-27T12:09:26.648Z</time></trkpt><trkpt lat="44.6891862" lon="9.3266756"><ele>382.2</ele><time>2026-03-27T12:09:27.646Z</time></trkpt><trkpt lat="44.6892029" lon="9.3265473"><ele>383.6</ele><time>2026-03-27T12:09:28.648Z</time></trkpt><trkpt lat="44.6892286" lon="9.3264043"><ele>385.0</ele><time>2026-03-27T12:09:29.646Z</time></trkpt><trkpt lat="44.6892565" lon="9.3262607"><ele>385.8</ele><time>2026-03-27T12:09:30.652Z</time></trkpt><trkpt lat="44.6892863" lon="9.3261194"><ele>386.6</ele><time>2026-03-27T12:09:31.647Z</time></trkpt><trkpt lat="44.6892991" lon="9.325982"><ele>387.4</ele><time>2026-03-27T12:09:32.647Z</time></trkpt><trkpt lat="44.6893023" lon="9.3258425"><ele>388.2</ele><time>2026-03-27T12:09:33.647Z</time></trkpt><trkpt lat="44.6893066" lon="9.3256867"><ele>389.0</ele><time>2026-03-27T12:09:34.646Z</time></trkpt><trkpt lat="44.6893133" lon="9.3255167"><ele>389.6</ele><time>2026-03-27T12:09:35.648Z</time></trkpt><trkpt lat="44.6893117" lon="9.3253517"><ele>390.2</ele><time>2026-03-27T12:09:36.647Z</time></trkpt><trkpt lat="44.6893117" lon="9.325205"><ele>390.8</ele><time>2026-03-27T12:09:37.648Z</time></trkpt><trkpt lat="44.6893167" lon="9.32507"><ele>391.40000000000003</ele><time>2026-03-27T12:09:38.647Z</time></trkpt><trkpt lat="44.689315" lon="9.3249283"><ele>392.0</ele><time>2026-03-27T12:09:39.647Z</time></trkpt><trkpt lat="44.6893067" lon="9.3247667"><ele>392.5</ele><time>2026-03-27T12:09:40.646Z</time></trkpt><trkpt lat="44.6893" lon="9.3245917"><ele>393.0</ele><time>2026-03-27T12:09:41.647Z</time></trkpt><trkpt lat="44.6892933" lon="9.324405"><ele>393.5</ele><time>2026-03-27T12:09:42.646Z</time></trkpt><trkpt lat="44.6892867" lon="9.32422"><ele>394.0</ele><time>2026-03-27T12:09:43.648Z</time></trkpt><trkpt lat="44.68928" lon="9.3240533"><ele>394.0</ele><time>2026-03-27T12:09:44.65Z</time></trkpt><trkpt lat="44.6892567" lon="9.3239017"><ele>394.0</ele><time>2026-03-27T12:09:45.647Z</time></trkpt><trkpt lat="44.689215" lon="9.32376"><ele>394.0</ele><time>2026-03-27T12:09:46.647Z</time></trkpt><trkpt lat="44.6891533" lon="9.3236167"><ele>394.0</ele><time>2026-03-27T12:09:47.646Z</time></trkpt><trkpt lat="44.6890817" lon="9.323475"><ele>393.25</ele><time>2026-03-27T12:09:48.646Z</time></trkpt><trkpt lat="44.68902" lon="9.3233317"><ele>392.5</ele><time>2026-03-27T12:09:49.648Z</time></trkpt><trkpt lat="44.6889367" lon="9.32321"><ele>391.75</ele><time>2026-03-27T12:09:50.647Z</time></trkpt><trkpt lat="44.68883" lon="9.3231117"><ele>391.0</ele><time>2026-03-27T12:09:51.646Z</time></trkpt><trkpt lat="44.6887133" lon="9.3230483"><ele>389.4</ele><time>2026-03-27T12:09:52.647Z</time></trkpt><trkpt lat="44.688605" lon="9.323005"><ele>387.8</ele><time>2026-03-27T12:09:53.647Z</time></trkpt><trkpt lat="44.688505" lon="9.32297"><ele>386.2</ele><time>2026-03-27T12:09:54.65Z</time></trkpt><trkpt lat="44.688415" lon="9.32293"><ele>384.59999999999997</ele><time>2026-03-27T12:09:55.648Z</time></trkpt><trkpt lat="44.688325" lon="9.3228833"><ele>383.0</ele><time>2026-03-27T12:09:56.65Z</time></trkpt><trkpt lat="44.6882533" lon="9.322795"><ele>387.2</ele><time>2026-03-27T12:09:57.647Z</time></trkpt><trkpt lat="44.6882117" lon="9.3226883"><ele>391.4</ele><time>2026-03-27T12:09:58.647Z</time></trkpt><trkpt lat="44.6881817" lon="9.3225633"><ele>395.59999999999997</ele><time>2026-03-27T12:09:59.646Z</time></trkpt><trkpt lat="44.68818" lon="9.322415"><ele>399.79999999999995</ele><time>2026-03-27T12:10:00.647Z</time></trkpt><trkpt lat="44.6881783" lon="9.3222617"><ele>404.0</ele><time>2026-03-27T12:10:01.646Z</time></trkpt><trkpt lat="44.6881617" lon="9.3221067"><ele>404.0</ele><time>2026-03-27T12:10:02.65Z</time></trkpt><trkpt lat="44.6881267" lon="9.3219467"><ele>404.0</ele><time>2026-03-27T12:10:03.646Z</time></trkpt><trkpt lat="44.688085" lon="9.3217883"><ele>404.0</ele><time>2026-03-27T12:10:04.646Z</time></trkpt><trkpt lat="44.6880533" lon="9.3216133"><ele>404.0</ele><time>2026-03-27T12:10:05.647Z</time></trkpt><trkpt lat="44.688035" lon="9.321425"><ele>403.0</ele><time>2026-03-27T12:10:06.648Z</time></trkpt><trkpt lat="44.6880283" lon="9.32124"><ele>402.0</ele><time>2026-03-27T12:10:07.647Z</time></trkpt><trkpt lat="44.68803" lon="9.3210667"><ele>401.0</ele><time>2026-03-27T12:10:08.648Z</time></trkpt><trkpt lat="44.68804" lon="9.3209033"><ele>400.0</ele><time>2026-03-27T12:10:09.648Z</time></trkpt><trkpt lat="44.6880417" lon="9.32076"><ele>400.00000000000006</ele><time>2026-03-27T12:10:10.648Z</time></trkpt><trkpt lat="44.688045" lon="9.3206417"><ele>400.0</ele><time>2026-03-27T12:10:11.646Z</time></trkpt><trkpt lat="44.6880517" lon="9.320535"><ele>400.0</ele><time>2026-03-27T12:10:12.648Z</time></trkpt><trkpt lat="44.6880567" lon="9.32044"><ele>400.0</ele><time>2026-03-27T12:10:13.647Z</time></trkpt><trkpt lat="44.6880583" lon="9.32035"><ele>400.00000000000006</ele><time>2026-03-27T12:10:14.648Z</time></trkpt><trkpt lat="44.6880717" lon="9.32019"><ele>400.0</ele><time>2026-03-27T12:10:16.647Z</time></trkpt><trkpt lat="44.6880783" lon="9.3200967"><ele>399.00000000000006</ele><time>2026-03-27T12:10:17.649Z</time></trkpt><trkpt lat="44.6880833" lon="9.3199917"><ele>398.0</ele><time>2026-03-27T12:10:18.65Z</time></trkpt><trkpt lat="44.6880917" lon="9.3198817"><ele>397.0</ele><time>2026-03-27T12:10:19.647Z</time></trkpt><trkpt lat="44.688105" lon="9.319755"><ele>396.0</ele><time>2026-03-27T12:10:20.648Z</time></trkpt><trkpt lat="44.6881017" lon="9.319625"><ele>395.00000000000006</ele><time>2026-03-27T12:10:21.648Z</time></trkpt><trkpt lat="44.68807" lon="9.31949"><ele>394.0</ele><time>2026-03-27T12:10:22.647Z</time></trkpt><trkpt lat="44.6880117" lon="9.3193633"><ele>392.79999999999995</ele><time>2026-03-27T12:10:23.65Z</time></trkpt><trkpt lat="44.687925" lon="9.3192567"><ele>391.59999999999997</ele><time>2026-03-27T12:10:24.647Z</time></trkpt><trkpt lat="44.6878283" lon="9.3191883"><ele>390.4</ele><time>2026-03-27T12:10:25.647Z</time></trkpt><trkpt lat="44.687735" lon="9.3191817"><ele>389.2</ele><time>2026-03-27T12:10:26.647Z</time></trkpt><trkpt lat="44.68764" lon="9.3192367"><ele>388.0</ele><time>2026-03-27T12:10:27.646Z</time></trkpt><trkpt lat="44.68754" lon="9.3193267"><ele>394.2</ele><time>2026-03-27T12:10:28.648Z</time></trkpt><trkpt lat="44.6874317" lon="9.3194083"><ele>400.4</ele><time>2026-03-27T12:10:29.648Z</time></trkpt><trkpt lat="44.687335" lon="9.3194617"><ele>406.59999999999997</ele><time>2026-03-27T12:10:30.646Z</time></trkpt><trkpt lat="44.6872517" lon="9.31948"><ele>412.79999999999995</ele><time>2026-03-27T12:10:31.647Z</time></trkpt><trkpt lat="44.6871567" lon="9.319465"><ele>419.0</ele><time>2026-03-27T12:10:32.648Z</time></trkpt><trkpt lat="44.6870717" lon="9.3193733"><ele>419.0</ele><time>2026-03-27T12:10:33.648Z</time></trkpt><trkpt lat="44.6869983" lon="9.3192233"><ele>419.0</ele><time>2026-03-27T12:10:34.648Z</time></trkpt><trkpt lat="44.6869367" lon="9.3190583"><ele>419.0</ele><time>2026-03-27T12:10:35.647Z</time></trkpt><trkpt lat="44.6868867" lon="9.318885"><ele>419.0</ele><time>2026-03-27T12:10:36.648Z</time></trkpt><trkpt lat="44.6868467" lon="9.3187183"><ele>416.75</ele><time>2026-03-27T12:10:37.646Z</time></trkpt><trkpt lat="44.6868317" lon="9.318545"><ele>414.5</ele><time>2026-03-27T12:10:38.648Z</time></trkpt><trkpt lat="44.6868467" lon="9.31837"><ele>412.25</ele><time>2026-03-27T12:10:39.647Z</time></trkpt><trkpt lat="44.68689" lon="9.3181933"><ele>410.0</ele><time>2026-03-27T12:10:40.647Z</time></trkpt><trkpt lat="44.686955" lon="9.318025"><ele>410.0</ele><time>2026-03-27T12:10:41.646Z</time></trkpt><trkpt lat="44.6870517" lon="9.3178717"><ele>410.0</ele><time>2026-03-27T12:10:42.648Z</time></trkpt><trkpt lat="44.6871433" lon="9.31773"><ele>410.0</ele><time>2026-03-27T12:10:43.647Z</time></trkpt><trkpt lat="44.68722" lon="9.317585"><ele>410.0</ele><time>2026-03-27T12:10:44.649Z</time></trkpt><trkpt lat="44.6872617" lon="9.3174233"><ele>410.0</ele><time>2026-03-27T12:10:45.648Z</time></trkpt><trkpt lat="44.687265" lon="9.3172417"><ele>410.0</ele><time>2026-03-27T12:10:46.649Z</time></trkpt><trkpt lat="44.6872367" lon="9.317065"><ele>410.0</ele><time>2026-03-27T12:10:47.648Z</time></trkpt><trkpt lat="44.687215" lon="9.316885"><ele>410.0</ele><time>2026-03-27T12:10:48.655Z</time></trkpt><trkpt lat="44.68723" lon="9.3166883"><ele>413.0</ele><time>2026-03-27T12:10:49.647Z</time></trkpt><trkpt lat="44.6872617" lon="9.3164833"><ele>416.0</ele><time>2026-03-27T12:10:50.647Z</time></trkpt><trkpt lat="44.6872933" lon="9.3162867"><ele>419.0</ele><time>2026-03-27T12:10:51.649Z</time></trkpt><trkpt lat="44.6873167" lon="9.3161033"><ele>422.0</ele><time>2026-03-27T12:10:52.647Z</time></trkpt><trkpt lat="44.6873433" lon="9.31592"><ele>424.5</ele><time>2026-03-27T12:10:53.648Z</time></trkpt><trkpt lat="44.6873567" lon="9.3157317"><ele>427.0</ele><time>2026-03-27T12:10:54.647Z</time></trkpt><trkpt lat="44.6873433" lon="9.31554"><ele>429.5</ele><time>2026-03-27T12:10:55.647Z</time></trkpt><trkpt lat="44.6873433" lon="9.3153633"><ele>432.0</ele><time>2026-03-27T12:10:56.648Z</time></trkpt><trkpt lat="44.6873783" lon="9.3152317"><ele>435.25</ele><time>2026-03-27T12:10:57.647Z</time></trkpt><trkpt lat="44.687445" lon="9.31512"><ele>438.5</ele><time>2026-03-27T12:10:58.648Z</time></trkpt><trkpt lat="44.6875117" lon="9.3149917"><ele>441.75</ele><time>2026-03-27T12:10:59.647Z</time></trkpt><trkpt lat="44.687575" lon="9.3148317"><ele>445.0</ele><time>2026-03-27T12:11:00.65Z</time></trkpt><trkpt lat="44.6876333" lon="9.3146467"><ele>444.25</ele><time>2026-03-27T12:11:01.647Z</time></trkpt><trkpt lat="44.6876867" lon="9.3144417"><ele>443.5</ele><time>2026-03-27T12:11:02.648Z</time></trkpt><trkpt lat="44.687715" lon="9.314225"><ele>442.75</ele><time>2026-03-27T12:11:03.646Z</time></trkpt><trkpt lat="44.6877233" lon="9.3140333"><ele>442.0</ele><time>2026-03-27T12:11:04.646Z</time></trkpt><trkpt lat="44.6877133" lon="9.31386"><ele>442.0</ele><time>2026-03-27T12:11:05.646Z</time></trkpt><trkpt lat="44.6876783" lon="9.31372"><ele>442.00000000000006</ele><time>2026-03-27T12:11:06.647Z</time></trkpt><trkpt lat="44.68761" lon="9.3136017"><ele>442.00000000000006</ele><time>2026-03-27T12:11:07.647Z</time></trkpt><trkpt lat="44.6875067" lon="9.3135283"><ele>442.0</ele><time>2026-03-27T12:11:08.657Z</time></trkpt><trkpt lat="44.6874" lon="9.3134767"><ele>442.0</ele><time>2026-03-27T12:11:09.648Z</time></trkpt><trkpt lat="44.6873117" lon="9.3134017"><ele>442.0</ele><time>2026-03-27T12:11:10.647Z</time></trkpt><trkpt lat="44.68724" lon="9.3132883"><ele>442.0</ele><time>2026-03-27T12:11:11.647Z</time></trkpt><trkpt lat="44.68719" lon="9.3131417"><ele>442.0</ele><time>2026-03-27T12:11:12.646Z</time></trkpt><trkpt lat="44.6871467" lon="9.3129733"><ele>442.0</ele><time>2026-03-27T12:11:13.647Z</time></trkpt><trkpt lat="44.6870967" lon="9.3127917"><ele>445.5</ele><time>2026-03-27T12:11:14.647Z</time></trkpt><trkpt lat="44.6870417" lon="9.3126067"><ele>449.0</ele><time>2026-03-27T12:11:15.647Z</time></trkpt><trkpt lat="44.686985" lon="9.3124283"><ele>452.5</ele><time>2026-03-27T12:11:16.646Z</time></trkpt><trkpt lat="44.686925" lon="9.312265"><ele>456.0</ele><time>2026-03-27T12:11:17.649Z</time></trkpt><trkpt lat="44.6868667" lon="9.3121167"><ele>456.0</ele><time>2026-03-27T12:11:18.646Z</time></trkpt><trkpt lat="44.6868067" lon="9.3119767"><ele>456.0</ele><time>2026-03-27T12:11:19.647Z</time></trkpt><trkpt lat="44.6867433" lon="9.3118483"><ele>456.0</ele><time>2026-03-27T12:11:20.647Z</time></trkpt><trkpt lat="44.68666" lon="9.311735"><ele>456.0</ele><time>2026-03-27T12:11:21.648Z</time></trkpt><trkpt lat="44.68655" lon="9.3116433"><ele>456.0</ele><time>2026-03-27T12:11:22.653Z</time></trkpt><trkpt lat="44.68644" lon="9.3115667"><ele>456.0</ele><time>2026-03-27T12:11:23.648Z</time></trkpt><trkpt lat="44.6863383" lon="9.3114783"><ele>456.0</ele><time>2026-03-27T12:11:24.647Z</time></trkpt><trkpt lat="44.6862633" lon="9.3113517"><ele>456.0</ele><time>2026-03-27T12:11:25.647Z</time></trkpt><trkpt lat="44.68621" lon="9.3111867"><ele>454.0</ele><time>2026-03-27T12:11:26.647Z</time></trkpt><trkpt lat="44.6861917" lon="9.3110017"><ele>452.0</ele><time>2026-03-27T12:11:27.649Z</time></trkpt><trkpt lat="44.6862133" lon="9.3107983"><ele>450.0</ele><time>2026-03-27T12:11:28.647Z</time></trkpt><trkpt lat="44.6862517" lon="9.3106133"><ele>448.0</ele><time>2026-03-27T12:11:29.647Z</time></trkpt><trkpt lat="44.6863133" lon="9.3104517"><ele>453.5</ele><time>2026-03-27T12:11:30.647Z</time></trkpt><trkpt lat="44.6864" lon="9.310325"><ele>459.0</ele><time>2026-03-27T12:11:31.646Z</time></trkpt><trkpt lat="44.6865033" lon="9.3102467"><ele>464.5</ele><time>2026-03-27T12:11:32.647Z</time></trkpt><trkpt lat="44.6866183" lon="9.31019"><ele>470.0</ele><time>2026-03-27T12:11:33.648Z</time></trkpt><trkpt lat="44.68673" lon="9.3101267"><ele>470.0</ele><time>2026-03-27T12:11:34.646Z</time></trkpt><trkpt lat="44.6868333" lon="9.3100117"><ele>470.0</ele><time>2026-03-27T12:11:35.646Z</time></trkpt><trkpt lat="44.6869117" lon="9.309865"><ele>470.0</ele><time>2026-03-27T12:11:36.649Z</time></trkpt><trkpt lat="44.686955" lon="9.3097"><ele>470.0</ele><time>2026-03-27T12:11:37.647Z</time></trkpt><trkpt lat="44.6869567" lon="9.3095183"><ele>469.5</ele><time>2026-03-27T12:11:38.648Z</time></trkpt><trkpt lat="44.6869183" lon="9.3093417"><ele>469.0</ele><time>2026-03-27T12:11:39.647Z</time></trkpt><trkpt lat="44.6868567" lon="9.309185"><ele>468.5</ele><time>2026-03-27T12:11:40.647Z</time></trkpt><trkpt lat="44.68677" lon="9.309065"><ele>468.0</ele><time>2026-03-27T12:11:41.647Z</time></trkpt><trkpt lat="44.6866517" lon="9.3089833"><ele>468.0</ele><time>2026-03-27T12:11:42.647Z</time></trkpt><trkpt lat="44.6865167" lon="9.3089267"><ele>468.0</ele><time>2026-03-27T12:11:43.647Z</time></trkpt><trkpt lat="44.6863767" lon="9.3088783"><ele>468.0</ele><time>2026-03-27T12:11:44.647Z</time></trkpt><trkpt lat="44.68624" lon="9.3088333"><ele>468.0</ele><time>2026-03-27T12:11:45.65Z</time></trkpt><trkpt lat="44.6860933" lon="9.308815"><ele>462.66666666666663</ele><time>2026-03-27T12:11:46.647Z</time></trkpt><trkpt lat="44.6859417" lon="9.3088317"><ele>457.3333333333333</ele><time>2026-03-27T12:11:47.648Z</time></trkpt><trkpt lat="44.6857833" lon="9.3088517"><ele>452.0</ele><time>2026-03-27T12:11:48.648Z</time></trkpt><trkpt lat="44.6856183" lon="9.3088517"><ele>452.0</ele><time>2026-03-27T12:11:49.648Z</time></trkpt><trkpt lat="44.6854517" lon="9.308835"><ele>452.0</ele><time>2026-03-27T12:11:50.648Z</time></trkpt><trkpt lat="44.6852833" lon="9.3088333"><ele>452.0</ele><time>2026-03-27T12:11:51.647Z</time></trkpt><trkpt lat="44.6851183" lon="9.30885"><ele>457.3333333333333</ele><time>2026-03-27T12:11:52.647Z</time></trkpt><trkpt lat="44.6849583" lon="9.3088833"><ele>462.66666666666663</ele><time>2026-03-27T12:11:53.649Z</time></trkpt><trkpt lat="44.6848083" lon="9.3089533"><ele>468.0</ele><time>2026-03-27T12:11:54.647Z</time></trkpt><trkpt lat="44.68467" lon="9.3090483"><ele>473.5</ele><time>2026-03-27T12:11:55.647Z</time></trkpt><trkpt lat="44.6845367" lon="9.30912"><ele>479.0</ele><time>2026-03-27T12:11:56.648Z</time></trkpt><trkpt lat="44.6843933" lon="9.3091417"><ele>484.5</ele><time>2026-03-27T12:11:57.647Z</time></trkpt><trkpt lat="44.6842517" lon="9.309135"><ele>490.0</ele><time>2026-03-27T12:11:58.647Z</time></trkpt><trkpt lat="44.6841217" lon="9.3091117"><ele>490.25</ele><time>2026-03-27T12:11:59.646Z</time></trkpt><trkpt lat="44.6840067" lon="9.3090667"><ele>490.5</ele><time>2026-03-27T12:12:00.646Z</time></trkpt><trkpt lat="44.683915" lon="9.3089833"><ele>490.75</ele><time>2026-03-27T12:12:01.65Z</time></trkpt><trkpt lat="44.6838333" lon="9.3088583"><ele>491.0</ele><time>2026-03-27T12:12:02.648Z</time></trkpt><trkpt lat="44.6837583" lon="9.3087117"><ele>490.5</ele><time>2026-03-27T12:12:03.647Z</time></trkpt><trkpt lat="44.6836783" lon="9.30858"><ele>490.0</ele><time>2026-03-27T12:12:04.652Z</time></trkpt><trkpt lat="44.6835783" lon="9.30849"><ele>489.5</ele><time>2026-03-27T12:12:05.648Z</time></trkpt><trkpt lat="44.6834767" lon="9.3084183"><ele>489.0</ele><time>2026-03-27T12:12:06.647Z</time></trkpt><trkpt lat="44.6833883" lon="9.3083483"><ele>489.0</ele><time>2026-03-27T12:12:07.647Z</time></trkpt><trkpt lat="44.6833317" lon="9.3082583"><ele>489.0</ele><time>2026-03-27T12:12:08.647Z</time></trkpt><trkpt lat="44.6832933" lon="9.3081633"><ele>489.0</ele><time>2026-03-27T12:12:09.647Z</time></trkpt><trkpt lat="44.6833117" lon="9.30806"><ele>489.0</ele><time>2026-03-27T12:12:10.647Z</time></trkpt><trkpt lat="44.6833733" lon="9.3079467"><ele>489.0</ele><time>2026-03-27T12:12:11.648Z</time></trkpt><trkpt lat="44.6834617" lon="9.3078167"><ele>486.66666666666663</ele><time>2026-03-27T12:12:12.648Z</time></trkpt><trkpt lat="44.6835517" lon="9.307655"><ele>484.3333333333333</ele><time>2026-03-27T12:12:13.648Z</time></trkpt><trkpt lat="44.6836317" lon="9.3074633"><ele>482.0</ele><time>2026-03-27T12:12:14.648Z</time></trkpt><trkpt lat="44.6836983" lon="9.3072467"><ele>481.75</ele><time>2026-03-27T12:12:15.647Z</time></trkpt><trkpt lat="44.68374" lon="9.30704"><ele>481.5</ele><time>2026-03-27T12:12:16.648Z</time></trkpt><trkpt lat="44.6837733" lon="9.3068467"><ele>481.25</ele><time>2026-03-27T12:12:17.649Z</time></trkpt><trkpt lat="44.683795" lon="9.3066633"><ele>481.0</ele><time>2026-03-27T12:12:18.651Z</time></trkpt><trkpt lat="44.68378" lon="9.306475"><ele>477.5</ele><time>2026-03-27T12:12:19.648Z</time></trkpt><trkpt lat="44.6837483" lon="9.306295"><ele>474.0</ele><time>2026-03-27T12:12:20.649Z</time></trkpt><trkpt lat="44.6837117" lon="9.3061383"><ele>470.5</ele><time>2026-03-27T12:12:21.647Z</time></trkpt><trkpt lat="44.6836617" lon="9.30601"><ele>467.0</ele><time>2026-03-27T12:12:22.647Z</time></trkpt><trkpt lat="44.683585" lon="9.305915"><ele>474.75</ele><time>2026-03-27T12:12:23.648Z</time></trkpt><trkpt lat="44.683475" lon="9.30586"><ele>482.5</ele><time>2026-03-27T12:12:24.647Z</time></trkpt><trkpt lat="44.6833533" lon="9.3058033"><ele>490.25</ele><time>2026-03-27T12:12:25.647Z</time></trkpt><trkpt lat="44.6832433" lon="9.30572"><ele>498.0</ele><time>2026-03-27T12:12:26.648Z</time></trkpt><trkpt lat="44.683155" lon="9.3056167"><ele>496.2</ele><time>2026-03-27T12:12:27.649Z</time></trkpt><trkpt lat="44.683105" lon="9.3054917"><ele>494.4</ele><time>2026-03-27T12:12:28.647Z</time></trkpt><trkpt lat="44.68309" lon="9.3053517"><ele>492.59999999999997</ele><time>2026-03-27T12:12:29.647Z</time></trkpt><trkpt lat="44.6830883" lon="9.3052033"><ele>490.79999999999995</ele><time>2026-03-27T12:12:30.647Z</time></trkpt><trkpt lat="44.6830583" lon="9.3050383"><ele>489.0</ele><time>2026-03-27T12:12:31.648Z</time></trkpt><trkpt lat="44.6830017" lon="9.3048667"><ele>489.5</ele><time>2026-03-27T12:12:32.647Z</time></trkpt><trkpt lat="44.6829367" lon="9.3047083"><ele>490.0</ele><time>2026-03-27T12:12:33.647Z</time></trkpt><trkpt lat="44.6828733" lon="9.3045467"><ele>490.5</ele><time>2026-03-27T12:12:34.648Z</time></trkpt><trkpt lat="44.68281" lon="9.3043783"><ele>491.0</ele><time>2026-03-27T12:12:35.647Z</time></trkpt><trkpt lat="44.6827533" lon="9.30422"><ele>493.5</ele><time>2026-03-27T12:12:36.647Z</time></trkpt><trkpt lat="44.682685" lon="9.3040817"><ele>496.0</ele><time>2026-03-27T12:12:37.648Z</time></trkpt><trkpt lat="44.6825917" lon="9.3039683"><ele>498.5</ele><time>2026-03-27T12:12:38.65Z</time></trkpt><trkpt lat="44.6824717" lon="9.3039133"><ele>501.0</ele><time>2026-03-27T12:12:39.648Z</time></trkpt><trkpt lat="44.6823383" lon="9.3039283"><ele>501.0</ele><time>2026-03-27T12:12:40.647Z</time></trkpt><trkpt lat="44.6822233" lon="9.3039667"><ele>501.0</ele><time>2026-03-27T12:12:41.649Z</time></trkpt><trkpt lat="44.68212" lon="9.3039983"><ele>501.0</ele><time>2026-03-27T12:12:42.647Z</time></trkpt><trkpt lat="44.6820267" lon="9.3040233"><ele>501.0</ele><time>2026-03-27T12:12:43.648Z</time></trkpt><trkpt lat="44.681945" lon="9.304045"><ele>501.0</ele><time>2026-03-27T12:12:44.648Z</time></trkpt><trkpt lat="44.6818733" lon="9.3040617"><ele>502.0</ele><time>2026-03-27T12:12:45.647Z</time></trkpt><trkpt lat="44.68181" lon="9.304075"><ele>503.0</ele><time>2026-03-27T12:12:46.648Z</time></trkpt><trkpt lat="44.681705" lon="9.3040983"><ele>504.0</ele><time>2026-03-27T12:12:48.647Z</time></trkpt><trkpt lat="44.68164" lon="9.3041133"><ele>505.0</ele><time>2026-03-27T12:12:51.649Z</time></trkpt><trkpt lat="44.681505" lon="9.304135"><ele>506.0</ele><time>2026-03-27T12:13:21.648Z</time></trkpt><trkpt lat="44.68142" lon="9.3041533"><ele>506.0</ele><time>2026-03-27T12:13:22.649Z</time></trkpt><trkpt lat="44.68133" lon="9.3041683"><ele>506.0</ele><time>2026-03-27T12:13:23.648Z</time></trkpt><trkpt lat="44.6812467" lon="9.3041883"><ele>506.0</ele><time>2026-03-27T12:13:24.649Z</time></trkpt><trkpt lat="44.68115" lon="9.3041867"><ele>506.0</ele><time>2026-03-27T12:13:25.65Z</time></trkpt><trkpt lat="44.6810517" lon="9.3041633"><ele>506.0</ele><time>2026-03-27T12:13:26.651Z</time></trkpt><trkpt lat="44.6809533" lon="9.3041267"><ele>505.0</ele><time>2026-03-27T12:13:27.648Z</time></trkpt><trkpt lat="44.6808617" lon="9.304065"><ele>504.0</ele><time>2026-03-27T12:13:28.648Z</time></trkpt><trkpt lat="44.6807717" lon="9.3039883"><ele>503.0</ele><time>2026-03-27T12:13:29.648Z</time></trkpt><trkpt lat="44.6806917" lon="9.3038983"><ele>502.0</ele><time>2026-03-27T12:13:30.649Z</time></trkpt><trkpt lat="44.6806083" lon="9.3038033"><ele>501.0</ele><time>2026-03-27T12:13:31.65Z</time></trkpt><trkpt lat="44.68052" lon="9.303705"><ele>501.0</ele><time>2026-03-27T12:13:32.652Z</time></trkpt><trkpt lat="44.68044" lon="9.3036083"><ele>501.0</ele><time>2026-03-27T12:13:33.649Z</time></trkpt><trkpt lat="44.6803683" lon="9.3035133"><ele>501.0</ele><time>2026-03-27T12:13:34.648Z</time></trkpt><trkpt lat="44.6802933" lon="9.3034283"><ele>501.0</ele><time>2026-03-27T12:13:35.648Z</time></trkpt><trkpt lat="44.6802133" lon="9.303355"><ele>501.0</ele><time>2026-03-27T12:13:36.648Z</time></trkpt><trkpt lat="44.6801267" lon="9.3033133"><ele>504.4</ele><time>2026-03-27T12:13:37.65Z</time></trkpt><trkpt lat="44.6800417" lon="9.3033033"><ele>507.8</ele><time>2026-03-27T12:13:38.649Z</time></trkpt><trkpt lat="44.6799517" lon="9.3033317"><ele>511.19999999999993</ele><time>2026-03-27T12:13:39.65Z</time></trkpt><trkpt lat="44.6798583" lon="9.3034"><ele>514.6</ele><time>2026-03-27T12:13:40.649Z</time></trkpt><trkpt lat="44.67977" lon="9.3034683"><ele>518.0</ele><time>2026-03-27T12:13:41.649Z</time></trkpt><trkpt lat="44.6796833" lon="9.3035317"><ele>518.0</ele><time>2026-03-27T12:13:42.649Z</time></trkpt><trkpt lat="44.6795967" lon="9.3036033"><ele>518.0</ele><time>2026-03-27T12:13:43.648Z</time></trkpt><trkpt lat="44.679505" lon="9.3036767"><ele>518.0</ele><time>2026-03-27T12:13:44.649Z</time></trkpt><trkpt lat="44.6794067" lon="9.3037333"><ele>518.0</ele><time>2026-03-27T12:13:45.651Z</time></trkpt><trkpt lat="44.679305" lon="9.3037633"><ele>518.0</ele><time>2026-03-27T12:13:46.649Z</time></trkpt><trkpt lat="44.6791967" lon="9.3037767"><ele>516.0</ele><time>2026-03-27T12:13:47.647Z</time></trkpt><trkpt lat="44.6790883" lon="9.30379"><ele>514.0</ele><time>2026-03-27T12:13:48.647Z</time></trkpt><trkpt lat="44.6789817" lon="9.30381"><ele>511.99999999999994</ele><time>2026-03-27T12:13:49.647Z</time></trkpt><trkpt lat="44.6788817" lon="9.3038383"><ele>510.0</ele><time>2026-03-27T12:13:50.65Z</time></trkpt><trkpt lat="44.6787817" lon="9.3038733"><ele>508.0</ele><time>2026-03-27T12:13:51.653Z</time></trkpt><trkpt lat="44.6786833" lon="9.3039183"><ele>510.4</ele><time>2026-03-27T12:13:52.647Z</time></trkpt><trkpt lat="44.67859" lon="9.30398"><ele>512.8</ele><time>2026-03-27T12:13:53.646Z</time></trkpt><trkpt lat="44.6785067" lon="9.3040583"><ele>515.2</ele><time>2026-03-27T12:13:54.647Z</time></trkpt><trkpt lat="44.678435" lon="9.304155"><ele>517.6</ele><time>2026-03-27T12:13:55.652Z</time></trkpt><trkpt lat="44.6783733" lon="9.3042633"><ele>520.0</ele><time>2026-03-27T12:13:56.648Z</time></trkpt><trkpt lat="44.678325" lon="9.30438"><ele>520.0</ele><time>2026-03-27T12:13:57.647Z</time></trkpt><trkpt lat="44.678285" lon="9.3044983"><ele>520.0</ele><time>2026-03-27T12:13:58.647Z</time></trkpt><trkpt lat="44.6782333" lon="9.3046017"><ele>520.0</ele><time>2026-03-27T12:13:59.647Z</time></trkpt><trkpt lat="44.6781633" lon="9.304685"><ele>520.0</ele><time>2026-03-27T12:14:00.648Z</time></trkpt><trkpt lat="44.678075" lon="9.30472"><ele>520.0</ele><time>2026-03-27T12:14:01.648Z</time></trkpt><trkpt lat="44.6779833" lon="9.3047417"><ele>522.2</ele><time>2026-03-27T12:14:02.647Z</time></trkpt><trkpt lat="44.6778917" lon="9.304775"><ele>524.4</ele><time>2026-03-27T12:14:03.647Z</time></trkpt><trkpt lat="44.677815" lon="9.3048433"><ele>526.6</ele><time>2026-03-27T12:14:04.646Z</time></trkpt><trkpt lat="44.67775" lon="9.3049317"><ele>528.8</ele><time>2026-03-27T12:14:05.648Z</time></trkpt><trkpt lat="44.6776767" lon="9.3050267"><ele>531.0</ele><time>2026-03-27T12:14:06.648Z</time></trkpt><trkpt lat="44.6775883" lon="9.305105"><ele>531.0</ele><time>2026-03-27T12:14:07.647Z</time></trkpt><trkpt lat="44.6774917" lon="9.3051517"><ele>531.0</ele><time>2026-03-27T12:14:08.646Z</time></trkpt><trkpt lat="44.67738" lon="9.3051817"><ele>531.0</ele><time>2026-03-27T12:14:09.647Z</time></trkpt><trkpt lat="44.6772667" lon="9.3051967"><ele>531.0</ele><time>2026-03-27T12:14:10.646Z</time></trkpt><trkpt lat="44.6771567" lon="9.3052133"><ele>531.0</ele><time>2026-03-27T12:14:11.647Z</time></trkpt><trkpt lat="44.6770483" lon="9.305225"><ele>531.0</ele><time>2026-03-27T12:14:12.647Z</time></trkpt><trkpt lat="44.6769417" lon="9.30524"><ele>531.0</ele><time>2026-03-27T12:14:13.647Z</time></trkpt><trkpt lat="44.6768333" lon="9.305255"><ele>531.0</ele><time>2026-03-27T12:14:14.646Z</time></trkpt><trkpt lat="44.6767283" lon="9.3052717"><ele>531.0</ele><time>2026-03-27T12:14:15.646Z</time></trkpt><trkpt lat="44.6766217" lon="9.3052883"><ele>531.0</ele><time>2026-03-27T12:14:16.646Z</time></trkpt><trkpt lat="44.6765167" lon="9.3053033"><ele>530.8</ele><time>2026-03-27T12:14:17.646Z</time></trkpt><trkpt lat="44.6764167" lon="9.30532"><ele>530.6</ele><time>2026-03-27T12:14:18.646Z</time></trkpt><trkpt lat="44.6763117" lon="9.3053367"><ele>530.4</ele><time>2026-03-27T12:14:19.646Z</time></trkpt><trkpt lat="44.6762" lon="9.3053633"><ele>530.2</ele><time>2026-03-27T12:14:20.648Z</time></trkpt><trkpt lat="44.6760833" lon="9.3054117"><ele>530.0</ele><time>2026-03-27T12:14:21.648Z</time></trkpt><trkpt lat="44.6759817" lon="9.305485"><ele>531.6</ele><time>2026-03-27T12:14:22.648Z</time></trkpt><trkpt lat="44.67589" lon="9.3055783"><ele>533.2</ele><time>2026-03-27T12:14:23.647Z</time></trkpt><trkpt lat="44.67581" lon="9.3056867"><ele>534.8</ele><time>2026-03-27T12:14:24.647Z</time></trkpt><trkpt lat="44.6757433" lon="9.3058117"><ele>536.4</ele><time>2026-03-27T12:14:25.647Z</time></trkpt><trkpt lat="44.675695" lon="9.305945"><ele>538.0</ele><time>2026-03-27T12:14:26.648Z</time></trkpt><trkpt lat="44.6756533" lon="9.3060867"><ele>538.0</ele><time>2026-03-27T12:14:27.647Z</time></trkpt><trkpt lat="44.6756267" lon="9.3062317"><ele>538.0</ele><time>2026-03-27T12:14:28.649Z</time></trkpt><trkpt lat="44.6756117" lon="9.3063767"><ele>538.0</ele><time>2026-03-27T12:14:29.648Z</time></trkpt><trkpt lat="44.67561" lon="9.3065117"><ele>538.0</ele><time>2026-03-27T12:14:30.647Z</time></trkpt><trkpt lat="44.675615" lon="9.306635"><ele>538.0</ele><time>2026-03-27T12:14:31.647Z</time></trkpt><trkpt lat="44.6756183" lon="9.3067517"><ele>540.3333333333334</ele><time>2026-03-27T12:14:32.646Z</time></trkpt><trkpt lat="44.6756083" lon="9.306865"><ele>542.6666666666667</ele><time>2026-03-27T12:14:33.646Z</time></trkpt><trkpt lat="44.6755717" lon="9.3069567"><ele>545.0</ele><time>2026-03-27T12:14:34.646Z</time></trkpt><trkpt lat="44.6755067" lon="9.307025"><ele>547.3333333333334</ele><time>2026-03-27T12:14:35.648Z</time></trkpt><trkpt lat="44.6754283" lon="9.307075"><ele>549.6666666666666</ele><time>2026-03-27T12:14:36.647Z</time></trkpt><trkpt lat="44.6753567" lon="9.3071317"><ele>552.0</ele><time>2026-03-27T12:14:37.646Z</time></trkpt><trkpt lat="44.6752967" lon="9.3072017"><ele>548.4285714285714</ele><time>2026-03-27T12:14:38.648Z</time></trkpt><trkpt lat="44.6752517" lon="9.30728"><ele>544.8571428571429</ele><time>2026-03-27T12:14:39.647Z</time></trkpt><trkpt lat="44.6752183" lon="9.3073717"><ele>541.2857142857143</ele><time>2026-03-27T12:14:40.646Z</time></trkpt><trkpt lat="44.6751933" lon="9.3074667"><ele>537.7142857142858</ele><time>2026-03-27T12:14:41.651Z</time></trkpt><trkpt lat="44.6751833" lon="9.30756"><ele>534.1428571428571</ele><time>2026-03-27T12:14:42.647Z</time></trkpt><trkpt lat="44.6751733" lon="9.307665"><ele>530.5714285714287</ele><time>2026-03-27T12:14:43.647Z</time></trkpt><trkpt lat="44.6751817" lon="9.3077833"><ele>527.0</ele><time>2026-03-27T12:14:44.648Z</time></trkpt><trkpt lat="44.6752083" lon="9.30788"><ele>527.0</ele><time>2026-03-27T12:14:45.647Z</time></trkpt><trkpt lat="44.67524" lon="9.307975"><ele>527.0</ele><time>2026-03-27T12:14:46.647Z</time></trkpt><trkpt lat="44.6752683" lon="9.3080817"><ele>527.0</ele><time>2026-03-27T12:14:47.646Z</time></trkpt><trkpt lat="44.6753033" lon="9.3081933"><ele>527.0</ele><time>2026-03-27T12:14:48.647Z</time></trkpt><trkpt lat="44.675345" lon="9.3083183"><ele>527.0</ele><time>2026-03-27T12:14:49.647Z</time></trkpt><trkpt lat="44.6753917" lon="9.3084417"><ele>527.0</ele><time>2026-03-27T12:14:50.646Z</time></trkpt><trkpt lat="44.67543" lon="9.308535"><ele>530.6666666666666</ele><time>2026-03-27T12:14:51.646Z</time></trkpt><trkpt lat="44.6754567" lon="9.3086183"><ele>534.3333333333333</ele><time>2026-03-27T12:14:52.646Z</time></trkpt><trkpt lat="44.675465" lon="9.30878"><ele>538.0</ele><time>2026-03-27T12:14:54.646Z</time></trkpt><trkpt lat="44.6754233" lon="9.3088617"><ele>541.6666666666666</ele><time>2026-03-27T12:14:55.646Z</time></trkpt><trkpt lat="44.675365" lon="9.30893"><ele>545.3333333333334</ele><time>2026-03-27T12:14:56.646Z</time></trkpt><trkpt lat="44.6753" lon="9.3089883"><ele>549.0</ele><time>2026-03-27T12:14:57.648Z</time></trkpt><trkpt lat="44.6752417" lon="9.30903"><ele>549.0</ele><time>2026-03-27T12:14:58.648Z</time></trkpt><trkpt lat="44.6751783" lon="9.3090783"><ele>549.0</ele><time>2026-03-27T12:15:00.647Z</time></trkpt><trkpt lat="44.675085" lon="9.3091183"><ele>549.0</ele><time>2026-03-27T12:16:12.646Z</time></trkpt><trkpt lat="44.67498" lon="9.3092017"><ele>549.0</ele><time>2026-03-27T12:16:14.65Z</time></trkpt><trkpt lat="44.6748817" lon="9.30927"><ele>549.0</ele><time>2026-03-27T12:16:16.648Z</time></trkpt><trkpt lat="44.6747633" lon="9.30924"><ele>549.0</ele><time>2026-03-27T12:16:18.646Z</time></trkpt><trkpt lat="44.6746633" lon="9.3091183"><ele>549.0</ele><time>2026-03-27T12:16:20.647Z</time></trkpt><trkpt lat="44.6746117" lon="9.309045"><ele>549.0</ele><time>2026-03-27T12:16:21.646Z</time></trkpt><trkpt lat="44.674555" lon="9.3089933"><ele>549.0</ele><time>2026-03-27T12:16:22.647Z</time></trkpt><trkpt lat="44.6744867" lon="9.3089667"><ele>549.0</ele><time>2026-03-27T12:16:23.648Z</time></trkpt><trkpt lat="44.6744" lon="9.3089717"><ele>549.0</ele><time>2026-03-27T12:16:24.647Z</time></trkpt><trkpt lat="44.67431" lon="9.308995"><ele>550.3333333333334</ele><time>2026-03-27T12:16:25.647Z</time></trkpt><trkpt lat="44.6742183" lon="9.3090167"><ele>551.6666666666666</ele><time>2026-03-27T12:16:26.647Z</time></trkpt><trkpt lat="44.6741317" lon="9.3090217"><ele>553.0</ele><time>2026-03-27T12:16:27.647Z</time></trkpt><trkpt lat="44.6740483" lon="9.309005"><ele>554.3333333333333</ele><time>2026-03-27T12:16:28.646Z</time></trkpt><trkpt lat="44.6739667" lon="9.3089817"><ele>555.6666666666666</ele><time>2026-03-27T12:16:29.647Z</time></trkpt><trkpt lat="44.6738883" lon="9.308935"><ele>557.0</ele><time>2026-03-27T12:16:30.646Z</time></trkpt><trkpt lat="44.6738183" lon="9.3088683"><ele>552.6666666666666</ele><time>2026-03-27T12:16:31.646Z</time></trkpt><trkpt lat="44.6737583" lon="9.308795"><ele>548.3333333333333</ele><time>2026-03-27T12:16:32.648Z</time></trkpt><trkpt lat="44.6736967" lon="9.3087133"><ele>544.0</ele><time>2026-03-27T12:16:33.651Z</time></trkpt><trkpt lat="44.6736333" lon="9.3086333"><ele>539.6666666666666</ele><time>2026-03-27T12:16:34.648Z</time></trkpt><trkpt lat="44.6735583" lon="9.3085667"><ele>535.3333333333334</ele><time>2026-03-27T12:16:35.646Z</time></trkpt><trkpt lat="44.673485" lon="9.3085067"><ele>531.0</ele><time>2026-03-27T12:16:36.646Z</time></trkpt><trkpt lat="44.6734117" lon="9.308465"><ele>531.0</ele><time>2026-03-27T12:16:37.646Z</time></trkpt><trkpt lat="44.6733367" lon="9.3084417"><ele>531.0</ele><time>2026-03-27T12:16:38.646Z</time></trkpt><trkpt lat="44.6732567" lon="9.3084433"><ele>531.0</ele><time>2026-03-27T12:16:39.652Z</time></trkpt><trkpt lat="44.673185" lon="9.3084667"><ele>531.0</ele><time>2026-03-27T12:16:40.646Z</time></trkpt><trkpt lat="44.6731183" lon="9.3085167"><ele>531.0</ele><time>2026-03-27T12:16:41.647Z</time></trkpt><trkpt lat="44.6730617" lon="9.3085933"><ele>531.0</ele><time>2026-03-27T12:16:42.646Z</time></trkpt><trkpt lat="44.6730083" lon="9.308695"><ele>531.0</ele><time>2026-03-27T12:16:43.648Z</time></trkpt><trkpt lat="44.6729567" lon="9.3088017"><ele>531.0</ele><time>2026-03-27T12:16:44.653Z</time></trkpt><trkpt lat="44.6729017" lon="9.3089183"><ele>531.0</ele><time>2026-03-27T12:16:45.649Z</time></trkpt><trkpt lat="44.6728367" lon="9.3090483"><ele>531.0</ele><time>2026-03-27T12:16:46.647Z</time></trkpt><trkpt lat="44.6727683" lon="9.3091633"><ele>531.0</ele><time>2026-03-27T12:16:47.647Z</time></trkpt><trkpt lat="44.6726783" lon="9.309245"><ele>533.0</ele><time>2026-03-27T12:16:48.647Z</time></trkpt><trkpt lat="44.6725783" lon="9.3093183"><ele>535.0</ele><time>2026-03-27T12:16:49.649Z</time></trkpt><trkpt lat="44.6724783" lon="9.30939"><ele>537.0</ele><time>2026-03-27T12:16:50.647Z</time></trkpt><trkpt lat="44.67239" lon="9.3094567"><ele>539.0</ele><time>2026-03-27T12:16:51.647Z</time></trkpt><trkpt lat="44.6723033" lon="9.3095217"><ele>541.0</ele><time>2026-03-27T12:16:52.647Z</time></trkpt><trkpt lat="44.6722117" lon="9.3095783"><ele>541.0</ele><time>2026-03-27T12:16:53.647Z</time></trkpt><trkpt lat="44.6721117" lon="9.3096217"><ele>541.0</ele><time>2026-03-27T12:16:54.647Z</time></trkpt><trkpt lat="44.6720083" lon="9.309635"><ele>541.0</ele><time>2026-03-27T12:16:55.647Z</time></trkpt><trkpt lat="44.6719033" lon="9.309635"><ele>541.0</ele><time>2026-03-27T12:16:56.648Z</time></trkpt><trkpt lat="44.671805" lon="9.309635"><ele>541.0</ele><time>2026-03-27T12:16:57.648Z</time></trkpt><trkpt lat="44.6717067" lon="9.3096417"><ele>538.6</ele><time>2026-03-27T12:16:58.647Z</time></trkpt><trkpt lat="44.6716067" lon="9.309645"><ele>536.2</ele><time>2026-03-27T12:16:59.649Z</time></trkpt><trkpt lat="44.67151" lon="9.3096367"><ele>533.8</ele><time>2026-03-27T12:17:00.647Z</time></trkpt><trkpt lat="44.6714233" lon="9.3095933"><ele>531.4</ele><time>2026-03-27T12:17:01.648Z</time></trkpt><trkpt lat="44.6713467" lon="9.3095367"><ele>529.0</ele><time>2026-03-27T12:17:02.648Z</time></trkpt><trkpt lat="44.6712733" lon="9.3094783"><ele>529.0</ele><time>2026-03-27T12:17:03.648Z</time></trkpt><trkpt lat="44.671205" lon="9.3094283"><ele>529.0</ele><time>2026-03-27T12:17:04.647Z</time></trkpt><trkpt lat="44.67114" lon="9.3093883"><ele>529.0</ele><time>2026-03-27T12:17:05.648Z</time></trkpt><trkpt lat="44.6710267" lon="9.3093783"><ele>529.0</ele><time>2026-03-27T12:17:07.648Z</time></trkpt><trkpt lat="44.6709567" lon="9.30942"><ele>529.0</ele><time>2026-03-27T12:17:08.65Z</time></trkpt><trkpt lat="44.670885" lon="9.3094817"><ele>529.0</ele><time>2026-03-27T12:17:09.648Z</time></trkpt><trkpt lat="44.6708017" lon="9.3095433"><ele>529.5</ele><time>2026-03-27T12:17:10.648Z</time></trkpt><trkpt lat="44.6707083" lon="9.3095783"><ele>530.0</ele><time>2026-03-27T12:17:11.648Z</time></trkpt><trkpt lat="44.6706167" lon="9.3096"><ele>530.5</ele><time>2026-03-27T12:17:12.648Z</time></trkpt><trkpt lat="44.6705283" lon="9.3096067"><ele>531.0</ele><time>2026-03-27T12:17:13.649Z</time></trkpt><trkpt lat="44.6704433" lon="9.3096083"><ele>531.5</ele><time>2026-03-27T12:17:14.65Z</time></trkpt><trkpt lat="44.6703667" lon="9.3095967"><ele>532.0</ele><time>2026-03-27T12:17:15.647Z</time></trkpt><trkpt lat="44.6702867" lon="9.309565"><ele>530.8333333333334</ele><time>2026-03-27T12:17:16.647Z</time></trkpt><trkpt lat="44.67021" lon="9.3095233"><ele>529.6666666666667</ele><time>2026-03-27T12:17:17.648Z</time></trkpt><trkpt lat="44.67014" lon="9.3094767"><ele>528.5</ele><time>2026-03-27T12:17:18.649Z</time></trkpt><trkpt lat="44.670065" lon="9.3094317"><ele>527.3333333333334</ele><time>2026-03-27T12:17:19.649Z</time></trkpt><trkpt lat="44.6699817" lon="9.3094033"><ele>526.1666666666666</ele><time>2026-03-27T12:17:20.647Z</time></trkpt><trkpt lat="44.6698967" lon="9.30941"><ele>525.0</ele><time>2026-03-27T12:17:21.649Z</time></trkpt><trkpt lat="44.6698117" lon="9.3094583"><ele>525.0</ele><time>2026-03-27T12:17:22.648Z</time></trkpt><trkpt lat="44.6697383" lon="9.3095567"><ele>525.0</ele><time>2026-03-27T12:17:23.648Z</time></trkpt><trkpt lat="44.669685" lon="9.3096817"><ele>525.0</ele><time>2026-03-27T12:17:24.648Z</time></trkpt><trkpt lat="44.669645" lon="9.3098233"><ele>525.0</ele><time>2026-03-27T12:17:25.647Z</time></trkpt><trkpt lat="44.66963" lon="9.3099683"><ele>525.0</ele><time>2026-03-27T12:17:26.648Z</time></trkpt><trkpt lat="44.6696433" lon="9.31011"><ele>530.8</ele><time>2026-03-27T12:17:27.648Z</time></trkpt><trkpt lat="44.6696683" lon="9.3102483"><ele>536.6</ele><time>2026-03-27T12:17:28.647Z</time></trkpt><trkpt lat="44.66969" lon="9.310385"><ele>542.4</ele><time>2026-03-27T12:17:29.652Z</time></trkpt><trkpt lat="44.6696967" lon="9.310515"><ele>548.2</ele><time>2026-03-27T12:17:30.648Z</time></trkpt><trkpt lat="44.66968" lon="9.3106433"><ele>554.0</ele><time>2026-03-27T12:17:31.646Z</time></trkpt><trkpt lat="44.6696367" lon="9.3107383"><ele>551.0</ele><time>2026-03-27T12:17:32.646Z</time></trkpt><trkpt lat="44.66956" lon="9.31079"><ele>548.0</ele><time>2026-03-27T12:17:33.646Z</time></trkpt><trkpt lat="44.6694633" lon="9.31082"><ele>545.0</ele><time>2026-03-27T12:17:34.649Z</time></trkpt><trkpt lat="44.6693517" lon="9.3108333"><ele>542.0</ele><time>2026-03-27T12:17:35.646Z</time></trkpt><trkpt lat="44.6692533" lon="9.3108417"><ele>539.0</ele><time>2026-03-27T12:17:36.647Z</time></trkpt><trkpt lat="44.6691683" lon="9.3108717"><ele>539.0</ele><time>2026-03-27T12:17:37.647Z</time></trkpt><trkpt lat="44.6690917" lon="9.3109317"><ele>539.0</ele><time>2026-03-27T12:17:38.647Z</time></trkpt><trkpt lat="44.669025" lon="9.31102"><ele>539.0</ele><time>2026-03-27T12:17:39.646Z</time></trkpt><trkpt lat="44.668985" lon="9.3111583"><ele>539.0</ele><time>2026-03-27T12:17:40.647Z</time></trkpt><trkpt lat="44.6689583" lon="9.3113067"><ele>539.0</ele><time>2026-03-27T12:17:41.648Z</time></trkpt><trkpt lat="44.6689367" lon="9.311455"><ele>544.0</ele><time>2026-03-27T12:17:42.647Z</time></trkpt><trkpt lat="44.6689133" lon="9.3115933"><ele>549.0</ele><time>2026-03-27T12:17:43.647Z</time></trkpt><trkpt lat="44.6688867" lon="9.31172"><ele>554.0</ele><time>2026-03-27T12:17:44.648Z</time></trkpt><trkpt lat="44.6688533" lon="9.311835"><ele>559.0</ele><time>2026-03-27T12:17:45.647Z</time></trkpt><trkpt lat="44.668805" lon="9.311945"><ele>564.0</ele><time>2026-03-27T12:17:46.647Z</time></trkpt><trkpt lat="44.668725" lon="9.3120217"><ele>564.0</ele><time>2026-03-27T12:17:47.647Z</time></trkpt><trkpt lat="44.6686267" lon="9.312065"><ele>564.0</ele><time>2026-03-27T12:17:48.646Z</time></trkpt><trkpt lat="44.6685233" lon="9.3120867"><ele>564.0</ele><time>2026-03-27T12:17:49.646Z</time></trkpt><trkpt lat="44.6684183" lon="9.3120867"><ele>564.0</ele><time>2026-03-27T12:17:50.651Z</time></trkpt><trkpt lat="44.6683183" lon="9.3120717"><ele>564.0</ele><time>2026-03-27T12:17:51.646Z</time></trkpt><trkpt lat="44.6682233" lon="9.3120333"><ele>560.0</ele><time>2026-03-27T12:17:52.647Z</time></trkpt><trkpt lat="44.6681367" lon="9.3119717"><ele>556.0</ele><time>2026-03-27T12:17:53.647Z</time></trkpt><trkpt lat="44.6680583" lon="9.3118983"><ele>552.0</ele><time>2026-03-27T12:17:54.647Z</time></trkpt><trkpt lat="44.667985" lon="9.3118217"><ele>548.0</ele><time>2026-03-27T12:17:55.647Z</time></trkpt><trkpt lat="44.667905" lon="9.3117617"><ele>544.0</ele><time>2026-03-27T12:17:56.647Z</time></trkpt><trkpt lat="44.66782" lon="9.3117417"><ele>541.2</ele><time>2026-03-27T12:17:57.646Z</time></trkpt><trkpt lat="44.66773" lon="9.3117583"><ele>538.4</ele><time>2026-03-27T12:17:58.647Z</time></trkpt><trkpt lat="44.6676433" lon="9.3118567"><ele>535.6</ele><time>2026-03-27T12:17:59.647Z</time></trkpt><trkpt lat="44.66757" lon="9.3119933"><ele>532.8</ele><time>2026-03-27T12:18:00.647Z</time></trkpt><trkpt lat="44.6675067" lon="9.3121383"><ele>530.0</ele><time>2026-03-27T12:18:01.646Z</time></trkpt><trkpt lat="44.6674433" lon="9.31228"><ele>535.6</ele><time>2026-03-27T12:18:02.647Z</time></trkpt><trkpt lat="44.66738" lon="9.31242"><ele>541.2</ele><time>2026-03-27T12:18:03.646Z</time></trkpt><trkpt lat="44.6673183" lon="9.31255"><ele>546.8</ele><time>2026-03-27T12:18:04.65Z</time></trkpt><trkpt lat="44.667255" lon="9.3126733"><ele>552.4</ele><time>2026-03-27T12:18:05.647Z</time></trkpt><trkpt lat="44.6671683" lon="9.3127683"><ele>558.0</ele><time>2026-03-27T12:18:06.647Z</time></trkpt><trkpt lat="44.6670733" lon="9.3128367"><ele>558.0</ele><time>2026-03-27T12:18:07.647Z</time></trkpt><trkpt lat="44.666965" lon="9.3128867"><ele>558.0</ele><time>2026-03-27T12:18:08.647Z</time></trkpt><trkpt lat="44.6668483" lon="9.3129217"><ele>558.0</ele><time>2026-03-27T12:18:09.646Z</time></trkpt><trkpt lat="44.6667367" lon="9.3129567"><ele>558.0</ele><time>2026-03-27T12:18:10.649Z</time></trkpt><trkpt lat="44.6666367" lon="9.3129933"><ele>554.1999999999999</ele><time>2026-03-27T12:18:11.646Z</time></trkpt><trkpt lat="44.6665417" lon="9.3130217"><ele>550.4</ele><time>2026-03-27T12:18:12.647Z</time></trkpt><trkpt lat="44.666445" lon="9.3130483"><ele>546.5999999999999</ele><time>2026-03-27T12:18:13.646Z</time></trkpt><trkpt lat="44.666345" lon="9.3130617"><ele>542.8</ele><time>2026-03-27T12:18:14.647Z</time></trkpt><trkpt lat="44.666255" lon="9.3130433"><ele>539.0</ele><time>2026-03-27T12:18:15.647Z</time></trkpt><trkpt lat="44.6661783" lon="9.3129767"><ele>539.0</ele><time>2026-03-27T12:18:16.647Z</time></trkpt><trkpt lat="44.6661133" lon="9.3128783"><ele>539.0</ele><time>2026-03-27T12:18:17.646Z</time></trkpt><trkpt lat="44.6660533" lon="9.3127633"><ele>539.0</ele><time>2026-03-27T12:18:18.647Z</time></trkpt><trkpt lat="44.6659717" lon="9.3126583"><ele>539.0</ele><time>2026-03-27T12:18:19.65Z</time></trkpt><trkpt lat="44.6658817" lon="9.3125783"><ele>539.0</ele><time>2026-03-27T12:18:20.653Z</time></trkpt><trkpt lat="44.6657883" lon="9.3125167"><ele>539.0</ele><time>2026-03-27T12:18:21.648Z</time></trkpt><trkpt lat="44.665695" lon="9.3124483"><ele>539.0</ele><time>2026-03-27T12:18:22.647Z</time></trkpt><trkpt lat="44.66561" lon="9.3123517"><ele>539.0</ele><time>2026-03-27T12:18:23.648Z</time></trkpt><trkpt lat="44.665545" lon="9.31222"><ele>539.0</ele><time>2026-03-27T12:18:24.647Z</time></trkpt><trkpt lat="44.6654917" lon="9.3120667"><ele>539.0</ele><time>2026-03-27T12:18:25.647Z</time></trkpt><trkpt lat="44.665435" lon="9.311905"><ele>539.0</ele><time>2026-03-27T12:18:26.647Z</time></trkpt><trkpt lat="44.66537" lon="9.31175"><ele>539.0</ele><time>2026-03-27T12:18:27.647Z</time></trkpt><trkpt lat="44.665295" lon="9.3116117"><ele>539.0</ele><time>2026-03-27T12:18:28.651Z</time></trkpt><trkpt lat="44.6652133" lon="9.3114833"><ele>541.0</ele><time>2026-03-27T12:18:29.646Z</time></trkpt><trkpt lat="44.6651167" lon="9.3113717"><ele>543.0</ele><time>2026-03-27T12:18:30.648Z</time></trkpt><trkpt lat="44.66502" lon="9.3112817"><ele>545.0</ele><time>2026-03-27T12:18:31.646Z</time></trkpt><trkpt lat="44.6649167" lon="9.3112183"><ele>547.0</ele><time>2026-03-27T12:18:32.65Z</time></trkpt><trkpt lat="44.6648033" lon="9.311175"><ele>547.0</ele><time>2026-03-27T12:18:33.647Z</time></trkpt><trkpt lat="44.6646733" lon="9.311165"><ele>547.0</ele><time>2026-03-27T12:18:34.648Z</time></trkpt><trkpt lat="44.66454" lon="9.3111817"><ele>547.0</ele><time>2026-03-27T12:18:35.648Z</time></trkpt><trkpt lat="44.6644" lon="9.3112083"><ele>547.0</ele><time>2026-03-27T12:18:36.648Z</time></trkpt><trkpt lat="44.6642633" lon="9.31124"><ele>545.5</ele><time>2026-03-27T12:18:37.647Z</time></trkpt><trkpt lat="44.6641367" lon="9.3112867"><ele>544.0</ele><time>2026-03-27T12:18:38.649Z</time></trkpt><trkpt lat="44.6640183" lon="9.3113667"><ele>542.5</ele><time>2026-03-27T12:18:39.647Z</time></trkpt><trkpt lat="44.6639067" lon="9.3114683"><ele>541.0</ele><time>2026-03-27T12:18:40.647Z</time></trkpt><trkpt lat="44.6638117" lon="9.3115883"><ele>541.0</ele><time>2026-03-27T12:18:41.647Z</time></trkpt><trkpt lat="44.663715" lon="9.3116983"><ele>541.0</ele><time>2026-03-27T12:18:42.648Z</time></trkpt><trkpt lat="44.6636183" lon="9.31179"><ele>541.0</ele><time>2026-03-27T12:18:43.646Z</time></trkpt><trkpt lat="44.66351" lon="9.3118717"><ele>541.0</ele><time>2026-03-27T12:18:44.647Z</time></trkpt><trkpt lat="44.6633933" lon="9.311945"><ele>541.0</ele><time>2026-03-27T12:18:45.647Z</time></trkpt><trkpt lat="44.6632783" lon="9.3120167"><ele>541.0</ele><time>2026-03-27T12:18:46.646Z</time></trkpt><trkpt lat="44.6631683" lon="9.312095"><ele>541.0</ele><time>2026-03-27T12:18:47.647Z</time></trkpt><trkpt lat="44.66306" lon="9.3121767"><ele>541.0</ele><time>2026-03-27T12:18:48.647Z</time></trkpt><trkpt lat="44.6629633" lon="9.3122633"><ele>540.8</ele><time>2026-03-27T12:18:49.647Z</time></trkpt><trkpt lat="44.662875" lon="9.3123467"><ele>540.6</ele><time>2026-03-27T12:18:50.647Z</time></trkpt><trkpt lat="44.662795" lon="9.31243"><ele>540.4</ele><time>2026-03-27T12:18:51.647Z</time></trkpt><trkpt lat="44.6627217" lon="9.312505"><ele>540.2</ele><time>2026-03-27T12:18:52.647Z</time></trkpt><trkpt lat="44.6626583" lon="9.31258"><ele>540.0</ele><time>2026-03-27T12:18:53.649Z</time></trkpt><trkpt lat="44.6626033" lon="9.31266"><ele>540.0</ele><time>2026-03-27T12:18:54.647Z</time></trkpt><trkpt lat="44.6625583" lon="9.3127517"><ele>540.0</ele><time>2026-03-27T12:18:55.648Z</time></trkpt><trkpt lat="44.6625233" lon="9.3128683"><ele>540.0</ele><time>2026-03-27T12:18:56.649Z</time></trkpt><trkpt lat="44.6624867" lon="9.31299"><ele>540.0</ele><time>2026-03-27T12:18:57.648Z</time></trkpt><trkpt lat="44.6624333" lon="9.3131117"><ele>540.0</ele><time>2026-03-27T12:18:58.647Z</time></trkpt><trkpt lat="44.662365" lon="9.3132083"><ele>544.2</ele><time>2026-03-27T12:18:59.648Z</time></trkpt><trkpt lat="44.66228" lon="9.3132933"><ele>548.4</ele><time>2026-03-27T12:19:00.648Z</time></trkpt><trkpt lat="44.66218" lon="9.3133683"><ele>552.6</ele><time>2026-03-27T12:19:01.648Z</time></trkpt><trkpt lat="44.6620767" lon="9.313415"><ele>556.8</ele><time>2026-03-27T12:19:02.651Z</time></trkpt><trkpt lat="44.6619833" lon="9.3134217"><ele>561.0</ele><time>2026-03-27T12:19:03.646Z</time></trkpt><trkpt lat="44.6618933" lon="9.3133733"><ele>561.0</ele><time>2026-03-27T12:19:04.647Z</time></trkpt><trkpt lat="44.6618167" lon="9.31328"><ele>561.0</ele><time>2026-03-27T12:19:05.648Z</time></trkpt><trkpt lat="44.66175" lon="9.3131467"><ele>561.0</ele><time>2026-03-27T12:19:06.646Z</time></trkpt><trkpt lat="44.66169" lon="9.3129833"><ele>561.0</ele><time>2026-03-27T12:19:07.649Z</time></trkpt><trkpt lat="44.6616317" lon="9.3128133"><ele>557.25</ele><time>2026-03-27T12:19:08.648Z</time></trkpt><trkpt lat="44.66157" lon="9.3126383"><ele>553.5</ele><time>2026-03-27T12:19:09.647Z</time></trkpt><trkpt lat="44.6615067" lon="9.3124567"><ele>549.75</ele><time>2026-03-27T12:19:10.646Z</time></trkpt><trkpt lat="44.661435" lon="9.3122867"><ele>546.0</ele><time>2026-03-27T12:19:11.647Z</time></trkpt><trkpt lat="44.6613767" lon="9.3121083"><ele>543.75</ele><time>2026-03-27T12:19:12.647Z</time></trkpt><trkpt lat="44.6613117" lon="9.3119283"><ele>541.5</ele><time>2026-03-27T12:19:13.647Z</time></trkpt><trkpt lat="44.66125" lon="9.31174"><ele>539.25</ele><time>2026-03-27T12:19:14.647Z</time></trkpt><trkpt lat="44.661205" lon="9.3115483"><ele>537.0</ele><time>2026-03-27T12:19:15.648Z</time></trkpt><trkpt lat="44.6611733" lon="9.3113567"><ele>536.0</ele><time>2026-03-27T12:19:16.647Z</time></trkpt><trkpt lat="44.6611533" lon="9.3111617"><ele>535.0</ele><time>2026-03-27T12:19:17.647Z</time></trkpt><trkpt lat="44.661135" lon="9.3109733"><ele>534.0</ele><time>2026-03-27T12:19:18.647Z</time></trkpt><trkpt lat="44.66112" lon="9.3107883"><ele>533.0</ele><time>2026-03-27T12:19:19.646Z</time></trkpt><trkpt lat="44.6610983" lon="9.3105983"><ele>533.25</ele><time>2026-03-27T12:19:20.651Z</time></trkpt><trkpt lat="44.661065" lon="9.31041"><ele>533.5</ele><time>2026-03-27T12:19:21.646Z</time></trkpt><trkpt lat="44.66102" lon="9.3102367"><ele>533.75</ele><time>2026-03-27T12:19:22.647Z</time></trkpt><trkpt lat="44.660965" lon="9.31008"><ele>534.0</ele><time>2026-03-27T12:19:23.648Z</time></trkpt><trkpt lat="44.6608917" lon="9.3099667"><ele>534.0</ele><time>2026-03-27T12:19:24.647Z</time></trkpt><trkpt lat="44.6608117" lon="9.309905"><ele>534.0</ele><time>2026-03-27T12:19:25.647Z</time></trkpt><trkpt lat="44.6607183" lon="9.3099217"><ele>534.0</ele><time>2026-03-27T12:19:26.648Z</time></trkpt><trkpt lat="44.6606317" lon="9.3100117"><ele>534.0</ele><time>2026-03-27T12:19:27.647Z</time></trkpt><trkpt lat="44.6605617" lon="9.310155"><ele>534.0</ele><time>2026-03-27T12:19:28.646Z</time></trkpt><trkpt lat="44.6605067" lon="9.3103233"><ele>534.0</ele><time>2026-03-27T12:19:29.648Z</time></trkpt><trkpt lat="44.6604517" lon="9.3104867"><ele>534.0</ele><time>2026-03-27T12:19:30.647Z</time></trkpt><trkpt lat="44.6603767" lon="9.310605"><ele>534.0</ele><time>2026-03-27T12:19:31.649Z</time></trkpt><trkpt lat="44.6602817" lon="9.3106717"><ele>534.0</ele><time>2026-03-27T12:19:32.646Z</time></trkpt><trkpt lat="44.6601633" lon="9.310745"><ele>534.0</ele><time>2026-03-27T12:19:33.646Z</time></trkpt><trkpt lat="44.6600367" lon="9.3108533"><ele>534.0</ele><time>2026-03-27T12:19:34.646Z</time></trkpt><trkpt lat="44.6599083" lon="9.3109867"><ele>534.0</ele><time>2026-03-27T12:19:35.646Z</time></trkpt><trkpt lat="44.6597817" lon="9.3111217"><ele>534.0</ele><time>2026-03-27T12:19:36.649Z</time></trkpt><trkpt lat="44.6596617" lon="9.3112583"><ele>534.0</ele><time>2026-03-27T12:19:37.647Z</time></trkpt><trkpt lat="44.6595367" lon="9.3113933"><ele>534.0</ele><time>2026-03-27T12:19:38.65Z</time></trkpt><trkpt lat="44.6593933" lon="9.3115133"><ele>534.0</ele><time>2026-03-27T12:19:39.646Z</time></trkpt><trkpt lat="44.65924" lon="9.31161"><ele>534.0</ele><time>2026-03-27T12:19:40.646Z</time></trkpt><trkpt lat="44.6590817" lon="9.3116917"><ele>534.0</ele><time>2026-03-27T12:19:41.647Z</time></trkpt><trkpt lat="44.658925" lon="9.3117733"><ele>534.0</ele><time>2026-03-27T12:19:42.65Z</time></trkpt><trkpt lat="44.65877" lon="9.311865"><ele>534.0</ele><time>2026-03-27T12:19:43.65Z</time></trkpt><trkpt lat="44.6586167" lon="9.3119583"><ele>534.0</ele><time>2026-03-27T12:19:44.65Z</time></trkpt><trkpt lat="44.6584717" lon="9.3120567"><ele>534.75</ele><time>2026-03-27T12:19:45.648Z</time></trkpt><trkpt lat="44.6583333" lon="9.3121583"><ele>535.5</ele><time>2026-03-27T12:19:46.648Z</time></trkpt><trkpt lat="44.6582083" lon="9.312255"><ele>536.25</ele><time>2026-03-27T12:19:47.65Z</time></trkpt><trkpt lat="44.6580817" lon="9.3123467"><ele>537.0</ele><time>2026-03-27T12:19:48.648Z</time></trkpt><trkpt lat="44.6579633" lon="9.3124367"><ele>537.0</ele><time>2026-03-27T12:19:49.649Z</time></trkpt><trkpt lat="44.65785" lon="9.3125167"><ele>537.0</ele><time>2026-03-27T12:19:50.649Z</time></trkpt><trkpt lat="44.657745" lon="9.3125767"><ele>537.0</ele><time>2026-03-27T12:19:51.647Z</time></trkpt><trkpt lat="44.65764" lon="9.31262"><ele>537.0</ele><time>2026-03-27T12:19:52.647Z</time></trkpt><trkpt lat="44.6575283" lon="9.31266"><ele>534.0</ele><time>2026-03-27T12:19:53.646Z</time></trkpt><trkpt lat="44.657415" lon="9.3127083"><ele>531.0</ele><time>2026-03-27T12:19:54.647Z</time></trkpt><trkpt lat="44.6573033" lon="9.31277"><ele>528.0</ele><time>2026-03-27T12:19:55.647Z</time></trkpt><trkpt lat="44.6571883" lon="9.31283"><ele>525.0</ele><time>2026-03-27T12:19:56.647Z</time></trkpt><trkpt lat="44.657075" lon="9.3128883"><ele>525.0</ele><time>2026-03-27T12:19:57.647Z</time></trkpt><trkpt lat="44.6569683" lon="9.3129167"><ele>525.0</ele><time>2026-03-27T12:19:58.646Z</time></trkpt><trkpt lat="44.65686" lon="9.312885"><ele>525.0</ele><time>2026-03-27T12:19:59.648Z</time></trkpt><trkpt lat="44.656765" lon="9.3127933"><ele>525.0</ele><time>2026-03-27T12:20:00.648Z</time></trkpt><trkpt lat="44.6566617" lon="9.3126683"><ele>525.75</ele><time>2026-03-27T12:20:01.649Z</time></trkpt><trkpt lat="44.6565633" lon="9.3125333"><ele>526.5</ele><time>2026-03-27T12:20:02.648Z</time></trkpt><trkpt lat="44.6564667" lon="9.3124033"><ele>527.25</ele><time>2026-03-27T12:20:03.648Z</time></trkpt><trkpt lat="44.6563717" lon="9.31229"><ele>528.0</ele><time>2026-03-27T12:20:04.647Z</time></trkpt><trkpt lat="44.6562767" lon="9.31221"><ele>528.0</ele><time>2026-03-27T12:20:05.646Z</time></trkpt><trkpt lat="44.6561783" lon="9.3121867"><ele>528.0</ele><time>2026-03-27T12:20:06.652Z</time></trkpt><trkpt lat="44.6560783" lon="9.312225"><ele>528.0</ele><time>2026-03-27T12:20:07.647Z</time></trkpt><trkpt lat="44.6559783" lon="9.3123133"><ele>528.0</ele><time>2026-03-27T12:20:08.648Z</time></trkpt><trkpt lat="44.6558633" lon="9.312415"><ele>528.0</ele><time>2026-03-27T12:20:09.647Z</time></trkpt><trkpt lat="44.655735" lon="9.312485"><ele>528.0</ele><time>2026-03-27T12:20:10.647Z</time></trkpt><trkpt lat="44.65559" lon="9.3125233"><ele>528.0</ele><time>2026-03-27T12:20:11.648Z</time></trkpt><trkpt lat="44.6554333" lon="9.3125267"><ele>528.0</ele><time>2026-03-27T12:20:12.646Z</time></trkpt><trkpt lat="44.6552817" lon="9.31249"><ele>527.5</ele><time>2026-03-27T12:20:13.647Z</time></trkpt><trkpt lat="44.655135" lon="9.3124133"><ele>527.0</ele><time>2026-03-27T12:20:14.648Z</time></trkpt><trkpt lat="44.6550033" lon="9.312325"><ele>526.5</ele><time>2026-03-27T12:20:15.647Z</time></trkpt><trkpt lat="44.6548933" lon="9.31224"><ele>526.0</ele><time>2026-03-27T12:20:16.647Z</time></trkpt><trkpt lat="44.6547917" lon="9.3122033"><ele>526.0</ele><time>2026-03-27T12:20:17.648Z</time></trkpt><trkpt lat="44.6546817" lon="9.3122283"><ele>526.0</ele><time>2026-03-27T12:20:18.647Z</time></trkpt><trkpt lat="44.6545667" lon="9.3123267"><ele>526.0</ele><time>2026-03-27T12:20:19.649Z</time></trkpt><trkpt lat="44.6544583" lon="9.3124767"><ele>526.0</ele><time>2026-03-27T12:20:20.647Z</time></trkpt><trkpt lat="44.654365" lon="9.3126533"><ele>524.5</ele><time>2026-03-27T12:20:21.649Z</time></trkpt><trkpt lat="44.65429" lon="9.3128283"><ele>523.0</ele><time>2026-03-27T12:20:22.646Z</time></trkpt><trkpt lat="44.6542033" lon="9.31298"><ele>521.5</ele><time>2026-03-27T12:20:23.648Z</time></trkpt><trkpt lat="44.65411" lon="9.3131"><ele>520.0</ele><time>2026-03-27T12:20:24.647Z</time></trkpt><trkpt lat="44.65402" lon="9.3132017"><ele>520.0</ele><time>2026-03-27T12:20:25.649Z</time></trkpt><trkpt lat="44.6539517" lon="9.3133133"><ele>520.0</ele><time>2026-03-27T12:20:26.648Z</time></trkpt><trkpt lat="44.653925" lon="9.3134383"><ele>520.0</ele><time>2026-03-27T12:20:27.646Z</time></trkpt><trkpt lat="44.6539483" lon="9.3135667"><ele>520.0</ele><time>2026-03-27T12:20:28.649Z</time></trkpt><trkpt lat="44.654015" lon="9.3136967"><ele>520.0</ele><time>2026-03-27T12:20:29.646Z</time></trkpt><trkpt lat="44.654105" lon="9.31382"><ele>518.5</ele><time>2026-03-27T12:20:30.649Z</time></trkpt><trkpt lat="44.6542017" lon="9.3139467"><ele>517.0</ele><time>2026-03-27T12:20:31.647Z</time></trkpt><trkpt lat="44.6542933" lon="9.314085"><ele>515.5</ele><time>2026-03-27T12:20:32.647Z</time></trkpt><trkpt lat="44.654375" lon="9.3142317"><ele>514.0</ele><time>2026-03-27T12:20:33.647Z</time></trkpt><trkpt lat="44.6544267" lon="9.3143983"><ele>514.0</ele><time>2026-03-27T12:20:34.648Z</time></trkpt><trkpt lat="44.6544367" lon="9.31456"><ele>514.0</ele><time>2026-03-27T12:20:35.647Z</time></trkpt><trkpt lat="44.6544083" lon="9.314705"><ele>514.0</ele><time>2026-03-27T12:20:36.647Z</time></trkpt><trkpt lat="44.6543483" lon="9.3148283"><ele>514.0</ele><time>2026-03-27T12:20:37.646Z</time></trkpt><trkpt lat="44.6542567" lon="9.3149233"><ele>514.0</ele><time>2026-03-27T12:20:38.648Z</time></trkpt><trkpt lat="44.6541333" lon="9.31498"><ele>514.5</ele><time>2026-03-27T12:20:39.647Z</time></trkpt><trkpt lat="44.6539817" lon="9.31502"><ele>515.0</ele><time>2026-03-27T12:20:40.648Z</time></trkpt><trkpt lat="44.6538267" lon="9.31505"><ele>515.5</ele><time>2026-03-27T12:20:41.647Z</time></trkpt><trkpt lat="44.653695" lon="9.31508"><ele>516.0</ele><time>2026-03-27T12:20:42.647Z</time></trkpt><trkpt lat="44.6535967" lon="9.3151333"><ele>515.2</ele><time>2026-03-27T12:20:43.647Z</time></trkpt><trkpt lat="44.653515" lon="9.315225"><ele>514.4000000000001</ele><time>2026-03-27T12:20:44.649Z</time></trkpt><trkpt lat="44.6534633" lon="9.315335"><ele>513.6</ele><time>2026-03-27T12:20:45.647Z</time></trkpt><trkpt lat="44.65342" lon="9.315455"><ele>512.8000000000001</ele><time>2026-03-27T12:20:46.647Z</time></trkpt><trkpt lat="44.653375" lon="9.315585"><ele>512.0</ele><time>2026-03-27T12:20:47.647Z</time></trkpt><trkpt lat="44.6533117" lon="9.3157033"><ele>512.0</ele><time>2026-03-27T12:20:48.647Z</time></trkpt><trkpt lat="44.65321" lon="9.31579"><ele>512.0</ele><time>2026-03-27T12:20:49.646Z</time></trkpt><trkpt lat="44.65308" lon="9.3158417"><ele>512.0</ele><time>2026-03-27T12:20:50.648Z</time></trkpt><trkpt lat="44.652925" lon="9.315855"><ele>512.0</ele><time>2026-03-27T12:20:51.646Z</time></trkpt><trkpt lat="44.6527733" lon="9.3158667"><ele>508.0</ele><time>2026-03-27T12:20:52.647Z</time></trkpt><trkpt lat="44.6526433" lon="9.315915"><ele>504.0</ele><time>2026-03-27T12:20:53.648Z</time></trkpt><trkpt lat="44.65254" lon="9.3160233"><ele>500.0</ele><time>2026-03-27T12:20:54.649Z</time></trkpt><trkpt lat="44.6524567" lon="9.3161867"><ele>496.0</ele><time>2026-03-27T12:20:55.647Z</time></trkpt><trkpt lat="44.6523783" lon="9.3163433"><ele>494.0</ele><time>2026-03-27T12:20:56.647Z</time></trkpt><trkpt lat="44.65229" lon="9.316455"><ele>492.0</ele><time>2026-03-27T12:20:57.646Z</time></trkpt><trkpt lat="44.6521767" lon="9.3165183"><ele>490.0</ele><time>2026-03-27T12:20:58.647Z</time></trkpt><trkpt lat="44.6520567" lon="9.31656"><ele>488.0</ele><time>2026-03-27T12:20:59.647Z</time></trkpt><trkpt lat="44.6519517" lon="9.316625"><ele>488.0</ele><time>2026-03-27T12:21:00.647Z</time></trkpt><trkpt lat="44.6518667" lon="9.3167333"><ele>487.99999999999994</ele><time>2026-03-27T12:21:01.648Z</time></trkpt><trkpt lat="44.6518017" lon="9.3168667"><ele>487.99999999999994</ele><time>2026-03-27T12:21:02.646Z</time></trkpt><trkpt lat="44.6517433" lon="9.3169933"><ele>488.0</ele><time>2026-03-27T12:21:03.649Z</time></trkpt><trkpt lat="44.6516767" lon="9.3170817"><ele>488.0</ele><time>2026-03-27T12:21:04.647Z</time></trkpt><trkpt lat="44.6515933" lon="9.3171533"><ele>488.0</ele><time>2026-03-27T12:21:05.648Z</time></trkpt><trkpt lat="44.6514967" lon="9.3172167"><ele>487.99999999999994</ele><time>2026-03-27T12:21:06.648Z</time></trkpt><trkpt lat="44.6514217" lon="9.3173217"><ele>487.99999999999994</ele><time>2026-03-27T12:21:07.649Z</time></trkpt><trkpt lat="44.6513733" lon="9.31746"><ele>488.0</ele><time>2026-03-27T12:21:08.647Z</time></trkpt><trkpt lat="44.6513583" lon="9.31762"><ele>488.0</ele><time>2026-03-27T12:21:09.647Z</time></trkpt><trkpt lat="44.6513533" lon="9.3177883"><ele>490.25</ele><time>2026-03-27T12:21:10.647Z</time></trkpt><trkpt lat="44.6513183" lon="9.31796"><ele>492.5</ele><time>2026-03-27T12:21:11.649Z</time></trkpt><trkpt lat="44.65126" lon="9.318145"><ele>494.75</ele><time>2026-03-27T12:21:12.647Z</time></trkpt><trkpt lat="44.651215" lon="9.3183383"><ele>497.0</ele><time>2026-03-27T12:21:13.647Z</time></trkpt><trkpt lat="44.6512017" lon="9.31855"><ele>502.0</ele><time>2026-03-27T12:21:14.647Z</time></trkpt><trkpt lat="44.65121" lon="9.3187683"><ele>507.0</ele><time>2026-03-27T12:21:15.646Z</time></trkpt><trkpt lat="44.6512267" lon="9.3189817"><ele>512.0</ele><time>2026-03-27T12:21:16.647Z</time></trkpt><trkpt lat="44.6512467" lon="9.3192133"><ele>512.0</ele><time>2026-03-27T12:21:17.647Z</time></trkpt><trkpt lat="44.651275" lon="9.3194433"><ele>512.0</ele><time>2026-03-27T12:21:18.651Z</time></trkpt><trkpt lat="44.6513183" lon="9.3196417"><ele>512.0</ele><time>2026-03-27T12:21:19.647Z</time></trkpt><trkpt lat="44.6513583" lon="9.3198117"><ele>512.0</ele><time>2026-03-27T12:21:20.647Z</time></trkpt><trkpt lat="44.6513817" lon="9.3199567"><ele>509.16666666666663</ele><time>2026-03-27T12:21:21.647Z</time></trkpt><trkpt lat="44.6513767" lon="9.3200667"><ele>506.3333333333333</ele><time>2026-03-27T12:21:22.646Z</time></trkpt><trkpt lat="44.6513533" lon="9.3201667"><ele>503.5</ele><time>2026-03-27T12:21:23.647Z</time></trkpt><trkpt lat="44.651315" lon="9.320255"><ele>500.66666666666663</ele><time>2026-03-27T12:21:24.647Z</time></trkpt><trkpt lat="44.651265" lon="9.3203233"><ele>497.8333333333333</ele><time>2026-03-27T12:21:25.648Z</time></trkpt><trkpt lat="44.6512017" lon="9.3204583"><ele>495.0</ele><time>2026-03-27T12:21:27.647Z</time></trkpt><trkpt lat="44.6512333" lon="9.32061"><ele>492.5714285714285</ele><time>2026-03-27T12:21:29.65Z</time></trkpt><trkpt lat="44.6512967" lon="9.3206633"><ele>490.1428571428571</ele><time>2026-03-27T12:21:30.647Z</time></trkpt><trkpt lat="44.65136" lon="9.320705"><ele>487.7142857142857</ele><time>2026-03-27T12:21:31.647Z</time></trkpt><trkpt lat="44.6514267" lon="9.32075"><ele>485.2857142857143</ele><time>2026-03-27T12:21:32.65Z</time></trkpt><trkpt lat="44.6514883" lon="9.3208067"><ele>482.8571428571429</ele><time>2026-03-27T12:21:33.646Z</time></trkpt><trkpt lat="44.6515417" lon="9.3208783"><ele>480.4285714285715</ele><time>2026-03-27T12:21:34.647Z</time></trkpt><trkpt lat="44.651585" lon="9.3209667"><ele>478.00000000000006</ele><time>2026-03-27T12:21:35.646Z</time></trkpt><trkpt lat="44.6516033" lon="9.3210667"><ele>478.00000000000006</ele><time>2026-03-27T12:21:36.646Z</time></trkpt><trkpt lat="44.6516" lon="9.32117"><ele>478.0</ele><time>2026-03-27T12:21:37.647Z</time></trkpt><trkpt lat="44.65157" lon="9.32128"><ele>478.0</ele><time>2026-03-27T12:21:38.647Z</time></trkpt><trkpt lat="44.6515283" lon="9.3213967"><ele>478.0</ele><time>2026-03-27T12:21:39.647Z</time></trkpt><trkpt lat="44.651485" lon="9.321515"><ele>478.00000000000006</ele><time>2026-03-27T12:21:40.648Z</time></trkpt><trkpt lat="44.65144" lon="9.32162"><ele>478.0</ele><time>2026-03-27T12:21:41.647Z</time></trkpt><trkpt lat="44.651395" lon="9.3216917"><ele>478.0</ele><time>2026-03-27T12:21:42.647Z</time></trkpt><trkpt lat="44.6512817" lon="9.3217417"><ele>477.99999999999994</ele><time>2026-03-27T12:21:44.648Z</time></trkpt><trkpt lat="44.6511617" lon="9.32164"><ele>477.99999999999994</ele><time>2026-03-27T12:21:46.649Z</time></trkpt><trkpt lat="44.6511067" lon="9.32155"><ele>478.0</ele><time>2026-03-27T12:21:47.647Z</time></trkpt><trkpt lat="44.6510533" lon="9.3214517"><ele>478.0</ele><time>2026-03-27T12:21:48.646Z</time></trkpt><trkpt lat="44.651" lon="9.321355"><ele>476.2</ele><time>2026-03-27T12:21:49.647Z</time></trkpt><trkpt lat="44.65093" lon="9.3212767"><ele>474.4</ele><time>2026-03-27T12:21:50.648Z</time></trkpt><trkpt lat="44.65084" lon="9.3212217"><ele>472.59999999999997</ele><time>2026-03-27T12:21:51.649Z</time></trkpt><trkpt lat="44.65072" lon="9.3211933"><ele>470.79999999999995</ele><time>2026-03-27T12:21:52.647Z</time></trkpt><trkpt lat="44.6506167" lon="9.32114"><ele>469.0</ele><time>2026-03-27T12:21:53.647Z</time></trkpt><trkpt lat="44.650515" lon="9.3210783"><ele>469.0</ele><time>2026-03-27T12:21:54.647Z</time></trkpt><trkpt lat="44.6504267" lon="9.3210017"><ele>469.0</ele><time>2026-03-27T12:21:55.646Z</time></trkpt><trkpt lat="44.650365" lon="9.3209167"><ele>469.0</ele><time>2026-03-27T12:21:56.647Z</time></trkpt><trkpt lat="44.6503233" lon="9.32081"><ele>469.0</ele><time>2026-03-27T12:21:57.649Z</time></trkpt><trkpt lat="44.650295" lon="9.3206683"><ele>469.0</ele><time>2026-03-27T12:21:58.647Z</time></trkpt><trkpt lat="44.6502533" lon="9.3205433"><ele>463.5</ele><time>2026-03-27T12:21:59.648Z</time></trkpt><trkpt lat="44.65019" lon="9.32045"><ele>458.0</ele><time>2026-03-27T12:22:00.647Z</time></trkpt><trkpt lat="44.650095" lon="9.3204283"><ele>452.5</ele><time>2026-03-27T12:22:01.647Z</time></trkpt><trkpt lat="44.6499733" lon="9.320475"><ele>447.0</ele><time>2026-03-27T12:22:02.652Z</time></trkpt><trkpt lat="44.6498433" lon="9.320555"><ele>448.25</ele><time>2026-03-27T12:22:03.647Z</time></trkpt><trkpt lat="44.6497183" lon="9.3206333"><ele>449.5</ele><time>2026-03-27T12:22:04.648Z</time></trkpt><trkpt lat="44.6496017" lon="9.3207033"><ele>450.75</ele><time>2026-03-27T12:22:05.646Z</time></trkpt><trkpt lat="44.6494917" lon="9.320775"><ele>452.0</ele><time>2026-03-27T12:22:06.647Z</time></trkpt><trkpt lat="44.6493883" lon="9.3208633"><ele>452.0</ele><time>2026-03-27T12:22:07.649Z</time></trkpt><trkpt lat="44.6492967" lon="9.3209833"><ele>452.0</ele><time>2026-03-27T12:22:08.648Z</time></trkpt><trkpt lat="44.6492117" lon="9.3211317"><ele>452.0</ele><time>2026-03-27T12:22:09.646Z</time></trkpt><trkpt lat="44.64913" lon="9.3212967"><ele>452.0</ele><time>2026-03-27T12:22:10.648Z</time></trkpt><trkpt lat="44.64905" lon="9.3214617"><ele>454.75</ele><time>2026-03-27T12:22:11.647Z</time></trkpt><trkpt lat="44.64897" lon="9.3216283"><ele>457.5</ele><time>2026-03-27T12:22:12.648Z</time></trkpt><trkpt lat="44.6488917" lon="9.3217883"><ele>460.25</ele><time>2026-03-27T12:22:13.646Z</time></trkpt><trkpt lat="44.6488133" lon="9.3219417"><ele>463.0</ele><time>2026-03-27T12:22:14.649Z</time></trkpt><trkpt lat="44.6487483" lon="9.3220867"><ele>463.0</ele><time>2026-03-27T12:22:15.647Z</time></trkpt><trkpt lat="44.64869" lon="9.322225"><ele>463.0</ele><time>2026-03-27T12:22:16.649Z</time></trkpt><trkpt lat="44.6486367" lon="9.32237"><ele>463.0</ele><time>2026-03-27T12:22:17.646Z</time></trkpt><trkpt lat="44.6485883" lon="9.3225217"><ele>463.0</ele><time>2026-03-27T12:22:18.647Z</time></trkpt><trkpt lat="44.6485383" lon="9.322675"><ele>459.4</ele><time>2026-03-27T12:22:19.647Z</time></trkpt><trkpt lat="44.6484933" lon="9.322825"><ele>455.79999999999995</ele><time>2026-03-27T12:22:20.647Z</time></trkpt><trkpt lat="44.648455" lon="9.3229617"><ele>452.2</ele><time>2026-03-27T12:22:21.647Z</time></trkpt><trkpt lat="44.6484167" lon="9.3230883"><ele>448.6</ele><time>2026-03-27T12:22:22.652Z</time></trkpt><trkpt lat="44.6483833" lon="9.32321"><ele>445.0</ele><time>2026-03-27T12:22:23.648Z</time></trkpt><trkpt lat="44.6483517" lon="9.3233317"><ele>445.0</ele><time>2026-03-27T12:22:24.648Z</time></trkpt><trkpt lat="44.648315" lon="9.3234483"><ele>445.0</ele><time>2026-03-27T12:22:25.647Z</time></trkpt><trkpt lat="44.6482783" lon="9.3235733"><ele>445.0</ele><time>2026-03-27T12:22:26.648Z</time></trkpt><trkpt lat="44.64824" lon="9.3237067"><ele>445.0</ele><time>2026-03-27T12:22:27.647Z</time></trkpt><trkpt lat="44.648195" lon="9.3238483"><ele>445.0</ele><time>2026-03-27T12:22:28.647Z</time></trkpt><trkpt lat="44.6481517" lon="9.3239933"><ele>447.25</ele><time>2026-03-27T12:22:29.647Z</time></trkpt><trkpt lat="44.648105" lon="9.3241483"><ele>449.5</ele><time>2026-03-27T12:22:30.648Z</time></trkpt><trkpt lat="44.64806" lon="9.3243033"><ele>451.75</ele><time>2026-03-27T12:22:31.648Z</time></trkpt><trkpt lat="44.6480133" lon="9.32446"><ele>454.0</ele><time>2026-03-27T12:22:32.648Z</time></trkpt><trkpt lat="44.6479667" lon="9.3246167"><ele>454.25</ele><time>2026-03-27T12:22:33.647Z</time></trkpt><trkpt lat="44.6479217" lon="9.3247817"><ele>454.5</ele><time>2026-03-27T12:22:34.647Z</time></trkpt><trkpt lat="44.64787" lon="9.3249583"><ele>454.75</ele><time>2026-03-27T12:22:35.647Z</time></trkpt><trkpt lat="44.64781" lon="9.325155"><ele>455.0</ele><time>2026-03-27T12:22:36.646Z</time></trkpt><trkpt lat="44.6477483" lon="9.325365"><ele>453.0</ele><time>2026-03-27T12:22:37.647Z</time></trkpt><trkpt lat="44.647685" lon="9.3255833"><ele>451.0</ele><time>2026-03-27T12:22:38.648Z</time></trkpt><trkpt lat="44.6476167" lon="9.3258"><ele>449.0</ele><time>2026-03-27T12:22:39.646Z</time></trkpt><trkpt lat="44.647545" lon="9.3260083"><ele>449.0</ele><time>2026-03-27T12:22:40.647Z</time></trkpt><trkpt lat="44.647465" lon="9.3262017"><ele>449.0</ele><time>2026-03-27T12:22:41.649Z</time></trkpt><trkpt lat="44.6473733" lon="9.3263867"><ele>449.0</ele><time>2026-03-27T12:22:42.646Z</time></trkpt><trkpt lat="44.6472733" lon="9.3265683"><ele>449.0</ele><time>2026-03-27T12:22:43.647Z</time></trkpt><trkpt lat="44.647155" lon="9.3267417"><ele>449.0</ele><time>2026-03-27T12:22:44.647Z</time></trkpt><trkpt lat="44.64703" lon="9.3269067"><ele>449.0</ele><time>2026-03-27T12:22:45.648Z</time></trkpt><trkpt lat="44.6469" lon="9.3270667"><ele>450.0</ele><time>2026-03-27T12:22:46.648Z</time></trkpt><trkpt lat="44.646765" lon="9.3272233"><ele>451.0</ele><time>2026-03-27T12:22:47.647Z</time></trkpt><trkpt lat="44.64662" lon="9.3273633"><ele>452.0</ele><time>2026-03-27T12:22:48.651Z</time></trkpt><trkpt lat="44.64647" lon="9.3274833"><ele>452.0</ele><time>2026-03-27T12:22:49.647Z</time></trkpt><trkpt lat="44.646315" lon="9.3275917"><ele>452.0</ele><time>2026-03-27T12:22:50.65Z</time></trkpt><trkpt lat="44.6461567" lon="9.3277033"><ele>452.0</ele><time>2026-03-27T12:22:51.648Z</time></trkpt><trkpt lat="44.6459967" lon="9.327815"><ele>452.3333333333333</ele><time>2026-03-27T12:22:52.647Z</time></trkpt><trkpt lat="44.6458333" lon="9.3279317"><ele>452.66666666666663</ele><time>2026-03-27T12:22:53.647Z</time></trkpt><trkpt lat="44.6456633" lon="9.32805"><ele>453.0</ele><time>2026-03-27T12:22:54.647Z</time></trkpt><trkpt lat="44.6454933" lon="9.32817"><ele>453.0</ele><time>2026-03-27T12:22:55.647Z</time></trkpt><trkpt lat="44.64532" lon="9.3282867"><ele>453.0</ele><time>2026-03-27T12:22:56.647Z</time></trkpt><trkpt lat="44.6451367" lon="9.3283917"><ele>453.0</ele><time>2026-03-27T12:22:57.647Z</time></trkpt><trkpt lat="44.6449467" lon="9.32848"><ele>457.66666666666663</ele><time>2026-03-27T12:22:58.646Z</time></trkpt><trkpt lat="44.6447467" lon="9.32855"><ele>462.3333333333333</ele><time>2026-03-27T12:22:59.647Z</time></trkpt><trkpt lat="44.6445317" lon="9.328605"><ele>467.0</ele><time>2026-03-27T12:23:00.647Z</time></trkpt><trkpt lat="44.6443133" lon="9.32866"><ele>467.66666666666663</ele><time>2026-03-27T12:23:01.652Z</time></trkpt><trkpt lat="44.6441" lon="9.328715"><ele>468.33333333333337</ele><time>2026-03-27T12:23:02.651Z</time></trkpt><trkpt lat="44.6438917" lon="9.32877"><ele>469.0</ele><time>2026-03-27T12:23:03.649Z</time></trkpt><trkpt lat="44.643685" lon="9.3288233"><ele>467.33333333333337</ele><time>2026-03-27T12:23:04.646Z</time></trkpt><trkpt lat="44.6434767" lon="9.328875"><ele>465.66666666666663</ele><time>2026-03-27T12:23:05.646Z</time></trkpt><trkpt lat="44.6432683" lon="9.328935"><ele>464.0</ele><time>2026-03-27T12:23:06.646Z</time></trkpt><trkpt lat="44.6430567" lon="9.3289967"><ele>463.0</ele><time>2026-03-27T12:23:07.647Z</time></trkpt><trkpt lat="44.6428467" lon="9.3290517"><ele>462.0</ele><time>2026-03-27T12:23:08.65Z</time></trkpt><trkpt lat="44.6426333" lon="9.3291033"><ele>461.0</ele><time>2026-03-27T12:23:09.647Z</time></trkpt><trkpt lat="44.6424233" lon="9.329155"><ele>461.0</ele><time>2026-03-27T12:23:10.648Z</time></trkpt><trkpt lat="44.642215" lon="9.3292167"><ele>461.0</ele><time>2026-03-27T12:23:11.646Z</time></trkpt><trkpt lat="44.642005" lon="9.3292667"><ele>461.0</ele><time>2026-03-27T12:23:12.647Z</time></trkpt><trkpt lat="44.6417917" lon="9.32932"><ele>462.0</ele><time>2026-03-27T12:23:13.648Z</time></trkpt><trkpt lat="44.6415733" lon="9.3293767"><ele>463.0</ele><time>2026-03-27T12:23:14.648Z</time></trkpt><trkpt lat="44.641353" lon="9.3294359"><ele>464.0</ele><time>2026-03-27T12:23:15.646Z</time></trkpt><trkpt lat="44.6411346" lon="9.3294934"><ele>465.3333333333333</ele><time>2026-03-27T12:23:16.647Z</time></trkpt><trkpt lat="44.6409164" lon="9.3295515"><ele>466.66666666666663</ele><time>2026-03-27T12:23:17.648Z</time></trkpt><trkpt lat="44.640698" lon="9.329616"><ele>468.0</ele><time>2026-03-27T12:23:18.65Z</time></trkpt><trkpt lat="44.6404844" lon="9.3296768"><ele>465.0</ele><time>2026-03-27T12:23:19.648Z</time></trkpt><trkpt lat="44.6402761" lon="9.3297352"><ele>462.0</ele><time>2026-03-27T12:23:20.649Z</time></trkpt><trkpt lat="44.6400694" lon="9.3297923"><ele>459.0</ele><time>2026-03-27T12:23:21.646Z</time></trkpt><trkpt lat="44.6398629" lon="9.3298452"><ele>459.0</ele><time>2026-03-27T12:23:22.647Z</time></trkpt><trkpt lat="44.6396562" lon="9.3298983"><ele>459.0</ele><time>2026-03-27T12:23:23.65Z</time></trkpt><trkpt lat="44.6394443" lon="9.3299518"><ele>459.0</ele><time>2026-03-27T12:23:24.648Z</time></trkpt><trkpt lat="44.6392288" lon="9.3299946"><ele>459.66666666666663</ele><time>2026-03-27T12:23:25.65Z</time></trkpt><trkpt lat="44.6390123" lon="9.3300091"><ele>460.3333333333333</ele><time>2026-03-27T12:23:26.649Z</time></trkpt><trkpt lat="44.6388024" lon="9.329987"><ele>461.0</ele><time>2026-03-27T12:23:27.649Z</time></trkpt><trkpt lat="44.6386008" lon="9.3299403"><ele>460.66666666666663</ele><time>2026-03-27T12:23:28.647Z</time></trkpt><trkpt lat="44.6384084" lon="9.3298633"><ele>460.33333333333337</ele><time>2026-03-27T12:23:29.646Z</time></trkpt><trkpt lat="44.6382174" lon="9.3297588"><ele>460.0</ele><time>2026-03-27T12:23:30.65Z</time></trkpt><trkpt lat="44.6380259" lon="9.3296318"><ele>460.0</ele><time>2026-03-27T12:23:31.647Z</time></trkpt><trkpt lat="44.6378372" lon="9.3294894"><ele>460.0</ele><time>2026-03-27T12:23:32.647Z</time></trkpt><trkpt lat="44.6376487" lon="9.3293435"><ele>460.0</ele><time>2026-03-27T12:23:33.649Z</time></trkpt><trkpt lat="44.6374493" lon="9.3291965"><ele>461.0</ele><time>2026-03-27T12:23:34.646Z</time></trkpt><trkpt lat="44.6372474" lon="9.3290471"><ele>462.0</ele><time>2026-03-27T12:23:35.653Z</time></trkpt><trkpt lat="44.6370541" lon="9.3289039"><ele>463.0</ele><time>2026-03-27T12:23:36.647Z</time></trkpt><trkpt lat="44.6368638" lon="9.3287728"><ele>463.0</ele><time>2026-03-27T12:23:37.647Z</time></trkpt><trkpt lat="44.6366753" lon="9.3286523"><ele>463.0</ele><time>2026-03-27T12:23:38.648Z</time></trkpt><trkpt lat="44.6364783" lon="9.32856"><ele>463.0</ele><time>2026-03-27T12:23:39.649Z</time></trkpt><trkpt lat="44.63627" lon="9.3284983"><ele>464.33333333333337</ele><time>2026-03-27T12:23:40.647Z</time></trkpt><trkpt lat="44.6360567" lon="9.32847"><ele>465.66666666666663</ele><time>2026-03-27T12:23:41.647Z</time></trkpt><trkpt lat="44.6358483" lon="9.3284867"><ele>467.0</ele><time>2026-03-27T12:23:42.647Z</time></trkpt><trkpt lat="44.6356433" lon="9.3285367"><ele>467.0</ele><time>2026-03-27T12:23:43.647Z</time></trkpt><trkpt lat="44.635445" lon="9.328615"><ele>467.0</ele><time>2026-03-27T12:23:44.647Z</time></trkpt><trkpt lat="44.6352517" lon="9.3287267"><ele>467.0</ele><time>2026-03-27T12:23:45.646Z</time></trkpt><trkpt lat="44.6350667" lon="9.3288567"><ele>470.3333333333333</ele><time>2026-03-27T12:23:46.65Z</time></trkpt><trkpt lat="44.63488" lon="9.3289867"><ele>473.66666666666663</ele><time>2026-03-27T12:23:47.647Z</time></trkpt><trkpt lat="44.634695" lon="9.3291133"><ele>477.0</ele><time>2026-03-27T12:23:48.647Z</time></trkpt><trkpt lat="44.6345117" lon="9.32924"><ele>474.33333333333337</ele><time>2026-03-27T12:23:49.646Z</time></trkpt><trkpt lat="44.634325" lon="9.3293717"><ele>471.6666666666667</ele><time>2026-03-27T12:23:50.648Z</time></trkpt><trkpt lat="44.6341367" lon="9.3295017"><ele>469.0</ele><time>2026-03-27T12:23:51.648Z</time></trkpt><trkpt lat="44.6339433" lon="9.3296317"><ele>470.0</ele><time>2026-03-27T12:23:52.647Z</time></trkpt><trkpt lat="44.633745" lon="9.329765"><ele>471.0</ele><time>2026-03-27T12:23:53.649Z</time></trkpt><trkpt lat="44.63354" lon="9.3299017"><ele>472.0</ele><time>2026-03-27T12:23:54.647Z</time></trkpt><trkpt lat="44.6333333" lon="9.3300383"><ele>472.0</ele><time>2026-03-27T12:23:55.646Z</time></trkpt><trkpt lat="44.6331267" lon="9.3301783"><ele>472.0</ele><time>2026-03-27T12:23:56.647Z</time></trkpt><trkpt lat="44.6329183" lon="9.3303383"><ele>474.0</ele><time>2026-03-27T12:23:57.648Z</time></trkpt><trkpt lat="44.6327217" lon="9.330515"><ele>476.0</ele><time>2026-03-27T12:23:58.648Z</time></trkpt><trkpt lat="44.6325283" lon="9.3306967"><ele>476.0</ele><time>2026-03-27T12:23:59.647Z</time></trkpt><trkpt lat="44.632345" lon="9.330875"><ele>476.0</ele><time>2026-03-27T12:24:00.647Z</time></trkpt><trkpt lat="44.6321633" lon="9.3310483"><ele>476.0</ele><time>2026-03-27T12:24:01.651Z</time></trkpt><trkpt lat="44.6319867" lon="9.3312217"><ele>477.3333333333333</ele><time>2026-03-27T12:24:02.648Z</time></trkpt><trkpt lat="44.6318133" lon="9.3313933"><ele>478.66666666666663</ele><time>2026-03-27T12:24:03.646Z</time></trkpt><trkpt lat="44.6316433" lon="9.3315633"><ele>480.0</ele><time>2026-03-27T12:24:04.647Z</time></trkpt><trkpt lat="44.63147" lon="9.3317317"><ele>480.0</ele><time>2026-03-27T12:24:05.65Z</time></trkpt><trkpt lat="44.6312933" lon="9.3318917"><ele>480.0</ele><time>2026-03-27T12:24:06.647Z</time></trkpt><trkpt lat="44.6311133" lon="9.3320367"><ele>480.0</ele><time>2026-03-27T12:24:07.651Z</time></trkpt><trkpt lat="44.6309367" lon="9.332175"><ele>481.66666666666663</ele><time>2026-03-27T12:24:08.647Z</time></trkpt><trkpt lat="44.6307567" lon="9.3323083"><ele>483.3333333333333</ele><time>2026-03-27T12:24:09.646Z</time></trkpt><trkpt lat="44.6305767" lon="9.3324383"><ele>485.0</ele><time>2026-03-27T12:24:10.648Z</time></trkpt><trkpt lat="44.6303967" lon="9.3325667"><ele>480.3333333333333</ele><time>2026-03-27T12:24:11.647Z</time></trkpt><trkpt lat="44.6302083" lon="9.33269"><ele>475.66666666666663</ele><time>2026-03-27T12:24:12.647Z</time></trkpt><trkpt lat="44.630015" lon="9.3328033"><ele>471.0</ele><time>2026-03-27T12:24:13.647Z</time></trkpt><trkpt lat="44.62981" lon="9.3328967"><ele>471.0</ele><time>2026-03-27T12:24:14.648Z</time></trkpt><trkpt lat="44.6296017" lon="9.3329683"><ele>471.0</ele><time>2026-03-27T12:24:15.647Z</time></trkpt><trkpt lat="44.6294017" lon="9.3330133"><ele>471.0</ele><time>2026-03-27T12:24:16.647Z</time></trkpt><trkpt lat="44.6292033" lon="9.3330383"><ele>471.33333333333337</ele><time>2026-03-27T12:24:17.647Z</time></trkpt><trkpt lat="44.6290033" lon="9.3330467"><ele>471.6666666666667</ele><time>2026-03-27T12:24:18.647Z</time></trkpt><trkpt lat="44.6288" lon="9.333045"><ele>472.0</ele><time>2026-03-27T12:24:19.647Z</time></trkpt><trkpt lat="44.6285967" lon="9.3330367"><ele>472.33333333333337</ele><time>2026-03-27T12:24:20.648Z</time></trkpt><trkpt lat="44.6283867" lon="9.333025"><ele>472.66666666666663</ele><time>2026-03-27T12:24:21.651Z</time></trkpt><trkpt lat="44.628175" lon="9.3330083"><ele>473.0</ele><time>2026-03-27T12:24:22.648Z</time></trkpt><trkpt lat="44.6279567" lon="9.3329883"><ele>473.0</ele><time>2026-03-27T12:24:23.65Z</time></trkpt><trkpt lat="44.6277333" lon="9.3329683"><ele>473.0</ele><time>2026-03-27T12:24:24.649Z</time></trkpt><trkpt lat="44.6275083" lon="9.3329467"><ele>473.0</ele><time>2026-03-27T12:24:25.646Z</time></trkpt><trkpt lat="44.6272833" lon="9.3329183"><ele>473.0</ele><time>2026-03-27T12:24:26.65Z</time></trkpt><trkpt lat="44.6270583" lon="9.3328733"><ele>473.0</ele><time>2026-03-27T12:24:27.647Z</time></trkpt><trkpt lat="44.6268317" lon="9.33281"><ele>476.0</ele><time>2026-03-27T12:24:28.647Z</time></trkpt><trkpt lat="44.6266017" lon="9.332735"><ele>479.0</ele><time>2026-03-27T12:24:29.647Z</time></trkpt><trkpt lat="44.6263733" lon="9.332655"><ele>479.0</ele><time>2026-03-27T12:24:30.647Z</time></trkpt><trkpt lat="44.6261483" lon="9.332565"><ele>479.0</ele><time>2026-03-27T12:24:31.648Z</time></trkpt><trkpt lat="44.6259317" lon="9.3324683"><ele>479.3333333333333</ele><time>2026-03-27T12:24:32.649Z</time></trkpt><trkpt lat="44.62572" lon="9.3323617"><ele>479.66666666666663</ele><time>2026-03-27T12:24:33.65Z</time></trkpt><trkpt lat="44.62551" lon="9.3322517"><ele>480.0</ele><time>2026-03-27T12:24:34.647Z</time></trkpt><trkpt lat="44.6252983" lon="9.3321367"><ele>480.0</ele><time>2026-03-27T12:24:35.647Z</time></trkpt><trkpt lat="44.6250867" lon="9.3320183"><ele>480.0</ele><time>2026-03-27T12:24:36.647Z</time></trkpt><trkpt lat="44.6248733" lon="9.3319017"><ele>480.0</ele><time>2026-03-27T12:24:37.647Z</time></trkpt><trkpt lat="44.62466" lon="9.3317833"><ele>480.0</ele><time>2026-03-27T12:24:38.647Z</time></trkpt><trkpt lat="44.624455" lon="9.33167"><ele>479.66666666666663</ele><time>2026-03-27T12:24:39.647Z</time></trkpt><trkpt lat="44.6242533" lon="9.33156"><ele>479.3333333333333</ele><time>2026-03-27T12:24:40.647Z</time></trkpt><trkpt lat="44.6240533" lon="9.3314467"><ele>479.0</ele><time>2026-03-27T12:24:41.648Z</time></trkpt><trkpt lat="44.6238517" lon="9.3313317"><ele>479.0</ele><time>2026-03-27T12:24:42.647Z</time></trkpt><trkpt lat="44.6236483" lon="9.3312117"><ele>479.0</ele><time>2026-03-27T12:24:43.647Z</time></trkpt><trkpt lat="44.6234417" lon="9.3310917"><ele>479.0</ele><time>2026-03-27T12:24:44.648Z</time></trkpt><trkpt lat="44.6232283" lon="9.330975"><ele>479.0</ele><time>2026-03-27T12:24:45.646Z</time></trkpt><trkpt lat="44.6230183" lon="9.3308533"><ele>479.0</ele><time>2026-03-27T12:24:46.651Z</time></trkpt><trkpt lat="44.6228117" lon="9.3307183"><ele>479.0</ele><time>2026-03-27T12:24:47.647Z</time></trkpt><trkpt lat="44.62261" lon="9.3305583"><ele>479.0</ele><time>2026-03-27T12:24:48.648Z</time></trkpt><trkpt lat="44.62242" lon="9.3303767"><ele>481.0</ele><time>2026-03-27T12:24:49.647Z</time></trkpt><trkpt lat="44.6222367" lon="9.3301767"><ele>483.0</ele><time>2026-03-27T12:24:50.648Z</time></trkpt><trkpt lat="44.6220683" lon="9.3299633"><ele>482.66666666666663</ele><time>2026-03-27T12:24:51.647Z</time></trkpt><trkpt lat="44.6219133" lon="9.3297383"><ele>482.3333333333333</ele><time>2026-03-27T12:24:52.647Z</time></trkpt><trkpt lat="44.6217667" lon="9.329505"><ele>482.0</ele><time>2026-03-27T12:24:53.651Z</time></trkpt><trkpt lat="44.6216283" lon="9.3292617"><ele>483.3333333333333</ele><time>2026-03-27T12:24:54.647Z</time></trkpt><trkpt lat="44.6215017" lon="9.329005"><ele>484.66666666666663</ele><time>2026-03-27T12:24:55.646Z</time></trkpt><trkpt lat="44.62139" lon="9.3287433"><ele>486.0</ele><time>2026-03-27T12:24:56.647Z</time></trkpt><trkpt lat="44.6212833" lon="9.328475"><ele>485.0</ele><time>2026-03-27T12:24:57.647Z</time></trkpt><trkpt lat="44.6211783" lon="9.3282017"><ele>484.0</ele><time>2026-03-27T12:24:58.646Z</time></trkpt><trkpt lat="44.6210683" lon="9.3279317"><ele>483.0</ele><time>2026-03-27T12:24:59.646Z</time></trkpt><trkpt lat="44.6209583" lon="9.32766"><ele>483.0</ele><time>2026-03-27T12:25:00.649Z</time></trkpt><trkpt lat="44.6208483" lon="9.3273867"><ele>483.0</ele><time>2026-03-27T12:25:01.647Z</time></trkpt><trkpt lat="44.620735" lon="9.32712"><ele>483.0</ele><time>2026-03-27T12:25:02.647Z</time></trkpt><trkpt lat="44.6206117" lon="9.3268667"><ele>483.33333333333337</ele><time>2026-03-27T12:25:03.649Z</time></trkpt><trkpt lat="44.6204767" lon="9.3266267"><ele>483.6666666666667</ele><time>2026-03-27T12:25:04.647Z</time></trkpt><trkpt lat="44.620335" lon="9.326395"><ele>484.0</ele><time>2026-03-27T12:25:05.648Z</time></trkpt><trkpt lat="44.6201917" lon="9.326175"><ele>485.33333333333337</ele><time>2026-03-27T12:25:06.647Z</time></trkpt><trkpt lat="44.62004" lon="9.32596"><ele>486.66666666666663</ele><time>2026-03-27T12:25:07.648Z</time></trkpt><trkpt lat="44.6198833" lon="9.325745"><ele>488.0</ele><time>2026-03-27T12:25:08.647Z</time></trkpt><trkpt lat="44.61973" lon="9.3255317"><ele>488.0</ele><time>2026-03-27T12:25:09.647Z</time></trkpt><trkpt lat="44.6195783" lon="9.32532"><ele>488.0</ele><time>2026-03-27T12:25:10.649Z</time></trkpt><trkpt lat="44.6194233" lon="9.3251083"><ele>488.0</ele><time>2026-03-27T12:25:11.648Z</time></trkpt><trkpt lat="44.6192683" lon="9.324895"><ele>493.3333333333333</ele><time>2026-03-27T12:25:12.647Z</time></trkpt><trkpt lat="44.6191133" lon="9.324685"><ele>498.66666666666663</ele><time>2026-03-27T12:25:13.646Z</time></trkpt><trkpt lat="44.618955" lon="9.324475"><ele>504.0</ele><time>2026-03-27T12:25:14.647Z</time></trkpt><trkpt lat="44.618795" lon="9.3242683"><ele>502.33333333333337</ele><time>2026-03-27T12:25:15.649Z</time></trkpt><trkpt lat="44.6186417" lon="9.324065"><ele>500.6666666666667</ele><time>2026-03-27T12:25:16.649Z</time></trkpt><trkpt lat="44.618495" lon="9.32387"><ele>499.0</ele><time>2026-03-27T12:25:17.647Z</time></trkpt><trkpt lat="44.61835" lon="9.3236783"><ele>499.0</ele><time>2026-03-27T12:25:18.648Z</time></trkpt><trkpt lat="44.6182067" lon="9.3234833"><ele>499.0</ele><time>2026-03-27T12:25:19.653Z</time></trkpt><trkpt lat="44.6180617" lon="9.3232867"><ele>499.0</ele><time>2026-03-27T12:25:20.649Z</time></trkpt><trkpt lat="44.6179133" lon="9.3230867"><ele>496.0</ele><time>2026-03-27T12:25:21.649Z</time></trkpt><trkpt lat="44.6177617" lon="9.3228817"><ele>493.0</ele><time>2026-03-27T12:25:22.647Z</time></trkpt><trkpt lat="44.6176083" lon="9.3226717"><ele>490.0</ele><time>2026-03-27T12:25:23.648Z</time></trkpt><trkpt lat="44.6174567" lon="9.3224583"><ele>490.0</ele><time>2026-03-27T12:25:24.65Z</time></trkpt><trkpt lat="44.6173017" lon="9.3222517"><ele>490.0</ele><time>2026-03-27T12:25:25.647Z</time></trkpt><trkpt lat="44.61714" lon="9.3220733"><ele>490.0</ele><time>2026-03-27T12:25:26.647Z</time></trkpt><trkpt lat="44.6169683" lon="9.32194"><ele>494.0</ele><time>2026-03-27T12:25:27.647Z</time></trkpt><trkpt lat="44.61679" lon="9.3218433"><ele>498.0</ele><time>2026-03-27T12:25:28.647Z</time></trkpt><trkpt lat="44.61661" lon="9.3217917"><ele>502.0</ele><time>2026-03-27T12:25:29.646Z</time></trkpt><trkpt lat="44.61643" lon="9.3217733"><ele>502.0</ele><time>2026-03-27T12:25:30.647Z</time></trkpt><trkpt lat="44.6162417" lon="9.3217783"><ele>502.0</ele><time>2026-03-27T12:25:31.648Z</time></trkpt><trkpt lat="44.6160483" lon="9.3217917"><ele>502.0</ele><time>2026-03-27T12:25:32.647Z</time></trkpt><trkpt lat="44.615845" lon="9.3218033"><ele>504.33333333333337</ele><time>2026-03-27T12:25:33.647Z</time></trkpt><trkpt lat="44.615645" lon="9.3218133"><ele>506.66666666666663</ele><time>2026-03-27T12:25:34.647Z</time></trkpt><trkpt lat="44.615455" lon="9.321815"><ele>509.0</ele><time>2026-03-27T12:25:35.647Z</time></trkpt><trkpt lat="44.615275" lon="9.3217983"><ele>509.66666666666663</ele><time>2026-03-27T12:25:36.647Z</time></trkpt><trkpt lat="44.6151117" lon="9.3217367"><ele>510.33333333333337</ele><time>2026-03-27T12:25:37.647Z</time></trkpt><trkpt lat="44.61497" lon="9.3216533"><ele>511.0</ele><time>2026-03-27T12:25:38.648Z</time></trkpt><trkpt lat="44.61485" lon="9.3215433"><ele>511.0</ele><time>2026-03-27T12:25:39.647Z</time></trkpt><trkpt lat="44.6147333" lon="9.3214433"><ele>511.0</ele><time>2026-03-27T12:25:40.647Z</time></trkpt><trkpt lat="44.6146117" lon="9.32139"><ele>511.0</ele><time>2026-03-27T12:25:41.648Z</time></trkpt><trkpt lat="44.61447" lon="9.32138"><ele>511.0</ele><time>2026-03-27T12:25:42.647Z</time></trkpt><trkpt lat="44.6143117" lon="9.3213933"><ele>514.3333333333334</ele><time>2026-03-27T12:25:43.647Z</time></trkpt><trkpt lat="44.6141383" lon="9.3214283"><ele>517.6666666666666</ele><time>2026-03-27T12:25:44.647Z</time></trkpt><trkpt lat="44.6139617" lon="9.321475"><ele>521.0</ele><time>2026-03-27T12:25:45.65Z</time></trkpt><trkpt lat="44.6137817" lon="9.3215217"><ele>519.6666666666666</ele><time>2026-03-27T12:25:46.648Z</time></trkpt><trkpt lat="44.61361" lon="9.32157"><ele>518.3333333333334</ele><time>2026-03-27T12:25:47.648Z</time></trkpt><trkpt lat="44.61344" lon="9.32162"><ele>517.0</ele><time>2026-03-27T12:25:48.647Z</time></trkpt><trkpt lat="44.6132933" lon="9.3216517"><ele>517.0</ele><time>2026-03-27T12:25:49.646Z</time></trkpt><trkpt lat="44.613175" lon="9.3216533"><ele>517.0</ele><time>2026-03-27T12:25:50.649Z</time></trkpt><trkpt lat="44.6130767" lon="9.3216017"><ele>517.0</ele><time>2026-03-27T12:25:51.647Z</time></trkpt><trkpt lat="44.612995" lon="9.3215083"><ele>517.0</ele><time>2026-03-27T12:25:52.649Z</time></trkpt><trkpt lat="44.6129517" lon="9.32136"><ele>517.0</ele><time>2026-03-27T12:25:53.648Z</time></trkpt><trkpt lat="44.612935" lon="9.3211733"><ele>514.0</ele><time>2026-03-27T12:25:54.648Z</time></trkpt><trkpt lat="44.6129183" lon="9.3209833"><ele>511.0</ele><time>2026-03-27T12:25:55.647Z</time></trkpt><trkpt lat="44.6128833" lon="9.3208067"><ele>508.0</ele><time>2026-03-27T12:25:56.647Z</time></trkpt><trkpt lat="44.612825" lon="9.3206417"><ele>505.0</ele><time>2026-03-27T12:25:57.647Z</time></trkpt><trkpt lat="44.6127333" lon="9.3204933"><ele>505.0</ele><time>2026-03-27T12:25:58.647Z</time></trkpt><trkpt lat="44.6126167" lon="9.3203583"><ele>505.0</ele><time>2026-03-27T12:25:59.65Z</time></trkpt><trkpt lat="44.61249" lon="9.3202417"><ele>505.0</ele><time>2026-03-27T12:26:00.647Z</time></trkpt><trkpt lat="44.6123583" lon="9.3201417"><ele>505.0</ele><time>2026-03-27T12:26:01.647Z</time></trkpt><trkpt lat="44.61224" lon="9.32005"><ele>505.0</ele><time>2026-03-27T12:26:02.649Z</time></trkpt><trkpt lat="44.61213" lon="9.3199683"><ele>505.0</ele><time>2026-03-27T12:26:03.647Z</time></trkpt><trkpt lat="44.612035" lon="9.3198933"><ele>505.0</ele><time>2026-03-27T12:26:04.648Z</time></trkpt><trkpt lat="44.6119483" lon="9.3198067"><ele>505.0</ele><time>2026-03-27T12:26:05.646Z</time></trkpt><trkpt lat="44.6118967" lon="9.3196833"><ele>505.0</ele><time>2026-03-27T12:26:06.648Z</time></trkpt><trkpt lat="44.611875" lon="9.3195267"><ele>505.0</ele><time>2026-03-27T12:26:07.651Z</time></trkpt><trkpt lat="44.6118783" lon="9.31935"><ele>505.0</ele><time>2026-03-27T12:26:08.647Z</time></trkpt><trkpt lat="44.6118783" lon="9.31918"><ele>505.0</ele><time>2026-03-27T12:26:09.648Z</time></trkpt><trkpt lat="44.6118567" lon="9.31902"><ele>505.0</ele><time>2026-03-27T12:26:10.646Z</time></trkpt><trkpt lat="44.6117917" lon="9.3188883"><ele>505.0</ele><time>2026-03-27T12:26:11.648Z</time></trkpt><trkpt lat="44.6116983" lon="9.318765"><ele>505.0</ele><time>2026-03-27T12:26:12.648Z</time></trkpt><trkpt lat="44.6115883" lon="9.318645"><ele>504.75</ele><time>2026-03-27T12:26:13.646Z</time></trkpt><trkpt lat="44.6114717" lon="9.3185233"><ele>504.5</ele><time>2026-03-27T12:26:14.647Z</time></trkpt><trkpt lat="44.61135" lon="9.3184083"><ele>504.25</ele><time>2026-03-27T12:26:15.648Z</time></trkpt><trkpt lat="44.6112333" lon="9.3183083"><ele>504.0</ele><time>2026-03-27T12:26:16.647Z</time></trkpt><trkpt lat="44.6111167" lon="9.3182183"><ele>504.0</ele><time>2026-03-27T12:26:17.655Z</time></trkpt><trkpt lat="44.611" lon="9.3181367"><ele>504.0</ele><time>2026-03-27T12:26:18.647Z</time></trkpt><trkpt lat="44.6109017" lon="9.31807"><ele>504.0</ele><time>2026-03-27T12:26:19.647Z</time></trkpt><trkpt lat="44.6108217" lon="9.3179867"><ele>504.0</ele><time>2026-03-27T12:26:20.647Z</time></trkpt><trkpt lat="44.6107683" lon="9.3178867"><ele>504.0</ele><time>2026-03-27T12:26:21.646Z</time></trkpt><trkpt lat="44.610745" lon="9.3177583"><ele>505.6</ele><time>2026-03-27T12:26:22.646Z</time></trkpt><trkpt lat="44.6107467" lon="9.3176167"><ele>507.2</ele><time>2026-03-27T12:26:23.646Z</time></trkpt><trkpt lat="44.61076" lon="9.3174717"><ele>508.80000000000007</ele><time>2026-03-27T12:26:24.65Z</time></trkpt><trkpt lat="44.610765" lon="9.3173133"><ele>510.40000000000003</ele><time>2026-03-27T12:26:25.648Z</time></trkpt><trkpt lat="44.61076" lon="9.3171417"><ele>512.0</ele><time>2026-03-27T12:26:26.649Z</time></trkpt><trkpt lat="44.6107467" lon="9.3169667"><ele>513.25</ele><time>2026-03-27T12:26:27.648Z</time></trkpt><trkpt lat="44.6107517" lon="9.3167783"><ele>514.5</ele><time>2026-03-27T12:26:28.648Z</time></trkpt><trkpt lat="44.6107883" lon="9.316585"><ele>515.75</ele><time>2026-03-27T12:26:29.647Z</time></trkpt><trkpt lat="44.6108283" lon="9.3163967"><ele>517.0</ele><time>2026-03-27T12:26:30.647Z</time></trkpt><trkpt lat="44.6108467" lon="9.3162083"><ele>517.25</ele><time>2026-03-27T12:26:31.647Z</time></trkpt><trkpt lat="44.610835" lon="9.3160133"><ele>517.5</ele><time>2026-03-27T12:26:32.649Z</time></trkpt><trkpt lat="44.6108067" lon="9.3158183"><ele>517.75</ele><time>2026-03-27T12:26:33.646Z</time></trkpt><trkpt lat="44.61077" lon="9.3156233"><ele>518.0</ele><time>2026-03-27T12:26:34.647Z</time></trkpt><trkpt lat="44.6107233" lon="9.315435"><ele>518.3333333333333</ele><time>2026-03-27T12:26:35.648Z</time></trkpt><trkpt lat="44.6106733" lon="9.3152383"><ele>518.6666666666666</ele><time>2026-03-27T12:26:36.649Z</time></trkpt><trkpt lat="44.6106183" lon="9.3150333"><ele>519.0</ele><time>2026-03-27T12:26:37.648Z</time></trkpt><trkpt lat="44.6105683" lon="9.3148217"><ele>521.6666666666666</ele><time>2026-03-27T12:26:38.648Z</time></trkpt><trkpt lat="44.61053" lon="9.3146033"><ele>524.3333333333333</ele><time>2026-03-27T12:26:39.646Z</time></trkpt><trkpt lat="44.61051" lon="9.3143767"><ele>527.0</ele><time>2026-03-27T12:26:40.649Z</time></trkpt><trkpt lat="44.610505" lon="9.3141383"><ele>527.0</ele><time>2026-03-27T12:26:41.647Z</time></trkpt><trkpt lat="44.6105017" lon="9.3139"><ele>527.0</ele><time>2026-03-27T12:26:42.647Z</time></trkpt><trkpt lat="44.610495" lon="9.3136717"><ele>527.0</ele><time>2026-03-27T12:26:43.647Z</time></trkpt><trkpt lat="44.61048" lon="9.3134367"><ele>527.0</ele><time>2026-03-27T12:26:44.647Z</time></trkpt><trkpt lat="44.6104433" lon="9.313195"><ele>527.0</ele><time>2026-03-27T12:26:45.646Z</time></trkpt><trkpt lat="44.610395" lon="9.31295"><ele>527.0</ele><time>2026-03-27T12:26:46.653Z</time></trkpt><trkpt lat="44.6103417" lon="9.312705"><ele>521.6666666666666</ele><time>2026-03-27T12:26:47.649Z</time></trkpt><trkpt lat="44.6102767" lon="9.31247"><ele>516.3333333333334</ele><time>2026-03-27T12:26:48.647Z</time></trkpt><trkpt lat="44.6102017" lon="9.312255"><ele>511.0</ele><time>2026-03-27T12:26:49.649Z</time></trkpt><trkpt lat="44.6101383" lon="9.312055"><ele>511.0</ele><time>2026-03-27T12:26:50.648Z</time></trkpt><trkpt lat="44.610105" lon="9.3118667"><ele>511.0</ele><time>2026-03-27T12:26:51.648Z</time></trkpt><trkpt lat="44.6101183" lon="9.3116783"><ele>511.0</ele><time>2026-03-27T12:26:52.647Z</time></trkpt><trkpt lat="44.6101717" lon="9.31149"><ele>511.0</ele><time>2026-03-27T12:26:53.648Z</time></trkpt><trkpt lat="44.6102533" lon="9.3113217"><ele>516.0</ele><time>2026-03-27T12:26:54.648Z</time></trkpt><trkpt lat="44.61035" lon="9.3111633"><ele>521.0</ele><time>2026-03-27T12:26:55.647Z</time></trkpt><trkpt lat="44.610455" lon="9.3110133"><ele>526.0</ele><time>2026-03-27T12:26:56.648Z</time></trkpt><trkpt lat="44.6105567" lon="9.3108617"><ele>531.0</ele><time>2026-03-27T12:26:57.647Z</time></trkpt><trkpt lat="44.6106583" lon="9.3107017"><ele>525.6666666666666</ele><time>2026-03-27T12:26:58.647Z</time></trkpt><trkpt lat="44.6107617" lon="9.3105367"><ele>520.3333333333333</ele><time>2026-03-27T12:26:59.646Z</time></trkpt><trkpt lat="44.610865" lon="9.310365"><ele>515.0</ele><time>2026-03-27T12:27:00.647Z</time></trkpt><trkpt lat="44.61097" lon="9.3101967"><ele>515.0</ele><time>2026-03-27T12:27:01.647Z</time></trkpt><trkpt lat="44.6110567" lon="9.3100217"><ele>515.0</ele><time>2026-03-27T12:27:02.647Z</time></trkpt><trkpt lat="44.6111117" lon="9.309825"><ele>515.0</ele><time>2026-03-27T12:27:03.647Z</time></trkpt><trkpt lat="44.61114" lon="9.30961"><ele>519.0</ele><time>2026-03-27T12:27:04.647Z</time></trkpt><trkpt lat="44.6111667" lon="9.3093967"><ele>523.0</ele><time>2026-03-27T12:27:05.646Z</time></trkpt><trkpt lat="44.6111967" lon="9.3091967"><ele>527.0</ele><time>2026-03-27T12:27:06.648Z</time></trkpt><trkpt lat="44.61123" lon="9.3090167"><ele>531.0</ele><time>2026-03-27T12:27:07.647Z</time></trkpt><trkpt lat="44.611235" lon="9.308845"><ele>531.0</ele><time>2026-03-27T12:27:08.648Z</time></trkpt><trkpt lat="44.6112" lon="9.3086867"><ele>531.0</ele><time>2026-03-27T12:27:09.647Z</time></trkpt><trkpt lat="44.6111233" lon="9.3085417"><ele>531.0</ele><time>2026-03-27T12:27:10.647Z</time></trkpt><trkpt lat="44.6110333" lon="9.308395"><ele>531.0</ele><time>2026-03-27T12:27:11.647Z</time></trkpt><trkpt lat="44.6109383" lon="9.308235"><ele>529.0</ele><time>2026-03-27T12:27:12.648Z</time></trkpt><trkpt lat="44.61084" lon="9.3080767"><ele>527.0</ele><time>2026-03-27T12:27:13.647Z</time></trkpt><trkpt lat="44.610745" lon="9.3079133"><ele>525.0</ele><time>2026-03-27T12:27:14.647Z</time></trkpt><trkpt lat="44.6106617" lon="9.3077517"><ele>523.0</ele><time>2026-03-27T12:27:15.647Z</time></trkpt><trkpt lat="44.61061" lon="9.3075783"><ele>523.0</ele><time>2026-03-27T12:27:16.648Z</time></trkpt><trkpt lat="44.6105917" lon="9.3073917"><ele>523.0</ele><time>2026-03-27T12:27:17.651Z</time></trkpt><trkpt lat="44.61059" lon="9.3072067"><ele>523.0</ele><time>2026-03-27T12:27:18.647Z</time></trkpt><trkpt lat="44.610555" lon="9.3070483"><ele>523.0</ele><time>2026-03-27T12:27:19.649Z</time></trkpt><trkpt lat="44.6104783" lon="9.306925"><ele>526.0</ele><time>2026-03-27T12:27:20.648Z</time></trkpt><trkpt lat="44.6103717" lon="9.3068183"><ele>529.0</ele><time>2026-03-27T12:27:21.651Z</time></trkpt><trkpt lat="44.6102467" lon="9.3067333"><ele>532.0</ele><time>2026-03-27T12:27:22.649Z</time></trkpt><trkpt lat="44.6101067" lon="9.3066783"><ele>535.0</ele><time>2026-03-27T12:27:23.649Z</time></trkpt><trkpt lat="44.6099567" lon="9.3066667"><ele>535.0</ele><time>2026-03-27T12:27:24.65Z</time></trkpt><trkpt lat="44.6097983" lon="9.3066883"><ele>535.0</ele><time>2026-03-27T12:27:25.65Z</time></trkpt><trkpt lat="44.6096233" lon="9.30672"><ele>535.0</ele><time>2026-03-27T12:27:26.648Z</time></trkpt><trkpt lat="44.6094483" lon="9.3067483"><ele>533.3333333333334</ele><time>2026-03-27T12:27:27.648Z</time></trkpt><trkpt lat="44.6092733" lon="9.3067917"><ele>531.6666666666666</ele><time>2026-03-27T12:27:28.648Z</time></trkpt><trkpt lat="44.6091017" lon="9.3068483"><ele>530.0</ele><time>2026-03-27T12:27:29.649Z</time></trkpt><trkpt lat="44.6089417" lon="9.3069083"><ele>530.0</ele><time>2026-03-27T12:27:30.647Z</time></trkpt><trkpt lat="44.60879" lon="9.306965"><ele>530.0</ele><time>2026-03-27T12:27:31.647Z</time></trkpt><trkpt lat="44.6086467" lon="9.3070083"><ele>530.0</ele><time>2026-03-27T12:27:32.648Z</time></trkpt><trkpt lat="44.6085083" lon="9.3070217"><ele>530.0</ele><time>2026-03-27T12:27:33.646Z</time></trkpt><trkpt lat="44.60836" lon="9.307015"><ele>529.3333333333333</ele><time>2026-03-27T12:27:34.647Z</time></trkpt><trkpt lat="44.6081983" lon="9.3070017"><ele>528.6666666666666</ele><time>2026-03-27T12:27:35.647Z</time></trkpt><trkpt lat="44.608035" lon="9.30699"><ele>528.0</ele><time>2026-03-27T12:27:36.647Z</time></trkpt><trkpt lat="44.6078817" lon="9.3069833"><ele>527.3333333333334</ele><time>2026-03-27T12:27:37.651Z</time></trkpt><trkpt lat="44.60773" lon="9.3069833"><ele>526.6666666666667</ele><time>2026-03-27T12:27:38.647Z</time></trkpt><trkpt lat="44.6075783" lon="9.3069617"><ele>526.0</ele><time>2026-03-27T12:27:39.647Z</time></trkpt><trkpt lat="44.60743" lon="9.306895"><ele>526.0</ele><time>2026-03-27T12:27:40.647Z</time></trkpt><trkpt lat="44.6072817" lon="9.3067833"><ele>526.0</ele><time>2026-03-27T12:27:41.647Z</time></trkpt><trkpt lat="44.6071433" lon="9.306655"><ele>526.0</ele><time>2026-03-27T12:27:42.647Z</time></trkpt><trkpt lat="44.6070233" lon="9.3065267"><ele>526.3333333333334</ele><time>2026-03-27T12:27:43.647Z</time></trkpt><trkpt lat="44.6069267" lon="9.306375"><ele>526.6666666666666</ele><time>2026-03-27T12:27:44.647Z</time></trkpt><trkpt lat="44.6068583" lon="9.306185"><ele>527.0</ele><time>2026-03-27T12:27:45.647Z</time></trkpt><trkpt lat="44.60681" lon="9.3059767"><ele>527.0</ele><time>2026-03-27T12:27:46.647Z</time></trkpt><trkpt lat="44.6067683" lon="9.305765"><ele>527.0</ele><time>2026-03-27T12:27:47.647Z</time></trkpt><trkpt lat="44.6067333" lon="9.3055517"><ele>527.0</ele><time>2026-03-27T12:27:48.647Z</time></trkpt><trkpt lat="44.6067033" lon="9.3053383"><ele>527.0</ele><time>2026-03-27T12:27:49.649Z</time></trkpt><trkpt lat="44.606675" lon="9.3051217"><ele>527.0</ele><time>2026-03-27T12:27:50.649Z</time></trkpt><trkpt lat="44.6066617" lon="9.3049083"><ele>527.0</ele><time>2026-03-27T12:27:51.649Z</time></trkpt><trkpt lat="44.60667" lon="9.3047167"><ele>527.0</ele><time>2026-03-27T12:27:52.655Z</time></trkpt><trkpt lat="44.6067133" lon="9.304545"><ele>528.5</ele><time>2026-03-27T12:27:53.648Z</time></trkpt><trkpt lat="44.606785" lon="9.30441"><ele>530.0</ele><time>2026-03-27T12:27:54.647Z</time></trkpt><trkpt lat="44.60687" lon="9.3043183"><ele>531.5</ele><time>2026-03-27T12:27:55.647Z</time></trkpt><trkpt lat="44.60698" lon="9.30429"><ele>533.0</ele><time>2026-03-27T12:27:56.649Z</time></trkpt><trkpt lat="44.6071033" lon="9.3042767"><ele>533.0</ele><time>2026-03-27T12:27:57.648Z</time></trkpt><trkpt lat="44.6072433" lon="9.3042517"><ele>533.0</ele><time>2026-03-27T12:27:58.647Z</time></trkpt><trkpt lat="44.6073867" lon="9.304195"><ele>533.0</ele><time>2026-03-27T12:27:59.647Z</time></trkpt><trkpt lat="44.6075267" lon="9.3041067"><ele>533.0</ele><time>2026-03-27T12:28:00.649Z</time></trkpt><trkpt lat="44.60766" lon="9.303985"><ele>533.3333333333333</ele><time>2026-03-27T12:28:01.648Z</time></trkpt><trkpt lat="44.6077917" lon="9.3038567"><ele>533.6666666666666</ele><time>2026-03-27T12:28:02.649Z</time></trkpt><trkpt lat="44.6079233" lon="9.3037217"><ele>534.0</ele><time>2026-03-27T12:28:03.651Z</time></trkpt><trkpt lat="44.6080483" lon="9.30358"><ele>534.0</ele><time>2026-03-27T12:28:04.647Z</time></trkpt><trkpt lat="44.608155" lon="9.303415"><ele>534.0</ele><time>2026-03-27T12:28:05.648Z</time></trkpt><trkpt lat="44.60825" lon="9.3032333"><ele>534.0</ele><time>2026-03-27T12:28:06.648Z</time></trkpt><trkpt lat="44.608335" lon="9.3030267"><ele>533.5</ele><time>2026-03-27T12:28:07.647Z</time></trkpt><trkpt lat="44.6084167" lon="9.30283"><ele>533.0</ele><time>2026-03-27T12:28:08.648Z</time></trkpt><trkpt lat="44.60847" lon="9.3026567"><ele>532.5</ele><time>2026-03-27T12:28:09.648Z</time></trkpt><trkpt lat="44.60848" lon="9.302475"><ele>532.0</ele><time>2026-03-27T12:28:10.646Z</time></trkpt><trkpt lat="44.6084617" lon="9.3022933"><ele>531.6</ele><time>2026-03-27T12:28:11.647Z</time></trkpt><trkpt lat="44.6084433" lon="9.302125"><ele>531.2</ele><time>2026-03-27T12:28:12.648Z</time></trkpt><trkpt lat="44.608425" lon="9.3019717"><ele>530.8</ele><time>2026-03-27T12:28:13.646Z</time></trkpt><trkpt lat="44.6084117" lon="9.3018267"><ele>530.4</ele><time>2026-03-27T12:28:14.649Z</time></trkpt><trkpt lat="44.6084" lon="9.3016883"><ele>530.0</ele><time>2026-03-27T12:28:15.646Z</time></trkpt><trkpt lat="44.6083833" lon="9.3015583"><ele>530.0</ele><time>2026-03-27T12:28:16.646Z</time></trkpt><trkpt lat="44.608365" lon="9.3014317"><ele>530.0</ele><time>2026-03-27T12:28:17.65Z</time></trkpt><trkpt lat="44.6083467" lon="9.301305"><ele>530.0</ele><time>2026-03-27T12:28:18.648Z</time></trkpt><trkpt lat="44.608335" lon="9.30117"><ele>530.0</ele><time>2026-03-27T12:28:19.649Z</time></trkpt><trkpt lat="44.60833" lon="9.301035"><ele>530.0</ele><time>2026-03-27T12:28:20.648Z</time></trkpt><trkpt lat="44.6083267" lon="9.3009067"><ele>530.5</ele><time>2026-03-27T12:28:21.65Z</time></trkpt><trkpt lat="44.6083267" lon="9.30078"><ele>531.0</ele><time>2026-03-27T12:28:22.648Z</time></trkpt><trkpt lat="44.6083267" lon="9.3006583"><ele>531.5</ele><time>2026-03-27T12:28:23.648Z</time></trkpt><trkpt lat="44.608325" lon="9.30054"><ele>532.0</ele><time>2026-03-27T12:28:24.649Z</time></trkpt><trkpt lat="44.608325" lon="9.3004233"><ele>532.5</ele><time>2026-03-27T12:28:25.648Z</time></trkpt><trkpt lat="44.6083233" lon="9.3003083"><ele>533.0</ele><time>2026-03-27T12:28:26.648Z</time></trkpt><trkpt lat="44.6083183" lon="9.3001933"><ele>534.6</ele><time>2026-03-27T12:28:27.65Z</time></trkpt><trkpt lat="44.6083083" lon="9.3000683"><ele>536.1999999999999</ele><time>2026-03-27T12:28:28.649Z</time></trkpt><trkpt lat="44.608295" lon="9.2999417"><ele>537.8</ele><time>2026-03-27T12:28:29.648Z</time></trkpt><trkpt lat="44.60828" lon="9.299805"><ele>539.4</ele><time>2026-03-27T12:28:30.649Z</time></trkpt><trkpt lat="44.6082617" lon="9.2996567"><ele>541.0</ele><time>2026-03-27T12:28:31.646Z</time></trkpt><trkpt lat="44.6082433" lon="9.299485"><ele>543.0</ele><time>2026-03-27T12:28:32.648Z</time></trkpt><trkpt lat="44.6082183" lon="9.299285"><ele>545.0</ele><time>2026-03-27T12:28:33.647Z</time></trkpt><trkpt lat="44.6081917" lon="9.2990633"><ele>547.0</ele><time>2026-03-27T12:28:34.647Z</time></trkpt><trkpt lat="44.60816" lon="9.2988167"><ele>549.0</ele><time>2026-03-27T12:28:35.648Z</time></trkpt><trkpt lat="44.60812" lon="9.2985717"><ele>551.0</ele><time>2026-03-27T12:28:36.646Z</time></trkpt><trkpt lat="44.6080633" lon="9.298345"><ele>553.0</ele><time>2026-03-27T12:28:37.648Z</time></trkpt><trkpt lat="44.6079833" lon="9.2981617"><ele>557.0</ele><time>2026-03-27T12:28:38.648Z</time></trkpt><trkpt lat="44.6078683" lon="9.29804"><ele>561.0</ele><time>2026-03-27T12:28:39.648Z</time></trkpt><trkpt lat="44.6077183" lon="9.2979567"><ele>565.0</ele><time>2026-03-27T12:28:40.647Z</time></trkpt><trkpt lat="44.60756" lon="9.2978583"><ele>554.6666666666667</ele><time>2026-03-27T12:28:41.648Z</time></trkpt><trkpt lat="44.60741" lon="9.2977117"><ele>544.3333333333334</ele><time>2026-03-27T12:28:42.648Z</time></trkpt><trkpt lat="44.6072817" lon="9.2975233"><ele>534.0</ele><time>2026-03-27T12:28:43.648Z</time></trkpt><trkpt lat="44.607175" lon="9.297325"><ele>532.0</ele><time>2026-03-27T12:28:44.648Z</time></trkpt><trkpt lat="44.6070817" lon="9.2971417"><ele>530.0</ele><time>2026-03-27T12:28:45.647Z</time></trkpt><trkpt lat="44.6069967" lon="9.2969733"><ele>528.0</ele><time>2026-03-27T12:28:46.647Z</time></trkpt><trkpt lat="44.606925" lon="9.29681"><ele>526.0</ele><time>2026-03-27T12:28:47.647Z</time></trkpt><trkpt lat="44.6068767" lon="9.296635"><ele>526.0</ele><time>2026-03-27T12:28:48.65Z</time></trkpt><trkpt lat="44.606855" lon="9.296445"><ele>526.0</ele><time>2026-03-27T12:28:49.647Z</time></trkpt><trkpt lat="44.6068283" lon="9.2962683"><ele>526.0</ele><time>2026-03-27T12:28:50.648Z</time></trkpt><trkpt lat="44.6067817" lon="9.2961167"><ele>526.0</ele><time>2026-03-27T12:28:51.648Z</time></trkpt><trkpt lat="44.60672" lon="9.2959783"><ele>526.75</ele><time>2026-03-27T12:28:52.648Z</time></trkpt><trkpt lat="44.6066567" lon="9.2958333"><ele>527.5</ele><time>2026-03-27T12:28:53.648Z</time></trkpt><trkpt lat="44.6065917" lon="9.29568"><ele>528.25</ele><time>2026-03-27T12:28:54.648Z</time></trkpt><trkpt lat="44.6065217" lon="9.2955267"><ele>529.0</ele><time>2026-03-27T12:28:55.648Z</time></trkpt><trkpt lat="44.60645" lon="9.2953733"><ele>529.0</ele><time>2026-03-27T12:28:56.647Z</time></trkpt><trkpt lat="44.606375" lon="9.2952183"><ele>529.0</ele><time>2026-03-27T12:28:57.647Z</time></trkpt><trkpt lat="44.6062967" lon="9.2950633"><ele>529.0</ele><time>2026-03-27T12:28:58.647Z</time></trkpt><trkpt lat="44.6062167" lon="9.294905"><ele>529.0</ele><time>2026-03-27T12:28:59.647Z</time></trkpt><trkpt lat="44.6061383" lon="9.2947467"><ele>527.75</ele><time>2026-03-27T12:29:00.649Z</time></trkpt><trkpt lat="44.6060633" lon="9.2945917"><ele>526.5</ele><time>2026-03-27T12:29:01.647Z</time></trkpt><trkpt lat="44.6059867" lon="9.29444"><ele>525.25</ele><time>2026-03-27T12:29:02.647Z</time></trkpt><trkpt lat="44.6059067" lon="9.2942933"><ele>524.0</ele><time>2026-03-27T12:29:03.647Z</time></trkpt><trkpt lat="44.60583" lon="9.29414"><ele>524.0</ele><time>2026-03-27T12:29:04.647Z</time></trkpt><trkpt lat="44.605755" lon="9.2939817"><ele>524.0</ele><time>2026-03-27T12:29:05.646Z</time></trkpt><trkpt lat="44.6056767" lon="9.2938217"><ele>524.0</ele><time>2026-03-27T12:29:06.647Z</time></trkpt><trkpt lat="44.605595" lon="9.2936583"><ele>524.0</ele><time>2026-03-27T12:29:07.648Z</time></trkpt><trkpt lat="44.6055167" lon="9.2934883"><ele>524.0</ele><time>2026-03-27T12:29:08.647Z</time></trkpt><trkpt lat="44.6054367" lon="9.2933183"><ele>524.0</ele><time>2026-03-27T12:29:09.648Z</time></trkpt><trkpt lat="44.605355" lon="9.2931517"><ele>524.0</ele><time>2026-03-27T12:29:10.649Z</time></trkpt><trkpt lat="44.6052717" lon="9.2929867"><ele>524.0</ele><time>2026-03-27T12:29:11.647Z</time></trkpt><trkpt lat="44.6051917" lon="9.2928267"><ele>524.25</ele><time>2026-03-27T12:29:12.647Z</time></trkpt><trkpt lat="44.6051167" lon="9.2926683"><ele>524.5</ele><time>2026-03-27T12:29:13.646Z</time></trkpt><trkpt lat="44.6050383" lon="9.29251"><ele>524.75</ele><time>2026-03-27T12:29:14.647Z</time></trkpt><trkpt lat="44.6049567" lon="9.2923533"><ele>525.0</ele><time>2026-03-27T12:29:15.646Z</time></trkpt><trkpt lat="44.6048767" lon="9.292195"><ele>525.0</ele><time>2026-03-27T12:29:16.647Z</time></trkpt><trkpt lat="44.6047933" lon="9.2920467"><ele>525.0</ele><time>2026-03-27T12:29:17.647Z</time></trkpt><trkpt lat="44.6046933" lon="9.291915"><ele>525.0</ele><time>2026-03-27T12:29:18.648Z</time></trkpt><trkpt lat="44.60458" lon="9.2918067"><ele>525.0</ele><time>2026-03-27T12:29:19.651Z</time></trkpt><trkpt lat="44.6044483" lon="9.2917233"><ele>525.0</ele><time>2026-03-27T12:29:20.649Z</time></trkpt><trkpt lat="44.6043117" lon="9.2916517"><ele>525.0</ele><time>2026-03-27T12:29:21.653Z</time></trkpt><trkpt lat="44.6041717" lon="9.291585"><ele>525.0</ele><time>2026-03-27T12:29:22.65Z</time></trkpt><trkpt lat="44.6040267" lon="9.291515"><ele>525.0</ele><time>2026-03-27T12:29:23.647Z</time></trkpt><trkpt lat="44.6038767" lon="9.29144"><ele>525.0</ele><time>2026-03-27T12:29:24.648Z</time></trkpt><trkpt lat="44.60372" lon="9.2913683"><ele>525.0</ele><time>2026-03-27T12:29:25.647Z</time></trkpt><trkpt lat="44.6035567" lon="9.2912917"><ele>525.0</ele><time>2026-03-27T12:29:26.648Z</time></trkpt><trkpt lat="44.6033933" lon="9.2912133"><ele>524.0</ele><time>2026-03-27T12:29:27.647Z</time></trkpt><trkpt lat="44.6032233" lon="9.29113"><ele>523.0</ele><time>2026-03-27T12:29:28.647Z</time></trkpt><trkpt lat="44.60305" lon="9.2910383"><ele>522.0</ele><time>2026-03-27T12:29:29.648Z</time></trkpt><trkpt lat="44.6028717" lon="9.2909483"><ele>525.0</ele><time>2026-03-27T12:29:30.647Z</time></trkpt><trkpt lat="44.6026933" lon="9.290855"><ele>528.0</ele><time>2026-03-27T12:29:31.65Z</time></trkpt><trkpt lat="44.602515" lon="9.290765"><ele>531.0</ele><time>2026-03-27T12:29:32.649Z</time></trkpt><trkpt lat="44.6023383" lon="9.290675"><ele>531.0</ele><time>2026-03-27T12:29:33.649Z</time></trkpt><trkpt lat="44.6021633" lon="9.2905833"><ele>531.0</ele><time>2026-03-27T12:29:34.647Z</time></trkpt><trkpt lat="44.6019883" lon="9.2904933"><ele>531.0</ele><time>2026-03-27T12:29:35.65Z</time></trkpt><trkpt lat="44.6018117" lon="9.290405"><ele>531.0</ele><time>2026-03-27T12:29:36.649Z</time></trkpt><trkpt lat="44.6016333" lon="9.2903383"><ele>531.0</ele><time>2026-03-27T12:29:37.648Z</time></trkpt><trkpt lat="44.6014567" lon="9.29029"><ele>531.0</ele><time>2026-03-27T12:29:38.649Z</time></trkpt><trkpt lat="44.601275" lon="9.29029"><ele>531.0</ele><time>2026-03-27T12:29:39.647Z</time></trkpt><trkpt lat="44.601085" lon="9.2903267"><ele>531.0</ele><time>2026-03-27T12:29:40.648Z</time></trkpt><trkpt lat="44.6009017" lon="9.2903933"><ele>531.0</ele><time>2026-03-27T12:29:41.65Z</time></trkpt><trkpt lat="44.600725" lon="9.29046"><ele>531.0</ele><time>2026-03-27T12:29:42.65Z</time></trkpt><trkpt lat="44.6005617" lon="9.2905417"><ele>531.0</ele><time>2026-03-27T12:29:43.649Z</time></trkpt><trkpt lat="44.600415" lon="9.2906617"><ele>531.0</ele><time>2026-03-27T12:29:44.649Z</time></trkpt><trkpt lat="44.6002883" lon="9.2908167"><ele>531.3333333333334</ele><time>2026-03-27T12:29:45.648Z</time></trkpt><trkpt lat="44.6001783" lon="9.291"><ele>531.6666666666667</ele><time>2026-03-27T12:29:46.648Z</time></trkpt><trkpt lat="44.600075" lon="9.2912083"><ele>532.0</ele><time>2026-03-27T12:29:47.648Z</time></trkpt><trkpt lat="44.5999717" lon="9.2914217"><ele>536.0</ele><time>2026-03-27T12:29:48.647Z</time></trkpt><trkpt lat="44.5998733" lon="9.2916467"><ele>540.0</ele><time>2026-03-27T12:29:49.651Z</time></trkpt><trkpt lat="44.5997767" lon="9.2918867"><ele>544.0</ele><time>2026-03-27T12:29:50.648Z</time></trkpt><trkpt lat="44.59969" lon="9.29213"><ele>541.0</ele><time>2026-03-27T12:29:51.648Z</time></trkpt><trkpt lat="44.5996117" lon="9.2923533"><ele>538.0</ele><time>2026-03-27T12:29:52.647Z</time></trkpt><trkpt lat="44.599535" lon="9.292555"><ele>535.0</ele><time>2026-03-27T12:29:53.648Z</time></trkpt><trkpt lat="44.59944" lon="9.2927233"><ele>535.0</ele><time>2026-03-27T12:29:54.649Z</time></trkpt><trkpt lat="44.59933" lon="9.29286"><ele>535.0</ele><time>2026-03-27T12:29:55.647Z</time></trkpt><trkpt lat="44.599195" lon="9.2929667"><ele>535.0</ele><time>2026-03-27T12:29:56.65Z</time></trkpt><trkpt lat="44.599045" lon="9.2930567"><ele>538.6666666666667</ele><time>2026-03-27T12:29:57.647Z</time></trkpt><trkpt lat="44.5988917" lon="9.29315"><ele>542.3333333333334</ele><time>2026-03-27T12:29:58.647Z</time></trkpt><trkpt lat="44.5987367" lon="9.2932383"><ele>546.0</ele><time>2026-03-27T12:29:59.648Z</time></trkpt><trkpt lat="44.5985833" lon="9.2933183"><ele>546.0</ele><time>2026-03-27T12:30:00.647Z</time></trkpt><trkpt lat="44.5984283" lon="9.2933983"><ele>546.0</ele><time>2026-03-27T12:30:01.647Z</time></trkpt><trkpt lat="44.5982733" lon="9.293485"><ele>546.0</ele><time>2026-03-27T12:30:02.647Z</time></trkpt><trkpt lat="44.5981133" lon="9.2935667"><ele>546.0</ele><time>2026-03-27T12:30:03.647Z</time></trkpt><trkpt lat="44.5979483" lon="9.293625"><ele>546.0</ele><time>2026-03-27T12:30:04.647Z</time></trkpt><trkpt lat="44.5977817" lon="9.2936533"><ele>546.0</ele><time>2026-03-27T12:30:05.648Z</time></trkpt><trkpt lat="44.5976167" lon="9.293635"><ele>545.3333333333334</ele><time>2026-03-27T12:30:06.648Z</time></trkpt><trkpt lat="44.5974483" lon="9.293555"><ele>544.6666666666667</ele><time>2026-03-27T12:30:07.648Z</time></trkpt><trkpt lat="44.5972867" lon="9.293435"><ele>544.0</ele><time>2026-03-27T12:30:08.647Z</time></trkpt><trkpt lat="44.5971183" lon="9.293325"><ele>546.3333333333334</ele><time>2026-03-27T12:30:09.648Z</time></trkpt><trkpt lat="44.5969433" lon="9.293235"><ele>548.6666666666666</ele><time>2026-03-27T12:30:10.649Z</time></trkpt><trkpt lat="44.5967617" lon="9.29315"><ele>551.0</ele><time>2026-03-27T12:30:11.646Z</time></trkpt><trkpt lat="44.596575" lon="9.293075"><ele>546.0</ele><time>2026-03-27T12:30:12.649Z</time></trkpt><trkpt lat="44.5963783" lon="9.29301"><ele>541.0</ele><time>2026-03-27T12:30:13.646Z</time></trkpt><trkpt lat="44.5961867" lon="9.2929517"><ele>536.0</ele><time>2026-03-27T12:30:14.647Z</time></trkpt><trkpt lat="44.596" lon="9.2928983"><ele>536.0</ele><time>2026-03-27T12:30:15.647Z</time></trkpt><trkpt lat="44.5958167" lon="9.2928417"><ele>536.0</ele><time>2026-03-27T12:30:16.647Z</time></trkpt><trkpt lat="44.5956417" lon="9.2927883"><ele>536.0</ele><time>2026-03-27T12:30:17.648Z</time></trkpt><trkpt lat="44.5954783" lon="9.2927383"><ele>540.75</ele><time>2026-03-27T12:30:18.647Z</time></trkpt><trkpt lat="44.5953283" lon="9.292695"><ele>545.5</ele><time>2026-03-27T12:30:19.648Z</time></trkpt><trkpt lat="44.59519" lon="9.2926317"><ele>550.25</ele><time>2026-03-27T12:30:20.647Z</time></trkpt><trkpt lat="44.5950767" lon="9.292535"><ele>555.0</ele><time>2026-03-27T12:30:21.647Z</time></trkpt><trkpt lat="44.5949733" lon="9.292435"><ele>555.0</ele><time>2026-03-27T12:30:22.647Z</time></trkpt><trkpt lat="44.5948567" lon="9.29235"><ele>555.0</ele><time>2026-03-27T12:30:23.649Z</time></trkpt><trkpt lat="44.5947117" lon="9.2923167"><ele>555.0</ele><time>2026-03-27T12:30:24.647Z</time></trkpt><trkpt lat="44.5945533" lon="9.2922783"><ele>555.0</ele><time>2026-03-27T12:30:25.646Z</time></trkpt><trkpt lat="44.5944017" lon="9.2921917"><ele>554.6666666666666</ele><time>2026-03-27T12:30:26.648Z</time></trkpt><trkpt lat="44.5942683" lon="9.2920717"><ele>554.3333333333333</ele><time>2026-03-27T12:30:27.647Z</time></trkpt><trkpt lat="44.5941683" lon="9.291915"><ele>554.0</ele><time>2026-03-27T12:30:28.649Z</time></trkpt><trkpt lat="44.5940933" lon="9.2917283"><ele>554.0</ele><time>2026-03-27T12:30:29.648Z</time></trkpt><trkpt lat="44.59403" lon="9.2915217"><ele>554.0</ele><time>2026-03-27T12:30:30.653Z</time></trkpt><trkpt lat="44.5939733" lon="9.2913017"><ele>554.0</ele><time>2026-03-27T12:30:31.649Z</time></trkpt><trkpt lat="44.5939133" lon="9.291075"><ele>557.0</ele><time>2026-03-27T12:30:32.649Z</time></trkpt><trkpt lat="44.5938333" lon="9.2908583"><ele>560.0</ele><time>2026-03-27T12:30:33.649Z</time></trkpt><trkpt lat="44.5937417" lon="9.290645"><ele>563.0</ele><time>2026-03-27T12:30:34.646Z</time></trkpt><trkpt lat="44.5936367" lon="9.2904367"><ele>563.0</ele><time>2026-03-27T12:30:35.648Z</time></trkpt><trkpt lat="44.5935233" lon="9.290225"><ele>563.0</ele><time>2026-03-27T12:30:36.649Z</time></trkpt><trkpt lat="44.5933917" lon="9.290015"><ele>563.0</ele><time>2026-03-27T12:30:37.647Z</time></trkpt><trkpt lat="44.5932733" lon="9.2897983"><ele>557.6666666666666</ele><time>2026-03-27T12:30:38.649Z</time></trkpt><trkpt lat="44.5931667" lon="9.28957"><ele>552.3333333333334</ele><time>2026-03-27T12:30:39.648Z</time></trkpt><trkpt lat="44.5930617" lon="9.2893333"><ele>547.0</ele><time>2026-03-27T12:30:40.647Z</time></trkpt><trkpt lat="44.59296" lon="9.2891133"><ele>545.6666666666667</ele><time>2026-03-27T12:30:41.648Z</time></trkpt><trkpt lat="44.5928633" lon="9.2889183"><ele>544.3333333333334</ele><time>2026-03-27T12:30:42.648Z</time></trkpt><trkpt lat="44.5927433" lon="9.2887617"><ele>543.0</ele><time>2026-03-27T12:30:43.651Z</time></trkpt><trkpt lat="44.5926083" lon="9.2886583"><ele>543.0</ele><time>2026-03-27T12:30:44.648Z</time></trkpt><trkpt lat="44.5924733" lon="9.288615"><ele>543.0</ele><time>2026-03-27T12:30:45.648Z</time></trkpt><trkpt lat="44.5923317" lon="9.2886383"><ele>543.0</ele><time>2026-03-27T12:30:46.647Z</time></trkpt><trkpt lat="44.5921833" lon="9.288705"><ele>543.0</ele><time>2026-03-27T12:30:47.647Z</time></trkpt><trkpt lat="44.5920333" lon="9.2887583"><ele>545.3333333333334</ele><time>2026-03-27T12:30:48.647Z</time></trkpt><trkpt lat="44.59188" lon="9.288775"><ele>547.6666666666667</ele><time>2026-03-27T12:30:49.65Z</time></trkpt><trkpt lat="44.5917233" lon="9.288755"><ele>550.0</ele><time>2026-03-27T12:30:50.648Z</time></trkpt><trkpt lat="44.5915617" lon="9.2886983"><ele>550.0</ele><time>2026-03-27T12:30:51.648Z</time></trkpt><trkpt lat="44.5914033" lon="9.2886183"><ele>550.0</ele><time>2026-03-27T12:30:52.648Z</time></trkpt><trkpt lat="44.5912533" lon="9.28853"><ele>550.0</ele><time>2026-03-27T12:30:53.649Z</time></trkpt><trkpt lat="44.5911133" lon="9.2884383"><ele>551.0</ele><time>2026-03-27T12:30:54.647Z</time></trkpt><trkpt lat="44.5910017" lon="9.288305"><ele>552.0</ele><time>2026-03-27T12:30:55.647Z</time></trkpt><trkpt lat="44.5909117" lon="9.288135"><ele>553.0</ele><time>2026-03-27T12:30:56.647Z</time></trkpt><trkpt lat="44.5908383" lon="9.2879317"><ele>553.0</ele><time>2026-03-27T12:30:57.648Z</time></trkpt><trkpt lat="44.5907783" lon="9.287705"><ele>553.0</ele><time>2026-03-27T12:30:58.649Z</time></trkpt><trkpt lat="44.5907183" lon="9.2874633"><ele>553.0</ele><time>2026-03-27T12:30:59.648Z</time></trkpt><trkpt lat="44.5906467" lon="9.2872217"><ele>551.0</ele><time>2026-03-27T12:31:00.648Z</time></trkpt><trkpt lat="44.5905717" lon="9.2869783"><ele>549.0</ele><time>2026-03-27T12:31:01.649Z</time></trkpt><trkpt lat="44.5905" lon="9.286745"><ele>547.0</ele><time>2026-03-27T12:31:02.65Z</time></trkpt><trkpt lat="44.59043" lon="9.28652"><ele>545.6666666666667</ele><time>2026-03-27T12:31:03.648Z</time></trkpt><trkpt lat="44.59036" lon="9.2862983"><ele>544.3333333333334</ele><time>2026-03-27T12:31:04.648Z</time></trkpt><trkpt lat="44.5902783" lon="9.2860817"><ele>543.0</ele><time>2026-03-27T12:31:05.65Z</time></trkpt><trkpt lat="44.59018" lon="9.2858883"><ele>544.3333333333334</ele><time>2026-03-27T12:31:06.649Z</time></trkpt><trkpt lat="44.5900517" lon="9.28573"><ele>545.6666666666667</ele><time>2026-03-27T12:31:07.648Z</time></trkpt><trkpt lat="44.5899117" lon="9.2855983"><ele>547.0</ele><time>2026-03-27T12:31:08.65Z</time></trkpt><trkpt lat="44.5897783" lon="9.2854533"><ele>547.0</ele><time>2026-03-27T12:31:09.65Z</time></trkpt><trkpt lat="44.58967" lon="9.285265"><ele>547.0</ele><time>2026-03-27T12:31:10.648Z</time></trkpt><trkpt lat="44.5895767" lon="9.2850567"><ele>547.0</ele><time>2026-03-27T12:31:11.647Z</time></trkpt><trkpt lat="44.5894917" lon="9.284835"><ele>554.0</ele><time>2026-03-27T12:31:12.65Z</time></trkpt><trkpt lat="44.5894083" lon="9.284615"><ele>561.0</ele><time>2026-03-27T12:31:13.648Z</time></trkpt><trkpt lat="44.5893333" lon="9.2844017"><ele>568.0</ele><time>2026-03-27T12:31:14.649Z</time></trkpt><trkpt lat="44.5892717" lon="9.284195"><ele>568.0</ele><time>2026-03-27T12:31:15.65Z</time></trkpt><trkpt lat="44.5892483" lon="9.28399"><ele>568.0</ele><time>2026-03-27T12:31:16.647Z</time></trkpt><trkpt lat="44.5892583" lon="9.2837867"><ele>568.0</ele><time>2026-03-27T12:31:17.649Z</time></trkpt><trkpt lat="44.5892767" lon="9.28358"><ele>568.0</ele><time>2026-03-27T12:31:18.647Z</time></trkpt><trkpt lat="44.58928" lon="9.2833683"><ele>568.0</ele><time>2026-03-27T12:31:19.647Z</time></trkpt><trkpt lat="44.5892617" lon="9.2831617"><ele>568.0</ele><time>2026-03-27T12:31:20.652Z</time></trkpt><trkpt lat="44.5892217" lon="9.2829583"><ele>568.0</ele><time>2026-03-27T12:31:21.647Z</time></trkpt><trkpt lat="44.5891717" lon="9.2827733"><ele>568.0</ele><time>2026-03-27T12:31:22.646Z</time></trkpt><trkpt lat="44.5891167" lon="9.282605"><ele>566.4</ele><time>2026-03-27T12:31:23.646Z</time></trkpt><trkpt lat="44.5890617" lon="9.2824533"><ele>564.8</ele><time>2026-03-27T12:31:24.646Z</time></trkpt><trkpt lat="44.58901" lon="9.2823133"><ele>563.2</ele><time>2026-03-27T12:31:25.649Z</time></trkpt><trkpt lat="44.5889617" lon="9.2821933"><ele>561.6</ele><time>2026-03-27T12:31:26.649Z</time></trkpt><trkpt lat="44.58892" lon="9.2820933"><ele>560.0</ele><time>2026-03-27T12:31:27.647Z</time></trkpt><trkpt lat="44.588885" lon="9.282015"><ele>560.0</ele><time>2026-03-27T12:31:28.649Z</time></trkpt><trkpt lat="44.5888317" lon="9.2819017"><ele>560.0</ele><time>2026-03-27T12:31:30.65Z</time></trkpt><trkpt lat="44.5887517" lon="9.2818317"><ele>560.0</ele><time>2026-03-27T12:34:05.649Z</time></trkpt><trkpt lat="44.58868" lon="9.2818067"><ele>560.0</ele><time>2026-03-27T12:34:06.65Z</time></trkpt><trkpt lat="44.5885983" lon="9.2817783"><ele>560.0</ele><time>2026-03-27T12:34:07.649Z</time></trkpt><trkpt lat="44.588505" lon="9.2817733"><ele>560.0</ele><time>2026-03-27T12:34:08.649Z</time></trkpt><trkpt lat="44.5884167" lon="9.2817983"><ele>560.0</ele><time>2026-03-27T12:34:09.648Z</time></trkpt><trkpt lat="44.588325" lon="9.281845"><ele>560.0</ele><time>2026-03-27T12:34:10.647Z</time></trkpt><trkpt lat="44.5882183" lon="9.28192"><ele>560.0</ele><time>2026-03-27T12:34:11.646Z</time></trkpt><trkpt lat="44.5881" lon="9.2820033"><ele>560.0</ele><time>2026-03-27T12:34:12.647Z</time></trkpt><trkpt lat="44.5879833" lon="9.2820783"><ele>560.0</ele><time>2026-03-27T12:34:13.647Z</time></trkpt><trkpt lat="44.5878683" lon="9.282115"><ele>560.0</ele><time>2026-03-27T12:34:14.647Z</time></trkpt><trkpt lat="44.5877517" lon="9.2821183"><ele>560.0</ele><time>2026-03-27T12:34:15.647Z</time></trkpt><trkpt lat="44.587625" lon="9.2820767"><ele>560.0</ele><time>2026-03-27T12:34:16.645Z</time></trkpt><trkpt lat="44.5874933" lon="9.2819967"><ele>560.0</ele><time>2026-03-27T12:34:17.648Z</time></trkpt><trkpt lat="44.58737" lon="9.281895"><ele>560.0</ele><time>2026-03-27T12:34:18.647Z</time></trkpt><trkpt lat="44.5872467" lon="9.2817767"><ele>560.0</ele><time>2026-03-27T12:34:19.647Z</time></trkpt><trkpt lat="44.5871217" lon="9.2816367"><ele>560.6666666666666</ele><time>2026-03-27T12:34:20.647Z</time></trkpt><trkpt lat="44.587005" lon="9.2814883"><ele>561.3333333333334</ele><time>2026-03-27T12:34:21.646Z</time></trkpt><trkpt lat="44.586895" lon="9.281335"><ele>562.0</ele><time>2026-03-27T12:34:22.646Z</time></trkpt><trkpt lat="44.586805" lon="9.2811617"><ele>562.0</ele><time>2026-03-27T12:34:23.646Z</time></trkpt><trkpt lat="44.5867083" lon="9.2809567"><ele>562.0</ele><time>2026-03-27T12:34:24.649Z</time></trkpt><trkpt lat="44.586615" lon="9.2807333"><ele>562.0</ele><time>2026-03-27T12:34:25.647Z</time></trkpt><trkpt lat="44.586525" lon="9.2805017"><ele>558.3333333333334</ele><time>2026-03-27T12:34:26.646Z</time></trkpt><trkpt lat="44.5864317" lon="9.2802683"><ele>554.6666666666666</ele><time>2026-03-27T12:34:27.646Z</time></trkpt><trkpt lat="44.5863467" lon="9.2800283"><ele>551.0</ele><time>2026-03-27T12:34:28.647Z</time></trkpt><trkpt lat="44.5862667" lon="9.2797867"><ele>550.0</ele><time>2026-03-27T12:34:29.646Z</time></trkpt><trkpt lat="44.5861967" lon="9.2795417"><ele>549.0</ele><time>2026-03-27T12:34:30.648Z</time></trkpt><trkpt lat="44.5861283" lon="9.2793017"><ele>548.0</ele><time>2026-03-27T12:34:31.647Z</time></trkpt><trkpt lat="44.58607" lon="9.2790683"><ele>553.3333333333333</ele><time>2026-03-27T12:34:32.648Z</time></trkpt><trkpt lat="44.5860133" lon="9.2788317"><ele>558.6666666666666</ele><time>2026-03-27T12:34:33.646Z</time></trkpt><trkpt lat="44.5859383" lon="9.2786017"><ele>564.0</ele><time>2026-03-27T12:34:34.647Z</time></trkpt><trkpt lat="44.585845" lon="9.278375"><ele>564.0</ele><time>2026-03-27T12:34:35.648Z</time></trkpt><trkpt lat="44.5857367" lon="9.2781517"><ele>564.0</ele><time>2026-03-27T12:34:36.648Z</time></trkpt><trkpt lat="44.5856283" lon="9.2779317"><ele>564.0</ele><time>2026-03-27T12:34:37.653Z</time></trkpt><trkpt lat="44.5855267" lon="9.27772"><ele>562.0</ele><time>2026-03-27T12:34:38.648Z</time></trkpt><trkpt lat="44.5854383" lon="9.2775217"><ele>560.0</ele><time>2026-03-27T12:34:39.649Z</time></trkpt><trkpt lat="44.5853567" lon="9.2773183"><ele>558.0</ele><time>2026-03-27T12:34:40.649Z</time></trkpt><trkpt lat="44.5853067" lon="9.277095"><ele>563.0</ele><time>2026-03-27T12:34:41.646Z</time></trkpt><trkpt lat="44.585285" lon="9.2768567"><ele>568.0</ele><time>2026-03-27T12:34:42.647Z</time></trkpt><trkpt lat="44.5852733" lon="9.276615"><ele>573.0</ele><time>2026-03-27T12:34:43.646Z</time></trkpt><trkpt lat="44.5852667" lon="9.2763767"><ele>574.0</ele><time>2026-03-27T12:34:44.647Z</time></trkpt><trkpt lat="44.58526" lon="9.2761567"><ele>575.0</ele><time>2026-03-27T12:34:45.646Z</time></trkpt><trkpt lat="44.5852433" lon="9.2759433"><ele>576.0</ele><time>2026-03-27T12:34:46.646Z</time></trkpt><trkpt lat="44.5852133" lon="9.275725"><ele>573.3333333333334</ele><time>2026-03-27T12:34:47.649Z</time></trkpt><trkpt lat="44.5851567" lon="9.275505"><ele>570.6666666666667</ele><time>2026-03-27T12:34:48.647Z</time></trkpt><trkpt lat="44.5850833" lon="9.2752817"><ele>568.0</ele><time>2026-03-27T12:34:49.646Z</time></trkpt><trkpt lat="44.5849967" lon="9.2750683"><ele>568.0</ele><time>2026-03-27T12:34:50.647Z</time></trkpt><trkpt lat="44.5849083" lon="9.2748417"><ele>568.0</ele><time>2026-03-27T12:34:51.648Z</time></trkpt><trkpt lat="44.5848267" lon="9.2746033"><ele>568.0</ele><time>2026-03-27T12:34:52.646Z</time></trkpt><trkpt lat="44.5847517" lon="9.274375"><ele>566.6666666666667</ele><time>2026-03-27T12:34:53.648Z</time></trkpt><trkpt lat="44.584675" lon="9.274155"><ele>565.3333333333334</ele><time>2026-03-27T12:34:54.649Z</time></trkpt><trkpt lat="44.5845883" lon="9.27394"><ele>564.0</ele><time>2026-03-27T12:34:55.648Z</time></trkpt><trkpt lat="44.58449" lon="9.2737433"><ele>568.0</ele><time>2026-03-27T12:34:56.646Z</time></trkpt><trkpt lat="44.5843867" lon="9.2735417"><ele>572.0</ele><time>2026-03-27T12:34:57.647Z</time></trkpt><trkpt lat="44.584275" lon="9.27333"><ele>576.0</ele><time>2026-03-27T12:34:58.647Z</time></trkpt><trkpt lat="44.584155" lon="9.2731117"><ele>573.6666666666666</ele><time>2026-03-27T12:34:59.646Z</time></trkpt><trkpt lat="44.58403" lon="9.27289"><ele>571.3333333333333</ele><time>2026-03-27T12:35:00.646Z</time></trkpt><trkpt lat="44.5839117" lon="9.2726683"><ele>569.0</ele><time>2026-03-27T12:35:01.647Z</time></trkpt><trkpt lat="44.583795" lon="9.2724733"><ele>570.0</ele><time>2026-03-27T12:35:02.646Z</time></trkpt><trkpt lat="44.583685" lon="9.2722717"><ele>571.0</ele><time>2026-03-27T12:35:03.646Z</time></trkpt><trkpt lat="44.5835683" lon="9.27208"><ele>572.0</ele><time>2026-03-27T12:35:04.646Z</time></trkpt><trkpt lat="44.5834433" lon="9.271895"><ele>572.0</ele><time>2026-03-27T12:35:05.646Z</time></trkpt><trkpt lat="44.5832783" lon="9.2717233"><ele>572.0</ele><time>2026-03-27T12:35:06.65Z</time></trkpt><trkpt lat="44.5831" lon="9.271565"><ele>572.0</ele><time>2026-03-27T12:35:07.648Z</time></trkpt><trkpt lat="44.5829133" lon="9.2714317"><ele>570.6666666666666</ele><time>2026-03-27T12:35:08.647Z</time></trkpt><trkpt lat="44.5827333" lon="9.2712983"><ele>569.3333333333334</ele><time>2026-03-27T12:35:09.647Z</time></trkpt><trkpt lat="44.58255" lon="9.2711683"><ele>568.0</ele><time>2026-03-27T12:35:10.651Z</time></trkpt><trkpt lat="44.5823633" lon="9.2710383"><ele>568.0</ele><time>2026-03-27T12:35:11.646Z</time></trkpt><trkpt lat="44.58218" lon="9.2709133"><ele>568.0</ele><time>2026-03-27T12:35:12.645Z</time></trkpt><trkpt lat="44.581995" lon="9.2707867"><ele>568.0</ele><time>2026-03-27T12:35:13.645Z</time></trkpt><trkpt lat="44.581805" lon="9.2706633"><ele>567.6666666666667</ele><time>2026-03-27T12:35:14.646Z</time></trkpt><trkpt lat="44.5816167" lon="9.2705417"><ele>567.3333333333334</ele><time>2026-03-27T12:35:15.646Z</time></trkpt><trkpt lat="44.581425" lon="9.270425"><ele>567.0</ele><time>2026-03-27T12:35:16.646Z</time></trkpt><trkpt lat="44.5812333" lon="9.2703183"><ele>569.0</ele><time>2026-03-27T12:35:17.646Z</time></trkpt><trkpt lat="44.5810333" lon="9.270235"><ele>571.0</ele><time>2026-03-27T12:35:18.647Z</time></trkpt><trkpt lat="44.5808283" lon="9.270175"><ele>573.0</ele><time>2026-03-27T12:35:19.647Z</time></trkpt><trkpt lat="44.5806117" lon="9.270135"><ele>573.0</ele><time>2026-03-27T12:35:20.649Z</time></trkpt><trkpt lat="44.58039" lon="9.2701"><ele>573.0</ele><time>2026-03-27T12:35:21.646Z</time></trkpt><trkpt lat="44.580175" lon="9.2700683"><ele>573.0</ele><time>2026-03-27T12:35:22.646Z</time></trkpt><trkpt lat="44.57996" lon="9.27004"><ele>574.0</ele><time>2026-03-27T12:35:23.646Z</time></trkpt><trkpt lat="44.5797433" lon="9.2700167"><ele>575.0</ele><time>2026-03-27T12:35:24.646Z</time></trkpt><trkpt lat="44.5795333" lon="9.27"><ele>576.0</ele><time>2026-03-27T12:35:25.649Z</time></trkpt><trkpt lat="44.57933" lon="9.2699833"><ele>576.0</ele><time>2026-03-27T12:35:26.647Z</time></trkpt><trkpt lat="44.57913" lon="9.2699733"><ele>576.0</ele><time>2026-03-27T12:35:27.645Z</time></trkpt><trkpt lat="44.578935" lon="9.26998"><ele>576.0</ele><time>2026-03-27T12:35:28.646Z</time></trkpt><trkpt lat="44.5787383" lon="9.270015"><ele>575.6666666666666</ele><time>2026-03-27T12:35:29.646Z</time></trkpt><trkpt lat="44.57854" lon="9.2700717"><ele>575.3333333333333</ele><time>2026-03-27T12:35:30.647Z</time></trkpt><trkpt lat="44.5783467" lon="9.2701283"><ele>575.0</ele><time>2026-03-27T12:35:31.646Z</time></trkpt><trkpt lat="44.5781683" lon="9.2701817"><ele>575.0</ele><time>2026-03-27T12:35:32.648Z</time></trkpt><trkpt lat="44.5779933" lon="9.2702267"><ele>575.0</ele><time>2026-03-27T12:35:33.646Z</time></trkpt><trkpt lat="44.57782" lon="9.2702533"><ele>575.0</ele><time>2026-03-27T12:35:34.646Z</time></trkpt><trkpt lat="44.577645" lon="9.2702633"><ele>575.0</ele><time>2026-03-27T12:35:35.647Z</time></trkpt><trkpt lat="44.577475" lon="9.2702583"><ele>575.0</ele><time>2026-03-27T12:35:36.646Z</time></trkpt><trkpt lat="44.5773233" lon="9.2702417"><ele>575.0</ele><time>2026-03-27T12:35:37.652Z</time></trkpt><trkpt lat="44.5771817" lon="9.270225"><ele>575.0</ele><time>2026-03-27T12:35:38.646Z</time></trkpt><trkpt lat="44.5770467" lon="9.2702167"><ele>575.0</ele><time>2026-03-27T12:35:39.647Z</time></trkpt><trkpt lat="44.5769133" lon="9.2702167"><ele>575.0</ele><time>2026-03-27T12:35:40.647Z</time></trkpt><trkpt lat="44.5767867" lon="9.27023"><ele>575.0</ele><time>2026-03-27T12:35:41.647Z</time></trkpt><trkpt lat="44.5766633" lon="9.2702533"><ele>575.5</ele><time>2026-03-27T12:35:42.65Z</time></trkpt><trkpt lat="44.5765383" lon="9.2702833"><ele>576.0</ele><time>2026-03-27T12:35:43.646Z</time></trkpt><trkpt lat="44.576415" lon="9.2703167"><ele>576.5</ele><time>2026-03-27T12:35:44.646Z</time></trkpt><trkpt lat="44.5762983" lon="9.2703533"><ele>577.0</ele><time>2026-03-27T12:35:45.647Z</time></trkpt><trkpt lat="44.5761867" lon="9.2703883"><ele>577.4</ele><time>2026-03-27T12:35:46.647Z</time></trkpt><trkpt lat="44.5760783" lon="9.2704267"><ele>577.8000000000001</ele><time>2026-03-27T12:35:47.646Z</time></trkpt><trkpt lat="44.5759817" lon="9.2704567"><ele>578.2</ele><time>2026-03-27T12:35:48.647Z</time></trkpt><trkpt lat="44.5758867" lon="9.2704767"><ele>578.6</ele><time>2026-03-27T12:35:49.647Z</time></trkpt><trkpt lat="44.5757933" lon="9.2705"><ele>579.0</ele><time>2026-03-27T12:35:50.646Z</time></trkpt><trkpt lat="44.5756983" lon="9.270525"><ele>579.0</ele><time>2026-03-27T12:35:51.646Z</time></trkpt><trkpt lat="44.575605" lon="9.270575"><ele>579.0</ele><time>2026-03-27T12:35:52.647Z</time></trkpt><trkpt lat="44.575525" lon="9.2706383"><ele>579.0</ele><time>2026-03-27T12:35:53.649Z</time></trkpt><trkpt lat="44.5754533" lon="9.2707133"><ele>579.0</ele><time>2026-03-27T12:35:54.646Z</time></trkpt><trkpt lat="44.5753783" lon="9.2708067"><ele>579.0</ele><time>2026-03-27T12:35:55.648Z</time></trkpt><trkpt lat="44.5753067" lon="9.2709067"><ele>579.4</ele><time>2026-03-27T12:35:56.646Z</time></trkpt><trkpt lat="44.57524" lon="9.2710117"><ele>579.8</ele><time>2026-03-27T12:35:57.649Z</time></trkpt><trkpt lat="44.5751783" lon="9.2711233"><ele>580.2</ele><time>2026-03-27T12:35:58.647Z</time></trkpt><trkpt lat="44.575115" lon="9.271245"><ele>580.6</ele><time>2026-03-27T12:35:59.647Z</time></trkpt><trkpt lat="44.5750483" lon="9.2713767"><ele>581.0</ele><time>2026-03-27T12:36:00.647Z</time></trkpt><trkpt lat="44.57498" lon="9.2715067"><ele>582.5</ele><time>2026-03-27T12:36:01.646Z</time></trkpt><trkpt lat="44.5749083" lon="9.2716383"><ele>584.0</ele><time>2026-03-27T12:36:02.65Z</time></trkpt><trkpt lat="44.5748333" lon="9.27178"><ele>585.5</ele><time>2026-03-27T12:36:03.646Z</time></trkpt><trkpt lat="44.5747617" lon="9.2719383"><ele>587.0</ele><time>2026-03-27T12:36:04.646Z</time></trkpt><trkpt lat="44.5746983" lon="9.272105"><ele>589.0</ele><time>2026-03-27T12:36:05.647Z</time></trkpt><trkpt lat="44.57464" lon="9.2722867"><ele>591.0</ele><time>2026-03-27T12:36:06.646Z</time></trkpt><trkpt lat="44.5745833" lon="9.272475"><ele>593.0</ele><time>2026-03-27T12:36:07.647Z</time></trkpt><trkpt lat="44.5745217" lon="9.2726617"><ele>595.0</ele><time>2026-03-27T12:36:08.648Z</time></trkpt><trkpt lat="44.5744533" lon="9.27285"><ele>592.3333333333334</ele><time>2026-03-27T12:36:09.648Z</time></trkpt><trkpt lat="44.5743683" lon="9.2730233"><ele>589.6666666666666</ele><time>2026-03-27T12:36:10.647Z</time></trkpt><trkpt lat="44.5742683" lon="9.2731767"><ele>587.0</ele><time>2026-03-27T12:36:11.646Z</time></trkpt><trkpt lat="44.5741517" lon="9.2733183"><ele>587.0</ele><time>2026-03-27T12:36:12.646Z</time></trkpt><trkpt lat="44.5740283" lon="9.273465"><ele>587.0</ele><time>2026-03-27T12:36:13.646Z</time></trkpt><trkpt lat="44.5738933" lon="9.2736267"><ele>587.0</ele><time>2026-03-27T12:36:14.647Z</time></trkpt><trkpt lat="44.5737533" lon="9.2737867"><ele>586.3333333333333</ele><time>2026-03-27T12:36:15.647Z</time></trkpt><trkpt lat="44.5736067" lon="9.2739633"><ele>585.6666666666666</ele><time>2026-03-27T12:36:16.646Z</time></trkpt><trkpt lat="44.5734533" lon="9.2741533"><ele>585.0</ele><time>2026-03-27T12:36:17.646Z</time></trkpt><trkpt lat="44.5733017" lon="9.27435"><ele>585.0</ele><time>2026-03-27T12:36:18.649Z</time></trkpt><trkpt lat="44.5731333" lon="9.2745467"><ele>585.0</ele><time>2026-03-27T12:36:19.646Z</time></trkpt><trkpt lat="44.5729533" lon="9.274725"><ele>585.0</ele><time>2026-03-27T12:36:20.647Z</time></trkpt><trkpt lat="44.57277" lon="9.2748933"><ele>585.6666666666666</ele><time>2026-03-27T12:36:21.646Z</time></trkpt><trkpt lat="44.57258" lon="9.275045"><ele>586.3333333333333</ele><time>2026-03-27T12:36:22.647Z</time></trkpt><trkpt lat="44.5723933" lon="9.27518"><ele>587.0</ele><time>2026-03-27T12:36:23.646Z</time></trkpt><trkpt lat="44.572205" lon="9.275305"><ele>587.6666666666666</ele><time>2026-03-27T12:36:24.646Z</time></trkpt><trkpt lat="44.572015" lon="9.2754217"><ele>588.3333333333334</ele><time>2026-03-27T12:36:25.646Z</time></trkpt><trkpt lat="44.571835" lon="9.2755433"><ele>589.0</ele><time>2026-03-27T12:36:26.648Z</time></trkpt><trkpt lat="44.5716883" lon="9.27569"><ele>589.0</ele><time>2026-03-27T12:36:27.647Z</time></trkpt><trkpt lat="44.5715567" lon="9.2758417"><ele>589.0</ele><time>2026-03-27T12:36:28.647Z</time></trkpt><trkpt lat="44.571435" lon="9.27597"><ele>589.0</ele><time>2026-03-27T12:36:29.646Z</time></trkpt><trkpt lat="44.5713183" lon="9.2760767"><ele>589.0</ele><time>2026-03-27T12:36:30.647Z</time></trkpt><trkpt lat="44.5712017" lon="9.2761483"><ele>589.0</ele><time>2026-03-27T12:36:31.647Z</time></trkpt><trkpt lat="44.5710817" lon="9.276165"><ele>589.0</ele><time>2026-03-27T12:36:32.646Z</time></trkpt><trkpt lat="44.5709633" lon="9.2761367"><ele>589.0</ele><time>2026-03-27T12:36:33.646Z</time></trkpt><trkpt lat="44.5708467" lon="9.27607"><ele>589.0</ele><time>2026-03-27T12:36:34.646Z</time></trkpt><trkpt lat="44.57073" lon="9.275975"><ele>589.0</ele><time>2026-03-27T12:36:35.647Z</time></trkpt><trkpt lat="44.5705983" lon="9.2759"><ele>589.0</ele><time>2026-03-27T12:36:36.647Z</time></trkpt><trkpt lat="44.57046" lon="9.2758483"><ele>589.0</ele><time>2026-03-27T12:36:37.648Z</time></trkpt><trkpt lat="44.57031" lon="9.2758233"><ele>587.75</ele><time>2026-03-27T12:36:38.648Z</time></trkpt><trkpt lat="44.5701683" lon="9.2758117"><ele>586.5</ele><time>2026-03-27T12:36:39.646Z</time></trkpt><trkpt lat="44.5700233" lon="9.2758133"><ele>585.25</ele><time>2026-03-27T12:36:40.646Z</time></trkpt><trkpt lat="44.56988" lon="9.2758383"><ele>584.0</ele><time>2026-03-27T12:36:41.646Z</time></trkpt><trkpt lat="44.5697217" lon="9.275895"><ele>584.0</ele><time>2026-03-27T12:36:42.646Z</time></trkpt><trkpt lat="44.5695717" lon="9.275985"><ele>584.0</ele><time>2026-03-27T12:36:43.646Z</time></trkpt><trkpt lat="44.5694333" lon="9.2761"><ele>584.0</ele><time>2026-03-27T12:36:44.649Z</time></trkpt><trkpt lat="44.5693167" lon="9.27624"><ele>583.3333333333333</ele><time>2026-03-27T12:36:45.646Z</time></trkpt><trkpt lat="44.5692217" lon="9.27641"><ele>582.6666666666666</ele><time>2026-03-27T12:36:46.647Z</time></trkpt><trkpt lat="44.5691533" lon="9.2766083"><ele>582.0</ele><time>2026-03-27T12:36:47.647Z</time></trkpt><trkpt lat="44.5690933" lon="9.27682"><ele>582.0</ele><time>2026-03-27T12:36:48.646Z</time></trkpt><trkpt lat="44.56903" lon="9.2770233"><ele>582.0</ele><time>2026-03-27T12:36:49.648Z</time></trkpt><trkpt lat="44.56895" lon="9.2772017"><ele>582.0</ele><time>2026-03-27T12:36:50.647Z</time></trkpt><trkpt lat="44.5688417" lon="9.277365"><ele>582.0</ele><time>2026-03-27T12:36:51.651Z</time></trkpt><trkpt lat="44.56871" lon="9.2775133"><ele>582.0</ele><time>2026-03-27T12:36:52.648Z</time></trkpt><trkpt lat="44.5685733" lon="9.2776633"><ele>582.0</ele><time>2026-03-27T12:36:53.647Z</time></trkpt><trkpt lat="44.56843" lon="9.27781"><ele>582.0</ele><time>2026-03-27T12:36:54.647Z</time></trkpt><trkpt lat="44.5682933" lon="9.2779583"><ele>582.0</ele><time>2026-03-27T12:36:55.648Z</time></trkpt><trkpt lat="44.5681533" lon="9.2781067"><ele>582.0</ele><time>2026-03-27T12:36:56.646Z</time></trkpt><trkpt lat="44.56802" lon="9.2782567"><ele>583.3333333333334</ele><time>2026-03-27T12:36:57.647Z</time></trkpt><trkpt lat="44.5678783" lon="9.2784117"><ele>584.6666666666667</ele><time>2026-03-27T12:36:58.647Z</time></trkpt><trkpt lat="44.5677317" lon="9.2785617"><ele>586.0</ele><time>2026-03-27T12:36:59.646Z</time></trkpt><trkpt lat="44.5675817" lon="9.2787083"><ele>586.0</ele><time>2026-03-27T12:37:00.65Z</time></trkpt><trkpt lat="44.56743" lon="9.2788467"><ele>586.0</ele><time>2026-03-27T12:37:01.65Z</time></trkpt><trkpt lat="44.5672733" lon="9.2789683"><ele>586.0</ele><time>2026-03-27T12:37:02.647Z</time></trkpt><trkpt lat="44.567115" lon="9.279095"><ele>586.6666666666667</ele><time>2026-03-27T12:37:03.646Z</time></trkpt><trkpt lat="44.566955" lon="9.279215"><ele>587.3333333333334</ele><time>2026-03-27T12:37:04.646Z</time></trkpt><trkpt lat="44.5667983" lon="9.27933"><ele>588.0</ele><time>2026-03-27T12:37:05.648Z</time></trkpt><trkpt lat="44.5666483" lon="9.27944"><ele>588.0</ele><time>2026-03-27T12:37:06.646Z</time></trkpt><trkpt lat="44.566505" lon="9.2795533"><ele>588.0</ele><time>2026-03-27T12:37:07.646Z</time></trkpt><trkpt lat="44.5663633" lon="9.2796717"><ele>588.0</ele><time>2026-03-27T12:37:08.647Z</time></trkpt><trkpt lat="44.566245" lon="9.2798283"><ele>588.3333333333334</ele><time>2026-03-27T12:37:09.648Z</time></trkpt><trkpt lat="44.5661517" lon="9.28002"><ele>588.6666666666667</ele><time>2026-03-27T12:37:10.646Z</time></trkpt><trkpt lat="44.5660733" lon="9.2802267"><ele>589.0</ele><time>2026-03-27T12:37:11.647Z</time></trkpt><trkpt lat="44.56599" lon="9.2804333"><ele>590.25</ele><time>2026-03-27T12:37:12.646Z</time></trkpt><trkpt lat="44.5659167" lon="9.280625"><ele>591.5</ele><time>2026-03-27T12:37:13.647Z</time></trkpt><trkpt lat="44.5658467" lon="9.2807817"><ele>592.75</ele><time>2026-03-27T12:37:14.648Z</time></trkpt><trkpt lat="44.5657817" lon="9.2809017"><ele>594.0</ele><time>2026-03-27T12:37:15.65Z</time></trkpt><trkpt lat="44.5657117" lon="9.280985"><ele>594.0</ele><time>2026-03-27T12:37:16.646Z</time></trkpt><trkpt lat="44.5656467" lon="9.2810483"><ele>594.0</ele><time>2026-03-27T12:37:17.647Z</time></trkpt><trkpt lat="44.5655817" lon="9.2811017"><ele>594.0</ele><time>2026-03-27T12:37:18.648Z</time></trkpt><trkpt lat="44.5655083" lon="9.28113"><ele>594.0</ele><time>2026-03-27T12:37:19.647Z</time></trkpt><trkpt lat="44.5654367" lon="9.281125"><ele>594.0</ele><time>2026-03-27T12:37:20.647Z</time></trkpt><trkpt lat="44.5653483" lon="9.2810467"><ele>594.0</ele><time>2026-03-27T12:37:21.647Z</time></trkpt><trkpt lat="44.5652533" lon="9.280965"><ele>593.4</ele><time>2026-03-27T12:37:22.646Z</time></trkpt><trkpt lat="44.5651583" lon="9.280875"><ele>592.8</ele><time>2026-03-27T12:37:23.648Z</time></trkpt><trkpt lat="44.5650617" lon="9.28079"><ele>592.2</ele><time>2026-03-27T12:37:24.647Z</time></trkpt><trkpt lat="44.564965" lon="9.2807517"><ele>591.6</ele><time>2026-03-27T12:37:25.647Z</time></trkpt><trkpt lat="44.5648633" lon="9.280775"><ele>591.0</ele><time>2026-03-27T12:37:26.651Z</time></trkpt><trkpt lat="44.5647583" lon="9.2808567"><ele>591.0</ele><time>2026-03-27T12:37:27.651Z</time></trkpt><trkpt lat="44.5646533" lon="9.2809733"><ele>591.0</ele><time>2026-03-27T12:37:28.646Z</time></trkpt><trkpt lat="44.5645517" lon="9.2811067"><ele>591.0</ele><time>2026-03-27T12:37:29.647Z</time></trkpt><trkpt lat="44.5644383" lon="9.2812433"><ele>591.0</ele><time>2026-03-27T12:37:30.649Z</time></trkpt><trkpt lat="44.5643117" lon="9.2813833"><ele>590.6666666666666</ele><time>2026-03-27T12:37:31.648Z</time></trkpt><trkpt lat="44.5641767" lon="9.2815267"><ele>590.3333333333333</ele><time>2026-03-27T12:37:32.647Z</time></trkpt><trkpt lat="44.5640367" lon="9.28167"><ele>590.0</ele><time>2026-03-27T12:37:33.647Z</time></trkpt><trkpt lat="44.56389" lon="9.281815"><ele>590.0</ele><time>2026-03-27T12:37:34.647Z</time></trkpt><trkpt lat="44.5637333" lon="9.2819633"><ele>590.0</ele><time>2026-03-27T12:37:35.647Z</time></trkpt><trkpt lat="44.5635783" lon="9.2821083"><ele>590.0</ele><time>2026-03-27T12:37:36.649Z</time></trkpt><trkpt lat="44.5634167" lon="9.2822567"><ele>589.6666666666666</ele><time>2026-03-27T12:37:37.647Z</time></trkpt><trkpt lat="44.5632483" lon="9.282405"><ele>589.3333333333334</ele><time>2026-03-27T12:37:38.647Z</time></trkpt><trkpt lat="44.5630783" lon="9.2825533"><ele>589.0</ele><time>2026-03-27T12:37:39.646Z</time></trkpt><trkpt lat="44.56292" lon="9.2826917"><ele>589.6666666666667</ele><time>2026-03-27T12:37:40.648Z</time></trkpt><trkpt lat="44.5627633" lon="9.2828317"><ele>590.3333333333334</ele><time>2026-03-27T12:37:41.648Z</time></trkpt><trkpt lat="44.56261" lon="9.2829817"><ele>591.0</ele><time>2026-03-27T12:37:42.646Z</time></trkpt><trkpt lat="44.5624483" lon="9.2831283"><ele>591.0</ele><time>2026-03-27T12:37:43.646Z</time></trkpt><trkpt lat="44.5622817" lon="9.2832683"><ele>591.0</ele><time>2026-03-27T12:37:44.646Z</time></trkpt><trkpt lat="44.5621117" lon="9.283395"><ele>591.0</ele><time>2026-03-27T12:37:45.646Z</time></trkpt><trkpt lat="44.56194" lon="9.283515"><ele>599.0</ele><time>2026-03-27T12:37:46.646Z</time></trkpt><trkpt lat="44.5617633" lon="9.2836117"><ele>607.0</ele><time>2026-03-27T12:37:47.646Z</time></trkpt><trkpt lat="44.56157" lon="9.2836767"><ele>615.0</ele><time>2026-03-27T12:37:48.646Z</time></trkpt><trkpt lat="44.5613667" lon="9.2837383"><ele>619.3333333333334</ele><time>2026-03-27T12:37:49.646Z</time></trkpt><trkpt lat="44.56116" lon="9.2837983"><ele>623.6666666666667</ele><time>2026-03-27T12:37:50.647Z</time></trkpt><trkpt lat="44.5609533" lon="9.283845"><ele>628.0</ele><time>2026-03-27T12:37:51.646Z</time></trkpt><trkpt lat="44.5607467" lon="9.283865"><ele>628.0</ele><time>2026-03-27T12:37:52.645Z</time></trkpt><trkpt lat="44.56054" lon="9.2838767"><ele>628.0</ele><time>2026-03-27T12:37:53.646Z</time></trkpt><trkpt lat="44.5603383" lon="9.2838617"><ele>628.0</ele><time>2026-03-27T12:37:54.645Z</time></trkpt><trkpt lat="44.5601433" lon="9.283845"><ele>628.0</ele><time>2026-03-27T12:37:55.647Z</time></trkpt><trkpt lat="44.5599683" lon="9.2838283"><ele>628.0</ele><time>2026-03-27T12:37:56.646Z</time></trkpt><trkpt lat="44.559815" lon="9.2838117"><ele>628.0</ele><time>2026-03-27T12:37:57.647Z</time></trkpt><trkpt lat="44.5596767" lon="9.2838017"><ele>628.0</ele><time>2026-03-27T12:37:58.646Z</time></trkpt><trkpt lat="44.5595517" lon="9.2837667"><ele>628.0</ele><time>2026-03-27T12:37:59.647Z</time></trkpt><trkpt lat="44.5594417" lon="9.2836783"><ele>628.0</ele><time>2026-03-27T12:38:00.646Z</time></trkpt><trkpt lat="44.5593417" lon="9.2835517"><ele>628.0</ele><time>2026-03-27T12:38:01.648Z</time></trkpt><trkpt lat="44.5592617" lon="9.2834133"><ele>624.25</ele><time>2026-03-27T12:38:02.648Z</time></trkpt><trkpt lat="44.559225" lon="9.28326"><ele>620.5</ele><time>2026-03-27T12:38:03.647Z</time></trkpt><trkpt lat="44.55921" lon="9.28309"><ele>616.75</ele><time>2026-03-27T12:38:04.646Z</time></trkpt><trkpt lat="44.5592067" lon="9.2829183"><ele>613.0</ele><time>2026-03-27T12:38:05.648Z</time></trkpt><trkpt lat="44.5591967" lon="9.2827567"><ele>613.0</ele><time>2026-03-27T12:38:06.647Z</time></trkpt><trkpt lat="44.559175" lon="9.2826083"><ele>613.0</ele><time>2026-03-27T12:38:07.647Z</time></trkpt><trkpt lat="44.5591367" lon="9.2824717"><ele>613.0</ele><time>2026-03-27T12:38:08.647Z</time></trkpt><trkpt lat="44.5590883" lon="9.282345"><ele>613.0</ele><time>2026-03-27T12:38:09.646Z</time></trkpt><trkpt lat="44.559025" lon="9.2822283"><ele>613.0</ele><time>2026-03-27T12:38:10.646Z</time></trkpt><trkpt lat="44.5589483" lon="9.2821283"><ele>611.6</ele><time>2026-03-27T12:38:11.646Z</time></trkpt><trkpt lat="44.55886" lon="9.282045"><ele>610.1999999999999</ele><time>2026-03-27T12:38:12.65Z</time></trkpt><trkpt lat="44.55876" lon="9.2819817"><ele>608.8</ele><time>2026-03-27T12:38:13.646Z</time></trkpt><trkpt lat="44.5586533" lon="9.2819433"><ele>607.4</ele><time>2026-03-27T12:38:14.646Z</time></trkpt><trkpt lat="44.5585483" lon="9.2819333"><ele>606.0</ele><time>2026-03-27T12:38:15.647Z</time></trkpt><trkpt lat="44.558445" lon="9.2819517"><ele>606.0</ele><time>2026-03-27T12:38:16.646Z</time></trkpt><trkpt lat="44.5583533" lon="9.2819833"><ele>606.0</ele><time>2026-03-27T12:38:17.646Z</time></trkpt><trkpt lat="44.5582617" lon="9.282025"><ele>606.0</ele><time>2026-03-27T12:38:18.646Z</time></trkpt><trkpt lat="44.5581683" lon="9.2820733"><ele>606.0</ele><time>2026-03-27T12:38:19.646Z</time></trkpt><trkpt lat="44.5580717" lon="9.2821267"><ele>606.0</ele><time>2026-03-27T12:38:20.647Z</time></trkpt><trkpt lat="44.5579733" lon="9.2821867"><ele>606.0</ele><time>2026-03-27T12:38:21.645Z</time></trkpt><trkpt lat="44.55787" lon="9.282245"><ele>606.0</ele><time>2026-03-27T12:38:22.647Z</time></trkpt><trkpt lat="44.55777" lon="9.282305"><ele>606.0</ele><time>2026-03-27T12:38:23.646Z</time></trkpt><trkpt lat="44.5576717" lon="9.28237"><ele>606.0</ele><time>2026-03-27T12:38:24.649Z</time></trkpt><trkpt lat="44.5575667" lon="9.2824383"><ele>606.0</ele><time>2026-03-27T12:38:25.646Z</time></trkpt><trkpt lat="44.5574583" lon="9.2825117"><ele>605.25</ele><time>2026-03-27T12:38:26.647Z</time></trkpt><trkpt lat="44.5573483" lon="9.2825867"><ele>604.5</ele><time>2026-03-27T12:38:27.645Z</time></trkpt><trkpt lat="44.5572333" lon="9.28266"><ele>603.75</ele><time>2026-03-27T12:38:28.647Z</time></trkpt><trkpt lat="44.557115" lon="9.2827333"><ele>603.0</ele><time>2026-03-27T12:38:29.646Z</time></trkpt><trkpt lat="44.5569983" lon="9.2828033"><ele>603.0</ele><time>2026-03-27T12:38:30.646Z</time></trkpt><trkpt lat="44.55689" lon="9.28287"><ele>603.0</ele><time>2026-03-27T12:38:31.648Z</time></trkpt><trkpt lat="44.55678" lon="9.282935"><ele>603.0</ele><time>2026-03-27T12:38:32.649Z</time></trkpt><trkpt lat="44.5566717" lon="9.283005"><ele>603.0</ele><time>2026-03-27T12:38:33.646Z</time></trkpt><trkpt lat="44.5565617" lon="9.2830767"><ele>602.25</ele><time>2026-03-27T12:38:34.647Z</time></trkpt><trkpt lat="44.55645" lon="9.28315"><ele>601.5</ele><time>2026-03-27T12:38:35.648Z</time></trkpt><trkpt lat="44.5563383" lon="9.28322"><ele>600.75</ele><time>2026-03-27T12:38:36.646Z</time></trkpt><trkpt lat="44.5562217" lon="9.28329"><ele>600.0</ele><time>2026-03-27T12:38:37.647Z</time></trkpt><trkpt lat="44.5561117" lon="9.2833517"><ele>601.4</ele><time>2026-03-27T12:38:38.648Z</time></trkpt><trkpt lat="44.5560117" lon="9.2834117"><ele>602.8</ele><time>2026-03-27T12:38:39.646Z</time></trkpt><trkpt lat="44.5559233" lon="9.2834617"><ele>604.2</ele><time>2026-03-27T12:38:40.647Z</time></trkpt><trkpt lat="44.5558417" lon="9.2835"><ele>605.6</ele><time>2026-03-27T12:38:41.646Z</time></trkpt><trkpt lat="44.5557617" lon="9.283525"><ele>607.0</ele><time>2026-03-27T12:38:42.646Z</time></trkpt><trkpt lat="44.55568" lon="9.28353"><ele>607.0</ele><time>2026-03-27T12:38:43.647Z</time></trkpt><trkpt lat="44.5555967" lon="9.283515"><ele>607.0</ele><time>2026-03-27T12:38:44.647Z</time></trkpt><trkpt lat="44.5555133" lon="9.2834767"><ele>607.0</ele><time>2026-03-27T12:38:45.647Z</time></trkpt><trkpt lat="44.5554367" lon="9.2833967"><ele>607.0</ele><time>2026-03-27T12:38:46.647Z</time></trkpt><trkpt lat="44.555365" lon="9.2832817"><ele>607.0</ele><time>2026-03-27T12:38:47.648Z</time></trkpt><trkpt lat="44.5553083" lon="9.2831333"><ele>605.75</ele><time>2026-03-27T12:38:48.646Z</time></trkpt><trkpt lat="44.5552617" lon="9.28296"><ele>604.5</ele><time>2026-03-27T12:38:49.646Z</time></trkpt><trkpt lat="44.555215" lon="9.2827867"><ele>603.25</ele><time>2026-03-27T12:38:50.646Z</time></trkpt><trkpt lat="44.555165" lon="9.2826133"><ele>602.0</ele><time>2026-03-27T12:38:51.648Z</time></trkpt><trkpt lat="44.5551033" lon="9.282445"><ele>602.0</ele><time>2026-03-27T12:38:52.647Z</time></trkpt><trkpt lat="44.5550217" lon="9.282295"><ele>602.0</ele><time>2026-03-27T12:38:53.648Z</time></trkpt><trkpt lat="44.5549283" lon="9.282145"><ele>602.0</ele><time>2026-03-27T12:38:54.646Z</time></trkpt><trkpt lat="44.5548283" lon="9.2819933"><ele>602.0</ele><time>2026-03-27T12:38:55.646Z</time></trkpt><trkpt lat="44.5547183" lon="9.2818483"><ele>603.0</ele><time>2026-03-27T12:38:56.647Z</time></trkpt><trkpt lat="44.5546133" lon="9.2817083"><ele>604.0</ele><time>2026-03-27T12:38:57.646Z</time></trkpt><trkpt lat="44.55451" lon="9.2815817"><ele>605.0</ele><time>2026-03-27T12:38:58.647Z</time></trkpt><trkpt lat="44.5544233" lon="9.2814233"><ele>606.0</ele><time>2026-03-27T12:38:59.649Z</time></trkpt><trkpt lat="44.55434" lon="9.2812583"><ele>612.6666666666666</ele><time>2026-03-27T12:39:00.647Z</time></trkpt><trkpt lat="44.5542317" lon="9.2811183"><ele>619.3333333333333</ele><time>2026-03-27T12:39:01.647Z</time></trkpt><trkpt lat="44.5540983" lon="9.2809883"><ele>626.0</ele><time>2026-03-27T12:39:02.646Z</time></trkpt><trkpt lat="44.5539517" lon="9.28088"><ele>626.0</ele><time>2026-03-27T12:39:03.65Z</time></trkpt><trkpt lat="44.5538117" lon="9.2807783"><ele>626.0</ele><time>2026-03-27T12:39:04.646Z</time></trkpt><trkpt lat="44.553675" lon="9.2806883"><ele>626.0</ele><time>2026-03-27T12:39:05.647Z</time></trkpt><trkpt lat="44.5535367" lon="9.2806067"><ele>624.25</ele><time>2026-03-27T12:39:06.648Z</time></trkpt><trkpt lat="44.5533983" lon="9.2805233"><ele>622.5</ele><time>2026-03-27T12:39:07.646Z</time></trkpt><trkpt lat="44.5532617" lon="9.2804367"><ele>620.75</ele><time>2026-03-27T12:39:08.646Z</time></trkpt><trkpt lat="44.5531267" lon="9.2803533"><ele>619.0</ele><time>2026-03-27T12:39:09.646Z</time></trkpt><trkpt lat="44.5529917" lon="9.2802683"><ele>616.6666666666667</ele><time>2026-03-27T12:39:10.649Z</time></trkpt><trkpt lat="44.552855" lon="9.2801767"><ele>614.3333333333334</ele><time>2026-03-27T12:39:11.646Z</time></trkpt><trkpt lat="44.5527167" lon="9.28008"><ele>612.0</ele><time>2026-03-27T12:39:12.647Z</time></trkpt><trkpt lat="44.5525767" lon="9.27997"><ele>612.0</ele><time>2026-03-27T12:39:13.646Z</time></trkpt><trkpt lat="44.5524367" lon="9.2798567"><ele>612.0</ele><time>2026-03-27T12:39:14.647Z</time></trkpt><trkpt lat="44.5522933" lon="9.279745"><ele>612.0</ele><time>2026-03-27T12:39:15.646Z</time></trkpt><trkpt lat="44.552155" lon="9.279635"><ele>611.0</ele><time>2026-03-27T12:39:16.646Z</time></trkpt><trkpt lat="44.5520217" lon="9.2795317"><ele>610.0</ele><time>2026-03-27T12:39:17.647Z</time></trkpt><trkpt lat="44.5518917" lon="9.27943"><ele>609.0</ele><time>2026-03-27T12:39:18.646Z</time></trkpt><trkpt lat="44.5517617" lon="9.2793233"><ele>609.0</ele><time>2026-03-27T12:39:19.648Z</time></trkpt><trkpt lat="44.5516367" lon="9.2792"><ele>609.0</ele><time>2026-03-27T12:39:20.648Z</time></trkpt><trkpt lat="44.5515283" lon="9.2790517"><ele>609.0</ele><time>2026-03-27T12:39:21.647Z</time></trkpt><trkpt lat="44.5514467" lon="9.278865"><ele>611.0</ele><time>2026-03-27T12:39:22.647Z</time></trkpt><trkpt lat="44.5513983" lon="9.2786467"><ele>613.0</ele><time>2026-03-27T12:39:23.647Z</time></trkpt><trkpt lat="44.55139" lon="9.278415"><ele>615.0</ele><time>2026-03-27T12:39:24.646Z</time></trkpt><trkpt lat="44.5514017" lon="9.2781783"><ele>617.6666666666666</ele><time>2026-03-27T12:39:25.646Z</time></trkpt><trkpt lat="44.55142" lon="9.277935"><ele>620.3333333333333</ele><time>2026-03-27T12:39:26.647Z</time></trkpt><trkpt lat="44.5514417" lon="9.27769"><ele>623.0</ele><time>2026-03-27T12:39:27.647Z</time></trkpt><trkpt lat="44.5514567" lon="9.27744"><ele>622.3333333333333</ele><time>2026-03-27T12:39:28.65Z</time></trkpt><trkpt lat="44.5514783" lon="9.27719"><ele>621.6666666666666</ele><time>2026-03-27T12:39:29.648Z</time></trkpt><trkpt lat="44.5515167" lon="9.2769467"><ele>621.0</ele><time>2026-03-27T12:39:30.646Z</time></trkpt><trkpt lat="44.5515817" lon="9.2767017"><ele>621.0</ele><time>2026-03-27T12:39:31.647Z</time></trkpt><trkpt lat="44.55165" lon="9.2764467"><ele>621.0</ele><time>2026-03-27T12:39:32.647Z</time></trkpt><trkpt lat="44.5517117" lon="9.2761733"><ele>621.0</ele><time>2026-03-27T12:39:33.651Z</time></trkpt><trkpt lat="44.5517717" lon="9.2759067"><ele>619.6666666666666</ele><time>2026-03-27T12:39:34.645Z</time></trkpt><trkpt lat="44.551825" lon="9.27566"><ele>618.3333333333333</ele><time>2026-03-27T12:39:35.646Z</time></trkpt><trkpt lat="44.5518667" lon="9.2754417"><ele>617.0</ele><time>2026-03-27T12:39:36.646Z</time></trkpt><trkpt lat="44.5518833" lon="9.275245"><ele>617.0</ele><time>2026-03-27T12:39:37.646Z</time></trkpt><trkpt lat="44.55186" lon="9.2750733"><ele>617.0</ele><time>2026-03-27T12:39:38.646Z</time></trkpt><trkpt lat="44.551795" lon="9.2749217"><ele>617.0</ele><time>2026-03-27T12:39:39.646Z</time></trkpt><trkpt lat="44.55171" lon="9.27479"><ele>617.0</ele><time>2026-03-27T12:39:40.647Z</time></trkpt><trkpt lat="44.551625" lon="9.274665"><ele>620.5</ele><time>2026-03-27T12:39:41.647Z</time></trkpt><trkpt lat="44.5515467" lon="9.2745417"><ele>624.0</ele><time>2026-03-27T12:39:42.646Z</time></trkpt><trkpt lat="44.5514867" lon="9.274385"><ele>627.5</ele><time>2026-03-27T12:39:43.646Z</time></trkpt><trkpt lat="44.55145" lon="9.2742017"><ele>631.0</ele><time>2026-03-27T12:39:44.646Z</time></trkpt><trkpt lat="44.5514167" lon="9.273995"><ele>625.3333333333334</ele><time>2026-03-27T12:39:45.646Z</time></trkpt><trkpt lat="44.5513633" lon="9.2737917"><ele>619.6666666666666</ele><time>2026-03-27T12:39:46.647Z</time></trkpt><trkpt lat="44.5512917" lon="9.2735917"><ele>614.0</ele><time>2026-03-27T12:39:47.647Z</time></trkpt><trkpt lat="44.5512017" lon="9.2733983"><ele>614.0</ele><time>2026-03-27T12:39:48.647Z</time></trkpt><trkpt lat="44.5511017" lon="9.2732217"><ele>614.0</ele><time>2026-03-27T12:39:49.647Z</time></trkpt><trkpt lat="44.551" lon="9.2730533"><ele>614.0</ele><time>2026-03-27T12:39:50.649Z</time></trkpt><trkpt lat="44.5508967" lon="9.2728867"><ele>621.6666666666666</ele><time>2026-03-27T12:39:51.646Z</time></trkpt><trkpt lat="44.550795" lon="9.2727133"><ele>629.3333333333334</ele><time>2026-03-27T12:39:52.647Z</time></trkpt><trkpt lat="44.5506967" lon="9.2725367"><ele>637.0</ele><time>2026-03-27T12:39:53.646Z</time></trkpt><trkpt lat="44.550595" lon="9.27236"><ele>636.3333333333334</ele><time>2026-03-27T12:39:54.647Z</time></trkpt><trkpt lat="44.55048" lon="9.2721983"><ele>635.6666666666666</ele><time>2026-03-27T12:39:55.65Z</time></trkpt><trkpt lat="44.5503483" lon="9.2720533"><ele>635.0</ele><time>2026-03-27T12:39:56.647Z</time></trkpt><trkpt lat="44.5502033" lon="9.271925"><ele>635.0</ele><time>2026-03-27T12:39:57.647Z</time></trkpt><trkpt lat="44.5500517" lon="9.2718033"><ele>635.0</ele><time>2026-03-27T12:39:58.649Z</time></trkpt><trkpt lat="44.5498917" lon="9.2716917"><ele>635.0</ele><time>2026-03-27T12:39:59.647Z</time></trkpt><trkpt lat="44.5497367" lon="9.2715733"><ele>635.0</ele><time>2026-03-27T12:40:00.647Z</time></trkpt><trkpt lat="44.5495733" lon="9.271465"><ele>635.0</ele><time>2026-03-27T12:40:01.646Z</time></trkpt><trkpt lat="44.5494067" lon="9.27136"><ele>635.0</ele><time>2026-03-27T12:40:02.647Z</time></trkpt><trkpt lat="44.5492383" lon="9.27126"><ele>634.6666666666666</ele><time>2026-03-27T12:40:03.647Z</time></trkpt><trkpt lat="44.549065" lon="9.271175"><ele>634.3333333333334</ele><time>2026-03-27T12:40:04.646Z</time></trkpt><trkpt lat="44.5488917" lon="9.2710983"><ele>634.0</ele><time>2026-03-27T12:40:05.649Z</time></trkpt><trkpt lat="44.5487217" lon="9.2710183"><ele>628.3333333333334</ele><time>2026-03-27T12:40:06.647Z</time></trkpt><trkpt lat="44.5485517" lon="9.27094"><ele>622.6666666666666</ele><time>2026-03-27T12:40:07.646Z</time></trkpt><trkpt lat="44.54838" lon="9.270855"><ele>617.0</ele><time>2026-03-27T12:40:08.647Z</time></trkpt><trkpt lat="44.54821" lon="9.2707633"><ele>617.0</ele><time>2026-03-27T12:40:09.646Z</time></trkpt><trkpt lat="44.5480467" lon="9.2706633"><ele>617.0</ele><time>2026-03-27T12:40:10.646Z</time></trkpt><trkpt lat="44.547895" lon="9.270545"><ele>617.0</ele><time>2026-03-27T12:40:11.646Z</time></trkpt><trkpt lat="44.5477533" lon="9.270395"><ele>616.3333333333333</ele><time>2026-03-27T12:40:12.648Z</time></trkpt><trkpt lat="44.5476267" lon="9.2702183"><ele>615.6666666666666</ele><time>2026-03-27T12:40:13.646Z</time></trkpt><trkpt lat="44.547515" lon="9.2700167"><ele>615.0</ele><time>2026-03-27T12:40:14.647Z</time></trkpt><trkpt lat="44.5474183" lon="9.2697983"><ele>618.6666666666666</ele><time>2026-03-27T12:40:15.646Z</time></trkpt><trkpt lat="44.5473383" lon="9.2695633"><ele>622.3333333333333</ele><time>2026-03-27T12:40:16.646Z</time></trkpt><trkpt lat="44.547275" lon="9.2693267"><ele>626.0</ele><time>2026-03-27T12:40:17.649Z</time></trkpt><trkpt lat="44.5472117" lon="9.269105"><ele>624.0</ele><time>2026-03-27T12:40:18.647Z</time></trkpt><trkpt lat="44.5471433" lon="9.2689033"><ele>622.0</ele><time>2026-03-27T12:40:19.648Z</time></trkpt><trkpt lat="44.5470633" lon="9.268725"><ele>620.0</ele><time>2026-03-27T12:40:20.648Z</time></trkpt><trkpt lat="44.5469667" lon="9.2685667"><ele>620.0</ele><time>2026-03-27T12:40:21.648Z</time></trkpt><trkpt lat="44.54686" lon="9.2684217"><ele>620.0</ele><time>2026-03-27T12:40:22.648Z</time></trkpt><trkpt lat="44.5467433" lon="9.2682867"><ele>620.0</ele><time>2026-03-27T12:40:23.647Z</time></trkpt><trkpt lat="44.54663" lon="9.2681533"><ele>620.0</ele><time>2026-03-27T12:40:24.652Z</time></trkpt><trkpt lat="44.5465233" lon="9.2680217"><ele>621.25</ele><time>2026-03-27T12:40:25.648Z</time></trkpt><trkpt lat="44.54642" lon="9.2678967"><ele>622.5</ele><time>2026-03-27T12:40:26.649Z</time></trkpt><trkpt lat="44.546315" lon="9.2677683"><ele>623.75</ele><time>2026-03-27T12:40:27.647Z</time></trkpt><trkpt lat="44.5462067" lon="9.2676333"><ele>625.0</ele><time>2026-03-27T12:40:28.647Z</time></trkpt><trkpt lat="44.5461" lon="9.26749"><ele>623.75</ele><time>2026-03-27T12:40:29.649Z</time></trkpt><trkpt lat="44.546005" lon="9.2673383"><ele>622.5</ele><time>2026-03-27T12:40:30.648Z</time></trkpt><trkpt lat="44.5459333" lon="9.2671633"><ele>621.25</ele><time>2026-03-27T12:40:31.646Z</time></trkpt><trkpt lat="44.5458817" lon="9.2669733"><ele>620.0</ele><time>2026-03-27T12:40:32.647Z</time></trkpt><trkpt lat="44.5458533" lon="9.26676"><ele>620.0</ele><time>2026-03-27T12:40:33.646Z</time></trkpt><trkpt lat="44.54583" lon="9.2665433"><ele>620.0</ele><time>2026-03-27T12:40:34.649Z</time></trkpt><trkpt lat="44.5458033" lon="9.2663267"><ele>620.0</ele><time>2026-03-27T12:40:35.648Z</time></trkpt><trkpt lat="44.5457683" lon="9.2661133"><ele>622.0</ele><time>2026-03-27T12:40:36.647Z</time></trkpt><trkpt lat="44.5457217" lon="9.2658983"><ele>624.0</ele><time>2026-03-27T12:40:37.648Z</time></trkpt><trkpt lat="44.545665" lon="9.2656833"><ele>626.0</ele><time>2026-03-27T12:40:38.649Z</time></trkpt><trkpt lat="44.5456067" lon="9.265465"><ele>628.6666666666666</ele><time>2026-03-27T12:40:39.646Z</time></trkpt><trkpt lat="44.54555" lon="9.265245"><ele>631.3333333333334</ele><time>2026-03-27T12:40:40.646Z</time></trkpt><trkpt lat="44.5454967" lon="9.26502"><ele>634.0</ele><time>2026-03-27T12:40:41.646Z</time></trkpt><trkpt lat="44.5454383" lon="9.2647817"><ele>629.6666666666667</ele><time>2026-03-27T12:40:42.646Z</time></trkpt><trkpt lat="44.545375" lon="9.2645467"><ele>625.3333333333334</ele><time>2026-03-27T12:40:43.647Z</time></trkpt><trkpt lat="44.5453033" lon="9.26432"><ele>621.0</ele><time>2026-03-27T12:40:44.649Z</time></trkpt><trkpt lat="44.5452333" lon="9.2641"><ele>625.3333333333334</ele><time>2026-03-27T12:40:45.646Z</time></trkpt><trkpt lat="44.5451633" lon="9.2638817"><ele>629.6666666666667</ele><time>2026-03-27T12:40:46.654Z</time></trkpt><trkpt lat="44.54509" lon="9.2636617"><ele>634.0</ele><time>2026-03-27T12:40:47.649Z</time></trkpt><trkpt lat="44.5450167" lon="9.263445"><ele>634.0</ele><time>2026-03-27T12:40:48.648Z</time></trkpt><trkpt lat="44.5449483" lon="9.26324"><ele>634.0</ele><time>2026-03-27T12:40:49.648Z</time></trkpt><trkpt lat="44.5448833" lon="9.2630517"><ele>634.0</ele><time>2026-03-27T12:40:50.65Z</time></trkpt><trkpt lat="44.544825" lon="9.26287"><ele>637.75</ele><time>2026-03-27T12:40:51.648Z</time></trkpt><trkpt lat="44.5447683" lon="9.2626917"><ele>641.5</ele><time>2026-03-27T12:40:52.647Z</time></trkpt><trkpt lat="44.5447133" lon="9.2625183"><ele>645.25</ele><time>2026-03-27T12:40:53.648Z</time></trkpt><trkpt lat="44.544655" lon="9.2623433"><ele>649.0</ele><time>2026-03-27T12:40:54.648Z</time></trkpt><trkpt lat="44.5445967" lon="9.26217"><ele>649.0</ele><time>2026-03-27T12:40:55.65Z</time></trkpt><trkpt lat="44.54455" lon="9.2620133"><ele>649.0</ele><time>2026-03-27T12:40:56.648Z</time></trkpt><trkpt lat="44.544515" lon="9.26188"><ele>649.0</ele><time>2026-03-27T12:40:57.648Z</time></trkpt><trkpt lat="44.5444883" lon="9.2617683"><ele>649.0</ele><time>2026-03-27T12:40:58.646Z</time></trkpt><trkpt lat="44.5444717" lon="9.26167"><ele>649.0</ele><time>2026-03-27T12:40:59.646Z</time></trkpt><trkpt lat="44.544445" lon="9.2615283"><ele>644.8333333333334</ele><time>2026-03-27T12:41:01.646Z</time></trkpt><trkpt lat="44.5443983" lon="9.2614083"><ele>640.6666666666667</ele><time>2026-03-27T12:42:09.647Z</time></trkpt><trkpt lat="44.5443767" lon="9.26132"><ele>636.5</ele><time>2026-03-27T12:42:10.646Z</time></trkpt><trkpt lat="44.5443567" lon="9.2612217"><ele>632.3333333333334</ele><time>2026-03-27T12:42:11.648Z</time></trkpt><trkpt lat="44.5443283" lon="9.2610917"><ele>628.1666666666666</ele><time>2026-03-27T12:42:12.647Z</time></trkpt><trkpt lat="44.5442933" lon="9.2609667"><ele>624.0</ele><time>2026-03-27T12:42:13.646Z</time></trkpt><trkpt lat="44.5442617" lon="9.2608417"><ele>624.0</ele><time>2026-03-27T12:42:14.647Z</time></trkpt><trkpt lat="44.5442217" lon="9.2607067"><ele>624.0</ele><time>2026-03-27T12:42:15.648Z</time></trkpt><trkpt lat="44.5441783" lon="9.2605767"><ele>624.0</ele><time>2026-03-27T12:42:16.646Z</time></trkpt><trkpt lat="44.5441133" lon="9.2604883"><ele>624.0</ele><time>2026-03-27T12:42:17.652Z</time></trkpt><trkpt lat="44.5440433" lon="9.2604267"><ele>624.0</ele><time>2026-03-27T12:42:18.646Z</time></trkpt><trkpt lat="44.5439733" lon="9.2603817"><ele>623.6666666666666</ele><time>2026-03-27T12:42:19.65Z</time></trkpt><trkpt lat="44.543905" lon="9.2603433"><ele>623.3333333333334</ele><time>2026-03-27T12:42:20.648Z</time></trkpt><trkpt lat="44.5438367" lon="9.2603183"><ele>623.0</ele><time>2026-03-27T12:42:21.646Z</time></trkpt><trkpt lat="44.54377" lon="9.26029"><ele>622.6666666666667</ele><time>2026-03-27T12:42:22.647Z</time></trkpt><trkpt lat="44.5436883" lon="9.2602617"><ele>622.3333333333334</ele><time>2026-03-27T12:42:23.646Z</time></trkpt><trkpt lat="44.5435967" lon="9.260225"><ele>622.0</ele><time>2026-03-27T12:42:24.647Z</time></trkpt><trkpt lat="44.5434967" lon="9.2601867"><ele>622.0</ele><time>2026-03-27T12:42:25.647Z</time></trkpt><trkpt lat="44.54339" lon="9.2601483"><ele>622.0</ele><time>2026-03-27T12:42:26.647Z</time></trkpt><trkpt lat="44.54328" lon="9.26011"><ele>622.0</ele><time>2026-03-27T12:42:27.648Z</time></trkpt><trkpt lat="44.5431717" lon="9.2600683"><ele>622.0</ele><time>2026-03-27T12:42:28.647Z</time></trkpt><trkpt lat="44.543065" lon="9.26002"><ele>622.0</ele><time>2026-03-27T12:42:29.647Z</time></trkpt><trkpt lat="44.5429517" lon="9.2599667"><ele>622.5</ele><time>2026-03-27T12:42:30.648Z</time></trkpt><trkpt lat="44.5428367" lon="9.2599067"><ele>623.0</ele><time>2026-03-27T12:42:31.65Z</time></trkpt><trkpt lat="44.5427167" lon="9.2598567"><ele>623.5</ele><time>2026-03-27T12:42:32.647Z</time></trkpt><trkpt lat="44.54259" lon="9.25981"><ele>624.0</ele><time>2026-03-27T12:42:33.646Z</time></trkpt><trkpt lat="44.5424683" lon="9.2597633"><ele>624.0</ele><time>2026-03-27T12:42:34.646Z</time></trkpt><trkpt lat="44.5423467" lon="9.2597283"><ele>624.0</ele><time>2026-03-27T12:42:35.645Z</time></trkpt><trkpt lat="44.542215" lon="9.2597367"><ele>624.0</ele><time>2026-03-27T12:42:36.648Z</time></trkpt><trkpt lat="44.5420817" lon="9.2597883"><ele>624.0</ele><time>2026-03-27T12:42:37.647Z</time></trkpt><trkpt lat="44.5419583" lon="9.2598783"><ele>624.75</ele><time>2026-03-27T12:42:38.646Z</time></trkpt><trkpt lat="44.5418417" lon="9.260005"><ele>625.5</ele><time>2026-03-27T12:42:39.648Z</time></trkpt><trkpt lat="44.5417383" lon="9.26015"><ele>626.25</ele><time>2026-03-27T12:42:40.648Z</time></trkpt><trkpt lat="44.5416467" lon="9.2602883"><ele>627.0</ele><time>2026-03-27T12:42:41.647Z</time></trkpt><trkpt lat="44.5415567" lon="9.2604133"><ele>627.0</ele><time>2026-03-27T12:42:42.646Z</time></trkpt><trkpt lat="44.541455" lon="9.2605317"><ele>627.0</ele><time>2026-03-27T12:42:43.647Z</time></trkpt><trkpt lat="44.541345" lon="9.2606333"><ele>627.0</ele><time>2026-03-27T12:42:44.646Z</time></trkpt><trkpt lat="44.541225" lon="9.2607133"><ele>627.0</ele><time>2026-03-27T12:42:45.646Z</time></trkpt><trkpt lat="44.5410917" lon="9.26078"><ele>628.6666666666666</ele><time>2026-03-27T12:42:46.647Z</time></trkpt><trkpt lat="44.5409417" lon="9.2608417"><ele>630.3333333333333</ele><time>2026-03-27T12:42:47.646Z</time></trkpt><trkpt lat="44.5407717" lon="9.26088"><ele>632.0</ele><time>2026-03-27T12:42:48.646Z</time></trkpt><trkpt lat="44.5405933" lon="9.2608967"><ele>632.0</ele><time>2026-03-27T12:42:49.647Z</time></trkpt><trkpt lat="44.54042" lon="9.2609017"><ele>632.0</ele><time>2026-03-27T12:42:50.646Z</time></trkpt><trkpt lat="44.5402533" lon="9.26091"><ele>632.0</ele><time>2026-03-27T12:42:51.647Z</time></trkpt><trkpt lat="44.5400833" lon="9.2609183"><ele>635.3333333333333</ele><time>2026-03-27T12:42:52.647Z</time></trkpt><trkpt lat="44.5399083" lon="9.260925"><ele>638.6666666666666</ele><time>2026-03-27T12:42:53.647Z</time></trkpt><trkpt lat="44.5397283" lon="9.26093"><ele>642.0</ele><time>2026-03-27T12:42:54.648Z</time></trkpt><trkpt lat="44.5395417" lon="9.2609383"><ele>644.0</ele><time>2026-03-27T12:42:55.646Z</time></trkpt><trkpt lat="44.5393483" lon="9.2609517"><ele>646.0</ele><time>2026-03-27T12:42:56.646Z</time></trkpt><trkpt lat="44.5391483" lon="9.2609567"><ele>648.0</ele><time>2026-03-27T12:42:57.647Z</time></trkpt><trkpt lat="44.5389417" lon="9.26097"><ele>648.0</ele><time>2026-03-27T12:42:58.646Z</time></trkpt><trkpt lat="44.5387367" lon="9.26098"><ele>648.0</ele><time>2026-03-27T12:42:59.646Z</time></trkpt><trkpt lat="44.538535" lon="9.2609867"><ele>648.0</ele><time>2026-03-27T12:43:00.646Z</time></trkpt><trkpt lat="44.53833" lon="9.2609967"><ele>645.0</ele><time>2026-03-27T12:43:01.646Z</time></trkpt><trkpt lat="44.53812" lon="9.26101"><ele>642.0</ele><time>2026-03-27T12:43:02.649Z</time></trkpt><trkpt lat="44.5379167" lon="9.261015"><ele>639.0</ele><time>2026-03-27T12:43:03.646Z</time></trkpt><trkpt lat="44.5377217" lon="9.2610167"><ele>638.0</ele><time>2026-03-27T12:43:04.646Z</time></trkpt><trkpt lat="44.5375317" lon="9.26101"><ele>637.0</ele><time>2026-03-27T12:43:05.646Z</time></trkpt><trkpt lat="44.5373417" lon="9.2610083"><ele>636.0</ele><time>2026-03-27T12:43:06.646Z</time></trkpt><trkpt lat="44.5371483" lon="9.2610167"><ele>637.0</ele><time>2026-03-27T12:43:07.645Z</time></trkpt><trkpt lat="44.5369567" lon="9.2610367"><ele>638.0</ele><time>2026-03-27T12:43:08.648Z</time></trkpt><trkpt lat="44.5367633" lon="9.2610633"><ele>639.0</ele><time>2026-03-27T12:43:09.648Z</time></trkpt><trkpt lat="44.5365667" lon="9.2610933"><ele>639.0</ele><time>2026-03-27T12:43:10.648Z</time></trkpt><trkpt lat="44.5363717" lon="9.2611217"><ele>639.0</ele><time>2026-03-27T12:43:11.647Z</time></trkpt><trkpt lat="44.5361767" lon="9.261155"><ele>639.0</ele><time>2026-03-27T12:43:12.648Z</time></trkpt><trkpt lat="44.535985" lon="9.2611717"><ele>645.6666666666666</ele><time>2026-03-27T12:43:13.647Z</time></trkpt><trkpt lat="44.5358" lon="9.2611683"><ele>652.3333333333333</ele><time>2026-03-27T12:43:14.646Z</time></trkpt><trkpt lat="44.5356267" lon="9.2611717"><ele>659.0</ele><time>2026-03-27T12:43:15.647Z</time></trkpt><trkpt lat="44.5354633" lon="9.2612233"><ele>662.0</ele><time>2026-03-27T12:43:16.646Z</time></trkpt><trkpt lat="44.5353017" lon="9.261315"><ele>665.0</ele><time>2026-03-27T12:43:17.647Z</time></trkpt><trkpt lat="44.5351533" lon="9.2614367"><ele>668.0</ele><time>2026-03-27T12:43:18.647Z</time></trkpt><trkpt lat="44.535025" lon="9.26156"><ele>658.0</ele><time>2026-03-27T12:43:19.647Z</time></trkpt><trkpt lat="44.534895" lon="9.261675"><ele>648.0</ele><time>2026-03-27T12:43:20.646Z</time></trkpt><trkpt lat="44.53476" lon="9.261785"><ele>638.0</ele><time>2026-03-27T12:43:21.647Z</time></trkpt><trkpt lat="44.5346017" lon="9.261875"><ele>638.0</ele><time>2026-03-27T12:43:22.646Z</time></trkpt><trkpt lat="44.5344367" lon="9.261935"><ele>638.0</ele><time>2026-03-27T12:43:23.646Z</time></trkpt><trkpt lat="44.5342717" lon="9.2619767"><ele>638.0</ele><time>2026-03-27T12:43:24.647Z</time></trkpt><trkpt lat="44.53412" lon="9.2619783"><ele>638.0</ele><time>2026-03-27T12:43:25.647Z</time></trkpt><trkpt lat="44.5339983" lon="9.2619267"><ele>638.0</ele><time>2026-03-27T12:43:26.65Z</time></trkpt><trkpt lat="44.5339117" lon="9.2618467"><ele>638.0</ele><time>2026-03-27T12:43:27.647Z</time></trkpt><trkpt lat="44.5338517" lon="9.261725"><ele>638.0</ele><time>2026-03-27T12:43:28.646Z</time></trkpt><trkpt lat="44.5338117" lon="9.261565"><ele>641.25</ele><time>2026-03-27T12:43:29.647Z</time></trkpt><trkpt lat="44.5337833" lon="9.26138"><ele>644.5</ele><time>2026-03-27T12:43:30.649Z</time></trkpt><trkpt lat="44.5337783" lon="9.261175"><ele>647.75</ele><time>2026-03-27T12:43:31.646Z</time></trkpt><trkpt lat="44.5337933" lon="9.2609583"><ele>651.0</ele><time>2026-03-27T12:43:32.648Z</time></trkpt><trkpt lat="44.53381" lon="9.2607317"><ele>653.3333333333334</ele><time>2026-03-27T12:43:33.647Z</time></trkpt><trkpt lat="44.5338117" lon="9.2604983"><ele>655.6666666666667</ele><time>2026-03-27T12:43:34.646Z</time></trkpt><trkpt lat="44.5338083" lon="9.2602583"><ele>658.0</ele><time>2026-03-27T12:43:35.646Z</time></trkpt><trkpt lat="44.53381" lon="9.2600133"><ele>658.3333333333334</ele><time>2026-03-27T12:43:36.646Z</time></trkpt><trkpt lat="44.53382" lon="9.2597733"><ele>658.6666666666666</ele><time>2026-03-27T12:43:37.645Z</time></trkpt><trkpt lat="44.5338333" lon="9.25954"><ele>659.0</ele><time>2026-03-27T12:43:38.646Z</time></trkpt><trkpt lat="44.5338617" lon="9.2593083"><ele>659.0</ele><time>2026-03-27T12:43:39.646Z</time></trkpt><trkpt lat="44.5338767" lon="9.2590733"><ele>659.0</ele><time>2026-03-27T12:43:40.646Z</time></trkpt><trkpt lat="44.5338717" lon="9.2588333"><ele>659.0</ele><time>2026-03-27T12:43:41.647Z</time></trkpt><trkpt lat="44.5338533" lon="9.258595"><ele>659.0</ele><time>2026-03-27T12:43:42.646Z</time></trkpt><trkpt lat="44.53384" lon="9.2583533"><ele>659.0</ele><time>2026-03-27T12:43:43.646Z</time></trkpt><trkpt lat="44.5338367" lon="9.2581017"><ele>659.0</ele><time>2026-03-27T12:43:44.647Z</time></trkpt><trkpt lat="44.53385" lon="9.2578467"><ele>659.0</ele><time>2026-03-27T12:43:45.646Z</time></trkpt><trkpt lat="44.5338783" lon="9.2575833"><ele>659.0</ele><time>2026-03-27T12:43:46.646Z</time></trkpt><trkpt lat="44.53391" lon="9.2573233"><ele>659.0</ele><time>2026-03-27T12:43:47.645Z</time></trkpt><trkpt lat="44.5339383" lon="9.257065"><ele>659.0</ele><time>2026-03-27T12:43:48.647Z</time></trkpt><trkpt lat="44.5339683" lon="9.2568133"><ele>659.0</ele><time>2026-03-27T12:43:49.646Z</time></trkpt><trkpt lat="44.5339917" lon="9.2565717"><ele>659.0</ele><time>2026-03-27T12:43:50.646Z</time></trkpt><trkpt lat="44.534005" lon="9.2563483"><ele>659.0</ele><time>2026-03-27T12:43:51.648Z</time></trkpt><trkpt lat="44.53403" lon="9.256155"><ele>659.0</ele><time>2026-03-27T12:43:52.646Z</time></trkpt><trkpt lat="44.534045" lon="9.2559733"><ele>659.0</ele><time>2026-03-27T12:43:53.647Z</time></trkpt><trkpt lat="44.53403" lon="9.2557867"><ele>659.0</ele><time>2026-03-27T12:43:54.646Z</time></trkpt><trkpt lat="44.5339733" lon="9.2556017"><ele>661.5</ele><time>2026-03-27T12:43:55.646Z</time></trkpt><trkpt lat="44.5338867" lon="9.2554217"><ele>664.0</ele><time>2026-03-27T12:43:56.647Z</time></trkpt><trkpt lat="44.5337933" lon="9.255265"><ele>666.5</ele><time>2026-03-27T12:43:57.645Z</time></trkpt><trkpt lat="44.53371" lon="9.25514"><ele>669.0</ele><time>2026-03-27T12:43:58.647Z</time></trkpt><trkpt lat="44.5336283" lon="9.2550317"><ele>668.3333333333334</ele><time>2026-03-27T12:43:59.649Z</time></trkpt><trkpt lat="44.5335467" lon="9.254935"><ele>667.6666666666666</ele><time>2026-03-27T12:44:00.647Z</time></trkpt><trkpt lat="44.53347" lon="9.2548567"><ele>667.0</ele><time>2026-03-27T12:44:01.646Z</time></trkpt><trkpt lat="44.5334" lon="9.254785"><ele>666.3333333333333</ele><time>2026-03-27T12:44:02.651Z</time></trkpt><trkpt lat="44.5333367" lon="9.2547167"><ele>665.6666666666666</ele><time>2026-03-27T12:44:03.646Z</time></trkpt><trkpt lat="44.533275" lon="9.2546567"><ele>665.0</ele><time>2026-03-27T12:44:04.646Z</time></trkpt><trkpt lat="44.5332183" lon="9.2546"><ele>665.0</ele><time>2026-03-27T12:44:05.646Z</time></trkpt><trkpt lat="44.5331217" lon="9.2545117"><ele>665.0</ele><time>2026-03-27T12:44:07.645Z</time></trkpt><trkpt lat="44.5330517" lon="9.2544367"><ele>665.0</ele><time>2026-03-27T12:44:09.646Z</time></trkpt><trkpt lat="44.5329517" lon="9.2543483"><ele>665.0</ele><time>2026-03-27T12:46:17.648Z</time></trkpt><trkpt lat="44.5328333" lon="9.2542633"><ele>661.0</ele><time>2026-03-27T12:46:19.647Z</time></trkpt><trkpt lat="44.5327383" lon="9.2542183"><ele>657.0</ele><time>2026-03-27T12:46:20.647Z</time></trkpt><trkpt lat="44.5326233" lon="9.2542033"><ele>653.0</ele><time>2026-03-27T12:46:21.647Z</time></trkpt><trkpt lat="44.5325033" lon="9.2541883"><ele>649.0</ele><time>2026-03-27T12:46:22.647Z</time></trkpt><trkpt lat="44.5323817" lon="9.25418"><ele>649.0</ele><time>2026-03-27T12:46:23.646Z</time></trkpt><trkpt lat="44.532265" lon="9.2541783"><ele>649.0</ele><time>2026-03-27T12:46:24.646Z</time></trkpt><trkpt lat="44.5321483" lon="9.2541883"><ele>649.0</ele><time>2026-03-27T12:46:25.646Z</time></trkpt><trkpt lat="44.53202" lon="9.2542183"><ele>649.0</ele><time>2026-03-27T12:46:26.647Z</time></trkpt><trkpt lat="44.53188" lon="9.254265"><ele>653.6666666666667</ele><time>2026-03-27T12:46:27.646Z</time></trkpt><trkpt lat="44.5317417" lon="9.2543467"><ele>658.3333333333334</ele><time>2026-03-27T12:46:28.647Z</time></trkpt><trkpt lat="44.5316017" lon="9.254465"><ele>663.0</ele><time>2026-03-27T12:46:29.648Z</time></trkpt><trkpt lat="44.531475" lon="9.2546083"><ele>663.0</ele><time>2026-03-27T12:46:30.647Z</time></trkpt><trkpt lat="44.5313583" lon="9.2547667"><ele>663.0</ele><time>2026-03-27T12:46:31.647Z</time></trkpt><trkpt lat="44.531235" lon="9.2549467"><ele>663.0</ele><time>2026-03-27T12:46:32.647Z</time></trkpt><trkpt lat="44.5311133" lon="9.2551267"><ele>664.3333333333334</ele><time>2026-03-27T12:46:33.648Z</time></trkpt><trkpt lat="44.5310067" lon="9.2552983"><ele>665.6666666666667</ele><time>2026-03-27T12:46:34.646Z</time></trkpt><trkpt lat="44.5309083" lon="9.2554633"><ele>667.0</ele><time>2026-03-27T12:46:35.646Z</time></trkpt><trkpt lat="44.5308233" lon="9.2556233"><ele>662.5</ele><time>2026-03-27T12:46:36.647Z</time></trkpt><trkpt lat="44.5307417" lon="9.25579"><ele>658.0</ele><time>2026-03-27T12:46:37.646Z</time></trkpt><trkpt lat="44.530665" lon="9.25597"><ele>653.5</ele><time>2026-03-27T12:46:38.648Z</time></trkpt><trkpt lat="44.530595" lon="9.2561517"><ele>649.0</ele><time>2026-03-27T12:46:39.647Z</time></trkpt><trkpt lat="44.53053" lon="9.256325"><ele>647.75</ele><time>2026-03-27T12:46:40.646Z</time></trkpt><trkpt lat="44.5304733" lon="9.2564983"><ele>646.5</ele><time>2026-03-27T12:46:41.648Z</time></trkpt><trkpt lat="44.5304317" lon="9.256675"><ele>645.25</ele><time>2026-03-27T12:46:42.647Z</time></trkpt><trkpt lat="44.5304033" lon="9.2568483"><ele>644.0</ele><time>2026-03-27T12:46:43.648Z</time></trkpt><trkpt lat="44.5303867" lon="9.2570267"><ele>653.0</ele><time>2026-03-27T12:46:44.649Z</time></trkpt><trkpt lat="44.53038" lon="9.25721"><ele>662.0</ele><time>2026-03-27T12:46:45.647Z</time></trkpt><trkpt lat="44.530375" lon="9.2573917"><ele>671.0</ele><time>2026-03-27T12:46:46.648Z</time></trkpt><trkpt lat="44.5303767" lon="9.25757"><ele>680.0</ele><time>2026-03-27T12:46:47.648Z</time></trkpt><trkpt lat="44.53038" lon="9.2577567"><ele>680.0</ele><time>2026-03-27T12:46:48.648Z</time></trkpt><trkpt lat="44.5303817" lon="9.257955"><ele>680.0</ele><time>2026-03-27T12:46:49.648Z</time></trkpt><trkpt lat="44.53039" lon="9.258165"><ele>680.0</ele><time>2026-03-27T12:46:50.648Z</time></trkpt><trkpt lat="44.5303967" lon="9.2583917"><ele>669.0</ele><time>2026-03-27T12:46:51.649Z</time></trkpt><trkpt lat="44.530405" lon="9.25863"><ele>658.0</ele><time>2026-03-27T12:46:52.648Z</time></trkpt><trkpt lat="44.530415" lon="9.2588783"><ele>647.0</ele><time>2026-03-27T12:46:53.647Z</time></trkpt><trkpt lat="44.5304233" lon="9.2591233"><ele>647.0</ele><time>2026-03-27T12:46:54.647Z</time></trkpt><trkpt lat="44.5304267" lon="9.2593583"><ele>647.0</ele><time>2026-03-27T12:46:55.647Z</time></trkpt><trkpt lat="44.530425" lon="9.2595867"><ele>647.0</ele><time>2026-03-27T12:46:56.649Z</time></trkpt><trkpt lat="44.5303967" lon="9.259815"><ele>647.3333333333333</ele><time>2026-03-27T12:46:57.646Z</time></trkpt><trkpt lat="44.5303333" lon="9.2600183"><ele>647.6666666666666</ele><time>2026-03-27T12:46:58.648Z</time></trkpt><trkpt lat="44.5302383" lon="9.2601883"><ele>648.0</ele><time>2026-03-27T12:46:59.647Z</time></trkpt><trkpt lat="44.53011" lon="9.2603217"><ele>648.0</ele><time>2026-03-27T12:47:00.646Z</time></trkpt><trkpt lat="44.5299567" lon="9.2604117"><ele>648.0</ele><time>2026-03-27T12:47:01.648Z</time></trkpt><trkpt lat="44.5297867" lon="9.26045"><ele>648.0</ele><time>2026-03-27T12:47:02.646Z</time></trkpt><trkpt lat="44.5296083" lon="9.2604417"><ele>653.3333333333334</ele><time>2026-03-27T12:47:03.646Z</time></trkpt><trkpt lat="44.5294483" lon="9.2603883"><ele>658.6666666666667</ele><time>2026-03-27T12:47:04.647Z</time></trkpt><trkpt lat="44.5293017" lon="9.260305"><ele>664.0</ele><time>2026-03-27T12:47:05.647Z</time></trkpt><trkpt lat="44.5291583" lon="9.2602117"><ele>664.0</ele><time>2026-03-27T12:47:06.646Z</time></trkpt><trkpt lat="44.5290083" lon="9.2601417"><ele>664.0</ele><time>2026-03-27T12:47:07.646Z</time></trkpt><trkpt lat="44.528855" lon="9.26011"><ele>664.0</ele><time>2026-03-27T12:47:08.647Z</time></trkpt><trkpt lat="44.5287083" lon="9.260085"><ele>660.0</ele><time>2026-03-27T12:47:09.649Z</time></trkpt><trkpt lat="44.528565" lon="9.2600333"><ele>656.0</ele><time>2026-03-27T12:47:10.647Z</time></trkpt><trkpt lat="44.52842" lon="9.25994"><ele>652.0</ele><time>2026-03-27T12:47:11.646Z</time></trkpt><trkpt lat="44.528285" lon="9.259805"><ele>654.0</ele><time>2026-03-27T12:47:12.646Z</time></trkpt><trkpt lat="44.5281533" lon="9.2596533"><ele>656.0</ele><time>2026-03-27T12:47:13.647Z</time></trkpt><trkpt lat="44.5280233" lon="9.2594917"><ele>658.0</ele><time>2026-03-27T12:47:14.648Z</time></trkpt><trkpt lat="44.52789" lon="9.259335"><ele>658.0</ele><time>2026-03-27T12:47:15.649Z</time></trkpt><trkpt lat="44.5277467" lon="9.25919"><ele>658.0</ele><time>2026-03-27T12:47:16.646Z</time></trkpt><trkpt lat="44.5275933" lon="9.2590667"><ele>658.0</ele><time>2026-03-27T12:47:17.648Z</time></trkpt><trkpt lat="44.5274333" lon="9.2589633"><ele>658.0</ele><time>2026-03-27T12:47:18.648Z</time></trkpt><trkpt lat="44.527275" lon="9.25886"><ele>658.0</ele><time>2026-03-27T12:47:19.648Z</time></trkpt><trkpt lat="44.52712" lon="9.2587517"><ele>658.0</ele><time>2026-03-27T12:47:20.65Z</time></trkpt><trkpt lat="44.5269717" lon="9.2586267"><ele>658.0</ele><time>2026-03-27T12:47:21.649Z</time></trkpt><trkpt lat="44.5268367" lon="9.2584817"><ele>658.0</ele><time>2026-03-27T12:47:22.647Z</time></trkpt><trkpt lat="44.5267133" lon="9.25832"><ele>658.0</ele><time>2026-03-27T12:47:23.647Z</time></trkpt><trkpt lat="44.5266033" lon="9.25813"><ele>662.0</ele><time>2026-03-27T12:47:24.646Z</time></trkpt><trkpt lat="44.526515" lon="9.2579133"><ele>666.0</ele><time>2026-03-27T12:47:25.649Z</time></trkpt><trkpt lat="44.5264483" lon="9.2576883"><ele>670.0</ele><time>2026-03-27T12:47:26.646Z</time></trkpt><trkpt lat="44.52641" lon="9.25745"><ele>669.0</ele><time>2026-03-27T12:47:27.646Z</time></trkpt><trkpt lat="44.5263983" lon="9.2571967"><ele>668.0</ele><time>2026-03-27T12:47:28.647Z</time></trkpt><trkpt lat="44.5264117" lon="9.2569433"><ele>667.0</ele><time>2026-03-27T12:47:29.646Z</time></trkpt><trkpt lat="44.5264517" lon="9.25669"><ele>664.6666666666667</ele><time>2026-03-27T12:47:30.647Z</time></trkpt><trkpt lat="44.5265217" lon="9.256445"><ele>662.3333333333334</ele><time>2026-03-27T12:47:31.647Z</time></trkpt><trkpt lat="44.5266117" lon="9.25621"><ele>660.0</ele><time>2026-03-27T12:47:32.651Z</time></trkpt><trkpt lat="44.5267117" lon="9.2559867"><ele>660.0</ele><time>2026-03-27T12:47:33.646Z</time></trkpt><trkpt lat="44.5268117" lon="9.2557733"><ele>660.0</ele><time>2026-03-27T12:47:34.646Z</time></trkpt><trkpt lat="44.5269067" lon="9.25556"><ele>660.0</ele><time>2026-03-27T12:47:35.647Z</time></trkpt><trkpt lat="44.5270067" lon="9.2553467"><ele>659.0</ele><time>2026-03-27T12:47:36.648Z</time></trkpt><trkpt lat="44.527115" lon="9.2551333"><ele>658.0</ele><time>2026-03-27T12:47:37.646Z</time></trkpt><trkpt lat="44.5272317" lon="9.2549183"><ele>657.0</ele><time>2026-03-27T12:47:38.647Z</time></trkpt><trkpt lat="44.5273517" lon="9.2547017"><ele>657.0</ele><time>2026-03-27T12:47:39.646Z</time></trkpt><trkpt lat="44.52747" lon="9.25448"><ele>657.0</ele><time>2026-03-27T12:47:40.646Z</time></trkpt><trkpt lat="44.5275883" lon="9.2542667"><ele>657.0</ele><time>2026-03-27T12:47:41.646Z</time></trkpt><trkpt lat="44.5277067" lon="9.2540483"><ele>656.0</ele><time>2026-03-27T12:47:42.646Z</time></trkpt><trkpt lat="44.5278167" lon="9.2538367"><ele>655.0</ele><time>2026-03-27T12:47:43.646Z</time></trkpt><trkpt lat="44.5279267" lon="9.2536367"><ele>654.0</ele><time>2026-03-27T12:47:44.652Z</time></trkpt><trkpt lat="44.5280367" lon="9.253445"><ele>658.5</ele><time>2026-03-27T12:47:45.646Z</time></trkpt><trkpt lat="44.5281367" lon="9.25327"><ele>663.0</ele><time>2026-03-27T12:47:46.648Z</time></trkpt><trkpt lat="44.5282167" lon="9.253095"><ele>667.5</ele><time>2026-03-27T12:47:47.651Z</time></trkpt><trkpt lat="44.528275" lon="9.2529217"><ele>672.0</ele><time>2026-03-27T12:47:48.649Z</time></trkpt><trkpt lat="44.5283067" lon="9.2527433"><ele>672.0</ele><time>2026-03-27T12:47:49.648Z</time></trkpt><trkpt lat="44.5283217" lon="9.252565"><ele>672.0</ele><time>2026-03-27T12:47:50.648Z</time></trkpt><trkpt lat="44.5283283" lon="9.2523883"><ele>672.0</ele><time>2026-03-27T12:47:51.65Z</time></trkpt><trkpt lat="44.52833" lon="9.252205"><ele>672.0</ele><time>2026-03-27T12:47:52.648Z</time></trkpt><trkpt lat="44.528315" lon="9.2520217"><ele>672.5</ele><time>2026-03-27T12:47:53.648Z</time></trkpt><trkpt lat="44.52828" lon="9.2518517"><ele>673.0</ele><time>2026-03-27T12:47:54.648Z</time></trkpt><trkpt lat="44.5282367" lon="9.2516967"><ele>673.5</ele><time>2026-03-27T12:47:55.646Z</time></trkpt><trkpt lat="44.5281833" lon="9.251555"><ele>674.0</ele><time>2026-03-27T12:47:56.648Z</time></trkpt><trkpt lat="44.52813" lon="9.2514167"><ele>676.2</ele><time>2026-03-27T12:47:57.65Z</time></trkpt><trkpt lat="44.5280567" lon="9.2512967"><ele>678.4000000000001</ele><time>2026-03-27T12:47:58.647Z</time></trkpt><trkpt lat="44.5279717" lon="9.251205"><ele>680.6</ele><time>2026-03-27T12:47:59.646Z</time></trkpt><trkpt lat="44.5278933" lon="9.2511217"><ele>682.8</ele><time>2026-03-27T12:48:00.646Z</time></trkpt><trkpt lat="44.5278117" lon="9.251045"><ele>685.0</ele><time>2026-03-27T12:48:01.648Z</time></trkpt><trkpt lat="44.527735" lon="9.2509817"><ele>679.2</ele><time>2026-03-27T12:48:02.647Z</time></trkpt><trkpt lat="44.5276633" lon="9.2509417"><ele>673.4</ele><time>2026-03-27T12:48:03.646Z</time></trkpt><trkpt lat="44.5276017" lon="9.2509183"><ele>667.5999999999999</ele><time>2026-03-27T12:48:04.646Z</time></trkpt><trkpt lat="44.5274883" lon="9.25095"><ele>661.8</ele><time>2026-03-27T12:48:06.646Z</time></trkpt><trkpt lat="44.5274033" lon="9.2510733"><ele>656.0</ele><time>2026-03-27T12:48:08.647Z</time></trkpt><trkpt lat="44.5273567" lon="9.2511483"><ele>656.0</ele><time>2026-03-27T12:48:09.651Z</time></trkpt><trkpt lat="44.527295" lon="9.251235"><ele>656.0</ele><time>2026-03-27T12:48:10.647Z</time></trkpt><trkpt lat="44.5272317" lon="9.2513233"><ele>656.0</ele><time>2026-03-27T12:48:11.647Z</time></trkpt><trkpt lat="44.5271683" lon="9.2514083"><ele>656.0</ele><time>2026-03-27T12:48:12.647Z</time></trkpt><trkpt lat="44.527105" lon="9.2514933"><ele>656.0</ele><time>2026-03-27T12:48:13.648Z</time></trkpt><trkpt lat="44.5270383" lon="9.25156"><ele>656.0</ele><time>2026-03-27T12:48:14.648Z</time></trkpt><trkpt lat="44.5269733" lon="9.2516083"><ele>655.5999999999999</ele><time>2026-03-27T12:48:15.648Z</time></trkpt><trkpt lat="44.5268733" lon="9.2516"><ele>655.2</ele><time>2026-03-27T12:48:16.647Z</time></trkpt><trkpt lat="44.52677" lon="9.251565"><ele>654.8</ele><time>2026-03-27T12:48:17.647Z</time></trkpt><trkpt lat="44.5266667" lon="9.25151"><ele>654.4000000000001</ele><time>2026-03-27T12:48:18.648Z</time></trkpt><trkpt lat="44.5265633" lon="9.2514417"><ele>654.0</ele><time>2026-03-27T12:48:19.647Z</time></trkpt><trkpt lat="44.5264633" lon="9.2513583"><ele>654.0</ele><time>2026-03-27T12:48:20.647Z</time></trkpt><trkpt lat="44.5263617" lon="9.2512683"><ele>654.0</ele><time>2026-03-27T12:48:21.648Z</time></trkpt><trkpt lat="44.5262583" lon="9.2511767"><ele>654.0</ele><time>2026-03-27T12:48:22.647Z</time></trkpt><trkpt lat="44.5261533" lon="9.25109"><ele>654.0</ele><time>2026-03-27T12:48:23.647Z</time></trkpt><trkpt lat="44.526045" lon="9.2510133"><ele>656.25</ele><time>2026-03-27T12:48:24.646Z</time></trkpt><trkpt lat="44.5259367" lon="9.250925"><ele>658.5</ele><time>2026-03-27T12:48:25.646Z</time></trkpt><trkpt lat="44.52582" lon="9.25083"><ele>660.75</ele><time>2026-03-27T12:48:26.646Z</time></trkpt><trkpt lat="44.5257017" lon="9.250735"><ele>663.0</ele><time>2026-03-27T12:48:27.646Z</time></trkpt><trkpt lat="44.5255767" lon="9.250635"><ele>663.6666666666666</ele><time>2026-03-27T12:48:28.647Z</time></trkpt><trkpt lat="44.5254467" lon="9.2505317"><ele>664.3333333333333</ele><time>2026-03-27T12:48:29.647Z</time></trkpt><trkpt lat="44.5253083" lon="9.2504217"><ele>665.0</ele><time>2026-03-27T12:48:30.649Z</time></trkpt><trkpt lat="44.525175" lon="9.250305"><ele>665.0</ele><time>2026-03-27T12:48:31.647Z</time></trkpt><trkpt lat="44.5250367" lon="9.2501883"><ele>665.0</ele><time>2026-03-27T12:48:32.647Z</time></trkpt><trkpt lat="44.52491" lon="9.25005"><ele>665.0</ele><time>2026-03-27T12:48:33.649Z</time></trkpt><trkpt lat="44.5247967" lon="9.2498867"><ele>661.6666666666666</ele><time>2026-03-27T12:48:34.646Z</time></trkpt><trkpt lat="44.5247033" lon="9.2497"><ele>658.3333333333334</ele><time>2026-03-27T12:48:35.647Z</time></trkpt><trkpt lat="44.524615" lon="9.24951"><ele>655.0</ele><time>2026-03-27T12:48:36.648Z</time></trkpt><trkpt lat="44.5245533" lon="9.2492883"><ele>657.3333333333334</ele><time>2026-03-27T12:48:37.647Z</time></trkpt><trkpt lat="44.5245233" lon="9.24903"><ele>659.6666666666666</ele><time>2026-03-27T12:48:38.648Z</time></trkpt><trkpt lat="44.5244967" lon="9.2487867"><ele>662.0</ele><time>2026-03-27T12:48:39.647Z</time></trkpt><trkpt lat="44.5244633" lon="9.2485383"><ele>662.0</ele><time>2026-03-27T12:48:40.648Z</time></trkpt><trkpt lat="44.52443" lon="9.2483067"><ele>662.0</ele><time>2026-03-27T12:48:41.646Z</time></trkpt><trkpt lat="44.5244" lon="9.248095"><ele>662.0</ele><time>2026-03-27T12:48:42.646Z</time></trkpt><trkpt lat="44.52437" lon="9.2479017"><ele>662.25</ele><time>2026-03-27T12:48:43.646Z</time></trkpt><trkpt lat="44.5243417" lon="9.24772"><ele>662.5</ele><time>2026-03-27T12:48:44.647Z</time></trkpt><trkpt lat="44.524305" lon="9.2475517"><ele>662.75</ele><time>2026-03-27T12:48:45.648Z</time></trkpt><trkpt lat="44.5242483" lon="9.247395"><ele>663.0</ele><time>2026-03-27T12:48:46.647Z</time></trkpt><trkpt lat="44.52417" lon="9.2472533"><ele>663.0</ele><time>2026-03-27T12:48:47.647Z</time></trkpt><trkpt lat="44.5240833" lon="9.2471333"><ele>663.0</ele><time>2026-03-27T12:48:48.647Z</time></trkpt><trkpt lat="44.5240033" lon="9.2470283"><ele>663.0</ele><time>2026-03-27T12:48:49.647Z</time></trkpt><trkpt lat="44.5239383" lon="9.246925"><ele>663.0</ele><time>2026-03-27T12:48:50.648Z</time></trkpt><trkpt lat="44.52389" lon="9.246815"><ele>663.0</ele><time>2026-03-27T12:48:51.649Z</time></trkpt><trkpt lat="44.5238583" lon="9.24668"><ele>663.0</ele><time>2026-03-27T12:48:52.647Z</time></trkpt><trkpt lat="44.5238333" lon="9.2465283"><ele>663.0</ele><time>2026-03-27T12:48:53.648Z</time></trkpt><trkpt lat="44.5238117" lon="9.2463667"><ele>663.0</ele><time>2026-03-27T12:48:54.647Z</time></trkpt><trkpt lat="44.523795" lon="9.2462133"><ele>663.0</ele><time>2026-03-27T12:48:55.646Z</time></trkpt><trkpt lat="44.5237833" lon="9.246065"><ele>663.0</ele><time>2026-03-27T12:48:56.649Z</time></trkpt><trkpt lat="44.523775" lon="9.2459217"><ele>663.75</ele><time>2026-03-27T12:48:57.647Z</time></trkpt><trkpt lat="44.5237783" lon="9.2457633"><ele>664.5</ele><time>2026-03-27T12:48:58.647Z</time></trkpt><trkpt lat="44.52379" lon="9.2455833"><ele>665.25</ele><time>2026-03-27T12:48:59.65Z</time></trkpt><trkpt lat="44.5238117" lon="9.2453883"><ele>666.0</ele><time>2026-03-27T12:49:00.65Z</time></trkpt><trkpt lat="44.5238417" lon="9.2451883"><ele>667.5</ele><time>2026-03-27T12:49:01.649Z</time></trkpt><trkpt lat="44.5238767" lon="9.2449817"><ele>669.0</ele><time>2026-03-27T12:49:02.649Z</time></trkpt><trkpt lat="44.5239033" lon="9.244775"><ele>670.5</ele><time>2026-03-27T12:49:03.647Z</time></trkpt><trkpt lat="44.52392" lon="9.24457"><ele>672.0</ele><time>2026-03-27T12:49:04.648Z</time></trkpt><trkpt lat="44.52393" lon="9.2443767"><ele>673.75</ele><time>2026-03-27T12:49:05.649Z</time></trkpt><trkpt lat="44.5239533" lon="9.244205"><ele>675.5</ele><time>2026-03-27T12:49:06.65Z</time></trkpt><trkpt lat="44.524005" lon="9.24404"><ele>677.25</ele><time>2026-03-27T12:49:07.647Z</time></trkpt><trkpt lat="44.52407" lon="9.2438767"><ele>679.0</ele><time>2026-03-27T12:49:08.647Z</time></trkpt><trkpt lat="44.5241267" lon="9.2437283"><ele>683.75</ele><time>2026-03-27T12:49:09.647Z</time></trkpt><trkpt lat="44.524185" lon="9.2435867"><ele>688.5</ele><time>2026-03-27T12:49:10.647Z</time></trkpt><trkpt lat="44.5242433" lon="9.2434483"><ele>693.25</ele><time>2026-03-27T12:49:11.646Z</time></trkpt><trkpt lat="44.5242983" lon="9.24331"><ele>698.0</ele><time>2026-03-27T12:49:12.647Z</time></trkpt><trkpt lat="44.5243467" lon="9.2431667"><ele>700.5999999999999</ele><time>2026-03-27T12:49:13.646Z</time></trkpt><trkpt lat="44.5243717" lon="9.2430267"><ele>703.1999999999999</ele><time>2026-03-27T12:49:14.648Z</time></trkpt><trkpt lat="44.5243633" lon="9.2428883"><ele>705.8</ele><time>2026-03-27T12:49:15.647Z</time></trkpt><trkpt lat="44.5243417" lon="9.24275"><ele>708.4</ele><time>2026-03-27T12:49:16.648Z</time></trkpt><trkpt lat="44.52433" lon="9.2426083"><ele>711.0</ele><time>2026-03-27T12:49:17.646Z</time></trkpt><trkpt lat="44.5243433" lon="9.242475"><ele>711.0</ele><time>2026-03-27T12:49:18.649Z</time></trkpt><trkpt lat="44.5243767" lon="9.24236"><ele>711.0</ele><time>2026-03-27T12:49:19.647Z</time></trkpt><trkpt lat="44.524425" lon="9.2422567"><ele>711.0</ele><time>2026-03-27T12:49:20.648Z</time></trkpt><trkpt lat="44.5244667" lon="9.2421633"><ele>711.0</ele><time>2026-03-27T12:49:21.647Z</time></trkpt><trkpt lat="44.5244933" lon="9.2420683"><ele>711.0</ele><time>2026-03-27T12:49:22.646Z</time></trkpt><trkpt lat="44.5244983" lon="9.2419633"><ele>711.0</ele><time>2026-03-27T12:49:23.647Z</time></trkpt><trkpt lat="44.5244933" lon="9.2418533"><ele>713.0</ele><time>2026-03-27T12:49:24.646Z</time></trkpt><trkpt lat="44.52447" lon="9.2417267"><ele>715.0</ele><time>2026-03-27T12:49:25.648Z</time></trkpt><trkpt lat="44.524445" lon="9.2415883"><ele>717.0</ele><time>2026-03-27T12:49:26.648Z</time></trkpt><trkpt lat="44.524445" lon="9.24145"><ele>719.0</ele><time>2026-03-27T12:49:27.648Z</time></trkpt><trkpt lat="44.524455" lon="9.2412983"><ele>721.0</ele><time>2026-03-27T12:49:28.647Z</time></trkpt><trkpt lat="44.5244667" lon="9.2411483"><ele>721.75</ele><time>2026-03-27T12:49:29.647Z</time></trkpt><trkpt lat="44.5244633" lon="9.2409933"><ele>722.5</ele><time>2026-03-27T12:49:30.648Z</time></trkpt><trkpt lat="44.52445" lon="9.2408267"><ele>723.25</ele><time>2026-03-27T12:49:31.647Z</time></trkpt><trkpt lat="44.5244283" lon="9.2406517"><ele>724.0</ele><time>2026-03-27T12:49:32.648Z</time></trkpt><trkpt lat="44.5243983" lon="9.240485"><ele>725.25</ele><time>2026-03-27T12:49:33.65Z</time></trkpt><trkpt lat="44.5243617" lon="9.2403017"><ele>726.5</ele><time>2026-03-27T12:49:34.647Z</time></trkpt><trkpt lat="44.5243333" lon="9.2401183"><ele>727.75</ele><time>2026-03-27T12:49:35.647Z</time></trkpt><trkpt lat="44.5243167" lon="9.2399617"><ele>729.0</ele><time>2026-03-27T12:49:36.649Z</time></trkpt><trkpt lat="44.5243167" lon="9.2398217"><ele>730.6</ele><time>2026-03-27T12:49:37.648Z</time></trkpt><trkpt lat="44.52434" lon="9.2397"><ele>732.2</ele><time>2026-03-27T12:49:38.647Z</time></trkpt><trkpt lat="44.5243867" lon="9.2395883"><ele>733.8000000000001</ele><time>2026-03-27T12:49:39.647Z</time></trkpt><trkpt lat="44.5244517" lon="9.2394967"><ele>735.4000000000001</ele><time>2026-03-27T12:49:40.646Z</time></trkpt><trkpt lat="44.5245317" lon="9.23942"><ele>737.0</ele><time>2026-03-27T12:49:41.648Z</time></trkpt><trkpt lat="44.524625" lon="9.2393717"><ele>731.6</ele><time>2026-03-27T12:49:42.647Z</time></trkpt><trkpt lat="44.5247083" lon="9.2393333"><ele>726.2</ele><time>2026-03-27T12:49:43.647Z</time></trkpt><trkpt lat="44.5247817" lon="9.2392833"><ele>720.8</ele><time>2026-03-27T12:49:44.65Z</time></trkpt><trkpt lat="44.5248367" lon="9.23923"><ele>715.4</ele><time>2026-03-27T12:49:45.646Z</time></trkpt><trkpt lat="44.5248267" lon="9.239105"><ele>710.0</ele><time>2026-03-27T12:49:47.646Z</time></trkpt><trkpt lat="44.5246633" lon="9.2390917"><ele>715.4</ele><time>2026-03-27T12:49:49.648Z</time></trkpt><trkpt lat="44.5245533" lon="9.239135"><ele>720.8</ele><time>2026-03-27T12:49:50.647Z</time></trkpt><trkpt lat="44.5244483" lon="9.2391883"><ele>726.2</ele><time>2026-03-27T12:49:51.646Z</time></trkpt><trkpt lat="44.524353" lon="9.2392462"><ele>731.6</ele><time>2026-03-27T12:49:52.646Z</time></trkpt><trkpt lat="44.5242509" lon="9.2393323"><ele>737.0</ele><time>2026-03-27T12:49:53.646Z</time></trkpt><trkpt lat="44.5241517" lon="9.239444"><ele>737.0</ele><time>2026-03-27T12:49:54.646Z</time></trkpt><trkpt lat="44.5240671" lon="9.239565"><ele>737.0</ele><time>2026-03-27T12:49:55.646Z</time></trkpt><trkpt lat="44.5240013" lon="9.2397084"><ele>737.0</ele><time>2026-03-27T12:49:56.646Z</time></trkpt><trkpt lat="44.5239502" lon="9.2398702"><ele>737.0</ele><time>2026-03-27T12:49:57.647Z</time></trkpt><trkpt lat="44.523901" lon="9.2400347"><ele>735.0</ele><time>2026-03-27T12:49:58.646Z</time></trkpt><trkpt lat="44.523853" lon="9.2402013"><ele>733.0</ele><time>2026-03-27T12:49:59.649Z</time></trkpt><trkpt lat="44.5238095" lon="9.2403608"><ele>731.0</ele><time>2026-03-27T12:50:00.647Z</time></trkpt><trkpt lat="44.5237752" lon="9.2405136"><ele>729.0</ele><time>2026-03-27T12:50:01.646Z</time></trkpt><trkpt lat="44.5237228" lon="9.2406745"><ele>738.0</ele><time>2026-03-27T12:50:02.65Z</time></trkpt><trkpt lat="44.5236606" lon="9.2408429"><ele>747.0</ele><time>2026-03-27T12:50:03.647Z</time></trkpt><trkpt lat="44.5235979" lon="9.2410245"><ele>756.0</ele><time>2026-03-27T12:50:04.651Z</time></trkpt><trkpt lat="44.5235438" lon="9.2412125"><ele>765.0</ele><time>2026-03-27T12:50:05.646Z</time></trkpt><trkpt lat="44.5235118" lon="9.2414055"><ele>764.75</ele><time>2026-03-27T12:50:06.646Z</time></trkpt><trkpt lat="44.5235026" lon="9.2415933"><ele>764.5</ele><time>2026-03-27T12:50:07.646Z</time></trkpt><trkpt lat="44.5234967" lon="9.24178"><ele>764.25</ele><time>2026-03-27T12:50:08.648Z</time></trkpt><trkpt lat="44.5234683" lon="9.2419667"><ele>764.0</ele><time>2026-03-27T12:50:09.647Z</time></trkpt><trkpt lat="44.5234183" lon="9.2421567"><ele>763.5</ele><time>2026-03-27T12:50:10.647Z</time></trkpt><trkpt lat="44.5233517" lon="9.242345"><ele>763.0</ele><time>2026-03-27T12:50:11.646Z</time></trkpt><trkpt lat="44.5232933" lon="9.24253"><ele>762.5</ele><time>2026-03-27T12:50:12.647Z</time></trkpt><trkpt lat="44.5232283" lon="9.2427183"><ele>762.0</ele><time>2026-03-27T12:50:13.646Z</time></trkpt><trkpt lat="44.5231733" lon="9.2428933"><ele>762.0</ele><time>2026-03-27T12:50:14.648Z</time></trkpt><trkpt lat="44.5231117" lon="9.2430683"><ele>762.0</ele><time>2026-03-27T12:50:15.647Z</time></trkpt><trkpt lat="44.523045" lon="9.24324"><ele>762.0</ele><time>2026-03-27T12:50:16.646Z</time></trkpt><trkpt lat="44.5229717" lon="9.2433933"><ele>762.0</ele><time>2026-03-27T12:50:17.646Z</time></trkpt><trkpt lat="44.5228833" lon="9.2435283"><ele>761.8</ele><time>2026-03-27T12:50:18.647Z</time></trkpt><trkpt lat="44.5228067" lon="9.243645"><ele>761.6</ele><time>2026-03-27T12:50:19.647Z</time></trkpt><trkpt lat="44.5227433" lon="9.24376"><ele>761.4</ele><time>2026-03-27T12:50:20.648Z</time></trkpt><trkpt lat="44.5226683" lon="9.2438883"><ele>761.1999999999999</ele><time>2026-03-27T12:50:21.646Z</time></trkpt><trkpt lat="44.5226033" lon="9.2440067"><ele>761.0</ele><time>2026-03-27T12:50:22.646Z</time></trkpt><trkpt lat="44.5225483" lon="9.2440967"><ele>761.0</ele><time>2026-03-27T12:50:23.646Z</time></trkpt><trkpt lat="44.52249" lon="9.2441583"><ele>761.0</ele><time>2026-03-27T12:50:24.646Z</time></trkpt><trkpt lat="44.5224167" lon="9.24418"><ele>761.0</ele><time>2026-03-27T12:50:25.646Z</time></trkpt><trkpt lat="44.5223433" lon="9.2441583"><ele>761.0</ele><time>2026-03-27T12:50:26.647Z</time></trkpt><trkpt lat="44.5222783" lon="9.2440867"><ele>761.0</ele><time>2026-03-27T12:50:27.647Z</time></trkpt><trkpt lat="44.52222" lon="9.2439933"><ele>761.0</ele><time>2026-03-27T12:50:28.647Z</time></trkpt><trkpt lat="44.5221767" lon="9.2438683"><ele>765.0</ele><time>2026-03-27T12:50:29.647Z</time></trkpt><trkpt lat="44.5221233" lon="9.2437433"><ele>769.0</ele><time>2026-03-27T12:50:30.646Z</time></trkpt><trkpt lat="44.5220717" lon="9.243605"><ele>773.0</ele><time>2026-03-27T12:50:31.647Z</time></trkpt><trkpt lat="44.5220067" lon="9.2434833"><ele>777.0</ele><time>2026-03-27T12:50:32.648Z</time></trkpt><trkpt lat="44.521935" lon="9.243395"><ele>781.0</ele><time>2026-03-27T12:50:33.646Z</time></trkpt><trkpt lat="44.5218467" lon="9.24333"><ele>781.0</ele><time>2026-03-27T12:50:34.647Z</time></trkpt><trkpt lat="44.5217583" lon="9.2432733"><ele>781.0</ele><time>2026-03-27T12:50:35.647Z</time></trkpt><trkpt lat="44.52167" lon="9.243255"><ele>781.0</ele><time>2026-03-27T12:50:36.647Z</time></trkpt><trkpt lat="44.5215917" lon="9.243215"><ele>781.0</ele><time>2026-03-27T12:50:37.646Z</time></trkpt><trkpt lat="44.5215183" lon="9.24315"><ele>781.0</ele><time>2026-03-27T12:50:38.646Z</time></trkpt><trkpt lat="44.52145" lon="9.243055"><ele>784.6666666666666</ele><time>2026-03-27T12:50:39.648Z</time></trkpt><trkpt lat="44.5213933" lon="9.2429583"><ele>788.3333333333333</ele><time>2026-03-27T12:50:40.646Z</time></trkpt><trkpt lat="44.521345" lon="9.24287"><ele>792.0</ele><time>2026-03-27T12:50:41.646Z</time></trkpt><trkpt lat="44.521285" lon="9.2428133"><ele>795.6666666666667</ele><time>2026-03-27T12:50:42.65Z</time></trkpt><trkpt lat="44.5212167" lon="9.242765"><ele>799.3333333333334</ele><time>2026-03-27T12:50:43.646Z</time></trkpt><trkpt lat="44.5211367" lon="9.2427483"><ele>803.0</ele><time>2026-03-27T12:50:44.646Z</time></trkpt><trkpt lat="44.521045" lon="9.242755"><ele>803.0</ele><time>2026-03-27T12:50:45.647Z</time></trkpt><trkpt lat="44.5209583" lon="9.24277"><ele>803.0</ele><time>2026-03-27T12:50:46.646Z</time></trkpt><trkpt lat="44.5208667" lon="9.2427733"><ele>803.0</ele><time>2026-03-27T12:50:47.646Z</time></trkpt><trkpt lat="44.5207617" lon="9.2427383"><ele>803.0</ele><time>2026-03-27T12:50:48.647Z</time></trkpt><trkpt lat="44.5206583" lon="9.24267"><ele>803.0</ele><time>2026-03-27T12:50:49.646Z</time></trkpt><trkpt lat="44.5205367" lon="9.2426233"><ele>803.0</ele><time>2026-03-27T12:50:50.647Z</time></trkpt><trkpt lat="44.5204133" lon="9.2426067"><ele>803.0</ele><time>2026-03-27T12:50:51.646Z</time></trkpt><trkpt lat="44.5203017" lon="9.2425983"><ele>803.0</ele><time>2026-03-27T12:50:52.648Z</time></trkpt><trkpt lat="44.5202033" lon="9.2425717"><ele>803.0</ele><time>2026-03-27T12:50:53.648Z</time></trkpt><trkpt lat="44.520115" lon="9.2425233"><ele>803.0</ele><time>2026-03-27T12:50:54.652Z</time></trkpt><trkpt lat="44.5200317" lon="9.2424617"><ele>800.4</ele><time>2026-03-27T12:50:55.648Z</time></trkpt><trkpt lat="44.5199517" lon="9.2423683"><ele>797.8</ele><time>2026-03-27T12:50:56.651Z</time></trkpt><trkpt lat="44.5198733" lon="9.2422433"><ele>795.2</ele><time>2026-03-27T12:50:57.647Z</time></trkpt><trkpt lat="44.5198017" lon="9.2421267"><ele>792.6</ele><time>2026-03-27T12:50:58.646Z</time></trkpt><trkpt lat="44.5197283" lon="9.2420367"><ele>790.0</ele><time>2026-03-27T12:50:59.646Z</time></trkpt><trkpt lat="44.519665" lon="9.2419633"><ele>792.8333333333333</ele><time>2026-03-27T12:51:00.647Z</time></trkpt><trkpt lat="44.5196067" lon="9.2419033"><ele>795.6666666666666</ele><time>2026-03-27T12:51:01.653Z</time></trkpt><trkpt lat="44.5195517" lon="9.2417717"><ele>798.5</ele><time>2026-03-27T12:51:03.647Z</time></trkpt><trkpt lat="44.5196417" lon="9.24175"><ele>801.3333333333333</ele><time>2026-03-27T12:51:06.651Z</time></trkpt><trkpt lat="44.5197117" lon="9.24183"><ele>804.1666666666666</ele><time>2026-03-27T12:51:07.646Z</time></trkpt><trkpt lat="44.51977" lon="9.2418983"><ele>807.0</ele><time>2026-03-27T12:51:08.647Z</time></trkpt><trkpt lat="44.51983" lon="9.2419683"><ele>803.6</ele><time>2026-03-27T12:51:09.647Z</time></trkpt><trkpt lat="44.5199" lon="9.2420517"><ele>800.2</ele><time>2026-03-27T12:51:10.647Z</time></trkpt><trkpt lat="44.5199717" lon="9.2421367"><ele>796.8</ele><time>2026-03-27T12:51:11.646Z</time></trkpt><trkpt lat="44.5200467" lon="9.2422133"><ele>793.4</ele><time>2026-03-27T12:51:12.646Z</time></trkpt><trkpt lat="44.5201233" lon="9.2422717"><ele>790.0</ele><time>2026-03-27T12:51:13.649Z</time></trkpt><trkpt lat="44.5202167" lon="9.2423133"><ele>790.0</ele><time>2026-03-27T12:51:14.646Z</time></trkpt><trkpt lat="44.5203267" lon="9.2423117"><ele>790.0</ele><time>2026-03-27T12:51:15.65Z</time></trkpt><trkpt lat="44.5204383" lon="9.2422667"><ele>790.0</ele><time>2026-03-27T12:51:16.645Z</time></trkpt><trkpt lat="44.520545" lon="9.24224"><ele>790.0</ele><time>2026-03-27T12:51:17.646Z</time></trkpt><trkpt lat="44.5206383" lon="9.2422467"><ele>790.0</ele><time>2026-03-27T12:51:18.65Z</time></trkpt><trkpt lat="44.5207267" lon="9.24227"><ele>800.4</ele><time>2026-03-27T12:51:19.647Z</time></trkpt><trkpt lat="44.52082" lon="9.242285"><ele>810.8</ele><time>2026-03-27T12:51:20.647Z</time></trkpt><trkpt lat="44.5209183" lon="9.2422783"><ele>821.2</ele><time>2026-03-27T12:51:21.647Z</time></trkpt><trkpt lat="44.521015" lon="9.242245"><ele>831.6</ele><time>2026-03-27T12:51:22.648Z</time></trkpt><trkpt lat="44.5211033" lon="9.242205"><ele>842.0</ele><time>2026-03-27T12:51:23.647Z</time></trkpt><trkpt lat="44.5211833" lon="9.24217"><ele>841.8333333333334</ele><time>2026-03-27T12:51:24.647Z</time></trkpt><trkpt lat="44.52126" lon="9.2421467"><ele>841.6666666666667</ele><time>2026-03-27T12:51:25.647Z</time></trkpt><trkpt lat="44.5213333" lon="9.2421317"><ele>841.5</ele><time>2026-03-27T12:51:26.648Z</time></trkpt><trkpt lat="44.52141" lon="9.2421183"><ele>841.3333333333333</ele><time>2026-03-27T12:51:27.647Z</time></trkpt><trkpt lat="44.5214883" lon="9.2421317"><ele>841.1666666666666</ele><time>2026-03-27T12:51:28.646Z</time></trkpt><trkpt lat="44.521565" lon="9.242175"><ele>841.0</ele><time>2026-03-27T12:51:29.647Z</time></trkpt><trkpt lat="44.521645" lon="9.2422533"><ele>836.0</ele><time>2026-03-27T12:51:30.647Z</time></trkpt><trkpt lat="44.52174" lon="9.24234"><ele>831.0</ele><time>2026-03-27T12:51:31.649Z</time></trkpt><trkpt lat="44.52185" lon="9.2424083"><ele>826.0</ele><time>2026-03-27T12:51:32.646Z</time></trkpt><trkpt lat="44.5219583" lon="9.2424483"><ele>821.0</ele><time>2026-03-27T12:51:33.647Z</time></trkpt><trkpt lat="44.52204" lon="9.242435"><ele>816.0</ele><time>2026-03-27T12:51:34.647Z</time></trkpt><trkpt lat="44.522105" lon="9.2424083"><ele>816.0</ele><time>2026-03-27T12:51:35.648Z</time></trkpt><trkpt lat="44.522095" lon="9.2423033"><ele>816.0</ele><time>2026-03-27T12:51:38.647Z</time></trkpt><trkpt lat="44.5219517" lon="9.2423117"><ele>816.0</ele><time>2026-03-27T12:51:40.646Z</time></trkpt><trkpt lat="44.5218683" lon="9.2422967"><ele>816.0</ele><time>2026-03-27T12:51:41.646Z</time></trkpt><trkpt lat="44.5217883" lon="9.242255"><ele>816.0</ele><time>2026-03-27T12:51:42.646Z</time></trkpt><trkpt lat="44.521715" lon="9.2421733"><ele>821.0</ele><time>2026-03-27T12:51:43.646Z</time></trkpt><trkpt lat="44.5216433" lon="9.2420917"><ele>826.0</ele><time>2026-03-27T12:51:44.65Z</time></trkpt><trkpt lat="44.521565" lon="9.241985"><ele>831.0</ele><time>2026-03-27T12:51:45.647Z</time></trkpt><trkpt lat="44.521475" lon="9.241885"><ele>836.0</ele><time>2026-03-27T12:51:46.646Z</time></trkpt><trkpt lat="44.5213783" lon="9.241815"><ele>841.0</ele><time>2026-03-27T12:51:47.647Z</time></trkpt><trkpt lat="44.52127" lon="9.2417667"><ele>841.25</ele><time>2026-03-27T12:51:48.649Z</time></trkpt><trkpt lat="44.5211467" lon="9.2417383"><ele>841.5</ele><time>2026-03-27T12:51:49.647Z</time></trkpt><trkpt lat="44.5210217" lon="9.2417133"><ele>841.75</ele><time>2026-03-27T12:51:50.647Z</time></trkpt><trkpt lat="44.520905" lon="9.2416633"><ele>842.0</ele><time>2026-03-27T12:51:51.65Z</time></trkpt><trkpt lat="44.520785" lon="9.2415917"><ele>842.0</ele><time>2026-03-27T12:51:52.647Z</time></trkpt><trkpt lat="44.5206617" lon="9.2415283"><ele>842.0</ele><time>2026-03-27T12:51:53.648Z</time></trkpt><trkpt lat="44.520535" lon="9.2414633"><ele>842.0</ele><time>2026-03-27T12:51:54.647Z</time></trkpt><trkpt lat="44.520415" lon="9.2414117"><ele>842.0</ele><time>2026-03-27T12:51:55.647Z</time></trkpt><trkpt lat="44.520315" lon="9.2413417"><ele>845.5</ele><time>2026-03-27T12:51:56.648Z</time></trkpt><trkpt lat="44.520225" lon="9.241245"><ele>849.0</ele><time>2026-03-27T12:51:57.647Z</time></trkpt><trkpt lat="44.5201417" lon="9.2411233"><ele>852.5</ele><time>2026-03-27T12:51:58.647Z</time></trkpt><trkpt lat="44.5200517" lon="9.24099"><ele>856.0</ele><time>2026-03-27T12:51:59.646Z</time></trkpt><trkpt lat="44.5199617" lon="9.2408533"><ele>856.0</ele><time>2026-03-27T12:52:00.646Z</time></trkpt><trkpt lat="44.5198817" lon="9.2407183"><ele>856.0</ele><time>2026-03-27T12:52:01.647Z</time></trkpt><trkpt lat="44.519795" lon="9.2406067"><ele>856.0</ele><time>2026-03-27T12:52:02.647Z</time></trkpt><trkpt lat="44.5197017" lon="9.2405167"><ele>856.0</ele><time>2026-03-27T12:52:03.647Z</time></trkpt><trkpt lat="44.5196" lon="9.2404533"><ele>859.0</ele><time>2026-03-27T12:52:04.646Z</time></trkpt><trkpt lat="44.5194867" lon="9.2404017"><ele>862.0</ele><time>2026-03-27T12:52:05.646Z</time></trkpt><trkpt lat="44.519375" lon="9.2403433"><ele>865.0</ele><time>2026-03-27T12:52:06.646Z</time></trkpt><trkpt lat="44.5192617" lon="9.2402817"><ele>868.0</ele><time>2026-03-27T12:52:07.648Z</time></trkpt><trkpt lat="44.519145" lon="9.2402167"><ele>868.0</ele><time>2026-03-27T12:52:08.648Z</time></trkpt><trkpt lat="44.5190317" lon="9.2401367"><ele>868.0</ele><time>2026-03-27T12:52:09.647Z</time></trkpt><trkpt lat="44.51892" lon="9.24006"><ele>868.0</ele><time>2026-03-27T12:52:10.649Z</time></trkpt><trkpt lat="44.5188167" lon="9.2399867"><ele>868.0</ele><time>2026-03-27T12:52:11.647Z</time></trkpt><trkpt lat="44.518725" lon="9.23992"><ele>869.2</ele><time>2026-03-27T12:52:12.647Z</time></trkpt><trkpt lat="44.518635" lon="9.2398767"><ele>870.4</ele><time>2026-03-27T12:52:13.648Z</time></trkpt><trkpt lat="44.5185533" lon="9.239855"><ele>871.6000000000001</ele><time>2026-03-27T12:52:14.647Z</time></trkpt><trkpt lat="44.518465" lon="9.239895"><ele>872.8000000000001</ele><time>2026-03-27T12:52:15.651Z</time></trkpt><trkpt lat="44.51838" lon="9.2399717"><ele>874.0</ele><time>2026-03-27T12:52:16.649Z</time></trkpt><trkpt lat="44.5182983" lon="9.2400767"><ele>874.0</ele><time>2026-03-27T12:52:17.646Z</time></trkpt><trkpt lat="44.5182183" lon="9.2401833"><ele>874.0</ele><time>2026-03-27T12:52:18.648Z</time></trkpt><trkpt lat="44.5181317" lon="9.2402933"><ele>874.0</ele><time>2026-03-27T12:52:19.646Z</time></trkpt><trkpt lat="44.5180483" lon="9.240405"><ele>874.0</ele><time>2026-03-27T12:52:20.648Z</time></trkpt><trkpt lat="44.5179667" lon="9.2405067"><ele>874.6666666666666</ele><time>2026-03-27T12:52:21.646Z</time></trkpt><trkpt lat="44.5178917" lon="9.2405883"><ele>875.3333333333333</ele><time>2026-03-27T12:52:22.648Z</time></trkpt><trkpt lat="44.5178317" lon="9.2406333"><ele>876.0</ele><time>2026-03-27T12:52:23.646Z</time></trkpt><trkpt lat="44.5177267" lon="9.2406267"><ele>876.6666666666667</ele><time>2026-03-27T12:52:25.647Z</time></trkpt><trkpt lat="44.5176833" lon="9.2405383"><ele>877.3333333333334</ele><time>2026-03-27T12:52:26.649Z</time></trkpt><trkpt lat="44.517635" lon="9.2404083"><ele>878.0</ele><time>2026-03-27T12:52:27.648Z</time></trkpt><trkpt lat="44.5175817" lon="9.240285"><ele>878.0</ele><time>2026-03-27T12:52:28.648Z</time></trkpt><trkpt lat="44.5175367" lon="9.2401617"><ele>878.0</ele><time>2026-03-27T12:52:29.647Z</time></trkpt><trkpt lat="44.517495" lon="9.2400383"><ele>878.0</ele><time>2026-03-27T12:52:30.647Z</time></trkpt><trkpt lat="44.5174467" lon="9.2399317"><ele>878.0</ele><time>2026-03-27T12:52:31.647Z</time></trkpt><trkpt lat="44.5173817" lon="9.23983"><ele>878.0</ele><time>2026-03-27T12:52:32.647Z</time></trkpt><trkpt lat="44.5172867" lon="9.239735"><ele>882.0</ele><time>2026-03-27T12:52:33.649Z</time></trkpt><trkpt lat="44.51718" lon="9.239625"><ele>886.0</ele><time>2026-03-27T12:52:34.647Z</time></trkpt><trkpt lat="44.5170667" lon="9.2395033"><ele>890.0</ele><time>2026-03-27T12:52:35.648Z</time></trkpt><trkpt lat="44.51695" lon="9.2393867"><ele>894.0</ele><time>2026-03-27T12:52:36.648Z</time></trkpt><trkpt lat="44.5168233" lon="9.23929"><ele>894.0</ele><time>2026-03-27T12:52:37.646Z</time></trkpt><trkpt lat="44.516685" lon="9.2392533"><ele>894.0</ele><time>2026-03-27T12:52:38.648Z</time></trkpt><trkpt lat="44.5165483" lon="9.239225"><ele>894.0</ele><time>2026-03-27T12:52:39.647Z</time></trkpt><trkpt lat="44.516415" lon="9.2391733"><ele>894.0</ele><time>2026-03-27T12:52:40.647Z</time></trkpt><trkpt lat="44.51628" lon="9.239105"><ele>892.5</ele><time>2026-03-27T12:52:41.646Z</time></trkpt><trkpt lat="44.5161583" lon="9.2390517"><ele>891.0</ele><time>2026-03-27T12:52:42.646Z</time></trkpt><trkpt lat="44.5160467" lon="9.2390033"><ele>889.5</ele><time>2026-03-27T12:52:43.647Z</time></trkpt><trkpt lat="44.51593" lon="9.23895"><ele>888.0</ele><time>2026-03-27T12:52:44.648Z</time></trkpt><trkpt lat="44.5158117" lon="9.23886"><ele>891.25</ele><time>2026-03-27T12:52:45.647Z</time></trkpt><trkpt lat="44.5156967" lon="9.2387683"><ele>894.5</ele><time>2026-03-27T12:52:46.649Z</time></trkpt><trkpt lat="44.5155867" lon="9.2386633"><ele>897.75</ele><time>2026-03-27T12:52:47.648Z</time></trkpt><trkpt lat="44.515495" lon="9.238565"><ele>901.0</ele><time>2026-03-27T12:52:48.647Z</time></trkpt><trkpt lat="44.5154267" lon="9.2384633"><ele>901.8333333333333</ele><time>2026-03-27T12:52:49.649Z</time></trkpt><trkpt lat="44.51538" lon="9.238355"><ele>902.6666666666666</ele><time>2026-03-27T12:52:50.649Z</time></trkpt><trkpt lat="44.5153433" lon="9.2382483"><ele>903.5</ele><time>2026-03-27T12:52:51.648Z</time></trkpt><trkpt lat="44.515305" lon="9.2381567"><ele>904.3333333333333</ele><time>2026-03-27T12:52:52.65Z</time></trkpt><trkpt lat="44.5152583" lon="9.2380833"><ele>905.1666666666666</ele><time>2026-03-27T12:52:53.648Z</time></trkpt><trkpt lat="44.5152014" lon="9.2380374"><ele>906.0</ele><time>2026-03-27T12:52:54.648Z</time></trkpt><trkpt lat="44.5151291" lon="9.2380302"><ele>903.8</ele><time>2026-03-27T12:52:55.648Z</time></trkpt><trkpt lat="44.5150386" lon="9.2380332"><ele>901.5999999999999</ele><time>2026-03-27T12:52:56.648Z</time></trkpt><trkpt lat="44.5149491" lon="9.2380194"><ele>899.4</ele><time>2026-03-27T12:52:57.649Z</time></trkpt><trkpt lat="44.5148578" lon="9.2379883"><ele>897.2</ele><time>2026-03-27T12:52:58.65Z</time></trkpt><trkpt lat="44.5147693" lon="9.2379307"><ele>895.0</ele><time>2026-03-27T12:52:59.647Z</time></trkpt><trkpt lat="44.51469" lon="9.2378509"><ele>895.0</ele><time>2026-03-27T12:53:00.649Z</time></trkpt><trkpt lat="44.5146189" lon="9.2377436"><ele>895.0</ele><time>2026-03-27T12:53:01.647Z</time></trkpt><trkpt lat="44.5145347" lon="9.2376224"><ele>895.0</ele><time>2026-03-27T12:53:02.646Z</time></trkpt><trkpt lat="44.5144585" lon="9.2375042"><ele>895.0</ele><time>2026-03-27T12:53:03.646Z</time></trkpt><trkpt lat="44.5143988" lon="9.2373988"><ele>895.0</ele><time>2026-03-27T12:53:04.647Z</time></trkpt><trkpt lat="44.5143463" lon="9.237317"><ele>894.0</ele><time>2026-03-27T12:53:05.65Z</time></trkpt><trkpt lat="44.5142803" lon="9.2372865"><ele>893.0</ele><time>2026-03-27T12:53:06.649Z</time></trkpt><trkpt lat="44.5142058" lon="9.2372951"><ele>892.0</ele><time>2026-03-27T12:53:07.646Z</time></trkpt><trkpt lat="44.5141155" lon="9.2373234"><ele>891.0</ele><time>2026-03-27T12:53:08.648Z</time></trkpt><trkpt lat="44.5140163" lon="9.2373545"><ele>890.0</ele><time>2026-03-27T12:53:09.649Z</time></trkpt><trkpt lat="44.5138935" lon="9.2373833"><ele>896.0</ele><time>2026-03-27T12:53:10.646Z</time></trkpt><trkpt lat="44.5137636" lon="9.237406"><ele>902.0</ele><time>2026-03-27T12:53:11.647Z</time></trkpt><trkpt lat="44.5136269" lon="9.2374231"><ele>908.0</ele><time>2026-03-27T12:53:12.647Z</time></trkpt><trkpt lat="44.51349" lon="9.2374616"><ele>914.0</ele><time>2026-03-27T12:53:13.647Z</time></trkpt><trkpt lat="44.5133523" lon="9.2375131"><ele>914.25</ele><time>2026-03-27T12:53:14.648Z</time></trkpt><trkpt lat="44.5132203" lon="9.2375664"><ele>914.5</ele><time>2026-03-27T12:53:15.646Z</time></trkpt><trkpt lat="44.5131029" lon="9.2376337"><ele>914.75</ele><time>2026-03-27T12:53:16.647Z</time></trkpt><trkpt lat="44.5129954" lon="9.2377056"><ele>915.0</ele><time>2026-03-27T12:53:17.647Z</time></trkpt><trkpt lat="44.5128913" lon="9.2377658"><ele>915.5</ele><time>2026-03-27T12:53:18.646Z</time></trkpt><trkpt lat="44.5127904" lon="9.2378177"><ele>916.0</ele><time>2026-03-27T12:53:19.647Z</time></trkpt><trkpt lat="44.5126823" lon="9.237856"><ele>916.5</ele><time>2026-03-27T12:53:20.648Z</time></trkpt><trkpt lat="44.512558" lon="9.237867"><ele>917.0</ele><time>2026-03-27T12:53:21.651Z</time></trkpt><trkpt lat="44.5124259" lon="9.2378521"><ele>917.0</ele><time>2026-03-27T12:53:22.647Z</time></trkpt><trkpt lat="44.5122929" lon="9.2378211"><ele>917.0</ele><time>2026-03-27T12:53:23.647Z</time></trkpt><trkpt lat="44.5121589" lon="9.2377941"><ele>917.0</ele><time>2026-03-27T12:53:24.647Z</time></trkpt><trkpt lat="44.5120205" lon="9.2377902"><ele>917.0</ele><time>2026-03-27T12:53:25.647Z</time></trkpt><trkpt lat="44.5118846" lon="9.2377955"><ele>922.25</ele><time>2026-03-27T12:53:26.647Z</time></trkpt><trkpt lat="44.5117507" lon="9.2378089"><ele>927.5</ele><time>2026-03-27T12:53:27.65Z</time></trkpt><trkpt lat="44.5116205" lon="9.2378484"><ele>932.75</ele><time>2026-03-27T12:53:28.649Z</time></trkpt><trkpt lat="44.5114964" lon="9.2379081"><ele>938.0</ele><time>2026-03-27T12:53:29.652Z</time></trkpt><trkpt lat="44.5113848" lon="9.2379773"><ele>938.0000000000001</ele><time>2026-03-27T12:53:30.648Z</time></trkpt><trkpt lat="44.511287" lon="9.2380448"><ele>938.0</ele><time>2026-03-27T12:53:31.647Z</time></trkpt><trkpt lat="44.511198" lon="9.238104"><ele>938.0</ele><time>2026-03-27T12:53:32.648Z</time></trkpt><trkpt lat="44.5111214" lon="9.2381326"><ele>938.0</ele><time>2026-03-27T12:53:33.649Z</time></trkpt><trkpt lat="44.5110557" lon="9.2381116"><ele>938.0000000000001</ele><time>2026-03-27T12:53:34.646Z</time></trkpt><trkpt lat="44.5109933" lon="9.2380572"><ele>938.0</ele><time>2026-03-27T12:53:35.649Z</time></trkpt><trkpt lat="44.510927" lon="9.2379775"><ele>940.8</ele><time>2026-03-27T12:53:36.647Z</time></trkpt><trkpt lat="44.5108497" lon="9.237894"><ele>943.5999999999999</ele><time>2026-03-27T12:53:37.648Z</time></trkpt><trkpt lat="44.5107544" lon="9.2378263"><ele>946.4000000000001</ele><time>2026-03-27T12:53:38.649Z</time></trkpt><trkpt lat="44.5106482" lon="9.2377697"><ele>949.2</ele><time>2026-03-27T12:53:39.648Z</time></trkpt><trkpt lat="44.5105338" lon="9.2377361"><ele>952.0</ele><time>2026-03-27T12:53:40.647Z</time></trkpt><trkpt lat="44.5104144" lon="9.2377081"><ele>953.0</ele><time>2026-03-27T12:53:41.647Z</time></trkpt><trkpt lat="44.5102917" lon="9.2376717"><ele>954.0</ele><time>2026-03-27T12:53:42.647Z</time></trkpt><trkpt lat="44.5101667" lon="9.2376283"><ele>955.0</ele><time>2026-03-27T12:53:43.646Z</time></trkpt><trkpt lat="44.51004" lon="9.2376067"><ele>956.0</ele><time>2026-03-27T12:53:44.647Z</time></trkpt><trkpt lat="44.5099183" lon="9.2375917"><ele>956.0</ele><time>2026-03-27T12:53:45.647Z</time></trkpt><trkpt lat="44.5097967" lon="9.2375617"><ele>956.0</ele><time>2026-03-27T12:53:46.647Z</time></trkpt><trkpt lat="44.5096733" lon="9.23751"><ele>956.0</ele><time>2026-03-27T12:53:47.647Z</time></trkpt><trkpt lat="44.5095517" lon="9.2374367"><ele>956.0</ele><time>2026-03-27T12:53:48.648Z</time></trkpt><trkpt lat="44.5094317" lon="9.2373667"><ele>956.75</ele><time>2026-03-27T12:53:49.648Z</time></trkpt><trkpt lat="44.5093183" lon="9.23731"><ele>957.5</ele><time>2026-03-27T12:53:50.648Z</time></trkpt><trkpt lat="44.509205" lon="9.23726"><ele>958.25</ele><time>2026-03-27T12:53:51.648Z</time></trkpt><trkpt lat="44.5090933" lon="9.2371983"><ele>959.0</ele><time>2026-03-27T12:53:52.649Z</time></trkpt><trkpt lat="44.508985" lon="9.2371233"><ele>959.0</ele><time>2026-03-27T12:53:53.647Z</time></trkpt><trkpt lat="44.5088767" lon="9.237055"><ele>959.0000000000001</ele><time>2026-03-27T12:53:54.646Z</time></trkpt><trkpt lat="44.5087767" lon="9.2369967"><ele>959.0000000000001</ele><time>2026-03-27T12:53:55.647Z</time></trkpt><trkpt lat="44.5086867" lon="9.2369233"><ele>959.0</ele><time>2026-03-27T12:53:56.648Z</time></trkpt><trkpt lat="44.5086183" lon="9.2368117"><ele>959.0</ele><time>2026-03-27T12:53:57.648Z</time></trkpt><trkpt lat="44.5085717" lon="9.2366717"><ele>958.8333333333334</ele><time>2026-03-27T12:53:58.648Z</time></trkpt><trkpt lat="44.5085483" lon="9.2365233"><ele>958.6666666666667</ele><time>2026-03-27T12:53:59.649Z</time></trkpt><trkpt lat="44.50855" lon="9.236385"><ele>958.5</ele><time>2026-03-27T12:54:00.649Z</time></trkpt><trkpt lat="44.508555" lon="9.2362583"><ele>958.3333333333333</ele><time>2026-03-27T12:54:01.649Z</time></trkpt><trkpt lat="44.5085567" lon="9.2361483"><ele>958.1666666666666</ele><time>2026-03-27T12:54:02.65Z</time></trkpt><trkpt lat="44.5085383" lon="9.2360567"><ele>958.0</ele><time>2026-03-27T12:54:03.647Z</time></trkpt><trkpt lat="44.508455" lon="9.2360383"><ele>958.0</ele><time>2026-03-27T12:54:05.647Z</time></trkpt><trkpt lat="44.5083433" lon="9.2361267"><ele>958.0</ele><time>2026-03-27T12:54:07.65Z</time></trkpt><trkpt lat="44.50827" lon="9.236195"><ele>958.0</ele><time>2026-03-27T12:54:08.648Z</time></trkpt><trkpt lat="44.5081933" lon="9.236265"><ele>958.0</ele><time>2026-03-27T12:54:09.647Z</time></trkpt><trkpt lat="44.5081033" lon="9.23633"><ele>958.0</ele><time>2026-03-27T12:54:10.647Z</time></trkpt><trkpt lat="44.50801" lon="9.2363817"><ele>958.0</ele><time>2026-03-27T12:54:11.648Z</time></trkpt><trkpt lat="44.507915" lon="9.2364283"><ele>958.0</ele><time>2026-03-27T12:54:12.647Z</time></trkpt><trkpt lat="44.5078233" lon="9.2364883"><ele>958.0</ele><time>2026-03-27T12:54:13.649Z</time></trkpt><trkpt lat="44.5077383" lon="9.23658"><ele>958.0</ele><time>2026-03-27T12:54:14.652Z</time></trkpt><trkpt lat="44.5076617" lon="9.236705"><ele>958.0</ele><time>2026-03-27T12:54:15.647Z</time></trkpt><trkpt lat="44.507595" lon="9.2368533"><ele>962.25</ele><time>2026-03-27T12:54:16.646Z</time></trkpt><trkpt lat="44.5075333" lon="9.2370067"><ele>966.5</ele><time>2026-03-27T12:54:17.647Z</time></trkpt><trkpt lat="44.50747" lon="9.237165"><ele>970.75</ele><time>2026-03-27T12:54:18.654Z</time></trkpt><trkpt lat="44.5074" lon="9.23732"><ele>975.0</ele><time>2026-03-27T12:54:19.647Z</time></trkpt><trkpt lat="44.5073167" lon="9.2374517"><ele>976.25</ele><time>2026-03-27T12:54:20.648Z</time></trkpt><trkpt lat="44.5072233" lon="9.2375717"><ele>977.5</ele><time>2026-03-27T12:54:21.646Z</time></trkpt><trkpt lat="44.5071167" lon="9.23767"><ele>978.75</ele><time>2026-03-27T12:54:22.646Z</time></trkpt><trkpt lat="44.5069983" lon="9.237755"><ele>980.0</ele><time>2026-03-27T12:54:23.65Z</time></trkpt><trkpt lat="44.5068783" lon="9.237835"><ele>980.0</ele><time>2026-03-27T12:54:24.647Z</time></trkpt><trkpt lat="44.5067633" lon="9.237905"><ele>980.0</ele><time>2026-03-27T12:54:25.65Z</time></trkpt><trkpt lat="44.5066367" lon="9.2379617"><ele>980.0</ele><time>2026-03-27T12:54:26.647Z</time></trkpt><trkpt lat="44.5065017" lon="9.2380083"><ele>980.0</ele><time>2026-03-27T12:54:27.647Z</time></trkpt><trkpt lat="44.50636" lon="9.2380367"><ele>978.0</ele><time>2026-03-27T12:54:28.65Z</time></trkpt><trkpt lat="44.506225" lon="9.2380683"><ele>976.0</ele><time>2026-03-27T12:54:29.65Z</time></trkpt><trkpt lat="44.5061117" lon="9.2381133"><ele>974.0</ele><time>2026-03-27T12:54:30.651Z</time></trkpt><trkpt lat="44.5060067" lon="9.23816"><ele>972.0</ele><time>2026-03-27T12:54:31.649Z</time></trkpt><trkpt lat="44.5059083" lon="9.2381783"><ele>976.5</ele><time>2026-03-27T12:54:32.648Z</time></trkpt><trkpt lat="44.5058167" lon="9.2381817"><ele>981.0</ele><time>2026-03-27T12:54:33.648Z</time></trkpt><trkpt lat="44.5057333" lon="9.2381983"><ele>985.5</ele><time>2026-03-27T12:54:34.65Z</time></trkpt><trkpt lat="44.505665" lon="9.2382433"><ele>990.0</ele><time>2026-03-27T12:54:35.65Z</time></trkpt><trkpt lat="44.50561" lon="9.2383317"><ele>994.5</ele><time>2026-03-27T12:54:36.648Z</time></trkpt><trkpt lat="44.50557" lon="9.2384633"><ele>999.0</ele><time>2026-03-27T12:54:37.648Z</time></trkpt><trkpt lat="44.505525" lon="9.2386233"><ele>999.0</ele><time>2026-03-27T12:54:38.649Z</time></trkpt><trkpt lat="44.5054633" lon="9.2387767"><ele>999.0</ele><time>2026-03-27T12:54:39.648Z</time></trkpt><trkpt lat="44.5053783" lon="9.2389117"><ele>999.0</ele><time>2026-03-27T12:54:40.652Z</time></trkpt><trkpt lat="44.5052867" lon="9.2390217"><ele>999.0</ele><time>2026-03-27T12:54:41.648Z</time></trkpt><trkpt lat="44.50519" lon="9.2391167"><ele>999.25</ele><time>2026-03-27T12:54:42.648Z</time></trkpt><trkpt lat="44.5050883" lon="9.239215"><ele>999.5</ele><time>2026-03-27T12:54:43.649Z</time></trkpt><trkpt lat="44.5049817" lon="9.2393233"><ele>999.75</ele><time>2026-03-27T12:54:44.649Z</time></trkpt><trkpt lat="44.5048783" lon="9.239445"><ele>1000.0</ele><time>2026-03-27T12:54:45.647Z</time></trkpt><trkpt lat="44.5047767" lon="9.2395733"><ele>1000.0</ele><time>2026-03-27T12:54:46.646Z</time></trkpt><trkpt lat="44.504675" lon="9.23969"><ele>1000.0</ele><time>2026-03-27T12:54:47.647Z</time></trkpt><trkpt lat="44.5045667" lon="9.2397867"><ele>1000.0</ele><time>2026-03-27T12:54:48.647Z</time></trkpt><trkpt lat="44.5044467" lon="9.2398633"><ele>1000.0</ele><time>2026-03-27T12:54:49.647Z</time></trkpt><trkpt lat="44.504325" lon="9.23992"><ele>1002.75</ele><time>2026-03-27T12:54:50.648Z</time></trkpt><trkpt lat="44.5042017" lon="9.239965"><ele>1005.5</ele><time>2026-03-27T12:54:51.647Z</time></trkpt><trkpt lat="44.5040767" lon="9.2400183"><ele>1008.25</ele><time>2026-03-27T12:54:52.649Z</time></trkpt><trkpt lat="44.5039533" lon="9.24007"><ele>1011.0</ele><time>2026-03-27T12:54:53.646Z</time></trkpt><trkpt lat="44.5038333" lon="9.2401017"><ele>1012.25</ele><time>2026-03-27T12:54:54.647Z</time></trkpt><trkpt lat="44.5037083" lon="9.240115"><ele>1013.5</ele><time>2026-03-27T12:54:55.648Z</time></trkpt><trkpt lat="44.50358" lon="9.2401"><ele>1014.75</ele><time>2026-03-27T12:54:56.647Z</time></trkpt><trkpt lat="44.503455" lon="9.2400717"><ele>1016.0</ele><time>2026-03-27T12:54:57.646Z</time></trkpt><trkpt lat="44.5033417" lon="9.2400333"><ele>1016.0</ele><time>2026-03-27T12:54:58.646Z</time></trkpt><trkpt lat="44.5032383" lon="9.2399783"><ele>1015.9999999999999</ele><time>2026-03-27T12:54:59.646Z</time></trkpt><trkpt lat="44.50315" lon="9.2399"><ele>1015.9999999999999</ele><time>2026-03-27T12:55:00.646Z</time></trkpt><trkpt lat="44.5030733" lon="9.2398217"><ele>1016.0</ele><time>2026-03-27T12:55:01.65Z</time></trkpt><trkpt lat="44.5029983" lon="9.2397567"><ele>1016.0</ele><time>2026-03-27T12:55:02.646Z</time></trkpt><trkpt lat="44.5029217" lon="9.2397217"><ele>1017.1999999999999</ele><time>2026-03-27T12:55:03.651Z</time></trkpt><trkpt lat="44.5028417" lon="9.2397117"><ele>1018.3999999999999</ele><time>2026-03-27T12:55:04.647Z</time></trkpt><trkpt lat="44.5027633" lon="9.2397333"><ele>1019.6</ele><time>2026-03-27T12:55:05.646Z</time></trkpt><trkpt lat="44.5026867" lon="9.23979"><ele>1020.8</ele><time>2026-03-27T12:55:06.646Z</time></trkpt><trkpt lat="44.502595" lon="9.2398767"><ele>1022.0</ele><time>2026-03-27T12:55:07.646Z</time></trkpt><trkpt lat="44.5024883" lon="9.2399433"><ele>1022.0</ele><time>2026-03-27T12:55:08.646Z</time></trkpt><trkpt lat="44.5023767" lon="9.2399917"><ele>1022.0</ele><time>2026-03-27T12:55:09.646Z</time></trkpt><trkpt lat="44.5022583" lon="9.240025"><ele>1022.0</ele><time>2026-03-27T12:55:10.647Z</time></trkpt><trkpt lat="44.5021417" lon="9.2400417"><ele>1022.0</ele><time>2026-03-27T12:55:11.648Z</time></trkpt><trkpt lat="44.502035" lon="9.2400233"><ele>1020.4000000000001</ele><time>2026-03-27T12:55:12.649Z</time></trkpt><trkpt lat="44.5019367" lon="9.2399833"><ele>1018.8000000000001</ele><time>2026-03-27T12:55:13.646Z</time></trkpt><trkpt lat="44.501835" lon="9.2399333"><ele>1017.2</ele><time>2026-03-27T12:55:14.646Z</time></trkpt><trkpt lat="44.5017417" lon="9.2399"><ele>1015.6</ele><time>2026-03-27T12:55:15.646Z</time></trkpt><trkpt lat="44.5016617" lon="9.2399033"><ele>1014.0</ele><time>2026-03-27T12:55:16.651Z</time></trkpt><trkpt lat="44.50159" lon="9.23994"><ele>1014.0</ele><time>2026-03-27T12:55:17.647Z</time></trkpt><trkpt lat="44.5015333" lon="9.2400117"><ele>1014.0000000000001</ele><time>2026-03-27T12:55:18.647Z</time></trkpt><trkpt lat="44.5015167" lon="9.2401667"><ele>1014.0000000000001</ele><time>2026-03-27T12:55:19.647Z</time></trkpt><trkpt lat="44.5015" lon="9.2403183"><ele>1014.0</ele><time>2026-03-27T12:55:20.647Z</time></trkpt><trkpt lat="44.5014817" lon="9.2404683"><ele>1014.0</ele><time>2026-03-27T12:55:21.647Z</time></trkpt><trkpt lat="44.501445" lon="9.240605"><ele>1012.0</ele><time>2026-03-27T12:55:22.646Z</time></trkpt><trkpt lat="44.5013883" lon="9.2407317"><ele>1010.0</ele><time>2026-03-27T12:55:23.646Z</time></trkpt><trkpt lat="44.501315" lon="9.2408517"><ele>1008.0</ele><time>2026-03-27T12:55:24.647Z</time></trkpt><trkpt lat="44.50123" lon="9.2409733"><ele>1006.0</ele><time>2026-03-27T12:55:25.648Z</time></trkpt><trkpt lat="44.501135" lon="9.241095"><ele>1006.0</ele><time>2026-03-27T12:55:26.648Z</time></trkpt><trkpt lat="44.5010333" lon="9.2412183"><ele>1006.0</ele><time>2026-03-27T12:55:27.648Z</time></trkpt><trkpt lat="44.50093" lon="9.241345"><ele>1006.0</ele><time>2026-03-27T12:55:28.649Z</time></trkpt><trkpt lat="44.5008183" lon="9.24147"><ele>1006.0</ele><time>2026-03-27T12:55:29.646Z</time></trkpt><trkpt lat="44.5006983" lon="9.24159"><ele>1010.3333333333333</ele><time>2026-03-27T12:55:30.646Z</time></trkpt><trkpt lat="44.5005667" lon="9.241695"><ele>1014.6666666666667</ele><time>2026-03-27T12:55:31.649Z</time></trkpt><trkpt lat="44.5004217" lon="9.2417767"><ele>1019.0</ele><time>2026-03-27T12:55:32.646Z</time></trkpt><trkpt lat="44.5002667" lon="9.2418267"><ele>1020.75</ele><time>2026-03-27T12:55:33.647Z</time></trkpt><trkpt lat="44.50011" lon="9.24185"><ele>1022.5</ele><time>2026-03-27T12:55:34.648Z</time></trkpt><trkpt lat="44.4999683" lon="9.2418633"><ele>1024.25</ele><time>2026-03-27T12:55:35.646Z</time></trkpt><trkpt lat="44.4998367" lon="9.2418717"><ele>1026.0</ele><time>2026-03-27T12:55:36.647Z</time></trkpt><trkpt lat="44.4997167" lon="9.24187"><ele>1026.0</ele><time>2026-03-27T12:55:37.647Z</time></trkpt><trkpt lat="44.4996083" lon="9.24188"><ele>1026.0</ele><time>2026-03-27T12:55:38.647Z</time></trkpt><trkpt lat="44.499505" lon="9.2419333"><ele>1026.0</ele><time>2026-03-27T12:55:39.648Z</time></trkpt><trkpt lat="44.4994083" lon="9.242015"><ele>1026.0</ele><time>2026-03-27T12:55:40.647Z</time></trkpt><trkpt lat="44.4993167" lon="9.2421217"><ele>1023.75</ele><time>2026-03-27T12:55:41.648Z</time></trkpt><trkpt lat="44.4992433" lon="9.2422467"><ele>1021.5</ele><time>2026-03-27T12:55:42.649Z</time></trkpt><trkpt lat="44.4991533" lon="9.24237"><ele>1019.25</ele><time>2026-03-27T12:55:43.648Z</time></trkpt><trkpt lat="44.499055" lon="9.2424833"><ele>1017.0</ele><time>2026-03-27T12:55:44.652Z</time></trkpt><trkpt lat="44.498955" lon="9.2425983"><ele>1021.5</ele><time>2026-03-27T12:55:45.648Z</time></trkpt><trkpt lat="44.4988517" lon="9.2427133"><ele>1026.0</ele><time>2026-03-27T12:55:46.646Z</time></trkpt><trkpt lat="44.4987417" lon="9.24281"><ele>1030.5</ele><time>2026-03-27T12:55:47.647Z</time></trkpt><trkpt lat="44.49863" lon="9.2428917"><ele>1035.0</ele><time>2026-03-27T12:55:48.648Z</time></trkpt><trkpt lat="44.4985183" lon="9.2429383"><ele>1035.0</ele><time>2026-03-27T12:55:49.646Z</time></trkpt><trkpt lat="44.498415" lon="9.242965"><ele>1035.0</ele><time>2026-03-27T12:55:50.647Z</time></trkpt><trkpt lat="44.49831" lon="9.242965"><ele>1035.0</ele><time>2026-03-27T12:55:51.647Z</time></trkpt><trkpt lat="44.4982167" lon="9.242945"><ele>1035.0</ele><time>2026-03-27T12:55:52.646Z</time></trkpt><trkpt lat="44.49814" lon="9.24294"><ele>1035.0</ele><time>2026-03-27T12:55:53.647Z</time></trkpt><trkpt lat="44.4980667" lon="9.242945"><ele>1035.0</ele><time>2026-03-27T12:55:54.648Z</time></trkpt><trkpt lat="44.4980067" lon="9.242975"><ele>1035.0</ele><time>2026-03-27T12:55:55.648Z</time></trkpt><trkpt lat="44.4979467" lon="9.24303"><ele>1035.0</ele><time>2026-03-27T12:55:56.649Z</time></trkpt><trkpt lat="44.4978983" lon="9.2431217"><ele>1035.0</ele><time>2026-03-27T12:55:57.647Z</time></trkpt><trkpt lat="44.4978417" lon="9.2432033"><ele>1035.0</ele><time>2026-03-27T12:55:58.647Z</time></trkpt><trkpt lat="44.4977817" lon="9.2432817"><ele>1035.0</ele><time>2026-03-27T12:55:59.648Z</time></trkpt><trkpt lat="44.4977117" lon="9.2433483"><ele>1039.0</ele><time>2026-03-27T12:56:00.65Z</time></trkpt><trkpt lat="44.4976267" lon="9.2433967"><ele>1043.0</ele><time>2026-03-27T12:56:01.647Z</time></trkpt><trkpt lat="44.49754" lon="9.2434317"><ele>1047.0</ele><time>2026-03-27T12:56:02.647Z</time></trkpt><trkpt lat="44.4974583" lon="9.2434633"><ele>1051.0</ele><time>2026-03-27T12:56:03.647Z</time></trkpt><trkpt lat="44.4973783" lon="9.2434983"><ele>1055.0</ele><time>2026-03-27T12:56:04.647Z</time></trkpt><trkpt lat="44.497305" lon="9.2435467"><ele>1059.0</ele><time>2026-03-27T12:56:05.648Z</time></trkpt><trkpt lat="44.4972433" lon="9.2436183"><ele>1059.0</ele><time>2026-03-27T12:56:06.647Z</time></trkpt><trkpt lat="44.4971783" lon="9.24369"><ele>1059.0</ele><time>2026-03-27T12:56:07.647Z</time></trkpt><trkpt lat="44.4971083" lon="9.2437733"><ele>1059.0</ele><time>2026-03-27T12:56:08.65Z</time></trkpt><trkpt lat="44.497035" lon="9.2438633"><ele>1059.0</ele><time>2026-03-27T12:56:09.647Z</time></trkpt><trkpt lat="44.4969467" lon="9.2439517"><ele>1059.0</ele><time>2026-03-27T12:56:10.647Z</time></trkpt><trkpt lat="44.49684" lon="9.2440417"><ele>1063.25</ele><time>2026-03-27T12:56:11.647Z</time></trkpt><trkpt lat="44.49672" lon="9.2441233"><ele>1067.5</ele><time>2026-03-27T12:56:12.647Z</time></trkpt><trkpt lat="44.4965917" lon="9.2441967"><ele>1071.75</ele><time>2026-03-27T12:56:13.646Z</time></trkpt><trkpt lat="44.4964633" lon="9.2442583"><ele>1076.0</ele><time>2026-03-27T12:56:14.646Z</time></trkpt><trkpt lat="44.4963433" lon="9.2443367"><ele>1078.0</ele><time>2026-03-27T12:56:15.646Z</time></trkpt><trkpt lat="44.496235" lon="9.24445"><ele>1080.0</ele><time>2026-03-27T12:56:16.647Z</time></trkpt><trkpt lat="44.496145" lon="9.2445833"><ele>1082.0</ele><time>2026-03-27T12:56:17.646Z</time></trkpt><trkpt lat="44.4960717" lon="9.2447017"><ele>1084.0</ele><time>2026-03-27T12:56:18.646Z</time></trkpt><trkpt lat="44.4960067" lon="9.2448"><ele>1084.0</ele><time>2026-03-27T12:56:19.648Z</time></trkpt><trkpt lat="44.4959283" lon="9.24488"><ele>1084.0</ele><time>2026-03-27T12:56:20.646Z</time></trkpt><trkpt lat="44.4958433" lon="9.244945"><ele>1084.0</ele><time>2026-03-27T12:56:21.648Z</time></trkpt><trkpt lat="44.4957583" lon="9.24501"><ele>1084.0</ele><time>2026-03-27T12:56:22.647Z</time></trkpt><trkpt lat="44.49567" lon="9.2450667"><ele>1084.0</ele><time>2026-03-27T12:56:23.648Z</time></trkpt><trkpt lat="44.49557" lon="9.2451"><ele>1084.0</ele><time>2026-03-27T12:56:24.646Z</time></trkpt><trkpt lat="44.49547" lon="9.2451217"><ele>1084.0</ele><time>2026-03-27T12:56:25.648Z</time></trkpt><trkpt lat="44.4953667" lon="9.2451483"><ele>1084.0</ele><time>2026-03-27T12:56:26.647Z</time></trkpt><trkpt lat="44.49526" lon="9.2451733"><ele>1084.0</ele><time>2026-03-27T12:56:27.65Z</time></trkpt><trkpt lat="44.49515" lon="9.2451983"><ele>1084.0</ele><time>2026-03-27T12:56:28.649Z</time></trkpt><trkpt lat="44.4950283" lon="9.245215"><ele>1085.8</ele><time>2026-03-27T12:56:29.646Z</time></trkpt><trkpt lat="44.49491" lon="9.24523"><ele>1087.6000000000001</ele><time>2026-03-27T12:56:30.647Z</time></trkpt><trkpt lat="44.4948017" lon="9.2452417"><ele>1089.4</ele><time>2026-03-27T12:56:31.652Z</time></trkpt><trkpt lat="44.494705" lon="9.2452467"><ele>1091.2</ele><time>2026-03-27T12:56:32.647Z</time></trkpt><trkpt lat="44.49463" lon="9.2452467"><ele>1093.0</ele><time>2026-03-27T12:56:33.648Z</time></trkpt><trkpt lat="44.4945317" lon="9.245225"><ele>1093.0</ele><time>2026-03-27T12:56:35.647Z</time></trkpt><trkpt lat="44.4944317" lon="9.2452"><ele>1093.0</ele><time>2026-03-27T12:56:37.647Z</time></trkpt><trkpt lat="44.4943017" lon="9.2451983"><ele>1093.0</ele><time>2026-03-27T12:56:39.648Z</time></trkpt><trkpt lat="44.4942317" lon="9.2452217"><ele>1093.0</ele><time>2026-03-27T12:56:40.648Z</time></trkpt><trkpt lat="44.4941567" lon="9.2452517"><ele>1093.0</ele><time>2026-03-27T12:56:41.648Z</time></trkpt><trkpt lat="44.49408" lon="9.245295"><ele>1093.0</ele><time>2026-03-27T12:56:42.649Z</time></trkpt><trkpt lat="44.49399" lon="9.24534"><ele>1093.0</ele><time>2026-03-27T12:56:43.647Z</time></trkpt><trkpt lat="44.4938783" lon="9.2453783"><ele>1093.0</ele><time>2026-03-27T12:56:44.648Z</time></trkpt><trkpt lat="44.4937567" lon="9.245425"><ele>1093.0</ele><time>2026-03-27T12:56:45.648Z</time></trkpt><trkpt lat="44.4936417" lon="9.2454783"><ele>1092.6</ele><time>2026-03-27T12:56:46.646Z</time></trkpt><trkpt lat="44.4935333" lon="9.245525"><ele>1092.1999999999998</ele><time>2026-03-27T12:56:47.649Z</time></trkpt><trkpt lat="44.49345" lon="9.24554"><ele>1091.8</ele><time>2026-03-27T12:56:48.648Z</time></trkpt><trkpt lat="44.4933717" lon="9.2455217"><ele>1091.3999999999999</ele><time>2026-03-27T12:56:49.648Z</time></trkpt><trkpt lat="44.493295" lon="9.245485"><ele>1091.0</ele><time>2026-03-27T12:56:50.647Z</time></trkpt><trkpt lat="44.493175" lon="9.2454"><ele>1091.0</ele><time>2026-03-27T12:56:52.646Z</time></trkpt><trkpt lat="44.4930633" lon="9.2453517"><ele>1091.0</ele><time>2026-03-27T12:56:54.647Z</time></trkpt><trkpt lat="44.493" lon="9.245325"><ele>1091.0</ele><time>2026-03-27T12:56:55.646Z</time></trkpt><trkpt lat="44.492925" lon="9.2453383"><ele>1091.0</ele><time>2026-03-27T12:56:56.651Z</time></trkpt><trkpt lat="44.492835" lon="9.245385"><ele>1091.0</ele><time>2026-03-27T12:56:57.648Z</time></trkpt><trkpt lat="44.4927417" lon="9.245465"><ele>1089.0</ele><time>2026-03-27T12:56:58.649Z</time></trkpt><trkpt lat="44.4926617" lon="9.2455467"><ele>1087.0</ele><time>2026-03-27T12:56:59.648Z</time></trkpt><trkpt lat="44.4925933" lon="9.2456183"><ele>1085.0</ele><time>2026-03-27T12:57:00.648Z</time></trkpt><trkpt lat="44.4925333" lon="9.245685"><ele>1083.0</ele><time>2026-03-27T12:57:01.648Z</time></trkpt><trkpt lat="44.4924733" lon="9.2457467"><ele>1081.0</ele><time>2026-03-27T12:57:02.648Z</time></trkpt><trkpt lat="44.4924167" lon="9.2458"><ele>1079.0</ele><time>2026-03-27T12:57:03.651Z</time></trkpt><trkpt lat="44.4923217" lon="9.245895"><ele>1081.75</ele><time>2026-03-27T12:57:05.648Z</time></trkpt><trkpt lat="44.4922133" lon="9.246"><ele>1084.5</ele><time>2026-03-27T12:57:07.648Z</time></trkpt><trkpt lat="44.4921133" lon="9.2460917"><ele>1087.25</ele><time>2026-03-27T12:57:09.646Z</time></trkpt><trkpt lat="44.492035" lon="9.2461683"><ele>1090.0</ele><time>2026-03-27T12:57:11.648Z</time></trkpt><trkpt lat="44.4919367" lon="9.2462567"><ele>1090.0</ele><time>2026-03-27T12:57:13.649Z</time></trkpt><trkpt lat="44.49187" lon="9.24631"><ele>1090.0</ele><time>2026-03-27T12:57:14.647Z</time></trkpt><trkpt lat="44.4917967" lon="9.2463567"><ele>1090.0</ele><time>2026-03-27T12:57:15.646Z</time></trkpt><trkpt lat="44.4917217" lon="9.2464"><ele>1090.0</ele><time>2026-03-27T12:57:16.646Z</time></trkpt><trkpt lat="44.4916467" lon="9.2464417"><ele>1090.0</ele><time>2026-03-27T12:57:17.647Z</time></trkpt><trkpt lat="44.491575" lon="9.2464717"><ele>1090.0</ele><time>2026-03-27T12:57:18.647Z</time></trkpt><trkpt lat="44.4915017" lon="9.2465033"><ele>1092.4285714285716</ele><time>2026-03-27T12:57:19.646Z</time></trkpt><trkpt lat="44.4914267" lon="9.2465267"><ele>1094.857142857143</ele><time>2026-03-27T12:57:20.648Z</time></trkpt><trkpt lat="44.4913533" lon="9.2465383"><ele>1097.2857142857142</ele><time>2026-03-27T12:57:21.647Z</time></trkpt><trkpt lat="44.4912833" lon="9.2465333"><ele>1099.7142857142858</ele><time>2026-03-27T12:57:22.647Z</time></trkpt><trkpt lat="44.4912117" lon="9.24651"><ele>1102.142857142857</ele><time>2026-03-27T12:57:23.649Z</time></trkpt><trkpt lat="44.4911533" lon="9.2464733"><ele>1104.5714285714287</ele><time>2026-03-27T12:57:24.646Z</time></trkpt><trkpt lat="44.4911" lon="9.24642"><ele>1107.0</ele><time>2026-03-27T12:57:25.648Z</time></trkpt><trkpt lat="44.4910367" lon="9.2463583"><ele>1107.0</ele><time>2026-03-27T12:57:26.646Z</time></trkpt><trkpt lat="44.4909617" lon="9.246285"><ele>1107.0</ele><time>2026-03-27T12:57:27.646Z</time></trkpt><trkpt lat="44.4909033" lon="9.2462183"><ele>1107.0</ele><time>2026-03-27T12:57:28.648Z</time></trkpt><trkpt lat="44.4908333" lon="9.2461317"><ele>1107.0</ele><time>2026-03-27T12:57:29.648Z</time></trkpt><trkpt lat="44.4907533" lon="9.2460467"><ele>1107.0</ele><time>2026-03-27T12:57:30.648Z</time></trkpt><trkpt lat="44.4906733" lon="9.2459667"><ele>1107.0</ele><time>2026-03-27T12:57:31.649Z</time></trkpt><trkpt lat="44.4906" lon="9.2458783"><ele>1107.0</ele><time>2026-03-27T12:57:32.648Z</time></trkpt><trkpt lat="44.4905567" lon="9.2457533"><ele>1107.0</ele><time>2026-03-27T12:57:33.646Z</time></trkpt><trkpt lat="44.4904983" lon="9.2456333"><ele>1107.0</ele><time>2026-03-27T12:57:34.646Z</time></trkpt><trkpt lat="44.4904217" lon="9.2455217"><ele>1107.0</ele><time>2026-03-27T12:57:35.646Z</time></trkpt><trkpt lat="44.4903333" lon="9.2454333"><ele>1107.6</ele><time>2026-03-27T12:57:36.648Z</time></trkpt><trkpt lat="44.4902483" lon="9.2453517"><ele>1108.2</ele><time>2026-03-27T12:57:37.648Z</time></trkpt><trkpt lat="44.4901567" lon="9.2452783"><ele>1108.8</ele><time>2026-03-27T12:57:38.65Z</time></trkpt><trkpt lat="44.4900667" lon="9.2452083"><ele>1109.4</ele><time>2026-03-27T12:57:39.648Z</time></trkpt><trkpt lat="44.48998" lon="9.2451167"><ele>1110.0</ele><time>2026-03-27T12:57:40.647Z</time></trkpt><trkpt lat="44.4899033" lon="9.2449983"><ele>1110.0</ele><time>2026-03-27T12:57:41.648Z</time></trkpt><trkpt lat="44.4898333" lon="9.24488"><ele>1110.0</ele><time>2026-03-27T12:57:42.649Z</time></trkpt><trkpt lat="44.4897633" lon="9.2447767"><ele>1110.0</ele><time>2026-03-27T12:57:43.65Z</time></trkpt><trkpt lat="44.489715" lon="9.24466"><ele>1110.0</ele><time>2026-03-27T12:57:44.647Z</time></trkpt><trkpt lat="44.4896783" lon="9.2445333"><ele>1110.0</ele><time>2026-03-27T12:57:45.646Z</time></trkpt><trkpt lat="44.48965" lon="9.2443967"><ele>1106.8</ele><time>2026-03-27T12:57:46.646Z</time></trkpt><trkpt lat="44.4896283" lon="9.2442517"><ele>1103.6</ele><time>2026-03-27T12:57:47.649Z</time></trkpt><trkpt lat="44.4895833" lon="9.2441133"><ele>1100.4</ele><time>2026-03-27T12:57:48.646Z</time></trkpt><trkpt lat="44.4895417" lon="9.24397"><ele>1097.2</ele><time>2026-03-27T12:57:49.651Z</time></trkpt><trkpt lat="44.48949" lon="9.2438217"><ele>1094.0</ele><time>2026-03-27T12:57:50.647Z</time></trkpt><trkpt lat="44.4894417" lon="9.24368"><ele>1101.0</ele><time>2026-03-27T12:57:51.646Z</time></trkpt><trkpt lat="44.489415" lon="9.2435267"><ele>1108.0</ele><time>2026-03-27T12:57:52.647Z</time></trkpt><trkpt lat="44.4893933" lon="9.2433683"><ele>1115.0</ele><time>2026-03-27T12:57:53.647Z</time></trkpt><trkpt lat="44.4893783" lon="9.2432117"><ele>1122.0</ele><time>2026-03-27T12:57:54.647Z</time></trkpt><trkpt lat="44.4893567" lon="9.243055"><ele>1122.0</ele><time>2026-03-27T12:57:55.646Z</time></trkpt><trkpt lat="44.4893367" lon="9.2428983"><ele>1122.0</ele><time>2026-03-27T12:57:56.647Z</time></trkpt><trkpt lat="44.4893167" lon="9.2427417"><ele>1122.0</ele><time>2026-03-27T12:57:57.647Z</time></trkpt><trkpt lat="44.4893" lon="9.24258"><ele>1122.0</ele><time>2026-03-27T12:57:58.647Z</time></trkpt><trkpt lat="44.48928" lon="9.24242"><ele>1117.8</ele><time>2026-03-27T12:57:59.649Z</time></trkpt><trkpt lat="44.4892617" lon="9.242275"><ele>1113.6</ele><time>2026-03-27T12:58:00.648Z</time></trkpt><trkpt lat="44.4892417" lon="9.2421467"><ele>1109.3999999999999</ele><time>2026-03-27T12:58:01.651Z</time></trkpt><trkpt lat="44.48922" lon="9.2420383"><ele>1105.2</ele><time>2026-03-27T12:58:02.648Z</time></trkpt><trkpt lat="44.4891883" lon="9.24195"><ele>1101.0</ele><time>2026-03-27T12:58:03.647Z</time></trkpt><trkpt lat="44.4891033" lon="9.2418417"><ele>1101.0</ele><time>2026-03-27T12:58:05.646Z</time></trkpt><trkpt lat="44.4889883" lon="9.24187"><ele>1101.0</ele><time>2026-03-27T12:58:07.65Z</time></trkpt><trkpt lat="44.4889233" lon="9.2418667"><ele>1101.0</ele><time>2026-03-27T12:58:08.648Z</time></trkpt><trkpt lat="44.4888383" lon="9.2418367"><ele>1101.0</ele><time>2026-03-27T12:58:09.648Z</time></trkpt><trkpt lat="44.4887583" lon="9.241785"><ele>1101.0</ele><time>2026-03-27T12:58:10.647Z</time></trkpt><trkpt lat="44.4886683" lon="9.24172"><ele>1101.2</ele><time>2026-03-27T12:58:11.648Z</time></trkpt><trkpt lat="44.4885867" lon="9.241635"><ele>1101.3999999999999</ele><time>2026-03-27T12:58:12.648Z</time></trkpt><trkpt lat="44.48851" lon="9.24153"><ele>1101.6</ele><time>2026-03-27T12:58:13.648Z</time></trkpt><trkpt lat="44.488445" lon="9.24142"><ele>1101.8</ele><time>2026-03-27T12:58:14.653Z</time></trkpt><trkpt lat="44.4884067" lon="9.241295"><ele>1102.0</ele><time>2026-03-27T12:58:15.647Z</time></trkpt><trkpt lat="44.4883967" lon="9.2411833"><ele>1102.0</ele><time>2026-03-27T12:58:16.647Z</time></trkpt><trkpt lat="44.4883717" lon="9.2410717"><ele>1102.0</ele><time>2026-03-27T12:58:17.647Z</time></trkpt><trkpt lat="44.4883317" lon="9.2409617"><ele>1102.0</ele><time>2026-03-27T12:58:18.646Z</time></trkpt><trkpt lat="44.4882783" lon="9.24086"><ele>1102.0</ele><time>2026-03-27T12:58:19.646Z</time></trkpt><trkpt lat="44.4882067" lon="9.2407633"><ele>1102.0</ele><time>2026-03-27T12:58:20.649Z</time></trkpt><trkpt lat="44.4881167" lon="9.240665"><ele>1101.0</ele><time>2026-03-27T12:58:21.647Z</time></trkpt><trkpt lat="44.48802" lon="9.2405633"><ele>1100.0</ele><time>2026-03-27T12:58:22.646Z</time></trkpt><trkpt lat="44.487925" lon="9.2404667"><ele>1099.0</ele><time>2026-03-27T12:58:23.649Z</time></trkpt><trkpt lat="44.487845" lon="9.2403883"><ele>1098.0</ele><time>2026-03-27T12:58:24.647Z</time></trkpt><trkpt lat="44.4877683" lon="9.2403233"><ele>1097.0</ele><time>2026-03-27T12:58:25.646Z</time></trkpt><trkpt lat="44.4876933" lon="9.24028"><ele>1097.0</ele><time>2026-03-27T12:58:26.646Z</time></trkpt><trkpt lat="44.4876167" lon="9.2402633"><ele>1097.0</ele><time>2026-03-27T12:58:27.649Z</time></trkpt><trkpt lat="44.487545" lon="9.240275"><ele>1097.0</ele><time>2026-03-27T12:58:28.648Z</time></trkpt><trkpt lat="44.4874783" lon="9.240335"><ele>1097.0</ele><time>2026-03-27T12:58:29.651Z</time></trkpt><trkpt lat="44.4874217" lon="9.2404167"><ele>1097.0</ele><time>2026-03-27T12:58:30.65Z</time></trkpt><trkpt lat="44.487365" lon="9.2404883"><ele>1097.0</ele><time>2026-03-27T12:58:31.647Z</time></trkpt><trkpt lat="44.48731" lon="9.2405583"><ele>1097.0</ele><time>2026-03-27T12:58:32.648Z</time></trkpt><trkpt lat="44.4872567" lon="9.2406117"><ele>1097.0</ele><time>2026-03-27T12:58:33.648Z</time></trkpt><trkpt lat="44.4871967" lon="9.2406683"><ele>1097.0</ele><time>2026-03-27T12:58:34.648Z</time></trkpt><trkpt lat="44.48712" lon="9.2407333"><ele>1097.0</ele><time>2026-03-27T12:58:35.647Z</time></trkpt><trkpt lat="44.487065" lon="9.2408183"><ele>1097.0</ele><time>2026-03-27T12:58:36.647Z</time></trkpt><trkpt lat="44.487005" lon="9.240895"><ele>1097.0</ele><time>2026-03-27T12:58:37.647Z</time></trkpt><trkpt lat="44.48694" lon="9.2409467"><ele>1097.3333333333335</ele><time>2026-03-27T12:58:38.65Z</time></trkpt><trkpt lat="44.4868733" lon="9.2409833"><ele>1097.6666666666667</ele><time>2026-03-27T12:58:39.646Z</time></trkpt><trkpt lat="44.48681" lon="9.2410217"><ele>1098.0</ele><time>2026-03-27T12:58:40.646Z</time></trkpt><trkpt lat="44.4867483" lon="9.2410583"><ele>1098.3333333333333</ele><time>2026-03-27T12:58:41.646Z</time></trkpt><trkpt lat="44.4866867" lon="9.24111"><ele>1098.6666666666665</ele><time>2026-03-27T12:58:42.647Z</time></trkpt><trkpt lat="44.4866233" lon="9.2412733"><ele>1099.0</ele><time>2026-03-27T12:58:44.648Z</time></trkpt><trkpt lat="44.4865967" lon="9.24136"><ele>1099.0</ele><time>2026-03-27T12:58:45.647Z</time></trkpt><trkpt lat="44.486575" lon="9.2414433"><ele>1099.0</ele><time>2026-03-27T12:58:46.646Z</time></trkpt><trkpt lat="44.4865567" lon="9.2415283"><ele>1099.0</ele><time>2026-03-27T12:58:47.647Z</time></trkpt><trkpt lat="44.486485" lon="9.2416633"><ele>1099.0</ele><time>2026-03-27T12:58:49.647Z</time></trkpt><trkpt lat="44.4863667" lon="9.2417367"><ele>1099.0</ele><time>2026-03-27T12:58:51.648Z</time></trkpt><trkpt lat="44.4862983" lon="9.2417717"><ele>1099.0</ele><time>2026-03-27T12:58:52.648Z</time></trkpt><trkpt lat="44.4862367" lon="9.2418317"><ele>1098.1666666666665</ele><time>2026-03-27T12:58:53.647Z</time></trkpt><trkpt lat="44.4861817" lon="9.2419117"><ele>1097.3333333333333</ele><time>2026-03-27T12:58:54.646Z</time></trkpt><trkpt lat="44.48615" lon="9.2420283"><ele>1096.5</ele><time>2026-03-27T12:58:55.648Z</time></trkpt><trkpt lat="44.4861217" lon="9.24213"><ele>1095.6666666666667</ele><time>2026-03-27T12:58:56.646Z</time></trkpt><trkpt lat="44.4860883" lon="9.242225"><ele>1094.8333333333335</ele><time>2026-03-27T12:58:57.647Z</time></trkpt><trkpt lat="44.48604" lon="9.242315"><ele>1094.0</ele><time>2026-03-27T12:58:58.648Z</time></trkpt><trkpt lat="44.48599" lon="9.2424167"><ele>1099.3333333333335</ele><time>2026-03-27T12:58:59.649Z</time></trkpt><trkpt lat="44.4859333" lon="9.2424983"><ele>1104.6666666666667</ele><time>2026-03-27T12:59:00.647Z</time></trkpt><trkpt lat="44.4858733" lon="9.2425483"><ele>1110.0</ele><time>2026-03-27T12:59:01.648Z</time></trkpt><trkpt lat="44.4858083" lon="9.2425783"><ele>1115.3333333333333</ele><time>2026-03-27T12:59:02.648Z</time></trkpt><trkpt lat="44.4857367" lon="9.2426067"><ele>1120.6666666666665</ele><time>2026-03-27T12:59:03.648Z</time></trkpt><trkpt lat="44.4856617" lon="9.2426433"><ele>1126.0</ele><time>2026-03-27T12:59:04.648Z</time></trkpt><trkpt lat="44.4855717" lon="9.2427333"><ele>1126.0</ele><time>2026-03-27T12:59:05.647Z</time></trkpt><trkpt lat="44.4855033" lon="9.2428417"><ele>1126.0</ele><time>2026-03-27T12:59:06.647Z</time></trkpt><trkpt lat="44.48544" lon="9.242945"><ele>1126.0</ele><time>2026-03-27T12:59:07.647Z</time></trkpt><trkpt lat="44.4853617" lon="9.2430333"><ele>1126.0</ele><time>2026-03-27T12:59:08.647Z</time></trkpt><trkpt lat="44.4852767" lon="9.243095"><ele>1126.0</ele><time>2026-03-27T12:59:09.647Z</time></trkpt><trkpt lat="44.4851783" lon="9.2431417"><ele>1127.5</ele><time>2026-03-27T12:59:10.647Z</time></trkpt><trkpt lat="44.4850683" lon="9.2431733"><ele>1129.0</ele><time>2026-03-27T12:59:11.647Z</time></trkpt><trkpt lat="44.4849533" lon="9.2431867"><ele>1130.5</ele><time>2026-03-27T12:59:12.647Z</time></trkpt><trkpt lat="44.4848333" lon="9.2431683"><ele>1132.0</ele><time>2026-03-27T12:59:13.646Z</time></trkpt><trkpt lat="44.4847217" lon="9.243125"><ele>1126.4</ele><time>2026-03-27T12:59:14.647Z</time></trkpt><trkpt lat="44.4846183" lon="9.2430617"><ele>1120.8000000000002</ele><time>2026-03-27T12:59:15.646Z</time></trkpt><trkpt lat="44.4845283" lon="9.2429917"><ele>1115.2</ele><time>2026-03-27T12:59:16.65Z</time></trkpt><trkpt lat="44.4844433" lon="9.2429167"><ele>1109.6000000000001</ele><time>2026-03-27T12:59:17.647Z</time></trkpt><trkpt lat="44.4843567" lon="9.2428617"><ele>1104.0</ele><time>2026-03-27T12:59:18.647Z</time></trkpt><trkpt lat="44.4842633" lon="9.2428317"><ele>1103.0</ele><time>2026-03-27T12:59:19.646Z</time></trkpt><trkpt lat="44.4841583" lon="9.24283"><ele>1102.0</ele><time>2026-03-27T12:59:20.647Z</time></trkpt><trkpt lat="44.48405" lon="9.24286"><ele>1101.0</ele><time>2026-03-27T12:59:21.648Z</time></trkpt><trkpt lat="44.4839533" lon="9.24292"><ele>1100.0</ele><time>2026-03-27T12:59:22.647Z</time></trkpt><trkpt lat="44.483875" lon="9.2429983"><ele>1099.0</ele><time>2026-03-27T12:59:23.646Z</time></trkpt><trkpt lat="44.4838117" lon="9.2430817"><ele>1099.5</ele><time>2026-03-27T12:59:24.647Z</time></trkpt><trkpt lat="44.4837517" lon="9.2431517"><ele>1100.0</ele><time>2026-03-27T12:59:25.646Z</time></trkpt><trkpt lat="44.4836883" lon="9.2432067"><ele>1100.5</ele><time>2026-03-27T12:59:26.647Z</time></trkpt><trkpt lat="44.48361" lon="9.2432167"><ele>1101.0</ele><time>2026-03-27T12:59:27.65Z</time></trkpt><trkpt lat="44.483525" lon="9.2431933"><ele>1101.5</ele><time>2026-03-27T12:59:28.647Z</time></trkpt><trkpt lat="44.4834417" lon="9.24314"><ele>1102.0</ele><time>2026-03-27T12:59:29.648Z</time></trkpt><trkpt lat="44.4833583" lon="9.24309"><ele>1102.0</ele><time>2026-03-27T12:59:30.647Z</time></trkpt><trkpt lat="44.483275" lon="9.243045"><ele>1102.0</ele><time>2026-03-27T12:59:31.649Z</time></trkpt><trkpt lat="44.4831933" lon="9.2430017"><ele>1102.0</ele><time>2026-03-27T12:59:32.654Z</time></trkpt><trkpt lat="44.483105" lon="9.2429617"><ele>1102.0</ele><time>2026-03-27T12:59:33.646Z</time></trkpt><trkpt lat="44.483015" lon="9.24293"><ele>1102.0</ele><time>2026-03-27T12:59:34.646Z</time></trkpt><trkpt lat="44.482925" lon="9.2428967"><ele>1104.6</ele><time>2026-03-27T12:59:35.647Z</time></trkpt><trkpt lat="44.4828333" lon="9.242855"><ele>1107.2</ele><time>2026-03-27T12:59:36.647Z</time></trkpt><trkpt lat="44.4827367" lon="9.242805"><ele>1109.8</ele><time>2026-03-27T12:59:37.65Z</time></trkpt><trkpt lat="44.4826317" lon="9.24275"><ele>1112.4</ele><time>2026-03-27T12:59:38.646Z</time></trkpt><trkpt lat="44.4825183" lon="9.2426933"><ele>1115.0</ele><time>2026-03-27T12:59:39.646Z</time></trkpt><trkpt lat="44.4824017" lon="9.2426417"><ele>1115.0</ele><time>2026-03-27T12:59:40.647Z</time></trkpt><trkpt lat="44.4822917" lon="9.2425967"><ele>1115.0</ele><time>2026-03-27T12:59:41.648Z</time></trkpt><trkpt lat="44.4821833" lon="9.2425583"><ele>1115.0</ele><time>2026-03-27T12:59:42.654Z</time></trkpt><trkpt lat="44.4820817" lon="9.2425217"><ele>1115.0</ele><time>2026-03-27T12:59:43.647Z</time></trkpt><trkpt lat="44.481985" lon="9.24249"><ele>1115.0</ele><time>2026-03-27T12:59:44.646Z</time></trkpt><trkpt lat="44.4818967" lon="9.2424567"><ele>1116.5</ele><time>2026-03-27T12:59:45.647Z</time></trkpt><trkpt lat="44.4818183" lon="9.24243"><ele>1118.0</ele><time>2026-03-27T12:59:46.646Z</time></trkpt><trkpt lat="44.4817417" lon="9.24241"><ele>1119.5</ele><time>2026-03-27T12:59:47.648Z</time></trkpt><trkpt lat="44.4816633" lon="9.2423833"><ele>1121.0</ele><time>2026-03-27T12:59:48.648Z</time></trkpt><trkpt lat="44.481585" lon="9.2423533"><ele>1122.5</ele><time>2026-03-27T12:59:49.651Z</time></trkpt><trkpt lat="44.4815033" lon="9.2423217"><ele>1124.0</ele><time>2026-03-27T12:59:50.649Z</time></trkpt><trkpt lat="44.4814233" lon="9.2422817"><ele>1122.2</ele><time>2026-03-27T12:59:51.651Z</time></trkpt><trkpt lat="44.4813383" lon="9.2422317"><ele>1120.4</ele><time>2026-03-27T12:59:52.648Z</time></trkpt><trkpt lat="44.4812383" lon="9.24216"><ele>1118.6</ele><time>2026-03-27T12:59:53.648Z</time></trkpt><trkpt lat="44.4811433" lon="9.2420683"><ele>1116.8</ele><time>2026-03-27T12:59:54.649Z</time></trkpt><trkpt lat="44.4810533" lon="9.2419617"><ele>1115.0</ele><time>2026-03-27T12:59:55.649Z</time></trkpt><trkpt lat="44.4809783" lon="9.2418367"><ele>1115.0</ele><time>2026-03-27T12:59:56.646Z</time></trkpt><trkpt lat="44.4809083" lon="9.241695"><ele>1115.0</ele><time>2026-03-27T12:59:57.648Z</time></trkpt><trkpt lat="44.4808367" lon="9.24154"><ele>1115.0</ele><time>2026-03-27T12:59:58.648Z</time></trkpt><trkpt lat="44.4807633" lon="9.24138"><ele>1115.0</ele><time>2026-03-27T12:59:59.648Z</time></trkpt><trkpt lat="44.4806967" lon="9.241235"><ele>1113.0</ele><time>2026-03-27T13:00:00.647Z</time></trkpt><trkpt lat="44.4806317" lon="9.2411"><ele>1111.0</ele><time>2026-03-27T13:00:01.649Z</time></trkpt><trkpt lat="44.48058" lon="9.240975"><ele>1109.0</ele><time>2026-03-27T13:00:02.649Z</time></trkpt><trkpt lat="44.4805383" lon="9.2408467"><ele>1107.0</ele><time>2026-03-27T13:00:03.648Z</time></trkpt><trkpt lat="44.4804933" lon="9.2407183"><ele>1105.0</ele><time>2026-03-27T13:00:04.647Z</time></trkpt><trkpt lat="44.4804467" lon="9.24061"><ele>1104.4</ele><time>2026-03-27T13:00:05.65Z</time></trkpt><trkpt lat="44.4804033" lon="9.2405067"><ele>1103.8</ele><time>2026-03-27T13:00:06.648Z</time></trkpt><trkpt lat="44.4803633" lon="9.2404117"><ele>1103.2</ele><time>2026-03-27T13:00:07.647Z</time></trkpt><trkpt lat="44.480325" lon="9.2403317"><ele>1102.6</ele><time>2026-03-27T13:00:08.648Z</time></trkpt><trkpt lat="44.4802783" lon="9.2402467"><ele>1102.0</ele><time>2026-03-27T13:00:10.648Z</time></trkpt><trkpt lat="44.48019" lon="9.2400717"><ele>1102.0</ele><time>2026-03-27T13:20:51.648Z</time></trkpt><trkpt lat="44.4801417" lon="9.239965"><ele>1102.0</ele><time>2026-03-27T13:20:54.646Z</time></trkpt><trkpt lat="44.4800867" lon="9.2398583"><ele>1102.0</ele><time>2026-03-27T13:20:56.647Z</time></trkpt><trkpt lat="44.480025" lon="9.239735"><ele>1102.0</ele><time>2026-03-27T13:20:58.647Z</time></trkpt><trkpt lat="44.4799683" lon="9.239575"><ele>1102.0</ele><time>2026-03-27T13:21:00.648Z</time></trkpt><trkpt lat="44.4799517" lon="9.239485"><ele>1102.8333333333333</ele><time>2026-03-27T13:21:01.647Z</time></trkpt><trkpt lat="44.47992" lon="9.2393233"><ele>1103.6666666666665</ele><time>2026-03-27T13:21:03.648Z</time></trkpt><trkpt lat="44.4798967" lon="9.2392383"><ele>1104.5</ele><time>2026-03-27T13:21:04.647Z</time></trkpt><trkpt lat="44.479875" lon="9.2391483"><ele>1105.3333333333333</ele><time>2026-03-27T13:21:05.648Z</time></trkpt><trkpt lat="44.4798483" lon="9.239065"><ele>1106.1666666666667</ele><time>2026-03-27T13:21:06.647Z</time></trkpt><trkpt lat="44.479815" lon="9.238985"><ele>1107.0</ele><time>2026-03-27T13:21:07.649Z</time></trkpt><trkpt lat="44.4797883" lon="9.2389"><ele>1107.0</ele><time>2026-03-27T13:21:08.648Z</time></trkpt><trkpt lat="44.47976" lon="9.2388167"><ele>1107.0</ele><time>2026-03-27T13:21:09.648Z</time></trkpt><trkpt lat="44.4797317" lon="9.238725"><ele>1107.0</ele><time>2026-03-27T13:21:10.646Z</time></trkpt><trkpt lat="44.4796983" lon="9.238635"><ele>1107.0</ele><time>2026-03-27T13:21:11.648Z</time></trkpt><trkpt lat="44.4796667" lon="9.2385383"><ele>1107.0</ele><time>2026-03-27T13:21:12.647Z</time></trkpt><trkpt lat="44.4796317" lon="9.2384417"><ele>1107.0</ele><time>2026-03-27T13:21:13.648Z</time></trkpt><trkpt lat="44.479585" lon="9.238345"><ele>1107.0</ele><time>2026-03-27T13:21:14.648Z</time></trkpt><trkpt lat="44.4795283" lon="9.2382467"><ele>1108.5</ele><time>2026-03-27T13:21:15.648Z</time></trkpt><trkpt lat="44.4794683" lon="9.23816"><ele>1110.0</ele><time>2026-03-27T13:21:16.646Z</time></trkpt><trkpt lat="44.4794083" lon="9.2380867"><ele>1111.5</ele><time>2026-03-27T13:21:17.647Z</time></trkpt><trkpt lat="44.4793483" lon="9.2380217"><ele>1113.0</ele><time>2026-03-27T13:21:18.648Z</time></trkpt><trkpt lat="44.4792883" lon="9.2379583"><ele>1114.5</ele><time>2026-03-27T13:21:19.65Z</time></trkpt><trkpt lat="44.4792267" lon="9.2378967"><ele>1116.0</ele><time>2026-03-27T13:21:20.65Z</time></trkpt><trkpt lat="44.4791683" lon="9.23784"><ele>1116.0</ele><time>2026-03-27T13:21:21.649Z</time></trkpt><trkpt lat="44.4791133" lon="9.2377817"><ele>1116.0</ele><time>2026-03-27T13:21:22.649Z</time></trkpt><trkpt lat="44.47901" lon="9.23768"><ele>1116.0</ele><time>2026-03-27T13:21:24.648Z</time></trkpt><trkpt lat="44.478955" lon="9.23763"><ele>1116.0</ele><time>2026-03-27T13:21:25.646Z</time></trkpt><trkpt lat="44.4789" lon="9.2375667"><ele>1116.0</ele><time>2026-03-27T13:21:26.649Z</time></trkpt><trkpt lat="44.4788417" lon="9.237485"><ele>1116.0</ele><time>2026-03-27T13:21:27.647Z</time></trkpt><trkpt lat="44.47878" lon="9.2373817"><ele>1114.8333333333333</ele><time>2026-03-27T13:21:28.648Z</time></trkpt><trkpt lat="44.4787233" lon="9.2372767"><ele>1113.6666666666667</ele><time>2026-03-27T13:21:29.646Z</time></trkpt><trkpt lat="44.47867" lon="9.2371783"><ele>1112.5</ele><time>2026-03-27T13:21:30.646Z</time></trkpt><trkpt lat="44.47862" lon="9.2370933"><ele>1111.3333333333335</ele><time>2026-03-27T13:21:31.648Z</time></trkpt><trkpt lat="44.478575" lon="9.2370267"><ele>1110.1666666666667</ele><time>2026-03-27T13:21:32.648Z</time></trkpt><trkpt lat="44.4785133" lon="9.2369483"><ele>1109.0</ele><time>2026-03-27T13:21:34.649Z</time></trkpt><trkpt lat="44.4784667" lon="9.2368617"><ele>1109.0</ele><time>2026-03-27T13:21:56.65Z</time></trkpt><trkpt lat="44.4784" lon="9.2368167"><ele>1109.0</ele><time>2026-03-27T13:21:58.648Z</time></trkpt><trkpt lat="44.4783183" lon="9.2367833"><ele>1109.0</ele><time>2026-03-27T13:22:00.648Z</time></trkpt><trkpt lat="44.4782517" lon="9.2367983"><ele>1109.0</ele><time>2026-03-27T13:22:02.65Z</time></trkpt><trkpt lat="44.478185" lon="9.2368117"><ele>1109.0</ele><time>2026-03-27T13:22:04.648Z</time></trkpt><trkpt lat="44.4781017" lon="9.236825"><ele>1109.0</ele><time>2026-03-27T13:22:07.646Z</time></trkpt><trkpt lat="44.4780217" lon="9.236825"><ele>1109.0</ele><time>2026-03-27T13:22:11.648Z</time></trkpt><trkpt lat="44.477955" lon="9.2368333"><ele>1109.0</ele><time>2026-03-27T13:22:29.647Z</time></trkpt><trkpt lat="44.4778267" lon="9.2368617"><ele>1109.0</ele><time>2026-03-27T13:22:31.649Z</time></trkpt><trkpt lat="44.47774" lon="9.2368917"><ele>1109.0</ele><time>2026-03-27T13:22:32.647Z</time></trkpt><trkpt lat="44.47765" lon="9.2369167"><ele>1109.0</ele><time>2026-03-27T13:22:33.647Z</time></trkpt><trkpt lat="44.47757" lon="9.2369417"><ele>1109.3333333333335</ele><time>2026-03-27T13:22:34.647Z</time></trkpt><trkpt lat="44.4774933" lon="9.236975"><ele>1109.6666666666667</ele><time>2026-03-27T13:22:35.647Z</time></trkpt><trkpt lat="44.4774133" lon="9.2370083"><ele>1110.0</ele><time>2026-03-27T13:22:36.648Z</time></trkpt><trkpt lat="44.4773317" lon="9.237035"><ele>1110.3333333333333</ele><time>2026-03-27T13:22:37.647Z</time></trkpt><trkpt lat="44.4772467" lon="9.237055"><ele>1110.6666666666665</ele><time>2026-03-27T13:22:38.648Z</time></trkpt><trkpt lat="44.4771617" lon="9.2370417"><ele>1111.0</ele><time>2026-03-27T13:22:39.647Z</time></trkpt><trkpt lat="44.47708" lon="9.23701"><ele>1111.0</ele><time>2026-03-27T13:22:40.646Z</time></trkpt><trkpt lat="44.477005" lon="9.23695"><ele>1111.0</ele><time>2026-03-27T13:22:41.647Z</time></trkpt><trkpt lat="44.4769217" lon="9.2368883"><ele>1111.0</ele><time>2026-03-27T13:22:42.647Z</time></trkpt><trkpt lat="44.4768467" lon="9.2368217"><ele>1111.0</ele><time>2026-03-27T13:22:43.647Z</time></trkpt><trkpt lat="44.4767767" lon="9.236755"><ele>1111.0</ele><time>2026-03-27T13:22:44.651Z</time></trkpt><trkpt lat="44.476715" lon="9.236685"><ele>1111.0</ele><time>2026-03-27T13:22:45.647Z</time></trkpt><trkpt lat="44.4766483" lon="9.2366383"><ele>1111.0</ele><time>2026-03-27T13:22:46.649Z</time></trkpt><trkpt lat="44.47657" lon="9.2366167"><ele>1111.0</ele><time>2026-03-27T13:22:47.655Z</time></trkpt><trkpt lat="44.47647" lon="9.2366167"><ele>1111.0</ele><time>2026-03-27T13:22:48.649Z</time></trkpt><trkpt lat="44.4763573" lon="9.2366192"><ele>1111.0</ele><time>2026-03-27T13:22:49.648Z</time></trkpt><trkpt lat="44.4762464" lon="9.2365828"><ele>1111.0</ele><time>2026-03-27T13:22:50.648Z</time></trkpt><trkpt lat="44.476151" lon="9.2365032"><ele>1109.5</ele><time>2026-03-27T13:22:51.65Z</time></trkpt><trkpt lat="44.4760764" lon="9.2364225"><ele>1108.0</ele><time>2026-03-27T13:22:52.648Z</time></trkpt><trkpt lat="44.4760015" lon="9.2363705"><ele>1106.5</ele><time>2026-03-27T13:22:53.649Z</time></trkpt><trkpt lat="44.4759231" lon="9.2363551"><ele>1105.0</ele><time>2026-03-27T13:22:54.647Z</time></trkpt><trkpt lat="44.4758382" lon="9.2363812"><ele>1103.5</ele><time>2026-03-27T13:22:55.649Z</time></trkpt><trkpt lat="44.4757652" lon="9.2364448"><ele>1102.0</ele><time>2026-03-27T13:22:56.651Z</time></trkpt><trkpt lat="44.4757057" lon="9.2365215"><ele>1102.0</ele><time>2026-03-27T13:22:57.65Z</time></trkpt><trkpt lat="44.4756474" lon="9.2365878"><ele>1102.0</ele><time>2026-03-27T13:22:58.649Z</time></trkpt><trkpt lat="44.4755829" lon="9.2366336"><ele>1102.0</ele><time>2026-03-27T13:22:59.647Z</time></trkpt><trkpt lat="44.4755073" lon="9.2366763"><ele>1102.0</ele><time>2026-03-27T13:23:00.649Z</time></trkpt><trkpt lat="44.4754278" lon="9.236729"><ele>1102.0</ele><time>2026-03-27T13:23:01.651Z</time></trkpt><trkpt lat="44.4753505" lon="9.2367917"><ele>1102.0</ele><time>2026-03-27T13:23:02.648Z</time></trkpt><trkpt lat="44.4752732" lon="9.2368661"><ele>1101.25</ele><time>2026-03-27T13:23:03.649Z</time></trkpt><trkpt lat="44.4751942" lon="9.2369596"><ele>1100.5</ele><time>2026-03-27T13:23:04.649Z</time></trkpt><trkpt lat="44.4751166" lon="9.2370917"><ele>1099.75</ele><time>2026-03-27T13:23:05.648Z</time></trkpt><trkpt lat="44.4750397" lon="9.2372456"><ele>1099.0</ele><time>2026-03-27T13:23:06.65Z</time></trkpt><trkpt lat="44.4749616" lon="9.2374036"><ele>1099.0</ele><time>2026-03-27T13:23:07.647Z</time></trkpt><trkpt lat="44.4748977" lon="9.2375455"><ele>1099.0</ele><time>2026-03-27T13:23:08.647Z</time></trkpt><trkpt lat="44.4748533" lon="9.2376659"><ele>1099.0</ele><time>2026-03-27T13:23:09.648Z</time></trkpt><trkpt lat="44.4748247" lon="9.2377673"><ele>1099.0</ele><time>2026-03-27T13:23:10.648Z</time></trkpt><trkpt lat="44.474802" lon="9.2378561"><ele>1099.0</ele><time>2026-03-27T13:23:11.648Z</time></trkpt><trkpt lat="44.4747481" lon="9.2379716"><ele>1099.0</ele><time>2026-03-27T13:23:13.648Z</time></trkpt><trkpt lat="44.4747008" lon="9.2380426"><ele>1099.0</ele><time>2026-03-27T13:23:15.647Z</time></trkpt><trkpt lat="44.4746301" lon="9.2381104"><ele>1099.0</ele><time>2026-03-27T13:23:17.65Z</time></trkpt><trkpt lat="44.4745498" lon="9.2381641"><ele>1099.0</ele><time>2026-03-27T13:23:19.648Z</time></trkpt><trkpt lat="44.4744666" lon="9.2382105"><ele>1099.0</ele><time>2026-03-27T13:23:21.649Z</time></trkpt><trkpt lat="44.4744046" lon="9.2382548"><ele>1099.0</ele><time>2026-03-27T13:23:23.648Z</time></trkpt><trkpt lat="44.4743066" lon="9.2382904"><ele>1099.6000000000001</ele><time>2026-03-27T13:23:26.649Z</time></trkpt><trkpt lat="44.4742299" lon="9.2383058"><ele>1100.2</ele><time>2026-03-27T13:23:28.652Z</time></trkpt><trkpt lat="44.4741409" lon="9.2383288"><ele>1100.8000000000002</ele><time>2026-03-27T13:23:30.649Z</time></trkpt><trkpt lat="44.4740487" lon="9.2383526"><ele>1101.4</ele><time>2026-03-27T13:23:32.649Z</time></trkpt><trkpt lat="44.4739516" lon="9.2383844"><ele>1102.0</ele><time>2026-03-27T13:23:34.647Z</time></trkpt><trkpt lat="44.4738426" lon="9.2384117"><ele>1100.25</ele><time>2026-03-27T13:23:36.649Z</time></trkpt><trkpt lat="44.473721" lon="9.2384324"><ele>1098.5</ele><time>2026-03-27T13:23:38.649Z</time></trkpt><trkpt lat="44.4736066" lon="9.2384601"><ele>1096.75</ele><time>2026-03-27T13:23:40.648Z</time></trkpt><trkpt lat="44.4735116" lon="9.2385195"><ele>1095.0</ele><time>2026-03-27T13:23:42.648Z</time></trkpt><trkpt lat="44.4734098" lon="9.2386139"><ele>1095.0</ele><time>2026-03-27T13:23:44.648Z</time></trkpt><trkpt lat="44.4733491" lon="9.2386606"><ele>1095.0</ele><time>2026-03-27T13:23:45.647Z</time></trkpt><trkpt lat="44.4732692" lon="9.2386863"><ele>1095.0</ele><time>2026-03-27T13:23:46.648Z</time></trkpt><trkpt lat="44.4731904" lon="9.2386917"><ele>1095.0</ele><time>2026-03-27T13:23:47.649Z</time></trkpt><trkpt lat="44.4731046" lon="9.238686"><ele>1095.0</ele><time>2026-03-27T13:23:48.649Z</time></trkpt><trkpt lat="44.4730116" lon="9.2386699"><ele>1095.0</ele><time>2026-03-27T13:23:49.648Z</time></trkpt><trkpt lat="44.4729221" lon="9.2386474"><ele>1092.4</ele><time>2026-03-27T13:23:50.65Z</time></trkpt><trkpt lat="44.472829" lon="9.2386217"><ele>1089.8</ele><time>2026-03-27T13:23:51.649Z</time></trkpt><trkpt lat="44.4727186" lon="9.2385976"><ele>1087.2</ele><time>2026-03-27T13:23:52.649Z</time></trkpt><trkpt lat="44.4726098" lon="9.238568"><ele>1084.6</ele><time>2026-03-27T13:23:53.649Z</time></trkpt><trkpt lat="44.4725131" lon="9.2385425"><ele>1082.0</ele><time>2026-03-27T13:23:54.647Z</time></trkpt><trkpt lat="44.4724238" lon="9.2385225"><ele>1082.0000000000002</ele><time>2026-03-27T13:23:55.649Z</time></trkpt><trkpt lat="44.4723496" lon="9.2385084"><ele>1082.0</ele><time>2026-03-27T13:23:56.647Z</time></trkpt><trkpt lat="44.4722757" lon="9.2385164"><ele>1082.0</ele><time>2026-03-27T13:23:57.648Z</time></trkpt><trkpt lat="44.4722046" lon="9.2385472"><ele>1082.0</ele><time>2026-03-27T13:23:58.649Z</time></trkpt><trkpt lat="44.4721397" lon="9.2385937"><ele>1082.0</ele><time>2026-03-27T13:23:59.652Z</time></trkpt><trkpt lat="44.4720757" lon="9.238642"><ele>1082.0000000000002</ele><time>2026-03-27T13:24:00.648Z</time></trkpt><trkpt lat="44.4720126" lon="9.2386839"><ele>1082.0</ele><time>2026-03-27T13:24:01.654Z</time></trkpt><trkpt lat="44.4719607" lon="9.2387525"><ele>1079.6666666666667</ele><time>2026-03-27T13:24:02.648Z</time></trkpt><trkpt lat="44.471927" lon="9.2388469"><ele>1077.3333333333335</ele><time>2026-03-27T13:24:03.649Z</time></trkpt><trkpt lat="44.4718979" lon="9.2389481"><ele>1075.0</ele><time>2026-03-27T13:24:04.648Z</time></trkpt><trkpt lat="44.4718715" lon="9.2390503"><ele>1072.6666666666667</ele><time>2026-03-27T13:24:05.651Z</time></trkpt><trkpt lat="44.4718446" lon="9.2391483"><ele>1070.3333333333333</ele><time>2026-03-27T13:24:06.649Z</time></trkpt><trkpt lat="44.471813" lon="9.2392447"><ele>1068.0</ele><time>2026-03-27T13:24:07.648Z</time></trkpt><trkpt lat="44.4717751" lon="9.2393365"><ele>1068.0</ele><time>2026-03-27T13:24:08.65Z</time></trkpt><trkpt lat="44.4717332" lon="9.2394261"><ele>1068.0</ele><time>2026-03-27T13:24:09.648Z</time></trkpt><trkpt lat="44.4716863" lon="9.2395111"><ele>1068.0</ele><time>2026-03-27T13:24:10.647Z</time></trkpt><trkpt lat="44.471637" lon="9.2395956"><ele>1068.0</ele><time>2026-03-27T13:24:11.648Z</time></trkpt><trkpt lat="44.4715836" lon="9.2396833"><ele>1068.0</ele><time>2026-03-27T13:24:12.647Z</time></trkpt><trkpt lat="44.4715255" lon="9.239779"><ele>1068.0</ele><time>2026-03-27T13:24:13.647Z</time></trkpt><trkpt lat="44.4714655" lon="9.2398813"><ele>1068.0</ele><time>2026-03-27T13:24:14.647Z</time></trkpt><trkpt lat="44.4714176" lon="9.2399936"><ele>1068.0</ele><time>2026-03-27T13:24:15.648Z</time></trkpt><trkpt lat="44.4713915" lon="9.2401025"><ele>1068.0</ele><time>2026-03-27T13:24:16.649Z</time></trkpt><trkpt lat="44.4713881" lon="9.2402035"><ele>1068.0</ele><time>2026-03-27T13:24:17.648Z</time></trkpt><trkpt lat="44.4714882" lon="9.2402797"><ele>1068.0</ele><time>2026-03-27T13:24:19.649Z</time></trkpt><trkpt lat="44.4715714" lon="9.2402521"><ele>1068.0</ele><time>2026-03-27T13:24:20.649Z</time></trkpt><trkpt lat="44.471662" lon="9.2402018"><ele>1068.0</ele><time>2026-03-27T13:24:21.648Z</time></trkpt><trkpt lat="44.4717452" lon="9.2401401"><ele>1068.0</ele><time>2026-03-27T13:24:22.652Z</time></trkpt><trkpt lat="44.4718131" lon="9.240082"><ele>1068.0</ele><time>2026-03-27T13:24:23.649Z</time></trkpt><trkpt lat="44.4718724" lon="9.2400397"><ele>1068.0</ele><time>2026-03-27T13:24:24.647Z</time></trkpt><trkpt lat="44.4719943" lon="9.2400051"><ele>1068.0</ele><time>2026-03-27T13:24:26.647Z</time></trkpt><trkpt lat="44.4721035" lon="9.2400579"><ele>1070.2</ele><time>2026-03-27T13:24:28.646Z</time></trkpt><trkpt lat="44.472189" lon="9.2401414"><ele>1072.4</ele><time>2026-03-27T13:24:30.647Z</time></trkpt><trkpt lat="44.4722775" lon="9.2401988"><ele>1074.6000000000001</ele><time>2026-03-27T13:24:32.646Z</time></trkpt><trkpt lat="44.4723727" lon="9.2402298"><ele>1076.8</ele><time>2026-03-27T13:24:34.646Z</time></trkpt><trkpt lat="44.4724789" lon="9.240256"><ele>1079.0</ele><time>2026-03-27T13:24:36.647Z</time></trkpt><trkpt lat="44.4725859" lon="9.2402763"><ele>1079.0</ele><time>2026-03-27T13:24:38.646Z</time></trkpt><trkpt lat="44.4727042" lon="9.2403034"><ele>1079.0</ele><time>2026-03-27T13:24:40.646Z</time></trkpt><trkpt lat="44.4727715" lon="9.2403228"><ele>1079.0</ele><time>2026-03-27T13:24:41.646Z</time></trkpt><trkpt lat="44.4728375" lon="9.2403418"><ele>1079.0</ele><time>2026-03-27T13:24:42.646Z</time></trkpt><trkpt lat="44.4728983" lon="9.2403667"><ele>1079.0</ele><time>2026-03-27T13:24:43.646Z</time></trkpt><trkpt lat="44.4729767" lon="9.2404933"><ele>1079.0</ele><time>2026-03-27T13:24:45.646Z</time></trkpt><trkpt lat="44.4729933" lon="9.2406083"><ele>1079.0</ele><time>2026-03-27T13:24:46.646Z</time></trkpt><trkpt lat="44.4730183" lon="9.24073"><ele>1079.0</ele><time>2026-03-27T13:24:47.646Z</time></trkpt><trkpt lat="44.473055" lon="9.24085"><ele>1079.0</ele><time>2026-03-27T13:24:48.647Z</time></trkpt><trkpt lat="44.473085" lon="9.2409483"><ele>1079.0</ele><time>2026-03-27T13:24:49.646Z</time></trkpt><trkpt lat="44.473115" lon="9.24111"><ele>1079.0</ele><time>2026-03-27T13:24:51.647Z</time></trkpt><trkpt lat="44.473105" lon="9.2412017"><ele>1079.0</ele><time>2026-03-27T13:24:52.648Z</time></trkpt><trkpt lat="44.4730817" lon="9.2412967"><ele>1079.0</ele><time>2026-03-27T13:24:53.646Z</time></trkpt><trkpt lat="44.47305" lon="9.2413867"><ele>1079.0</ele><time>2026-03-27T13:24:54.646Z</time></trkpt><trkpt lat="44.4730233" lon="9.2414717"><ele>1079.0</ele><time>2026-03-27T13:24:55.645Z</time></trkpt><trkpt lat="44.4730117" lon="9.2415733"><ele>1079.0</ele><time>2026-03-27T13:24:56.647Z</time></trkpt><trkpt lat="44.4730067" lon="9.241675"><ele>1079.0</ele><time>2026-03-27T13:24:57.649Z</time></trkpt><trkpt lat="44.4730417" lon="9.2417717"><ele>1079.0</ele><time>2026-03-27T13:24:58.646Z</time></trkpt><trkpt lat="44.4731217" lon="9.2418683"><ele>1077.1666666666667</ele><time>2026-03-27T13:24:59.646Z</time></trkpt><trkpt lat="44.4732017" lon="9.2419583"><ele>1075.3333333333335</ele><time>2026-03-27T13:25:00.651Z</time></trkpt><trkpt lat="44.4732633" lon="9.2420617"><ele>1073.5</ele><time>2026-03-27T13:25:01.647Z</time></trkpt><trkpt lat="44.4732983" lon="9.24217"><ele>1071.6666666666667</ele><time>2026-03-27T13:25:02.649Z</time></trkpt><trkpt lat="44.4733133" lon="9.2422767"><ele>1069.8333333333333</ele><time>2026-03-27T13:25:03.646Z</time></trkpt><trkpt lat="44.4733217" lon="9.2423883"><ele>1068.0</ele><time>2026-03-27T13:25:04.646Z</time></trkpt><trkpt lat="44.4733183" lon="9.2425083"><ele>1066.0</ele><time>2026-03-27T13:25:05.646Z</time></trkpt><trkpt lat="44.4732967" lon="9.2426083"><ele>1064.0</ele><time>2026-03-27T13:25:06.646Z</time></trkpt><trkpt lat="44.47325" lon="9.2427033"><ele>1062.0</ele><time>2026-03-27T13:25:07.646Z</time></trkpt><trkpt lat="44.4731967" lon="9.2427917"><ele>1060.0</ele><time>2026-03-27T13:25:08.648Z</time></trkpt><trkpt lat="44.47316" lon="9.2428767"><ele>1058.0</ele><time>2026-03-27T13:25:09.646Z</time></trkpt><trkpt lat="44.4731417" lon="9.2429633"><ele>1056.0</ele><time>2026-03-27T13:25:10.646Z</time></trkpt><trkpt lat="44.473165" lon="9.243125"><ele>1054.5</ele><time>2026-03-27T13:25:12.648Z</time></trkpt><trkpt lat="44.473215" lon="9.2431933"><ele>1053.0</ele><time>2026-03-27T13:25:13.647Z</time></trkpt><trkpt lat="44.4732717" lon="9.24326"><ele>1051.5</ele><time>2026-03-27T13:25:14.647Z</time></trkpt><trkpt lat="44.4733267" lon="9.2433333"><ele>1050.0</ele><time>2026-03-27T13:25:15.646Z</time></trkpt><trkpt lat="44.4733783" lon="9.2434167"><ele>1048.5</ele><time>2026-03-27T13:25:16.648Z</time></trkpt><trkpt lat="44.4734183" lon="9.2435133"><ele>1047.0</ele><time>2026-03-27T13:25:17.648Z</time></trkpt><trkpt lat="44.47344" lon="9.2436183"><ele>1047.0</ele><time>2026-03-27T13:25:18.647Z</time></trkpt><trkpt lat="44.4734467" lon="9.2437217"><ele>1047.0</ele><time>2026-03-27T13:25:19.647Z</time></trkpt><trkpt lat="44.47345" lon="9.2438267"><ele>1047.0</ele><time>2026-03-27T13:25:20.647Z</time></trkpt><trkpt lat="44.4734583" lon="9.2439417"><ele>1047.0</ele><time>2026-03-27T13:25:21.646Z</time></trkpt><trkpt lat="44.4734733" lon="9.2440733"><ele>1047.0</ele><time>2026-03-27T13:25:22.648Z</time></trkpt><trkpt lat="44.4734867" lon="9.244205"><ele>1047.0</ele><time>2026-03-27T13:25:23.648Z</time></trkpt><trkpt lat="44.4735" lon="9.24431"><ele>1044.2</ele><time>2026-03-27T13:25:24.648Z</time></trkpt><trkpt lat="44.4735167" lon="9.2444683"><ele>1041.4</ele><time>2026-03-27T13:25:26.648Z</time></trkpt><trkpt lat="44.4735317" lon="9.244605"><ele>1038.6</ele><time>2026-03-27T13:25:28.646Z</time></trkpt><trkpt lat="44.4735117" lon="9.2447567"><ele>1035.8</ele><time>2026-03-27T13:25:30.646Z</time></trkpt><trkpt lat="44.4734867" lon="9.24484"><ele>1033.0</ele><time>2026-03-27T13:25:31.646Z</time></trkpt><trkpt lat="44.47344" lon="9.24492"><ele>1033.0</ele><time>2026-03-27T13:25:32.646Z</time></trkpt><trkpt lat="44.4733917" lon="9.24498"><ele>1033.0</ele><time>2026-03-27T13:25:33.646Z</time></trkpt><trkpt lat="44.4732783" lon="9.2450033"><ele>1033.0</ele><time>2026-03-27T13:25:35.646Z</time></trkpt><trkpt lat="44.4732183" lon="9.24487"><ele>1033.0</ele><time>2026-03-27T13:25:37.646Z</time></trkpt><trkpt lat="44.4732283" lon="9.244735"><ele>1033.0</ele><time>2026-03-27T13:25:38.647Z</time></trkpt><trkpt lat="44.4732517" lon="9.2446033"><ele>1033.0</ele><time>2026-03-27T13:25:39.648Z</time></trkpt><trkpt lat="44.473265" lon="9.2444767"><ele>1033.0</ele><time>2026-03-27T13:25:40.646Z</time></trkpt><trkpt lat="44.4732633" lon="9.2443383"><ele>1033.0</ele><time>2026-03-27T13:25:41.648Z</time></trkpt><trkpt lat="44.4732483" lon="9.2441867"><ele>1033.0</ele><time>2026-03-27T13:25:42.646Z</time></trkpt><trkpt lat="44.473235" lon="9.2440267"><ele>1033.0</ele><time>2026-03-27T13:25:43.647Z</time></trkpt><trkpt lat="44.473225" lon="9.2438883"><ele>1035.8</ele><time>2026-03-27T13:25:44.646Z</time></trkpt><trkpt lat="44.4732033" lon="9.2437633"><ele>1038.6</ele><time>2026-03-27T13:25:45.647Z</time></trkpt><trkpt lat="44.4731517" lon="9.243665"><ele>1041.4</ele><time>2026-03-27T13:25:46.647Z</time></trkpt><trkpt lat="44.473075" lon="9.2435833"><ele>1044.2</ele><time>2026-03-27T13:25:47.646Z</time></trkpt><trkpt lat="44.4729783" lon="9.243535"><ele>1047.0</ele><time>2026-03-27T13:25:48.647Z</time></trkpt><trkpt lat="44.472875" lon="9.24351"><ele>1041.6666666666667</ele><time>2026-03-27T13:25:49.646Z</time></trkpt><trkpt lat="44.4727733" lon="9.243505"><ele>1036.3333333333333</ele><time>2026-03-27T13:25:50.648Z</time></trkpt><trkpt lat="44.4726917" lon="9.2434717"><ele>1031.0</ele><time>2026-03-27T13:25:51.646Z</time></trkpt><trkpt lat="44.4726233" lon="9.243415"><ele>1025.6666666666665</ele><time>2026-03-27T13:25:52.647Z</time></trkpt><trkpt lat="44.4725917" lon="9.2433217"><ele>1020.3333333333333</ele><time>2026-03-27T13:25:53.647Z</time></trkpt><trkpt lat="44.4725967" lon="9.2431917"><ele>1015.0</ele><time>2026-03-27T13:25:54.65Z</time></trkpt><trkpt lat="44.4726283" lon="9.2430533"><ele>1015.0</ele><time>2026-03-27T13:25:55.65Z</time></trkpt><trkpt lat="44.4726767" lon="9.2429183"><ele>1015.0</ele><time>2026-03-27T13:25:56.647Z</time></trkpt><trkpt lat="44.4727133" lon="9.24278"><ele>1015.0</ele><time>2026-03-27T13:25:57.647Z</time></trkpt><trkpt lat="44.4727267" lon="9.2426467"><ele>1015.0</ele><time>2026-03-27T13:25:58.649Z</time></trkpt><trkpt lat="44.4727067" lon="9.24252"><ele>1015.0</ele><time>2026-03-27T13:25:59.646Z</time></trkpt><trkpt lat="44.4726683" lon="9.2424017"><ele>1015.0</ele><time>2026-03-27T13:26:00.646Z</time></trkpt><trkpt lat="44.4726083" lon="9.2423"><ele>1015.0</ele><time>2026-03-27T13:26:01.646Z</time></trkpt><trkpt lat="44.4725117" lon="9.24223"><ele>1015.0</ele><time>2026-03-27T13:26:02.647Z</time></trkpt><trkpt lat="44.472415" lon="9.242165"><ele>1015.0</ele><time>2026-03-27T13:26:03.646Z</time></trkpt><trkpt lat="44.472345" lon="9.2420783"><ele>1015.0</ele><time>2026-03-27T13:26:04.647Z</time></trkpt><trkpt lat="44.472295" lon="9.2419967"><ele>1017.1666666666666</ele><time>2026-03-27T13:26:05.648Z</time></trkpt><trkpt lat="44.4722733" lon="9.24191"><ele>1019.3333333333333</ele><time>2026-03-27T13:26:06.646Z</time></trkpt><trkpt lat="44.4722967" lon="9.241725"><ele>1021.5</ele><time>2026-03-27T13:26:08.647Z</time></trkpt><trkpt lat="44.472285" lon="9.2416333"><ele>1023.6666666666667</ele><time>2026-03-27T13:26:09.646Z</time></trkpt><trkpt lat="44.4722683" lon="9.2415467"><ele>1025.8333333333335</ele><time>2026-03-27T13:26:10.646Z</time></trkpt><trkpt lat="44.4722133" lon="9.24149"><ele>1028.0</ele><time>2026-03-27T13:26:11.646Z</time></trkpt><trkpt lat="44.4721383" lon="9.24148"><ele>1024.6</ele><time>2026-03-27T13:26:12.648Z</time></trkpt><trkpt lat="44.4720717" lon="9.2415067"><ele>1021.1999999999999</ele><time>2026-03-27T13:26:13.646Z</time></trkpt><trkpt lat="44.4719917" lon="9.2415617"><ele>1017.8</ele><time>2026-03-27T13:26:14.648Z</time></trkpt><trkpt lat="44.471895" lon="9.2416233"><ele>1014.4</ele><time>2026-03-27T13:26:15.647Z</time></trkpt><trkpt lat="44.4717817" lon="9.2416683"><ele>1011.0</ele><time>2026-03-27T13:26:16.647Z</time></trkpt><trkpt lat="44.4716633" lon="9.241705"><ele>1011.0</ele><time>2026-03-27T13:26:17.649Z</time></trkpt><trkpt lat="44.4715433" lon="9.24175"><ele>1011.0</ele><time>2026-03-27T13:26:18.646Z</time></trkpt><trkpt lat="44.4714283" lon="9.2418083"><ele>1011.0</ele><time>2026-03-27T13:26:19.647Z</time></trkpt><trkpt lat="44.4713133" lon="9.2418683"><ele>1011.0</ele><time>2026-03-27T13:26:20.646Z</time></trkpt><trkpt lat="44.471195" lon="9.2419383"><ele>1009.1999999999999</ele><time>2026-03-27T13:26:21.647Z</time></trkpt><trkpt lat="44.4710883" lon="9.242025"><ele>1007.3999999999999</ele><time>2026-03-27T13:26:22.647Z</time></trkpt><trkpt lat="44.4709917" lon="9.2421033"><ele>1005.6</ele><time>2026-03-27T13:26:23.647Z</time></trkpt><trkpt lat="44.4709033" lon="9.2421533"><ele>1003.8</ele><time>2026-03-27T13:26:24.653Z</time></trkpt><trkpt lat="44.4708183" lon="9.24217"><ele>1002.0</ele><time>2026-03-27T13:26:25.647Z</time></trkpt><trkpt lat="44.470735" lon="9.242035"><ele>1002.0</ele><time>2026-03-27T13:26:27.647Z</time></trkpt><trkpt lat="44.4706983" lon="9.2419183"><ele>1002.0</ele><time>2026-03-27T13:26:28.649Z</time></trkpt><trkpt lat="44.4706533" lon="9.2417867"><ele>1002.0</ele><time>2026-03-27T13:26:29.646Z</time></trkpt><trkpt lat="44.4705983" lon="9.24166"><ele>1002.0</ele><time>2026-03-27T13:26:30.646Z</time></trkpt><trkpt lat="44.4705317" lon="9.2415467"><ele>1002.0</ele><time>2026-03-27T13:26:31.647Z</time></trkpt><trkpt lat="44.4704517" lon="9.2414433"><ele>997.4000000000001</ele><time>2026-03-27T13:26:32.646Z</time></trkpt><trkpt lat="44.4703733" lon="9.2413433"><ele>992.8000000000001</ele><time>2026-03-27T13:26:33.647Z</time></trkpt><trkpt lat="44.4703083" lon="9.2412233"><ele>988.2</ele><time>2026-03-27T13:26:34.649Z</time></trkpt><trkpt lat="44.4702617" lon="9.241075"><ele>983.6</ele><time>2026-03-27T13:26:35.646Z</time></trkpt><trkpt lat="44.4702317" lon="9.2409217"><ele>979.0</ele><time>2026-03-27T13:26:36.646Z</time></trkpt><trkpt lat="44.4701917" lon="9.24077"><ele>982.75</ele><time>2026-03-27T13:26:37.646Z</time></trkpt><trkpt lat="44.4701433" lon="9.2406183"><ele>986.5</ele><time>2026-03-27T13:26:38.647Z</time></trkpt><trkpt lat="44.47008" lon="9.24048"><ele>990.25</ele><time>2026-03-27T13:26:39.646Z</time></trkpt><trkpt lat="44.4700117" lon="9.2403533"><ele>994.0</ele><time>2026-03-27T13:26:40.649Z</time></trkpt><trkpt lat="44.46994" lon="9.2402283"><ele>994.0</ele><time>2026-03-27T13:26:41.648Z</time></trkpt><trkpt lat="44.46987" lon="9.2401067"><ele>994.0000000000001</ele><time>2026-03-27T13:26:42.646Z</time></trkpt><trkpt lat="44.4698" lon="9.2399933"><ele>994.0000000000001</ele><time>2026-03-27T13:26:43.646Z</time></trkpt><trkpt lat="44.46974" lon="9.23988"><ele>994.0</ele><time>2026-03-27T13:26:44.648Z</time></trkpt><trkpt lat="44.4696783" lon="9.2397817"><ele>994.0</ele><time>2026-03-27T13:26:45.647Z</time></trkpt><trkpt lat="44.469615" lon="9.239705"><ele>994.0</ele><time>2026-03-27T13:26:46.647Z</time></trkpt><trkpt lat="44.4694983" lon="9.2397483"><ele>994.0000000000001</ele><time>2026-03-27T13:26:48.646Z</time></trkpt><trkpt lat="44.4695383" lon="9.2399067"><ele>994.0000000000001</ele><time>2026-03-27T13:26:50.646Z</time></trkpt><trkpt lat="44.4695967" lon="9.2400033"><ele>994.0</ele><time>2026-03-27T13:26:51.648Z</time></trkpt><trkpt lat="44.46966" lon="9.2401083"><ele>994.0</ele><time>2026-03-27T13:26:52.646Z</time></trkpt><trkpt lat="44.4697283" lon="9.2402033"><ele>994.0</ele><time>2026-03-27T13:26:53.646Z</time></trkpt><trkpt lat="44.469785" lon="9.2403067"><ele>994.0000000000001</ele><time>2026-03-27T13:26:54.646Z</time></trkpt><trkpt lat="44.469825" lon="9.2404383"><ele>994.0000000000001</ele><time>2026-03-27T13:26:55.647Z</time></trkpt><trkpt lat="44.469865" lon="9.2405717"><ele>994.0</ele><time>2026-03-27T13:26:56.647Z</time></trkpt><trkpt lat="44.4699133" lon="9.2406767"><ele>994.0</ele><time>2026-03-27T13:26:57.649Z</time></trkpt><trkpt lat="44.4699583" lon="9.2407867"><ele>991.0</ele><time>2026-03-27T13:26:58.646Z</time></trkpt><trkpt lat="44.4699867" lon="9.2409017"><ele>988.0000000000001</ele><time>2026-03-27T13:26:59.646Z</time></trkpt><trkpt lat="44.4700017" lon="9.24103"><ele>985.0000000000001</ele><time>2026-03-27T13:27:00.647Z</time></trkpt><trkpt lat="44.4700033" lon="9.2411767"><ele>982.0</ele><time>2026-03-27T13:27:01.646Z</time></trkpt><trkpt lat="44.470015" lon="9.241315"><ele>979.0</ele><time>2026-03-27T13:27:02.65Z</time></trkpt><trkpt lat="44.4700433" lon="9.24145"><ele>977.4000000000001</ele><time>2026-03-27T13:27:03.648Z</time></trkpt><trkpt lat="44.4700867" lon="9.241575"><ele>975.8000000000001</ele><time>2026-03-27T13:27:04.647Z</time></trkpt><trkpt lat="44.4701367" lon="9.2416933"><ele>974.1999999999999</ele><time>2026-03-27T13:27:05.646Z</time></trkpt><trkpt lat="44.4701933" lon="9.2417983"><ele>972.5999999999999</ele><time>2026-03-27T13:27:06.648Z</time></trkpt><trkpt lat="44.47025" lon="9.241885"><ele>971.0</ele><time>2026-03-27T13:27:07.652Z</time></trkpt><trkpt lat="44.4703017" lon="9.241965"><ele>971.0</ele><time>2026-03-27T13:27:08.646Z</time></trkpt><trkpt lat="44.4703467" lon="9.2420583"><ele>970.9999999999999</ele><time>2026-03-27T13:27:09.646Z</time></trkpt><trkpt lat="44.4703817" lon="9.2421733"><ele>970.9999999999999</ele><time>2026-03-27T13:27:10.646Z</time></trkpt><trkpt lat="44.470375" lon="9.24233"><ele>971.0</ele><time>2026-03-27T13:27:11.647Z</time></trkpt><trkpt lat="44.470378" lon="9.2424748"><ele>971.0</ele><time>2026-03-27T13:27:12.647Z</time></trkpt><trkpt lat="44.4703735" lon="9.2426366"><ele>969.1999999999999</ele><time>2026-03-27T13:27:13.646Z</time></trkpt><trkpt lat="44.4703636" lon="9.2428024"><ele>967.3999999999999</ele><time>2026-03-27T13:27:14.648Z</time></trkpt><trkpt lat="44.4703485" lon="9.2429618"><ele>965.6</ele><time>2026-03-27T13:27:15.646Z</time></trkpt><trkpt lat="44.470331" lon="9.243116"><ele>963.8</ele><time>2026-03-27T13:27:16.646Z</time></trkpt><trkpt lat="44.4703196" lon="9.2432608"><ele>962.0</ele><time>2026-03-27T13:27:17.646Z</time></trkpt><trkpt lat="44.4703195" lon="9.2433974"><ele>962.4000000000001</ele><time>2026-03-27T13:27:18.649Z</time></trkpt><trkpt lat="44.470337" lon="9.2435197"><ele>962.8000000000001</ele><time>2026-03-27T13:27:19.648Z</time></trkpt><trkpt lat="44.4703688" lon="9.2436229"><ele>963.2</ele><time>2026-03-27T13:27:20.648Z</time></trkpt><trkpt lat="44.4704147" lon="9.2437039"><ele>963.6</ele><time>2026-03-27T13:27:21.648Z</time></trkpt><trkpt lat="44.4705362" lon="9.2437212"><ele>964.0</ele><time>2026-03-27T13:27:23.649Z</time></trkpt><trkpt lat="44.4706114" lon="9.2436614"><ele>964.0</ele><time>2026-03-27T13:27:24.65Z</time></trkpt><trkpt lat="44.4706989" lon="9.243569"><ele>964.0</ele><time>2026-03-27T13:27:25.648Z</time></trkpt><trkpt lat="44.4708053" lon="9.2434553"><ele>964.0</ele><time>2026-03-27T13:27:26.648Z</time></trkpt><trkpt lat="44.4709147" lon="9.2433652"><ele>964.0</ele><time>2026-03-27T13:27:27.649Z</time></trkpt><trkpt lat="44.4710226" lon="9.2432962"><ele>963.9999999999999</ele><time>2026-03-27T13:27:28.647Z</time></trkpt><trkpt lat="44.4711182" lon="9.2432417"><ele>964.0</ele><time>2026-03-27T13:27:29.65Z</time></trkpt><trkpt lat="44.4711945" lon="9.243193"><ele>964.0</ele><time>2026-03-27T13:27:30.647Z</time></trkpt><trkpt lat="44.4712614" lon="9.2431629"><ele>964.0</ele><time>2026-03-27T13:27:31.648Z</time></trkpt><trkpt lat="44.4713275" lon="9.2431582"><ele>963.9999999999999</ele><time>2026-03-27T13:27:32.649Z</time></trkpt><trkpt lat="44.4713888" lon="9.2432483"><ele>964.0</ele><time>2026-03-27T13:27:34.646Z</time></trkpt><trkpt lat="44.471362" lon="9.2434088"><ele>963.9999999999999</ele><time>2026-03-27T13:27:36.647Z</time></trkpt><trkpt lat="44.4713318" lon="9.2434947"><ele>964.0</ele><time>2026-03-27T13:27:37.646Z</time></trkpt><trkpt lat="44.4712865" lon="9.2436089"><ele>964.0</ele><time>2026-03-27T13:27:38.647Z</time></trkpt><trkpt lat="44.4712321" lon="9.2437196"><ele>964.0</ele><time>2026-03-27T13:27:39.647Z</time></trkpt><trkpt lat="44.4711744" lon="9.2438291"><ele>963.9999999999999</ele><time>2026-03-27T13:27:40.646Z</time></trkpt><trkpt lat="44.4711145" lon="9.2439315"><ele>964.0</ele><time>2026-03-27T13:27:41.65Z</time></trkpt><trkpt lat="44.4710598" lon="9.2440336"><ele>962.2</ele><time>2026-03-27T13:27:42.647Z</time></trkpt><trkpt lat="44.4710077" lon="9.2441436"><ele>960.4000000000001</ele><time>2026-03-27T13:27:43.647Z</time></trkpt><trkpt lat="44.4709603" lon="9.2442596"><ele>958.6</ele><time>2026-03-27T13:27:44.646Z</time></trkpt><trkpt lat="44.4709225" lon="9.244375"><ele>956.8</ele><time>2026-03-27T13:27:45.646Z</time></trkpt><trkpt lat="44.4708997" lon="9.2444931"><ele>955.0</ele><time>2026-03-27T13:27:46.647Z</time></trkpt><trkpt lat="44.4708957" lon="9.2446178"><ele>955.0</ele><time>2026-03-27T13:27:47.646Z</time></trkpt><trkpt lat="44.4709028" lon="9.2447177"><ele>955.0</ele><time>2026-03-27T13:27:48.646Z</time></trkpt><trkpt lat="44.4709623" lon="9.2448337"><ele>955.0</ele><time>2026-03-27T13:27:50.647Z</time></trkpt><trkpt lat="44.4710701" lon="9.2448511"><ele>955.0</ele><time>2026-03-27T13:27:52.647Z</time></trkpt><trkpt lat="44.4711761" lon="9.2448242"><ele>955.0</ele><time>2026-03-27T13:27:54.65Z</time></trkpt><trkpt lat="44.4712768" lon="9.2448061"><ele>954.1666666666666</ele><time>2026-03-27T13:27:56.728Z</time></trkpt><trkpt lat="44.4713644" lon="9.2448445"><ele>953.3333333333333</ele><time>2026-03-27T13:27:58.647Z</time></trkpt><trkpt lat="44.4713767" lon="9.2449567"><ele>952.5</ele><time>2026-03-27T13:28:00.647Z</time></trkpt><trkpt lat="44.4713333" lon="9.2450617"><ele>951.6666666666667</ele><time>2026-03-27T13:28:02.648Z</time></trkpt><trkpt lat="44.4712883" lon="9.24515"><ele>950.8333333333334</ele><time>2026-03-27T13:28:03.649Z</time></trkpt><trkpt lat="44.4712467" lon="9.2452517"><ele>950.0</ele><time>2026-03-27T13:28:04.647Z</time></trkpt><trkpt lat="44.4712183" lon="9.2453433"><ele>950.0</ele><time>2026-03-27T13:28:05.647Z</time></trkpt><trkpt lat="44.471195" lon="9.245455"><ele>950.0</ele><time>2026-03-27T13:28:06.646Z</time></trkpt><trkpt lat="44.4711867" lon="9.2455783"><ele>950.0</ele><time>2026-03-27T13:28:07.646Z</time></trkpt><trkpt lat="44.4712033" lon="9.2457017"><ele>950.0</ele><time>2026-03-27T13:28:08.647Z</time></trkpt><trkpt lat="44.471235" lon="9.2458383"><ele>950.0</ele><time>2026-03-27T13:28:09.648Z</time></trkpt><trkpt lat="44.471265" lon="9.2459567"><ele>950.8</ele><time>2026-03-27T13:28:10.649Z</time></trkpt><trkpt lat="44.4712967" lon="9.2460867"><ele>951.6</ele><time>2026-03-27T13:28:11.647Z</time></trkpt><trkpt lat="44.4713217" lon="9.2462333"><ele>952.4000000000001</ele><time>2026-03-27T13:28:12.648Z</time></trkpt><trkpt lat="44.47134" lon="9.246375"><ele>953.2</ele><time>2026-03-27T13:28:13.647Z</time></trkpt><trkpt lat="44.4713583" lon="9.2465233"><ele>954.0</ele><time>2026-03-27T13:28:14.647Z</time></trkpt><trkpt lat="44.471385" lon="9.2466767"><ele>954.0</ele><time>2026-03-27T13:28:15.646Z</time></trkpt><trkpt lat="44.4714183" lon="9.2468317"><ele>954.0000000000001</ele><time>2026-03-27T13:28:16.646Z</time></trkpt><trkpt lat="44.47146" lon="9.24696"><ele>954.0000000000001</ele><time>2026-03-27T13:28:17.648Z</time></trkpt><trkpt lat="44.47152" lon="9.247075"><ele>954.0</ele><time>2026-03-27T13:28:18.647Z</time></trkpt><trkpt lat="44.4715983" lon="9.24717"><ele>954.0</ele><time>2026-03-27T13:28:19.647Z</time></trkpt><trkpt lat="44.4716967" lon="9.2472467"><ele>950.5</ele><time>2026-03-27T13:28:20.647Z</time></trkpt><trkpt lat="44.4718017" lon="9.2473133"><ele>947.0</ele><time>2026-03-27T13:28:21.646Z</time></trkpt><trkpt lat="44.471905" lon="9.2473767"><ele>943.5</ele><time>2026-03-27T13:28:22.646Z</time></trkpt><trkpt lat="44.4720067" lon="9.2474467"><ele>940.0</ele><time>2026-03-27T13:28:23.646Z</time></trkpt><trkpt lat="44.4721033" lon="9.24752"><ele>942.5</ele><time>2026-03-27T13:28:24.651Z</time></trkpt><trkpt lat="44.47219" lon="9.2476083"><ele>945.0</ele><time>2026-03-27T13:28:25.646Z</time></trkpt><trkpt lat="44.47227" lon="9.2477133"><ele>947.5</ele><time>2026-03-27T13:28:26.647Z</time></trkpt><trkpt lat="44.4723517" lon="9.2478383"><ele>950.0</ele><time>2026-03-27T13:28:27.647Z</time></trkpt><trkpt lat="44.4724367" lon="9.2479867"><ele>947.75</ele><time>2026-03-27T13:28:28.647Z</time></trkpt><trkpt lat="44.472515" lon="9.2481517"><ele>945.5</ele><time>2026-03-27T13:28:29.646Z</time></trkpt><trkpt lat="44.4725817" lon="9.2483067"><ele>943.25</ele><time>2026-03-27T13:28:30.647Z</time></trkpt><trkpt lat="44.47262" lon="9.248455"><ele>941.0</ele><time>2026-03-27T13:28:31.647Z</time></trkpt><trkpt lat="44.47262" lon="9.248615"><ele>941.0</ele><time>2026-03-27T13:28:32.646Z</time></trkpt><trkpt lat="44.4726017" lon="9.24879"><ele>941.0</ele><time>2026-03-27T13:28:33.646Z</time></trkpt><trkpt lat="44.472575" lon="9.2489683"><ele>941.0</ele><time>2026-03-27T13:28:34.646Z</time></trkpt><trkpt lat="44.47256" lon="9.2491383"><ele>941.0</ele><time>2026-03-27T13:28:35.647Z</time></trkpt><trkpt lat="44.4725333" lon="9.249295"><ele>939.4</ele><time>2026-03-27T13:28:36.646Z</time></trkpt><trkpt lat="44.4725217" lon="9.249445"><ele>937.8</ele><time>2026-03-27T13:28:37.646Z</time></trkpt><trkpt lat="44.4725183" lon="9.249585"><ele>936.1999999999999</ele><time>2026-03-27T13:28:38.648Z</time></trkpt><trkpt lat="44.4725283" lon="9.2497083"><ele>934.5999999999999</ele><time>2026-03-27T13:28:39.647Z</time></trkpt><trkpt lat="44.4725367" lon="9.2498167"><ele>933.0</ele><time>2026-03-27T13:28:40.647Z</time></trkpt><trkpt lat="44.472555" lon="9.24993"><ele>933.3333333333334</ele><time>2026-03-27T13:28:42.647Z</time></trkpt><trkpt lat="44.4726183" lon="9.25002"><ele>933.6666666666667</ele><time>2026-03-27T13:28:56.655Z</time></trkpt><trkpt lat="44.4727333" lon="9.24997"><ele>934.0</ele><time>2026-03-27T13:28:59.647Z</time></trkpt><trkpt lat="44.4728033" lon="9.2499283"><ele>934.3333333333334</ele><time>2026-03-27T13:29:00.647Z</time></trkpt><trkpt lat="44.4728733" lon="9.249895"><ele>934.6666666666667</ele><time>2026-03-27T13:29:01.646Z</time></trkpt><trkpt lat="44.4729417" lon="9.2498733"><ele>935.0</ele><time>2026-03-27T13:29:02.647Z</time></trkpt><trkpt lat="44.4730133" lon="9.2498517"><ele>935.0000000000001</ele><time>2026-03-27T13:29:03.649Z</time></trkpt><trkpt lat="44.4730883" lon="9.2498417"><ele>935.0</ele><time>2026-03-27T13:29:04.646Z</time></trkpt><trkpt lat="44.4731683" lon="9.2498583"><ele>935.0</ele><time>2026-03-27T13:29:05.647Z</time></trkpt><trkpt lat="44.47325" lon="9.24989"><ele>935.0</ele><time>2026-03-27T13:29:06.646Z</time></trkpt><trkpt lat="44.4733417" lon="9.24992"><ele>935.0000000000001</ele><time>2026-03-27T13:29:07.647Z</time></trkpt><trkpt lat="44.47345" lon="9.2499617"><ele>935.0</ele><time>2026-03-27T13:29:08.656Z</time></trkpt><trkpt lat="44.4735633" lon="9.2500083"><ele>935.0</ele><time>2026-03-27T13:29:09.647Z</time></trkpt><trkpt lat="44.4736883" lon="9.250065"><ele>935.0</ele><time>2026-03-27T13:29:10.646Z</time></trkpt><trkpt lat="44.4738083" lon="9.2501233"><ele>935.0</ele><time>2026-03-27T13:29:11.647Z</time></trkpt><trkpt lat="44.473925" lon="9.2501783"><ele>935.0</ele><time>2026-03-27T13:29:12.646Z</time></trkpt><trkpt lat="44.47405" lon="9.2502317"><ele>935.25</ele><time>2026-03-27T13:29:13.65Z</time></trkpt><trkpt lat="44.47418" lon="9.2502917"><ele>935.5</ele><time>2026-03-27T13:29:14.646Z</time></trkpt><trkpt lat="44.4743083" lon="9.250345"><ele>935.75</ele><time>2026-03-27T13:29:15.648Z</time></trkpt><trkpt lat="44.47443" lon="9.2503933"><ele>936.0</ele><time>2026-03-27T13:29:16.646Z</time></trkpt><trkpt lat="44.474545" lon="9.2504617"><ele>935.3333333333333</ele><time>2026-03-27T13:29:17.648Z</time></trkpt><trkpt lat="44.4746533" lon="9.250585"><ele>934.6666666666666</ele><time>2026-03-27T13:29:18.647Z</time></trkpt><trkpt lat="44.474745" lon="9.2507567"><ele>934.0</ele><time>2026-03-27T13:29:19.647Z</time></trkpt><trkpt lat="44.4748167" lon="9.2509633"><ele>933.6666666666666</ele><time>2026-03-27T13:29:20.651Z</time></trkpt><trkpt lat="44.474885" lon="9.2511883"><ele>933.3333333333333</ele><time>2026-03-27T13:29:21.647Z</time></trkpt><trkpt lat="44.4749533" lon="9.2514133"><ele>933.0</ele><time>2026-03-27T13:29:22.647Z</time></trkpt><trkpt lat="44.47502" lon="9.2516333"><ele>931.5</ele><time>2026-03-27T13:29:23.647Z</time></trkpt><trkpt lat="44.47508" lon="9.251845"><ele>930.0</ele><time>2026-03-27T13:29:24.646Z</time></trkpt><trkpt lat="44.475135" lon="9.252035"><ele>928.5</ele><time>2026-03-27T13:29:25.648Z</time></trkpt><trkpt lat="44.47517" lon="9.2522183"><ele>927.0</ele><time>2026-03-27T13:29:26.646Z</time></trkpt><trkpt lat="44.475185" lon="9.2524083"><ele>924.75</ele><time>2026-03-27T13:29:27.648Z</time></trkpt><trkpt lat="44.475195" lon="9.2525983"><ele>922.5</ele><time>2026-03-27T13:29:28.646Z</time></trkpt><trkpt lat="44.4752117" lon="9.25278"><ele>920.25</ele><time>2026-03-27T13:29:29.648Z</time></trkpt><trkpt lat="44.4752467" lon="9.2529517"><ele>918.0</ele><time>2026-03-27T13:29:30.646Z</time></trkpt><trkpt lat="44.4753117" lon="9.25312"><ele>919.6666666666667</ele><time>2026-03-27T13:29:31.646Z</time></trkpt><trkpt lat="44.4754" lon="9.253285"><ele>921.3333333333334</ele><time>2026-03-27T13:29:32.647Z</time></trkpt><trkpt lat="44.4755" lon="9.2534517"><ele>923.0</ele><time>2026-03-27T13:29:33.647Z</time></trkpt><trkpt lat="44.4756017" lon="9.253625"><ele>921.6666666666667</ele><time>2026-03-27T13:29:34.647Z</time></trkpt><trkpt lat="44.4757067" lon="9.2537967"><ele>920.3333333333333</ele><time>2026-03-27T13:29:35.649Z</time></trkpt><trkpt lat="44.4758267" lon="9.2539517"><ele>919.0</ele><time>2026-03-27T13:29:36.648Z</time></trkpt><trkpt lat="44.47596" lon="9.2540867"><ele>919.0</ele><time>2026-03-27T13:29:37.647Z</time></trkpt><trkpt lat="44.4760933" lon="9.254205"><ele>919.0</ele><time>2026-03-27T13:29:38.649Z</time></trkpt><trkpt lat="44.4762283" lon="9.2543233"><ele>919.0</ele><time>2026-03-27T13:29:39.647Z</time></trkpt><trkpt lat="44.47637" lon="9.2544383"><ele>918.6666666666666</ele><time>2026-03-27T13:29:40.65Z</time></trkpt><trkpt lat="44.4765133" lon="9.2545583"><ele>918.3333333333333</ele><time>2026-03-27T13:29:41.646Z</time></trkpt><trkpt lat="44.4766467" lon="9.2546867"><ele>918.0</ele><time>2026-03-27T13:29:42.647Z</time></trkpt><trkpt lat="44.4767683" lon="9.2548367"><ele>918.0</ele><time>2026-03-27T13:29:43.646Z</time></trkpt><trkpt lat="44.476875" lon="9.255005"><ele>918.0</ele><time>2026-03-27T13:29:44.647Z</time></trkpt><trkpt lat="44.4769817" lon="9.2551733"><ele>918.0</ele><time>2026-03-27T13:29:45.649Z</time></trkpt><trkpt lat="44.4770917" lon="9.2553417"><ele>921.0</ele><time>2026-03-27T13:29:46.646Z</time></trkpt><trkpt lat="44.477195" lon="9.2555267"><ele>924.0</ele><time>2026-03-27T13:29:47.647Z</time></trkpt><trkpt lat="44.4772867" lon="9.2557317"><ele>927.0</ele><time>2026-03-27T13:29:48.647Z</time></trkpt><trkpt lat="44.4773683" lon="9.25595"><ele>927.0</ele><time>2026-03-27T13:29:49.656Z</time></trkpt><trkpt lat="44.4774417" lon="9.2561817"><ele>927.0</ele><time>2026-03-27T13:29:50.649Z</time></trkpt><trkpt lat="44.4774967" lon="9.2564133"><ele>927.0</ele><time>2026-03-27T13:29:51.647Z</time></trkpt><trkpt lat="44.4775217" lon="9.2566467"><ele>924.3333333333333</ele><time>2026-03-27T13:29:52.648Z</time></trkpt><trkpt lat="44.477515" lon="9.2568933"><ele>921.6666666666666</ele><time>2026-03-27T13:29:53.648Z</time></trkpt><trkpt lat="44.4774967" lon="9.2571383"><ele>919.0</ele><time>2026-03-27T13:29:54.647Z</time></trkpt><trkpt lat="44.4774667" lon="9.2573667"><ele>917.5</ele><time>2026-03-27T13:29:55.646Z</time></trkpt><trkpt lat="44.4774117" lon="9.25757"><ele>916.0</ele><time>2026-03-27T13:29:56.647Z</time></trkpt><trkpt lat="44.4773233" lon="9.2577317"><ele>914.5</ele><time>2026-03-27T13:29:57.649Z</time></trkpt><trkpt lat="44.47721" lon="9.25786"><ele>913.0</ele><time>2026-03-27T13:29:58.647Z</time></trkpt><trkpt lat="44.47709" lon="9.2579517"><ele>912.0</ele><time>2026-03-27T13:29:59.646Z</time></trkpt><trkpt lat="44.476965" lon="9.2579933"><ele>911.0</ele><time>2026-03-27T13:30:00.649Z</time></trkpt><trkpt lat="44.476835" lon="9.25798"><ele>910.0</ele><time>2026-03-27T13:30:01.648Z</time></trkpt><trkpt lat="44.476705" lon="9.2579267"><ele>909.0</ele><time>2026-03-27T13:30:02.65Z</time></trkpt><trkpt lat="44.4765733" lon="9.257895"><ele>909.0</ele><time>2026-03-27T13:30:03.647Z</time></trkpt><trkpt lat="44.47644" lon="9.25791"><ele>909.0</ele><time>2026-03-27T13:30:04.646Z</time></trkpt><trkpt lat="44.476315" lon="9.2579483"><ele>909.0</ele><time>2026-03-27T13:30:05.648Z</time></trkpt><trkpt lat="44.4761967" lon="9.2580033"><ele>909.0</ele><time>2026-03-27T13:30:06.647Z</time></trkpt><trkpt lat="44.4760867" lon="9.2580883"><ele>909.25</ele><time>2026-03-27T13:30:07.649Z</time></trkpt><trkpt lat="44.4759933" lon="9.2582133"><ele>909.5</ele><time>2026-03-27T13:30:08.651Z</time></trkpt><trkpt lat="44.4759167" lon="9.25836"><ele>909.75</ele><time>2026-03-27T13:30:09.646Z</time></trkpt><trkpt lat="44.47585" lon="9.2585233"><ele>910.0</ele><time>2026-03-27T13:30:10.647Z</time></trkpt><trkpt lat="44.475805" lon="9.258705"><ele>910.0</ele><time>2026-03-27T13:30:11.65Z</time></trkpt><trkpt lat="44.4757917" lon="9.2588983"><ele>910.0</ele><time>2026-03-27T13:30:12.646Z</time></trkpt><trkpt lat="44.4758083" lon="9.25909"><ele>910.0</ele><time>2026-03-27T13:30:13.649Z</time></trkpt><trkpt lat="44.475845" lon="9.2592717"><ele>910.0</ele><time>2026-03-27T13:30:14.646Z</time></trkpt><trkpt lat="44.4759117" lon="9.2594367"><ele>910.25</ele><time>2026-03-27T13:30:15.647Z</time></trkpt><trkpt lat="44.47599" lon="9.25959"><ele>910.5</ele><time>2026-03-27T13:30:16.646Z</time></trkpt><trkpt lat="44.4760733" lon="9.2597483"><ele>910.75</ele><time>2026-03-27T13:30:17.646Z</time></trkpt><trkpt lat="44.4761567" lon="9.2599167"><ele>911.0</ele><time>2026-03-27T13:30:18.646Z</time></trkpt><trkpt lat="44.47624" lon="9.2600967"><ele>915.6666666666667</ele><time>2026-03-27T13:30:19.65Z</time></trkpt><trkpt lat="44.4763217" lon="9.26029"><ele>920.3333333333333</ele><time>2026-03-27T13:30:20.648Z</time></trkpt><trkpt lat="44.476395" lon="9.2604917"><ele>925.0</ele><time>2026-03-27T13:30:21.647Z</time></trkpt><trkpt lat="44.476465" lon="9.2606917"><ele>925.0</ele><time>2026-03-27T13:30:22.652Z</time></trkpt><trkpt lat="44.4765167" lon="9.2608983"><ele>925.0</ele><time>2026-03-27T13:30:23.647Z</time></trkpt><trkpt lat="44.47654" lon="9.2611117"><ele>925.0</ele><time>2026-03-27T13:30:24.646Z</time></trkpt><trkpt lat="44.47653" lon="9.2613267"><ele>926.3333333333333</ele><time>2026-03-27T13:30:25.647Z</time></trkpt><trkpt lat="44.4764883" lon="9.2615417"><ele>927.6666666666667</ele><time>2026-03-27T13:30:26.647Z</time></trkpt><trkpt lat="44.4764217" lon="9.2617583"><ele>929.0</ele><time>2026-03-27T13:30:27.648Z</time></trkpt><trkpt lat="44.47634" lon="9.2619683"><ele>919.0</ele><time>2026-03-27T13:30:28.648Z</time></trkpt><trkpt lat="44.476255" lon="9.262175"><ele>909.0</ele><time>2026-03-27T13:30:29.647Z</time></trkpt><trkpt lat="44.4761667" lon="9.2623667"><ele>899.0</ele><time>2026-03-27T13:30:30.646Z</time></trkpt><trkpt lat="44.4761" lon="9.2625517"><ele>899.0</ele><time>2026-03-27T13:30:31.65Z</time></trkpt><trkpt lat="44.476065" lon="9.2627383"><ele>899.0</ele><time>2026-03-27T13:30:32.647Z</time></trkpt><trkpt lat="44.476065" lon="9.2629183"><ele>899.0</ele><time>2026-03-27T13:30:33.65Z</time></trkpt><trkpt lat="44.4761167" lon="9.2630883"><ele>899.0</ele><time>2026-03-27T13:30:34.647Z</time></trkpt><trkpt lat="44.4762033" lon="9.2632567"><ele>904.6666666666667</ele><time>2026-03-27T13:30:35.647Z</time></trkpt><trkpt lat="44.4763" lon="9.2634283"><ele>910.3333333333333</ele><time>2026-03-27T13:30:36.649Z</time></trkpt><trkpt lat="44.4764033" lon="9.263615"><ele>916.0</ele><time>2026-03-27T13:30:37.646Z</time></trkpt><trkpt lat="44.476505" lon="9.2638217"><ele>912.3333333333333</ele><time>2026-03-27T13:30:38.647Z</time></trkpt><trkpt lat="44.4766033" lon="9.2640417"><ele>908.6666666666667</ele><time>2026-03-27T13:30:39.648Z</time></trkpt><trkpt lat="44.47669" lon="9.26428"><ele>905.0</ele><time>2026-03-27T13:30:40.647Z</time></trkpt><trkpt lat="44.4767633" lon="9.2645333"><ele>901.6666666666667</ele><time>2026-03-27T13:30:41.646Z</time></trkpt><trkpt lat="44.4768267" lon="9.2647967"><ele>898.3333333333333</ele><time>2026-03-27T13:30:42.646Z</time></trkpt><trkpt lat="44.4768917" lon="9.2650617"><ele>895.0</ele><time>2026-03-27T13:30:43.647Z</time></trkpt><trkpt lat="44.4769633" lon="9.2653317"><ele>895.0</ele><time>2026-03-27T13:30:44.649Z</time></trkpt><trkpt lat="44.47705" lon="9.2655933"><ele>895.0</ele><time>2026-03-27T13:30:45.647Z</time></trkpt><trkpt lat="44.4771533" lon="9.2658433"><ele>895.0</ele><time>2026-03-27T13:30:46.647Z</time></trkpt><trkpt lat="44.47727" lon="9.26608"><ele>895.3333333333333</ele><time>2026-03-27T13:30:47.647Z</time></trkpt><trkpt lat="44.4773883" lon="9.2663033"><ele>895.6666666666667</ele><time>2026-03-27T13:30:48.648Z</time></trkpt><trkpt lat="44.4775033" lon="9.2665217"><ele>896.0</ele><time>2026-03-27T13:30:49.647Z</time></trkpt><trkpt lat="44.4776167" lon="9.2667383"><ele>896.0</ele><time>2026-03-27T13:30:50.652Z</time></trkpt><trkpt lat="44.4777167" lon="9.2669533"><ele>896.0</ele><time>2026-03-27T13:30:51.646Z</time></trkpt><trkpt lat="44.477805" lon="9.2671733"><ele>896.0</ele><time>2026-03-27T13:30:52.646Z</time></trkpt><trkpt lat="44.477895" lon="9.267395"><ele>901.0</ele><time>2026-03-27T13:30:53.647Z</time></trkpt><trkpt lat="44.477995" lon="9.2676133"><ele>906.0</ele><time>2026-03-27T13:30:54.646Z</time></trkpt><trkpt lat="44.4781117" lon="9.26782"><ele>911.0</ele><time>2026-03-27T13:30:55.646Z</time></trkpt><trkpt lat="44.4782383" lon="9.2680133"><ele>904.3333333333334</ele><time>2026-03-27T13:30:56.655Z</time></trkpt><trkpt lat="44.4783683" lon="9.2682067"><ele>897.6666666666667</ele><time>2026-03-27T13:30:57.646Z</time></trkpt><trkpt lat="44.4784967" lon="9.2684067"><ele>891.0</ele><time>2026-03-27T13:30:58.649Z</time></trkpt><trkpt lat="44.478615" lon="9.26863"><ele>891.0</ele><time>2026-03-27T13:30:59.65Z</time></trkpt><trkpt lat="44.47872" lon="9.2688683"><ele>891.0</ele><time>2026-03-27T13:31:00.649Z</time></trkpt><trkpt lat="44.4788167" lon="9.2691217"><ele>891.0</ele><time>2026-03-27T13:31:01.65Z</time></trkpt><trkpt lat="44.47891" lon="9.269385"><ele>892.6666666666667</ele><time>2026-03-27T13:31:02.65Z</time></trkpt><trkpt lat="44.4790017" lon="9.2696533"><ele>894.3333333333334</ele><time>2026-03-27T13:31:03.652Z</time></trkpt><trkpt lat="44.4790867" lon="9.269925"><ele>896.0</ele><time>2026-03-27T13:31:04.649Z</time></trkpt><trkpt lat="44.4791567" lon="9.270205"><ele>896.0</ele><time>2026-03-27T13:31:05.648Z</time></trkpt><trkpt lat="44.479215" lon="9.2704967"><ele>896.0</ele><time>2026-03-27T13:31:06.648Z</time></trkpt><trkpt lat="44.47927" lon="9.270775"><ele>896.0</ele><time>2026-03-27T13:31:07.65Z</time></trkpt><trkpt lat="44.47933" lon="9.2710317"><ele>893.0</ele><time>2026-03-27T13:31:08.649Z</time></trkpt><trkpt lat="44.4794067" lon="9.27126"><ele>890.0</ele><time>2026-03-27T13:31:09.649Z</time></trkpt><trkpt lat="44.47951" lon="9.271455"><ele>887.0</ele><time>2026-03-27T13:31:10.648Z</time></trkpt><trkpt lat="44.4796383" lon="9.2716233"><ele>887.0</ele><time>2026-03-27T13:31:11.649Z</time></trkpt><trkpt lat="44.4797833" lon="9.2717783"><ele>887.0</ele><time>2026-03-27T13:31:12.649Z</time></trkpt><trkpt lat="44.47994" lon="9.2719167"><ele>887.0</ele><time>2026-03-27T13:31:13.648Z</time></trkpt><trkpt lat="44.48011" lon="9.2720467"><ele>887.0</ele><time>2026-03-27T13:31:14.65Z</time></trkpt><trkpt lat="44.4802917" lon="9.272175"><ele>887.0</ele><time>2026-03-27T13:31:15.648Z</time></trkpt><trkpt lat="44.4804767" lon="9.2723083"><ele>887.0</ele><time>2026-03-27T13:31:16.649Z</time></trkpt><trkpt lat="44.4806667" lon="9.2724417"><ele>888.0</ele><time>2026-03-27T13:31:17.648Z</time></trkpt><trkpt lat="44.4808483" lon="9.27257"><ele>889.0</ele><time>2026-03-27T13:31:18.648Z</time></trkpt><trkpt lat="44.4810183" lon="9.2726883"><ele>890.0</ele><time>2026-03-27T13:31:19.646Z</time></trkpt><trkpt lat="44.4811833" lon="9.2728067"><ele>889.6666666666667</ele><time>2026-03-27T13:31:20.649Z</time></trkpt><trkpt lat="44.481345" lon="9.2729317"><ele>889.3333333333333</ele><time>2026-03-27T13:31:21.646Z</time></trkpt><trkpt lat="44.4814967" lon="9.2730833"><ele>889.0</ele><time>2026-03-27T13:31:22.65Z</time></trkpt><trkpt lat="44.4816283" lon="9.2732667"><ele>889.0</ele><time>2026-03-27T13:31:23.648Z</time></trkpt><trkpt lat="44.4817333" lon="9.2734833"><ele>889.0</ele><time>2026-03-27T13:31:24.646Z</time></trkpt><trkpt lat="44.481815" lon="9.2737183"><ele>889.0</ele><time>2026-03-27T13:31:25.647Z</time></trkpt><trkpt lat="44.481865" lon="9.2739583"><ele>885.6666666666666</ele><time>2026-03-27T13:31:26.646Z</time></trkpt><trkpt lat="44.481875" lon="9.2741917"><ele>882.3333333333333</ele><time>2026-03-27T13:31:27.647Z</time></trkpt><trkpt lat="44.4818367" lon="9.2744183"><ele>879.0</ele><time>2026-03-27T13:31:28.647Z</time></trkpt><trkpt lat="44.48176" lon="9.2746483"><ele>881.0</ele><time>2026-03-27T13:31:29.646Z</time></trkpt><trkpt lat="44.4816883" lon="9.2748767"><ele>883.0</ele><time>2026-03-27T13:31:30.648Z</time></trkpt><trkpt lat="44.481635" lon="9.2751"><ele>885.0</ele><time>2026-03-27T13:31:31.646Z</time></trkpt><trkpt lat="44.4816083" lon="9.2753233"><ele>885.0</ele><time>2026-03-27T13:31:32.649Z</time></trkpt><trkpt lat="44.4816217" lon="9.2755583"><ele>885.0</ele><time>2026-03-27T13:31:33.648Z</time></trkpt><trkpt lat="44.4816617" lon="9.275795"><ele>885.0</ele><time>2026-03-27T13:31:34.648Z</time></trkpt><trkpt lat="44.4817133" lon="9.2760317"><ele>885.3333333333333</ele><time>2026-03-27T13:31:35.65Z</time></trkpt><trkpt lat="44.4817717" lon="9.2762783"><ele>885.6666666666666</ele><time>2026-03-27T13:31:36.648Z</time></trkpt><trkpt lat="44.481835" lon="9.2765283"><ele>886.0</ele><time>2026-03-27T13:31:37.648Z</time></trkpt><trkpt lat="44.4818983" lon="9.2767817"><ele>883.3333333333333</ele><time>2026-03-27T13:31:38.648Z</time></trkpt><trkpt lat="44.4819633" lon="9.2770467"><ele>880.6666666666667</ele><time>2026-03-27T13:31:39.648Z</time></trkpt><trkpt lat="44.48203" lon="9.2773183"><ele>878.0</ele><time>2026-03-27T13:31:40.648Z</time></trkpt><trkpt lat="44.48209" lon="9.277595"><ele>882.6666666666667</ele><time>2026-03-27T13:31:41.648Z</time></trkpt><trkpt lat="44.4821333" lon="9.2778817"><ele>887.3333333333333</ele><time>2026-03-27T13:31:42.65Z</time></trkpt><trkpt lat="44.4821583" lon="9.2781733"><ele>892.0</ele><time>2026-03-27T13:31:43.648Z</time></trkpt><trkpt lat="44.4821733" lon="9.2784633"><ele>892.0</ele><time>2026-03-27T13:31:44.652Z</time></trkpt><trkpt lat="44.48218" lon="9.2787433"><ele>892.0</ele><time>2026-03-27T13:31:45.649Z</time></trkpt><trkpt lat="44.4821833" lon="9.279005"><ele>892.0</ele><time>2026-03-27T13:31:46.649Z</time></trkpt><trkpt lat="44.4821783" lon="9.27925"><ele>892.3333333333333</ele><time>2026-03-27T13:31:47.648Z</time></trkpt><trkpt lat="44.4821483" lon="9.2794733"><ele>892.6666666666667</ele><time>2026-03-27T13:31:48.646Z</time></trkpt><trkpt lat="44.4820783" lon="9.279675"><ele>893.0</ele><time>2026-03-27T13:31:49.648Z</time></trkpt><trkpt lat="44.4819667" lon="9.2798533"><ele>885.6666666666667</ele><time>2026-03-27T13:31:50.648Z</time></trkpt><trkpt lat="44.4818383" lon="9.2800233"><ele>878.3333333333333</ele><time>2026-03-27T13:31:51.652Z</time></trkpt><trkpt lat="44.4817133" lon="9.2801917"><ele>871.0</ele><time>2026-03-27T13:31:52.647Z</time></trkpt><trkpt lat="44.481595" lon="9.2803567"><ele>871.0</ele><time>2026-03-27T13:31:53.649Z</time></trkpt><trkpt lat="44.481495" lon="9.28051"><ele>871.0</ele><time>2026-03-27T13:31:54.651Z</time></trkpt><trkpt lat="44.4814167" lon="9.2806633"><ele>871.0</ele><time>2026-03-27T13:31:55.648Z</time></trkpt><trkpt lat="44.481355" lon="9.2808267"><ele>871.0</ele><time>2026-03-27T13:31:56.651Z</time></trkpt><trkpt lat="44.4813067" lon="9.28099"><ele>871.5999999999999</ele><time>2026-03-27T13:31:57.647Z</time></trkpt><trkpt lat="44.4812683" lon="9.2811483"><ele>872.1999999999999</ele><time>2026-03-27T13:31:58.648Z</time></trkpt><trkpt lat="44.4812467" lon="9.2813"><ele>872.8000000000001</ele><time>2026-03-27T13:31:59.648Z</time></trkpt><trkpt lat="44.4812383" lon="9.2814483"><ele>873.4000000000001</ele><time>2026-03-27T13:32:00.648Z</time></trkpt><trkpt lat="44.4812433" lon="9.2815967"><ele>874.0</ele><time>2026-03-27T13:32:01.648Z</time></trkpt><trkpt lat="44.4812583" lon="9.281745"><ele>873.4000000000001</ele><time>2026-03-27T13:32:02.649Z</time></trkpt><trkpt lat="44.4812867" lon="9.2818917"><ele>872.8000000000001</ele><time>2026-03-27T13:32:03.648Z</time></trkpt><trkpt lat="44.4813217" lon="9.2820317"><ele>872.1999999999999</ele><time>2026-03-27T13:32:04.647Z</time></trkpt><trkpt lat="44.481365" lon="9.28217"><ele>871.5999999999999</ele><time>2026-03-27T13:32:05.649Z</time></trkpt><trkpt lat="44.4814217" lon="9.2823033"><ele>871.0</ele><time>2026-03-27T13:32:06.648Z</time></trkpt><trkpt lat="44.4814867" lon="9.2824367"><ele>869.25</ele><time>2026-03-27T13:32:07.648Z</time></trkpt><trkpt lat="44.4815583" lon="9.2825717"><ele>867.5</ele><time>2026-03-27T13:32:08.651Z</time></trkpt><trkpt lat="44.4816367" lon="9.28271"><ele>865.75</ele><time>2026-03-27T13:32:09.648Z</time></trkpt><trkpt lat="44.481715" lon="9.28285"><ele>864.0</ele><time>2026-03-27T13:32:10.647Z</time></trkpt><trkpt lat="44.4818" lon="9.28299"><ele>863.0</ele><time>2026-03-27T13:32:11.648Z</time></trkpt><trkpt lat="44.4819" lon="9.2831317"><ele>862.0</ele><time>2026-03-27T13:32:12.649Z</time></trkpt><trkpt lat="44.48201" lon="9.2832767"><ele>861.0</ele><time>2026-03-27T13:32:13.648Z</time></trkpt><trkpt lat="44.48213" lon="9.2834233"><ele>864.6666666666667</ele><time>2026-03-27T13:32:14.649Z</time></trkpt><trkpt lat="44.4822567" lon="9.28358"><ele>868.3333333333334</ele><time>2026-03-27T13:32:15.648Z</time></trkpt><trkpt lat="44.48239" lon="9.2837417"><ele>872.0</ele><time>2026-03-27T13:32:16.646Z</time></trkpt><trkpt lat="44.48253" lon="9.28391"><ele>869.3333333333334</ele><time>2026-03-27T13:32:17.647Z</time></trkpt><trkpt lat="44.4826733" lon="9.28408"><ele>866.6666666666667</ele><time>2026-03-27T13:32:18.648Z</time></trkpt><trkpt lat="44.482815" lon="9.2842483"><ele>864.0</ele><time>2026-03-27T13:32:19.646Z</time></trkpt><trkpt lat="44.4829383" lon="9.2844333"><ele>866.6666666666667</ele><time>2026-03-27T13:32:20.649Z</time></trkpt><trkpt lat="44.48303" lon="9.2846333"><ele>869.3333333333334</ele><time>2026-03-27T13:32:21.646Z</time></trkpt><trkpt lat="44.48309" lon="9.2848367"><ele>872.0</ele><time>2026-03-27T13:32:22.646Z</time></trkpt><trkpt lat="44.4831267" lon="9.285045"><ele>872.0</ele><time>2026-03-27T13:32:23.647Z</time></trkpt><trkpt lat="44.48314" lon="9.2852567"><ele>872.0</ele><time>2026-03-27T13:32:24.649Z</time></trkpt><trkpt lat="44.4831367" lon="9.2854683"><ele>872.0</ele><time>2026-03-27T13:32:25.654Z</time></trkpt><trkpt lat="44.48312" lon="9.2856783"><ele>871.0</ele><time>2026-03-27T13:32:26.649Z</time></trkpt><trkpt lat="44.48311" lon="9.2858917"><ele>870.0</ele><time>2026-03-27T13:32:27.648Z</time></trkpt><trkpt lat="44.4831" lon="9.286105"><ele>869.0</ele><time>2026-03-27T13:32:28.647Z</time></trkpt><trkpt lat="44.4830967" lon="9.2863217"><ele>868.0</ele><time>2026-03-27T13:32:29.648Z</time></trkpt><trkpt lat="44.483105" lon="9.2865367"><ele>867.0</ele><time>2026-03-27T13:32:30.65Z</time></trkpt><trkpt lat="44.48312" lon="9.286745"><ele>866.0</ele><time>2026-03-27T13:32:31.648Z</time></trkpt><trkpt lat="44.483145" lon="9.286955"><ele>866.0</ele><time>2026-03-27T13:32:32.648Z</time></trkpt><trkpt lat="44.4831717" lon="9.28716"><ele>866.0</ele><time>2026-03-27T13:32:33.648Z</time></trkpt><trkpt lat="44.4832017" lon="9.287365"><ele>866.0</ele><time>2026-03-27T13:32:34.649Z</time></trkpt><trkpt lat="44.4832383" lon="9.287565"><ele>866.0</ele><time>2026-03-27T13:32:35.65Z</time></trkpt><trkpt lat="44.4832783" lon="9.2877683"><ele>863.3333333333334</ele><time>2026-03-27T13:32:36.65Z</time></trkpt><trkpt lat="44.48332" lon="9.2879733"><ele>860.6666666666667</ele><time>2026-03-27T13:32:37.649Z</time></trkpt><trkpt lat="44.4833617" lon="9.2881783"><ele>858.0</ele><time>2026-03-27T13:32:38.65Z</time></trkpt><trkpt lat="44.4834" lon="9.2883833"><ele>857.0</ele><time>2026-03-27T13:32:39.649Z</time></trkpt><trkpt lat="44.48343" lon="9.2885917"><ele>856.0</ele><time>2026-03-27T13:32:40.649Z</time></trkpt><trkpt lat="44.4834433" lon="9.2888083"><ele>855.0</ele><time>2026-03-27T13:32:41.648Z</time></trkpt><trkpt lat="44.4834383" lon="9.289035"><ele>854.3333333333333</ele><time>2026-03-27T13:32:42.65Z</time></trkpt><trkpt lat="44.4834217" lon="9.2892717"><ele>853.6666666666666</ele><time>2026-03-27T13:32:43.646Z</time></trkpt><trkpt lat="44.4833983" lon="9.2895133"><ele>853.0</ele><time>2026-03-27T13:32:44.647Z</time></trkpt><trkpt lat="44.4833717" lon="9.28976"><ele>853.0</ele><time>2026-03-27T13:32:45.648Z</time></trkpt><trkpt lat="44.483345" lon="9.2900083"><ele>853.0</ele><time>2026-03-27T13:32:46.647Z</time></trkpt><trkpt lat="44.4833167" lon="9.29026"><ele>853.0</ele><time>2026-03-27T13:32:47.648Z</time></trkpt><trkpt lat="44.4832917" lon="9.29052"><ele>855.0</ele><time>2026-03-27T13:32:48.647Z</time></trkpt><trkpt lat="44.4832667" lon="9.29079"><ele>857.0</ele><time>2026-03-27T13:32:49.646Z</time></trkpt><trkpt lat="44.4832467" lon="9.2910633"><ele>859.0</ele><time>2026-03-27T13:32:50.653Z</time></trkpt><trkpt lat="44.483235" lon="9.2913467"><ele>861.0</ele><time>2026-03-27T13:32:51.647Z</time></trkpt><trkpt lat="44.4832317" lon="9.2916317"><ele>863.0</ele><time>2026-03-27T13:32:52.646Z</time></trkpt><trkpt lat="44.48324" lon="9.2919233"><ele>865.0</ele><time>2026-03-27T13:32:53.646Z</time></trkpt><trkpt lat="44.4832483" lon="9.2922217"><ele>864.0</ele><time>2026-03-27T13:32:54.649Z</time></trkpt><trkpt lat="44.4832567" lon="9.2925267"><ele>863.0</ele><time>2026-03-27T13:32:55.648Z</time></trkpt><trkpt lat="44.48326" lon="9.2928367"><ele>862.0</ele><time>2026-03-27T13:32:56.648Z</time></trkpt><trkpt lat="44.4832567" lon="9.2931417"><ele>862.0</ele><time>2026-03-27T13:32:57.647Z</time></trkpt><trkpt lat="44.4832517" lon="9.293435"><ele>862.0</ele><time>2026-03-27T13:32:58.647Z</time></trkpt><trkpt lat="44.4832667" lon="9.2937117"><ele>862.0</ele><time>2026-03-27T13:32:59.647Z</time></trkpt><trkpt lat="44.4833067" lon="9.2939817"><ele>860.0</ele><time>2026-03-27T13:33:00.648Z</time></trkpt><trkpt lat="44.4833733" lon="9.2942433"><ele>858.0</ele><time>2026-03-27T13:33:01.65Z</time></trkpt><trkpt lat="44.4834633" lon="9.294495"><ele>856.0</ele><time>2026-03-27T13:33:02.648Z</time></trkpt><trkpt lat="44.4835633" lon="9.2947267"><ele>853.6666666666666</ele><time>2026-03-27T13:33:03.647Z</time></trkpt><trkpt lat="44.48366" lon="9.29495"><ele>851.3333333333333</ele><time>2026-03-27T13:33:04.647Z</time></trkpt><trkpt lat="44.4837533" lon="9.2951667"><ele>849.0</ele><time>2026-03-27T13:33:05.649Z</time></trkpt><trkpt lat="44.483845" lon="9.2953783"><ele>849.3333333333333</ele><time>2026-03-27T13:33:06.65Z</time></trkpt><trkpt lat="44.4839333" lon="9.2955883"><ele>849.6666666666666</ele><time>2026-03-27T13:33:07.648Z</time></trkpt><trkpt lat="44.4840217" lon="9.2957983"><ele>850.0</ele><time>2026-03-27T13:33:08.647Z</time></trkpt><trkpt lat="44.4841067" lon="9.2960083"><ele>850.0</ele><time>2026-03-27T13:33:09.647Z</time></trkpt><trkpt lat="44.4841917" lon="9.29622"><ele>850.0</ele><time>2026-03-27T13:33:10.648Z</time></trkpt><trkpt lat="44.484275" lon="9.296425"><ele>850.0</ele><time>2026-03-27T13:33:11.647Z</time></trkpt><trkpt lat="44.4843567" lon="9.29662"><ele>849.3333333333333</ele><time>2026-03-27T13:33:12.646Z</time></trkpt><trkpt lat="44.484445" lon="9.296805"><ele>848.6666666666667</ele><time>2026-03-27T13:33:13.649Z</time></trkpt><trkpt lat="44.4845483" lon="9.296975"><ele>848.0</ele><time>2026-03-27T13:33:14.647Z</time></trkpt><trkpt lat="44.484675" lon="9.2971167"><ele>849.3333333333334</ele><time>2026-03-27T13:33:15.647Z</time></trkpt><trkpt lat="44.484805" lon="9.2972417"><ele>850.6666666666667</ele><time>2026-03-27T13:33:16.647Z</time></trkpt><trkpt lat="44.4849217" lon="9.2973833"><ele>852.0</ele><time>2026-03-27T13:33:17.647Z</time></trkpt><trkpt lat="44.4850117" lon="9.2975483"><ele>852.0</ele><time>2026-03-27T13:33:18.647Z</time></trkpt><trkpt lat="44.48508" lon="9.2977367"><ele>852.0</ele><time>2026-03-27T13:33:19.646Z</time></trkpt><trkpt lat="44.485135" lon="9.2979317"><ele>852.0</ele><time>2026-03-27T13:33:20.649Z</time></trkpt><trkpt lat="44.4851717" lon="9.2981283"><ele>852.0</ele><time>2026-03-27T13:33:21.648Z</time></trkpt><trkpt lat="44.4851733" lon="9.2983317"><ele>851.6666666666667</ele><time>2026-03-27T13:33:22.647Z</time></trkpt><trkpt lat="44.4851517" lon="9.2985417"><ele>851.3333333333334</ele><time>2026-03-27T13:33:23.65Z</time></trkpt><trkpt lat="44.4851183" lon="9.298755"><ele>851.0</ele><time>2026-03-27T13:33:24.648Z</time></trkpt><trkpt lat="44.4850867" lon="9.2989683"><ele>852.3333333333334</ele><time>2026-03-27T13:33:25.649Z</time></trkpt><trkpt lat="44.4850517" lon="9.29919"><ele>853.6666666666667</ele><time>2026-03-27T13:33:26.648Z</time></trkpt><trkpt lat="44.4850183" lon="9.2994167"><ele>855.0</ele><time>2026-03-27T13:33:27.648Z</time></trkpt><trkpt lat="44.4849817" lon="9.2996483"><ele>856.0</ele><time>2026-03-27T13:33:28.649Z</time></trkpt><trkpt lat="44.484945" lon="9.2998867"><ele>857.0</ele><time>2026-03-27T13:33:29.649Z</time></trkpt><trkpt lat="44.4849117" lon="9.3001317"><ele>858.0</ele><time>2026-03-27T13:33:30.648Z</time></trkpt><trkpt lat="44.4848767" lon="9.300385"><ele>859.3333333333333</ele><time>2026-03-27T13:33:31.649Z</time></trkpt><trkpt lat="44.48484" lon="9.3006467"><ele>860.6666666666666</ele><time>2026-03-27T13:33:32.648Z</time></trkpt><trkpt lat="44.4847983" lon="9.30092"><ele>862.0</ele><time>2026-03-27T13:33:33.647Z</time></trkpt><trkpt lat="44.484755" lon="9.3012"><ele>863.6666666666666</ele><time>2026-03-27T13:33:34.646Z</time></trkpt><trkpt lat="44.4847117" lon="9.3014867"><ele>865.3333333333333</ele><time>2026-03-27T13:33:35.646Z</time></trkpt><trkpt lat="44.48466" lon="9.3017733"><ele>867.0</ele><time>2026-03-27T13:33:36.65Z</time></trkpt><trkpt lat="44.4846033" lon="9.3020567"><ele>859.0</ele><time>2026-03-27T13:33:37.647Z</time></trkpt><trkpt lat="44.4845533" lon="9.3023267"><ele>851.0</ele><time>2026-03-27T13:33:38.646Z</time></trkpt><trkpt lat="44.4845267" lon="9.3025767"><ele>843.0</ele><time>2026-03-27T13:33:39.647Z</time></trkpt><trkpt lat="44.484545" lon="9.3027867"><ele>845.0</ele><time>2026-03-27T13:33:40.649Z</time></trkpt><trkpt lat="44.484605" lon="9.3029617"><ele>847.0</ele><time>2026-03-27T13:33:41.647Z</time></trkpt><trkpt lat="44.4847" lon="9.3031117"><ele>849.0</ele><time>2026-03-27T13:33:42.649Z</time></trkpt><trkpt lat="44.48482" lon="9.3032333"><ele>851.0</ele><time>2026-03-27T13:33:43.647Z</time></trkpt><trkpt lat="44.484925" lon="9.3033667"><ele>851.0</ele><time>2026-03-27T13:33:44.646Z</time></trkpt><trkpt lat="44.485015" lon="9.30352"><ele>851.0</ele><time>2026-03-27T13:33:45.646Z</time></trkpt><trkpt lat="44.4850883" lon="9.3036883"><ele>851.0</ele><time>2026-03-27T13:33:46.649Z</time></trkpt><trkpt lat="44.4851483" lon="9.30386"><ele>851.0</ele><time>2026-03-27T13:33:47.649Z</time></trkpt><trkpt lat="44.4851983" lon="9.3040233"><ele>849.75</ele><time>2026-03-27T13:33:48.647Z</time></trkpt><trkpt lat="44.4852367" lon="9.3041933"><ele>848.5</ele><time>2026-03-27T13:33:49.646Z</time></trkpt><trkpt lat="44.485255" lon="9.3043683"><ele>847.25</ele><time>2026-03-27T13:33:50.647Z</time></trkpt><trkpt lat="44.4852617" lon="9.304545"><ele>846.0</ele><time>2026-03-27T13:33:51.649Z</time></trkpt><trkpt lat="44.4852517" lon="9.3047083"><ele>845.8</ele><time>2026-03-27T13:33:52.653Z</time></trkpt><trkpt lat="44.4852317" lon="9.3048517"><ele>845.5999999999999</ele><time>2026-03-27T13:33:53.647Z</time></trkpt><trkpt lat="44.4852083" lon="9.3049767"><ele>845.4</ele><time>2026-03-27T13:33:54.647Z</time></trkpt><trkpt lat="44.4851917" lon="9.305085"><ele>845.2</ele><time>2026-03-27T13:33:55.647Z</time></trkpt><trkpt lat="44.485195" lon="9.3051783"><ele>845.0</ele><time>2026-03-27T13:33:56.647Z</time></trkpt><trkpt lat="44.4852583" lon="9.3053"><ele>845.0</ele><time>2026-03-27T13:33:58.647Z</time></trkpt><trkpt lat="44.4853767" lon="9.3053033"><ele>845.0</ele><time>2026-03-27T13:34:00.647Z</time></trkpt><trkpt lat="44.4854867" lon="9.3053533"><ele>845.0</ele><time>2026-03-27T13:34:02.648Z</time></trkpt><trkpt lat="44.4855067" lon="9.3054933"><ele>845.0</ele><time>2026-03-27T13:34:04.646Z</time></trkpt><trkpt lat="44.485475" lon="9.305595"><ele>845.0</ele><time>2026-03-27T13:34:05.647Z</time></trkpt><trkpt lat="44.485455" lon="9.30569"><ele>844.1666666666667</ele><time>2026-03-27T13:34:06.647Z</time></trkpt><trkpt lat="44.48545" lon="9.3057933"><ele>843.3333333333334</ele><time>2026-03-27T13:34:07.655Z</time></trkpt><trkpt lat="44.48545" lon="9.305885"><ele>842.5</ele><time>2026-03-27T13:34:08.648Z</time></trkpt><trkpt lat="44.4854467" lon="9.306045"><ele>841.6666666666667</ele><time>2026-03-27T13:34:10.648Z</time></trkpt><trkpt lat="44.4853683" lon="9.3061417"><ele>840.8333333333334</ele><time>2026-03-27T13:34:12.646Z</time></trkpt><trkpt lat="44.4852983" lon="9.3061467"><ele>840.0</ele><time>2026-03-27T13:34:13.647Z</time></trkpt><trkpt lat="44.4852283" lon="9.30614"><ele>840.0</ele><time>2026-03-27T13:34:14.65Z</time></trkpt><trkpt lat="44.4851583" lon="9.3061433"><ele>840.0</ele><time>2026-03-27T13:34:15.647Z</time></trkpt><trkpt lat="44.4850867" lon="9.3061633"><ele>840.0</ele><time>2026-03-27T13:34:16.647Z</time></trkpt><trkpt lat="44.4850183" lon="9.3062117"><ele>840.0</ele><time>2026-03-27T13:34:17.65Z</time></trkpt><trkpt lat="44.48498" lon="9.306325"><ele>840.0</ele><time>2026-03-27T13:34:18.647Z</time></trkpt><trkpt lat="44.4849567" lon="9.30647"><ele>840.0</ele><time>2026-03-27T13:34:19.649Z</time></trkpt><trkpt lat="44.4849433" lon="9.3066233"><ele>839.5</ele><time>2026-03-27T13:34:20.652Z</time></trkpt><trkpt lat="44.4849333" lon="9.3067633"><ele>839.0</ele><time>2026-03-27T13:34:21.651Z</time></trkpt><trkpt lat="44.4849283" lon="9.3068867"><ele>838.5</ele><time>2026-03-27T13:34:22.649Z</time></trkpt><trkpt lat="44.4849267" lon="9.3070017"><ele>838.0</ele><time>2026-03-27T13:34:23.648Z</time></trkpt><trkpt lat="44.48492" lon="9.3071167"><ele>837.5</ele><time>2026-03-27T13:34:24.649Z</time></trkpt><trkpt lat="44.48491" lon="9.307225"><ele>837.0</ele><time>2026-03-27T13:34:25.649Z</time></trkpt><trkpt lat="44.4849" lon="9.3073283"><ele>836.8571428571429</ele><time>2026-03-27T13:34:26.65Z</time></trkpt><trkpt lat="44.4848867" lon="9.30742"><ele>836.7142857142858</ele><time>2026-03-27T13:34:27.647Z</time></trkpt><trkpt lat="44.4848667" lon="9.30751"><ele>836.5714285714286</ele><time>2026-03-27T13:34:28.646Z</time></trkpt><trkpt lat="44.4848433" lon="9.3076033"><ele>836.4285714285714</ele><time>2026-03-27T13:34:29.649Z</time></trkpt><trkpt lat="44.4848183" lon="9.307695"><ele>836.2857142857142</ele><time>2026-03-27T13:34:30.649Z</time></trkpt><trkpt lat="44.4847933" lon="9.3077767"><ele>836.1428571428571</ele><time>2026-03-27T13:34:31.65Z</time></trkpt><trkpt lat="44.484765" lon="9.3078567"><ele>836.0</ele><time>2026-03-27T13:34:32.65Z</time></trkpt><trkpt lat="44.4847367" lon="9.30794"><ele>836.0</ele><time>2026-03-27T13:34:33.649Z</time></trkpt><trkpt lat="44.4847067" lon="9.3080233"><ele>836.0</ele><time>2026-03-27T13:34:34.647Z</time></trkpt><trkpt lat="44.4846733" lon="9.3081083"><ele>836.0</ele><time>2026-03-27T13:34:35.647Z</time></trkpt><trkpt lat="44.48464" lon="9.3081917"><ele>836.0</ele><time>2026-03-27T13:34:36.649Z</time></trkpt><trkpt lat="44.4846017" lon="9.30828"><ele>836.0</ele><time>2026-03-27T13:34:37.647Z</time></trkpt><trkpt lat="44.4845617" lon="9.3083683"><ele>836.0</ele><time>2026-03-27T13:34:38.649Z</time></trkpt><trkpt lat="44.4845283" lon="9.308455"><ele>836.0</ele><time>2026-03-27T13:34:39.647Z</time></trkpt><trkpt lat="44.4844933" lon="9.3085467"><ele>835.6666666666667</ele><time>2026-03-27T13:34:40.652Z</time></trkpt><trkpt lat="44.48446" lon="9.308635"><ele>835.3333333333334</ele><time>2026-03-27T13:34:41.649Z</time></trkpt><trkpt lat="44.4844217" lon="9.308725"><ele>835.0</ele><time>2026-03-27T13:34:42.649Z</time></trkpt><trkpt lat="44.484375" lon="9.3088283"><ele>834.6666666666667</ele><time>2026-03-27T13:34:43.647Z</time></trkpt><trkpt lat="44.4843167" lon="9.3089517"><ele>834.3333333333334</ele><time>2026-03-27T13:34:44.649Z</time></trkpt><trkpt lat="44.484265" lon="9.3090883"><ele>834.0</ele><time>2026-03-27T13:34:45.649Z</time></trkpt><trkpt lat="44.484215" lon="9.3092467"><ele>835.25</ele><time>2026-03-27T13:34:46.649Z</time></trkpt><trkpt lat="44.4841617" lon="9.3094233"><ele>836.5</ele><time>2026-03-27T13:34:47.65Z</time></trkpt><trkpt lat="44.4841033" lon="9.3096183"><ele>837.75</ele><time>2026-03-27T13:34:48.646Z</time></trkpt><trkpt lat="44.48404" lon="9.3098217"><ele>839.0</ele><time>2026-03-27T13:34:49.648Z</time></trkpt><trkpt lat="44.483975" lon="9.3100267"><ele>837.0</ele><time>2026-03-27T13:34:50.647Z</time></trkpt><trkpt lat="44.4838967" lon="9.3102333"><ele>835.0</ele><time>2026-03-27T13:34:51.647Z</time></trkpt><trkpt lat="44.4838033" lon="9.310445"><ele>833.0</ele><time>2026-03-27T13:34:52.647Z</time></trkpt><trkpt lat="44.4836933" lon="9.3106617"><ele>833.0</ele><time>2026-03-27T13:34:53.649Z</time></trkpt><trkpt lat="44.4835733" lon="9.310875"><ele>833.0</ele><time>2026-03-27T13:34:54.654Z</time></trkpt><trkpt lat="44.4834533" lon="9.3110883"><ele>833.0</ele><time>2026-03-27T13:34:55.646Z</time></trkpt><trkpt lat="44.4833283" lon="9.311305"><ele>836.6666666666667</ele><time>2026-03-27T13:34:56.647Z</time></trkpt><trkpt lat="44.48321" lon="9.311525"><ele>840.3333333333333</ele><time>2026-03-27T13:34:57.647Z</time></trkpt><trkpt lat="44.4831033" lon="9.31174"><ele>844.0</ele><time>2026-03-27T13:34:58.646Z</time></trkpt><trkpt lat="44.4830067" lon="9.3119517"><ele>840.6666666666666</ele><time>2026-03-27T13:34:59.647Z</time></trkpt><trkpt lat="44.4829167" lon="9.3121667"><ele>837.3333333333333</ele><time>2026-03-27T13:35:00.647Z</time></trkpt><trkpt lat="44.4828367" lon="9.31237"><ele>834.0</ele><time>2026-03-27T13:35:01.649Z</time></trkpt><trkpt lat="44.4827733" lon="9.3125533"><ele>834.0</ele><time>2026-03-27T13:35:02.646Z</time></trkpt><trkpt lat="44.4827117" lon="9.31274"><ele>834.0</ele><time>2026-03-27T13:35:03.65Z</time></trkpt><trkpt lat="44.4826633" lon="9.3129483"><ele>834.0</ele><time>2026-03-27T13:35:04.648Z</time></trkpt><trkpt lat="44.48263" lon="9.3131733"><ele>834.0</ele><time>2026-03-27T13:35:05.646Z</time></trkpt><trkpt lat="44.4826033" lon="9.31341"><ele>834.0</ele><time>2026-03-27T13:35:06.648Z</time></trkpt><trkpt lat="44.48258" lon="9.3136533"><ele>834.0</ele><time>2026-03-27T13:35:07.646Z</time></trkpt><trkpt lat="44.4825533" lon="9.3139083"><ele>834.0</ele><time>2026-03-27T13:35:08.653Z</time></trkpt><trkpt lat="44.4825267" lon="9.3141733"><ele>834.0</ele><time>2026-03-27T13:35:09.648Z</time></trkpt><trkpt lat="44.4825017" lon="9.314445"><ele>834.0</ele><time>2026-03-27T13:35:10.646Z</time></trkpt><trkpt lat="44.482475" lon="9.3147217"><ele>834.3333333333333</ele><time>2026-03-27T13:35:11.649Z</time></trkpt><trkpt lat="44.48244" lon="9.315"><ele>834.6666666666666</ele><time>2026-03-27T13:35:12.647Z</time></trkpt><trkpt lat="44.4823967" lon="9.3152767"><ele>835.0</ele><time>2026-03-27T13:35:13.649Z</time></trkpt><trkpt lat="44.48235" lon="9.3155533"><ele>836.0</ele><time>2026-03-27T13:35:14.647Z</time></trkpt><trkpt lat="44.4823067" lon="9.3158333"><ele>837.0</ele><time>2026-03-27T13:35:15.647Z</time></trkpt><trkpt lat="44.482265" lon="9.316115"><ele>838.0</ele><time>2026-03-27T13:35:16.647Z</time></trkpt><trkpt lat="44.4822233" lon="9.3164017"><ele>839.3333333333333</ele><time>2026-03-27T13:35:17.649Z</time></trkpt><trkpt lat="44.48218" lon="9.31669"><ele>840.6666666666667</ele><time>2026-03-27T13:35:18.648Z</time></trkpt><trkpt lat="44.4821367" lon="9.3169783"><ele>842.0</ele><time>2026-03-27T13:35:19.647Z</time></trkpt><trkpt lat="44.482095" lon="9.317265"><ele>836.6666666666667</ele><time>2026-03-27T13:35:20.648Z</time></trkpt><trkpt lat="44.4820517" lon="9.317535"><ele>831.3333333333333</ele><time>2026-03-27T13:35:21.649Z</time></trkpt><trkpt lat="44.48198" lon="9.31778"><ele>826.0</ele><time>2026-03-27T13:35:22.647Z</time></trkpt><trkpt lat="44.4818717" lon="9.31799"><ele>828.3333333333333</ele><time>2026-03-27T13:35:23.648Z</time></trkpt><trkpt lat="44.4817317" lon="9.3181617"><ele>830.6666666666667</ele><time>2026-03-27T13:35:24.651Z</time></trkpt><trkpt lat="44.4815767" lon="9.318295"><ele>833.0</ele><time>2026-03-27T13:35:25.648Z</time></trkpt><trkpt lat="44.4814217" lon="9.3184067"><ele>833.0</ele><time>2026-03-27T13:35:26.646Z</time></trkpt><trkpt lat="44.4812833" lon="9.318525"><ele>833.0</ele><time>2026-03-27T13:35:27.647Z</time></trkpt><trkpt lat="44.4811633" lon="9.3186583"><ele>833.0</ele><time>2026-03-27T13:35:28.647Z</time></trkpt><trkpt lat="44.4810667" lon="9.3188067"><ele>832.0</ele><time>2026-03-27T13:35:29.65Z</time></trkpt><trkpt lat="44.4809833" lon="9.3189683"><ele>831.0</ele><time>2026-03-27T13:35:30.647Z</time></trkpt><trkpt lat="44.4809083" lon="9.31914"><ele>830.0</ele><time>2026-03-27T13:35:31.649Z</time></trkpt><trkpt lat="44.4808417" lon="9.3193117"><ele>829.0</ele><time>2026-03-27T13:35:32.647Z</time></trkpt><trkpt lat="44.4807883" lon="9.319475"><ele>829.0</ele><time>2026-03-27T13:35:33.646Z</time></trkpt><trkpt lat="44.4807417" lon="9.3196283"><ele>829.0</ele><time>2026-03-27T13:35:34.647Z</time></trkpt><trkpt lat="44.4807" lon="9.319785"><ele>829.0</ele><time>2026-03-27T13:35:35.648Z</time></trkpt><trkpt lat="44.480655" lon="9.3199467"><ele>829.0</ele><time>2026-03-27T13:35:36.651Z</time></trkpt><trkpt lat="44.4806133" lon="9.3201217"><ele>830.5</ele><time>2026-03-27T13:35:37.647Z</time></trkpt><trkpt lat="44.4805733" lon="9.320285"><ele>832.0</ele><time>2026-03-27T13:35:38.647Z</time></trkpt><trkpt lat="44.4805317" lon="9.3204383"><ele>833.5</ele><time>2026-03-27T13:35:39.647Z</time></trkpt><trkpt lat="44.4804767" lon="9.3205917"><ele>835.0</ele><time>2026-03-27T13:35:40.647Z</time></trkpt><trkpt lat="44.4804133" lon="9.3207483"><ele>832.25</ele><time>2026-03-27T13:35:41.646Z</time></trkpt><trkpt lat="44.480345" lon="9.3209067"><ele>829.5</ele><time>2026-03-27T13:35:42.649Z</time></trkpt><trkpt lat="44.4802717" lon="9.3210817"><ele>826.75</ele><time>2026-03-27T13:35:43.647Z</time></trkpt><trkpt lat="44.4802017" lon="9.3212817"><ele>824.0</ele><time>2026-03-27T13:35:44.648Z</time></trkpt><trkpt lat="44.4801317" lon="9.3215067"><ele>824.0</ele><time>2026-03-27T13:35:45.647Z</time></trkpt><trkpt lat="44.480055" lon="9.3217417"><ele>824.0</ele><time>2026-03-27T13:35:46.647Z</time></trkpt><trkpt lat="44.479965" lon="9.3219633"><ele>824.0</ele><time>2026-03-27T13:35:47.647Z</time></trkpt><trkpt lat="44.4798617" lon="9.3221667"><ele>824.3333333333334</ele><time>2026-03-27T13:35:48.647Z</time></trkpt><trkpt lat="44.4797567" lon="9.3223633"><ele>824.6666666666667</ele><time>2026-03-27T13:35:49.648Z</time></trkpt><trkpt lat="44.4796633" lon="9.322555"><ele>825.0</ele><time>2026-03-27T13:35:50.65Z</time></trkpt><trkpt lat="44.4795967" lon="9.3227467"><ele>825.25</ele><time>2026-03-27T13:35:51.647Z</time></trkpt><trkpt lat="44.4795667" lon="9.3229317"><ele>825.5</ele><time>2026-03-27T13:35:52.646Z</time></trkpt><trkpt lat="44.4795767" lon="9.323105"><ele>825.75</ele><time>2026-03-27T13:35:53.647Z</time></trkpt><trkpt lat="44.4796033" lon="9.32329"><ele>826.0</ele><time>2026-03-27T13:35:54.646Z</time></trkpt><trkpt lat="44.47963" lon="9.323475"><ele>825.25</ele><time>2026-03-27T13:35:55.647Z</time></trkpt><trkpt lat="44.4796533" lon="9.323665"><ele>824.5</ele><time>2026-03-27T13:35:56.647Z</time></trkpt><trkpt lat="44.4796783" lon="9.32386"><ele>823.75</ele><time>2026-03-27T13:35:57.65Z</time></trkpt><trkpt lat="44.479705" lon="9.32406"><ele>823.0</ele><time>2026-03-27T13:35:58.647Z</time></trkpt><trkpt lat="44.4797317" lon="9.3242617"><ele>823.0</ele><time>2026-03-27T13:35:59.648Z</time></trkpt><trkpt lat="44.4797583" lon="9.32447"><ele>823.0</ele><time>2026-03-27T13:36:00.648Z</time></trkpt><trkpt lat="44.4797817" lon="9.3246833"><ele>823.0</ele><time>2026-03-27T13:36:01.653Z</time></trkpt><trkpt lat="44.479795" lon="9.3248917"><ele>823.25</ele><time>2026-03-27T13:36:02.652Z</time></trkpt><trkpt lat="44.4797933" lon="9.325095"><ele>823.5</ele><time>2026-03-27T13:36:03.648Z</time></trkpt><trkpt lat="44.47978" lon="9.3252883"><ele>823.75</ele><time>2026-03-27T13:36:04.648Z</time></trkpt><trkpt lat="44.479755" lon="9.325475"><ele>824.0</ele><time>2026-03-27T13:36:05.649Z</time></trkpt><trkpt lat="44.4797283" lon="9.325645"><ele>824.0</ele><time>2026-03-27T13:36:06.646Z</time></trkpt><trkpt lat="44.4796967" lon="9.32579"><ele>824.0</ele><time>2026-03-27T13:36:07.649Z</time></trkpt><trkpt lat="44.4796667" lon="9.3259083"><ele>824.0</ele><time>2026-03-27T13:36:08.649Z</time></trkpt><trkpt lat="44.47964" lon="9.3260083"><ele>824.0</ele><time>2026-03-27T13:36:09.65Z</time></trkpt><trkpt lat="44.479605" lon="9.3261617"><ele>824.0</ele><time>2026-03-27T13:36:11.647Z</time></trkpt><trkpt lat="44.4795833" lon="9.32631"><ele>824.0</ele><time>2026-03-27T13:36:27.646Z</time></trkpt><trkpt lat="44.4796733" lon="9.3264017"><ele>824.0</ele><time>2026-03-27T13:36:29.65Z</time></trkpt><trkpt lat="44.4797417" lon="9.32644"><ele>824.0</ele><time>2026-03-27T13:36:30.648Z</time></trkpt><trkpt lat="44.4798267" lon="9.326475"><ele>824.0</ele><time>2026-03-27T13:36:31.647Z</time></trkpt><trkpt lat="44.479915" lon="9.3265133"><ele>824.0</ele><time>2026-03-27T13:36:32.65Z</time></trkpt><trkpt lat="44.4800117" lon="9.3265633"><ele>824.0</ele><time>2026-03-27T13:36:33.648Z</time></trkpt><trkpt lat="44.480115" lon="9.3266267"><ele>824.0</ele><time>2026-03-27T13:36:34.649Z</time></trkpt><trkpt lat="44.48022" lon="9.32671"><ele>824.0</ele><time>2026-03-27T13:36:35.649Z</time></trkpt><trkpt lat="44.4803283" lon="9.3268083"><ele>824.0</ele><time>2026-03-27T13:36:36.65Z</time></trkpt><trkpt lat="44.4804367" lon="9.3269167"><ele>825.5</ele><time>2026-03-27T13:36:37.651Z</time></trkpt><trkpt lat="44.4805483" lon="9.32704"><ele>827.0</ele><time>2026-03-27T13:36:38.647Z</time></trkpt><trkpt lat="44.480665" lon="9.3271667"><ele>828.5</ele><time>2026-03-27T13:36:39.648Z</time></trkpt><trkpt lat="44.4807817" lon="9.3273033"><ele>830.0</ele><time>2026-03-27T13:36:40.646Z</time></trkpt><trkpt lat="44.4809" lon="9.3274417"><ele>830.0</ele><time>2026-03-27T13:36:41.649Z</time></trkpt><trkpt lat="44.4810133" lon="9.3275767"><ele>830.0</ele><time>2026-03-27T13:36:42.647Z</time></trkpt><trkpt lat="44.4811233" lon="9.327705"><ele>830.0</ele><time>2026-03-27T13:36:43.648Z</time></trkpt><trkpt lat="44.4812333" lon="9.3278317"><ele>830.0</ele><time>2026-03-27T13:36:44.647Z</time></trkpt><trkpt lat="44.4813483" lon="9.3279667"><ele>830.0</ele><time>2026-03-27T13:36:45.648Z</time></trkpt><trkpt lat="44.48147" lon="9.3281067"><ele>830.0</ele><time>2026-03-27T13:36:46.648Z</time></trkpt><trkpt lat="44.481605" lon="9.32824"><ele>830.0</ele><time>2026-03-27T13:36:47.647Z</time></trkpt><trkpt lat="44.4817533" lon="9.3283717"><ele>830.0</ele><time>2026-03-27T13:36:48.648Z</time></trkpt><trkpt lat="44.481915" lon="9.3284983"><ele>830.0</ele><time>2026-03-27T13:36:49.649Z</time></trkpt><trkpt lat="44.482085" lon="9.3286267"><ele>830.0</ele><time>2026-03-27T13:36:50.647Z</time></trkpt><trkpt lat="44.4822617" lon="9.32875"><ele>829.3333333333334</ele><time>2026-03-27T13:36:51.647Z</time></trkpt><trkpt lat="44.48244" lon="9.3288617"><ele>828.6666666666667</ele><time>2026-03-27T13:36:52.647Z</time></trkpt><trkpt lat="44.48261" lon="9.3289617"><ele>828.0</ele><time>2026-03-27T13:36:53.647Z</time></trkpt><trkpt lat="44.4827717" lon="9.3290683"><ele>828.0</ele><time>2026-03-27T13:36:54.647Z</time></trkpt><trkpt lat="44.48293" lon="9.32921"><ele>828.0</ele><time>2026-03-27T13:36:55.647Z</time></trkpt><trkpt lat="44.483075" lon="9.3293817"><ele>828.0</ele><time>2026-03-27T13:36:56.647Z</time></trkpt><trkpt lat="44.4832183" lon="9.32956"><ele>828.0</ele><time>2026-03-27T13:36:57.649Z</time></trkpt><trkpt lat="44.48336" lon="9.329745"><ele>828.0</ele><time>2026-03-27T13:36:58.646Z</time></trkpt><trkpt lat="44.4835017" lon="9.32993"><ele>828.0</ele><time>2026-03-27T13:36:59.646Z</time></trkpt><trkpt lat="44.4836483" lon="9.3301117"><ele>829.6666666666667</ele><time>2026-03-27T13:37:00.648Z</time></trkpt><trkpt lat="44.4838" lon="9.33028"><ele>831.3333333333334</ele><time>2026-03-27T13:37:01.648Z</time></trkpt><trkpt lat="44.4839533" lon="9.3304567"><ele>833.0</ele><time>2026-03-27T13:37:02.652Z</time></trkpt><trkpt lat="44.484105" lon="9.330635"><ele>833.0</ele><time>2026-03-27T13:37:03.648Z</time></trkpt><trkpt lat="44.484255" lon="9.3308133"><ele>833.0</ele><time>2026-03-27T13:37:04.647Z</time></trkpt><trkpt lat="44.4844067" lon="9.33099"><ele>833.0</ele><time>2026-03-27T13:37:05.648Z</time></trkpt><trkpt lat="44.4845533" lon="9.3311683"><ele>834.3333333333334</ele><time>2026-03-27T13:37:06.649Z</time></trkpt><trkpt lat="44.4846933" lon="9.33135"><ele>835.6666666666667</ele><time>2026-03-27T13:37:07.649Z</time></trkpt><trkpt lat="44.48484" lon="9.3315233"><ele>837.0</ele><time>2026-03-27T13:37:08.65Z</time></trkpt><trkpt lat="44.4849867" lon="9.331695"><ele>837.0</ele><time>2026-03-27T13:37:09.648Z</time></trkpt><trkpt lat="44.4851267" lon="9.331885"><ele>837.0</ele><time>2026-03-27T13:37:10.649Z</time></trkpt><trkpt lat="44.4852583" lon="9.3320833"><ele>837.0</ele><time>2026-03-27T13:37:11.65Z</time></trkpt><trkpt lat="44.4853883" lon="9.3322883"><ele>837.6666666666667</ele><time>2026-03-27T13:37:12.649Z</time></trkpt><trkpt lat="44.48551" lon="9.332515"><ele>838.3333333333334</ele><time>2026-03-27T13:37:13.649Z</time></trkpt><trkpt lat="44.48562" lon="9.3327517"><ele>839.0</ele><time>2026-03-27T13:37:14.65Z</time></trkpt><trkpt lat="44.48572" lon="9.3329983"><ele>835.3333333333334</ele><time>2026-03-27T13:37:15.65Z</time></trkpt><trkpt lat="44.485815" lon="9.3332517"><ele>831.6666666666667</ele><time>2026-03-27T13:37:16.646Z</time></trkpt><trkpt lat="44.485905" lon="9.3335117"><ele>828.0</ele><time>2026-03-27T13:37:17.647Z</time></trkpt><trkpt lat="44.4859967" lon="9.3337567"><ele>828.6666666666667</ele><time>2026-03-27T13:37:18.647Z</time></trkpt><trkpt lat="44.486085" lon="9.33399"><ele>829.3333333333334</ele><time>2026-03-27T13:37:19.648Z</time></trkpt><trkpt lat="44.4861717" lon="9.3341967"><ele>830.0</ele><time>2026-03-27T13:37:20.65Z</time></trkpt><trkpt lat="44.4862733" lon="9.3343767"><ele>830.0</ele><time>2026-03-27T13:37:21.649Z</time></trkpt><trkpt lat="44.4863983" lon="9.33454"><ele>830.0</ele><time>2026-03-27T13:37:22.647Z</time></trkpt><trkpt lat="44.486535" lon="9.3347017"><ele>830.0</ele><time>2026-03-27T13:37:23.647Z</time></trkpt><trkpt lat="44.486675" lon="9.33486"><ele>828.3333333333334</ele><time>2026-03-27T13:37:24.647Z</time></trkpt><trkpt lat="44.4868233" lon="9.33501"><ele>826.6666666666667</ele><time>2026-03-27T13:37:25.647Z</time></trkpt><trkpt lat="44.4869767" lon="9.3351617"><ele>825.0</ele><time>2026-03-27T13:37:26.65Z</time></trkpt><trkpt lat="44.4871383" lon="9.335305"><ele>825.0</ele><time>2026-03-27T13:37:27.646Z</time></trkpt><trkpt lat="44.48731" lon="9.3354367"><ele>825.0</ele><time>2026-03-27T13:37:28.646Z</time></trkpt><trkpt lat="44.4874833" lon="9.3355533"><ele>825.0</ele><time>2026-03-27T13:37:29.647Z</time></trkpt><trkpt lat="44.487655" lon="9.335665"><ele>825.0</ele><time>2026-03-27T13:37:30.647Z</time></trkpt><trkpt lat="44.4878267" lon="9.3357717"><ele>825.0</ele><time>2026-03-27T13:37:31.647Z</time></trkpt><trkpt lat="44.4879967" lon="9.3358817"><ele>825.0</ele><time>2026-03-27T13:37:32.654Z</time></trkpt><trkpt lat="44.4881633" lon="9.336"><ele>823.3333333333333</ele><time>2026-03-27T13:37:33.646Z</time></trkpt><trkpt lat="44.4883233" lon="9.3361233"><ele>821.6666666666666</ele><time>2026-03-27T13:37:34.646Z</time></trkpt><trkpt lat="44.4884667" lon="9.33627"><ele>820.0</ele><time>2026-03-27T13:37:35.646Z</time></trkpt><trkpt lat="44.4886" lon="9.3364367"><ele>820.0</ele><time>2026-03-27T13:37:36.648Z</time></trkpt><trkpt lat="44.488735" lon="9.3366"><ele>820.0</ele><time>2026-03-27T13:37:37.648Z</time></trkpt><trkpt lat="44.4888667" lon="9.3367717"><ele>820.0</ele><time>2026-03-27T13:37:38.647Z</time></trkpt><trkpt lat="44.4889967" lon="9.3369517"><ele>820.3333333333333</ele><time>2026-03-27T13:37:39.648Z</time></trkpt><trkpt lat="44.4891267" lon="9.3371283"><ele>820.6666666666667</ele><time>2026-03-27T13:37:40.649Z</time></trkpt><trkpt lat="44.4892583" lon="9.3373083"><ele>821.0</ele><time>2026-03-27T13:37:41.647Z</time></trkpt><trkpt lat="44.4893917" lon="9.3374917"><ele>821.0</ele><time>2026-03-27T13:37:42.647Z</time></trkpt><trkpt lat="44.48952" lon="9.3376767"><ele>821.0</ele><time>2026-03-27T13:37:43.652Z</time></trkpt><trkpt lat="44.4896483" lon="9.3378567"><ele>821.0</ele><time>2026-03-27T13:37:44.648Z</time></trkpt><trkpt lat="44.489765" lon="9.3380333"><ele>821.0</ele><time>2026-03-27T13:37:45.648Z</time></trkpt><trkpt lat="44.489875" lon="9.3382033"><ele>821.0</ele><time>2026-03-27T13:37:46.647Z</time></trkpt><trkpt lat="44.489975" lon="9.33836"><ele>821.0</ele><time>2026-03-27T13:37:47.646Z</time></trkpt><trkpt lat="44.4900733" lon="9.3385167"><ele>821.0</ele><time>2026-03-27T13:37:48.647Z</time></trkpt><trkpt lat="44.4901767" lon="9.3386733"><ele>821.0</ele><time>2026-03-27T13:37:49.646Z</time></trkpt><trkpt lat="44.490275" lon="9.3388233"><ele>821.0</ele><time>2026-03-27T13:37:50.647Z</time></trkpt><trkpt lat="44.4903783" lon="9.338945"><ele>821.0</ele><time>2026-03-27T13:37:51.649Z</time></trkpt><trkpt lat="44.490485" lon="9.3390633"><ele>820.5</ele><time>2026-03-27T13:37:52.647Z</time></trkpt><trkpt lat="44.490605" lon="9.3391617"><ele>820.0</ele><time>2026-03-27T13:37:53.646Z</time></trkpt><trkpt lat="44.4907317" lon="9.3392517"><ele>819.5</ele><time>2026-03-27T13:37:54.651Z</time></trkpt><trkpt lat="44.4908617" lon="9.3393383"><ele>819.0</ele><time>2026-03-27T13:37:55.648Z</time></trkpt><trkpt lat="44.4909883" lon="9.33941"><ele>819.0</ele><time>2026-03-27T13:37:56.647Z</time></trkpt><trkpt lat="44.4911117" lon="9.3394583"><ele>819.0</ele><time>2026-03-27T13:37:57.648Z</time></trkpt><trkpt lat="44.491235" lon="9.339485"><ele>819.0</ele><time>2026-03-27T13:37:58.646Z</time></trkpt><trkpt lat="44.4913583" lon="9.3395167"><ele>819.0</ele><time>2026-03-27T13:37:59.65Z</time></trkpt><trkpt lat="44.4914783" lon="9.3395583"><ele>819.4000000000001</ele><time>2026-03-27T13:38:00.648Z</time></trkpt><trkpt lat="44.4915883" lon="9.33962"><ele>819.8</ele><time>2026-03-27T13:38:01.646Z</time></trkpt><trkpt lat="44.49168" lon="9.3397067"><ele>820.2</ele><time>2026-03-27T13:38:02.648Z</time></trkpt><trkpt lat="44.4917717" lon="9.3397883"><ele>820.5999999999999</ele><time>2026-03-27T13:38:03.647Z</time></trkpt><trkpt lat="44.4918583" lon="9.3398833"><ele>821.0</ele><time>2026-03-27T13:38:04.65Z</time></trkpt><trkpt lat="44.49195" lon="9.3399833"><ele>821.25</ele><time>2026-03-27T13:38:05.649Z</time></trkpt><trkpt lat="44.4920483" lon="9.3400767"><ele>821.5</ele><time>2026-03-27T13:38:06.646Z</time></trkpt><trkpt lat="44.4921483" lon="9.340165"><ele>821.75</ele><time>2026-03-27T13:38:07.647Z</time></trkpt><trkpt lat="44.4922433" lon="9.3402683"><ele>822.0</ele><time>2026-03-27T13:38:08.648Z</time></trkpt><trkpt lat="44.49234" lon="9.340395"><ele>822.0</ele><time>2026-03-27T13:38:09.652Z</time></trkpt><trkpt lat="44.4924267" lon="9.34054"><ele>822.0</ele><time>2026-03-27T13:38:10.647Z</time></trkpt><trkpt lat="44.4925183" lon="9.3406867"><ele>822.0</ele><time>2026-03-27T13:38:11.647Z</time></trkpt><trkpt lat="44.4926067" lon="9.3408283"><ele>822.0</ele><time>2026-03-27T13:38:12.647Z</time></trkpt><trkpt lat="44.4926817" lon="9.3409633"><ele>821.0</ele><time>2026-03-27T13:38:13.646Z</time></trkpt><trkpt lat="44.49275" lon="9.3410917"><ele>820.0</ele><time>2026-03-27T13:38:14.646Z</time></trkpt><trkpt lat="44.4928067" lon="9.3412283"><ele>819.0</ele><time>2026-03-27T13:38:15.649Z</time></trkpt><trkpt lat="44.4928517" lon="9.3413667"><ele>818.0</ele><time>2026-03-27T13:38:16.649Z</time></trkpt><trkpt lat="44.4929" lon="9.3415017"><ele>817.0</ele><time>2026-03-27T13:38:17.646Z</time></trkpt><trkpt lat="44.49294" lon="9.3416467"><ele>817.0</ele><time>2026-03-27T13:38:18.647Z</time></trkpt><trkpt lat="44.4929717" lon="9.3418067"><ele>817.0</ele><time>2026-03-27T13:38:19.647Z</time></trkpt><trkpt lat="44.4929933" lon="9.341965"><ele>817.0</ele><time>2026-03-27T13:38:20.647Z</time></trkpt><trkpt lat="44.4930133" lon="9.3421233"><ele>817.0</ele><time>2026-03-27T13:38:21.648Z</time></trkpt><trkpt lat="44.49303" lon="9.3422917"><ele>818.0</ele><time>2026-03-27T13:38:22.649Z</time></trkpt><trkpt lat="44.4930567" lon="9.3424567"><ele>819.0</ele><time>2026-03-27T13:38:23.646Z</time></trkpt><trkpt lat="44.4930817" lon="9.3426217"><ele>820.0</ele><time>2026-03-27T13:38:24.649Z</time></trkpt><trkpt lat="44.4931017" lon="9.3427967"><ele>821.0</ele><time>2026-03-27T13:38:25.647Z</time></trkpt><trkpt lat="44.4931183" lon="9.34297"><ele>821.75</ele><time>2026-03-27T13:38:26.647Z</time></trkpt><trkpt lat="44.49313" lon="9.3431417"><ele>822.5</ele><time>2026-03-27T13:38:27.647Z</time></trkpt><trkpt lat="44.4931467" lon="9.3433083"><ele>823.25</ele><time>2026-03-27T13:38:28.65Z</time></trkpt><trkpt lat="44.493165" lon="9.3434767"><ele>824.0</ele><time>2026-03-27T13:38:29.649Z</time></trkpt><trkpt lat="44.4932" lon="9.34363"><ele>824.0</ele><time>2026-03-27T13:38:30.649Z</time></trkpt><trkpt lat="44.4932483" lon="9.3437667"><ele>824.0</ele><time>2026-03-27T13:38:31.649Z</time></trkpt><trkpt lat="44.4933183" lon="9.3438883"><ele>824.0</ele><time>2026-03-27T13:38:32.649Z</time></trkpt><trkpt lat="44.49341" lon="9.3439983"><ele>824.0</ele><time>2026-03-27T13:38:33.649Z</time></trkpt><trkpt lat="44.493515" lon="9.3440967"><ele>822.5</ele><time>2026-03-27T13:38:34.65Z</time></trkpt><trkpt lat="44.4936267" lon="9.3441917"><ele>821.0</ele><time>2026-03-27T13:38:35.649Z</time></trkpt><trkpt lat="44.4937433" lon="9.3442833"><ele>819.5</ele><time>2026-03-27T13:38:36.649Z</time></trkpt><trkpt lat="44.4938633" lon="9.3443733"><ele>818.0</ele><time>2026-03-27T13:38:37.65Z</time></trkpt><trkpt lat="44.49398" lon="9.3444633"><ele>817.75</ele><time>2026-03-27T13:38:38.65Z</time></trkpt><trkpt lat="44.4940983" lon="9.344555"><ele>817.5</ele><time>2026-03-27T13:38:39.649Z</time></trkpt><trkpt lat="44.4942167" lon="9.3446517"><ele>817.25</ele><time>2026-03-27T13:38:40.649Z</time></trkpt><trkpt lat="44.49433" lon="9.344765"><ele>817.0</ele><time>2026-03-27T13:38:41.648Z</time></trkpt><trkpt lat="44.4944317" lon="9.3449"><ele>817.0</ele><time>2026-03-27T13:38:42.649Z</time></trkpt><trkpt lat="44.4945283" lon="9.345045"><ele>817.0</ele><time>2026-03-27T13:38:43.648Z</time></trkpt><trkpt lat="44.494625" lon="9.3451933"><ele>817.0</ele><time>2026-03-27T13:38:44.649Z</time></trkpt><trkpt lat="44.4947183" lon="9.3453417"><ele>817.0</ele><time>2026-03-27T13:38:45.649Z</time></trkpt><trkpt lat="44.49481" lon="9.3454883"><ele>815.25</ele><time>2026-03-27T13:38:46.65Z</time></trkpt><trkpt lat="44.4948967" lon="9.3456367"><ele>813.5</ele><time>2026-03-27T13:38:47.65Z</time></trkpt><trkpt lat="44.49498" lon="9.3457883"><ele>811.75</ele><time>2026-03-27T13:38:48.649Z</time></trkpt><trkpt lat="44.4950533" lon="9.345955"><ele>810.0</ele><time>2026-03-27T13:38:49.65Z</time></trkpt><trkpt lat="44.4951167" lon="9.346125"><ele>810.0</ele><time>2026-03-27T13:38:50.647Z</time></trkpt><trkpt lat="44.49517" lon="9.3462917"><ele>810.0</ele><time>2026-03-27T13:38:51.65Z</time></trkpt><trkpt lat="44.4952167" lon="9.3464467"><ele>810.0</ele><time>2026-03-27T13:38:52.649Z</time></trkpt><trkpt lat="44.4952567" lon="9.3465733"><ele>810.0</ele><time>2026-03-27T13:38:53.647Z</time></trkpt><trkpt lat="44.495295" lon="9.3466933"><ele>810.0</ele><time>2026-03-27T13:38:54.647Z</time></trkpt><trkpt lat="44.49535" lon="9.3467983"><ele>810.5</ele><time>2026-03-27T13:38:55.65Z</time></trkpt><trkpt lat="44.49544" lon="9.3468883"><ele>811.0</ele><time>2026-03-27T13:38:56.647Z</time></trkpt><trkpt lat="44.4955667" lon="9.34695"><ele>811.5</ele><time>2026-03-27T13:38:57.646Z</time></trkpt><trkpt lat="44.4957067" lon="9.3469683"><ele>812.0</ele><time>2026-03-27T13:38:58.646Z</time></trkpt><trkpt lat="44.4958483" lon="9.3469867"><ele>812.0</ele><time>2026-03-27T13:38:59.647Z</time></trkpt><trkpt lat="44.49599" lon="9.3470367"><ele>812.0</ele><time>2026-03-27T13:39:00.647Z</time></trkpt><trkpt lat="44.496125" lon="9.3471133"><ele>812.0</ele><time>2026-03-27T13:39:01.647Z</time></trkpt><trkpt lat="44.49624" lon="9.3472467"><ele>812.0</ele><time>2026-03-27T13:39:02.649Z</time></trkpt><trkpt lat="44.49634" lon="9.3474083"><ele>811.3333333333334</ele><time>2026-03-27T13:39:03.647Z</time></trkpt><trkpt lat="44.49643" lon="9.3475783"><ele>810.6666666666667</ele><time>2026-03-27T13:39:04.647Z</time></trkpt><trkpt lat="44.4964867" lon="9.3477783"><ele>810.0</ele><time>2026-03-27T13:39:05.649Z</time></trkpt><trkpt lat="44.4965417" lon="9.3479683"><ele>812.0</ele><time>2026-03-27T13:39:06.649Z</time></trkpt><trkpt lat="44.4965783" lon="9.3481917"><ele>814.0</ele><time>2026-03-27T13:39:07.65Z</time></trkpt><trkpt lat="44.49662" lon="9.348405"><ele>816.0</ele><time>2026-03-27T13:39:08.648Z</time></trkpt><trkpt lat="44.4966633" lon="9.34863"><ele>816.0</ele><time>2026-03-27T13:39:09.647Z</time></trkpt><trkpt lat="44.4967117" lon="9.3488533"><ele>816.0</ele><time>2026-03-27T13:39:10.649Z</time></trkpt><trkpt lat="44.496755" lon="9.34908"><ele>816.0</ele><time>2026-03-27T13:39:11.647Z</time></trkpt><trkpt lat="44.4968133" lon="9.3492683"><ele>817.25</ele><time>2026-03-27T13:39:12.647Z</time></trkpt><trkpt lat="44.4968567" lon="9.3494683"><ele>818.5</ele><time>2026-03-27T13:39:13.647Z</time></trkpt><trkpt lat="44.49691" lon="9.3496583"><ele>819.75</ele><time>2026-03-27T13:39:14.647Z</time></trkpt><trkpt lat="44.49699" lon="9.3498267"><ele>821.0</ele><time>2026-03-27T13:39:15.647Z</time></trkpt><trkpt lat="44.4970883" lon="9.3499817"><ele>817.6666666666667</ele><time>2026-03-27T13:39:16.647Z</time></trkpt><trkpt lat="44.49722" lon="9.3501033"><ele>814.3333333333333</ele><time>2026-03-27T13:39:17.646Z</time></trkpt><trkpt lat="44.4973533" lon="9.3502267"><ele>811.0</ele><time>2026-03-27T13:39:18.648Z</time></trkpt><trkpt lat="44.4974833" lon="9.3503583"><ele>811.0</ele><time>2026-03-27T13:39:19.647Z</time></trkpt><trkpt lat="44.4976033" lon="9.3505067"><ele>811.0</ele><time>2026-03-27T13:39:20.652Z</time></trkpt><trkpt lat="44.497725" lon="9.3506533"><ele>811.0</ele><time>2026-03-27T13:39:21.648Z</time></trkpt><trkpt lat="44.49784" lon="9.3507983"><ele>810.3333333333333</ele><time>2026-03-27T13:39:22.648Z</time></trkpt><trkpt lat="44.4979633" lon="9.3509383"><ele>809.6666666666667</ele><time>2026-03-27T13:39:23.646Z</time></trkpt><trkpt lat="44.4980767" lon="9.3510833"><ele>809.0</ele><time>2026-03-27T13:39:24.647Z</time></trkpt><trkpt lat="44.49818" lon="9.3512383"><ele>811.25</ele><time>2026-03-27T13:39:25.648Z</time></trkpt><trkpt lat="44.498265" lon="9.3514"><ele>813.5</ele><time>2026-03-27T13:39:26.647Z</time></trkpt><trkpt lat="44.4983533" lon="9.3515417"><ele>815.75</ele><time>2026-03-27T13:39:27.647Z</time></trkpt><trkpt lat="44.4984567" lon="9.3516433"><ele>818.0</ele><time>2026-03-27T13:39:28.651Z</time></trkpt><trkpt lat="44.4985833" lon="9.351675"><ele>818.0</ele><time>2026-03-27T13:39:29.651Z</time></trkpt><trkpt lat="44.4987233" lon="9.3516283"><ele>818.0</ele><time>2026-03-27T13:39:30.646Z</time></trkpt><trkpt lat="44.4988667" lon="9.3515433"><ele>818.0</ele><time>2026-03-27T13:39:31.646Z</time></trkpt><trkpt lat="44.4990017" lon="9.3514517"><ele>813.6666666666667</ele><time>2026-03-27T13:39:32.647Z</time></trkpt><trkpt lat="44.4991383" lon="9.3513567"><ele>809.3333333333333</ele><time>2026-03-27T13:39:33.649Z</time></trkpt><trkpt lat="44.4992717" lon="9.3512483"><ele>805.0</ele><time>2026-03-27T13:39:34.647Z</time></trkpt><trkpt lat="44.4994083" lon="9.35113"><ele>805.0</ele><time>2026-03-27T13:39:35.649Z</time></trkpt><trkpt lat="44.49955" lon="9.3510117"><ele>805.0</ele><time>2026-03-27T13:39:36.648Z</time></trkpt><trkpt lat="44.4997" lon="9.3508967"><ele>805.0</ele><time>2026-03-27T13:39:37.648Z</time></trkpt><trkpt lat="44.4998433" lon="9.3507967"><ele>806.75</ele><time>2026-03-27T13:39:38.649Z</time></trkpt><trkpt lat="44.49998" lon="9.3506967"><ele>808.5</ele><time>2026-03-27T13:39:39.646Z</time></trkpt><trkpt lat="44.5001117" lon="9.3506217"><ele>810.25</ele><time>2026-03-27T13:39:40.649Z</time></trkpt><trkpt lat="44.5002583" lon="9.35058"><ele>812.0</ele><time>2026-03-27T13:39:41.646Z</time></trkpt><trkpt lat="44.50041" lon="9.3505783"><ele>812.0</ele><time>2026-03-27T13:39:42.648Z</time></trkpt><trkpt lat="44.50056" lon="9.3506"><ele>812.0</ele><time>2026-03-27T13:39:43.646Z</time></trkpt><trkpt lat="44.5007" lon="9.3506"><ele>812.0</ele><time>2026-03-27T13:39:44.648Z</time></trkpt><trkpt lat="44.5008283" lon="9.350595"><ele>812.0</ele><time>2026-03-27T13:39:45.647Z</time></trkpt><trkpt lat="44.5009383" lon="9.3506383"><ele>812.0</ele><time>2026-03-27T13:39:46.646Z</time></trkpt><trkpt lat="44.501035" lon="9.3507317"><ele>812.0</ele><time>2026-03-27T13:39:47.647Z</time></trkpt><trkpt lat="44.5011167" lon="9.3508583"><ele>812.0</ele><time>2026-03-27T13:39:48.648Z</time></trkpt><trkpt lat="44.5011867" lon="9.3510167"><ele>812.0</ele><time>2026-03-27T13:39:49.652Z</time></trkpt><trkpt lat="44.5012583" lon="9.3512017"><ele>812.3333333333334</ele><time>2026-03-27T13:39:50.647Z</time></trkpt><trkpt lat="44.50135" lon="9.35138"><ele>812.6666666666667</ele><time>2026-03-27T13:39:51.648Z</time></trkpt><trkpt lat="44.50146" lon="9.35156"><ele>813.0</ele><time>2026-03-27T13:39:52.647Z</time></trkpt><trkpt lat="44.5015717" lon="9.3517383"><ele>813.0</ele><time>2026-03-27T13:39:53.647Z</time></trkpt><trkpt lat="44.50168" lon="9.3519117"><ele>813.0</ele><time>2026-03-27T13:39:54.646Z</time></trkpt><trkpt lat="44.5017967" lon="9.352075"><ele>813.0</ele><time>2026-03-27T13:39:55.647Z</time></trkpt><trkpt lat="44.5019317" lon="9.3522183"><ele>813.6666666666667</ele><time>2026-03-27T13:39:56.647Z</time></trkpt><trkpt lat="44.502085" lon="9.3523333"><ele>814.3333333333334</ele><time>2026-03-27T13:39:57.647Z</time></trkpt><trkpt lat="44.502245" lon="9.3524317"><ele>815.0</ele><time>2026-03-27T13:39:58.647Z</time></trkpt><trkpt lat="44.5024083" lon="9.3525133"><ele>815.0</ele><time>2026-03-27T13:39:59.648Z</time></trkpt><trkpt lat="44.50257" lon="9.3525867"><ele>815.0</ele><time>2026-03-27T13:40:00.647Z</time></trkpt><trkpt lat="44.50273" lon="9.3526683"><ele>815.0</ele><time>2026-03-27T13:40:01.646Z</time></trkpt><trkpt lat="44.5028817" lon="9.3527417"><ele>812.6666666666667</ele><time>2026-03-27T13:40:02.652Z</time></trkpt><trkpt lat="44.5030383" lon="9.3528083"><ele>810.3333333333333</ele><time>2026-03-27T13:40:03.648Z</time></trkpt><trkpt lat="44.503195" lon="9.3528767"><ele>808.0</ele><time>2026-03-27T13:40:04.647Z</time></trkpt><trkpt lat="44.5033533" lon="9.3529417"><ele>808.0</ele><time>2026-03-27T13:40:05.647Z</time></trkpt><trkpt lat="44.5035117" lon="9.3530067"><ele>808.0</ele><time>2026-03-27T13:40:06.646Z</time></trkpt><trkpt lat="44.50367" lon="9.3530717"><ele>808.0</ele><time>2026-03-27T13:40:07.646Z</time></trkpt><trkpt lat="44.5038317" lon="9.3531383"><ele>808.6666666666666</ele><time>2026-03-27T13:40:08.647Z</time></trkpt><trkpt lat="44.5039883" lon="9.35322"><ele>809.3333333333333</ele><time>2026-03-27T13:40:09.647Z</time></trkpt><trkpt lat="44.5041417" lon="9.3533"><ele>810.0</ele><time>2026-03-27T13:40:10.646Z</time></trkpt><trkpt lat="44.50429" lon="9.3533767"><ele>810.0</ele><time>2026-03-27T13:40:11.648Z</time></trkpt><trkpt lat="44.504445" lon="9.3534533"><ele>810.0</ele><time>2026-03-27T13:40:12.648Z</time></trkpt><trkpt lat="44.5046017" lon="9.3535367"><ele>810.0</ele><time>2026-03-27T13:40:13.646Z</time></trkpt><trkpt lat="44.50476" lon="9.3536317"><ele>810.0</ele><time>2026-03-27T13:40:14.647Z</time></trkpt><trkpt lat="44.504915" lon="9.3537417"><ele>810.0</ele><time>2026-03-27T13:40:15.646Z</time></trkpt><trkpt lat="44.50508" lon="9.3538417"><ele>810.0</ele><time>2026-03-27T13:40:16.646Z</time></trkpt><trkpt lat="44.5052533" lon="9.35392"><ele>810.6666666666667</ele><time>2026-03-27T13:40:17.646Z</time></trkpt><trkpt lat="44.5054233" lon="9.35398"><ele>811.3333333333334</ele><time>2026-03-27T13:40:18.647Z</time></trkpt><trkpt lat="44.5055833" lon="9.3540317"><ele>812.0</ele><time>2026-03-27T13:40:19.651Z</time></trkpt><trkpt lat="44.5057333" lon="9.3540867"><ele>812.0</ele><time>2026-03-27T13:40:20.649Z</time></trkpt><trkpt lat="44.50586" lon="9.3541667"><ele>812.0</ele><time>2026-03-27T13:40:21.647Z</time></trkpt><trkpt lat="44.5059517" lon="9.3542883"><ele>812.0</ele><time>2026-03-27T13:40:22.652Z</time></trkpt><trkpt lat="44.50603" lon="9.35443"><ele>812.0</ele><time>2026-03-27T13:40:23.648Z</time></trkpt><trkpt lat="44.5061183" lon="9.354565"><ele>812.5</ele><time>2026-03-27T13:40:24.647Z</time></trkpt><trkpt lat="44.5062067" lon="9.3547117"><ele>813.0</ele><time>2026-03-27T13:40:25.646Z</time></trkpt><trkpt lat="44.5063017" lon="9.3548417"><ele>813.5</ele><time>2026-03-27T13:40:26.648Z</time></trkpt><trkpt lat="44.50639" lon="9.3549717"><ele>814.0</ele><time>2026-03-27T13:40:27.647Z</time></trkpt><trkpt lat="44.5064967" lon="9.35506"><ele>814.0</ele><time>2026-03-27T13:40:28.649Z</time></trkpt><trkpt lat="44.5066217" lon="9.355125"><ele>814.0</ele><time>2026-03-27T13:40:29.647Z</time></trkpt><trkpt lat="44.506765" lon="9.3551467"><ele>814.0</ele><time>2026-03-27T13:40:30.646Z</time></trkpt><trkpt lat="44.5069283" lon="9.3551433"><ele>814.0</ele><time>2026-03-27T13:40:31.646Z</time></trkpt><trkpt lat="44.5070867" lon="9.3551433"><ele>813.5</ele><time>2026-03-27T13:40:32.649Z</time></trkpt><trkpt lat="44.5072333" lon="9.3551333"><ele>813.0</ele><time>2026-03-27T13:40:33.648Z</time></trkpt><trkpt lat="44.5073733" lon="9.3551133"><ele>812.5</ele><time>2026-03-27T13:40:34.646Z</time></trkpt><trkpt lat="44.5075117" lon="9.355065"><ele>812.0</ele><time>2026-03-27T13:40:35.646Z</time></trkpt><trkpt lat="44.50764" lon="9.3550117"><ele>812.0</ele><time>2026-03-27T13:40:36.647Z</time></trkpt><trkpt lat="44.5077617" lon="9.3549533"><ele>812.0</ele><time>2026-03-27T13:40:37.646Z</time></trkpt><trkpt lat="44.507875" lon="9.354875"><ele>812.0</ele><time>2026-03-27T13:40:38.648Z</time></trkpt><trkpt lat="44.5079783" lon="9.3547967"><ele>812.0</ele><time>2026-03-27T13:40:39.65Z</time></trkpt><trkpt lat="44.50808" lon="9.354715"><ele>811.25</ele><time>2026-03-27T13:40:40.647Z</time></trkpt><trkpt lat="44.50819" lon="9.3546167"><ele>810.5</ele><time>2026-03-27T13:40:41.65Z</time></trkpt><trkpt lat="44.5082933" lon="9.3545267"><ele>809.75</ele><time>2026-03-27T13:40:42.647Z</time></trkpt><trkpt lat="44.508405" lon="9.354415"><ele>809.0</ele><time>2026-03-27T13:40:43.646Z</time></trkpt><trkpt lat="44.5085267" lon="9.3543067"><ele>809.0</ele><time>2026-03-27T13:40:44.648Z</time></trkpt><trkpt lat="44.5086533" lon="9.354225"><ele>809.0</ele><time>2026-03-27T13:40:45.649Z</time></trkpt><trkpt lat="44.5087983" lon="9.3541917"><ele>809.0</ele><time>2026-03-27T13:40:46.647Z</time></trkpt><trkpt lat="44.508965" lon="9.3542017"><ele>807.6666666666667</ele><time>2026-03-27T13:40:47.649Z</time></trkpt><trkpt lat="44.5091467" lon="9.354225"><ele>806.3333333333333</ele><time>2026-03-27T13:40:48.65Z</time></trkpt><trkpt lat="44.5093467" lon="9.354265"><ele>805.0</ele><time>2026-03-27T13:40:49.649Z</time></trkpt><trkpt lat="44.5095483" lon="9.3542883"><ele>801.3333333333333</ele><time>2026-03-27T13:40:50.648Z</time></trkpt><trkpt lat="44.509715" lon="9.3543217"><ele>797.6666666666667</ele><time>2026-03-27T13:40:51.652Z</time></trkpt><trkpt lat="44.5098517" lon="9.3543967"><ele>794.0</ele><time>2026-03-27T13:40:52.648Z</time></trkpt><trkpt lat="44.5099617" lon="9.3545233"><ele>794.0</ele><time>2026-03-27T13:40:53.648Z</time></trkpt><trkpt lat="44.5100433" lon="9.3546667"><ele>794.0</ele><time>2026-03-27T13:40:54.65Z</time></trkpt><trkpt lat="44.510105" lon="9.3548683"><ele>794.0</ele><time>2026-03-27T13:40:55.649Z</time></trkpt><trkpt lat="44.5101683" lon="9.355075"><ele>794.0</ele><time>2026-03-27T13:40:56.649Z</time></trkpt><trkpt lat="44.51024" lon="9.355265"><ele>791.3333333333334</ele><time>2026-03-27T13:40:57.649Z</time></trkpt><trkpt lat="44.510355" lon="9.3554117"><ele>788.6666666666667</ele><time>2026-03-27T13:40:58.648Z</time></trkpt><trkpt lat="44.5105083" lon="9.3555183"><ele>786.0</ele><time>2026-03-27T13:40:59.65Z</time></trkpt><trkpt lat="44.5106733" lon="9.3555833"><ele>791.3333333333333</ele><time>2026-03-27T13:41:00.652Z</time></trkpt><trkpt lat="44.510855" lon="9.355615"><ele>796.6666666666666</ele><time>2026-03-27T13:41:01.647Z</time></trkpt><trkpt lat="44.5110467" lon="9.3556333"><ele>802.0</ele><time>2026-03-27T13:41:02.648Z</time></trkpt><trkpt lat="44.5112033" lon="9.3556883"><ele>792.6666666666666</ele><time>2026-03-27T13:41:03.648Z</time></trkpt><trkpt lat="44.5113333" lon="9.3557817"><ele>783.3333333333333</ele><time>2026-03-27T13:41:04.648Z</time></trkpt><trkpt lat="44.5114517" lon="9.3559267"><ele>774.0</ele><time>2026-03-27T13:41:05.647Z</time></trkpt><trkpt lat="44.51156" lon="9.3561083"><ele>774.0</ele><time>2026-03-27T13:41:06.648Z</time></trkpt><trkpt lat="44.511665" lon="9.356295"><ele>774.0</ele><time>2026-03-27T13:41:07.646Z</time></trkpt><trkpt lat="44.5117717" lon="9.3564783"><ele>774.0</ele><time>2026-03-27T13:41:08.647Z</time></trkpt><trkpt lat="44.5118633" lon="9.3566667"><ele>777.0</ele><time>2026-03-27T13:41:09.647Z</time></trkpt><trkpt lat="44.5119333" lon="9.356855"><ele>780.0</ele><time>2026-03-27T13:41:10.649Z</time></trkpt><trkpt lat="44.51197" lon="9.3570567"><ele>783.0</ele><time>2026-03-27T13:41:11.647Z</time></trkpt><trkpt lat="44.5119733" lon="9.357255"><ele>786.0</ele><time>2026-03-27T13:41:12.646Z</time></trkpt><trkpt lat="44.5119617" lon="9.35747"><ele>786.0</ele><time>2026-03-27T13:41:13.654Z</time></trkpt><trkpt lat="44.5119483" lon="9.35769"><ele>786.0</ele><time>2026-03-27T13:41:14.647Z</time></trkpt><trkpt lat="44.5119267" lon="9.3579183"><ele>786.0</ele><time>2026-03-27T13:41:15.647Z</time></trkpt><trkpt lat="44.511885" lon="9.3581367"><ele>785.6666666666667</ele><time>2026-03-27T13:41:16.647Z</time></trkpt><trkpt lat="44.5118267" lon="9.3583567"><ele>785.3333333333334</ele><time>2026-03-27T13:41:17.647Z</time></trkpt><trkpt lat="44.5117667" lon="9.35858"><ele>785.0</ele><time>2026-03-27T13:41:18.648Z</time></trkpt><trkpt lat="44.51172" lon="9.3588"><ele>781.3333333333334</ele><time>2026-03-27T13:41:19.647Z</time></trkpt><trkpt lat="44.511715" lon="9.3590283"><ele>777.6666666666667</ele><time>2026-03-27T13:41:20.648Z</time></trkpt><trkpt lat="44.51171" lon="9.35923"><ele>774.0</ele><time>2026-03-27T13:41:21.647Z</time></trkpt><trkpt lat="44.51168" lon="9.359435"><ele>774.0</ele><time>2026-03-27T13:41:22.648Z</time></trkpt><trkpt lat="44.51163" lon="9.3596283"><ele>774.0</ele><time>2026-03-27T13:41:23.65Z</time></trkpt><trkpt lat="44.511565" lon="9.3598083"><ele>774.0</ele><time>2026-03-27T13:41:24.649Z</time></trkpt><trkpt lat="44.5115067" lon="9.3599733"><ele>774.0</ele><time>2026-03-27T13:41:25.647Z</time></trkpt><trkpt lat="44.511465" lon="9.3601383"><ele>774.25</ele><time>2026-03-27T13:41:26.652Z</time></trkpt><trkpt lat="44.51146" lon="9.3603033"><ele>774.5</ele><time>2026-03-27T13:41:27.646Z</time></trkpt><trkpt lat="44.5115183" lon="9.3604517"><ele>774.75</ele><time>2026-03-27T13:41:28.647Z</time></trkpt><trkpt lat="44.5116133" lon="9.360545"><ele>775.0</ele><time>2026-03-27T13:41:29.646Z</time></trkpt><trkpt lat="44.51172" lon="9.3606033"><ele>775.0</ele><time>2026-03-27T13:41:30.647Z</time></trkpt><trkpt lat="44.51182" lon="9.3606717"><ele>775.0</ele><time>2026-03-27T13:41:31.649Z</time></trkpt><trkpt lat="44.5119" lon="9.3607983"><ele>775.0</ele><time>2026-03-27T13:41:32.65Z</time></trkpt><trkpt lat="44.5119433" lon="9.36095"><ele>775.0</ele><time>2026-03-27T13:41:33.648Z</time></trkpt><trkpt lat="44.51196" lon="9.361125"><ele>775.0</ele><time>2026-03-27T13:41:34.653Z</time></trkpt><trkpt lat="44.5119567" lon="9.3613083"><ele>775.0</ele><time>2026-03-27T13:41:35.648Z</time></trkpt><trkpt lat="44.511955" lon="9.3615"><ele>775.0</ele><time>2026-03-27T13:41:36.647Z</time></trkpt><trkpt lat="44.5119717" lon="9.361695"><ele>775.0</ele><time>2026-03-27T13:41:37.649Z</time></trkpt><trkpt lat="44.5120133" lon="9.3618883"><ele>775.25</ele><time>2026-03-27T13:41:38.647Z</time></trkpt><trkpt lat="44.5120483" lon="9.3620683"><ele>775.5</ele><time>2026-03-27T13:41:39.646Z</time></trkpt><trkpt lat="44.5120733" lon="9.3622417"><ele>775.75</ele><time>2026-03-27T13:41:40.647Z</time></trkpt><trkpt lat="44.512065" lon="9.3624267"><ele>776.0</ele><time>2026-03-27T13:41:41.646Z</time></trkpt><trkpt lat="44.5120167" lon="9.3626417"><ele>776.0</ele><time>2026-03-27T13:41:42.647Z</time></trkpt><trkpt lat="44.511965" lon="9.3628517"><ele>776.0</ele><time>2026-03-27T13:41:43.647Z</time></trkpt><trkpt lat="44.511915" lon="9.3630383"><ele>776.0</ele><time>2026-03-27T13:41:44.648Z</time></trkpt><trkpt lat="44.5118783" lon="9.36322"><ele>776.0</ele><time>2026-03-27T13:41:45.646Z</time></trkpt><trkpt lat="44.511875" lon="9.36339"><ele>775.0</ele><time>2026-03-27T13:41:46.647Z</time></trkpt><trkpt lat="44.5119267" lon="9.363555"><ele>774.0</ele><time>2026-03-27T13:41:47.65Z</time></trkpt><trkpt lat="44.5120017" lon="9.3637"><ele>773.0</ele><time>2026-03-27T13:41:48.65Z</time></trkpt><trkpt lat="44.5120867" lon="9.3638567"><ele>772.0</ele><time>2026-03-27T13:41:49.653Z</time></trkpt><trkpt lat="44.5121467" lon="9.3640417"><ele>760.6666666666666</ele><time>2026-03-27T13:41:50.648Z</time></trkpt><trkpt lat="44.51219" lon="9.3642533"><ele>749.3333333333333</ele><time>2026-03-27T13:41:51.651Z</time></trkpt><trkpt lat="44.5122117" lon="9.3644667"><ele>738.0</ele><time>2026-03-27T13:41:52.648Z</time></trkpt><trkpt lat="44.5122083" lon="9.364675"><ele>737.5</ele><time>2026-03-27T13:41:53.649Z</time></trkpt><trkpt lat="44.51218" lon="9.3648617"><ele>737.0</ele><time>2026-03-27T13:41:54.647Z</time></trkpt><trkpt lat="44.5121583" lon="9.36505"><ele>736.5</ele><time>2026-03-27T13:41:55.647Z</time></trkpt><trkpt lat="44.5121817" lon="9.3652483"><ele>736.0</ele><time>2026-03-27T13:41:56.649Z</time></trkpt><trkpt lat="44.5122317" lon="9.3654483"><ele>738.25</ele><time>2026-03-27T13:41:57.647Z</time></trkpt><trkpt lat="44.5122867" lon="9.36564"><ele>740.5</ele><time>2026-03-27T13:41:58.646Z</time></trkpt><trkpt lat="44.5123617" lon="9.3658083"><ele>742.75</ele><time>2026-03-27T13:41:59.648Z</time></trkpt><trkpt lat="44.512445" lon="9.36596"><ele>745.0</ele><time>2026-03-27T13:42:00.648Z</time></trkpt><trkpt lat="44.512535" lon="9.3661133"><ele>745.0</ele><time>2026-03-27T13:42:01.646Z</time></trkpt><trkpt lat="44.5126267" lon="9.3662683"><ele>745.0</ele><time>2026-03-27T13:42:02.647Z</time></trkpt><trkpt lat="44.5127233" lon="9.3664117"><ele>745.0</ele><time>2026-03-27T13:42:03.647Z</time></trkpt><trkpt lat="44.5128217" lon="9.36656"><ele>745.0</ele><time>2026-03-27T13:42:04.657Z</time></trkpt><trkpt lat="44.51291" lon="9.3667367"><ele>744.75</ele><time>2026-03-27T13:42:05.647Z</time></trkpt><trkpt lat="44.5129833" lon="9.366925"><ele>744.5</ele><time>2026-03-27T13:42:06.648Z</time></trkpt><trkpt lat="44.5130417" lon="9.3671017"><ele>744.25</ele><time>2026-03-27T13:42:07.646Z</time></trkpt><trkpt lat="44.513105" lon="9.3672583"><ele>744.0</ele><time>2026-03-27T13:42:08.646Z</time></trkpt><trkpt lat="44.51319" lon="9.3674067"><ele>744.0</ele><time>2026-03-27T13:42:09.647Z</time></trkpt><trkpt lat="44.5133033" lon="9.3675383"><ele>744.0</ele><time>2026-03-27T13:42:10.647Z</time></trkpt><trkpt lat="44.513435" lon="9.3676717"><ele>744.0</ele><time>2026-03-27T13:42:11.646Z</time></trkpt><trkpt lat="44.5135883" lon="9.36782"><ele>742.6666666666666</ele><time>2026-03-27T13:42:12.646Z</time></trkpt><trkpt lat="44.513755" lon="9.3679717"><ele>741.3333333333333</ele><time>2026-03-27T13:42:13.647Z</time></trkpt><trkpt lat="44.5139017" lon="9.3681033"><ele>740.0</ele><time>2026-03-27T13:42:14.647Z</time></trkpt><trkpt lat="44.5140483" lon="9.3682333"><ele>740.0</ele><time>2026-03-27T13:42:15.646Z</time></trkpt><trkpt lat="44.5142033" lon="9.3683733"><ele>740.0</ele><time>2026-03-27T13:42:16.647Z</time></trkpt><trkpt lat="44.51436" lon="9.36851"><ele>740.0</ele><time>2026-03-27T13:42:17.646Z</time></trkpt><trkpt lat="44.51451" lon="9.368645"><ele>737.6666666666666</ele><time>2026-03-27T13:42:18.646Z</time></trkpt><trkpt lat="44.5146467" lon="9.3687717"><ele>735.3333333333334</ele><time>2026-03-27T13:42:19.647Z</time></trkpt><trkpt lat="44.5147767" lon="9.3689117"><ele>733.0</ele><time>2026-03-27T13:42:20.646Z</time></trkpt><trkpt lat="44.514895" lon="9.3690717"><ele>733.0</ele><time>2026-03-27T13:42:21.646Z</time></trkpt><trkpt lat="44.515" lon="9.3692633"><ele>733.0</ele><time>2026-03-27T13:42:22.646Z</time></trkpt><trkpt lat="44.5150967" lon="9.36946"><ele>733.0</ele><time>2026-03-27T13:42:23.646Z</time></trkpt><trkpt lat="44.5151933" lon="9.3696533"><ele>728.6666666666667</ele><time>2026-03-27T13:42:24.649Z</time></trkpt><trkpt lat="44.51529" lon="9.3698483"><ele>724.3333333333334</ele><time>2026-03-27T13:42:25.649Z</time></trkpt><trkpt lat="44.515385" lon="9.370035"><ele>720.0</ele><time>2026-03-27T13:42:26.648Z</time></trkpt><trkpt lat="44.5154767" lon="9.3702133"><ele>720.0</ele><time>2026-03-27T13:42:27.65Z</time></trkpt><trkpt lat="44.515565" lon="9.370385"><ele>720.0</ele><time>2026-03-27T13:42:28.647Z</time></trkpt><trkpt lat="44.5156483" lon="9.3705433"><ele>720.0</ele><time>2026-03-27T13:42:29.648Z</time></trkpt><trkpt lat="44.5157317" lon="9.3706883"><ele>720.0</ele><time>2026-03-27T13:42:30.649Z</time></trkpt><trkpt lat="44.5158067" lon="9.3708183"><ele>722.75</ele><time>2026-03-27T13:42:31.648Z</time></trkpt><trkpt lat="44.515875" lon="9.37095"><ele>725.5</ele><time>2026-03-27T13:42:32.65Z</time></trkpt><trkpt lat="44.5159517" lon="9.37109"><ele>728.25</ele><time>2026-03-27T13:42:33.649Z</time></trkpt><trkpt lat="44.5160383" lon="9.3712367"><ele>731.0</ele><time>2026-03-27T13:42:34.649Z</time></trkpt><trkpt lat="44.5161417" lon="9.371385"><ele>728.5</ele><time>2026-03-27T13:42:35.649Z</time></trkpt><trkpt lat="44.51625" lon="9.3715233"><ele>726.0</ele><time>2026-03-27T13:42:36.65Z</time></trkpt><trkpt lat="44.516365" lon="9.3716467"><ele>723.5</ele><time>2026-03-27T13:42:37.648Z</time></trkpt><trkpt lat="44.5164933" lon="9.37174"><ele>721.0</ele><time>2026-03-27T13:42:38.646Z</time></trkpt><trkpt lat="44.516635" lon="9.3717917"><ele>721.0</ele><time>2026-03-27T13:42:39.651Z</time></trkpt><trkpt lat="44.5167867" lon="9.3718217"><ele>721.0</ele><time>2026-03-27T13:42:40.646Z</time></trkpt><trkpt lat="44.516945" lon="9.3718517"><ele>721.0</ele><time>2026-03-27T13:42:41.646Z</time></trkpt><trkpt lat="44.517105" lon="9.371885"><ele>720.0</ele><time>2026-03-27T13:42:42.646Z</time></trkpt><trkpt lat="44.5172683" lon="9.371925"><ele>719.0</ele><time>2026-03-27T13:42:43.647Z</time></trkpt><trkpt lat="44.5174433" lon="9.371965"><ele>718.0</ele><time>2026-03-27T13:42:44.647Z</time></trkpt><trkpt lat="44.5176233" lon="9.3720033"><ele>718.0</ele><time>2026-03-27T13:42:45.647Z</time></trkpt><trkpt lat="44.5178083" lon="9.37204"><ele>718.0</ele><time>2026-03-27T13:42:46.646Z</time></trkpt><trkpt lat="44.5179933" lon="9.372075"><ele>718.0</ele><time>2026-03-27T13:42:47.647Z</time></trkpt><trkpt lat="44.518175" lon="9.3721083"><ele>717.0</ele><time>2026-03-27T13:42:48.649Z</time></trkpt><trkpt lat="44.5183483" lon="9.37214"><ele>716.0</ele><time>2026-03-27T13:42:49.648Z</time></trkpt><trkpt lat="44.51851" lon="9.372175"><ele>715.0</ele><time>2026-03-27T13:42:50.648Z</time></trkpt><trkpt lat="44.51866" lon="9.3722283"><ele>722.0</ele><time>2026-03-27T13:42:51.649Z</time></trkpt><trkpt lat="44.5187983" lon="9.3723133"><ele>729.0</ele><time>2026-03-27T13:42:52.648Z</time></trkpt><trkpt lat="44.5189217" lon="9.3724483"><ele>736.0</ele><time>2026-03-27T13:42:53.654Z</time></trkpt><trkpt lat="44.5190217" lon="9.37262"><ele>736.0</ele><time>2026-03-27T13:42:54.65Z</time></trkpt><trkpt lat="44.5191083" lon="9.372805"><ele>736.0</ele><time>2026-03-27T13:42:55.647Z</time></trkpt><trkpt lat="44.5191917" lon="9.37298"><ele>736.0</ele><time>2026-03-27T13:42:56.649Z</time></trkpt><trkpt lat="44.5192867" lon="9.3731417"><ele>739.6666666666667</ele><time>2026-03-27T13:42:57.649Z</time></trkpt><trkpt lat="44.5194033" lon="9.37329"><ele>743.3333333333334</ele><time>2026-03-27T13:42:58.649Z</time></trkpt><trkpt lat="44.5195333" lon="9.3734183"><ele>747.0</ele><time>2026-03-27T13:42:59.648Z</time></trkpt><trkpt lat="44.5196767" lon="9.3735317"><ele>747.0</ele><time>2026-03-27T13:43:00.649Z</time></trkpt><trkpt lat="44.5198183" lon="9.3736467"><ele>747.0</ele><time>2026-03-27T13:43:01.648Z</time></trkpt><trkpt lat="44.5199483" lon="9.3737683"><ele>747.0</ele><time>2026-03-27T13:43:02.648Z</time></trkpt><trkpt lat="44.5200733" lon="9.3739033"><ele>749.25</ele><time>2026-03-27T13:43:03.648Z</time></trkpt><trkpt lat="44.5201883" lon="9.374055"><ele>751.5</ele><time>2026-03-27T13:43:04.648Z</time></trkpt><trkpt lat="44.5202867" lon="9.3742133"><ele>753.75</ele><time>2026-03-27T13:43:05.647Z</time></trkpt><trkpt lat="44.520365" lon="9.374375"><ele>756.0</ele><time>2026-03-27T13:43:06.649Z</time></trkpt><trkpt lat="44.520415" lon="9.37455"><ele>752.25</ele><time>2026-03-27T13:43:07.648Z</time></trkpt><trkpt lat="44.5204367" lon="9.37474"><ele>748.5</ele><time>2026-03-27T13:43:08.649Z</time></trkpt><trkpt lat="44.52043" lon="9.3749367"><ele>744.75</ele><time>2026-03-27T13:43:09.647Z</time></trkpt><trkpt lat="44.520395" lon="9.375115"><ele>741.0</ele><time>2026-03-27T13:43:10.647Z</time></trkpt><trkpt lat="44.5203333" lon="9.375265"><ele>735.5999999999999</ele><time>2026-03-27T13:43:11.649Z</time></trkpt><trkpt lat="44.5202683" lon="9.3754067"><ele>730.2</ele><time>2026-03-27T13:43:12.649Z</time></trkpt><trkpt lat="44.5202167" lon="9.3755517"><ele>724.8</ele><time>2026-03-27T13:43:13.649Z</time></trkpt><trkpt lat="44.5202183" lon="9.37571"><ele>719.4000000000001</ele><time>2026-03-27T13:43:14.648Z</time></trkpt><trkpt lat="44.52026" lon="9.3758383"><ele>714.0</ele><time>2026-03-27T13:43:15.647Z</time></trkpt><trkpt lat="44.5203483" lon="9.375925"><ele>716.4000000000001</ele><time>2026-03-27T13:43:16.647Z</time></trkpt><trkpt lat="44.5204467" lon="9.3759717"><ele>718.8</ele><time>2026-03-27T13:43:17.648Z</time></trkpt><trkpt lat="44.5205367" lon="9.376"><ele>721.2</ele><time>2026-03-27T13:43:18.651Z</time></trkpt><trkpt lat="44.52061" lon="9.3760267"><ele>723.5999999999999</ele><time>2026-03-27T13:43:19.647Z</time></trkpt><trkpt lat="44.5207017" lon="9.3760567"><ele>726.0</ele><time>2026-03-27T13:43:21.65Z</time></trkpt><trkpt lat="44.5208133" lon="9.3761067"><ele>726.0</ele><time>2026-03-27T13:45:28.647Z</time></trkpt><trkpt lat="44.5208833" lon="9.3761333"><ele>726.0</ele><time>2026-03-27T13:45:29.648Z</time></trkpt><trkpt lat="44.52098" lon="9.3761683"><ele>726.0</ele><time>2026-03-27T13:45:30.649Z</time></trkpt><trkpt lat="44.52108" lon="9.3762083"><ele>726.0</ele><time>2026-03-27T13:45:31.649Z</time></trkpt><trkpt lat="44.5211917" lon="9.3762467"><ele>726.0</ele><time>2026-03-27T13:45:32.648Z</time></trkpt><trkpt lat="44.5212917" lon="9.3762767"><ele>728.0</ele><time>2026-03-27T13:45:33.648Z</time></trkpt><trkpt lat="44.5213983" lon="9.3763083"><ele>730.0</ele><time>2026-03-27T13:45:34.647Z</time></trkpt><trkpt lat="44.5215117" lon="9.37634"><ele>732.0</ele><time>2026-03-27T13:45:35.649Z</time></trkpt><trkpt lat="44.52163" lon="9.3763767"><ele>734.0</ele><time>2026-03-27T13:45:36.652Z</time></trkpt><trkpt lat="44.5217567" lon="9.376415"><ele>729.25</ele><time>2026-03-27T13:45:37.647Z</time></trkpt><trkpt lat="44.521885" lon="9.3764483"><ele>724.5</ele><time>2026-03-27T13:45:38.649Z</time></trkpt><trkpt lat="44.5220083" lon="9.376485"><ele>719.75</ele><time>2026-03-27T13:45:39.648Z</time></trkpt><trkpt lat="44.5221267" lon="9.3765183"><ele>715.0</ele><time>2026-03-27T13:45:40.648Z</time></trkpt><trkpt lat="44.5222467" lon="9.37655"><ele>715.0</ele><time>2026-03-27T13:45:41.648Z</time></trkpt><trkpt lat="44.522375" lon="9.3765883"><ele>715.0</ele><time>2026-03-27T13:45:42.649Z</time></trkpt><trkpt lat="44.5225067" lon="9.3766267"><ele>715.0</ele><time>2026-03-27T13:45:43.648Z</time></trkpt><trkpt lat="44.5226383" lon="9.3766617"><ele>715.0</ele><time>2026-03-27T13:45:44.65Z</time></trkpt><trkpt lat="44.5227633" lon="9.3767083"><ele>715.0</ele><time>2026-03-27T13:45:45.648Z</time></trkpt><trkpt lat="44.522885" lon="9.3767617"><ele>715.0</ele><time>2026-03-27T13:45:46.65Z</time></trkpt><trkpt lat="44.5230083" lon="9.3768133"><ele>715.0</ele><time>2026-03-27T13:45:47.647Z</time></trkpt><trkpt lat="44.52313" lon="9.37688"><ele>715.0</ele><time>2026-03-27T13:45:48.647Z</time></trkpt><trkpt lat="44.5232467" lon="9.3769467"><ele>717.25</ele><time>2026-03-27T13:45:49.647Z</time></trkpt><trkpt lat="44.52336" lon="9.377015"><ele>719.5</ele><time>2026-03-27T13:45:50.648Z</time></trkpt><trkpt lat="44.5234667" lon="9.3770783"><ele>721.75</ele><time>2026-03-27T13:45:51.648Z</time></trkpt><trkpt lat="44.5235783" lon="9.3771333"><ele>724.0</ele><time>2026-03-27T13:45:52.648Z</time></trkpt><trkpt lat="44.523695" lon="9.3771983"><ele>720.75</ele><time>2026-03-27T13:45:53.647Z</time></trkpt><trkpt lat="44.5238167" lon="9.3772633"><ele>717.5</ele><time>2026-03-27T13:45:54.648Z</time></trkpt><trkpt lat="44.52394" lon="9.3773467"><ele>714.25</ele><time>2026-03-27T13:45:55.648Z</time></trkpt><trkpt lat="44.524065" lon="9.377445"><ele>711.0</ele><time>2026-03-27T13:45:56.649Z</time></trkpt><trkpt lat="44.5241883" lon="9.37756"><ele>711.0</ele><time>2026-03-27T13:45:57.647Z</time></trkpt><trkpt lat="44.524315" lon="9.377675"><ele>711.0</ele><time>2026-03-27T13:45:58.647Z</time></trkpt><trkpt lat="44.5244483" lon="9.37778"><ele>711.0</ele><time>2026-03-27T13:45:59.649Z</time></trkpt><trkpt lat="44.5245833" lon="9.3778783"><ele>710.0</ele><time>2026-03-27T13:46:00.648Z</time></trkpt><trkpt lat="44.524715" lon="9.3779667"><ele>709.0</ele><time>2026-03-27T13:46:01.649Z</time></trkpt><trkpt lat="44.5248483" lon="9.378055"><ele>708.0</ele><time>2026-03-27T13:46:02.649Z</time></trkpt><trkpt lat="44.5249717" lon="9.3781383"><ele>707.0</ele><time>2026-03-27T13:46:03.649Z</time></trkpt><trkpt lat="44.52509" lon="9.3782233"><ele>707.0</ele><time>2026-03-27T13:46:04.649Z</time></trkpt><trkpt lat="44.5252067" lon="9.3783133"><ele>707.0</ele><time>2026-03-27T13:46:05.65Z</time></trkpt><trkpt lat="44.52532" lon="9.3783917"><ele>707.0</ele><time>2026-03-27T13:46:06.651Z</time></trkpt><trkpt lat="44.525415" lon="9.3784717"><ele>707.0</ele><time>2026-03-27T13:46:07.649Z</time></trkpt><trkpt lat="44.5254983" lon="9.3785683"><ele>706.25</ele><time>2026-03-27T13:46:08.649Z</time></trkpt><trkpt lat="44.5255567" lon="9.3786967"><ele>705.5</ele><time>2026-03-27T13:46:09.649Z</time></trkpt><trkpt lat="44.5255817" lon="9.3788467"><ele>704.75</ele><time>2026-03-27T13:46:10.649Z</time></trkpt><trkpt lat="44.5255617" lon="9.37901"><ele>704.0</ele><time>2026-03-27T13:46:11.647Z</time></trkpt><trkpt lat="44.5255083" lon="9.3791817"><ele>704.0</ele><time>2026-03-27T13:46:12.648Z</time></trkpt><trkpt lat="44.525445" lon="9.3793633"><ele>704.0</ele><time>2026-03-27T13:46:13.648Z</time></trkpt><trkpt lat="44.5253867" lon="9.3795417"><ele>704.0</ele><time>2026-03-27T13:46:14.648Z</time></trkpt><trkpt lat="44.52532" lon="9.3797233"><ele>704.0</ele><time>2026-03-27T13:46:15.648Z</time></trkpt><trkpt lat="44.5252517" lon="9.3798917"><ele>705.25</ele><time>2026-03-27T13:46:16.647Z</time></trkpt><trkpt lat="44.5251767" lon="9.3800383"><ele>706.5</ele><time>2026-03-27T13:46:17.647Z</time></trkpt><trkpt lat="44.5250933" lon="9.3801833"><ele>707.75</ele><time>2026-03-27T13:46:18.649Z</time></trkpt><trkpt lat="44.525" lon="9.3803267"><ele>709.0</ele><time>2026-03-27T13:46:19.647Z</time></trkpt><trkpt lat="44.5249" lon="9.3804733"><ele>705.6666666666667</ele><time>2026-03-27T13:46:20.649Z</time></trkpt><trkpt lat="44.5247983" lon="9.38063"><ele>702.3333333333334</ele><time>2026-03-27T13:46:21.649Z</time></trkpt><trkpt lat="44.5246933" lon="9.3807983"><ele>699.0</ele><time>2026-03-27T13:46:22.646Z</time></trkpt><trkpt lat="44.5245667" lon="9.3809717"><ele>699.0</ele><time>2026-03-27T13:46:23.648Z</time></trkpt><trkpt lat="44.524445" lon="9.3811467"><ele>699.0</ele><time>2026-03-27T13:46:24.647Z</time></trkpt><trkpt lat="44.5243333" lon="9.3813117"><ele>699.0</ele><time>2026-03-27T13:46:25.649Z</time></trkpt><trkpt lat="44.524225" lon="9.3814733"><ele>699.0</ele><time>2026-03-27T13:46:26.647Z</time></trkpt><trkpt lat="44.5241183" lon="9.381625"><ele>699.0</ele><time>2026-03-27T13:46:27.647Z</time></trkpt><trkpt lat="44.5240167" lon="9.3817733"><ele>699.0</ele><time>2026-03-27T13:46:28.647Z</time></trkpt><trkpt lat="44.52392" lon="9.3819217"><ele>699.0</ele><time>2026-03-27T13:46:29.648Z</time></trkpt><trkpt lat="44.5238283" lon="9.38207"><ele>698.0</ele><time>2026-03-27T13:46:30.647Z</time></trkpt><trkpt lat="44.5237317" lon="9.38221"><ele>697.0</ele><time>2026-03-27T13:46:31.647Z</time></trkpt><trkpt lat="44.5236367" lon="9.382345"><ele>696.0</ele><time>2026-03-27T13:46:32.65Z</time></trkpt><trkpt lat="44.523545" lon="9.3824783"><ele>695.0</ele><time>2026-03-27T13:46:33.647Z</time></trkpt><trkpt lat="44.523455" lon="9.3826067"><ele>697.5</ele><time>2026-03-27T13:46:34.647Z</time></trkpt><trkpt lat="44.52337" lon="9.3827267"><ele>700.0</ele><time>2026-03-27T13:46:35.647Z</time></trkpt><trkpt lat="44.5232933" lon="9.38285"><ele>702.5</ele><time>2026-03-27T13:46:36.648Z</time></trkpt><trkpt lat="44.5232433" lon="9.3829917"><ele>705.0</ele><time>2026-03-27T13:46:37.648Z</time></trkpt><trkpt lat="44.5232383" lon="9.383155"><ele>705.75</ele><time>2026-03-27T13:46:38.648Z</time></trkpt><trkpt lat="44.5232683" lon="9.38331"><ele>706.5</ele><time>2026-03-27T13:46:39.647Z</time></trkpt><trkpt lat="44.52332" lon="9.3834567"><ele>707.25</ele><time>2026-03-27T13:46:40.648Z</time></trkpt><trkpt lat="44.5233783" lon="9.383595"><ele>708.0</ele><time>2026-03-27T13:46:41.647Z</time></trkpt><trkpt lat="44.5234433" lon="9.383725"><ele>712.25</ele><time>2026-03-27T13:46:42.649Z</time></trkpt><trkpt lat="44.5235067" lon="9.3838583"><ele>716.5</ele><time>2026-03-27T13:46:43.647Z</time></trkpt><trkpt lat="44.5235733" lon="9.383995"><ele>720.75</ele><time>2026-03-27T13:46:44.648Z</time></trkpt><trkpt lat="44.5236483" lon="9.3841333"><ele>725.0</ele><time>2026-03-27T13:46:45.648Z</time></trkpt><trkpt lat="44.5237283" lon="9.3842733"><ele>724.25</ele><time>2026-03-27T13:46:46.648Z</time></trkpt><trkpt lat="44.5238133" lon="9.3844083"><ele>723.5</ele><time>2026-03-27T13:46:47.651Z</time></trkpt><trkpt lat="44.5238983" lon="9.3845567"><ele>722.75</ele><time>2026-03-27T13:46:48.651Z</time></trkpt><trkpt lat="44.5239867" lon="9.384705"><ele>722.0</ele><time>2026-03-27T13:46:49.648Z</time></trkpt><trkpt lat="44.5240917" lon="9.384845"><ele>722.0</ele><time>2026-03-27T13:46:50.65Z</time></trkpt><trkpt lat="44.52422" lon="9.3849883"><ele>722.0</ele><time>2026-03-27T13:46:51.649Z</time></trkpt><trkpt lat="44.5243433" lon="9.38508"><ele>722.0</ele><time>2026-03-27T13:46:52.649Z</time></trkpt><trkpt lat="44.5244667" lon="9.385135"><ele>722.0</ele><time>2026-03-27T13:46:53.648Z</time></trkpt><trkpt lat="44.5246033" lon="9.3851783"><ele>718.75</ele><time>2026-03-27T13:46:54.649Z</time></trkpt><trkpt lat="44.524745" lon="9.3851967"><ele>715.5</ele><time>2026-03-27T13:46:55.65Z</time></trkpt><trkpt lat="44.5248667" lon="9.385225"><ele>712.25</ele><time>2026-03-27T13:46:56.65Z</time></trkpt><trkpt lat="44.5249867" lon="9.3852717"><ele>709.0</ele><time>2026-03-27T13:46:57.65Z</time></trkpt><trkpt lat="44.5250967" lon="9.3853033"><ele>709.0</ele><time>2026-03-27T13:46:58.65Z</time></trkpt><trkpt lat="44.5252133" lon="9.3852683"><ele>709.0</ele><time>2026-03-27T13:46:59.649Z</time></trkpt><trkpt lat="44.5253167" lon="9.38525"><ele>709.0</ele><time>2026-03-27T13:47:00.649Z</time></trkpt><trkpt lat="44.52541" lon="9.3852217"><ele>709.0</ele><time>2026-03-27T13:47:01.65Z</time></trkpt><trkpt lat="44.5254767" lon="9.385175"><ele>709.0</ele><time>2026-03-27T13:47:02.647Z</time></trkpt><trkpt lat="44.52554" lon="9.3851433"><ele>708.8571428571429</ele><time>2026-03-27T13:47:03.649Z</time></trkpt><trkpt lat="44.5256183" lon="9.385105"><ele>708.7142857142858</ele><time>2026-03-27T13:47:04.651Z</time></trkpt><trkpt lat="44.5256883" lon="9.3850933"><ele>708.5714285714287</ele><time>2026-03-27T13:47:05.648Z</time></trkpt><trkpt lat="44.5257567" lon="9.385105"><ele>708.4285714285714</ele><time>2026-03-27T13:47:06.647Z</time></trkpt><trkpt lat="44.52583" lon="9.38514"><ele>708.2857142857142</ele><time>2026-03-27T13:47:07.65Z</time></trkpt><trkpt lat="44.5258933" lon="9.3851883"><ele>708.1428571428572</ele><time>2026-03-27T13:47:08.649Z</time></trkpt><trkpt lat="44.5259517" lon="9.3852517"><ele>708.0</ele><time>2026-03-27T13:47:09.649Z</time></trkpt><trkpt lat="44.526" lon="9.38532"><ele>708.0</ele><time>2026-03-27T13:47:10.652Z</time></trkpt><trkpt lat="44.52603" lon="9.3854383"><ele>708.0</ele><time>2026-03-27T13:47:11.651Z</time></trkpt><trkpt lat="44.526055" lon="9.3855417"><ele>708.0</ele><time>2026-03-27T13:47:12.65Z</time></trkpt><trkpt lat="44.5260583" lon="9.3856433"><ele>708.0</ele><time>2026-03-27T13:47:13.648Z</time></trkpt><trkpt lat="44.5260483" lon="9.385755"><ele>708.0</ele><time>2026-03-27T13:47:14.648Z</time></trkpt><trkpt lat="44.5260133" lon="9.3858667"><ele>708.0</ele><time>2026-03-27T13:47:15.656Z</time></trkpt><trkpt lat="44.52598" lon="9.3859767"><ele>709.0</ele><time>2026-03-27T13:47:16.648Z</time></trkpt><trkpt lat="44.5259467" lon="9.38609"><ele>710.0</ele><time>2026-03-27T13:47:17.648Z</time></trkpt><trkpt lat="44.525915" lon="9.386185"><ele>711.0</ele><time>2026-03-27T13:47:18.648Z</time></trkpt><trkpt lat="44.5258883" lon="9.386275"><ele>712.0</ele><time>2026-03-27T13:47:19.647Z</time></trkpt><trkpt lat="44.52586" lon="9.38637"><ele>713.0</ele><time>2026-03-27T13:47:20.649Z</time></trkpt><trkpt lat="44.525835" lon="9.386485"><ele>714.0</ele><time>2026-03-27T13:47:21.648Z</time></trkpt><trkpt lat="44.5258167" lon="9.3865817"><ele>714.0</ele><time>2026-03-27T13:47:22.648Z</time></trkpt><trkpt lat="44.525785" lon="9.3867083"><ele>714.0</ele><time>2026-03-27T13:47:24.647Z</time></trkpt><trkpt lat="44.5257417" lon="9.3868733"><ele>714.0</ele><time>2026-03-27T13:47:26.647Z</time></trkpt><trkpt lat="44.5257283" lon="9.3869767"><ele>714.0</ele><time>2026-03-27T13:47:27.647Z</time></trkpt><trkpt lat="44.5257083" lon="9.3870933"><ele>714.0</ele><time>2026-03-27T13:47:28.647Z</time></trkpt><trkpt lat="44.5256933" lon="9.3872167"><ele>713.6</ele><time>2026-03-27T13:47:29.647Z</time></trkpt><trkpt lat="44.525695" lon="9.3873283"><ele>713.2</ele><time>2026-03-27T13:47:30.648Z</time></trkpt><trkpt lat="44.5257133" lon="9.3874517"><ele>712.8000000000001</ele><time>2026-03-27T13:47:31.649Z</time></trkpt><trkpt lat="44.5257733" lon="9.3875433"><ele>712.4000000000001</ele><time>2026-03-27T13:47:32.647Z</time></trkpt><trkpt lat="44.5258483" lon="9.3876267"><ele>712.0</ele><time>2026-03-27T13:47:33.649Z</time></trkpt><trkpt lat="44.5259433" lon="9.3877"><ele>712.0</ele><time>2026-03-27T13:47:34.646Z</time></trkpt><trkpt lat="44.5260517" lon="9.3877817"><ele>712.0</ele><time>2026-03-27T13:47:35.647Z</time></trkpt><trkpt lat="44.5261517" lon="9.387885"><ele>712.0</ele><time>2026-03-27T13:47:36.649Z</time></trkpt><trkpt lat="44.5262533" lon="9.3879767"><ele>712.0</ele><time>2026-03-27T13:47:37.647Z</time></trkpt><trkpt lat="44.5263583" lon="9.3880533"><ele>708.0</ele><time>2026-03-27T13:47:38.648Z</time></trkpt><trkpt lat="44.5264567" lon="9.388155"><ele>704.0</ele><time>2026-03-27T13:47:39.646Z</time></trkpt><trkpt lat="44.5265467" lon="9.3882817"><ele>700.0</ele><time>2026-03-27T13:47:40.649Z</time></trkpt><trkpt lat="44.5266233" lon="9.3884233"><ele>696.0</ele><time>2026-03-27T13:47:41.646Z</time></trkpt><trkpt lat="44.5266933" lon="9.388605"><ele>696.0</ele><time>2026-03-27T13:47:42.647Z</time></trkpt><trkpt lat="44.5267683" lon="9.3888083"><ele>696.0</ele><time>2026-03-27T13:47:43.647Z</time></trkpt><trkpt lat="44.5268417" lon="9.38901"><ele>696.0</ele><time>2026-03-27T13:47:44.647Z</time></trkpt><trkpt lat="44.5269083" lon="9.3891833"><ele>693.8</ele><time>2026-03-27T13:47:45.647Z</time></trkpt><trkpt lat="44.5269683" lon="9.3893367"><ele>691.5999999999999</ele><time>2026-03-27T13:47:46.647Z</time></trkpt><trkpt lat="44.5270167" lon="9.38948"><ele>689.4</ele><time>2026-03-27T13:47:47.649Z</time></trkpt><trkpt lat="44.5270617" lon="9.3896067"><ele>687.2</ele><time>2026-03-27T13:47:48.651Z</time></trkpt><trkpt lat="44.52711" lon="9.3897267"><ele>685.0</ele><time>2026-03-27T13:47:49.649Z</time></trkpt><trkpt lat="44.5271433" lon="9.38985"><ele>685.0</ele><time>2026-03-27T13:47:50.649Z</time></trkpt><trkpt lat="44.5271729" lon="9.3899708"><ele>685.0</ele><time>2026-03-27T13:47:51.651Z</time></trkpt><trkpt lat="44.5271959" lon="9.3900937"><ele>685.0</ele><time>2026-03-27T13:47:52.647Z</time></trkpt><trkpt lat="44.527219" lon="9.3902173"><ele>685.0</ele><time>2026-03-27T13:47:53.648Z</time></trkpt><trkpt lat="44.5272366" lon="9.3903482"><ele>685.0</ele><time>2026-03-27T13:47:54.647Z</time></trkpt><trkpt lat="44.5272617" lon="9.3904792"><ele>686.0</ele><time>2026-03-27T13:47:55.647Z</time></trkpt><trkpt lat="44.5272918" lon="9.3906197"><ele>687.0</ele><time>2026-03-27T13:47:56.648Z</time></trkpt><trkpt lat="44.527317" lon="9.3907796"><ele>688.0</ele><time>2026-03-27T13:47:57.648Z</time></trkpt><trkpt lat="44.5273339" lon="9.3909522"><ele>689.0</ele><time>2026-03-27T13:47:58.648Z</time></trkpt><trkpt lat="44.5273444" lon="9.3911284"><ele>689.0</ele><time>2026-03-27T13:47:59.652Z</time></trkpt><trkpt lat="44.5273527" lon="9.3912961"><ele>689.0</ele><time>2026-03-27T13:48:00.65Z</time></trkpt><trkpt lat="44.5273598" lon="9.391458"><ele>689.0</ele><time>2026-03-27T13:48:01.649Z</time></trkpt><trkpt lat="44.5273606" lon="9.3916147"><ele>689.0</ele><time>2026-03-27T13:48:02.649Z</time></trkpt><trkpt lat="44.5273642" lon="9.3917774"><ele>689.25</ele><time>2026-03-27T13:48:03.649Z</time></trkpt><trkpt lat="44.5273846" lon="9.3919432"><ele>689.5</ele><time>2026-03-27T13:48:04.648Z</time></trkpt><trkpt lat="44.5274139" lon="9.3921185"><ele>689.75</ele><time>2026-03-27T13:48:05.649Z</time></trkpt><trkpt lat="44.5274575" lon="9.3922836"><ele>690.0</ele><time>2026-03-27T13:48:06.649Z</time></trkpt><trkpt lat="44.527509" lon="9.3924404"><ele>690.0</ele><time>2026-03-27T13:48:07.647Z</time></trkpt><trkpt lat="44.5275622" lon="9.3925884"><ele>690.0</ele><time>2026-03-27T13:48:08.651Z</time></trkpt><trkpt lat="44.5276137" lon="9.3927393"><ele>690.0</ele><time>2026-03-27T13:48:09.647Z</time></trkpt><trkpt lat="44.5276754" lon="9.3928863"><ele>690.0</ele><time>2026-03-27T13:48:10.648Z</time></trkpt><trkpt lat="44.5277567" lon="9.3930273"><ele>688.5</ele><time>2026-03-27T13:48:11.648Z</time></trkpt><trkpt lat="44.5278486" lon="9.3931651"><ele>687.0</ele><time>2026-03-27T13:48:12.653Z</time></trkpt><trkpt lat="44.5279439" lon="9.3932871"><ele>685.5</ele><time>2026-03-27T13:48:13.649Z</time></trkpt><trkpt lat="44.5280429" lon="9.393401"><ele>684.0</ele><time>2026-03-27T13:48:14.65Z</time></trkpt><trkpt lat="44.528148" lon="9.3935066"><ele>684.0</ele><time>2026-03-27T13:48:15.647Z</time></trkpt><trkpt lat="44.5282672" lon="9.3935918"><ele>684.0</ele><time>2026-03-27T13:48:16.648Z</time></trkpt><trkpt lat="44.5283971" lon="9.3936538"><ele>684.0</ele><time>2026-03-27T13:48:17.652Z</time></trkpt><trkpt lat="44.5285297" lon="9.3937045"><ele>684.0</ele><time>2026-03-27T13:48:18.647Z</time></trkpt><trkpt lat="44.5286606" lon="9.393757"><ele>683.5</ele><time>2026-03-27T13:48:19.649Z</time></trkpt><trkpt lat="44.5287906" lon="9.3938182"><ele>683.0</ele><time>2026-03-27T13:48:20.648Z</time></trkpt><trkpt lat="44.5289138" lon="9.3938738"><ele>682.5</ele><time>2026-03-27T13:48:21.648Z</time></trkpt><trkpt lat="44.5290295" lon="9.3939217"><ele>682.0</ele><time>2026-03-27T13:48:22.647Z</time></trkpt><trkpt lat="44.5291412" lon="9.3939681"><ele>682.0</ele><time>2026-03-27T13:48:23.648Z</time></trkpt><trkpt lat="44.5292443" lon="9.3940134"><ele>682.0</ele><time>2026-03-27T13:48:24.652Z</time></trkpt><trkpt lat="44.529327" lon="9.3940565"><ele>682.0</ele><time>2026-03-27T13:48:25.648Z</time></trkpt><trkpt lat="44.5294163" lon="9.3941271"><ele>682.0</ele><time>2026-03-27T13:48:27.648Z</time></trkpt><trkpt lat="44.5294706" lon="9.3941886"><ele>682.0</ele><time>2026-03-27T13:48:29.647Z</time></trkpt><trkpt lat="44.5295372" lon="9.3942753"><ele>682.0</ele><time>2026-03-27T13:48:31.647Z</time></trkpt><trkpt lat="44.5296222" lon="9.3944171"><ele>682.0</ele><time>2026-03-27T13:48:33.648Z</time></trkpt><trkpt lat="44.5296703" lon="9.394511"><ele>682.0</ele><time>2026-03-27T13:48:34.649Z</time></trkpt><trkpt lat="44.5297305" lon="9.3946249"><ele>682.0</ele><time>2026-03-27T13:48:35.649Z</time></trkpt><trkpt lat="44.5298017" lon="9.3947535"><ele>682.0</ele><time>2026-03-27T13:48:36.648Z</time></trkpt><trkpt lat="44.5298834" lon="9.3948885"><ele>682.0</ele><time>2026-03-27T13:48:37.649Z</time></trkpt><trkpt lat="44.5299683" lon="9.3950257"><ele>682.0</ele><time>2026-03-27T13:48:38.649Z</time></trkpt><trkpt lat="44.530054" lon="9.3951635"><ele>682.0</ele><time>2026-03-27T13:48:39.648Z</time></trkpt><trkpt lat="44.5301382" lon="9.3953008"><ele>682.0</ele><time>2026-03-27T13:48:40.648Z</time></trkpt><trkpt lat="44.5302267" lon="9.395444"><ele>681.75</ele><time>2026-03-27T13:48:41.648Z</time></trkpt><trkpt lat="44.5303232" lon="9.3956016"><ele>681.5</ele><time>2026-03-27T13:48:42.647Z</time></trkpt><trkpt lat="44.5304209" lon="9.3957638"><ele>681.25</ele><time>2026-03-27T13:48:43.647Z</time></trkpt><trkpt lat="44.5305147" lon="9.3959198"><ele>681.0</ele><time>2026-03-27T13:48:44.648Z</time></trkpt><trkpt lat="44.5306052" lon="9.3960692"><ele>681.0</ele><time>2026-03-27T13:48:45.647Z</time></trkpt><trkpt lat="44.5306924" lon="9.3962229"><ele>681.0</ele><time>2026-03-27T13:48:46.647Z</time></trkpt><trkpt lat="44.5307677" lon="9.3963895"><ele>681.0</ele><time>2026-03-27T13:48:47.648Z</time></trkpt><trkpt lat="44.5308254" lon="9.3965737"><ele>681.0</ele><time>2026-03-27T13:48:48.648Z</time></trkpt><trkpt lat="44.5308641" lon="9.3967721"><ele>681.75</ele><time>2026-03-27T13:48:49.647Z</time></trkpt><trkpt lat="44.5308967" lon="9.396971"><ele>682.5</ele><time>2026-03-27T13:48:50.652Z</time></trkpt><trkpt lat="44.530928" lon="9.3971724"><ele>683.25</ele><time>2026-03-27T13:48:51.65Z</time></trkpt><trkpt lat="44.5309609" lon="9.3973768"><ele>684.0</ele><time>2026-03-27T13:48:52.647Z</time></trkpt><trkpt lat="44.5309925" lon="9.3975823"><ele>686.0</ele><time>2026-03-27T13:48:53.647Z</time></trkpt><trkpt lat="44.5310246" lon="9.3977889"><ele>688.0</ele><time>2026-03-27T13:48:54.647Z</time></trkpt><trkpt lat="44.5310521" lon="9.3979865"><ele>690.0</ele><time>2026-03-27T13:48:55.647Z</time></trkpt><trkpt lat="44.531071" lon="9.3981787"><ele>692.0</ele><time>2026-03-27T13:48:56.647Z</time></trkpt><trkpt lat="44.5310595" lon="9.3983633"><ele>692.25</ele><time>2026-03-27T13:48:57.647Z</time></trkpt><trkpt lat="44.5310005" lon="9.3985353"><ele>692.5</ele><time>2026-03-27T13:48:58.647Z</time></trkpt><trkpt lat="44.5309152" lon="9.3986969"><ele>692.75</ele><time>2026-03-27T13:48:59.647Z</time></trkpt><trkpt lat="44.5308251" lon="9.398872"><ele>693.0</ele><time>2026-03-27T13:49:00.648Z</time></trkpt><trkpt lat="44.530738" lon="9.399055"><ele>691.25</ele><time>2026-03-27T13:49:01.648Z</time></trkpt><trkpt lat="44.5306623" lon="9.3992402"><ele>689.5</ele><time>2026-03-27T13:49:02.65Z</time></trkpt><trkpt lat="44.5305951" lon="9.3994181"><ele>687.75</ele><time>2026-03-27T13:49:03.647Z</time></trkpt><trkpt lat="44.5305611" lon="9.3996178"><ele>686.0</ele><time>2026-03-27T13:49:04.648Z</time></trkpt><trkpt lat="44.5305551" lon="9.3998317"><ele>684.3333333333333</ele><time>2026-03-27T13:49:05.647Z</time></trkpt><trkpt lat="44.530567" lon="9.4000519"><ele>682.6666666666666</ele><time>2026-03-27T13:49:06.649Z</time></trkpt><trkpt lat="44.5305818" lon="9.4002638"><ele>681.0</ele><time>2026-03-27T13:49:07.647Z</time></trkpt><trkpt lat="44.5306038" lon="9.4004783"><ele>681.6666666666666</ele><time>2026-03-27T13:49:08.648Z</time></trkpt><trkpt lat="44.5306347" lon="9.4007044"><ele>682.3333333333333</ele><time>2026-03-27T13:49:09.647Z</time></trkpt><trkpt lat="44.5306711" lon="9.4009408"><ele>683.0</ele><time>2026-03-27T13:49:10.649Z</time></trkpt><trkpt lat="44.5307122" lon="9.4011881"><ele>683.0</ele><time>2026-03-27T13:49:11.647Z</time></trkpt><trkpt lat="44.5307516" lon="9.4014337"><ele>683.0</ele><time>2026-03-27T13:49:12.647Z</time></trkpt><trkpt lat="44.5307892" lon="9.4016796"><ele>683.0</ele><time>2026-03-27T13:49:13.648Z</time></trkpt><trkpt lat="44.5308284" lon="9.401924"><ele>684.0</ele><time>2026-03-27T13:49:14.649Z</time></trkpt><trkpt lat="44.5308628" lon="9.4021655"><ele>685.0</ele><time>2026-03-27T13:49:15.649Z</time></trkpt><trkpt lat="44.5308937" lon="9.4024011"><ele>686.0</ele><time>2026-03-27T13:49:16.646Z</time></trkpt><trkpt lat="44.5309196" lon="9.4026372"><ele>686.0</ele><time>2026-03-27T13:49:17.648Z</time></trkpt><trkpt lat="44.5309445" lon="9.4028709"><ele>686.0</ele><time>2026-03-27T13:49:18.649Z</time></trkpt><trkpt lat="44.5309763" lon="9.4031029"><ele>686.0</ele><time>2026-03-27T13:49:19.649Z</time></trkpt><trkpt lat="44.5310087" lon="9.4033374"><ele>689.0</ele><time>2026-03-27T13:49:20.649Z</time></trkpt><trkpt lat="44.5310463" lon="9.403576"><ele>692.0</ele><time>2026-03-27T13:49:21.65Z</time></trkpt><trkpt lat="44.5310987" lon="9.4038106"><ele>695.0</ele><time>2026-03-27T13:49:22.649Z</time></trkpt><trkpt lat="44.5311685" lon="9.4040305"><ele>688.3333333333333</ele><time>2026-03-27T13:49:23.655Z</time></trkpt><trkpt lat="44.531254" lon="9.404231"><ele>681.6666666666666</ele><time>2026-03-27T13:49:24.647Z</time></trkpt><trkpt lat="44.5313594" lon="9.404408"><ele>675.0</ele><time>2026-03-27T13:49:25.647Z</time></trkpt><trkpt lat="44.5314761" lon="9.4045611"><ele>681.0</ele><time>2026-03-27T13:49:26.647Z</time></trkpt><trkpt lat="44.5315948" lon="9.4047121"><ele>687.0</ele><time>2026-03-27T13:49:27.647Z</time></trkpt><trkpt lat="44.5316999" lon="9.4048815"><ele>693.0</ele><time>2026-03-27T13:49:28.648Z</time></trkpt><trkpt lat="44.5317988" lon="9.4050569"><ele>693.0</ele><time>2026-03-27T13:49:29.647Z</time></trkpt><trkpt lat="44.5319112" lon="9.4052183"><ele>693.0</ele><time>2026-03-27T13:49:30.655Z</time></trkpt><trkpt lat="44.5320484" lon="9.4053499"><ele>693.0</ele><time>2026-03-27T13:49:31.648Z</time></trkpt><trkpt lat="44.5321967" lon="9.405463"><ele>695.0</ele><time>2026-03-27T13:49:32.648Z</time></trkpt><trkpt lat="44.5323406" lon="9.4055652"><ele>697.0</ele><time>2026-03-27T13:49:33.648Z</time></trkpt><trkpt lat="44.5324796" lon="9.4056521"><ele>699.0</ele><time>2026-03-27T13:49:34.649Z</time></trkpt><trkpt lat="44.5326165" lon="9.405722"><ele>699.0</ele><time>2026-03-27T13:49:35.648Z</time></trkpt><trkpt lat="44.5327574" lon="9.4057615"><ele>699.0</ele><time>2026-03-27T13:49:36.647Z</time></trkpt><trkpt lat="44.5329011" lon="9.4057835"><ele>699.0</ele><time>2026-03-27T13:49:37.648Z</time></trkpt><trkpt lat="44.5330483" lon="9.4058166"><ele>699.0</ele><time>2026-03-27T13:49:38.647Z</time></trkpt><trkpt lat="44.5331925" lon="9.4058599"><ele>694.75</ele><time>2026-03-27T13:49:39.651Z</time></trkpt><trkpt lat="44.5333369" lon="9.4058955"><ele>690.5</ele><time>2026-03-27T13:49:40.648Z</time></trkpt><trkpt lat="44.5334663" lon="9.4059329"><ele>686.25</ele><time>2026-03-27T13:49:41.646Z</time></trkpt><trkpt lat="44.533578" lon="9.4059631"><ele>682.0</ele><time>2026-03-27T13:49:42.647Z</time></trkpt><trkpt lat="44.5336778" lon="9.4060038"><ele>680.6</ele><time>2026-03-27T13:49:43.646Z</time></trkpt><trkpt lat="44.5337679" lon="9.406063"><ele>679.2</ele><time>2026-03-27T13:49:44.648Z</time></trkpt><trkpt lat="44.5338346" lon="9.4061448"><ele>677.8</ele><time>2026-03-27T13:49:45.647Z</time></trkpt><trkpt lat="44.5338848" lon="9.4062515"><ele>676.4</ele><time>2026-03-27T13:49:46.649Z</time></trkpt><trkpt lat="44.533925" lon="9.4063841"><ele>675.0</ele><time>2026-03-27T13:49:47.649Z</time></trkpt><trkpt lat="44.5339591" lon="9.4065359"><ele>675.0</ele><time>2026-03-27T13:49:48.648Z</time></trkpt><trkpt lat="44.5339829" lon="9.4066995"><ele>675.0</ele><time>2026-03-27T13:49:49.649Z</time></trkpt><trkpt lat="44.5340024" lon="9.4068498"><ele>675.0</ele><time>2026-03-27T13:49:50.647Z</time></trkpt><trkpt lat="44.5340205" lon="9.406991"><ele>675.0</ele><time>2026-03-27T13:49:51.647Z</time></trkpt><trkpt lat="44.5340408" lon="9.4071256"><ele>675.0</ele><time>2026-03-27T13:49:52.646Z</time></trkpt><trkpt lat="44.5340591" lon="9.4072543"><ele>674.8333333333334</ele><time>2026-03-27T13:49:53.648Z</time></trkpt><trkpt lat="44.5340753" lon="9.4073751"><ele>674.6666666666666</ele><time>2026-03-27T13:49:54.648Z</time></trkpt><trkpt lat="44.5340896" lon="9.4074825"><ele>674.5</ele><time>2026-03-27T13:49:55.647Z</time></trkpt><trkpt lat="44.5341033" lon="9.4075834"><ele>674.3333333333333</ele><time>2026-03-27T13:49:56.649Z</time></trkpt><trkpt lat="44.5341172" lon="9.4076781"><ele>674.1666666666666</ele><time>2026-03-27T13:49:57.647Z</time></trkpt><trkpt lat="44.5341495" lon="9.407821"><ele>674.0</ele><time>2026-03-27T13:49:59.648Z</time></trkpt><trkpt lat="44.53418" lon="9.4079133"><ele>674.0</ele><time>2026-03-27T13:50:48.649Z</time></trkpt><trkpt lat="44.5342433" lon="9.4079883"><ele>674.0</ele><time>2026-03-27T13:50:50.649Z</time></trkpt><trkpt lat="44.5343083" lon="9.408025"><ele>674.0</ele><time>2026-03-27T13:50:51.647Z</time></trkpt><trkpt lat="44.5343833" lon="9.4080583"><ele>674.0</ele><time>2026-03-27T13:50:52.647Z</time></trkpt><trkpt lat="44.534485" lon="9.40805"><ele>674.0</ele><time>2026-03-27T13:50:53.648Z</time></trkpt><trkpt lat="44.5345933" lon="9.408015"><ele>674.0</ele><time>2026-03-27T13:50:54.646Z</time></trkpt><trkpt lat="44.5346983" lon="9.4079917"><ele>675.5</ele><time>2026-03-27T13:50:55.646Z</time></trkpt><trkpt lat="44.534815" lon="9.40795"><ele>677.0</ele><time>2026-03-27T13:50:56.649Z</time></trkpt><trkpt lat="44.534925" lon="9.4078883"><ele>678.5</ele><time>2026-03-27T13:50:57.648Z</time></trkpt><trkpt lat="44.53503" lon="9.407795"><ele>680.0</ele><time>2026-03-27T13:50:58.649Z</time></trkpt><trkpt lat="44.5351283" lon="9.4076867"><ele>680.0</ele><time>2026-03-27T13:50:59.649Z</time></trkpt><trkpt lat="44.535225" lon="9.4075683"><ele>680.0</ele><time>2026-03-27T13:51:00.66Z</time></trkpt><trkpt lat="44.5353267" lon="9.4074517"><ele>680.0</ele><time>2026-03-27T13:51:01.648Z</time></trkpt><trkpt lat="44.53543" lon="9.407335"><ele>680.0</ele><time>2026-03-27T13:51:02.648Z</time></trkpt><trkpt lat="44.5355233" lon="9.4072233"><ele>679.0</ele><time>2026-03-27T13:51:03.648Z</time></trkpt><trkpt lat="44.53561" lon="9.40713"><ele>678.0</ele><time>2026-03-27T13:51:04.648Z</time></trkpt><trkpt lat="44.53569" lon="9.4070683"><ele>677.0</ele><time>2026-03-27T13:51:05.647Z</time></trkpt><trkpt lat="44.53578" lon="9.4070367"><ele>676.0</ele><time>2026-03-27T13:51:06.647Z</time></trkpt><trkpt lat="44.5358667" lon="9.407035"><ele>675.0</ele><time>2026-03-27T13:51:07.647Z</time></trkpt><trkpt lat="44.535955" lon="9.407075"><ele>675.0</ele><time>2026-03-27T13:51:08.648Z</time></trkpt><trkpt lat="44.536055" lon="9.4071433"><ele>675.0</ele><time>2026-03-27T13:51:09.647Z</time></trkpt><trkpt lat="44.536135" lon="9.4072783"><ele>675.0</ele><time>2026-03-27T13:51:10.647Z</time></trkpt><trkpt lat="44.53623" lon="9.4074117"><ele>675.0</ele><time>2026-03-27T13:51:11.647Z</time></trkpt><trkpt lat="44.5363467" lon="9.4075233"><ele>677.5</ele><time>2026-03-27T13:51:12.647Z</time></trkpt><trkpt lat="44.5364767" lon="9.407585"><ele>680.0</ele><time>2026-03-27T13:51:13.647Z</time></trkpt><trkpt lat="44.5366217" lon="9.4075833"><ele>682.5</ele><time>2026-03-27T13:51:14.647Z</time></trkpt><trkpt lat="44.5367683" lon="9.407535"><ele>685.0</ele><time>2026-03-27T13:51:15.652Z</time></trkpt><trkpt lat="44.5369067" lon="9.4074417"><ele>685.0</ele><time>2026-03-27T13:51:16.647Z</time></trkpt><trkpt lat="44.5370433" lon="9.4073233"><ele>685.0</ele><time>2026-03-27T13:51:17.647Z</time></trkpt><trkpt lat="44.5371767" lon="9.4071967"><ele>685.0</ele><time>2026-03-27T13:51:18.647Z</time></trkpt><trkpt lat="44.5373017" lon="9.407075"><ele>682.0</ele><time>2026-03-27T13:51:19.647Z</time></trkpt><trkpt lat="44.5374183" lon="9.4069583"><ele>679.0</ele><time>2026-03-27T13:51:20.648Z</time></trkpt><trkpt lat="44.5375283" lon="9.4068467"><ele>676.0</ele><time>2026-03-27T13:51:21.647Z</time></trkpt><trkpt lat="44.537635" lon="9.40674"><ele>673.0</ele><time>2026-03-27T13:51:22.65Z</time></trkpt><trkpt lat="44.5377367" lon="9.4066383"><ele>673.0</ele><time>2026-03-27T13:51:23.647Z</time></trkpt><trkpt lat="44.5378417" lon="9.4065717"><ele>673.0</ele><time>2026-03-27T13:51:24.648Z</time></trkpt><trkpt lat="44.5379583" lon="9.40654"><ele>673.0</ele><time>2026-03-27T13:51:25.648Z</time></trkpt><trkpt lat="44.5380683" lon="9.40656"><ele>673.0</ele><time>2026-03-27T13:51:26.649Z</time></trkpt><trkpt lat="44.538165" lon="9.4066467"><ele>673.5</ele><time>2026-03-27T13:51:27.647Z</time></trkpt><trkpt lat="44.5382433" lon="9.4067733"><ele>674.0</ele><time>2026-03-27T13:51:28.647Z</time></trkpt><trkpt lat="44.5382933" lon="9.4069433"><ele>674.5</ele><time>2026-03-27T13:51:29.647Z</time></trkpt><trkpt lat="44.5383383" lon="9.407135"><ele>675.0</ele><time>2026-03-27T13:51:30.647Z</time></trkpt><trkpt lat="44.5383833" lon="9.407325"><ele>677.5</ele><time>2026-03-27T13:51:31.647Z</time></trkpt><trkpt lat="44.5384283" lon="9.4075017"><ele>680.0</ele><time>2026-03-27T13:51:32.647Z</time></trkpt><trkpt lat="44.5384733" lon="9.4076767"><ele>682.5</ele><time>2026-03-27T13:51:33.646Z</time></trkpt><trkpt lat="44.5385333" lon="9.4078067"><ele>685.0</ele><time>2026-03-27T13:51:34.648Z</time></trkpt><trkpt lat="44.5386167" lon="9.4079"><ele>685.0</ele><time>2026-03-27T13:51:35.646Z</time></trkpt><trkpt lat="44.5387167" lon="9.4079367"><ele>685.0</ele><time>2026-03-27T13:51:36.647Z</time></trkpt><trkpt lat="44.538835" lon="9.4079133"><ele>685.0</ele><time>2026-03-27T13:51:37.649Z</time></trkpt><trkpt lat="44.5389267" lon="9.4078433"><ele>685.0</ele><time>2026-03-27T13:51:38.649Z</time></trkpt><trkpt lat="44.5390117" lon="9.4077683"><ele>685.0</ele><time>2026-03-27T13:51:39.651Z</time></trkpt><trkpt lat="44.5391017" lon="9.40772"><ele>683.5</ele><time>2026-03-27T13:51:40.647Z</time></trkpt><trkpt lat="44.5392083" lon="9.4077233"><ele>682.0</ele><time>2026-03-27T13:51:41.652Z</time></trkpt><trkpt lat="44.539315" lon="9.4077717"><ele>680.5</ele><time>2026-03-27T13:51:42.647Z</time></trkpt><trkpt lat="44.539435" lon="9.4078483"><ele>679.0</ele><time>2026-03-27T13:51:43.649Z</time></trkpt><trkpt lat="44.5395617" lon="9.407955"><ele>682.0</ele><time>2026-03-27T13:51:44.647Z</time></trkpt><trkpt lat="44.5396917" lon="9.4080483"><ele>685.0</ele><time>2026-03-27T13:51:45.647Z</time></trkpt><trkpt lat="44.53982" lon="9.40815"><ele>688.0</ele><time>2026-03-27T13:51:46.649Z</time></trkpt><trkpt lat="44.539945" lon="9.40825"><ele>691.0</ele><time>2026-03-27T13:51:47.648Z</time></trkpt><trkpt lat="44.5400783" lon="9.4083283"><ele>691.0</ele><time>2026-03-27T13:51:48.648Z</time></trkpt><trkpt lat="44.540215" lon="9.4083867"><ele>691.0</ele><time>2026-03-27T13:51:49.649Z</time></trkpt><trkpt lat="44.5403583" lon="9.4084383"><ele>691.0</ele><time>2026-03-27T13:51:50.649Z</time></trkpt><trkpt lat="44.5405083" lon="9.40849"><ele>691.0</ele><time>2026-03-27T13:51:51.651Z</time></trkpt><trkpt lat="44.5406633" lon="9.4085333"><ele>686.3333333333334</ele><time>2026-03-27T13:51:52.647Z</time></trkpt><trkpt lat="44.5408317" lon="9.40857"><ele>681.6666666666666</ele><time>2026-03-27T13:51:53.653Z</time></trkpt><trkpt lat="44.5410083" lon="9.4085983"><ele>677.0</ele><time>2026-03-27T13:51:54.647Z</time></trkpt><trkpt lat="44.54117" lon="9.4086183"><ele>678.3333333333333</ele><time>2026-03-27T13:51:55.648Z</time></trkpt><trkpt lat="44.5413333" lon="9.40862"><ele>679.6666666666666</ele><time>2026-03-27T13:51:56.648Z</time></trkpt><trkpt lat="44.541505" lon="9.4085967"><ele>681.0</ele><time>2026-03-27T13:51:57.647Z</time></trkpt><trkpt lat="44.5416783" lon="9.4085417"><ele>681.0</ele><time>2026-03-27T13:51:58.647Z</time></trkpt><trkpt lat="44.5418417" lon="9.408465"><ele>681.0</ele><time>2026-03-27T13:51:59.647Z</time></trkpt><trkpt lat="44.5419967" lon="9.4083533"><ele>681.0</ele><time>2026-03-27T13:52:00.647Z</time></trkpt><trkpt lat="44.5421383" lon="9.4082267"><ele>677.0</ele><time>2026-03-27T13:52:01.648Z</time></trkpt><trkpt lat="44.5422783" lon="9.408105"><ele>673.0</ele><time>2026-03-27T13:52:02.647Z</time></trkpt><trkpt lat="44.5424333" lon="9.4079967"><ele>669.0</ele><time>2026-03-27T13:52:03.647Z</time></trkpt><trkpt lat="44.5426033" lon="9.4079183"><ele>669.0</ele><time>2026-03-27T13:52:04.648Z</time></trkpt><trkpt lat="44.5427867" lon="9.40786"><ele>669.0</ele><time>2026-03-27T13:52:05.65Z</time></trkpt><trkpt lat="44.5429767" lon="9.4078217"><ele>669.0</ele><time>2026-03-27T13:52:06.648Z</time></trkpt><trkpt lat="44.5431617" lon="9.407785"><ele>671.0</ele><time>2026-03-27T13:52:07.647Z</time></trkpt><trkpt lat="44.5433383" lon="9.407745"><ele>673.0</ele><time>2026-03-27T13:52:08.648Z</time></trkpt><trkpt lat="44.5435033" lon="9.40771"><ele>675.0</ele><time>2026-03-27T13:52:09.648Z</time></trkpt><trkpt lat="44.5436467" lon="9.4076583"><ele>676.25</ele><time>2026-03-27T13:52:10.647Z</time></trkpt><trkpt lat="44.54377" lon="9.4075867"><ele>677.5</ele><time>2026-03-27T13:52:11.647Z</time></trkpt><trkpt lat="44.543885" lon="9.4074567"><ele>678.75</ele><time>2026-03-27T13:52:12.65Z</time></trkpt><trkpt lat="44.5439817" lon="9.4072767"><ele>680.0</ele><time>2026-03-27T13:52:13.648Z</time></trkpt><trkpt lat="44.5440367" lon="9.4070967"><ele>680.0</ele><time>2026-03-27T13:52:14.65Z</time></trkpt><trkpt lat="44.5441017" lon="9.4069217"><ele>680.0</ele><time>2026-03-27T13:52:15.647Z</time></trkpt><trkpt lat="44.54418" lon="9.4067683"><ele>680.0</ele><time>2026-03-27T13:52:16.647Z</time></trkpt><trkpt lat="44.544275" lon="9.4066417"><ele>680.0</ele><time>2026-03-27T13:52:17.649Z</time></trkpt><trkpt lat="44.544375" lon="9.4065367"><ele>680.0</ele><time>2026-03-27T13:52:18.648Z</time></trkpt><trkpt lat="44.5444767" lon="9.4064433"><ele>680.0</ele><time>2026-03-27T13:52:19.649Z</time></trkpt><trkpt lat="44.5446033" lon="9.4063767"><ele>680.0</ele><time>2026-03-27T13:52:20.649Z</time></trkpt><trkpt lat="44.5447417" lon="9.4063333"><ele>680.0</ele><time>2026-03-27T13:52:21.648Z</time></trkpt><trkpt lat="44.5448867" lon="9.4063017"><ele>679.5</ele><time>2026-03-27T13:52:22.648Z</time></trkpt><trkpt lat="44.5450283" lon="9.4062733"><ele>679.0</ele><time>2026-03-27T13:52:23.647Z</time></trkpt><trkpt lat="44.545155" lon="9.4062483"><ele>678.5</ele><time>2026-03-27T13:52:24.647Z</time></trkpt><trkpt lat="44.5452683" lon="9.4062367"><ele>678.0</ele><time>2026-03-27T13:52:25.647Z</time></trkpt><trkpt lat="44.545375" lon="9.4062517"><ele>678.75</ele><time>2026-03-27T13:52:26.649Z</time></trkpt><trkpt lat="44.5454833" lon="9.4063"><ele>679.5</ele><time>2026-03-27T13:52:27.648Z</time></trkpt><trkpt lat="44.5456" lon="9.4063683"><ele>680.25</ele><time>2026-03-27T13:52:28.647Z</time></trkpt><trkpt lat="44.545725" lon="9.406455"><ele>681.0</ele><time>2026-03-27T13:52:29.651Z</time></trkpt><trkpt lat="44.5458633" lon="9.4065617"><ele>683.6666666666666</ele><time>2026-03-27T13:52:30.648Z</time></trkpt><trkpt lat="44.546005" lon="9.40668"><ele>686.3333333333333</ele><time>2026-03-27T13:52:31.647Z</time></trkpt><trkpt lat="44.5461467" lon="9.4067833"><ele>689.0</ele><time>2026-03-27T13:52:32.647Z</time></trkpt><trkpt lat="44.54628" lon="9.406885"><ele>688.25</ele><time>2026-03-27T13:52:33.648Z</time></trkpt><trkpt lat="44.5463967" lon="9.4069967"><ele>687.5</ele><time>2026-03-27T13:52:34.647Z</time></trkpt><trkpt lat="44.5465017" lon="9.4071367"><ele>686.75</ele><time>2026-03-27T13:52:35.647Z</time></trkpt><trkpt lat="44.5465933" lon="9.4073117"><ele>686.0</ele><time>2026-03-27T13:52:36.646Z</time></trkpt><trkpt lat="44.5466717" lon="9.407515"><ele>686.0</ele><time>2026-03-27T13:52:37.647Z</time></trkpt><trkpt lat="44.5467617" lon="9.4077083"><ele>686.0</ele><time>2026-03-27T13:52:38.647Z</time></trkpt><trkpt lat="44.546875" lon="9.40788"><ele>686.0</ele><time>2026-03-27T13:52:39.651Z</time></trkpt><trkpt lat="44.5470083" lon="9.408025"><ele>682.6666666666666</ele><time>2026-03-27T13:52:40.649Z</time></trkpt><trkpt lat="44.547155" lon="9.4081467"><ele>679.3333333333334</ele><time>2026-03-27T13:52:41.647Z</time></trkpt><trkpt lat="44.5472867" lon="9.408275"><ele>676.0</ele><time>2026-03-27T13:52:42.648Z</time></trkpt><trkpt lat="44.54739" lon="9.4084233"><ele>676.0</ele><time>2026-03-27T13:52:43.647Z</time></trkpt><trkpt lat="44.54747" lon="9.4086033"><ele>676.0</ele><time>2026-03-27T13:52:44.649Z</time></trkpt><trkpt lat="44.547545" lon="9.4087833"><ele>676.0</ele><time>2026-03-27T13:52:45.65Z</time></trkpt><trkpt lat="44.54764" lon="9.4089417"><ele>676.0</ele><time>2026-03-27T13:52:46.647Z</time></trkpt><trkpt lat="44.5477533" lon="9.40907"><ele>674.75</ele><time>2026-03-27T13:52:47.648Z</time></trkpt><trkpt lat="44.547875" lon="9.4091833"><ele>673.5</ele><time>2026-03-27T13:52:48.648Z</time></trkpt><trkpt lat="44.5480017" lon="9.4092867"><ele>672.25</ele><time>2026-03-27T13:52:49.65Z</time></trkpt><trkpt lat="44.5481267" lon="9.4093917"><ele>671.0</ele><time>2026-03-27T13:52:50.648Z</time></trkpt><trkpt lat="44.5482483" lon="9.4094933"><ele>671.0</ele><time>2026-03-27T13:52:51.648Z</time></trkpt><trkpt lat="44.5483617" lon="9.40957"><ele>671.0</ele><time>2026-03-27T13:52:52.648Z</time></trkpt><trkpt lat="44.5484767" lon="9.409605"><ele>671.0</ele><time>2026-03-27T13:52:53.647Z</time></trkpt><trkpt lat="44.5485883" lon="9.4096033"><ele>671.0</ele><time>2026-03-27T13:52:54.653Z</time></trkpt><trkpt lat="44.5487017" lon="9.40961"><ele>668.25</ele><time>2026-03-27T13:52:55.647Z</time></trkpt><trkpt lat="44.548815" lon="9.409655"><ele>665.5</ele><time>2026-03-27T13:52:56.648Z</time></trkpt><trkpt lat="44.548935" lon="9.4097267"><ele>662.75</ele><time>2026-03-27T13:52:57.648Z</time></trkpt><trkpt lat="44.54906" lon="9.409835"><ele>660.0</ele><time>2026-03-27T13:52:58.65Z</time></trkpt><trkpt lat="44.5491767" lon="9.4099517"><ele>667.6666666666666</ele><time>2026-03-27T13:52:59.646Z</time></trkpt><trkpt lat="44.54928" lon="9.4100883"><ele>675.3333333333333</ele><time>2026-03-27T13:53:00.648Z</time></trkpt><trkpt lat="44.549375" lon="9.4102583"><ele>683.0</ele><time>2026-03-27T13:53:01.647Z</time></trkpt><trkpt lat="44.549455" lon="9.410465"><ele>680.3333333333333</ele><time>2026-03-27T13:53:02.648Z</time></trkpt><trkpt lat="44.5495317" lon="9.4106783"><ele>677.6666666666666</ele><time>2026-03-27T13:53:03.647Z</time></trkpt><trkpt lat="44.5496067" lon="9.4108733"><ele>675.0</ele><time>2026-03-27T13:53:04.649Z</time></trkpt><trkpt lat="44.5496783" lon="9.411045"><ele>675.0</ele><time>2026-03-27T13:53:05.647Z</time></trkpt><trkpt lat="44.5497533" lon="9.41119"><ele>675.0</ele><time>2026-03-27T13:53:06.647Z</time></trkpt><trkpt lat="44.54984" lon="9.4113017"><ele>675.0</ele><time>2026-03-27T13:53:07.65Z</time></trkpt><trkpt lat="44.549945" lon="9.4113917"><ele>675.0</ele><time>2026-03-27T13:53:08.647Z</time></trkpt><trkpt lat="44.550075" lon="9.4114533"><ele>675.6666666666666</ele><time>2026-03-27T13:53:09.652Z</time></trkpt><trkpt lat="44.550215" lon="9.411515"><ele>676.3333333333333</ele><time>2026-03-27T13:53:10.647Z</time></trkpt><trkpt lat="44.5503683" lon="9.4115833"><ele>677.0</ele><time>2026-03-27T13:53:11.647Z</time></trkpt><trkpt lat="44.5505233" lon="9.411675"><ele>677.0</ele><time>2026-03-27T13:53:12.649Z</time></trkpt><trkpt lat="44.5506667" lon="9.41178"><ele>677.0</ele><time>2026-03-27T13:53:13.65Z</time></trkpt><trkpt lat="44.5507983" lon="9.4118817"><ele>677.0</ele><time>2026-03-27T13:53:14.65Z</time></trkpt><trkpt lat="44.5509117" lon="9.4119683"><ele>677.0</ele><time>2026-03-27T13:53:15.649Z</time></trkpt><trkpt lat="44.5510133" lon="9.412045"><ele>677.0</ele><time>2026-03-27T13:53:16.649Z</time></trkpt><trkpt lat="44.551115" lon="9.4121033"><ele>677.0</ele><time>2026-03-27T13:53:17.649Z</time></trkpt><trkpt lat="44.5512217" lon="9.41214"><ele>677.0</ele><time>2026-03-27T13:53:18.649Z</time></trkpt><trkpt lat="44.55134" lon="9.4121683"><ele>677.0</ele><time>2026-03-27T13:53:19.649Z</time></trkpt><trkpt lat="44.5514583" lon="9.4121833"><ele>677.0</ele><time>2026-03-27T13:53:20.65Z</time></trkpt><trkpt lat="44.5515767" lon="9.4121683"><ele>677.0</ele><time>2026-03-27T13:53:21.65Z</time></trkpt><trkpt lat="44.5516883" lon="9.41212"><ele>677.0</ele><time>2026-03-27T13:53:22.649Z</time></trkpt><trkpt lat="44.5517733" lon="9.41202"><ele>677.0</ele><time>2026-03-27T13:53:23.649Z</time></trkpt><trkpt lat="44.5518233" lon="9.4118983"><ele>677.0</ele><time>2026-03-27T13:53:24.647Z</time></trkpt><trkpt lat="44.551855" lon="9.41177"><ele>677.0</ele><time>2026-03-27T13:53:25.647Z</time></trkpt><trkpt lat="44.5518917" lon="9.4116383"><ele>677.0</ele><time>2026-03-27T13:53:26.648Z</time></trkpt><trkpt lat="44.55196" lon="9.41151"><ele>677.0</ele><time>2026-03-27T13:53:27.646Z</time></trkpt><trkpt lat="44.552055" lon="9.411405"><ele>677.0</ele><time>2026-03-27T13:53:28.649Z</time></trkpt><trkpt lat="44.5521733" lon="9.41131"><ele>676.5</ele><time>2026-03-27T13:53:29.649Z</time></trkpt><trkpt lat="44.5522933" lon="9.4112217"><ele>676.0</ele><time>2026-03-27T13:53:30.647Z</time></trkpt><trkpt lat="44.5524117" lon="9.4111383"><ele>675.5</ele><time>2026-03-27T13:53:31.649Z</time></trkpt><trkpt lat="44.5525317" lon="9.411055"><ele>675.0</ele><time>2026-03-27T13:53:32.649Z</time></trkpt><trkpt lat="44.552655" lon="9.4109683"><ele>675.0</ele><time>2026-03-27T13:53:33.646Z</time></trkpt><trkpt lat="44.55277" lon="9.41089"><ele>675.0</ele><time>2026-03-27T13:53:34.65Z</time></trkpt><trkpt lat="44.5528783" lon="9.4108217"><ele>675.0</ele><time>2026-03-27T13:53:35.647Z</time></trkpt><trkpt lat="44.5529867" lon="9.4107517"><ele>675.0</ele><time>2026-03-27T13:53:36.648Z</time></trkpt><trkpt lat="44.5531" lon="9.4106833"><ele>677.4</ele><time>2026-03-27T13:53:37.647Z</time></trkpt><trkpt lat="44.5532033" lon="9.4106583"><ele>679.8</ele><time>2026-03-27T13:53:38.648Z</time></trkpt><trkpt lat="44.5533033" lon="9.4106817"><ele>682.2</ele><time>2026-03-27T13:53:39.65Z</time></trkpt><trkpt lat="44.5533983" lon="9.410735"><ele>684.6</ele><time>2026-03-27T13:53:40.651Z</time></trkpt><trkpt lat="44.5534667" lon="9.410855"><ele>687.0</ele><time>2026-03-27T13:53:41.647Z</time></trkpt><trkpt lat="44.5535117" lon="9.4110167"><ele>687.0</ele><time>2026-03-27T13:53:42.647Z</time></trkpt><trkpt lat="44.55355" lon="9.4112017"><ele>687.0</ele><time>2026-03-27T13:53:43.648Z</time></trkpt><trkpt lat="44.5535883" lon="9.4113933"><ele>687.0</ele><time>2026-03-27T13:53:44.647Z</time></trkpt><trkpt lat="44.55364" lon="9.4115833"><ele>687.0</ele><time>2026-03-27T13:53:45.648Z</time></trkpt><trkpt lat="44.5536917" lon="9.4117983"><ele>683.6666666666666</ele><time>2026-03-27T13:53:46.647Z</time></trkpt><trkpt lat="44.55375" lon="9.4120117"><ele>680.3333333333333</ele><time>2026-03-27T13:53:47.648Z</time></trkpt><trkpt lat="44.5538117" lon="9.4122217"><ele>677.0</ele><time>2026-03-27T13:53:48.65Z</time></trkpt><trkpt lat="44.55388" lon="9.4124367"><ele>677.0</ele><time>2026-03-27T13:53:49.649Z</time></trkpt><trkpt lat="44.55395" lon="9.41266"><ele>677.0</ele><time>2026-03-27T13:53:50.651Z</time></trkpt><trkpt lat="44.55403" lon="9.4128767"><ele>677.0</ele><time>2026-03-27T13:53:51.649Z</time></trkpt><trkpt lat="44.554105" lon="9.413085"><ele>682.3333333333333</ele><time>2026-03-27T13:53:52.649Z</time></trkpt><trkpt lat="44.55418" lon="9.41329"><ele>687.6666666666666</ele><time>2026-03-27T13:53:53.649Z</time></trkpt><trkpt lat="44.5542517" lon="9.4134867"><ele>693.0</ele><time>2026-03-27T13:53:54.648Z</time></trkpt><trkpt lat="44.5543233" lon="9.4136817"><ele>686.3333333333334</ele><time>2026-03-27T13:53:55.652Z</time></trkpt><trkpt lat="44.5544033" lon="9.4138567"><ele>679.6666666666667</ele><time>2026-03-27T13:53:56.651Z</time></trkpt><trkpt lat="44.554495" lon="9.414035"><ele>673.0</ele><time>2026-03-27T13:53:57.648Z</time></trkpt><trkpt lat="44.5545933" lon="9.41419"><ele>673.0</ele><time>2026-03-27T13:53:58.65Z</time></trkpt><trkpt lat="44.5546817" lon="9.414365"><ele>673.0</ele><time>2026-03-27T13:53:59.649Z</time></trkpt><trkpt lat="44.5547583" lon="9.4145433"><ele>673.0</ele><time>2026-03-27T13:54:00.65Z</time></trkpt><trkpt lat="44.5548133" lon="9.414755"><ele>680.5</ele><time>2026-03-27T13:54:01.648Z</time></trkpt><trkpt lat="44.5548617" lon="9.4149317"><ele>688.0</ele><time>2026-03-27T13:54:02.651Z</time></trkpt><trkpt lat="44.5549617" lon="9.4150417"><ele>695.5</ele><time>2026-03-27T13:54:03.649Z</time></trkpt><trkpt lat="44.5550283" lon="9.41516"><ele>703.0</ele><time>2026-03-27T13:54:04.649Z</time></trkpt><trkpt lat="44.5551067" lon="9.4152167"><ele>703.0</ele><time>2026-03-27T13:54:05.648Z</time></trkpt><trkpt lat="44.5552033" lon="9.4152017"><ele>703.0</ele><time>2026-03-27T13:54:06.648Z</time></trkpt><trkpt lat="44.5552867" lon="9.41512"><ele>703.0</ele><time>2026-03-27T13:54:08.647Z</time></trkpt><trkpt lat="44.5553033" lon="9.41502"><ele>703.0</ele><time>2026-03-27T13:54:09.647Z</time></trkpt><trkpt lat="44.55537" lon="9.4148617"><ele>703.0</ele><time>2026-03-27T13:54:10.647Z</time></trkpt><trkpt lat="44.5553733" lon="9.4147033"><ele>697.0</ele><time>2026-03-27T13:54:11.647Z</time></trkpt><trkpt lat="44.5554217" lon="9.4145733"><ele>691.0</ele><time>2026-03-27T13:54:12.649Z</time></trkpt><trkpt lat="44.5555117" lon="9.41447"><ele>685.0</ele><time>2026-03-27T13:54:13.647Z</time></trkpt><trkpt lat="44.55563" lon="9.4144"><ele>679.0</ele><time>2026-03-27T13:54:14.647Z</time></trkpt><trkpt lat="44.555755" lon="9.4143567"><ele>679.0</ele><time>2026-03-27T13:54:15.647Z</time></trkpt><trkpt lat="44.5558883" lon="9.4143067"><ele>679.0</ele><time>2026-03-27T13:54:16.647Z</time></trkpt><trkpt lat="44.5560117" lon="9.4142467"><ele>679.0</ele><time>2026-03-27T13:54:17.647Z</time></trkpt><trkpt lat="44.5561433" lon="9.4141967"><ele>679.0</ele><time>2026-03-27T13:54:18.65Z</time></trkpt><trkpt lat="44.556275" lon="9.4141483"><ele>683.75</ele><time>2026-03-27T13:54:19.648Z</time></trkpt><trkpt lat="44.5564117" lon="9.4140933"><ele>688.5</ele><time>2026-03-27T13:54:20.649Z</time></trkpt><trkpt lat="44.5565517" lon="9.4140617"><ele>693.25</ele><time>2026-03-27T13:54:21.648Z</time></trkpt><trkpt lat="44.5566867" lon="9.414025"><ele>698.0</ele><time>2026-03-27T13:54:22.647Z</time></trkpt><trkpt lat="44.556825" lon="9.4139633"><ele>698.0</ele><time>2026-03-27T13:54:23.651Z</time></trkpt><trkpt lat="44.5569683" lon="9.4138717"><ele>698.0</ele><time>2026-03-27T13:54:24.647Z</time></trkpt><trkpt lat="44.5571117" lon="9.4137767"><ele>698.0</ele><time>2026-03-27T13:54:25.647Z</time></trkpt><trkpt lat="44.5572533" lon="9.4136817"><ele>694.0</ele><time>2026-03-27T13:54:26.647Z</time></trkpt><trkpt lat="44.5573983" lon="9.4135783"><ele>690.0</ele><time>2026-03-27T13:54:27.647Z</time></trkpt><trkpt lat="44.5575383" lon="9.4134783"><ele>686.0</ele><time>2026-03-27T13:54:28.647Z</time></trkpt><trkpt lat="44.55768" lon="9.4133867"><ele>686.0</ele><time>2026-03-27T13:54:29.647Z</time></trkpt><trkpt lat="44.5578217" lon="9.4133017"><ele>686.0</ele><time>2026-03-27T13:54:30.648Z</time></trkpt><trkpt lat="44.5579533" lon="9.41323"><ele>686.0</ele><time>2026-03-27T13:54:31.648Z</time></trkpt><trkpt lat="44.558075" lon="9.4131483"><ele>686.0</ele><time>2026-03-27T13:54:32.648Z</time></trkpt><trkpt lat="44.5581683" lon="9.4130433"><ele>684.1999999999999</ele><time>2026-03-27T13:54:33.648Z</time></trkpt><trkpt lat="44.5582383" lon="9.4129183"><ele>682.4</ele><time>2026-03-27T13:54:34.649Z</time></trkpt><trkpt lat="44.5582833" lon="9.412785"><ele>680.6</ele><time>2026-03-27T13:54:35.648Z</time></trkpt><trkpt lat="44.5583433" lon="9.4126667"><ele>678.8</ele><time>2026-03-27T13:54:36.648Z</time></trkpt><trkpt lat="44.55842" lon="9.412575"><ele>677.0</ele><time>2026-03-27T13:54:37.648Z</time></trkpt><trkpt lat="44.55852" lon="9.4124967"><ele>677.0</ele><time>2026-03-27T13:54:38.649Z</time></trkpt><trkpt lat="44.55862" lon="9.4124033"><ele>677.0</ele><time>2026-03-27T13:54:39.651Z</time></trkpt><trkpt lat="44.5587167" lon="9.4122783"><ele>677.0</ele><time>2026-03-27T13:54:40.647Z</time></trkpt><trkpt lat="44.5587967" lon="9.4121133"><ele>677.0</ele><time>2026-03-27T13:54:41.647Z</time></trkpt><trkpt lat="44.55886" lon="9.41193"><ele>675.25</ele><time>2026-03-27T13:54:42.647Z</time></trkpt><trkpt lat="44.5589167" lon="9.411745"><ele>673.5</ele><time>2026-03-27T13:54:43.65Z</time></trkpt><trkpt lat="44.5589717" lon="9.41156"><ele>671.75</ele><time>2026-03-27T13:54:44.649Z</time></trkpt><trkpt lat="44.55902" lon="9.4113867"><ele>670.0</ele><time>2026-03-27T13:54:45.656Z</time></trkpt><trkpt lat="44.5590883" lon="9.4112383"><ele>670.0</ele><time>2026-03-27T13:54:46.647Z</time></trkpt><trkpt lat="44.55918" lon="9.4111417"><ele>670.0</ele><time>2026-03-27T13:54:47.648Z</time></trkpt><trkpt lat="44.5592867" lon="9.4110933"><ele>670.0</ele><time>2026-03-27T13:54:48.647Z</time></trkpt><trkpt lat="44.5593783" lon="9.411095"><ele>670.0</ele><time>2026-03-27T13:54:49.647Z</time></trkpt><trkpt lat="44.5594617" lon="9.41113"><ele>670.0</ele><time>2026-03-27T13:54:50.648Z</time></trkpt><trkpt lat="44.55952" lon="9.4112217"><ele>667.8</ele><time>2026-03-27T13:54:51.647Z</time></trkpt><trkpt lat="44.5595817" lon="9.4113067"><ele>665.6</ele><time>2026-03-27T13:54:52.647Z</time></trkpt><trkpt lat="44.5596317" lon="9.4114133"><ele>663.4000000000001</ele><time>2026-03-27T13:54:53.649Z</time></trkpt><trkpt lat="44.5596217" lon="9.4115983"><ele>661.2</ele><time>2026-03-27T13:54:54.65Z</time></trkpt><trkpt lat="44.5596117" lon="9.4117767"><ele>659.0</ele><time>2026-03-27T13:54:55.649Z</time></trkpt><trkpt lat="44.559595" lon="9.4119483"><ele>659.0</ele><time>2026-03-27T13:54:56.649Z</time></trkpt><trkpt lat="44.5595383" lon="9.4121467"><ele>659.0</ele><time>2026-03-27T13:54:57.652Z</time></trkpt><trkpt lat="44.5594833" lon="9.4123433"><ele>659.0</ele><time>2026-03-27T13:54:58.651Z</time></trkpt><trkpt lat="44.5594367" lon="9.4125417"><ele>670.5</ele><time>2026-03-27T13:54:59.649Z</time></trkpt><trkpt lat="44.5594083" lon="9.412745"><ele>682.0</ele><time>2026-03-27T13:55:00.652Z</time></trkpt><trkpt lat="44.5594117" lon="9.412925"><ele>693.5</ele><time>2026-03-27T13:55:01.649Z</time></trkpt><trkpt lat="44.5594267" lon="9.4131217"><ele>705.0</ele><time>2026-03-27T13:55:02.65Z</time></trkpt><trkpt lat="44.55945" lon="9.4133067"><ele>709.25</ele><time>2026-03-27T13:55:03.649Z</time></trkpt><trkpt lat="44.5594667" lon="9.4134933"><ele>713.5</ele><time>2026-03-27T13:55:04.65Z</time></trkpt><trkpt lat="44.5594917" lon="9.4136633"><ele>717.75</ele><time>2026-03-27T13:55:05.651Z</time></trkpt><trkpt lat="44.5595167" lon="9.4138383"><ele>722.0</ele><time>2026-03-27T13:55:06.65Z</time></trkpt><trkpt lat="44.5595467" lon="9.4140083"><ele>708.75</ele><time>2026-03-27T13:55:07.65Z</time></trkpt><trkpt lat="44.5595617" lon="9.414185"><ele>695.5</ele><time>2026-03-27T13:55:08.649Z</time></trkpt><trkpt lat="44.5595767" lon="9.41437"><ele>682.25</ele><time>2026-03-27T13:55:09.649Z</time></trkpt><trkpt lat="44.5596033" lon="9.414565"><ele>669.0</ele><time>2026-03-27T13:55:10.649Z</time></trkpt><trkpt lat="44.5596383" lon="9.4147667"><ele>669.0</ele><time>2026-03-27T13:55:11.649Z</time></trkpt><trkpt lat="44.5597" lon="9.4149733"><ele>669.0</ele><time>2026-03-27T13:55:12.649Z</time></trkpt><trkpt lat="44.559765" lon="9.4151883"><ele>669.0</ele><time>2026-03-27T13:55:13.649Z</time></trkpt><trkpt lat="44.559835" lon="9.4153933"><ele>678.75</ele><time>2026-03-27T13:55:14.649Z</time></trkpt><trkpt lat="44.55992" lon="9.4155733"><ele>688.5</ele><time>2026-03-27T13:55:15.65Z</time></trkpt><trkpt lat="44.560025" lon="9.4157133"><ele>698.25</ele><time>2026-03-27T13:55:16.648Z</time></trkpt><trkpt lat="44.5601567" lon="9.415805"><ele>708.0</ele><time>2026-03-27T13:55:17.65Z</time></trkpt><trkpt lat="44.560295" lon="9.4158567"><ele>695.25</ele><time>2026-03-27T13:55:18.649Z</time></trkpt><trkpt lat="44.56042" lon="9.41592"><ele>682.5</ele><time>2026-03-27T13:55:19.65Z</time></trkpt><trkpt lat="44.560535" lon="9.4160167"><ele>669.75</ele><time>2026-03-27T13:55:20.649Z</time></trkpt><trkpt lat="44.5606233" lon="9.4161533"><ele>657.0</ele><time>2026-03-27T13:55:21.65Z</time></trkpt><trkpt lat="44.560705" lon="9.4162983"><ele>667.25</ele><time>2026-03-27T13:55:22.649Z</time></trkpt><trkpt lat="44.5607867" lon="9.4164367"><ele>677.5</ele><time>2026-03-27T13:55:23.648Z</time></trkpt><trkpt lat="44.5608633" lon="9.41658"><ele>687.75</ele><time>2026-03-27T13:55:24.649Z</time></trkpt><trkpt lat="44.560945" lon="9.4167"><ele>698.0</ele><time>2026-03-27T13:55:25.647Z</time></trkpt><trkpt lat="44.5610433" lon="9.41678"><ele>698.0</ele><time>2026-03-27T13:55:26.65Z</time></trkpt><trkpt lat="44.561145" lon="9.4168317"><ele>698.0</ele><time>2026-03-27T13:55:27.647Z</time></trkpt><trkpt lat="44.5612583" lon="9.4168283"><ele>698.0</ele><time>2026-03-27T13:55:28.647Z</time></trkpt><trkpt lat="44.5613683" lon="9.4168017"><ele>698.0</ele><time>2026-03-27T13:55:29.648Z</time></trkpt><trkpt lat="44.5614967" lon="9.416795"><ele>691.5</ele><time>2026-03-27T13:55:30.648Z</time></trkpt><trkpt lat="44.56162" lon="9.41684"><ele>685.0</ele><time>2026-03-27T13:55:31.648Z</time></trkpt><trkpt lat="44.5617567" lon="9.4168917"><ele>678.5</ele><time>2026-03-27T13:55:32.649Z</time></trkpt><trkpt lat="44.5618983" lon="9.416975"><ele>672.0</ele><time>2026-03-27T13:55:33.647Z</time></trkpt><trkpt lat="44.5620483" lon="9.4170817"><ele>681.3333333333334</ele><time>2026-03-27T13:55:34.647Z</time></trkpt><trkpt lat="44.5621967" lon="9.4172"><ele>690.6666666666667</ele><time>2026-03-27T13:55:35.647Z</time></trkpt><trkpt lat="44.5623567" lon="9.4173083"><ele>700.0</ele><time>2026-03-27T13:55:36.647Z</time></trkpt><trkpt lat="44.5625183" lon="9.4173883"><ele>700.0</ele><time>2026-03-27T13:55:37.649Z</time></trkpt><trkpt lat="44.5626683" lon="9.4174633"><ele>700.0</ele><time>2026-03-27T13:55:38.647Z</time></trkpt><trkpt lat="44.562795" lon="9.417545"><ele>700.0</ele><time>2026-03-27T13:55:39.648Z</time></trkpt><trkpt lat="44.5629033" lon="9.4176267"><ele>700.0</ele><time>2026-03-27T13:55:40.647Z</time></trkpt><trkpt lat="44.5629917" lon="9.4177417"><ele>702.0</ele><time>2026-03-27T13:55:41.65Z</time></trkpt><trkpt lat="44.5630733" lon="9.4178667"><ele>704.0</ele><time>2026-03-27T13:55:42.648Z</time></trkpt><trkpt lat="44.5631467" lon="9.418005"><ele>706.0</ele><time>2026-03-27T13:55:43.647Z</time></trkpt><trkpt lat="44.5632283" lon="9.4181317"><ele>708.0</ele><time>2026-03-27T13:55:44.649Z</time></trkpt><trkpt lat="44.5633233" lon="9.418225"><ele>708.0</ele><time>2026-03-27T13:55:45.646Z</time></trkpt><trkpt lat="44.56342" lon="9.41829"><ele>708.0</ele><time>2026-03-27T13:55:46.648Z</time></trkpt><trkpt lat="44.5635217" lon="9.4183183"><ele>708.0</ele><time>2026-03-27T13:55:47.648Z</time></trkpt><trkpt lat="44.5636367" lon="9.4183033"><ele>708.0</ele><time>2026-03-27T13:55:48.647Z</time></trkpt><trkpt lat="44.5637533" lon="9.4183367"><ele>708.0</ele><time>2026-03-27T13:55:49.647Z</time></trkpt><trkpt lat="44.5638683" lon="9.418415"><ele>705.25</ele><time>2026-03-27T13:55:50.647Z</time></trkpt><trkpt lat="44.563985" lon="9.41846"><ele>702.5</ele><time>2026-03-27T13:55:51.648Z</time></trkpt><trkpt lat="44.5641217" lon="9.4184767"><ele>699.75</ele><time>2026-03-27T13:55:52.649Z</time></trkpt><trkpt lat="44.564255" lon="9.4184233"><ele>697.0</ele><time>2026-03-27T13:55:53.648Z</time></trkpt><trkpt lat="44.5643667" lon="9.4183183"><ele>697.0</ele><time>2026-03-27T13:55:54.648Z</time></trkpt><trkpt lat="44.5644767" lon="9.41821"><ele>697.0</ele><time>2026-03-27T13:55:55.647Z</time></trkpt><trkpt lat="44.5645867" lon="9.418085"><ele>697.0</ele><time>2026-03-27T13:55:56.648Z</time></trkpt><trkpt lat="44.5646933" lon="9.4179683"><ele>697.0</ele><time>2026-03-27T13:55:57.647Z</time></trkpt><trkpt lat="44.5647917" lon="9.4178567"><ele>691.5</ele><time>2026-03-27T13:55:58.647Z</time></trkpt><trkpt lat="44.5649" lon="9.4177617"><ele>686.0</ele><time>2026-03-27T13:55:59.648Z</time></trkpt><trkpt lat="44.5650167" lon="9.4177"><ele>680.5</ele><time>2026-03-27T13:56:00.648Z</time></trkpt><trkpt lat="44.5651383" lon="9.4176867"><ele>675.0</ele><time>2026-03-27T13:56:01.652Z</time></trkpt><trkpt lat="44.5652483" lon="9.4176883"><ele>675.0</ele><time>2026-03-27T13:56:02.649Z</time></trkpt><trkpt lat="44.5653567" lon="9.4176533"><ele>675.0</ele><time>2026-03-27T13:56:03.647Z</time></trkpt><trkpt lat="44.5654467" lon="9.4175433"><ele>675.0</ele><time>2026-03-27T13:56:04.647Z</time></trkpt><trkpt lat="44.5655133" lon="9.4173783"><ele>675.0</ele><time>2026-03-27T13:56:05.65Z</time></trkpt><trkpt lat="44.565575" lon="9.4172117"><ele>676.25</ele><time>2026-03-27T13:56:06.648Z</time></trkpt><trkpt lat="44.5656433" lon="9.417055"><ele>677.5</ele><time>2026-03-27T13:56:07.648Z</time></trkpt><trkpt lat="44.5657283" lon="9.416915"><ele>678.75</ele><time>2026-03-27T13:56:08.647Z</time></trkpt><trkpt lat="44.565825" lon="9.4167717"><ele>680.0</ele><time>2026-03-27T13:56:09.647Z</time></trkpt><trkpt lat="44.5659333" lon="9.4166317"><ele>680.0</ele><time>2026-03-27T13:56:10.65Z</time></trkpt><trkpt lat="44.5660433" lon="9.4165033"><ele>680.0</ele><time>2026-03-27T13:56:11.648Z</time></trkpt><trkpt lat="44.5661633" lon="9.416405"><ele>680.0</ele><time>2026-03-27T13:56:12.648Z</time></trkpt><trkpt lat="44.5662967" lon="9.4163533"><ele>680.0</ele><time>2026-03-27T13:56:13.651Z</time></trkpt><trkpt lat="44.5664467" lon="9.4163583"><ele>682.75</ele><time>2026-03-27T13:56:14.648Z</time></trkpt><trkpt lat="44.5666033" lon="9.4163883"><ele>685.5</ele><time>2026-03-27T13:56:15.647Z</time></trkpt><trkpt lat="44.5667283" lon="9.4164367"><ele>688.25</ele><time>2026-03-27T13:56:16.647Z</time></trkpt><trkpt lat="44.566825" lon="9.4165133"><ele>691.0</ele><time>2026-03-27T13:56:17.647Z</time></trkpt><trkpt lat="44.5669067" lon="9.4166083"><ele>691.0</ele><time>2026-03-27T13:56:18.647Z</time></trkpt><trkpt lat="44.5669483" lon="9.4167517"><ele>691.0</ele><time>2026-03-27T13:56:19.648Z</time></trkpt><trkpt lat="44.56698" lon="9.41693"><ele>691.0</ele><time>2026-03-27T13:56:20.652Z</time></trkpt><trkpt lat="44.5670183" lon="9.4171083"><ele>691.0</ele><time>2026-03-27T13:56:21.647Z</time></trkpt><trkpt lat="44.5670617" lon="9.417265"><ele>689.1666666666667</ele><time>2026-03-27T13:56:22.647Z</time></trkpt><trkpt lat="44.5671033" lon="9.4173917"><ele>687.3333333333334</ele><time>2026-03-27T13:56:23.647Z</time></trkpt><trkpt lat="44.56714" lon="9.4175017"><ele>685.5</ele><time>2026-03-27T13:56:24.647Z</time></trkpt><trkpt lat="44.5671733" lon="9.4175983"><ele>683.6666666666666</ele><time>2026-03-27T13:56:25.649Z</time></trkpt><trkpt lat="44.5671883" lon="9.417705"><ele>681.8333333333333</ele><time>2026-03-27T13:56:26.649Z</time></trkpt><trkpt lat="44.5671717" lon="9.4178433"><ele>680.0</ele><time>2026-03-27T13:56:27.647Z</time></trkpt><trkpt lat="44.5671267" lon="9.418"><ele>680.0</ele><time>2026-03-27T13:56:28.648Z</time></trkpt><trkpt lat="44.5670967" lon="9.4181333"><ele>680.0</ele><time>2026-03-27T13:56:29.648Z</time></trkpt><trkpt lat="44.5670833" lon="9.4182683"><ele>680.0</ele><time>2026-03-27T13:56:30.648Z</time></trkpt><trkpt lat="44.567095" lon="9.4184"><ele>680.0</ele><time>2026-03-27T13:56:31.649Z</time></trkpt><trkpt lat="44.567135" lon="9.4185083"><ele>680.0</ele><time>2026-03-27T13:56:32.648Z</time></trkpt><trkpt lat="44.567205" lon="9.4185917"><ele>680.0</ele><time>2026-03-27T13:56:33.647Z</time></trkpt><trkpt lat="44.5672967" lon="9.4186567"><ele>680.0</ele><time>2026-03-27T13:56:34.647Z</time></trkpt><trkpt lat="44.56737" lon="9.4186833"><ele>680.0</ele><time>2026-03-27T13:56:35.648Z</time></trkpt><trkpt lat="44.56746" lon="9.4186967"><ele>680.0</ele><time>2026-03-27T13:56:36.647Z</time></trkpt><trkpt lat="44.5675533" lon="9.4187"><ele>680.0</ele><time>2026-03-27T13:56:37.649Z</time></trkpt><trkpt lat="44.5676667" lon="9.418695"><ele>680.0</ele><time>2026-03-27T13:56:38.65Z</time></trkpt><trkpt lat="44.5677967" lon="9.4186683"><ele>680.0</ele><time>2026-03-27T13:56:39.647Z</time></trkpt><trkpt lat="44.5679083" lon="9.4186917"><ele>680.0</ele><time>2026-03-27T13:56:40.647Z</time></trkpt><trkpt lat="44.5680217" lon="9.4187567"><ele>680.0</ele><time>2026-03-27T13:56:41.647Z</time></trkpt><trkpt lat="44.568135" lon="9.4188417"><ele>681.0</ele><time>2026-03-27T13:56:42.646Z</time></trkpt><trkpt lat="44.5682483" lon="9.4189383"><ele>682.0</ele><time>2026-03-27T13:56:43.648Z</time></trkpt><trkpt lat="44.56836" lon="9.4190233"><ele>683.0</ele><time>2026-03-27T13:56:44.649Z</time></trkpt><trkpt lat="44.5684683" lon="9.4191217"><ele>684.0</ele><time>2026-03-27T13:56:45.647Z</time></trkpt><trkpt lat="44.568575" lon="9.4192417"><ele>684.0</ele><time>2026-03-27T13:56:46.647Z</time></trkpt><trkpt lat="44.5686917" lon="9.4193733"><ele>684.0</ele><time>2026-03-27T13:56:47.648Z</time></trkpt><trkpt lat="44.56882" lon="9.4194767"><ele>684.0</ele><time>2026-03-27T13:56:48.648Z</time></trkpt><trkpt lat="44.5689483" lon="9.4195417"><ele>684.0</ele><time>2026-03-27T13:56:49.647Z</time></trkpt><trkpt lat="44.5690733" lon="9.4195817"><ele>683.0</ele><time>2026-03-27T13:56:50.647Z</time></trkpt><trkpt lat="44.569185" lon="9.4196067"><ele>682.0</ele><time>2026-03-27T13:56:51.648Z</time></trkpt><trkpt lat="44.5692833" lon="9.4196217"><ele>681.0</ele><time>2026-03-27T13:56:52.647Z</time></trkpt><trkpt lat="44.5693817" lon="9.419625"><ele>680.0</ele><time>2026-03-27T13:56:53.648Z</time></trkpt><trkpt lat="44.5694683" lon="9.4196367"><ele>679.0</ele><time>2026-03-27T13:56:54.647Z</time></trkpt><trkpt lat="44.5695483" lon="9.41968"><ele>679.0</ele><time>2026-03-27T13:56:55.646Z</time></trkpt><trkpt lat="44.5696133" lon="9.41976"><ele>679.0</ele><time>2026-03-27T13:56:56.647Z</time></trkpt><trkpt lat="44.5696683" lon="9.4198633"><ele>679.0</ele><time>2026-03-27T13:56:57.647Z</time></trkpt><trkpt lat="44.5697383" lon="9.4199717"><ele>679.0</ele><time>2026-03-27T13:56:58.649Z</time></trkpt><trkpt lat="44.5698367" lon="9.4200483"><ele>679.0</ele><time>2026-03-27T13:56:59.647Z</time></trkpt><trkpt lat="44.5699467" lon="9.4201067"><ele>679.0</ele><time>2026-03-27T13:57:00.647Z</time></trkpt><trkpt lat="44.570055" lon="9.4201683"><ele>679.0</ele><time>2026-03-27T13:57:01.648Z</time></trkpt><trkpt lat="44.5701567" lon="9.4202383"><ele>679.0</ele><time>2026-03-27T13:57:02.648Z</time></trkpt><trkpt lat="44.570255" lon="9.4203333"><ele>679.0</ele><time>2026-03-27T13:57:03.649Z</time></trkpt><trkpt lat="44.5703483" lon="9.4204333"><ele>685.0</ele><time>2026-03-27T13:57:04.647Z</time></trkpt><trkpt lat="44.57044" lon="9.4205167"><ele>691.0</ele><time>2026-03-27T13:57:05.649Z</time></trkpt><trkpt lat="44.5705533" lon="9.4205417"><ele>697.0</ele><time>2026-03-27T13:57:06.648Z</time></trkpt><trkpt lat="44.5706767" lon="9.42052"><ele>703.0</ele><time>2026-03-27T13:57:07.647Z</time></trkpt><trkpt lat="44.570805" lon="9.4205017"><ele>703.0</ele><time>2026-03-27T13:57:08.649Z</time></trkpt><trkpt lat="44.5709383" lon="9.4204917"><ele>703.0</ele><time>2026-03-27T13:57:09.649Z</time></trkpt><trkpt lat="44.571065" lon="9.4205033"><ele>703.0</ele><time>2026-03-27T13:57:10.648Z</time></trkpt><trkpt lat="44.5711967" lon="9.42054"><ele>703.0</ele><time>2026-03-27T13:57:11.655Z</time></trkpt><trkpt lat="44.5713333" lon="9.4205917"><ele>699.75</ele><time>2026-03-27T13:57:12.647Z</time></trkpt><trkpt lat="44.5714683" lon="9.4206617"><ele>696.5</ele><time>2026-03-27T13:57:13.647Z</time></trkpt><trkpt lat="44.5715867" lon="9.42077"><ele>693.25</ele><time>2026-03-27T13:57:14.647Z</time></trkpt><trkpt lat="44.5717167" lon="9.4208433"><ele>690.0</ele><time>2026-03-27T13:57:15.647Z</time></trkpt><trkpt lat="44.5718417" lon="9.4209417"><ele>690.0</ele><time>2026-03-27T13:57:16.647Z</time></trkpt><trkpt lat="44.5719783" lon="9.4210233"><ele>690.0</ele><time>2026-03-27T13:57:17.647Z</time></trkpt><trkpt lat="44.57211" lon="9.4211317"><ele>690.0</ele><time>2026-03-27T13:57:18.647Z</time></trkpt><trkpt lat="44.5722533" lon="9.421205"><ele>692.0</ele><time>2026-03-27T13:57:19.648Z</time></trkpt><trkpt lat="44.5723867" lon="9.4212617"><ele>694.0</ele><time>2026-03-27T13:57:20.647Z</time></trkpt><trkpt lat="44.57251" lon="9.4213017"><ele>696.0</ele><time>2026-03-27T13:57:21.647Z</time></trkpt><trkpt lat="44.5726183" lon="9.4213633"><ele>698.0</ele><time>2026-03-27T13:57:22.647Z</time></trkpt><trkpt lat="44.5727267" lon="9.421445"><ele>698.0</ele><time>2026-03-27T13:57:23.647Z</time></trkpt><trkpt lat="44.572825" lon="9.4215667"><ele>698.0</ele><time>2026-03-27T13:57:24.647Z</time></trkpt><trkpt lat="44.5729433" lon="9.4216733"><ele>698.0</ele><time>2026-03-27T13:57:25.65Z</time></trkpt><trkpt lat="44.5730483" lon="9.4218033"><ele>698.0</ele><time>2026-03-27T13:57:26.648Z</time></trkpt><trkpt lat="44.5731633" lon="9.421905"><ele>697.5</ele><time>2026-03-27T13:57:27.649Z</time></trkpt><trkpt lat="44.5732717" lon="9.4220033"><ele>697.0</ele><time>2026-03-27T13:57:28.648Z</time></trkpt><trkpt lat="44.57337" lon="9.4220983"><ele>696.5</ele><time>2026-03-27T13:57:29.647Z</time></trkpt><trkpt lat="44.5734617" lon="9.4221917"><ele>696.0</ele><time>2026-03-27T13:57:30.648Z</time></trkpt><trkpt lat="44.573545" lon="9.4222917"><ele>696.0</ele><time>2026-03-27T13:57:31.647Z</time></trkpt><trkpt lat="44.5736133" lon="9.4224283"><ele>696.0</ele><time>2026-03-27T13:57:32.65Z</time></trkpt><trkpt lat="44.57367" lon="9.4225833"><ele>696.0</ele><time>2026-03-27T13:57:33.649Z</time></trkpt><trkpt lat="44.5737367" lon="9.4227433"><ele>696.0</ele><time>2026-03-27T13:57:34.648Z</time></trkpt><trkpt lat="44.57382" lon="9.42289"><ele>692.0</ele><time>2026-03-27T13:57:35.649Z</time></trkpt><trkpt lat="44.5739317" lon="9.4230133"><ele>688.0</ele><time>2026-03-27T13:57:36.65Z</time></trkpt><trkpt lat="44.5740467" lon="9.4231317"><ele>684.0</ele><time>2026-03-27T13:57:37.65Z</time></trkpt><trkpt lat="44.5741583" lon="9.4232567"><ele>680.0</ele><time>2026-03-27T13:57:38.648Z</time></trkpt><trkpt lat="44.5742783" lon="9.42339"><ele>680.0</ele><time>2026-03-27T13:57:39.647Z</time></trkpt><trkpt lat="44.5744067" lon="9.4235083"><ele>680.0</ele><time>2026-03-27T13:57:40.647Z</time></trkpt><trkpt lat="44.5745383" lon="9.423625"><ele>680.0</ele><time>2026-03-27T13:57:41.648Z</time></trkpt><trkpt lat="44.5746633" lon="9.42372"><ele>677.25</ele><time>2026-03-27T13:57:42.646Z</time></trkpt><trkpt lat="44.5747767" lon="9.4238033"><ele>674.5</ele><time>2026-03-27T13:57:43.647Z</time></trkpt><trkpt lat="44.5748783" lon="9.423895"><ele>671.75</ele><time>2026-03-27T13:57:44.649Z</time></trkpt><trkpt lat="44.57496" lon="9.4240133"><ele>669.0</ele><time>2026-03-27T13:57:45.648Z</time></trkpt><trkpt lat="44.57503" lon="9.4241417"><ele>669.0</ele><time>2026-03-27T13:57:46.647Z</time></trkpt><trkpt lat="44.575095" lon="9.4242933"><ele>669.0</ele><time>2026-03-27T13:57:47.648Z</time></trkpt><trkpt lat="44.5751633" lon="9.4244483"><ele>669.0</ele><time>2026-03-27T13:57:48.648Z</time></trkpt><trkpt lat="44.5752283" lon="9.4246067"><ele>669.0</ele><time>2026-03-27T13:57:49.65Z</time></trkpt><trkpt lat="44.575285" lon="9.424765"><ele>666.25</ele><time>2026-03-27T13:57:50.648Z</time></trkpt><trkpt lat="44.5753417" lon="9.42491"><ele>663.5</ele><time>2026-03-27T13:57:51.647Z</time></trkpt><trkpt lat="44.5754" lon="9.4250533"><ele>660.75</ele><time>2026-03-27T13:57:52.647Z</time></trkpt><trkpt lat="44.575455" lon="9.4251967"><ele>658.0</ele><time>2026-03-27T13:57:53.648Z</time></trkpt><trkpt lat="44.5755267" lon="9.4253083"><ele>657.1666666666667</ele><time>2026-03-27T13:57:54.647Z</time></trkpt><trkpt lat="44.5756017" lon="9.4253667"><ele>656.3333333333334</ele><time>2026-03-27T13:57:55.648Z</time></trkpt><trkpt lat="44.57568" lon="9.4253917"><ele>655.5</ele><time>2026-03-27T13:57:56.649Z</time></trkpt><trkpt lat="44.5757633" lon="9.4253717"><ele>654.6666666666666</ele><time>2026-03-27T13:57:57.647Z</time></trkpt><trkpt lat="44.5758417" lon="9.4253067"><ele>653.8333333333333</ele><time>2026-03-27T13:57:58.651Z</time></trkpt><trkpt lat="44.5759217" lon="9.4252333"><ele>653.0</ele><time>2026-03-27T13:57:59.65Z</time></trkpt><trkpt lat="44.5760117" lon="9.425155"><ele>653.0</ele><time>2026-03-27T13:58:00.65Z</time></trkpt><trkpt lat="44.5761017" lon="9.42507"><ele>653.0</ele><time>2026-03-27T13:58:01.648Z</time></trkpt><trkpt lat="44.5761883" lon="9.4249833"><ele>653.0</ele><time>2026-03-27T13:58:02.65Z</time></trkpt><trkpt lat="44.5762783" lon="9.424895"><ele>653.0</ele><time>2026-03-27T13:58:03.651Z</time></trkpt><trkpt lat="44.5763767" lon="9.42482"><ele>653.0</ele><time>2026-03-27T13:58:04.649Z</time></trkpt><trkpt lat="44.5764833" lon="9.4247967"><ele>657.5999999999999</ele><time>2026-03-27T13:58:05.649Z</time></trkpt><trkpt lat="44.5765883" lon="9.4248233"><ele>662.1999999999999</ele><time>2026-03-27T13:58:06.65Z</time></trkpt><trkpt lat="44.57668" lon="9.4249"><ele>666.8</ele><time>2026-03-27T13:58:07.648Z</time></trkpt><trkpt lat="44.5767733" lon="9.4249583"><ele>671.4</ele><time>2026-03-27T13:58:08.648Z</time></trkpt><trkpt lat="44.57687" lon="9.4249733"><ele>676.0</ele><time>2026-03-27T13:58:09.647Z</time></trkpt><trkpt lat="44.57695" lon="9.4249467"><ele>678.75</ele><time>2026-03-27T13:58:10.649Z</time></trkpt><trkpt lat="44.577045" lon="9.4248017"><ele>681.5</ele><time>2026-03-27T13:58:11.648Z</time></trkpt><trkpt lat="44.577115" lon="9.4246683"><ele>684.25</ele><time>2026-03-27T13:58:12.648Z</time></trkpt><trkpt lat="44.5771733" lon="9.4245567"><ele>687.0</ele><time>2026-03-27T13:58:13.647Z</time></trkpt><trkpt lat="44.5772533" lon="9.424475"><ele>680.25</ele><time>2026-03-27T13:58:14.647Z</time></trkpt><trkpt lat="44.577355" lon="9.4244117"><ele>673.5</ele><time>2026-03-27T13:58:15.648Z</time></trkpt><trkpt lat="44.5774633" lon="9.4243617"><ele>666.75</ele><time>2026-03-27T13:58:16.648Z</time></trkpt><trkpt lat="44.577565" lon="9.4242917"><ele>660.0</ele><time>2026-03-27T13:58:17.647Z</time></trkpt><trkpt lat="44.5776583" lon="9.4242033"><ele>660.0</ele><time>2026-03-27T13:58:18.648Z</time></trkpt><trkpt lat="44.5777517" lon="9.4241117"><ele>660.0</ele><time>2026-03-27T13:58:19.647Z</time></trkpt><trkpt lat="44.577855" lon="9.4240283"><ele>660.0</ele><time>2026-03-27T13:58:20.648Z</time></trkpt><trkpt lat="44.577965" lon="9.4239517"><ele>660.0</ele><time>2026-03-27T13:58:21.648Z</time></trkpt><trkpt lat="44.5780917" lon="9.4238683"><ele>661.5</ele><time>2026-03-27T13:58:22.647Z</time></trkpt><trkpt lat="44.578205" lon="9.42378"><ele>663.0</ele><time>2026-03-27T13:58:23.648Z</time></trkpt><trkpt lat="44.5783033" lon="9.4236867"><ele>664.5</ele><time>2026-03-27T13:58:24.647Z</time></trkpt><trkpt lat="44.57839" lon="9.4235717"><ele>666.0</ele><time>2026-03-27T13:58:25.648Z</time></trkpt><trkpt lat="44.5784683" lon="9.423445"><ele>666.0</ele><time>2026-03-27T13:58:26.648Z</time></trkpt><trkpt lat="44.57854" lon="9.42331"><ele>666.0</ele><time>2026-03-27T13:58:27.648Z</time></trkpt><trkpt lat="44.578605" lon="9.423195"><ele>666.0</ele><time>2026-03-27T13:58:28.649Z</time></trkpt><trkpt lat="44.5786617" lon="9.4230967"><ele>666.0</ele><time>2026-03-27T13:58:29.647Z</time></trkpt><trkpt lat="44.57871" lon="9.4230133"><ele>666.0</ele><time>2026-03-27T13:58:30.647Z</time></trkpt><trkpt lat="44.57875" lon="9.4229433"><ele>671.5999999999999</ele><time>2026-03-27T13:58:31.647Z</time></trkpt><trkpt lat="44.578805" lon="9.4228533"><ele>677.2</ele><time>2026-03-27T13:58:33.648Z</time></trkpt><trkpt lat="44.5788183" lon="9.4227517"><ele>682.8</ele><time>2026-03-27T13:58:35.649Z</time></trkpt><trkpt lat="44.5788033" lon="9.4225817"><ele>688.4000000000001</ele><time>2026-03-27T13:58:37.648Z</time></trkpt><trkpt lat="44.5787954" lon="9.4224042"><ele>694.0</ele><time>2026-03-27T13:58:39.647Z</time></trkpt><trkpt lat="44.5788046" lon="9.422271"><ele>694.0</ele><time>2026-03-27T13:58:41.647Z</time></trkpt><trkpt lat="44.578826" lon="9.4221621"><ele>694.0</ele><time>2026-03-27T13:58:43.65Z</time></trkpt><trkpt lat="44.5788437" lon="9.4220505"><ele>694.0</ele><time>2026-03-27T13:58:45.647Z</time></trkpt><trkpt lat="44.5788382" lon="9.4218894"><ele>694.0</ele><time>2026-03-27T13:58:47.648Z</time></trkpt><trkpt lat="44.5788182" lon="9.4217971"><ele>694.0</ele><time>2026-03-27T13:58:48.647Z</time></trkpt><trkpt lat="44.5787946" lon="9.4217104"><ele>694.0</ele><time>2026-03-27T13:58:49.649Z</time></trkpt><trkpt lat="44.5787694" lon="9.4216274"><ele>693.2857142857143</ele><time>2026-03-27T13:58:50.648Z</time></trkpt><trkpt lat="44.5787447" lon="9.4215436"><ele>692.5714285714286</ele><time>2026-03-27T13:58:51.648Z</time></trkpt><trkpt lat="44.5787178" lon="9.4214418"><ele>691.8571428571429</ele><time>2026-03-27T13:58:52.648Z</time></trkpt><trkpt lat="44.5786908" lon="9.4213474"><ele>691.1428571428571</ele><time>2026-03-27T13:58:53.648Z</time></trkpt><trkpt lat="44.5786776" lon="9.4212597"><ele>690.4285714285714</ele><time>2026-03-27T13:58:54.648Z</time></trkpt><trkpt lat="44.5787408" lon="9.4211402"><ele>689.7142857142857</ele><time>2026-03-27T13:58:56.652Z</time></trkpt><trkpt lat="44.5788022" lon="9.4211146"><ele>689.0</ele><time>2026-03-27T13:58:57.649Z</time></trkpt><trkpt lat="44.5788727" lon="9.4211163"><ele>689.0</ele><time>2026-03-27T13:58:58.648Z</time></trkpt><trkpt lat="44.5789458" lon="9.4211328"><ele>689.0</ele><time>2026-03-27T13:58:59.649Z</time></trkpt><trkpt lat="44.5790215" lon="9.4211948"><ele>689.0</ele><time>2026-03-27T13:59:00.65Z</time></trkpt><trkpt lat="44.5790857" lon="9.4212814"><ele>689.0</ele><time>2026-03-27T13:59:01.647Z</time></trkpt><trkpt lat="44.5791399" lon="9.4213851"><ele>689.0</ele><time>2026-03-27T13:59:02.647Z</time></trkpt><trkpt lat="44.5791859" lon="9.4214957"><ele>689.0</ele><time>2026-03-27T13:59:03.647Z</time></trkpt><trkpt lat="44.5792212" lon="9.4216059"><ele>689.0</ele><time>2026-03-27T13:59:04.649Z</time></trkpt><trkpt lat="44.5792538" lon="9.4217224"><ele>689.0</ele><time>2026-03-27T13:59:05.647Z</time></trkpt><trkpt lat="44.5792826" lon="9.4218408"><ele>689.0</ele><time>2026-03-27T13:59:06.651Z</time></trkpt><trkpt lat="44.579327" lon="9.4219309"><ele>689.0</ele><time>2026-03-27T13:59:07.648Z</time></trkpt><trkpt lat="44.5793757" lon="9.4220182"><ele>689.0</ele><time>2026-03-27T13:59:08.648Z</time></trkpt><trkpt lat="44.5794205" lon="9.4221046"><ele>689.0</ele><time>2026-03-27T13:59:09.648Z</time></trkpt><trkpt lat="44.5794619" lon="9.422191"><ele>688.5</ele><time>2026-03-27T13:59:10.647Z</time></trkpt><trkpt lat="44.5794964" lon="9.4222797"><ele>688.0</ele><time>2026-03-27T13:59:11.648Z</time></trkpt><trkpt lat="44.5795179" lon="9.4224426"><ele>687.5</ele><time>2026-03-27T13:59:13.647Z</time></trkpt><trkpt lat="44.5794949" lon="9.4225366"><ele>687.0</ele><time>2026-03-27T13:59:14.648Z</time></trkpt><trkpt lat="44.5794569" lon="9.4226263"><ele>686.5</ele><time>2026-03-27T13:59:15.646Z</time></trkpt><trkpt lat="44.579411" lon="9.4227223"><ele>686.0</ele><time>2026-03-27T13:59:16.647Z</time></trkpt><trkpt lat="44.5793624" lon="9.422811"><ele>687.3333333333333</ele><time>2026-03-27T13:59:17.651Z</time></trkpt><trkpt lat="44.5793156" lon="9.4228872"><ele>688.6666666666666</ele><time>2026-03-27T13:59:18.648Z</time></trkpt><trkpt lat="44.5792801" lon="9.4229832"><ele>690.0</ele><time>2026-03-27T13:59:19.648Z</time></trkpt><trkpt lat="44.579261" lon="9.4231"><ele>691.3333333333334</ele><time>2026-03-27T13:59:20.648Z</time></trkpt><trkpt lat="44.5792638" lon="9.423223"><ele>692.6666666666667</ele><time>2026-03-27T13:59:21.647Z</time></trkpt><trkpt lat="44.5792791" lon="9.4233477"><ele>694.0</ele><time>2026-03-27T13:59:22.648Z</time></trkpt><trkpt lat="44.5793016" lon="9.4234779"><ele>695.2</ele><time>2026-03-27T13:59:23.648Z</time></trkpt><trkpt lat="44.5793217" lon="9.4236108"><ele>696.4000000000001</ele><time>2026-03-27T13:59:24.647Z</time></trkpt><trkpt lat="44.5793429" lon="9.4237426"><ele>697.6</ele><time>2026-03-27T13:59:25.647Z</time></trkpt><trkpt lat="44.5793761" lon="9.4238832"><ele>698.8</ele><time>2026-03-27T13:59:26.653Z</time></trkpt><trkpt lat="44.579429" lon="9.4240304"><ele>700.0</ele><time>2026-03-27T13:59:27.646Z</time></trkpt><trkpt lat="44.5795012" lon="9.4241695"><ele>705.4</ele><time>2026-03-27T13:59:28.649Z</time></trkpt><trkpt lat="44.5795743" lon="9.4243072"><ele>710.8</ele><time>2026-03-27T13:59:29.648Z</time></trkpt><trkpt lat="44.5796402" lon="9.4244378"><ele>716.2</ele><time>2026-03-27T13:59:30.647Z</time></trkpt><trkpt lat="44.5796889" lon="9.4245587"><ele>721.6</ele><time>2026-03-27T13:59:31.647Z</time></trkpt><trkpt lat="44.5797313" lon="9.4246596"><ele>727.0</ele><time>2026-03-27T13:59:32.647Z</time></trkpt><trkpt lat="44.5797767" lon="9.4247411"><ele>727.0</ele><time>2026-03-27T13:59:33.647Z</time></trkpt><trkpt lat="44.5798235" lon="9.4248013"><ele>727.0</ele><time>2026-03-27T13:59:34.655Z</time></trkpt><trkpt lat="44.5799139" lon="9.4248541"><ele>727.0</ele><time>2026-03-27T13:59:36.648Z</time></trkpt><trkpt lat="44.5799895" lon="9.424684"><ele>727.0</ele><time>2026-03-27T13:59:38.649Z</time></trkpt><trkpt lat="44.5800235" lon="9.4245595"><ele>727.0</ele><time>2026-03-27T13:59:39.649Z</time></trkpt><trkpt lat="44.5800488" lon="9.4244478"><ele>727.0</ele><time>2026-03-27T13:59:40.648Z</time></trkpt><trkpt lat="44.5800683" lon="9.424336"><ele>727.0</ele><time>2026-03-27T13:59:41.649Z</time></trkpt><trkpt lat="44.5800873" lon="9.4242235"><ele>727.0</ele><time>2026-03-27T13:59:42.651Z</time></trkpt><trkpt lat="44.5801004" lon="9.4241146"><ele>727.0</ele><time>2026-03-27T13:59:43.648Z</time></trkpt><trkpt lat="44.5801217" lon="9.4240227"><ele>727.0</ele><time>2026-03-27T13:59:44.648Z</time></trkpt><trkpt lat="44.5802162" lon="9.4239309"><ele>727.0</ele><time>2026-03-27T13:59:46.649Z</time></trkpt><trkpt lat="44.5802916" lon="9.4239235"><ele>725.0</ele><time>2026-03-27T13:59:47.652Z</time></trkpt><trkpt lat="44.5803742" lon="9.4239368"><ele>723.0</ele><time>2026-03-27T13:59:48.65Z</time></trkpt><trkpt lat="44.58046" lon="9.4239495"><ele>721.0</ele><time>2026-03-27T13:59:49.649Z</time></trkpt><trkpt lat="44.580544" lon="9.423953"><ele>719.0</ele><time>2026-03-27T13:59:50.649Z</time></trkpt><trkpt lat="44.5806159" lon="9.4239224"><ele>717.0</ele><time>2026-03-27T13:59:51.649Z</time></trkpt><trkpt lat="44.5806842" lon="9.4238643"><ele>715.0</ele><time>2026-03-27T13:59:52.649Z</time></trkpt><trkpt lat="44.5807484" lon="9.423793"><ele>715.0</ele><time>2026-03-27T13:59:53.649Z</time></trkpt><trkpt lat="44.5808207" lon="9.4237378"><ele>715.0</ele><time>2026-03-27T13:59:54.649Z</time></trkpt><trkpt lat="44.5808969" lon="9.4236978"><ele>715.0</ele><time>2026-03-27T13:59:55.649Z</time></trkpt><trkpt lat="44.5809822" lon="9.4236781"><ele>715.0</ele><time>2026-03-27T13:59:56.647Z</time></trkpt><trkpt lat="44.5810757" lon="9.4236585"><ele>715.0</ele><time>2026-03-27T13:59:57.649Z</time></trkpt><trkpt lat="44.5811737" lon="9.4236563"><ele>715.0</ele><time>2026-03-27T13:59:58.647Z</time></trkpt><trkpt lat="44.581261" lon="9.4236639"><ele>715.1666666666667</ele><time>2026-03-27T13:59:59.649Z</time></trkpt><trkpt lat="44.5813446" lon="9.4236855"><ele>715.3333333333334</ele><time>2026-03-27T14:00:00.648Z</time></trkpt><trkpt lat="44.5814226" lon="9.423717"><ele>715.5</ele><time>2026-03-27T14:00:01.649Z</time></trkpt><trkpt lat="44.5814983" lon="9.4237617"><ele>715.6666666666666</ele><time>2026-03-27T14:00:02.649Z</time></trkpt><trkpt lat="44.5815686" lon="9.4238032"><ele>715.8333333333333</ele><time>2026-03-27T14:00:03.648Z</time></trkpt><trkpt lat="44.5816255" lon="9.4238829"><ele>716.0</ele><time>2026-03-27T14:00:04.65Z</time></trkpt><trkpt lat="44.5816928" lon="9.4239663"><ele>721.3333333333333</ele><time>2026-03-27T14:00:05.649Z</time></trkpt><trkpt lat="44.5817614" lon="9.4240526"><ele>726.6666666666666</ele><time>2026-03-27T14:00:06.649Z</time></trkpt><trkpt lat="44.5818414" lon="9.4241077"><ele>732.0</ele><time>2026-03-27T14:00:07.648Z</time></trkpt><trkpt lat="44.5819194" lon="9.4241578"><ele>737.3333333333334</ele><time>2026-03-27T14:00:08.647Z</time></trkpt><trkpt lat="44.5819956" lon="9.4242049"><ele>742.6666666666667</ele><time>2026-03-27T14:00:09.648Z</time></trkpt><trkpt lat="44.582075" lon="9.4242522"><ele>748.0</ele><time>2026-03-27T14:00:10.647Z</time></trkpt><trkpt lat="44.5821569" lon="9.4242975"><ele>748.0</ele><time>2026-03-27T14:00:11.648Z</time></trkpt><trkpt lat="44.5822377" lon="9.4243534"><ele>748.0</ele><time>2026-03-27T14:00:12.648Z</time></trkpt><trkpt lat="44.5823178" lon="9.4244094"><ele>748.0</ele><time>2026-03-27T14:00:13.647Z</time></trkpt><trkpt lat="44.5823903" lon="9.4244696"><ele>748.0</ele><time>2026-03-27T14:00:14.649Z</time></trkpt><trkpt lat="44.5824633" lon="9.4245242"><ele>748.0</ele><time>2026-03-27T14:00:15.648Z</time></trkpt><trkpt lat="44.5825427" lon="9.424563"><ele>748.0</ele><time>2026-03-27T14:00:16.648Z</time></trkpt><trkpt lat="44.5826241" lon="9.4245721"><ele>748.0</ele><time>2026-03-27T14:00:17.651Z</time></trkpt><trkpt lat="44.5827048" lon="9.4245568"><ele>748.0</ele><time>2026-03-27T14:00:18.65Z</time></trkpt><trkpt lat="44.5827876" lon="9.4245177"><ele>748.0</ele><time>2026-03-27T14:00:19.65Z</time></trkpt><trkpt lat="44.5828742" lon="9.4244775"><ele>748.0</ele><time>2026-03-27T14:00:20.65Z</time></trkpt><trkpt lat="44.5829695" lon="9.424452"><ele>748.0</ele><time>2026-03-27T14:00:21.649Z</time></trkpt><trkpt lat="44.5830732" lon="9.4244371"><ele>751.2</ele><time>2026-03-27T14:00:22.65Z</time></trkpt><trkpt lat="44.5831772" lon="9.4244066"><ele>754.4</ele><time>2026-03-27T14:00:23.648Z</time></trkpt><trkpt lat="44.5832662" lon="9.4243464"><ele>757.6</ele><time>2026-03-27T14:00:24.65Z</time></trkpt><trkpt lat="44.5833372" lon="9.4242764"><ele>760.8000000000001</ele><time>2026-03-27T14:00:25.648Z</time></trkpt><trkpt lat="44.5833999" lon="9.4242108"><ele>764.0</ele><time>2026-03-27T14:00:26.647Z</time></trkpt><trkpt lat="44.5834716" lon="9.4241606"><ele>764.0</ele><time>2026-03-27T14:00:27.646Z</time></trkpt><trkpt lat="44.5835592" lon="9.4241051"><ele>764.0</ele><time>2026-03-27T14:00:28.648Z</time></trkpt><trkpt lat="44.5836496" lon="9.4240474"><ele>764.0</ele><time>2026-03-27T14:00:29.649Z</time></trkpt><trkpt lat="44.5837352" lon="9.423994"><ele>764.0</ele><time>2026-03-27T14:00:30.65Z</time></trkpt><trkpt lat="44.5838188" lon="9.4239405"><ele>764.0</ele><time>2026-03-27T14:00:31.649Z</time></trkpt><trkpt lat="44.5839023" lon="9.4238854"><ele>761.6</ele><time>2026-03-27T14:00:32.649Z</time></trkpt><trkpt lat="44.5839869" lon="9.4238369"><ele>759.2</ele><time>2026-03-27T14:00:33.648Z</time></trkpt><trkpt lat="44.584076" lon="9.4238135"><ele>756.8000000000001</ele><time>2026-03-27T14:00:34.648Z</time></trkpt><trkpt lat="44.5841762" lon="9.4237921"><ele>754.4000000000001</ele><time>2026-03-27T14:00:35.648Z</time></trkpt><trkpt lat="44.5842785" lon="9.4237841"><ele>752.0</ele><time>2026-03-27T14:00:36.65Z</time></trkpt><trkpt lat="44.5843812" lon="9.4237836"><ele>752.0</ele><time>2026-03-27T14:00:37.649Z</time></trkpt><trkpt lat="44.5844895" lon="9.4237776"><ele>752.0</ele><time>2026-03-27T14:00:38.647Z</time></trkpt><trkpt lat="44.5845934" lon="9.4237762"><ele>752.0</ele><time>2026-03-27T14:00:39.649Z</time></trkpt><trkpt lat="44.5846985" lon="9.4237718"><ele>752.0</ele><time>2026-03-27T14:00:40.647Z</time></trkpt><trkpt lat="44.5847976" lon="9.42377"><ele>752.0</ele><time>2026-03-27T14:00:41.648Z</time></trkpt><trkpt lat="44.5848862" lon="9.4237686"><ele>754.3333333333333</ele><time>2026-03-27T14:00:42.648Z</time></trkpt><trkpt lat="44.5849649" lon="9.4237684"><ele>756.6666666666666</ele><time>2026-03-27T14:00:43.654Z</time></trkpt><trkpt lat="44.5850431" lon="9.4237749"><ele>759.0</ele><time>2026-03-27T14:00:44.647Z</time></trkpt><trkpt lat="44.5851303" lon="9.42378"><ele>761.3333333333334</ele><time>2026-03-27T14:00:45.648Z</time></trkpt><trkpt lat="44.585222" lon="9.4237892"><ele>763.6666666666667</ele><time>2026-03-27T14:00:46.647Z</time></trkpt><trkpt lat="44.5853223" lon="9.4238062"><ele>766.0</ele><time>2026-03-27T14:00:47.649Z</time></trkpt><trkpt lat="44.5854361" lon="9.4238329"><ele>776.0</ele><time>2026-03-27T14:00:48.651Z</time></trkpt><trkpt lat="44.5855601" lon="9.4238737"><ele>786.0</ele><time>2026-03-27T14:00:49.649Z</time></trkpt><trkpt lat="44.5856832" lon="9.4239055"><ele>796.0</ele><time>2026-03-27T14:00:50.65Z</time></trkpt><trkpt lat="44.5858002" lon="9.4239238"><ele>806.0</ele><time>2026-03-27T14:00:51.649Z</time></trkpt><trkpt lat="44.5859072" lon="9.423923"><ele>806.0000000000001</ele><time>2026-03-27T14:00:52.65Z</time></trkpt><trkpt lat="44.586007" lon="9.4239191"><ele>806.0</ele><time>2026-03-27T14:00:53.649Z</time></trkpt><trkpt lat="44.586101" lon="9.4238967"><ele>806.0</ele><time>2026-03-27T14:00:54.648Z</time></trkpt><trkpt lat="44.5861694" lon="9.4238507"><ele>806.0</ele><time>2026-03-27T14:00:55.652Z</time></trkpt><trkpt lat="44.5862291" lon="9.4238226"><ele>806.0000000000001</ele><time>2026-03-27T14:00:56.649Z</time></trkpt><trkpt lat="44.5863109" lon="9.4238078"><ele>806.0</ele><time>2026-03-27T14:00:58.647Z</time></trkpt><trkpt lat="44.5863037" lon="9.4239164"><ele>806.0</ele><time>2026-03-27T14:01:01.648Z</time></trkpt><trkpt lat="44.5862248" lon="9.423957"><ele>806.0</ele><time>2026-03-27T14:01:03.649Z</time></trkpt><trkpt lat="44.5860915" lon="9.4239876"><ele>806.0</ele><time>2026-03-27T14:01:05.65Z</time></trkpt><trkpt lat="44.5860031" lon="9.4240053"><ele>806.0</ele><time>2026-03-27T14:01:06.648Z</time></trkpt><trkpt lat="44.5858437" lon="9.4240134"><ele>806.0</ele><time>2026-03-27T14:01:07.649Z</time></trkpt><trkpt lat="44.5857092" lon="9.4240233"><ele>806.0</ele><time>2026-03-27T14:01:08.648Z</time></trkpt><trkpt lat="44.5855916" lon="9.4240341"><ele>806.0</ele><time>2026-03-27T14:01:09.65Z</time></trkpt><trkpt lat="44.5854847" lon="9.4240482"><ele>806.0</ele><time>2026-03-27T14:01:10.647Z</time></trkpt><trkpt lat="44.5853864" lon="9.4240665"><ele>805.3333333333334</ele><time>2026-03-27T14:01:11.65Z</time></trkpt><trkpt lat="44.5853013" lon="9.4240854"><ele>804.6666666666667</ele><time>2026-03-27T14:01:12.648Z</time></trkpt><trkpt lat="44.5852226" lon="9.4241132"><ele>804.0</ele><time>2026-03-27T14:01:13.647Z</time></trkpt><trkpt lat="44.5851408" lon="9.4241507"><ele>803.3333333333333</ele><time>2026-03-27T14:01:14.648Z</time></trkpt><trkpt lat="44.5850569" lon="9.4241889"><ele>802.6666666666666</ele><time>2026-03-27T14:01:15.649Z</time></trkpt><trkpt lat="44.5849795" lon="9.4242291"><ele>802.0</ele><time>2026-03-27T14:01:16.647Z</time></trkpt><trkpt lat="44.5849121" lon="9.4242668"><ele>801.9999999999999</ele><time>2026-03-27T14:01:17.647Z</time></trkpt><trkpt lat="44.5848529" lon="9.4243011"><ele>802.0</ele><time>2026-03-27T14:01:18.647Z</time></trkpt><trkpt lat="44.5847437" lon="9.4243721"><ele>802.0</ele><time>2026-03-27T14:01:20.648Z</time></trkpt><trkpt lat="44.5846294" lon="9.4244482"><ele>802.0</ele><time>2026-03-27T14:01:22.647Z</time></trkpt><trkpt lat="44.5845716" lon="9.424485"><ele>801.9999999999999</ele><time>2026-03-27T14:01:23.648Z</time></trkpt><trkpt lat="44.5845093" lon="9.4245221"><ele>802.0</ele><time>2026-03-27T14:01:24.648Z</time></trkpt><trkpt lat="44.5844499" lon="9.4245734"><ele>799.8333333333333</ele><time>2026-03-27T14:01:25.649Z</time></trkpt><trkpt lat="44.5843865" lon="9.4246265"><ele>797.6666666666666</ele><time>2026-03-27T14:01:26.648Z</time></trkpt><trkpt lat="44.5843261" lon="9.4246827"><ele>795.5</ele><time>2026-03-27T14:01:27.648Z</time></trkpt><trkpt lat="44.5842747" lon="9.4247372"><ele>793.3333333333333</ele><time>2026-03-27T14:01:28.648Z</time></trkpt><trkpt lat="44.5842204" lon="9.424793"><ele>791.1666666666666</ele><time>2026-03-27T14:01:29.647Z</time></trkpt><trkpt lat="44.5841549" lon="9.4248682"><ele>789.0</ele><time>2026-03-27T14:01:30.648Z</time></trkpt><trkpt lat="44.5840844" lon="9.4249408"><ele>794.1428571428571</ele><time>2026-03-27T14:01:31.647Z</time></trkpt><trkpt lat="44.5840267" lon="9.425006"><ele>799.2857142857142</ele><time>2026-03-27T14:01:32.647Z</time></trkpt><trkpt lat="44.5839791" lon="9.4250712"><ele>804.4285714285713</ele><time>2026-03-27T14:01:33.648Z</time></trkpt><trkpt lat="44.5839255" lon="9.4251413"><ele>809.5714285714286</ele><time>2026-03-27T14:01:34.647Z</time></trkpt><trkpt lat="44.5838689" lon="9.4252153"><ele>814.7142857142858</ele><time>2026-03-27T14:01:35.651Z</time></trkpt><trkpt lat="44.5838165" lon="9.425283"><ele>819.8571428571428</ele><time>2026-03-27T14:01:36.647Z</time></trkpt><trkpt lat="44.583761" lon="9.4253523"><ele>825.0</ele><time>2026-03-27T14:01:37.649Z</time></trkpt><trkpt lat="44.583686" lon="9.425419"><ele>825.8333333333334</ele><time>2026-03-27T14:01:38.648Z</time></trkpt><trkpt lat="44.5836311" lon="9.4254868"><ele>826.6666666666667</ele><time>2026-03-27T14:01:39.648Z</time></trkpt><trkpt lat="44.5835837" lon="9.4255659"><ele>827.5</ele><time>2026-03-27T14:01:40.648Z</time></trkpt><trkpt lat="44.5835273" lon="9.4256511"><ele>828.3333333333334</ele><time>2026-03-27T14:01:41.648Z</time></trkpt><trkpt lat="44.583474" lon="9.4257326"><ele>829.1666666666667</ele><time>2026-03-27T14:01:42.647Z</time></trkpt><trkpt lat="44.5834153" lon="9.4258116"><ele>830.0</ele><time>2026-03-27T14:01:43.647Z</time></trkpt><trkpt lat="44.5833556" lon="9.4258906"><ele>830.0000000000001</ele><time>2026-03-27T14:01:44.648Z</time></trkpt><trkpt lat="44.5832981" lon="9.4259545"><ele>830.0</ele><time>2026-03-27T14:01:45.648Z</time></trkpt><trkpt lat="44.5832371" lon="9.426016"><ele>830.0</ele><time>2026-03-27T14:01:46.647Z</time></trkpt><trkpt lat="44.5831752" lon="9.4260852"><ele>830.0</ele><time>2026-03-27T14:01:47.651Z</time></trkpt><trkpt lat="44.5831122" lon="9.4261671"><ele>830.0000000000001</ele><time>2026-03-27T14:01:48.647Z</time></trkpt><trkpt lat="44.5830575" lon="9.4262392"><ele>830.0</ele><time>2026-03-27T14:01:49.647Z</time></trkpt><trkpt lat="44.5829989" lon="9.4262985"><ele>833.0</ele><time>2026-03-27T14:01:50.649Z</time></trkpt><trkpt lat="44.5829431" lon="9.4263449"><ele>836.0</ele><time>2026-03-27T14:01:51.647Z</time></trkpt><trkpt lat="44.5828275" lon="9.4264208"><ele>839.0</ele><time>2026-03-27T14:01:53.647Z</time></trkpt><trkpt lat="44.5827653" lon="9.4264349"><ele>842.0</ele><time>2026-03-27T14:01:54.648Z</time></trkpt><trkpt lat="44.5826414" lon="9.4264854"><ele>845.0</ele><time>2026-03-27T14:01:56.649Z</time></trkpt><trkpt lat="44.5825718" lon="9.4265143"><ele>845.0000000000001</ele><time>2026-03-27T14:01:57.649Z</time></trkpt><trkpt lat="44.5825097" lon="9.4265375"><ele>845.0</ele><time>2026-03-27T14:01:58.648Z</time></trkpt><trkpt lat="44.5824041" lon="9.4265721"><ele>845.0</ele><time>2026-03-27T14:02:00.649Z</time></trkpt><trkpt lat="44.5823164" lon="9.4265902"><ele>845.0</ele><time>2026-03-27T14:02:02.648Z</time></trkpt><trkpt lat="44.5822481" lon="9.4266188"><ele>845.0000000000001</ele><time>2026-03-27T14:02:04.648Z</time></trkpt><trkpt lat="44.5821897" lon="9.4266701"><ele>845.0</ele><time>2026-03-27T14:02:06.648Z</time></trkpt><trkpt lat="44.5821508" lon="9.4267649"><ele>845.0000000000001</ele><time>2026-03-27T14:02:10.649Z</time></trkpt><trkpt lat="44.582216" lon="9.4267949"><ele>845.0</ele><time>2026-03-27T14:02:13.648Z</time></trkpt><trkpt lat="44.5823124" lon="9.4267879"><ele>845.0</ele><time>2026-03-27T14:02:15.648Z</time></trkpt><trkpt lat="44.5823851" lon="9.4267806"><ele>845.0</ele><time>2026-03-27T14:02:16.647Z</time></trkpt><trkpt lat="44.5824713" lon="9.4267679"><ele>845.0000000000001</ele><time>2026-03-27T14:02:17.65Z</time></trkpt><trkpt lat="44.5825749" lon="9.4267475"><ele>845.0</ele><time>2026-03-27T14:02:18.647Z</time></trkpt><trkpt lat="44.5826862" lon="9.4267273"><ele>845.0</ele><time>2026-03-27T14:02:19.65Z</time></trkpt><trkpt lat="44.582791" lon="9.4267024"><ele>845.0</ele><time>2026-03-27T14:02:20.648Z</time></trkpt><trkpt lat="44.5828957" lon="9.4266628"><ele>845.0</ele><time>2026-03-27T14:02:21.649Z</time></trkpt><trkpt lat="44.5829995" lon="9.4266168"><ele>845.0</ele><time>2026-03-27T14:02:22.651Z</time></trkpt><trkpt lat="44.5831076" lon="9.4265547"><ele>845.0</ele><time>2026-03-27T14:02:23.649Z</time></trkpt><trkpt lat="44.5832089" lon="9.426494"><ele>847.6</ele><time>2026-03-27T14:02:24.653Z</time></trkpt><trkpt lat="44.5833089" lon="9.4264364"><ele>850.2</ele><time>2026-03-27T14:02:25.651Z</time></trkpt><trkpt lat="44.5834048" lon="9.4263764"><ele>852.8</ele><time>2026-03-27T14:02:26.649Z</time></trkpt><trkpt lat="44.5834972" lon="9.4263149"><ele>855.4</ele><time>2026-03-27T14:02:27.65Z</time></trkpt><trkpt lat="44.5835963" lon="9.4262555"><ele>858.0</ele><time>2026-03-27T14:02:28.649Z</time></trkpt><trkpt lat="44.5836979" lon="9.4262074"><ele>858.0</ele><time>2026-03-27T14:02:29.648Z</time></trkpt><trkpt lat="44.583801" lon="9.4261669"><ele>858.0</ele><time>2026-03-27T14:02:30.651Z</time></trkpt><trkpt lat="44.5839035" lon="9.4261274"><ele>858.0</ele><time>2026-03-27T14:02:31.649Z</time></trkpt><trkpt lat="44.5840148" lon="9.4260852"><ele>858.0</ele><time>2026-03-27T14:02:32.651Z</time></trkpt><trkpt lat="44.5841254" lon="9.4260456"><ele>858.0</ele><time>2026-03-27T14:02:33.649Z</time></trkpt><trkpt lat="44.5842381" lon="9.4260179"><ele>858.0</ele><time>2026-03-27T14:02:34.651Z</time></trkpt><trkpt lat="44.5843467" lon="9.4259993"><ele>858.0</ele><time>2026-03-27T14:02:35.648Z</time></trkpt><trkpt lat="44.5844581" lon="9.4259818"><ele>858.0</ele><time>2026-03-27T14:02:36.65Z</time></trkpt><trkpt lat="44.5845711" lon="9.4259694"><ele>858.0</ele><time>2026-03-27T14:02:37.649Z</time></trkpt><trkpt lat="44.5846782" lon="9.4259602"><ele>858.0</ele><time>2026-03-27T14:02:38.649Z</time></trkpt><trkpt lat="44.5847884" lon="9.4259645"><ele>860.2</ele><time>2026-03-27T14:02:39.65Z</time></trkpt><trkpt lat="44.5848943" lon="9.4259831"><ele>862.4</ele><time>2026-03-27T14:02:40.649Z</time></trkpt><trkpt lat="44.585" lon="9.42601"><ele>864.6000000000001</ele><time>2026-03-27T14:02:41.649Z</time></trkpt><trkpt lat="44.585105" lon="9.426035"><ele>866.8000000000001</ele><time>2026-03-27T14:02:42.648Z</time></trkpt><trkpt lat="44.585205" lon="9.426065"><ele>869.0</ele><time>2026-03-27T14:02:43.649Z</time></trkpt><trkpt lat="44.585315" lon="9.4260983"><ele>867.4000000000001</ele><time>2026-03-27T14:02:44.65Z</time></trkpt><trkpt lat="44.585415" lon="9.42613"><ele>865.8000000000001</ele><time>2026-03-27T14:02:45.649Z</time></trkpt><trkpt lat="44.585515" lon="9.4261533"><ele>864.1999999999999</ele><time>2026-03-27T14:02:46.648Z</time></trkpt><trkpt lat="44.5856" lon="9.4261683"><ele>862.5999999999999</ele><time>2026-03-27T14:02:47.647Z</time></trkpt><trkpt lat="44.5856767" lon="9.4261783"><ele>861.0</ele><time>2026-03-27T14:02:48.648Z</time></trkpt><trkpt lat="44.5857733" lon="9.426225"><ele>861.0</ele><time>2026-03-27T14:02:50.648Z</time></trkpt><trkpt lat="44.5856933" lon="9.426275"><ele>861.0</ele><time>2026-03-27T14:02:54.649Z</time></trkpt><trkpt lat="44.5855933" lon="9.426235"><ele>861.0</ele><time>2026-03-27T14:02:56.651Z</time></trkpt><trkpt lat="44.5854817" lon="9.4262333"><ele>861.0</ele><time>2026-03-27T14:02:58.649Z</time></trkpt><trkpt lat="44.5854167" lon="9.4262467"><ele>861.0</ele><time>2026-03-27T14:02:59.649Z</time></trkpt><trkpt lat="44.58535" lon="9.4262633"><ele>861.0</ele><time>2026-03-27T14:03:00.65Z</time></trkpt><trkpt lat="44.585275" lon="9.4262883"><ele>869.1999999999999</ele><time>2026-03-27T14:03:01.649Z</time></trkpt><trkpt lat="44.5852" lon="9.4263167"><ele>877.3999999999999</ele><time>2026-03-27T14:03:02.649Z</time></trkpt><trkpt lat="44.5851183" lon="9.4263233"><ele>885.6</ele><time>2026-03-27T14:03:03.648Z</time></trkpt><trkpt lat="44.585025" lon="9.4263233"><ele>893.8</ele><time>2026-03-27T14:03:04.65Z</time></trkpt><trkpt lat="44.58491" lon="9.426335"><ele>902.0</ele><time>2026-03-27T14:03:05.649Z</time></trkpt><trkpt lat="44.5847933" lon="9.426345"><ele>902.0</ele><time>2026-03-27T14:03:06.649Z</time></trkpt><trkpt lat="44.58469" lon="9.4263683"><ele>902.0</ele><time>2026-03-27T14:03:07.649Z</time></trkpt><trkpt lat="44.5845733" lon="9.4263983"><ele>902.0</ele><time>2026-03-27T14:03:08.649Z</time></trkpt><trkpt lat="44.5844583" lon="9.42644"><ele>902.0</ele><time>2026-03-27T14:03:09.649Z</time></trkpt><trkpt lat="44.58435" lon="9.4264933"><ele>900.0</ele><time>2026-03-27T14:03:10.649Z</time></trkpt><trkpt lat="44.5842533" lon="9.4265583"><ele>898.0</ele><time>2026-03-27T14:03:11.648Z</time></trkpt><trkpt lat="44.5841567" lon="9.4266217"><ele>896.0</ele><time>2026-03-27T14:03:12.647Z</time></trkpt><trkpt lat="44.5840667" lon="9.426695"><ele>894.0</ele><time>2026-03-27T14:03:13.648Z</time></trkpt><trkpt lat="44.58399" lon="9.4267867"><ele>892.0</ele><time>2026-03-27T14:03:14.647Z</time></trkpt><trkpt lat="44.5839183" lon="9.4268867"><ele>892.0</ele><time>2026-03-27T14:03:15.647Z</time></trkpt><trkpt lat="44.5838483" lon="9.4269983"><ele>892.0</ele><time>2026-03-27T14:03:16.648Z</time></trkpt><trkpt lat="44.58376" lon="9.4270917"><ele>892.0</ele><time>2026-03-27T14:03:17.647Z</time></trkpt><trkpt lat="44.5836917" lon="9.42718"><ele>892.0</ele><time>2026-03-27T14:03:18.648Z</time></trkpt><trkpt lat="44.5836217" lon="9.4272733"><ele>892.0</ele><time>2026-03-27T14:03:19.652Z</time></trkpt><trkpt lat="44.5835617" lon="9.4273683"><ele>893.6666666666666</ele><time>2026-03-27T14:03:20.649Z</time></trkpt><trkpt lat="44.5835033" lon="9.4274517"><ele>895.3333333333333</ele><time>2026-03-27T14:03:21.654Z</time></trkpt><trkpt lat="44.5834467" lon="9.4275233"><ele>897.0</ele><time>2026-03-27T14:03:22.647Z</time></trkpt><trkpt lat="44.583395" lon="9.4275833"><ele>898.6666666666667</ele><time>2026-03-27T14:03:23.648Z</time></trkpt><trkpt lat="44.5833283" lon="9.4276467"><ele>900.3333333333334</ele><time>2026-03-27T14:03:24.649Z</time></trkpt><trkpt lat="44.5832583" lon="9.4277117"><ele>902.0</ele><time>2026-03-27T14:03:25.648Z</time></trkpt><trkpt lat="44.5831833" lon="9.4277817"><ele>902.0</ele><time>2026-03-27T14:03:26.649Z</time></trkpt><trkpt lat="44.583105" lon="9.4278633"><ele>902.0</ele><time>2026-03-27T14:03:27.648Z</time></trkpt><trkpt lat="44.5830283" lon="9.4279583"><ele>902.0</ele><time>2026-03-27T14:03:28.647Z</time></trkpt><trkpt lat="44.582945" lon="9.4280717"><ele>902.0</ele><time>2026-03-27T14:03:29.647Z</time></trkpt><trkpt lat="44.58288" lon="9.4282083"><ele>902.0</ele><time>2026-03-27T14:03:30.648Z</time></trkpt><trkpt lat="44.5828183" lon="9.4283333"><ele>902.8</ele><time>2026-03-27T14:03:31.649Z</time></trkpt><trkpt lat="44.5827583" lon="9.4284552"><ele>903.6</ele><time>2026-03-27T14:03:32.65Z</time></trkpt><trkpt lat="44.5826885" lon="9.4285688"><ele>904.3999999999999</ele><time>2026-03-27T14:03:33.65Z</time></trkpt><trkpt lat="44.5826116" lon="9.4286851"><ele>905.1999999999999</ele><time>2026-03-27T14:03:34.649Z</time></trkpt><trkpt lat="44.5825312" lon="9.4287906"><ele>906.0</ele><time>2026-03-27T14:03:35.65Z</time></trkpt><trkpt lat="44.582449" lon="9.4288892"><ele>911.1666666666666</ele><time>2026-03-27T14:03:36.651Z</time></trkpt><trkpt lat="44.5823678" lon="9.4289703"><ele>916.3333333333333</ele><time>2026-03-27T14:03:37.649Z</time></trkpt><trkpt lat="44.5822939" lon="9.4290403"><ele>921.5</ele><time>2026-03-27T14:03:38.649Z</time></trkpt><trkpt lat="44.5822308" lon="9.4291107"><ele>926.6666666666666</ele><time>2026-03-27T14:03:39.65Z</time></trkpt><trkpt lat="44.5821664" lon="9.429178"><ele>931.8333333333333</ele><time>2026-03-27T14:03:40.648Z</time></trkpt><trkpt lat="44.5821016" lon="9.4292461"><ele>937.0</ele><time>2026-03-27T14:03:41.649Z</time></trkpt><trkpt lat="44.5820451" lon="9.429314"><ele>932.9999999999999</ele><time>2026-03-27T14:03:42.649Z</time></trkpt><trkpt lat="44.5819905" lon="9.4293928"><ele>929.0</ele><time>2026-03-27T14:03:43.649Z</time></trkpt><trkpt lat="44.5819456" lon="9.4294826"><ele>925.0</ele><time>2026-03-27T14:03:44.65Z</time></trkpt><trkpt lat="44.5819149" lon="9.4295833"><ele>921.0</ele><time>2026-03-27T14:03:45.649Z</time></trkpt><trkpt lat="44.5819048" lon="9.4296875"><ele>916.9999999999999</ele><time>2026-03-27T14:03:46.648Z</time></trkpt><trkpt lat="44.5819146" lon="9.4297922"><ele>913.0</ele><time>2026-03-27T14:03:47.649Z</time></trkpt><trkpt lat="44.5819312" lon="9.4299088"><ele>912.9999999999999</ele><time>2026-03-27T14:03:48.648Z</time></trkpt><trkpt lat="44.5819666" lon="9.4300133"><ele>913.0</ele><time>2026-03-27T14:03:49.649Z</time></trkpt><trkpt lat="44.5820022" lon="9.4301083"><ele>913.0</ele><time>2026-03-27T14:03:50.649Z</time></trkpt><trkpt lat="44.582028" lon="9.4301973"><ele>913.0</ele><time>2026-03-27T14:03:51.65Z</time></trkpt><trkpt lat="44.582037" lon="9.430357"><ele>912.9999999999999</ele><time>2026-03-27T14:03:53.648Z</time></trkpt><trkpt lat="44.5819649" lon="9.4304193"><ele>913.0</ele><time>2026-03-27T14:03:55.648Z</time></trkpt><trkpt lat="44.5818352" lon="9.4303807"><ele>912.9999999999999</ele><time>2026-03-27T14:03:57.649Z</time></trkpt><trkpt lat="44.5817665" lon="9.4303426"><ele>913.0</ele><time>2026-03-27T14:03:58.648Z</time></trkpt><trkpt lat="44.581695" lon="9.4303069"><ele>912.9999999999999</ele><time>2026-03-27T14:03:59.649Z</time></trkpt><trkpt lat="44.5816311" lon="9.430285"><ele>912.9999999999999</ele><time>2026-03-27T14:04:00.649Z</time></trkpt><trkpt lat="44.581564" lon="9.4302823"><ele>913.0</ele><time>2026-03-27T14:04:01.647Z</time></trkpt><trkpt lat="44.5814913" lon="9.4302916"><ele>912.9999999999999</ele><time>2026-03-27T14:04:02.647Z</time></trkpt><trkpt lat="44.5814107" lon="9.4303099"><ele>912.9999999999999</ele><time>2026-03-27T14:04:03.647Z</time></trkpt><trkpt lat="44.5813264" lon="9.4303217"><ele>912.9999999999999</ele><time>2026-03-27T14:04:04.647Z</time></trkpt><trkpt lat="44.5812432" lon="9.4303167"><ele>913.0</ele><time>2026-03-27T14:04:05.649Z</time></trkpt><trkpt lat="44.581167" lon="9.4302712"><ele>913.0</ele><time>2026-03-27T14:04:06.648Z</time></trkpt><trkpt lat="44.5810934" lon="9.4302034"><ele>913.0</ele><time>2026-03-27T14:04:07.647Z</time></trkpt><trkpt lat="44.5810273" lon="9.4301124"><ele>912.9999999999999</ele><time>2026-03-27T14:04:08.652Z</time></trkpt><trkpt lat="44.5809664" lon="9.4300152"><ele>913.0</ele><time>2026-03-27T14:04:09.648Z</time></trkpt><trkpt lat="44.5809019" lon="9.429916"><ele>910.8333333333333</ele><time>2026-03-27T14:04:10.647Z</time></trkpt><trkpt lat="44.5808462" lon="9.4298146"><ele>908.6666666666666</ele><time>2026-03-27T14:04:11.648Z</time></trkpt><trkpt lat="44.5807869" lon="9.4297093"><ele>906.5</ele><time>2026-03-27T14:04:12.648Z</time></trkpt><trkpt lat="44.5807275" lon="9.4295998"><ele>904.3333333333333</ele><time>2026-03-27T14:04:13.65Z</time></trkpt><trkpt lat="44.5806779" lon="9.4294921"><ele>902.1666666666666</ele><time>2026-03-27T14:04:14.648Z</time></trkpt><trkpt lat="44.5806414" lon="9.4294094"><ele>900.0</ele><time>2026-03-27T14:04:15.648Z</time></trkpt><trkpt lat="44.5805963" lon="9.4293444"><ele>900.0</ele><time>2026-03-27T14:04:16.648Z</time></trkpt><trkpt lat="44.5805256" lon="9.4293252"><ele>900.0</ele><time>2026-03-27T14:04:18.648Z</time></trkpt><trkpt lat="44.5804264" lon="9.4294457"><ele>900.0</ele><time>2026-03-27T14:04:20.651Z</time></trkpt><trkpt lat="44.5803584" lon="9.4295379"><ele>900.0</ele><time>2026-03-27T14:04:21.648Z</time></trkpt><trkpt lat="44.5802909" lon="9.4296213"><ele>900.0</ele><time>2026-03-27T14:04:22.648Z</time></trkpt><trkpt lat="44.5802216" lon="9.4296874"><ele>904.1666666666666</ele><time>2026-03-27T14:04:23.647Z</time></trkpt><trkpt lat="44.5801597" lon="9.4297184"><ele>908.3333333333333</ele><time>2026-03-27T14:04:24.647Z</time></trkpt><trkpt lat="44.5800919" lon="9.4297126"><ele>912.5</ele><time>2026-03-27T14:04:25.648Z</time></trkpt><trkpt lat="44.5800284" lon="9.4296844"><ele>916.6666666666666</ele><time>2026-03-27T14:04:26.648Z</time></trkpt><trkpt lat="44.5799634" lon="9.4296015"><ele>920.8333333333333</ele><time>2026-03-27T14:04:27.648Z</time></trkpt><trkpt lat="44.5799036" lon="9.4295041"><ele>925.0</ele><time>2026-03-27T14:04:28.649Z</time></trkpt><trkpt lat="44.5798437" lon="9.4293959"><ele>924.9999999999999</ele><time>2026-03-27T14:04:29.648Z</time></trkpt><trkpt lat="44.5797968" lon="9.4292937"><ele>925.0</ele><time>2026-03-27T14:04:30.653Z</time></trkpt><trkpt lat="44.5797426" lon="9.4292146"><ele>925.0</ele><time>2026-03-27T14:04:31.648Z</time></trkpt><trkpt lat="44.5796764" lon="9.4291788"><ele>925.0</ele><time>2026-03-27T14:04:32.648Z</time></trkpt><trkpt lat="44.579598" lon="9.4291674"><ele>924.9999999999999</ele><time>2026-03-27T14:04:33.648Z</time></trkpt><trkpt lat="44.5795116" lon="9.4291862"><ele>925.0</ele><time>2026-03-27T14:04:34.648Z</time></trkpt><trkpt lat="44.579426" lon="9.429219"><ele>924.4</ele><time>2026-03-27T14:04:35.65Z</time></trkpt><trkpt lat="44.5793392" lon="9.4292778"><ele>923.8</ele><time>2026-03-27T14:04:36.647Z</time></trkpt><trkpt lat="44.5792556" lon="9.429367"><ele>923.2</ele><time>2026-03-27T14:04:37.647Z</time></trkpt><trkpt lat="44.5791646" lon="9.4294819"><ele>922.6</ele><time>2026-03-27T14:04:38.65Z</time></trkpt><trkpt lat="44.5790775" lon="9.4296036"><ele>922.0</ele><time>2026-03-27T14:04:39.647Z</time></trkpt><trkpt lat="44.5789931" lon="9.4297363"><ele>927.1666666666666</ele><time>2026-03-27T14:04:40.649Z</time></trkpt><trkpt lat="44.5789211" lon="9.4298523"><ele>932.3333333333333</ele><time>2026-03-27T14:04:41.648Z</time></trkpt><trkpt lat="44.5788583" lon="9.4299496"><ele>937.5</ele><time>2026-03-27T14:04:42.647Z</time></trkpt><trkpt lat="44.5788025" lon="9.43003"><ele>942.6666666666667</ele><time>2026-03-27T14:04:43.647Z</time></trkpt><trkpt lat="44.5787598" lon="9.4301116"><ele>947.8333333333334</ele><time>2026-03-27T14:04:44.647Z</time></trkpt><trkpt lat="44.5787252" lon="9.4302031"><ele>953.0</ele><time>2026-03-27T14:04:45.647Z</time></trkpt><trkpt lat="44.5787036" lon="9.4303042"><ele>953.0000000000001</ele><time>2026-03-27T14:04:46.648Z</time></trkpt><trkpt lat="44.5786956" lon="9.4304115"><ele>953.0</ele><time>2026-03-27T14:04:47.648Z</time></trkpt><trkpt lat="44.5786957" lon="9.4305192"><ele>953.0</ele><time>2026-03-27T14:04:48.647Z</time></trkpt><trkpt lat="44.5786957" lon="9.4306235"><ele>953.0</ele><time>2026-03-27T14:04:49.648Z</time></trkpt><trkpt lat="44.5786922" lon="9.4307397"><ele>953.0000000000001</ele><time>2026-03-27T14:04:50.649Z</time></trkpt><trkpt lat="44.5786848" lon="9.4308647"><ele>953.0</ele><time>2026-03-27T14:04:51.649Z</time></trkpt><trkpt lat="44.5786671" lon="9.4310052"><ele>954.0</ele><time>2026-03-27T14:04:52.648Z</time></trkpt><trkpt lat="44.5786196" lon="9.4311399"><ele>955.0</ele><time>2026-03-27T14:04:53.648Z</time></trkpt><trkpt lat="44.5785565" lon="9.4312738"><ele>956.0</ele><time>2026-03-27T14:04:54.648Z</time></trkpt><trkpt lat="44.5784884" lon="9.4314011"><ele>957.0</ele><time>2026-03-27T14:04:55.648Z</time></trkpt><trkpt lat="44.5784243" lon="9.431519"><ele>958.0</ele><time>2026-03-27T14:04:56.647Z</time></trkpt><trkpt lat="44.5783655" lon="9.4316224"><ele>957.9999999999999</ele><time>2026-03-27T14:04:57.647Z</time></trkpt><trkpt lat="44.5783205" lon="9.4317324"><ele>958.0</ele><time>2026-03-27T14:04:58.647Z</time></trkpt><trkpt lat="44.5782797" lon="9.4318429"><ele>958.0</ele><time>2026-03-27T14:04:59.649Z</time></trkpt><trkpt lat="44.5782376" lon="9.4319461"><ele>958.0</ele><time>2026-03-27T14:05:00.649Z</time></trkpt><trkpt lat="44.578198" lon="9.4320363"><ele>957.9999999999999</ele><time>2026-03-27T14:05:01.647Z</time></trkpt><trkpt lat="44.5781583" lon="9.4321383"><ele>958.0</ele><time>2026-03-27T14:05:02.648Z</time></trkpt><trkpt lat="44.5781286" lon="9.4322489"><ele>959.2857142857142</ele><time>2026-03-27T14:05:03.647Z</time></trkpt><trkpt lat="44.5781149" lon="9.4323524"><ele>960.5714285714287</ele><time>2026-03-27T14:05:04.65Z</time></trkpt><trkpt lat="44.5781086" lon="9.4324521"><ele>961.8571428571429</ele><time>2026-03-27T14:05:05.648Z</time></trkpt><trkpt lat="44.5781129" lon="9.4325439"><ele>963.1428571428571</ele><time>2026-03-27T14:05:06.649Z</time></trkpt><trkpt lat="44.5781178" lon="9.4326345"><ele>964.4285714285713</ele><time>2026-03-27T14:05:07.647Z</time></trkpt><trkpt lat="44.5781265" lon="9.4327288"><ele>965.7142857142858</ele><time>2026-03-27T14:05:08.647Z</time></trkpt><trkpt lat="44.5781386" lon="9.4328263"><ele>967.0</ele><time>2026-03-27T14:05:09.648Z</time></trkpt><trkpt lat="44.5781674" lon="9.4329106"><ele>966.9999999999999</ele><time>2026-03-27T14:05:10.648Z</time></trkpt><trkpt lat="44.5782261" lon="9.4329721"><ele>967.0</ele><time>2026-03-27T14:05:11.65Z</time></trkpt><trkpt lat="44.5782956" lon="9.4330221"><ele>967.0</ele><time>2026-03-27T14:05:12.648Z</time></trkpt><trkpt lat="44.5783733" lon="9.4330616"><ele>967.0</ele><time>2026-03-27T14:05:13.648Z</time></trkpt><trkpt lat="44.5784517" lon="9.4331035"><ele>966.9999999999999</ele><time>2026-03-27T14:05:14.647Z</time></trkpt><trkpt lat="44.578528" lon="9.4331516"><ele>967.0</ele><time>2026-03-27T14:05:15.648Z</time></trkpt><trkpt lat="44.5786062" lon="9.4331992"><ele>969.2</ele><time>2026-03-27T14:05:16.646Z</time></trkpt><trkpt lat="44.5786866" lon="9.4332469"><ele>971.4000000000001</ele><time>2026-03-27T14:05:17.647Z</time></trkpt><trkpt lat="44.5787684" lon="9.4333001"><ele>973.5999999999999</ele><time>2026-03-27T14:05:18.647Z</time></trkpt><trkpt lat="44.5788544" lon="9.4333622"><ele>975.8</ele><time>2026-03-27T14:05:19.646Z</time></trkpt><trkpt lat="44.5789465" lon="9.4334328"><ele>978.0</ele><time>2026-03-27T14:05:20.648Z</time></trkpt><trkpt lat="44.5790377" lon="9.4334907"><ele>978.0</ele><time>2026-03-27T14:05:21.646Z</time></trkpt><trkpt lat="44.5791265" lon="9.43354"><ele>978.0</ele><time>2026-03-27T14:05:22.65Z</time></trkpt><trkpt lat="44.5792063" lon="9.4335996"><ele>978.0</ele><time>2026-03-27T14:05:23.647Z</time></trkpt><trkpt lat="44.579266" lon="9.4336753"><ele>978.0</ele><time>2026-03-27T14:05:24.647Z</time></trkpt><trkpt lat="44.5793173" lon="9.4337729"><ele>978.0</ele><time>2026-03-27T14:05:25.646Z</time></trkpt><trkpt lat="44.5793509" lon="9.4338668"><ele>978.0</ele><time>2026-03-27T14:05:26.647Z</time></trkpt><trkpt lat="44.5793784" lon="9.4339498"><ele>974.0</ele><time>2026-03-27T14:05:27.646Z</time></trkpt><trkpt lat="44.5794697" lon="9.4340715"><ele>970.0</ele><time>2026-03-27T14:05:29.647Z</time></trkpt><trkpt lat="44.5795387" lon="9.4341078"><ele>966.0</ele><time>2026-03-27T14:05:30.647Z</time></trkpt><trkpt lat="44.5796081" lon="9.4341465"><ele>962.0</ele><time>2026-03-27T14:05:31.647Z</time></trkpt><trkpt lat="44.5796687" lon="9.4342029"><ele>958.0</ele><time>2026-03-27T14:05:32.646Z</time></trkpt><trkpt lat="44.5797244" lon="9.4342778"><ele>954.0</ele><time>2026-03-27T14:05:33.649Z</time></trkpt><trkpt lat="44.5797687" lon="9.4343624"><ele>964.4000000000001</ele><time>2026-03-27T14:05:34.646Z</time></trkpt><trkpt lat="44.5797969" lon="9.4344597"><ele>974.8000000000001</ele><time>2026-03-27T14:05:35.646Z</time></trkpt><trkpt lat="44.5797966" lon="9.4345755"><ele>985.1999999999999</ele><time>2026-03-27T14:05:36.647Z</time></trkpt><trkpt lat="44.5797666" lon="9.434713"><ele>995.5999999999999</ele><time>2026-03-27T14:05:37.646Z</time></trkpt><trkpt lat="44.5797296" lon="9.4348719"><ele>1006.0</ele><time>2026-03-27T14:05:38.649Z</time></trkpt><trkpt lat="44.5796935" lon="9.4350154"><ele>1006.0</ele><time>2026-03-27T14:05:39.648Z</time></trkpt><trkpt lat="44.5796429" lon="9.4351605"><ele>1005.9999999999999</ele><time>2026-03-27T14:05:40.648Z</time></trkpt><trkpt lat="44.579604" lon="9.4352907"><ele>1005.9999999999999</ele><time>2026-03-27T14:05:41.646Z</time></trkpt><trkpt lat="44.579585" lon="9.4354101"><ele>1006.0</ele><time>2026-03-27T14:05:42.649Z</time></trkpt><trkpt lat="44.5795839" lon="9.4355311"><ele>1006.0</ele><time>2026-03-27T14:05:43.648Z</time></trkpt><trkpt lat="44.5795901" lon="9.4356524"><ele>1006.8</ele><time>2026-03-27T14:05:44.648Z</time></trkpt><trkpt lat="44.5795917" lon="9.4357785"><ele>1007.5999999999999</ele><time>2026-03-27T14:05:45.647Z</time></trkpt><trkpt lat="44.5795799" lon="9.4359052"><ele>1008.4</ele><time>2026-03-27T14:05:46.647Z</time></trkpt><trkpt lat="44.5795737" lon="9.4360407"><ele>1009.2</ele><time>2026-03-27T14:05:47.646Z</time></trkpt><trkpt lat="44.5795877" lon="9.4361769"><ele>1010.0</ele><time>2026-03-27T14:05:48.647Z</time></trkpt><trkpt lat="44.5796095" lon="9.4363079"><ele>1010.8333333333334</ele><time>2026-03-27T14:05:49.648Z</time></trkpt><trkpt lat="44.5796301" lon="9.4364209"><ele>1011.6666666666667</ele><time>2026-03-27T14:05:50.647Z</time></trkpt><trkpt lat="44.5796339" lon="9.4365309"><ele>1012.5</ele><time>2026-03-27T14:05:51.647Z</time></trkpt><trkpt lat="44.5796211" lon="9.4366392"><ele>1013.3333333333333</ele><time>2026-03-27T14:05:52.648Z</time></trkpt><trkpt lat="44.5796012" lon="9.4367539"><ele>1014.1666666666666</ele><time>2026-03-27T14:05:53.648Z</time></trkpt><trkpt lat="44.5795731" lon="9.436868"><ele>1015.0</ele><time>2026-03-27T14:05:54.648Z</time></trkpt><trkpt lat="44.5795347" lon="9.4369774"><ele>1010.2857142857142</ele><time>2026-03-27T14:05:55.646Z</time></trkpt><trkpt lat="44.5794919" lon="9.437066"><ele>1005.5714285714286</ele><time>2026-03-27T14:05:56.647Z</time></trkpt><trkpt lat="44.5794467" lon="9.437144"><ele>1000.8571428571429</ele><time>2026-03-27T14:05:57.646Z</time></trkpt><trkpt lat="44.5794117" lon="9.4372232"><ele>996.1428571428571</ele><time>2026-03-27T14:05:58.647Z</time></trkpt><trkpt lat="44.5793849" lon="9.4373055"><ele>991.4285714285713</ele><time>2026-03-27T14:05:59.648Z</time></trkpt><trkpt lat="44.5793666" lon="9.4374114"><ele>986.7142857142857</ele><time>2026-03-27T14:06:00.646Z</time></trkpt><trkpt lat="44.5793505" lon="9.4375291"><ele>982.0</ele><time>2026-03-27T14:06:01.647Z</time></trkpt><trkpt lat="44.5793366" lon="9.4376576"><ele>982.0</ele><time>2026-03-27T14:06:02.648Z</time></trkpt><trkpt lat="44.5793261" lon="9.4377816"><ele>982.0</ele><time>2026-03-27T14:06:03.647Z</time></trkpt><trkpt lat="44.5793108" lon="9.437908"><ele>982.0</ele><time>2026-03-27T14:06:04.647Z</time></trkpt><trkpt lat="44.5792888" lon="9.4380527"><ele>982.0</ele><time>2026-03-27T14:06:05.646Z</time></trkpt><trkpt lat="44.5792582" lon="9.4381976"><ele>982.0</ele><time>2026-03-27T14:06:06.648Z</time></trkpt><trkpt lat="44.5792238" lon="9.4383262"><ele>983.4000000000001</ele><time>2026-03-27T14:06:07.648Z</time></trkpt><trkpt lat="44.5791929" lon="9.4384568"><ele>984.8000000000001</ele><time>2026-03-27T14:06:08.647Z</time></trkpt><trkpt lat="44.5791838" lon="9.4385902"><ele>986.2</ele><time>2026-03-27T14:06:09.647Z</time></trkpt><trkpt lat="44.5791924" lon="9.4387325"><ele>987.6</ele><time>2026-03-27T14:06:10.648Z</time></trkpt><trkpt lat="44.5792168" lon="9.4388737"><ele>989.0</ele><time>2026-03-27T14:06:11.648Z</time></trkpt><trkpt lat="44.5792493" lon="9.4390127"><ele>989.6</ele><time>2026-03-27T14:06:12.647Z</time></trkpt><trkpt lat="44.5792779" lon="9.4391488"><ele>990.2</ele><time>2026-03-27T14:06:13.648Z</time></trkpt><trkpt lat="44.5793041" lon="9.4392818"><ele>990.8000000000001</ele><time>2026-03-27T14:06:14.647Z</time></trkpt><trkpt lat="44.5793225" lon="9.4394263"><ele>991.4000000000001</ele><time>2026-03-27T14:06:15.648Z</time></trkpt><trkpt lat="44.5793464" lon="9.439568"><ele>992.0</ele><time>2026-03-27T14:06:16.646Z</time></trkpt><trkpt lat="44.5793816" lon="9.4397036"><ele>993.6666666666667</ele><time>2026-03-27T14:06:17.649Z</time></trkpt><trkpt lat="44.5794025" lon="9.4398244"><ele>995.3333333333334</ele><time>2026-03-27T14:06:18.648Z</time></trkpt><trkpt lat="44.5794255" lon="9.4399264"><ele>997.0</ele><time>2026-03-27T14:06:19.651Z</time></trkpt><trkpt lat="44.5794488" lon="9.4400135"><ele>998.6666666666667</ele><time>2026-03-27T14:06:20.646Z</time></trkpt><trkpt lat="44.5794989" lon="9.4400781"><ele>1000.3333333333334</ele><time>2026-03-27T14:06:22.647Z</time></trkpt><trkpt lat="44.5794979" lon="9.4399519"><ele>1002.0</ele><time>2026-03-27T14:06:24.649Z</time></trkpt><trkpt lat="44.5794698" lon="9.4398366"><ele>1002.0</ele><time>2026-03-27T14:06:25.647Z</time></trkpt><trkpt lat="44.579449" lon="9.4397144"><ele>1002.0</ele><time>2026-03-27T14:06:26.647Z</time></trkpt><trkpt lat="44.5794347" lon="9.4395857"><ele>1002.0</ele><time>2026-03-27T14:06:27.646Z</time></trkpt><trkpt lat="44.5794396" lon="9.4394456"><ele>1002.0</ele><time>2026-03-27T14:06:28.646Z</time></trkpt><trkpt lat="44.5794589" lon="9.4393076"><ele>1002.0</ele><time>2026-03-27T14:06:29.647Z</time></trkpt><trkpt lat="44.5794835" lon="9.4391815"><ele>1000.3333333333334</ele><time>2026-03-27T14:06:30.648Z</time></trkpt><trkpt lat="44.5795071" lon="9.4390574"><ele>998.6666666666667</ele><time>2026-03-27T14:06:31.65Z</time></trkpt><trkpt lat="44.5795279" lon="9.4389274"><ele>997.0</ele><time>2026-03-27T14:06:32.648Z</time></trkpt><trkpt lat="44.5795469" lon="9.4387968"><ele>995.3333333333334</ele><time>2026-03-27T14:06:33.649Z</time></trkpt><trkpt lat="44.5795672" lon="9.4386773"><ele>993.6666666666667</ele><time>2026-03-27T14:06:34.646Z</time></trkpt><trkpt lat="44.5795793" lon="9.4385755"><ele>992.0</ele><time>2026-03-27T14:06:35.646Z</time></trkpt><trkpt lat="44.5795901" lon="9.4384876"><ele>999.1666666666667</ele><time>2026-03-27T14:06:36.648Z</time></trkpt><trkpt lat="44.5796338" lon="9.4383758"><ele>1006.3333333333334</ele><time>2026-03-27T14:06:38.647Z</time></trkpt><trkpt lat="44.5796845" lon="9.4384779"><ele>1013.5</ele><time>2026-03-27T14:06:40.647Z</time></trkpt><trkpt lat="44.5796812" lon="9.4385855"><ele>1020.6666666666667</ele><time>2026-03-27T14:06:41.648Z</time></trkpt><trkpt lat="44.5796697" lon="9.4387004"><ele>1027.8333333333333</ele><time>2026-03-27T14:06:42.649Z</time></trkpt><trkpt lat="44.5796574" lon="9.4388199"><ele>1035.0</ele><time>2026-03-27T14:06:43.647Z</time></trkpt><trkpt lat="44.5796458" lon="9.4389463"><ele>1038.0</ele><time>2026-03-27T14:06:44.647Z</time></trkpt><trkpt lat="44.5796349" lon="9.4390768"><ele>1041.0</ele><time>2026-03-27T14:06:45.648Z</time></trkpt><trkpt lat="44.5796273" lon="9.4392234"><ele>1044.0</ele><time>2026-03-27T14:06:46.742Z</time></trkpt><trkpt lat="44.5796292" lon="9.4393627"><ele>1047.0</ele><time>2026-03-27T14:06:47.647Z</time></trkpt><trkpt lat="44.5796379" lon="9.4395097"><ele>1050.0</ele><time>2026-03-27T14:06:48.647Z</time></trkpt><trkpt lat="44.579656" lon="9.4396551"><ele>1051.4</ele><time>2026-03-27T14:06:49.647Z</time></trkpt><trkpt lat="44.5796819" lon="9.439803"><ele>1052.8</ele><time>2026-03-27T14:06:50.647Z</time></trkpt><trkpt lat="44.5797028" lon="9.4399513"><ele>1054.2</ele><time>2026-03-27T14:06:51.649Z</time></trkpt><trkpt lat="44.579711" lon="9.4400926"><ele>1055.6</ele><time>2026-03-27T14:06:52.648Z</time></trkpt><trkpt lat="44.5797055" lon="9.440217"><ele>1057.0</ele><time>2026-03-27T14:06:53.647Z</time></trkpt><trkpt lat="44.5796935" lon="9.4403208"><ele>1057.0</ele><time>2026-03-27T14:06:54.647Z</time></trkpt><trkpt lat="44.5796477" lon="9.4404024"><ele>1057.0</ele><time>2026-03-27T14:06:55.647Z</time></trkpt><trkpt lat="44.579583" lon="9.4404757"><ele>1057.0</ele><time>2026-03-27T14:06:56.65Z</time></trkpt><trkpt lat="44.5795025" lon="9.4405445"><ele>1057.0</ele><time>2026-03-27T14:06:57.647Z</time></trkpt><trkpt lat="44.5794166" lon="9.4406215"><ele>1057.0</ele><time>2026-03-27T14:06:58.646Z</time></trkpt><trkpt lat="44.5793422" lon="9.440707"><ele>1057.0</ele><time>2026-03-27T14:06:59.647Z</time></trkpt><trkpt lat="44.5792853" lon="9.4408213"><ele>1057.0</ele><time>2026-03-27T14:07:00.647Z</time></trkpt><trkpt lat="44.5792521" lon="9.4409525"><ele>1057.0</ele><time>2026-03-27T14:07:01.647Z</time></trkpt><trkpt lat="44.5792261" lon="9.4410782"><ele>1057.0</ele><time>2026-03-27T14:07:02.648Z</time></trkpt><trkpt lat="44.5791936" lon="9.4412"><ele>1057.0</ele><time>2026-03-27T14:07:03.648Z</time></trkpt><trkpt lat="44.5791538" lon="9.4413167"><ele>1057.0</ele><time>2026-03-27T14:07:04.648Z</time></trkpt><trkpt lat="44.5791016" lon="9.4414318"><ele>1057.0</ele><time>2026-03-27T14:07:05.647Z</time></trkpt><trkpt lat="44.5790411" lon="9.4415486"><ele>1057.0</ele><time>2026-03-27T14:07:06.648Z</time></trkpt><trkpt lat="44.5789697" lon="9.4416698"><ele>1057.0</ele><time>2026-03-27T14:07:07.647Z</time></trkpt><trkpt lat="44.5788897" lon="9.4417933"><ele>1057.0</ele><time>2026-03-27T14:07:08.647Z</time></trkpt><trkpt lat="44.5788082" lon="9.4419038"><ele>1057.0</ele><time>2026-03-27T14:07:09.647Z</time></trkpt><trkpt lat="44.5787332" lon="9.4420029"><ele>1051.8</ele><time>2026-03-27T14:07:10.647Z</time></trkpt><trkpt lat="44.578663" lon="9.4421004"><ele>1046.6</ele><time>2026-03-27T14:07:11.647Z</time></trkpt><trkpt lat="44.578597" lon="9.4422034"><ele>1041.3999999999999</ele><time>2026-03-27T14:07:12.648Z</time></trkpt><trkpt lat="44.5785406" lon="9.4423203"><ele>1036.2</ele><time>2026-03-27T14:07:13.65Z</time></trkpt><trkpt lat="44.5784895" lon="9.442444"><ele>1031.0</ele><time>2026-03-27T14:07:14.648Z</time></trkpt><trkpt lat="44.578437" lon="9.442562"><ele>1031.0</ele><time>2026-03-27T14:07:15.651Z</time></trkpt><trkpt lat="44.5783812" lon="9.4426765"><ele>1031.0</ele><time>2026-03-27T14:07:16.646Z</time></trkpt><trkpt lat="44.578324" lon="9.4427943"><ele>1031.0</ele><time>2026-03-27T14:07:17.646Z</time></trkpt><trkpt lat="44.5782719" lon="9.442913"><ele>1031.0</ele><time>2026-03-27T14:07:18.647Z</time></trkpt><trkpt lat="44.5782189" lon="9.4430278"><ele>1031.0</ele><time>2026-03-27T14:07:19.647Z</time></trkpt><trkpt lat="44.5781686" lon="9.4431379"><ele>1037.1666666666667</ele><time>2026-03-27T14:07:20.65Z</time></trkpt><trkpt lat="44.578113" lon="9.4432421"><ele>1043.3333333333335</ele><time>2026-03-27T14:07:21.648Z</time></trkpt><trkpt lat="44.5780614" lon="9.443327"><ele>1049.5</ele><time>2026-03-27T14:07:22.649Z</time></trkpt><trkpt lat="44.578016" lon="9.4433967"><ele>1055.6666666666667</ele><time>2026-03-27T14:07:23.648Z</time></trkpt><trkpt lat="44.5779436" lon="9.4435159"><ele>1061.8333333333333</ele><time>2026-03-27T14:07:25.647Z</time></trkpt><trkpt lat="44.5779441" lon="9.4436301"><ele>1068.0</ele><time>2026-03-27T14:07:27.647Z</time></trkpt><trkpt lat="44.5780089" lon="9.4436587"><ele>1068.0</ele><time>2026-03-27T14:07:29.647Z</time></trkpt><trkpt lat="44.578091" lon="9.4435565"><ele>1068.0</ele><time>2026-03-27T14:07:31.647Z</time></trkpt><trkpt lat="44.5781509" lon="9.4434089"><ele>1068.0</ele><time>2026-03-27T14:07:33.649Z</time></trkpt><trkpt lat="44.5782192" lon="9.4433294"><ele>1068.0</ele><time>2026-03-27T14:07:35.647Z</time></trkpt><trkpt lat="44.57825" lon="9.4434162"><ele>1068.0</ele><time>2026-03-27T14:07:37.648Z</time></trkpt><trkpt lat="44.5782325" lon="9.4435061"><ele>1068.0</ele><time>2026-03-27T14:07:38.647Z</time></trkpt><trkpt lat="44.5781957" lon="9.4436055"><ele>1068.0</ele><time>2026-03-27T14:07:39.647Z</time></trkpt><trkpt lat="44.5781487" lon="9.443702"><ele>1068.0</ele><time>2026-03-27T14:07:40.649Z</time></trkpt><trkpt lat="44.578101" lon="9.4437943"><ele>1068.0</ele><time>2026-03-27T14:07:41.647Z</time></trkpt><trkpt lat="44.578053" lon="9.4438817"><ele>1068.0</ele><time>2026-03-27T14:07:42.648Z</time></trkpt><trkpt lat="44.5780079" lon="9.4439719"><ele>1068.0</ele><time>2026-03-27T14:07:43.647Z</time></trkpt><trkpt lat="44.5779724" lon="9.44408"><ele>1070.5</ele><time>2026-03-27T14:07:44.647Z</time></trkpt><trkpt lat="44.5779517" lon="9.4441974"><ele>1073.0</ele><time>2026-03-27T14:07:45.646Z</time></trkpt><trkpt lat="44.5779503" lon="9.4443173"><ele>1075.5</ele><time>2026-03-27T14:07:46.65Z</time></trkpt><trkpt lat="44.5779653" lon="9.4444209"><ele>1078.0</ele><time>2026-03-27T14:07:47.646Z</time></trkpt><trkpt lat="44.5779894" lon="9.4445083"><ele>1080.5</ele><time>2026-03-27T14:07:48.647Z</time></trkpt><trkpt lat="44.5780297" lon="9.4446749"><ele>1083.0</ele><time>2026-03-27T14:07:50.655Z</time></trkpt><trkpt lat="44.5780316" lon="9.4447668"><ele>1083.6666666666667</ele><time>2026-03-27T14:07:51.646Z</time></trkpt><trkpt lat="44.5780245" lon="9.4448634"><ele>1084.3333333333333</ele><time>2026-03-27T14:07:52.647Z</time></trkpt><trkpt lat="44.5780142" lon="9.4449512"><ele>1085.0</ele><time>2026-03-27T14:07:53.646Z</time></trkpt><trkpt lat="44.577957" lon="9.445091"><ele>1085.6666666666665</ele><time>2026-03-27T14:07:55.647Z</time></trkpt><trkpt lat="44.5778676" lon="9.4452134"><ele>1086.3333333333333</ele><time>2026-03-27T14:07:57.646Z</time></trkpt><trkpt lat="44.5778308" lon="9.4452877"><ele>1087.0</ele><time>2026-03-27T14:07:58.648Z</time></trkpt><trkpt lat="44.5778008" lon="9.4453728"><ele>1084.7142857142858</ele><time>2026-03-27T14:07:59.646Z</time></trkpt><trkpt lat="44.5777789" lon="9.4454657"><ele>1082.4285714285713</ele><time>2026-03-27T14:08:00.648Z</time></trkpt><trkpt lat="44.5777526" lon="9.4455607"><ele>1080.142857142857</ele><time>2026-03-27T14:08:01.647Z</time></trkpt><trkpt lat="44.5777266" lon="9.4456632"><ele>1077.857142857143</ele><time>2026-03-27T14:08:02.647Z</time></trkpt><trkpt lat="44.5777018" lon="9.445766"><ele>1075.5714285714284</ele><time>2026-03-27T14:08:03.647Z</time></trkpt><trkpt lat="44.5776831" lon="9.4458654"><ele>1073.2857142857142</ele><time>2026-03-27T14:08:04.647Z</time></trkpt><trkpt lat="44.5776712" lon="9.4459596"><ele>1071.0</ele><time>2026-03-27T14:08:05.648Z</time></trkpt><trkpt lat="44.5776707" lon="9.4460509"><ele>1071.0</ele><time>2026-03-27T14:08:06.646Z</time></trkpt><trkpt lat="44.5776808" lon="9.4461433"><ele>1071.0</ele><time>2026-03-27T14:08:07.647Z</time></trkpt><trkpt lat="44.5776967" lon="9.4462377"><ele>1071.0</ele><time>2026-03-27T14:08:08.647Z</time></trkpt><trkpt lat="44.5777134" lon="9.4463316"><ele>1071.0</ele><time>2026-03-27T14:08:09.649Z</time></trkpt><trkpt lat="44.5777353" lon="9.4464263"><ele>1071.0</ele><time>2026-03-27T14:08:10.646Z</time></trkpt><trkpt lat="44.577758" lon="9.4465211"><ele>1071.0</ele><time>2026-03-27T14:08:11.647Z</time></trkpt><trkpt lat="44.5777798" lon="9.4466147"><ele>1071.0</ele><time>2026-03-27T14:08:12.646Z</time></trkpt><trkpt lat="44.5778114" lon="9.4467055"><ele>1074.857142857143</ele><time>2026-03-27T14:08:13.647Z</time></trkpt><trkpt lat="44.5778579" lon="9.4467869"><ele>1078.7142857142858</ele><time>2026-03-27T14:08:14.647Z</time></trkpt><trkpt lat="44.5779139" lon="9.4468557"><ele>1082.5714285714284</ele><time>2026-03-27T14:08:15.648Z</time></trkpt><trkpt lat="44.5779701" lon="9.4469238"><ele>1086.4285714285716</ele><time>2026-03-27T14:08:16.647Z</time></trkpt><trkpt lat="44.5780131" lon="9.4469972"><ele>1090.2857142857142</ele><time>2026-03-27T14:08:17.647Z</time></trkpt><trkpt lat="44.578052" lon="9.4470721"><ele>1094.142857142857</ele><time>2026-03-27T14:08:18.648Z</time></trkpt><trkpt lat="44.578087" lon="9.447152"><ele>1098.0</ele><time>2026-03-27T14:08:19.646Z</time></trkpt><trkpt lat="44.5781168" lon="9.4472327"><ele>1098.0</ele><time>2026-03-27T14:08:20.652Z</time></trkpt><trkpt lat="44.5781865" lon="9.4473564"><ele>1098.0</ele><time>2026-03-27T14:08:22.647Z</time></trkpt><trkpt lat="44.5782743" lon="9.4474031"><ele>1098.0</ele><time>2026-03-27T14:08:24.646Z</time></trkpt><trkpt lat="44.5783495" lon="9.447372"><ele>1098.0</ele><time>2026-03-27T14:08:26.647Z</time></trkpt><trkpt lat="44.578372" lon="9.4472441"><ele>1098.0</ele><time>2026-03-27T14:08:28.647Z</time></trkpt><trkpt lat="44.5783318" lon="9.4470639"><ele>1098.0</ele><time>2026-03-27T14:08:30.648Z</time></trkpt><trkpt lat="44.5783078" lon="9.4469743"><ele>1098.0</ele><time>2026-03-27T14:08:31.648Z</time></trkpt><trkpt lat="44.5782835" lon="9.4468908"><ele>1098.0</ele><time>2026-03-27T14:08:32.646Z</time></trkpt><trkpt lat="44.5782445" lon="9.4467294"><ele>1098.0</ele><time>2026-03-27T14:08:34.647Z</time></trkpt><trkpt lat="44.5782335" lon="9.446601"><ele>1098.0</ele><time>2026-03-27T14:08:36.648Z</time></trkpt><trkpt lat="44.57823" lon="9.4464365"><ele>1098.0</ele><time>2026-03-27T14:08:49.696Z</time></trkpt><trkpt lat="44.5781629" lon="9.4464151"><ele>1098.0</ele><time>2026-03-27T14:08:52.711Z</time></trkpt><trkpt lat="44.5782249" lon="9.446372"><ele>1098.0</ele><time>2026-03-27T14:08:53.648Z</time></trkpt><trkpt lat="44.5782164" lon="9.4464715"><ele>1098.0</ele><time>2026-03-27T14:09:00.646Z</time></trkpt><trkpt lat="44.5782106" lon="9.4466021"><ele>1098.0</ele><time>2026-03-27T14:09:02.647Z</time></trkpt><trkpt lat="44.5782139" lon="9.4467463"><ele>1098.0</ele><time>2026-03-27T14:09:04.648Z</time></trkpt><trkpt lat="44.5782443" lon="9.4468987"><ele>1098.0</ele><time>2026-03-27T14:09:06.648Z</time></trkpt><trkpt lat="44.5782951" lon="9.447062"><ele>1098.0</ele><time>2026-03-27T14:09:08.647Z</time></trkpt><trkpt lat="44.5783165" lon="9.4471454"><ele>1098.0</ele><time>2026-03-27T14:09:09.649Z</time></trkpt><trkpt lat="44.5783318" lon="9.4472987"><ele>1098.0</ele><time>2026-03-27T14:09:11.648Z</time></trkpt><trkpt lat="44.5783016" lon="9.4473803"><ele>1098.0</ele><time>2026-03-27T14:09:13.647Z</time></trkpt><trkpt lat="44.5782314" lon="9.4474099"><ele>1098.0</ele><time>2026-03-27T14:09:15.646Z</time></trkpt><trkpt lat="44.5781459" lon="9.447427"><ele>1097.6</ele><time>2026-03-27T14:09:17.647Z</time></trkpt><trkpt lat="44.5780736" lon="9.4474224"><ele>1097.1999999999998</ele><time>2026-03-27T14:09:19.647Z</time></trkpt><trkpt lat="44.5779893" lon="9.447389"><ele>1096.8</ele><time>2026-03-27T14:09:21.646Z</time></trkpt><trkpt lat="44.5778883" lon="9.4473567"><ele>1096.3999999999999</ele><time>2026-03-27T14:09:23.647Z</time></trkpt><trkpt lat="44.5777867" lon="9.447345"><ele>1096.0</ele><time>2026-03-27T14:09:25.649Z</time></trkpt><trkpt lat="44.5776733" lon="9.4473333"><ele>1096.0</ele><time>2026-03-27T14:09:27.648Z</time></trkpt><trkpt lat="44.5775633" lon="9.4473033"><ele>1096.0</ele><time>2026-03-27T14:09:29.648Z</time></trkpt><trkpt lat="44.57746" lon="9.44726"><ele>1096.0</ele><time>2026-03-27T14:09:31.647Z</time></trkpt><trkpt lat="44.5773617" lon="9.44725"><ele>1096.0</ele><time>2026-03-27T14:09:33.648Z</time></trkpt><trkpt lat="44.57727" lon="9.4473083"><ele>1096.0</ele><time>2026-03-27T14:09:35.647Z</time></trkpt><trkpt lat="44.577215" lon="9.4474233"><ele>1096.0</ele><time>2026-03-27T14:09:37.649Z</time></trkpt><trkpt lat="44.577185" lon="9.447555"><ele>1096.0</ele><time>2026-03-27T14:09:39.648Z</time></trkpt><trkpt lat="44.57718" lon="9.4476833"><ele>1096.0</ele><time>2026-03-27T14:09:41.651Z</time></trkpt><trkpt lat="44.577205" lon="9.4477867"><ele>1096.0</ele><time>2026-03-27T14:09:43.647Z</time></trkpt><trkpt lat="44.5772933" lon="9.4477683"><ele>1096.0</ele><time>2026-03-27T14:09:46.647Z</time></trkpt><trkpt lat="44.57735" lon="9.447675"><ele>1096.0</ele><time>2026-03-27T14:09:48.647Z</time></trkpt><trkpt lat="44.5774067" lon="9.4475717"><ele>1096.0</ele><time>2026-03-27T14:09:50.647Z</time></trkpt><trkpt lat="44.5774667" lon="9.4475133"><ele>1096.0</ele><time>2026-03-27T14:09:52.647Z</time></trkpt><trkpt lat="44.5775483" lon="9.4475433"><ele>1096.0</ele><time>2026-03-27T14:09:54.648Z</time></trkpt><trkpt lat="44.5776317" lon="9.4475917"><ele>1096.0</ele><time>2026-03-27T14:09:56.647Z</time></trkpt><trkpt lat="44.5777117" lon="9.4476417"><ele>1096.0</ele><time>2026-03-27T14:09:58.647Z</time></trkpt><trkpt lat="44.5777967" lon="9.4476733"><ele>1096.0</ele><time>2026-03-27T14:10:00.648Z</time></trkpt><trkpt lat="44.5778883" lon="9.44771"><ele>1097.1666666666665</ele><time>2026-03-27T14:10:02.649Z</time></trkpt><trkpt lat="44.5779767" lon="9.447755"><ele>1098.3333333333333</ele><time>2026-03-27T14:10:04.648Z</time></trkpt><trkpt lat="44.5780417" lon="9.4478017"><ele>1099.5</ele><time>2026-03-27T14:10:06.648Z</time></trkpt><trkpt lat="44.5780967" lon="9.4478767"><ele>1100.6666666666667</ele><time>2026-03-27T14:10:34.65Z</time></trkpt><trkpt lat="44.578195" lon="9.448"><ele>1101.8333333333335</ele><time>2026-03-27T14:10:36.647Z</time></trkpt><trkpt lat="44.5782533" lon="9.44806"><ele>1103.0</ele><time>2026-03-27T14:10:37.648Z</time></trkpt><trkpt lat="44.5783717" lon="9.4480933"><ele>1103.0</ele><time>2026-03-27T14:10:39.646Z</time></trkpt><trkpt lat="44.5784267" lon="9.4480333"><ele>1103.0</ele><time>2026-03-27T14:10:40.647Z</time></trkpt><trkpt lat="44.57854" lon="9.4479217"><ele>1103.0</ele><time>2026-03-27T14:10:42.647Z</time></trkpt><trkpt lat="44.5786083" lon="9.4478433"><ele>1103.0</ele><time>2026-03-27T14:10:43.647Z</time></trkpt><trkpt lat="44.5786833" lon="9.4477783"><ele>1103.0</ele><time>2026-03-27T14:10:44.647Z</time></trkpt><trkpt lat="44.5787583" lon="9.4477117"><ele>1108.5</ele><time>2026-03-27T14:10:45.648Z</time></trkpt><trkpt lat="44.5788333" lon="9.4476717"><ele>1114.0</ele><time>2026-03-27T14:10:46.647Z</time></trkpt><trkpt lat="44.578915" lon="9.4476417"><ele>1119.5</ele><time>2026-03-27T14:10:47.647Z</time></trkpt><trkpt lat="44.5789933" lon="9.447605"><ele>1125.0</ele><time>2026-03-27T14:10:48.647Z</time></trkpt><trkpt lat="44.5790583" lon="9.4475667"><ele>1130.5</ele><time>2026-03-27T14:10:49.647Z</time></trkpt><trkpt lat="44.5791133" lon="9.447505"><ele>1136.0</ele><time>2026-03-27T14:10:50.647Z</time></trkpt><trkpt lat="44.57911" lon="9.447395"><ele>1136.0</ele><time>2026-03-27T14:10:51.648Z</time></trkpt><trkpt lat="44.579105" lon="9.4472967"><ele>1136.0</ele><time>2026-03-27T14:10:52.647Z</time></trkpt><trkpt lat="44.5790833" lon="9.4472033"><ele>1136.0</ele><time>2026-03-27T14:10:53.648Z</time></trkpt><trkpt lat="44.579045" lon="9.447095"><ele>1136.0</ele><time>2026-03-27T14:10:54.647Z</time></trkpt><trkpt lat="44.579005" lon="9.44698"><ele>1136.0</ele><time>2026-03-27T14:10:55.647Z</time></trkpt><trkpt lat="44.57897" lon="9.4468717"><ele>1136.0</ele><time>2026-03-27T14:10:56.649Z</time></trkpt><trkpt lat="44.578935" lon="9.4467617"><ele>1133.8</ele><time>2026-03-27T14:10:57.646Z</time></trkpt><trkpt lat="44.5789033" lon="9.4466517"><ele>1131.6</ele><time>2026-03-27T14:10:58.646Z</time></trkpt><trkpt lat="44.57888" lon="9.4465583"><ele>1129.4</ele><time>2026-03-27T14:10:59.647Z</time></trkpt><trkpt lat="44.578855" lon="9.4464017"><ele>1127.2</ele><time>2026-03-27T14:11:01.649Z</time></trkpt><trkpt lat="44.57892" lon="9.4462867"><ele>1125.0</ele><time>2026-03-27T14:11:03.646Z</time></trkpt><trkpt lat="44.5790067" lon="9.446285"><ele>1123.1666666666667</ele><time>2026-03-27T14:11:04.647Z</time></trkpt><trkpt lat="44.5791017" lon="9.4462767"><ele>1121.3333333333333</ele><time>2026-03-27T14:11:05.646Z</time></trkpt><trkpt lat="44.5791933" lon="9.4462667"><ele>1119.5</ele><time>2026-03-27T14:11:06.647Z</time></trkpt><trkpt lat="44.579275" lon="9.4462667"><ele>1117.6666666666665</ele><time>2026-03-27T14:11:07.648Z</time></trkpt><trkpt lat="44.579355" lon="9.4462467"><ele>1115.8333333333333</ele><time>2026-03-27T14:11:08.648Z</time></trkpt><trkpt lat="44.5794317" lon="9.4462033"><ele>1114.0</ele><time>2026-03-27T14:11:09.646Z</time></trkpt><trkpt lat="44.5795083" lon="9.44613"><ele>1118.6000000000001</ele><time>2026-03-27T14:11:10.646Z</time></trkpt><trkpt lat="44.57959" lon="9.446035"><ele>1123.2</ele><time>2026-03-27T14:11:11.647Z</time></trkpt><trkpt lat="44.5796717" lon="9.4459333"><ele>1127.8000000000002</ele><time>2026-03-27T14:11:12.648Z</time></trkpt><trkpt lat="44.5797517" lon="9.4458567"><ele>1132.4</ele><time>2026-03-27T14:11:13.647Z</time></trkpt><trkpt lat="44.57983" lon="9.4458067"><ele>1137.0</ele><time>2026-03-27T14:11:14.647Z</time></trkpt><trkpt lat="44.57992" lon="9.44578"><ele>1137.0</ele><time>2026-03-27T14:11:15.651Z</time></trkpt><trkpt lat="44.5800033" lon="9.4457683"><ele>1137.0</ele><time>2026-03-27T14:11:16.646Z</time></trkpt><trkpt lat="44.58009" lon="9.4457717"><ele>1137.0</ele><time>2026-03-27T14:11:17.648Z</time></trkpt><trkpt lat="44.5801733" lon="9.4457733"><ele>1137.0</ele><time>2026-03-27T14:11:18.647Z</time></trkpt><trkpt lat="44.5802483" lon="9.44574"><ele>1137.0</ele><time>2026-03-27T14:11:19.649Z</time></trkpt><trkpt lat="44.58031" lon="9.4456917"><ele>1137.0</ele><time>2026-03-27T14:11:20.648Z</time></trkpt><trkpt lat="44.58033" lon="9.4456"><ele>1137.0</ele><time>2026-03-27T14:11:21.647Z</time></trkpt><trkpt lat="44.5803467" lon="9.4454933"><ele>1137.0</ele><time>2026-03-27T14:11:22.647Z</time></trkpt><trkpt lat="44.5803683" lon="9.4453717"><ele>1137.0</ele><time>2026-03-27T14:11:23.648Z</time></trkpt><trkpt lat="44.5803833" lon="9.4452467"><ele>1137.0</ele><time>2026-03-27T14:11:24.646Z</time></trkpt><trkpt lat="44.5803833" lon="9.4451283"><ele>1137.0</ele><time>2026-03-27T14:11:25.648Z</time></trkpt><trkpt lat="44.5803783" lon="9.4450217"><ele>1137.0</ele><time>2026-03-27T14:11:26.649Z</time></trkpt><trkpt lat="44.580365" lon="9.4449283"><ele>1135.9999999999998</ele><time>2026-03-27T14:11:27.647Z</time></trkpt><trkpt lat="44.5803367" lon="9.4448433"><ele>1135.0</ele><time>2026-03-27T14:11:28.648Z</time></trkpt><trkpt lat="44.5803183" lon="9.4447583"><ele>1134.0</ele><time>2026-03-27T14:11:29.648Z</time></trkpt><trkpt lat="44.5803183" lon="9.4446633"><ele>1133.0</ele><time>2026-03-27T14:11:30.646Z</time></trkpt><trkpt lat="44.5803333" lon="9.4445683"><ele>1132.0</ele><time>2026-03-27T14:11:31.649Z</time></trkpt><trkpt lat="44.5803483" lon="9.4444817"><ele>1130.9999999999998</ele><time>2026-03-27T14:11:32.648Z</time></trkpt><trkpt lat="44.580325" lon="9.4443483"><ele>1130.0</ele><time>2026-03-27T14:11:34.649Z</time></trkpt><trkpt lat="44.5801933" lon="9.4443217"><ele>1133.2</ele><time>2026-03-27T14:11:36.649Z</time></trkpt><trkpt lat="44.5801233" lon="9.4443167"><ele>1136.4</ele><time>2026-03-27T14:11:37.647Z</time></trkpt><trkpt lat="44.5800433" lon="9.4442717"><ele>1139.6</ele><time>2026-03-27T14:11:38.649Z</time></trkpt><trkpt lat="44.5799683" lon="9.444195"><ele>1142.8</ele><time>2026-03-27T14:11:39.648Z</time></trkpt><trkpt lat="44.579905" lon="9.4440767"><ele>1146.0</ele><time>2026-03-27T14:11:40.648Z</time></trkpt><trkpt lat="44.5798533" lon="9.4439417"><ele>1148.6</ele><time>2026-03-27T14:11:41.649Z</time></trkpt><trkpt lat="44.5798083" lon="9.443795"><ele>1151.1999999999998</ele><time>2026-03-27T14:11:42.648Z</time></trkpt><trkpt lat="44.5797733" lon="9.443645"><ele>1153.8000000000002</ele><time>2026-03-27T14:11:43.649Z</time></trkpt><trkpt lat="44.5797733" lon="9.4435183"><ele>1156.4</ele><time>2026-03-27T14:11:44.648Z</time></trkpt><trkpt lat="44.579805" lon="9.4433867"><ele>1159.0</ele><time>2026-03-27T14:11:45.648Z</time></trkpt><trkpt lat="44.5798517" lon="9.4432633"><ele>1159.0</ele><time>2026-03-27T14:11:46.648Z</time></trkpt><trkpt lat="44.5798967" lon="9.44315"><ele>1159.0</ele><time>2026-03-27T14:11:47.647Z</time></trkpt><trkpt lat="44.5799417" lon="9.4430617"><ele>1159.0</ele><time>2026-03-27T14:11:48.648Z</time></trkpt><trkpt lat="44.5799917" lon="9.443"><ele>1159.0</ele><time>2026-03-27T14:11:49.649Z</time></trkpt><trkpt lat="44.5800833" lon="9.4430117"><ele>1159.0</ele><time>2026-03-27T14:11:51.648Z</time></trkpt><trkpt lat="44.5801017" lon="9.4431033"><ele>1159.0</ele><time>2026-03-27T14:11:52.648Z</time></trkpt><trkpt lat="44.5801133" lon="9.443285"><ele>1159.0</ele><time>2026-03-27T14:11:54.646Z</time></trkpt><trkpt lat="44.58013" lon="9.4433833"><ele>1159.0</ele><time>2026-03-27T14:11:55.649Z</time></trkpt><trkpt lat="44.580165" lon="9.44347"><ele>1159.0</ele><time>2026-03-27T14:11:56.649Z</time></trkpt><trkpt lat="44.5802183" lon="9.44354"><ele>1159.0</ele><time>2026-03-27T14:11:57.647Z</time></trkpt><trkpt lat="44.580285" lon="9.44359"><ele>1159.0</ele><time>2026-03-27T14:11:58.647Z</time></trkpt><trkpt lat="44.5803717" lon="9.443615"><ele>1159.0</ele><time>2026-03-27T14:11:59.647Z</time></trkpt><trkpt lat="44.5804817" lon="9.4436067"><ele>1162.75</ele><time>2026-03-27T14:12:00.648Z</time></trkpt><trkpt lat="44.58061" lon="9.4435867"><ele>1166.5</ele><time>2026-03-27T14:12:01.648Z</time></trkpt><trkpt lat="44.5807467" lon="9.4435583"><ele>1170.25</ele><time>2026-03-27T14:12:02.649Z</time></trkpt><trkpt lat="44.5808767" lon="9.44352"><ele>1174.0</ele><time>2026-03-27T14:12:03.648Z</time></trkpt><trkpt lat="44.5809883" lon="9.4434683"><ele>1174.0</ele><time>2026-03-27T14:12:04.647Z</time></trkpt><trkpt lat="44.5810767" lon="9.4433933"><ele>1174.0</ele><time>2026-03-27T14:12:05.648Z</time></trkpt><trkpt lat="44.5811467" lon="9.4433017"><ele>1174.0</ele><time>2026-03-27T14:12:06.648Z</time></trkpt><trkpt lat="44.5812133" lon="9.4431917"><ele>1174.0</ele><time>2026-03-27T14:12:07.651Z</time></trkpt><trkpt lat="44.581275" lon="9.4430633"><ele>1174.0</ele><time>2026-03-27T14:12:08.647Z</time></trkpt><trkpt lat="44.5813317" lon="9.4429167"><ele>1177.5</ele><time>2026-03-27T14:12:09.65Z</time></trkpt><trkpt lat="44.5813817" lon="9.4427567"><ele>1181.0</ele><time>2026-03-27T14:12:10.647Z</time></trkpt><trkpt lat="44.5814283" lon="9.4425883"><ele>1184.5</ele><time>2026-03-27T14:12:11.647Z</time></trkpt><trkpt lat="44.5814783" lon="9.4424183"><ele>1188.0</ele><time>2026-03-27T14:12:12.646Z</time></trkpt><trkpt lat="44.58153" lon="9.44225"><ele>1188.2</ele><time>2026-03-27T14:12:13.646Z</time></trkpt><trkpt lat="44.58158" lon="9.4420933"><ele>1188.4</ele><time>2026-03-27T14:12:14.651Z</time></trkpt><trkpt lat="44.5816267" lon="9.4419617"><ele>1188.6000000000001</ele><time>2026-03-27T14:12:15.648Z</time></trkpt><trkpt lat="44.5816683" lon="9.441855"><ele>1188.8</ele><time>2026-03-27T14:12:16.647Z</time></trkpt><trkpt lat="44.5817117" lon="9.4417767"><ele>1189.0</ele><time>2026-03-27T14:12:17.649Z</time></trkpt><trkpt lat="44.5817833" lon="9.4417217"><ele>1189.0</ele><time>2026-03-27T14:12:19.648Z</time></trkpt><trkpt lat="44.5818" lon="9.4418533"><ele>1189.0</ele><time>2026-03-27T14:12:21.65Z</time></trkpt><trkpt lat="44.581805" lon="9.4419517"><ele>1189.0</ele><time>2026-03-27T14:12:22.647Z</time></trkpt><trkpt lat="44.5818217" lon="9.4420483"><ele>1189.0</ele><time>2026-03-27T14:12:23.652Z</time></trkpt><trkpt lat="44.581855" lon="9.4421417"><ele>1189.0</ele><time>2026-03-27T14:12:24.649Z</time></trkpt><trkpt lat="44.5819167" lon="9.44221"><ele>1189.0</ele><time>2026-03-27T14:12:25.649Z</time></trkpt><trkpt lat="44.5819917" lon="9.4422583"><ele>1193.4</ele><time>2026-03-27T14:12:26.648Z</time></trkpt><trkpt lat="44.582085" lon="9.4422717"><ele>1197.8000000000002</ele><time>2026-03-27T14:12:27.649Z</time></trkpt><trkpt lat="44.582195" lon="9.442235"><ele>1202.1999999999998</ele><time>2026-03-27T14:12:28.65Z</time></trkpt><trkpt lat="44.5823067" lon="9.442195"><ele>1206.6</ele><time>2026-03-27T14:12:29.648Z</time></trkpt><trkpt lat="44.582415" lon="9.4421683"><ele>1211.0</ele><time>2026-03-27T14:12:30.648Z</time></trkpt><trkpt lat="44.5825133" lon="9.442175"><ele>1211.0</ele><time>2026-03-27T14:12:31.648Z</time></trkpt><trkpt lat="44.582595" lon="9.4422233"><ele>1211.0</ele><time>2026-03-27T14:12:32.647Z</time></trkpt><trkpt lat="44.5826583" lon="9.4422933"><ele>1211.0</ele><time>2026-03-27T14:12:33.648Z</time></trkpt><trkpt lat="44.5826717" lon="9.4424067"><ele>1211.0</ele><time>2026-03-27T14:12:34.649Z</time></trkpt><trkpt lat="44.5826683" lon="9.44253"><ele>1211.0</ele><time>2026-03-27T14:12:35.648Z</time></trkpt><trkpt lat="44.582655" lon="9.442645"><ele>1211.0</ele><time>2026-03-27T14:12:36.648Z</time></trkpt><trkpt lat="44.582615" lon="9.4427733"><ele>1211.0</ele><time>2026-03-27T14:12:37.647Z</time></trkpt><trkpt lat="44.58255" lon="9.4429233"><ele>1211.0</ele><time>2026-03-27T14:12:38.655Z</time></trkpt><trkpt lat="44.582495" lon="9.4430667"><ele>1211.0</ele><time>2026-03-27T14:12:39.649Z</time></trkpt><trkpt lat="44.58246" lon="9.4432033"><ele>1211.0</ele><time>2026-03-27T14:12:40.647Z</time></trkpt><trkpt lat="44.58244" lon="9.4433333"><ele>1211.0</ele><time>2026-03-27T14:12:41.648Z</time></trkpt><trkpt lat="44.5824267" lon="9.44346"><ele>1211.8</ele><time>2026-03-27T14:12:42.647Z</time></trkpt><trkpt lat="44.58244" lon="9.4436"><ele>1212.6</ele><time>2026-03-27T14:12:43.649Z</time></trkpt><trkpt lat="44.5824583" lon="9.44375"><ele>1213.4</ele><time>2026-03-27T14:12:44.647Z</time></trkpt><trkpt lat="44.582465" lon="9.44391"><ele>1214.2</ele><time>2026-03-27T14:12:45.646Z</time></trkpt><trkpt lat="44.582455" lon="9.444065"><ele>1215.0</ele><time>2026-03-27T14:12:46.647Z</time></trkpt><trkpt lat="44.5824417" lon="9.4442117"><ele>1216.5</ele><time>2026-03-27T14:12:47.648Z</time></trkpt><trkpt lat="44.58244" lon="9.4443333"><ele>1218.0</ele><time>2026-03-27T14:12:48.648Z</time></trkpt><trkpt lat="44.58245" lon="9.4444383"><ele>1219.5</ele><time>2026-03-27T14:12:49.648Z</time></trkpt><trkpt lat="44.5825533" lon="9.4445033"><ele>1221.0</ele><time>2026-03-27T14:12:51.649Z</time></trkpt><trkpt lat="44.5826167" lon="9.44447"><ele>1222.5</ele><time>2026-03-27T14:12:52.649Z</time></trkpt><trkpt lat="44.5826817" lon="9.4444017"><ele>1224.0</ele><time>2026-03-27T14:12:53.647Z</time></trkpt><trkpt lat="44.5827467" lon="9.444285"><ele>1224.0</ele><time>2026-03-27T14:12:54.651Z</time></trkpt><trkpt lat="44.582785" lon="9.4441067"><ele>1224.0</ele><time>2026-03-27T14:12:55.648Z</time></trkpt><trkpt lat="44.5828233" lon="9.443945"><ele>1224.0</ele><time>2026-03-27T14:12:56.647Z</time></trkpt><trkpt lat="44.5828633" lon="9.44378"><ele>1224.0</ele><time>2026-03-27T14:12:57.647Z</time></trkpt><trkpt lat="44.5828983" lon="9.4436133"><ele>1233.0</ele><time>2026-03-27T14:12:58.647Z</time></trkpt><trkpt lat="44.5829317" lon="9.4434583"><ele>1242.0</ele><time>2026-03-27T14:12:59.648Z</time></trkpt><trkpt lat="44.5829667" lon="9.4433067"><ele>1251.0</ele><time>2026-03-27T14:13:00.648Z</time></trkpt><trkpt lat="44.5830183" lon="9.4431617"><ele>1260.0</ele><time>2026-03-27T14:13:01.647Z</time></trkpt><trkpt lat="44.5830883" lon="9.4430417"><ele>1258.4</ele><time>2026-03-27T14:13:02.647Z</time></trkpt><trkpt lat="44.5831667" lon="9.4429467"><ele>1256.8</ele><time>2026-03-27T14:13:03.648Z</time></trkpt><trkpt lat="44.5832433" lon="9.4428533"><ele>1255.2</ele><time>2026-03-27T14:13:04.647Z</time></trkpt><trkpt lat="44.5833017" lon="9.4427533"><ele>1253.6</ele><time>2026-03-27T14:13:05.647Z</time></trkpt><trkpt lat="44.5833417" lon="9.4426483"><ele>1252.0</ele><time>2026-03-27T14:13:06.648Z</time></trkpt><trkpt lat="44.5833667" lon="9.44253"><ele>1252.0</ele><time>2026-03-27T14:13:07.648Z</time></trkpt><trkpt lat="44.5833783" lon="9.44241"><ele>1252.0</ele><time>2026-03-27T14:13:08.648Z</time></trkpt><trkpt lat="44.5834033" lon="9.4422683"><ele>1252.0</ele><time>2026-03-27T14:13:09.648Z</time></trkpt><trkpt lat="44.58345" lon="9.4421217"><ele>1252.0</ele><time>2026-03-27T14:13:10.652Z</time></trkpt><trkpt lat="44.5834983" lon="9.4419783"><ele>1252.0</ele><time>2026-03-27T14:13:11.649Z</time></trkpt><trkpt lat="44.5835417" lon="9.4418267"><ele>1251.4</ele><time>2026-03-27T14:13:12.646Z</time></trkpt><trkpt lat="44.5835833" lon="9.4416717"><ele>1250.8000000000002</ele><time>2026-03-27T14:13:13.647Z</time></trkpt><trkpt lat="44.5836317" lon="9.4415233"><ele>1250.2</ele><time>2026-03-27T14:13:14.648Z</time></trkpt><trkpt lat="44.5836867" lon="9.4413817"><ele>1249.6000000000001</ele><time>2026-03-27T14:13:15.647Z</time></trkpt><trkpt lat="44.5837233" lon="9.4412567"><ele>1249.0</ele><time>2026-03-27T14:13:16.647Z</time></trkpt><trkpt lat="44.5837267" lon="9.4411383"><ele>1249.1666666666665</ele><time>2026-03-27T14:13:17.648Z</time></trkpt><trkpt lat="44.5837183" lon="9.4410267"><ele>1249.3333333333333</ele><time>2026-03-27T14:13:18.648Z</time></trkpt><trkpt lat="44.583685" lon="9.4409217"><ele>1249.5</ele><time>2026-03-27T14:13:19.647Z</time></trkpt><trkpt lat="44.5836417" lon="9.440825"><ele>1249.6666666666667</ele><time>2026-03-27T14:13:20.648Z</time></trkpt><trkpt lat="44.5835767" lon="9.4407383"><ele>1249.8333333333335</ele><time>2026-03-27T14:13:21.647Z</time></trkpt><trkpt lat="44.5835033" lon="9.4406617"><ele>1250.0</ele><time>2026-03-27T14:13:22.648Z</time></trkpt><trkpt lat="44.583455" lon="9.4405717"><ele>1250.0</ele><time>2026-03-27T14:13:23.647Z</time></trkpt><trkpt lat="44.5834433" lon="9.4404783"><ele>1250.0</ele><time>2026-03-27T14:13:24.646Z</time></trkpt><trkpt lat="44.5834617" lon="9.4403817"><ele>1250.0</ele><time>2026-03-27T14:13:25.646Z</time></trkpt><trkpt lat="44.5835067" lon="9.4402633"><ele>1250.0</ele><time>2026-03-27T14:13:26.647Z</time></trkpt><trkpt lat="44.5835617" lon="9.4401267"><ele>1250.0</ele><time>2026-03-27T14:13:27.646Z</time></trkpt><trkpt lat="44.5836233" lon="9.439975"><ele>1250.75</ele><time>2026-03-27T14:13:28.646Z</time></trkpt><trkpt lat="44.5836783" lon="9.43982"><ele>1251.5</ele><time>2026-03-27T14:13:29.646Z</time></trkpt><trkpt lat="44.5837317" lon="9.4396667"><ele>1252.25</ele><time>2026-03-27T14:13:30.646Z</time></trkpt><trkpt lat="44.58378" lon="9.4395083"><ele>1253.0</ele><time>2026-03-27T14:13:31.649Z</time></trkpt><trkpt lat="44.5838283" lon="9.4393483"><ele>1258.5</ele><time>2026-03-27T14:13:32.647Z</time></trkpt><trkpt lat="44.5838733" lon="9.4391817"><ele>1264.0</ele><time>2026-03-27T14:13:33.647Z</time></trkpt><trkpt lat="44.5839181" lon="9.439011"><ele>1269.5</ele><time>2026-03-27T14:13:34.648Z</time></trkpt><trkpt lat="44.5839649" lon="9.4388393"><ele>1275.0</ele><time>2026-03-27T14:13:35.647Z</time></trkpt><trkpt lat="44.584008" lon="9.4386871"><ele>1275.0</ele><time>2026-03-27T14:13:36.646Z</time></trkpt><trkpt lat="44.5840449" lon="9.4385621"><ele>1275.0</ele><time>2026-03-27T14:13:37.647Z</time></trkpt><trkpt lat="44.5840796" lon="9.4384499"><ele>1275.0</ele><time>2026-03-27T14:13:38.651Z</time></trkpt><trkpt lat="44.5841118" lon="9.4383433"><ele>1275.0</ele><time>2026-03-27T14:13:39.648Z</time></trkpt><trkpt lat="44.5841438" lon="9.4382498"><ele>1275.0</ele><time>2026-03-27T14:13:40.646Z</time></trkpt><trkpt lat="44.5841813" lon="9.4381773"><ele>1275.0</ele><time>2026-03-27T14:13:41.647Z</time></trkpt><trkpt lat="44.5842618" lon="9.4381545"><ele>1275.0</ele><time>2026-03-27T14:13:43.647Z</time></trkpt><trkpt lat="44.5842904" lon="9.4382851"><ele>1275.0</ele><time>2026-03-27T14:13:45.647Z</time></trkpt><trkpt lat="44.5842847" lon="9.4383833"><ele>1275.0</ele><time>2026-03-27T14:13:46.646Z</time></trkpt><trkpt lat="44.5842849" lon="9.4384892"><ele>1275.0</ele><time>2026-03-27T14:13:47.646Z</time></trkpt><trkpt lat="44.584286" lon="9.4386064"><ele>1275.0</ele><time>2026-03-27T14:13:48.646Z</time></trkpt><trkpt lat="44.5842777" lon="9.4387353"><ele>1275.0</ele><time>2026-03-27T14:13:49.647Z</time></trkpt><trkpt lat="44.5842702" lon="9.4388707"><ele>1276.0</ele><time>2026-03-27T14:13:50.647Z</time></trkpt><trkpt lat="44.584265" lon="9.4390133"><ele>1277.0</ele><time>2026-03-27T14:13:51.646Z</time></trkpt><trkpt lat="44.5842609" lon="9.4391625"><ele>1278.0</ele><time>2026-03-27T14:13:52.646Z</time></trkpt><trkpt lat="44.5842559" lon="9.4393127"><ele>1279.0</ele><time>2026-03-27T14:13:53.65Z</time></trkpt><trkpt lat="44.584254" lon="9.4394589"><ele>1280.0</ele><time>2026-03-27T14:13:54.647Z</time></trkpt><trkpt lat="44.5842508" lon="9.4395978"><ele>1280.3333333333335</ele><time>2026-03-27T14:13:55.647Z</time></trkpt><trkpt lat="44.5842486" lon="9.4397354"><ele>1280.6666666666667</ele><time>2026-03-27T14:13:56.647Z</time></trkpt><trkpt lat="44.5842473" lon="9.4398662"><ele>1281.0</ele><time>2026-03-27T14:13:57.647Z</time></trkpt><trkpt lat="44.5842489" lon="9.4399842"><ele>1281.3333333333333</ele><time>2026-03-27T14:13:58.649Z</time></trkpt><trkpt lat="44.5842661" lon="9.4400888"><ele>1281.6666666666665</ele><time>2026-03-27T14:13:59.647Z</time></trkpt><trkpt lat="44.5842991" lon="9.4401688"><ele>1282.0</ele><time>2026-03-27T14:14:00.648Z</time></trkpt><trkpt lat="44.5843483" lon="9.4402332"><ele>1282.0</ele><time>2026-03-27T14:14:01.648Z</time></trkpt><trkpt lat="44.5844249" lon="9.4402714"><ele>1282.0</ele><time>2026-03-27T14:14:02.647Z</time></trkpt><trkpt lat="44.5845192" lon="9.4403094"><ele>1282.0</ele><time>2026-03-27T14:14:03.646Z</time></trkpt><trkpt lat="44.5846092" lon="9.440374"><ele>1282.0</ele><time>2026-03-27T14:14:04.646Z</time></trkpt><trkpt lat="44.5846733" lon="9.44049"><ele>1282.0</ele><time>2026-03-27T14:14:05.647Z</time></trkpt><trkpt lat="44.5847017" lon="9.4406267"><ele>1289.1999999999998</ele><time>2026-03-27T14:14:06.646Z</time></trkpt><trkpt lat="44.5846967" lon="9.4407783"><ele>1296.4</ele><time>2026-03-27T14:14:07.648Z</time></trkpt><trkpt lat="44.58468" lon="9.4409317"><ele>1303.6</ele><time>2026-03-27T14:14:08.647Z</time></trkpt><trkpt lat="44.5846783" lon="9.4410883"><ele>1310.8000000000002</ele><time>2026-03-27T14:14:09.647Z</time></trkpt><trkpt lat="44.5846883" lon="9.4412467"><ele>1318.0</ele><time>2026-03-27T14:14:10.647Z</time></trkpt><trkpt lat="44.58471" lon="9.4414033"><ele>1319.5</ele><time>2026-03-27T14:14:11.649Z</time></trkpt><trkpt lat="44.58474" lon="9.4415633"><ele>1321.0</ele><time>2026-03-27T14:14:12.649Z</time></trkpt><trkpt lat="44.5847533" lon="9.4417233"><ele>1322.5</ele><time>2026-03-27T14:14:13.647Z</time></trkpt><trkpt lat="44.5847433" lon="9.4418883"><ele>1324.0</ele><time>2026-03-27T14:14:14.647Z</time></trkpt><trkpt lat="44.5847133" lon="9.44204"><ele>1326.75</ele><time>2026-03-27T14:14:15.647Z</time></trkpt><trkpt lat="44.5846917" lon="9.4421917"><ele>1329.5</ele><time>2026-03-27T14:14:16.648Z</time></trkpt><trkpt lat="44.58467" lon="9.4423483"><ele>1332.25</ele><time>2026-03-27T14:14:17.647Z</time></trkpt><trkpt lat="44.58465" lon="9.4425167"><ele>1335.0</ele><time>2026-03-27T14:14:18.648Z</time></trkpt><trkpt lat="44.5846333" lon="9.4426933"><ele>1335.0</ele><time>2026-03-27T14:14:19.649Z</time></trkpt><trkpt lat="44.5846217" lon="9.4428767"><ele>1335.0</ele><time>2026-03-27T14:14:20.647Z</time></trkpt><trkpt lat="44.5846183" lon="9.4430617"><ele>1335.0</ele><time>2026-03-27T14:14:21.647Z</time></trkpt><trkpt lat="44.5846067" lon="9.443245"><ele>1335.0</ele><time>2026-03-27T14:14:22.647Z</time></trkpt><trkpt lat="44.58458" lon="9.4434317"><ele>1336.0</ele><time>2026-03-27T14:14:23.651Z</time></trkpt><trkpt lat="44.58454" lon="9.4436217"><ele>1337.0</ele><time>2026-03-27T14:14:24.648Z</time></trkpt><trkpt lat="44.5844983" lon="9.4438167"><ele>1338.0</ele><time>2026-03-27T14:14:25.646Z</time></trkpt><trkpt lat="44.5844583" lon="9.4440183"><ele>1339.0</ele><time>2026-03-27T14:14:26.648Z</time></trkpt><trkpt lat="44.5844367" lon="9.444215"><ele>1335.0</ele><time>2026-03-27T14:14:27.647Z</time></trkpt><trkpt lat="44.5844233" lon="9.4444117"><ele>1331.0</ele><time>2026-03-27T14:14:28.648Z</time></trkpt><trkpt lat="44.5844117" lon="9.4446067"><ele>1327.0</ele><time>2026-03-27T14:14:29.649Z</time></trkpt><trkpt lat="44.5843933" lon="9.4448017"><ele>1323.0</ele><time>2026-03-27T14:14:30.648Z</time></trkpt><trkpt lat="44.584375" lon="9.444995"><ele>1323.0</ele><time>2026-03-27T14:14:31.65Z</time></trkpt><trkpt lat="44.5843567" lon="9.4451883"><ele>1323.0</ele><time>2026-03-27T14:14:32.65Z</time></trkpt><trkpt lat="44.5843333" lon="9.445375"><ele>1323.0</ele><time>2026-03-27T14:14:33.648Z</time></trkpt><trkpt lat="44.5843117" lon="9.4455533"><ele>1323.0</ele><time>2026-03-27T14:14:34.648Z</time></trkpt><trkpt lat="44.584285" lon="9.44572"><ele>1326.0</ele><time>2026-03-27T14:14:35.648Z</time></trkpt><trkpt lat="44.5842617" lon="9.4458817"><ele>1329.0</ele><time>2026-03-27T14:14:36.647Z</time></trkpt><trkpt lat="44.58424" lon="9.4460333"><ele>1332.0</ele><time>2026-03-27T14:14:37.647Z</time></trkpt><trkpt lat="44.584215" lon="9.4461833"><ele>1335.0</ele><time>2026-03-27T14:14:38.648Z</time></trkpt><trkpt lat="44.5841883" lon="9.4463317"><ele>1338.0</ele><time>2026-03-27T14:14:39.647Z</time></trkpt><trkpt lat="44.5841583" lon="9.4464817"><ele>1341.25</ele><time>2026-03-27T14:14:40.647Z</time></trkpt><trkpt lat="44.5841217" lon="9.4466367"><ele>1344.5</ele><time>2026-03-27T14:14:41.648Z</time></trkpt><trkpt lat="44.5840867" lon="9.4467883"><ele>1347.75</ele><time>2026-03-27T14:14:42.648Z</time></trkpt><trkpt lat="44.5840533" lon="9.4469417"><ele>1351.0</ele><time>2026-03-27T14:14:43.647Z</time></trkpt><trkpt lat="44.5840283" lon="9.4470933"><ele>1353.5</ele><time>2026-03-27T14:14:44.647Z</time></trkpt><trkpt lat="44.5840083" lon="9.447245"><ele>1356.0</ele><time>2026-03-27T14:14:45.647Z</time></trkpt><trkpt lat="44.583995" lon="9.447405"><ele>1358.5</ele><time>2026-03-27T14:14:46.647Z</time></trkpt><trkpt lat="44.5839867" lon="9.447565"><ele>1361.0</ele><time>2026-03-27T14:14:47.647Z</time></trkpt><trkpt lat="44.5839817" lon="9.4477267"><ele>1361.0</ele><time>2026-03-27T14:14:48.646Z</time></trkpt><trkpt lat="44.5839833" lon="9.44789"><ele>1361.0</ele><time>2026-03-27T14:14:49.652Z</time></trkpt><trkpt lat="44.583985" lon="9.4480533"><ele>1361.0</ele><time>2026-03-27T14:14:50.648Z</time></trkpt><trkpt lat="44.5839883" lon="9.4482133"><ele>1361.0</ele><time>2026-03-27T14:14:51.647Z</time></trkpt><trkpt lat="44.58399" lon="9.4483767"><ele>1363.5</ele><time>2026-03-27T14:14:52.647Z</time></trkpt><trkpt lat="44.5839883" lon="9.4485417"><ele>1366.0</ele><time>2026-03-27T14:14:53.646Z</time></trkpt><trkpt lat="44.58397" lon="9.4487033"><ele>1368.5</ele><time>2026-03-27T14:14:54.646Z</time></trkpt><trkpt lat="44.58394" lon="9.4488633"><ele>1371.0</ele><time>2026-03-27T14:14:55.648Z</time></trkpt><trkpt lat="44.5839067" lon="9.4490283"><ele>1373.5</ele><time>2026-03-27T14:14:56.65Z</time></trkpt><trkpt lat="44.5838783" lon="9.4491917"><ele>1376.0</ele><time>2026-03-27T14:14:57.647Z</time></trkpt><trkpt lat="44.5838567" lon="9.4493567"><ele>1378.5</ele><time>2026-03-27T14:14:58.647Z</time></trkpt><trkpt lat="44.5838367" lon="9.44952"><ele>1381.0</ele><time>2026-03-27T14:14:59.647Z</time></trkpt><trkpt lat="44.5838083" lon="9.4496783"><ele>1384.0</ele><time>2026-03-27T14:15:00.65Z</time></trkpt><trkpt lat="44.58377" lon="9.4498217"><ele>1387.0</ele><time>2026-03-27T14:15:01.649Z</time></trkpt><trkpt lat="44.58372" lon="9.4499567"><ele>1390.0</ele><time>2026-03-27T14:15:02.649Z</time></trkpt><trkpt lat="44.5836567" lon="9.4500883"><ele>1393.0</ele><time>2026-03-27T14:15:03.65Z</time></trkpt><trkpt lat="44.5835883" lon="9.4502133"><ele>1396.0</ele><time>2026-03-27T14:15:04.649Z</time></trkpt><trkpt lat="44.58352" lon="9.4503367"><ele>1392.6</ele><time>2026-03-27T14:15:05.646Z</time></trkpt><trkpt lat="44.583465" lon="9.4504567"><ele>1389.1999999999998</ele><time>2026-03-27T14:15:06.647Z</time></trkpt><trkpt lat="44.5834333" lon="9.4505567"><ele>1385.8000000000002</ele><time>2026-03-27T14:15:07.648Z</time></trkpt><trkpt lat="44.583405" lon="9.4507083"><ele>1382.4</ele><time>2026-03-27T14:15:09.648Z</time></trkpt><trkpt lat="44.5833933" lon="9.4508167"><ele>1379.0</ele><time>2026-03-27T14:15:12.646Z</time></trkpt><trkpt lat="44.5833967" lon="9.45095"><ele>1379.0</ele><time>2026-03-27T14:15:27.654Z</time></trkpt><trkpt lat="44.5833983" lon="9.45107"><ele>1379.0</ele><time>2026-03-27T14:15:29.647Z</time></trkpt><trkpt lat="44.5833967" lon="9.45118"><ele>1379.0</ele><time>2026-03-27T14:15:31.648Z</time></trkpt><trkpt lat="44.5834" lon="9.4512917"><ele>1379.0</ele><time>2026-03-27T14:15:33.647Z</time></trkpt><trkpt lat="44.5834067" lon="9.45142"><ele>1379.0</ele><time>2026-03-27T14:15:36.649Z</time></trkpt><trkpt lat="44.583435" lon="9.4515367"><ele>1379.0</ele><time>2026-03-27T14:15:38.649Z</time></trkpt><trkpt lat="44.5834783" lon="9.4516633"><ele>1380.0</ele><time>2026-03-27T14:15:40.646Z</time></trkpt><trkpt lat="44.5835183" lon="9.4517617"><ele>1381.0</ele><time>2026-03-27T14:15:42.648Z</time></trkpt><trkpt lat="44.58358" lon="9.45191"><ele>1382.0</ele><time>2026-03-27T14:16:21.647Z</time></trkpt><trkpt lat="44.5836167" lon="9.4520833"><ele>1383.0</ele><time>2026-03-27T14:16:23.648Z</time></trkpt><trkpt lat="44.5836433" lon="9.4522117"><ele>1384.0</ele><time>2026-03-27T14:16:24.646Z</time></trkpt><trkpt lat="44.5836833" lon="9.4523733"><ele>1393.25</ele><time>2026-03-27T14:16:25.648Z</time></trkpt><trkpt lat="44.5837267" lon="9.4525367"><ele>1402.5</ele><time>2026-03-27T14:16:26.646Z</time></trkpt><trkpt lat="44.5837717" lon="9.4527033"><ele>1411.75</ele><time>2026-03-27T14:16:27.647Z</time></trkpt><trkpt lat="44.583825" lon="9.452875"><ele>1421.0</ele><time>2026-03-27T14:16:28.647Z</time></trkpt><trkpt lat="44.58388" lon="9.4530317"><ele>1421.8</ele><time>2026-03-27T14:16:29.649Z</time></trkpt><trkpt lat="44.58394" lon="9.4531617"><ele>1422.6</ele><time>2026-03-27T14:16:30.646Z</time></trkpt><trkpt lat="44.5839983" lon="9.4532733"><ele>1423.4</ele><time>2026-03-27T14:16:31.647Z</time></trkpt><trkpt lat="44.584045" lon="9.453375"><ele>1424.2</ele><time>2026-03-27T14:16:32.647Z</time></trkpt><trkpt lat="44.5840783" lon="9.453475"><ele>1425.0</ele><time>2026-03-27T14:16:33.65Z</time></trkpt><trkpt lat="44.5840917" lon="9.453585"><ele>1425.0</ele><time>2026-03-27T14:16:34.647Z</time></trkpt><trkpt lat="44.5840617" lon="9.4536817"><ele>1425.0</ele><time>2026-03-27T14:16:35.647Z</time></trkpt><trkpt lat="44.5840333" lon="9.4537733"><ele>1425.0</ele><time>2026-03-27T14:16:36.646Z</time></trkpt><trkpt lat="44.5839767" lon="9.4538417"><ele>1425.0</ele><time>2026-03-27T14:16:37.647Z</time></trkpt><trkpt lat="44.583905" lon="9.4538867"><ele>1425.0</ele><time>2026-03-27T14:16:38.648Z</time></trkpt><trkpt lat="44.583815" lon="9.4539283"><ele>1425.0</ele><time>2026-03-27T14:16:39.647Z</time></trkpt><trkpt lat="44.5837333" lon="9.4539633"><ele>1422.5</ele><time>2026-03-27T14:16:40.647Z</time></trkpt><trkpt lat="44.5836667" lon="9.4540267"><ele>1420.0</ele><time>2026-03-27T14:16:41.647Z</time></trkpt><trkpt lat="44.5836133" lon="9.4541183"><ele>1417.5</ele><time>2026-03-27T14:16:42.648Z</time></trkpt><trkpt lat="44.583575" lon="9.4542133"><ele>1415.0</ele><time>2026-03-27T14:16:43.646Z</time></trkpt><trkpt lat="44.5835483" lon="9.4543167"><ele>1412.5</ele><time>2026-03-27T14:16:44.647Z</time></trkpt><trkpt lat="44.5835233" lon="9.4544283"><ele>1410.0</ele><time>2026-03-27T14:16:45.648Z</time></trkpt><trkpt lat="44.5835167" lon="9.45454"><ele>1412.1666666666667</ele><time>2026-03-27T14:16:46.646Z</time></trkpt><trkpt lat="44.5835183" lon="9.4546483"><ele>1414.3333333333333</ele><time>2026-03-27T14:16:47.646Z</time></trkpt><trkpt lat="44.58352" lon="9.4547583"><ele>1416.5</ele><time>2026-03-27T14:16:48.646Z</time></trkpt><trkpt lat="44.58352" lon="9.454885"><ele>1418.6666666666665</ele><time>2026-03-27T14:16:49.646Z</time></trkpt><trkpt lat="44.5835183" lon="9.45501"><ele>1420.8333333333333</ele><time>2026-03-27T14:16:50.647Z</time></trkpt><trkpt lat="44.5835083" lon="9.4551417"><ele>1423.0</ele><time>2026-03-27T14:16:51.646Z</time></trkpt><trkpt lat="44.583475" lon="9.45527"><ele>1423.0</ele><time>2026-03-27T14:16:52.646Z</time></trkpt><trkpt lat="44.5834283" lon="9.455375"><ele>1423.0</ele><time>2026-03-27T14:16:53.646Z</time></trkpt><trkpt lat="44.583385" lon="9.4554617"><ele>1423.0</ele><time>2026-03-27T14:16:54.648Z</time></trkpt><trkpt lat="44.583345" lon="9.4555517"><ele>1423.0</ele><time>2026-03-27T14:16:55.646Z</time></trkpt><trkpt lat="44.5833083" lon="9.4556317"><ele>1423.0</ele><time>2026-03-27T14:16:56.647Z</time></trkpt><trkpt lat="44.5832767" lon="9.4557183"><ele>1423.0</ele><time>2026-03-27T14:16:57.647Z</time></trkpt><trkpt lat="44.5832583" lon="9.4558117"><ele>1423.0</ele><time>2026-03-27T14:16:58.648Z</time></trkpt><trkpt lat="44.583255" lon="9.45591"><ele>1424.6666666666665</ele><time>2026-03-27T14:16:59.647Z</time></trkpt><trkpt lat="44.583265" lon="9.4560033"><ele>1426.3333333333333</ele><time>2026-03-27T14:17:00.646Z</time></trkpt><trkpt lat="44.5832733" lon="9.4561067"><ele>1428.0</ele><time>2026-03-27T14:17:01.649Z</time></trkpt><trkpt lat="44.5832867" lon="9.4562183"><ele>1429.6666666666667</ele><time>2026-03-27T14:17:02.647Z</time></trkpt><trkpt lat="44.5833067" lon="9.4563367"><ele>1431.3333333333335</ele><time>2026-03-27T14:17:03.648Z</time></trkpt><trkpt lat="44.5833267" lon="9.4564667"><ele>1433.0</ele><time>2026-03-27T14:17:04.647Z</time></trkpt><trkpt lat="44.5833517" lon="9.456595"><ele>1434.4</ele><time>2026-03-27T14:17:05.647Z</time></trkpt><trkpt lat="44.5833783" lon="9.4567283"><ele>1435.8000000000002</ele><time>2026-03-27T14:17:06.647Z</time></trkpt><trkpt lat="44.5834183" lon="9.4568567"><ele>1437.2</ele><time>2026-03-27T14:17:07.646Z</time></trkpt><trkpt lat="44.5834567" lon="9.4569867"><ele>1438.6</ele><time>2026-03-27T14:17:08.655Z</time></trkpt><trkpt lat="44.583485" lon="9.4571217"><ele>1440.0</ele><time>2026-03-27T14:17:09.646Z</time></trkpt><trkpt lat="44.5835067" lon="9.4572717"><ele>1440.0</ele><time>2026-03-27T14:17:10.646Z</time></trkpt><trkpt lat="44.5835317" lon="9.45742"><ele>1440.0</ele><time>2026-03-27T14:17:11.647Z</time></trkpt><trkpt lat="44.583575" lon="9.457565"><ele>1440.0</ele><time>2026-03-27T14:17:12.646Z</time></trkpt><trkpt lat="44.583625" lon="9.4577117"><ele>1440.0</ele><time>2026-03-27T14:17:13.647Z</time></trkpt><trkpt lat="44.5836817" lon="9.45785"><ele>1445.6</ele><time>2026-03-27T14:17:14.648Z</time></trkpt><trkpt lat="44.5837367" lon="9.4579867"><ele>1451.2</ele><time>2026-03-27T14:17:15.647Z</time></trkpt><trkpt lat="44.583785" lon="9.4581183"><ele>1456.8000000000002</ele><time>2026-03-27T14:17:16.647Z</time></trkpt><trkpt lat="44.5838367" lon="9.4582533"><ele>1462.4</ele><time>2026-03-27T14:17:17.647Z</time></trkpt><trkpt lat="44.5838967" lon="9.4583867"><ele>1468.0</ele><time>2026-03-27T14:17:18.649Z</time></trkpt><trkpt lat="44.5839683" lon="9.4585233"><ele>1468.0</ele><time>2026-03-27T14:17:19.646Z</time></trkpt><trkpt lat="44.5840317" lon="9.45866"><ele>1468.0</ele><time>2026-03-27T14:17:20.647Z</time></trkpt><trkpt lat="44.5840867" lon="9.45879"><ele>1468.0</ele><time>2026-03-27T14:17:21.647Z</time></trkpt><trkpt lat="44.5841433" lon="9.45892"><ele>1468.0</ele><time>2026-03-27T14:17:22.646Z</time></trkpt><trkpt lat="44.5842017" lon="9.4590467"><ele>1468.0</ele><time>2026-03-27T14:17:23.646Z</time></trkpt><trkpt lat="44.5842633" lon="9.4591783"><ele>1467.8000000000002</ele><time>2026-03-27T14:17:24.646Z</time></trkpt><trkpt lat="44.58431" lon="9.45932"><ele>1467.6</ele><time>2026-03-27T14:17:25.65Z</time></trkpt><trkpt lat="44.5843367" lon="9.4594633"><ele>1467.4</ele><time>2026-03-27T14:17:26.648Z</time></trkpt><trkpt lat="44.5843417" lon="9.4596067"><ele>1467.1999999999998</ele><time>2026-03-27T14:17:27.647Z</time></trkpt><trkpt lat="44.5843218" lon="9.4597525"><ele>1467.0</ele><time>2026-03-27T14:17:28.646Z</time></trkpt><trkpt lat="44.5842881" lon="9.4598947"><ele>1468.1999999999998</ele><time>2026-03-27T14:17:29.648Z</time></trkpt><trkpt lat="44.5842533" lon="9.4600305"><ele>1469.4</ele><time>2026-03-27T14:17:30.649Z</time></trkpt><trkpt lat="44.584223" lon="9.4601578"><ele>1470.6</ele><time>2026-03-27T14:17:31.647Z</time></trkpt><trkpt lat="44.5841976" lon="9.4602823"><ele>1471.8000000000002</ele><time>2026-03-27T14:17:32.647Z</time></trkpt><trkpt lat="44.5841858" lon="9.4604107"><ele>1473.0</ele><time>2026-03-27T14:17:33.647Z</time></trkpt><trkpt lat="44.5841849" lon="9.4605381"><ele>1474.5</ele><time>2026-03-27T14:17:34.649Z</time></trkpt><trkpt lat="44.5841875" lon="9.4606622"><ele>1476.0</ele><time>2026-03-27T14:17:35.646Z</time></trkpt><trkpt lat="44.5841897" lon="9.4607777"><ele>1477.5</ele><time>2026-03-27T14:17:36.647Z</time></trkpt><trkpt lat="44.584189" lon="9.4608795"><ele>1479.0</ele><time>2026-03-27T14:17:37.646Z</time></trkpt><trkpt lat="44.5841755" lon="9.4609713"><ele>1480.5</ele><time>2026-03-27T14:17:38.648Z</time></trkpt><trkpt lat="44.5841459" lon="9.4610532"><ele>1482.0</ele><time>2026-03-27T14:17:39.647Z</time></trkpt><trkpt lat="44.58405" lon="9.4611687"><ele>1482.0</ele><time>2026-03-27T14:17:41.652Z</time></trkpt><trkpt lat="44.5839881" lon="9.4612135"><ele>1482.0</ele><time>2026-03-27T14:17:42.648Z</time></trkpt><trkpt lat="44.5839179" lon="9.4612376"><ele>1482.0</ele><time>2026-03-27T14:17:43.647Z</time></trkpt><trkpt lat="44.5838463" lon="9.4612532"><ele>1482.0</ele><time>2026-03-27T14:17:44.647Z</time></trkpt><trkpt lat="44.5837822" lon="9.461262"><ele>1482.0</ele><time>2026-03-27T14:17:45.647Z</time></trkpt><trkpt lat="44.5837057" lon="9.4612629"><ele>1482.0</ele><time>2026-03-27T14:17:46.647Z</time></trkpt><trkpt lat="44.5836252" lon="9.4612618"><ele>1482.0</ele><time>2026-03-27T14:17:47.647Z</time></trkpt><trkpt lat="44.5835457" lon="9.4612637"><ele>1480.1999999999998</ele><time>2026-03-27T14:17:48.648Z</time></trkpt><trkpt lat="44.5834772" lon="9.461264"><ele>1478.4</ele><time>2026-03-27T14:17:49.648Z</time></trkpt><trkpt lat="44.5833633" lon="9.4613076"><ele>1476.6</ele><time>2026-03-27T14:17:51.647Z</time></trkpt><trkpt lat="44.5832782" lon="9.461382"><ele>1474.8000000000002</ele><time>2026-03-27T14:17:53.648Z</time></trkpt><trkpt lat="44.5832017" lon="9.4615467"><ele>1473.0</ele><time>2026-03-27T14:21:21.647Z</time></trkpt><trkpt lat="44.5832267" lon="9.4616333"><ele>1473.0</ele><time>2026-03-27T14:29:49.647Z</time></trkpt><trkpt lat="44.5832567" lon="9.4617467"><ele>1473.0</ele><time>2026-03-27T14:29:52.647Z</time></trkpt><trkpt lat="44.583285" lon="9.461845"><ele>1473.0</ele><time>2026-03-27T14:29:54.647Z</time></trkpt><trkpt lat="44.5833183" lon="9.461945"><ele>1473.0</ele><time>2026-03-27T14:29:56.647Z</time></trkpt><trkpt lat="44.58335" lon="9.46204"><ele>1473.0</ele><time>2026-03-27T14:29:58.648Z</time></trkpt><trkpt lat="44.58338" lon="9.4621367"><ele>1473.0</ele><time>2026-03-27T14:30:00.65Z</time></trkpt><trkpt lat="44.5834133" lon="9.46223"><ele>1472.8333333333333</ele><time>2026-03-27T14:30:02.649Z</time></trkpt><trkpt lat="44.5834483" lon="9.4623283"><ele>1472.6666666666667</ele><time>2026-03-27T14:30:04.649Z</time></trkpt><trkpt lat="44.5834783" lon="9.4624267"><ele>1472.5</ele><time>2026-03-27T14:30:06.648Z</time></trkpt><trkpt lat="44.583515" lon="9.4625267"><ele>1472.3333333333335</ele><time>2026-03-27T14:30:08.649Z</time></trkpt><trkpt lat="44.5835583" lon="9.4626217"><ele>1472.1666666666667</ele><time>2026-03-27T14:30:10.649Z</time></trkpt><trkpt lat="44.5835867" lon="9.4627167"><ele>1472.0</ele><time>2026-03-27T14:30:12.647Z</time></trkpt><trkpt lat="44.5836183" lon="9.4628017"><ele>1472.0</ele><time>2026-03-27T14:30:14.648Z</time></trkpt><trkpt lat="44.583665" lon="9.4628833"><ele>1472.0</ele><time>2026-03-27T14:30:16.647Z</time></trkpt><trkpt lat="44.583715" lon="9.462965"><ele>1472.0</ele><time>2026-03-27T14:30:18.647Z</time></trkpt><trkpt lat="44.5837667" lon="9.4630467"><ele>1472.0</ele><time>2026-03-27T14:30:20.648Z</time></trkpt><trkpt lat="44.58384" lon="9.4631267"><ele>1472.0</ele><time>2026-03-27T14:30:22.649Z</time></trkpt><trkpt lat="44.5839" lon="9.4631667"><ele>1472.0</ele><time>2026-03-27T14:30:23.647Z</time></trkpt><trkpt lat="44.5839733" lon="9.4632067"><ele>1471.6</ele><time>2026-03-27T14:30:24.647Z</time></trkpt><trkpt lat="44.5840567" lon="9.4632467"><ele>1471.1999999999998</ele><time>2026-03-27T14:30:25.65Z</time></trkpt><trkpt lat="44.5841683" lon="9.4633183"><ele>1470.8</ele><time>2026-03-27T14:30:27.65Z</time></trkpt><trkpt lat="44.5842083" lon="9.4633867"><ele>1470.4</ele><time>2026-03-27T14:30:28.652Z</time></trkpt><trkpt lat="44.5842467" lon="9.4635383"><ele>1470.0</ele><time>2026-03-27T14:30:30.649Z</time></trkpt><trkpt lat="44.5842633" lon="9.4636933"><ele>1468.0</ele><time>2026-03-27T14:30:32.649Z</time></trkpt><trkpt lat="44.5842667" lon="9.463785"><ele>1466.0</ele><time>2026-03-27T14:30:33.651Z</time></trkpt><trkpt lat="44.58429" lon="9.46395"><ele>1464.0</ele><time>2026-03-27T14:30:35.649Z</time></trkpt><trkpt lat="44.5842917" lon="9.46405"><ele>1462.0</ele><time>2026-03-27T14:30:36.65Z</time></trkpt><trkpt lat="44.5842783" lon="9.4641617"><ele>1460.0</ele><time>2026-03-27T14:30:37.648Z</time></trkpt><trkpt lat="44.5842467" lon="9.4642683"><ele>1458.0</ele><time>2026-03-27T14:30:38.656Z</time></trkpt><trkpt lat="44.584205" lon="9.4643667"><ele>1458.0</ele><time>2026-03-27T14:30:39.653Z</time></trkpt><trkpt lat="44.5841567" lon="9.4644617"><ele>1458.0</ele><time>2026-03-27T14:30:40.648Z</time></trkpt><trkpt lat="44.5841133" lon="9.4645517"><ele>1458.0</ele><time>2026-03-27T14:30:41.646Z</time></trkpt><trkpt lat="44.5840617" lon="9.4646433"><ele>1458.0</ele><time>2026-03-27T14:30:42.647Z</time></trkpt><trkpt lat="44.584005" lon="9.4647283"><ele>1458.0</ele><time>2026-03-27T14:30:43.646Z</time></trkpt><trkpt lat="44.5839483" lon="9.4648133"><ele>1458.0</ele><time>2026-03-27T14:30:44.648Z</time></trkpt><trkpt lat="44.5838967" lon="9.4648883"><ele>1455.8333333333333</ele><time>2026-03-27T14:30:45.646Z</time></trkpt><trkpt lat="44.5838517" lon="9.46496"><ele>1453.6666666666667</ele><time>2026-03-27T14:30:46.647Z</time></trkpt><trkpt lat="44.5838183" lon="9.4650383"><ele>1451.5</ele><time>2026-03-27T14:30:47.647Z</time></trkpt><trkpt lat="44.5838183" lon="9.4651983"><ele>1449.3333333333335</ele><time>2026-03-27T14:30:49.646Z</time></trkpt><trkpt lat="44.583865" lon="9.4652617"><ele>1447.1666666666667</ele><time>2026-03-27T14:30:50.647Z</time></trkpt><trkpt lat="44.5839233" lon="9.4653217"><ele>1445.0</ele><time>2026-03-27T14:30:51.646Z</time></trkpt><trkpt lat="44.5839817" lon="9.4653717"><ele>1445.0</ele><time>2026-03-27T14:30:52.645Z</time></trkpt><trkpt lat="44.5840533" lon="9.4654333"><ele>1445.0</ele><time>2026-03-27T14:30:53.646Z</time></trkpt><trkpt lat="44.5841233" lon="9.4654983"><ele>1445.0</ele><time>2026-03-27T14:30:54.647Z</time></trkpt><trkpt lat="44.58418" lon="9.4655667"><ele>1445.0</ele><time>2026-03-27T14:30:55.647Z</time></trkpt><trkpt lat="44.584225" lon="9.4656417"><ele>1445.0</ele><time>2026-03-27T14:30:56.649Z</time></trkpt><trkpt lat="44.58424" lon="9.4657283"><ele>1445.0</ele><time>2026-03-27T14:30:57.646Z</time></trkpt><trkpt lat="44.5841833" lon="9.4658683"><ele>1442.8</ele><time>2026-03-27T14:30:59.647Z</time></trkpt><trkpt lat="44.58412" lon="9.4659117"><ele>1440.6</ele><time>2026-03-27T14:31:00.646Z</time></trkpt><trkpt lat="44.584035" lon="9.4659267"><ele>1438.4</ele><time>2026-03-27T14:31:01.647Z</time></trkpt><trkpt lat="44.583925" lon="9.4659233"><ele>1436.2</ele><time>2026-03-27T14:31:02.647Z</time></trkpt><trkpt lat="44.5838133" lon="9.4659217"><ele>1434.0</ele><time>2026-03-27T14:31:03.646Z</time></trkpt><trkpt lat="44.5837033" lon="9.4659217"><ele>1433.2</ele><time>2026-03-27T14:31:04.65Z</time></trkpt><trkpt lat="44.5836" lon="9.46592"><ele>1432.4</ele><time>2026-03-27T14:31:05.646Z</time></trkpt><trkpt lat="44.583495" lon="9.4659167"><ele>1431.6</ele><time>2026-03-27T14:31:06.647Z</time></trkpt><trkpt lat="44.5833983" lon="9.4659167"><ele>1430.8</ele><time>2026-03-27T14:31:07.647Z</time></trkpt><trkpt lat="44.5833133" lon="9.4659167"><ele>1430.0</ele><time>2026-03-27T14:31:08.648Z</time></trkpt><trkpt lat="44.58324" lon="9.46593"><ele>1430.0</ele><time>2026-03-27T14:31:09.648Z</time></trkpt><trkpt lat="44.583175" lon="9.4659633"><ele>1430.0</ele><time>2026-03-27T14:31:10.647Z</time></trkpt><trkpt lat="44.58312" lon="9.46601"><ele>1430.0</ele><time>2026-03-27T14:31:11.646Z</time></trkpt><trkpt lat="44.5830717" lon="9.4660983"><ele>1430.0</ele><time>2026-03-27T14:31:12.647Z</time></trkpt><trkpt lat="44.5830533" lon="9.4661983"><ele>1430.0</ele><time>2026-03-27T14:31:13.645Z</time></trkpt><trkpt lat="44.5830483" lon="9.466305"><ele>1430.0</ele><time>2026-03-27T14:31:14.647Z</time></trkpt><trkpt lat="44.5830617" lon="9.4664167"><ele>1430.0</ele><time>2026-03-27T14:31:15.646Z</time></trkpt><trkpt lat="44.5830833" lon="9.4665283"><ele>1428.1666666666667</ele><time>2026-03-27T14:31:16.646Z</time></trkpt><trkpt lat="44.5831267" lon="9.4666067"><ele>1426.3333333333335</ele><time>2026-03-27T14:31:17.646Z</time></trkpt><trkpt lat="44.58319" lon="9.4666683"><ele>1424.5</ele><time>2026-03-27T14:31:18.646Z</time></trkpt><trkpt lat="44.5832533" lon="9.4667283"><ele>1422.6666666666667</ele><time>2026-03-27T14:31:19.647Z</time></trkpt><trkpt lat="44.58333" lon="9.4667733"><ele>1420.8333333333333</ele><time>2026-03-27T14:31:20.646Z</time></trkpt><trkpt lat="44.5834333" lon="9.466805"><ele>1419.0</ele><time>2026-03-27T14:31:21.647Z</time></trkpt><trkpt lat="44.5835283" lon="9.4668333"><ele>1419.0</ele><time>2026-03-27T14:31:22.646Z</time></trkpt><trkpt lat="44.5836317" lon="9.4668683"><ele>1419.0</ele><time>2026-03-27T14:31:23.649Z</time></trkpt><trkpt lat="44.58371" lon="9.4669267"><ele>1419.0</ele><time>2026-03-27T14:31:24.646Z</time></trkpt><trkpt lat="44.5837633" lon="9.4670167"><ele>1419.0</ele><time>2026-03-27T14:31:25.646Z</time></trkpt><trkpt lat="44.5838233" lon="9.4671133"><ele>1419.0</ele><time>2026-03-27T14:31:26.648Z</time></trkpt><trkpt lat="44.58389" lon="9.46719"><ele>1416.6666666666667</ele><time>2026-03-27T14:31:27.647Z</time></trkpt><trkpt lat="44.5839633" lon="9.46726"><ele>1414.3333333333333</ele><time>2026-03-27T14:31:28.647Z</time></trkpt><trkpt lat="44.5840367" lon="9.4672983"><ele>1412.0</ele><time>2026-03-27T14:31:29.648Z</time></trkpt><trkpt lat="44.5841067" lon="9.46735"><ele>1409.6666666666665</ele><time>2026-03-27T14:31:30.647Z</time></trkpt><trkpt lat="44.5841833" lon="9.4674017"><ele>1407.3333333333333</ele><time>2026-03-27T14:31:31.646Z</time></trkpt><trkpt lat="44.5842533" lon="9.46749"><ele>1405.0</ele><time>2026-03-27T14:31:32.648Z</time></trkpt><trkpt lat="44.5843067" lon="9.46759"><ele>1405.0</ele><time>2026-03-27T14:31:33.646Z</time></trkpt><trkpt lat="44.5843667" lon="9.467675"><ele>1405.0</ele><time>2026-03-27T14:31:34.648Z</time></trkpt><trkpt lat="44.5844367" lon="9.4677183"><ele>1405.0</ele><time>2026-03-27T14:31:35.648Z</time></trkpt><trkpt lat="44.5845117" lon="9.4677617"><ele>1405.0</ele><time>2026-03-27T14:31:36.648Z</time></trkpt><trkpt lat="44.584615" lon="9.4678"><ele>1405.0</ele><time>2026-03-27T14:31:37.646Z</time></trkpt><trkpt lat="44.584735" lon="9.4678367"><ele>1406.5</ele><time>2026-03-27T14:31:38.648Z</time></trkpt><trkpt lat="44.5848783" lon="9.4678683"><ele>1408.0</ele><time>2026-03-27T14:31:39.646Z</time></trkpt><trkpt lat="44.5850267" lon="9.4679"><ele>1409.5</ele><time>2026-03-27T14:31:40.647Z</time></trkpt><trkpt lat="44.5851733" lon="9.4679317"><ele>1411.0</ele><time>2026-03-27T14:31:41.646Z</time></trkpt><trkpt lat="44.5853083" lon="9.4679533"><ele>1404.8</ele><time>2026-03-27T14:31:42.646Z</time></trkpt><trkpt lat="44.5854267" lon="9.46798"><ele>1398.6</ele><time>2026-03-27T14:31:43.646Z</time></trkpt><trkpt lat="44.58553" lon="9.4679867"><ele>1392.4</ele><time>2026-03-27T14:31:44.649Z</time></trkpt><trkpt lat="44.5856167" lon="9.4680117"><ele>1386.2</ele><time>2026-03-27T14:31:45.646Z</time></trkpt><trkpt lat="44.58568" lon="9.468055"><ele>1380.0</ele><time>2026-03-27T14:31:46.646Z</time></trkpt><trkpt lat="44.5857417" lon="9.4681"><ele>1380.0</ele><time>2026-03-27T14:31:47.646Z</time></trkpt><trkpt lat="44.5857367" lon="9.4682383"><ele>1380.0</ele><time>2026-03-27T14:31:49.646Z</time></trkpt><trkpt lat="44.58569" lon="9.468325"><ele>1380.0</ele><time>2026-03-27T14:31:50.649Z</time></trkpt><trkpt lat="44.5856333" lon="9.4684217"><ele>1380.0</ele><time>2026-03-27T14:31:51.648Z</time></trkpt><trkpt lat="44.5855683" lon="9.4685267"><ele>1380.0</ele><time>2026-03-27T14:31:52.647Z</time></trkpt><trkpt lat="44.5855133" lon="9.468625"><ele>1380.0</ele><time>2026-03-27T14:31:53.647Z</time></trkpt><trkpt lat="44.5854833" lon="9.468725"><ele>1380.0</ele><time>2026-03-27T14:31:54.646Z</time></trkpt><trkpt lat="44.585475" lon="9.46883"><ele>1380.0</ele><time>2026-03-27T14:31:55.647Z</time></trkpt><trkpt lat="44.58548" lon="9.46893"><ele>1380.0</ele><time>2026-03-27T14:31:56.646Z</time></trkpt><trkpt lat="44.58551" lon="9.46903"><ele>1380.0</ele><time>2026-03-27T14:31:57.648Z</time></trkpt><trkpt lat="44.5855433" lon="9.4691333"><ele>1380.0</ele><time>2026-03-27T14:31:58.646Z</time></trkpt><trkpt lat="44.5855833" lon="9.4692383"><ele>1378.0</ele><time>2026-03-27T14:31:59.647Z</time></trkpt><trkpt lat="44.5856233" lon="9.4693433"><ele>1376.0</ele><time>2026-03-27T14:32:00.647Z</time></trkpt><trkpt lat="44.5856667" lon="9.469445"><ele>1374.0</ele><time>2026-03-27T14:32:01.648Z</time></trkpt><trkpt lat="44.58571" lon="9.4695267"><ele>1372.0</ele><time>2026-03-27T14:32:02.65Z</time></trkpt><trkpt lat="44.5857483" lon="9.4696333"><ele>1370.0</ele><time>2026-03-27T14:32:03.649Z</time></trkpt><trkpt lat="44.58578" lon="9.46974"><ele>1368.0</ele><time>2026-03-27T14:32:04.647Z</time></trkpt><trkpt lat="44.5858067" lon="9.46985"><ele>1366.7142857142856</ele><time>2026-03-27T14:32:05.648Z</time></trkpt><trkpt lat="44.5858233" lon="9.4699617"><ele>1365.4285714285713</ele><time>2026-03-27T14:32:06.649Z</time></trkpt><trkpt lat="44.585835" lon="9.47007"><ele>1364.142857142857</ele><time>2026-03-27T14:32:07.647Z</time></trkpt><trkpt lat="44.5858317" lon="9.4701717"><ele>1362.8571428571427</ele><time>2026-03-27T14:32:08.648Z</time></trkpt><trkpt lat="44.5858" lon="9.4702617"><ele>1361.5714285714284</ele><time>2026-03-27T14:32:09.647Z</time></trkpt><trkpt lat="44.5857483" lon="9.4703433"><ele>1360.2857142857142</ele><time>2026-03-27T14:32:10.649Z</time></trkpt><trkpt lat="44.5857133" lon="9.4704233"><ele>1359.0</ele><time>2026-03-27T14:32:11.648Z</time></trkpt><trkpt lat="44.5856933" lon="9.4705817"><ele>1357.0</ele><time>2026-03-27T14:32:13.646Z</time></trkpt><trkpt lat="44.5858133" lon="9.4706333"><ele>1355.0</ele><time>2026-03-27T14:32:15.646Z</time></trkpt><trkpt lat="44.585895" lon="9.4706283"><ele>1353.0</ele><time>2026-03-27T14:32:16.649Z</time></trkpt><trkpt lat="44.5859883" lon="9.4706133"><ele>1351.0</ele><time>2026-03-27T14:32:17.647Z</time></trkpt><trkpt lat="44.5860833" lon="9.4706067"><ele>1349.0</ele><time>2026-03-27T14:32:18.647Z</time></trkpt><trkpt lat="44.5861733" lon="9.4706067"><ele>1349.0</ele><time>2026-03-27T14:32:19.646Z</time></trkpt><trkpt lat="44.5862417" lon="9.4706483"><ele>1349.0</ele><time>2026-03-27T14:32:20.648Z</time></trkpt><trkpt lat="44.5863" lon="9.4707"><ele>1349.0</ele><time>2026-03-27T14:32:21.647Z</time></trkpt><trkpt lat="44.5863217" lon="9.4707883"><ele>1349.0</ele><time>2026-03-27T14:32:22.646Z</time></trkpt><trkpt lat="44.58628" lon="9.4708867"><ele>1349.0</ele><time>2026-03-27T14:32:23.646Z</time></trkpt><trkpt lat="44.5862167" lon="9.4709783"><ele>1349.0</ele><time>2026-03-27T14:32:24.648Z</time></trkpt><trkpt lat="44.586145" lon="9.4710717"><ele>1349.0</ele><time>2026-03-27T14:32:25.647Z</time></trkpt><trkpt lat="44.5860783" lon="9.471165"><ele>1349.0</ele><time>2026-03-27T14:32:26.649Z</time></trkpt><trkpt lat="44.5860467" lon="9.4712533"><ele>1349.0</ele><time>2026-03-27T14:32:27.646Z</time></trkpt><trkpt lat="44.586035" lon="9.4713483"><ele>1349.0</ele><time>2026-03-27T14:32:28.648Z</time></trkpt><trkpt lat="44.586055" lon="9.4714433"><ele>1349.0</ele><time>2026-03-27T14:32:29.647Z</time></trkpt><trkpt lat="44.58613" lon="9.471515"><ele>1349.0</ele><time>2026-03-27T14:32:30.648Z</time></trkpt><trkpt lat="44.5861967" lon="9.4715683"><ele>1345.4</ele><time>2026-03-27T14:32:31.648Z</time></trkpt><trkpt lat="44.58628" lon="9.4715767"><ele>1341.8000000000002</ele><time>2026-03-27T14:32:32.648Z</time></trkpt><trkpt lat="44.5863833" lon="9.471555"><ele>1338.1999999999998</ele><time>2026-03-27T14:32:33.648Z</time></trkpt><trkpt lat="44.5864767" lon="9.4715583"><ele>1334.6</ele><time>2026-03-27T14:32:34.646Z</time></trkpt><trkpt lat="44.58657" lon="9.471585"><ele>1331.0</ele><time>2026-03-27T14:32:35.649Z</time></trkpt><trkpt lat="44.58664" lon="9.4716517"><ele>1331.0</ele><time>2026-03-27T14:32:36.647Z</time></trkpt><trkpt lat="44.5866833" lon="9.4717667"><ele>1331.0</ele><time>2026-03-27T14:32:37.646Z</time></trkpt><trkpt lat="44.586695" lon="9.4719033"><ele>1331.0</ele><time>2026-03-27T14:32:38.647Z</time></trkpt><trkpt lat="44.5867017" lon="9.4720367"><ele>1331.0</ele><time>2026-03-27T14:32:39.647Z</time></trkpt><trkpt lat="44.5866983" lon="9.47215"><ele>1331.0</ele><time>2026-03-27T14:32:40.646Z</time></trkpt><trkpt lat="44.5866683" lon="9.47225"><ele>1331.0</ele><time>2026-03-27T14:32:41.648Z</time></trkpt><trkpt lat="44.5866267" lon="9.4723167"><ele>1328.5</ele><time>2026-03-27T14:32:42.647Z</time></trkpt><trkpt lat="44.58654" lon="9.472325"><ele>1326.0</ele><time>2026-03-27T14:32:43.648Z</time></trkpt><trkpt lat="44.586445" lon="9.4723233"><ele>1323.5</ele><time>2026-03-27T14:32:44.647Z</time></trkpt><trkpt lat="44.586335" lon="9.4722617"><ele>1321.0</ele><time>2026-03-27T14:32:45.646Z</time></trkpt><trkpt lat="44.5861867" lon="9.472195"><ele>1323.3333333333333</ele><time>2026-03-27T14:32:46.647Z</time></trkpt><trkpt lat="44.5860383" lon="9.472135"><ele>1325.6666666666667</ele><time>2026-03-27T14:32:47.647Z</time></trkpt><trkpt lat="44.5858783" lon="9.4720933"><ele>1328.0</ele><time>2026-03-27T14:32:48.647Z</time></trkpt><trkpt lat="44.5857233" lon="9.4720733"><ele>1328.0</ele><time>2026-03-27T14:32:49.646Z</time></trkpt><trkpt lat="44.5855583" lon="9.4720967"><ele>1328.0</ele><time>2026-03-27T14:32:50.647Z</time></trkpt><trkpt lat="44.5853917" lon="9.4721367"><ele>1328.0</ele><time>2026-03-27T14:32:51.646Z</time></trkpt><trkpt lat="44.5852233" lon="9.472175"><ele>1318.6666666666667</ele><time>2026-03-27T14:32:52.646Z</time></trkpt><trkpt lat="44.585065" lon="9.472195"><ele>1309.3333333333333</ele><time>2026-03-27T14:32:53.648Z</time></trkpt><trkpt lat="44.58491" lon="9.4721883"><ele>1300.0</ele><time>2026-03-27T14:32:54.65Z</time></trkpt><trkpt lat="44.58476" lon="9.4721683"><ele>1300.0</ele><time>2026-03-27T14:32:55.647Z</time></trkpt><trkpt lat="44.5846167" lon="9.47215"><ele>1300.0</ele><time>2026-03-27T14:32:56.647Z</time></trkpt><trkpt lat="44.58448" lon="9.4721467"><ele>1300.0</ele><time>2026-03-27T14:32:57.646Z</time></trkpt><trkpt lat="44.5843467" lon="9.4721517"><ele>1300.0</ele><time>2026-03-27T14:32:58.646Z</time></trkpt><trkpt lat="44.5842217" lon="9.4721833"><ele>1299.0</ele><time>2026-03-27T14:32:59.646Z</time></trkpt><trkpt lat="44.5841067" lon="9.4722233"><ele>1298.0</ele><time>2026-03-27T14:33:00.646Z</time></trkpt><trkpt lat="44.584005" lon="9.47226"><ele>1297.0</ele><time>2026-03-27T14:33:01.648Z</time></trkpt><trkpt lat="44.5839083" lon="9.4722933"><ele>1296.0</ele><time>2026-03-27T14:33:02.647Z</time></trkpt><trkpt lat="44.5838267" lon="9.472315"><ele>1295.0</ele><time>2026-03-27T14:33:03.647Z</time></trkpt><trkpt lat="44.58374" lon="9.472355"><ele>1294.3333333333335</ele><time>2026-03-27T14:33:04.647Z</time></trkpt><trkpt lat="44.5836583" lon="9.472395"><ele>1293.6666666666667</ele><time>2026-03-27T14:33:05.646Z</time></trkpt><trkpt lat="44.583575" lon="9.472435"><ele>1293.0</ele><time>2026-03-27T14:33:06.647Z</time></trkpt><trkpt lat="44.5834867" lon="9.4724683"><ele>1292.3333333333333</ele><time>2026-03-27T14:33:07.647Z</time></trkpt><trkpt lat="44.5834033" lon="9.4724983"><ele>1291.6666666666665</ele><time>2026-03-27T14:33:08.647Z</time></trkpt><trkpt lat="44.5833083" lon="9.4725217"><ele>1291.0</ele><time>2026-03-27T14:33:09.653Z</time></trkpt><trkpt lat="44.5831883" lon="9.4725267"><ele>1291.0</ele><time>2026-03-27T14:33:10.646Z</time></trkpt><trkpt lat="44.58309" lon="9.4725133"><ele>1291.0</ele><time>2026-03-27T14:33:11.646Z</time></trkpt><trkpt lat="44.582995" lon="9.472505"><ele>1291.0</ele><time>2026-03-27T14:33:12.65Z</time></trkpt><trkpt lat="44.5829083" lon="9.4725"><ele>1291.0</ele><time>2026-03-27T14:33:13.647Z</time></trkpt><trkpt lat="44.5828367" lon="9.4725167"><ele>1291.0</ele><time>2026-03-27T14:33:14.647Z</time></trkpt><trkpt lat="44.5827667" lon="9.4726583"><ele>1289.8</ele><time>2026-03-27T14:33:16.646Z</time></trkpt><trkpt lat="44.58279" lon="9.472755"><ele>1288.6</ele><time>2026-03-27T14:33:17.65Z</time></trkpt><trkpt lat="44.582835" lon="9.47285"><ele>1287.4</ele><time>2026-03-27T14:33:18.647Z</time></trkpt><trkpt lat="44.5828983" lon="9.4729583"><ele>1286.2</ele><time>2026-03-27T14:33:19.646Z</time></trkpt><trkpt lat="44.5829717" lon="9.4730817"><ele>1285.0</ele><time>2026-03-27T14:33:20.648Z</time></trkpt><trkpt lat="44.583055" lon="9.473195"><ele>1283.5</ele><time>2026-03-27T14:33:21.646Z</time></trkpt><trkpt lat="44.5831267" lon="9.4733317"><ele>1282.0</ele><time>2026-03-27T14:33:22.646Z</time></trkpt><trkpt lat="44.5831783" lon="9.4734817"><ele>1280.5</ele><time>2026-03-27T14:33:23.647Z</time></trkpt><trkpt lat="44.5832017" lon="9.4736533"><ele>1279.0</ele><time>2026-03-27T14:33:24.646Z</time></trkpt><trkpt lat="44.5832083" lon="9.4738383"><ele>1276.25</ele><time>2026-03-27T14:33:25.646Z</time></trkpt><trkpt lat="44.5832067" lon="9.4740333"><ele>1273.5</ele><time>2026-03-27T14:33:26.646Z</time></trkpt><trkpt lat="44.5832033" lon="9.4742417"><ele>1270.75</ele><time>2026-03-27T14:33:27.646Z</time></trkpt><trkpt lat="44.5832033" lon="9.4744467"><ele>1268.0</ele><time>2026-03-27T14:33:28.65Z</time></trkpt><trkpt lat="44.583205" lon="9.474645"><ele>1265.25</ele><time>2026-03-27T14:33:29.646Z</time></trkpt><trkpt lat="44.5832067" lon="9.4748333"><ele>1262.5</ele><time>2026-03-27T14:33:30.647Z</time></trkpt><trkpt lat="44.5832033" lon="9.475005"><ele>1259.75</ele><time>2026-03-27T14:33:31.646Z</time></trkpt><trkpt lat="44.5831933" lon="9.4751517"><ele>1257.0</ele><time>2026-03-27T14:33:32.646Z</time></trkpt><trkpt lat="44.5831567" lon="9.4752667"><ele>1257.0</ele><time>2026-03-27T14:33:33.646Z</time></trkpt><trkpt lat="44.5831" lon="9.4753467"><ele>1257.0</ele><time>2026-03-27T14:33:34.646Z</time></trkpt><trkpt lat="44.5830083" lon="9.4753483"><ele>1257.0</ele><time>2026-03-27T14:33:35.646Z</time></trkpt><trkpt lat="44.5829133" lon="9.4752917"><ele>1257.0</ele><time>2026-03-27T14:33:36.647Z</time></trkpt><trkpt lat="44.5828183" lon="9.475225"><ele>1257.0</ele><time>2026-03-27T14:33:37.646Z</time></trkpt><trkpt lat="44.5827117" lon="9.4751583"><ele>1256.6</ele><time>2026-03-27T14:33:38.652Z</time></trkpt><trkpt lat="44.5826067" lon="9.4751217"><ele>1256.2</ele><time>2026-03-27T14:33:39.646Z</time></trkpt><trkpt lat="44.5824967" lon="9.4751517"><ele>1255.8</ele><time>2026-03-27T14:33:40.647Z</time></trkpt><trkpt lat="44.5824" lon="9.4752117"><ele>1255.4</ele><time>2026-03-27T14:33:41.646Z</time></trkpt><trkpt lat="44.5823083" lon="9.47532"><ele>1255.0</ele><time>2026-03-27T14:33:42.647Z</time></trkpt><trkpt lat="44.582215" lon="9.47549"><ele>1252.75</ele><time>2026-03-27T14:33:43.647Z</time></trkpt><trkpt lat="44.5821283" lon="9.4756583"><ele>1250.5</ele><time>2026-03-27T14:33:44.646Z</time></trkpt><trkpt lat="44.58204" lon="9.4758233"><ele>1248.25</ele><time>2026-03-27T14:33:45.646Z</time></trkpt><trkpt lat="44.58197" lon="9.475965"><ele>1246.0</ele><time>2026-03-27T14:33:46.646Z</time></trkpt><trkpt lat="44.5819183" lon="9.4761167"><ele>1244.3999999999999</ele><time>2026-03-27T14:33:47.646Z</time></trkpt><trkpt lat="44.581905" lon="9.4762517"><ele>1242.8</ele><time>2026-03-27T14:33:48.647Z</time></trkpt><trkpt lat="44.5819217" lon="9.476385"><ele>1241.1999999999998</ele><time>2026-03-27T14:33:49.647Z</time></trkpt><trkpt lat="44.5819483" lon="9.4765183"><ele>1239.6</ele><time>2026-03-27T14:33:50.649Z</time></trkpt><trkpt lat="44.5819817" lon="9.4766783"><ele>1238.0</ele><time>2026-03-27T14:33:51.646Z</time></trkpt><trkpt lat="44.5820317" lon="9.476845"><ele>1237.5</ele><time>2026-03-27T14:33:52.646Z</time></trkpt><trkpt lat="44.5820883" lon="9.4770267"><ele>1237.0</ele><time>2026-03-27T14:33:53.647Z</time></trkpt><trkpt lat="44.582155" lon="9.477185"><ele>1236.5</ele><time>2026-03-27T14:33:54.646Z</time></trkpt><trkpt lat="44.58225" lon="9.477315"><ele>1236.0</ele><time>2026-03-27T14:33:55.647Z</time></trkpt><trkpt lat="44.58237" lon="9.4774183"><ele>1233.25</ele><time>2026-03-27T14:33:56.647Z</time></trkpt><trkpt lat="44.5824967" lon="9.477515"><ele>1230.5</ele><time>2026-03-27T14:33:57.646Z</time></trkpt><trkpt lat="44.5826183" lon="9.477635"><ele>1227.75</ele><time>2026-03-27T14:33:58.648Z</time></trkpt><trkpt lat="44.582725" lon="9.4777833"><ele>1225.0</ele><time>2026-03-27T14:33:59.647Z</time></trkpt><trkpt lat="44.5828133" lon="9.4779433"><ele>1221.25</ele><time>2026-03-27T14:34:00.647Z</time></trkpt><trkpt lat="44.58289" lon="9.4780983"><ele>1217.5</ele><time>2026-03-27T14:34:01.651Z</time></trkpt><trkpt lat="44.5829567" lon="9.4782567"><ele>1213.75</ele><time>2026-03-27T14:34:02.648Z</time></trkpt><trkpt lat="44.583005" lon="9.4784483"><ele>1210.0</ele><time>2026-03-27T14:34:03.646Z</time></trkpt><trkpt lat="44.583045" lon="9.47864"><ele>1208.0</ele><time>2026-03-27T14:34:04.646Z</time></trkpt><trkpt lat="44.583065" lon="9.4788433"><ele>1206.0</ele><time>2026-03-27T14:34:05.646Z</time></trkpt><trkpt lat="44.5830633" lon="9.4790283"><ele>1204.0</ele><time>2026-03-27T14:34:06.647Z</time></trkpt><trkpt lat="44.5830367" lon="9.4791983"><ele>1202.0</ele><time>2026-03-27T14:34:07.649Z</time></trkpt><trkpt lat="44.5829867" lon="9.4793433"><ele>1202.0</ele><time>2026-03-27T14:34:08.649Z</time></trkpt><trkpt lat="44.582915" lon="9.4794583"><ele>1202.0</ele><time>2026-03-27T14:34:09.647Z</time></trkpt><trkpt lat="44.582825" lon="9.479525"><ele>1202.0</ele><time>2026-03-27T14:34:10.648Z</time></trkpt><trkpt lat="44.5827167" lon="9.479555"><ele>1202.0</ele><time>2026-03-27T14:34:11.648Z</time></trkpt><trkpt lat="44.5825967" lon="9.4795617"><ele>1202.0</ele><time>2026-03-27T14:34:12.647Z</time></trkpt><trkpt lat="44.5824667" lon="9.4795517"><ele>1202.25</ele><time>2026-03-27T14:34:13.649Z</time></trkpt><trkpt lat="44.582335" lon="9.4795167"><ele>1202.5</ele><time>2026-03-27T14:34:14.648Z</time></trkpt><trkpt lat="44.5822067" lon="9.4794633"><ele>1202.75</ele><time>2026-03-27T14:34:15.646Z</time></trkpt><trkpt lat="44.58208" lon="9.4794033"><ele>1203.0</ele><time>2026-03-27T14:34:16.646Z</time></trkpt><trkpt lat="44.5819667" lon="9.4793533"><ele>1203.0</ele><time>2026-03-27T14:34:17.648Z</time></trkpt><trkpt lat="44.5818683" lon="9.479305"><ele>1203.0</ele><time>2026-03-27T14:34:18.648Z</time></trkpt><trkpt lat="44.581775" lon="9.4793267"><ele>1203.0</ele><time>2026-03-27T14:34:19.646Z</time></trkpt><trkpt lat="44.5816883" lon="9.4793967"><ele>1203.0</ele><time>2026-03-27T14:34:20.648Z</time></trkpt><trkpt lat="44.581625" lon="9.4794933"><ele>1203.0</ele><time>2026-03-27T14:34:21.648Z</time></trkpt><trkpt lat="44.5815867" lon="9.479595"><ele>1201.0</ele><time>2026-03-27T14:34:22.648Z</time></trkpt><trkpt lat="44.5815817" lon="9.47971"><ele>1199.0</ele><time>2026-03-27T14:34:23.646Z</time></trkpt><trkpt lat="44.5815883" lon="9.4798433"><ele>1197.0</ele><time>2026-03-27T14:34:24.647Z</time></trkpt><trkpt lat="44.5816033" lon="9.4799833"><ele>1195.0</ele><time>2026-03-27T14:34:25.647Z</time></trkpt><trkpt lat="44.581635" lon="9.48014"><ele>1193.0</ele><time>2026-03-27T14:34:26.647Z</time></trkpt><trkpt lat="44.5816717" lon="9.4803267"><ele>1190.75</ele><time>2026-03-27T14:34:27.649Z</time></trkpt><trkpt lat="44.5817167" lon="9.480495"><ele>1188.5</ele><time>2026-03-27T14:34:28.648Z</time></trkpt><trkpt lat="44.581765" lon="9.4806867"><ele>1186.25</ele><time>2026-03-27T14:34:29.647Z</time></trkpt><trkpt lat="44.5818117" lon="9.48089"><ele>1184.0</ele><time>2026-03-27T14:34:30.648Z</time></trkpt><trkpt lat="44.5818533" lon="9.4810833"><ele>1182.0</ele><time>2026-03-27T14:34:31.648Z</time></trkpt><trkpt lat="44.581885" lon="9.4812683"><ele>1180.0</ele><time>2026-03-27T14:34:32.647Z</time></trkpt><trkpt lat="44.5819267" lon="9.48147"><ele>1178.0</ele><time>2026-03-27T14:34:33.646Z</time></trkpt><trkpt lat="44.5819617" lon="9.481665"><ele>1176.0</ele><time>2026-03-27T14:34:34.646Z</time></trkpt><trkpt lat="44.581985" lon="9.4818333"><ele>1176.0</ele><time>2026-03-27T14:34:35.647Z</time></trkpt><trkpt lat="44.581995" lon="9.4819983"><ele>1176.0</ele><time>2026-03-27T14:34:36.648Z</time></trkpt><trkpt lat="44.5819933" lon="9.48216"><ele>1176.0</ele><time>2026-03-27T14:34:37.648Z</time></trkpt><trkpt lat="44.5819683" lon="9.4823117"><ele>1176.0</ele><time>2026-03-27T14:34:38.648Z</time></trkpt><trkpt lat="44.58193" lon="9.4824533"><ele>1175.0</ele><time>2026-03-27T14:34:39.649Z</time></trkpt><trkpt lat="44.5818667" lon="9.48258"><ele>1174.0</ele><time>2026-03-27T14:34:40.648Z</time></trkpt><trkpt lat="44.5817817" lon="9.48264"><ele>1173.0</ele><time>2026-03-27T14:34:41.647Z</time></trkpt><trkpt lat="44.5816983" lon="9.4826683"><ele>1172.0</ele><time>2026-03-27T14:34:42.647Z</time></trkpt><trkpt lat="44.5816217" lon="9.4826317"><ele>1171.0</ele><time>2026-03-27T14:34:43.647Z</time></trkpt><trkpt lat="44.5815467" lon="9.4825483"><ele>1171.0</ele><time>2026-03-27T14:34:44.648Z</time></trkpt><trkpt lat="44.58148" lon="9.4824333"><ele>1171.0</ele><time>2026-03-27T14:34:45.648Z</time></trkpt><trkpt lat="44.5814183" lon="9.48232"><ele>1171.0</ele><time>2026-03-27T14:34:46.647Z</time></trkpt><trkpt lat="44.5813567" lon="9.4822167"><ele>1171.0</ele><time>2026-03-27T14:34:47.647Z</time></trkpt><trkpt lat="44.58129" lon="9.48215"><ele>1171.0</ele><time>2026-03-27T14:34:48.647Z</time></trkpt><trkpt lat="44.58123" lon="9.482105"><ele>1169.6666666666665</ele><time>2026-03-27T14:34:49.648Z</time></trkpt><trkpt lat="44.5811483" lon="9.4820967"><ele>1168.3333333333333</ele><time>2026-03-27T14:34:51.649Z</time></trkpt><trkpt lat="44.5811233" lon="9.4822033"><ele>1167.0</ele><time>2026-03-27T14:34:59.646Z</time></trkpt><trkpt lat="44.581135" lon="9.4823183"><ele>1165.6666666666667</ele><time>2026-03-27T14:35:01.649Z</time></trkpt><trkpt lat="44.581135" lon="9.48243"><ele>1164.3333333333335</ele><time>2026-03-27T14:35:02.649Z</time></trkpt><trkpt lat="44.5811167" lon="9.4825667"><ele>1163.0</ele><time>2026-03-27T14:35:03.646Z</time></trkpt><trkpt lat="44.5811" lon="9.4827017"><ele>1162.0</ele><time>2026-03-27T14:35:04.646Z</time></trkpt><trkpt lat="44.58108" lon="9.4828367"><ele>1161.0</ele><time>2026-03-27T14:35:05.651Z</time></trkpt><trkpt lat="44.5810433" lon="9.4829717"><ele>1160.0</ele><time>2026-03-27T14:35:06.648Z</time></trkpt><trkpt lat="44.581005" lon="9.4831033"><ele>1159.0</ele><time>2026-03-27T14:35:07.649Z</time></trkpt><trkpt lat="44.580975" lon="9.4832333"><ele>1158.0</ele><time>2026-03-27T14:35:08.646Z</time></trkpt><trkpt lat="44.5809667" lon="9.4833633"><ele>1156.2</ele><time>2026-03-27T14:35:09.647Z</time></trkpt><trkpt lat="44.5809717" lon="9.4834967"><ele>1154.4</ele><time>2026-03-27T14:35:10.647Z</time></trkpt><trkpt lat="44.580995" lon="9.483635"><ele>1152.6000000000001</ele><time>2026-03-27T14:35:11.647Z</time></trkpt><trkpt lat="44.5810367" lon="9.4837667"><ele>1150.8</ele><time>2026-03-27T14:35:12.647Z</time></trkpt><trkpt lat="44.581095" lon="9.4838933"><ele>1149.0</ele><time>2026-03-27T14:35:13.646Z</time></trkpt><trkpt lat="44.58117" lon="9.484015"><ele>1149.75</ele><time>2026-03-27T14:35:14.648Z</time></trkpt><trkpt lat="44.5812567" lon="9.4841283"><ele>1150.5</ele><time>2026-03-27T14:35:15.647Z</time></trkpt><trkpt lat="44.58135" lon="9.4842333"><ele>1151.25</ele><time>2026-03-27T14:35:16.648Z</time></trkpt><trkpt lat="44.5814517" lon="9.484315"><ele>1152.0</ele><time>2026-03-27T14:35:17.647Z</time></trkpt><trkpt lat="44.5815683" lon="9.4843767"><ele>1152.0</ele><time>2026-03-27T14:35:18.649Z</time></trkpt><trkpt lat="44.5816983" lon="9.48442"><ele>1152.0</ele><time>2026-03-27T14:35:19.647Z</time></trkpt><trkpt lat="44.5818267" lon="9.4844517"><ele>1152.0</ele><time>2026-03-27T14:35:20.648Z</time></trkpt><trkpt lat="44.5819517" lon="9.48447"><ele>1152.0</ele><time>2026-03-27T14:35:21.648Z</time></trkpt><trkpt lat="44.5820717" lon="9.4844767"><ele>1150.0</ele><time>2026-03-27T14:35:22.648Z</time></trkpt><trkpt lat="44.5821833" lon="9.4844533"><ele>1148.0</ele><time>2026-03-27T14:35:23.649Z</time></trkpt><trkpt lat="44.58229" lon="9.4843883"><ele>1146.0</ele><time>2026-03-27T14:35:24.648Z</time></trkpt><trkpt lat="44.5823817" lon="9.484285"><ele>1144.0</ele><time>2026-03-27T14:35:25.649Z</time></trkpt><trkpt lat="44.5824583" lon="9.4841517"><ele>1144.0</ele><time>2026-03-27T14:35:26.65Z</time></trkpt><trkpt lat="44.5825167" lon="9.4839983"><ele>1144.0</ele><time>2026-03-27T14:35:27.647Z</time></trkpt><trkpt lat="44.582575" lon="9.4838483"><ele>1144.0</ele><time>2026-03-27T14:35:28.646Z</time></trkpt><trkpt lat="44.5826483" lon="9.4837133"><ele>1144.0</ele><time>2026-03-27T14:35:29.648Z</time></trkpt><trkpt lat="44.5827533" lon="9.4836117"><ele>1142.0</ele><time>2026-03-27T14:35:30.646Z</time></trkpt><trkpt lat="44.5828667" lon="9.4835117"><ele>1140.0</ele><time>2026-03-27T14:35:31.651Z</time></trkpt><trkpt lat="44.5829767" lon="9.483415"><ele>1138.0</ele><time>2026-03-27T14:35:32.646Z</time></trkpt><trkpt lat="44.5830717" lon="9.4833167"><ele>1136.0</ele><time>2026-03-27T14:35:33.649Z</time></trkpt><trkpt lat="44.5831567" lon="9.4832033"><ele>1136.0</ele><time>2026-03-27T14:35:34.646Z</time></trkpt><trkpt lat="44.583225" lon="9.4830767"><ele>1136.0</ele><time>2026-03-27T14:35:35.647Z</time></trkpt><trkpt lat="44.583285" lon="9.4829433"><ele>1136.0</ele><time>2026-03-27T14:35:36.647Z</time></trkpt><trkpt lat="44.5833433" lon="9.4828"><ele>1136.0</ele><time>2026-03-27T14:35:37.647Z</time></trkpt><trkpt lat="44.5833983" lon="9.4826467"><ele>1139.5</ele><time>2026-03-27T14:35:38.647Z</time></trkpt><trkpt lat="44.5834433" lon="9.4824867"><ele>1143.0</ele><time>2026-03-27T14:35:39.646Z</time></trkpt><trkpt lat="44.583475" lon="9.48232"><ele>1146.5</ele><time>2026-03-27T14:35:40.647Z</time></trkpt><trkpt lat="44.5835" lon="9.482165"><ele>1150.0</ele><time>2026-03-27T14:35:41.646Z</time></trkpt><trkpt lat="44.5835317" lon="9.4820267"><ele>1151.2</ele><time>2026-03-27T14:35:42.648Z</time></trkpt><trkpt lat="44.5835817" lon="9.481915"><ele>1152.4</ele><time>2026-03-27T14:35:43.646Z</time></trkpt><trkpt lat="44.5836533" lon="9.48184"><ele>1153.6</ele><time>2026-03-27T14:35:44.648Z</time></trkpt><trkpt lat="44.5837417" lon="9.481815"><ele>1154.8</ele><time>2026-03-27T14:35:45.647Z</time></trkpt><trkpt lat="44.5838417" lon="9.4818233"><ele>1156.0</ele><time>2026-03-27T14:35:46.647Z</time></trkpt><trkpt lat="44.5839433" lon="9.4818433"><ele>1151.25</ele><time>2026-03-27T14:35:47.649Z</time></trkpt><trkpt lat="44.5840467" lon="9.4818433"><ele>1146.5</ele><time>2026-03-27T14:35:48.649Z</time></trkpt><trkpt lat="44.5841583" lon="9.481805"><ele>1141.75</ele><time>2026-03-27T14:35:49.646Z</time></trkpt><trkpt lat="44.5842717" lon="9.4817433"><ele>1137.0</ele><time>2026-03-27T14:35:50.651Z</time></trkpt><trkpt lat="44.5843817" lon="9.4816883"><ele>1137.0</ele><time>2026-03-27T14:35:51.646Z</time></trkpt><trkpt lat="44.5845" lon="9.481665"><ele>1137.0</ele><time>2026-03-27T14:35:52.646Z</time></trkpt><trkpt lat="44.5846183" lon="9.481685"><ele>1137.0</ele><time>2026-03-27T14:35:53.648Z</time></trkpt><trkpt lat="44.584735" lon="9.48174"><ele>1137.0</ele><time>2026-03-27T14:35:54.647Z</time></trkpt><trkpt lat="44.5848467" lon="9.4818233"><ele>1135.0</ele><time>2026-03-27T14:35:55.647Z</time></trkpt><trkpt lat="44.5849483" lon="9.4819117"><ele>1133.0</ele><time>2026-03-27T14:35:56.646Z</time></trkpt><trkpt lat="44.5850517" lon="9.4819717"><ele>1131.0</ele><time>2026-03-27T14:35:57.651Z</time></trkpt><trkpt lat="44.585165" lon="9.4819867"><ele>1129.0</ele><time>2026-03-27T14:35:58.647Z</time></trkpt><trkpt lat="44.5852883" lon="9.4819717"><ele>1128.0</ele><time>2026-03-27T14:35:59.646Z</time></trkpt><trkpt lat="44.585415" lon="9.481945"><ele>1127.0</ele><time>2026-03-27T14:36:00.647Z</time></trkpt><trkpt lat="44.5855483" lon="9.4819133"><ele>1126.0</ele><time>2026-03-27T14:36:01.646Z</time></trkpt><trkpt lat="44.5856767" lon="9.48188"><ele>1125.0</ele><time>2026-03-27T14:36:02.646Z</time></trkpt><trkpt lat="44.5858017" lon="9.4818467"><ele>1125.0</ele><time>2026-03-27T14:36:03.647Z</time></trkpt><trkpt lat="44.58592" lon="9.481815"><ele>1125.0</ele><time>2026-03-27T14:36:04.649Z</time></trkpt><trkpt lat="44.5860283" lon="9.4818083"><ele>1125.0</ele><time>2026-03-27T14:36:05.646Z</time></trkpt><trkpt lat="44.5861367" lon="9.4818333"><ele>1125.0</ele><time>2026-03-27T14:36:06.647Z</time></trkpt><trkpt lat="44.58624" lon="9.4818867"><ele>1125.0</ele><time>2026-03-27T14:36:07.647Z</time></trkpt><trkpt lat="44.5863383" lon="9.481965"><ele>1125.6</ele><time>2026-03-27T14:36:08.646Z</time></trkpt><trkpt lat="44.5864167" lon="9.4820533"><ele>1126.2</ele><time>2026-03-27T14:36:09.648Z</time></trkpt><trkpt lat="44.58646" lon="9.4821817"><ele>1126.8</ele><time>2026-03-27T14:36:10.646Z</time></trkpt><trkpt lat="44.586485" lon="9.4823183"><ele>1127.4</ele><time>2026-03-27T14:36:11.655Z</time></trkpt><trkpt lat="44.5865" lon="9.48245"><ele>1128.0</ele><time>2026-03-27T14:36:12.645Z</time></trkpt><trkpt lat="44.5864983" lon="9.4825783"><ele>1127.0</ele><time>2026-03-27T14:36:13.647Z</time></trkpt><trkpt lat="44.5864783" lon="9.4827017"><ele>1126.0</ele><time>2026-03-27T14:36:14.646Z</time></trkpt><trkpt lat="44.586435" lon="9.4828033"><ele>1125.0</ele><time>2026-03-27T14:36:15.646Z</time></trkpt><trkpt lat="44.5863767" lon="9.4828917"><ele>1124.0</ele><time>2026-03-27T14:36:16.646Z</time></trkpt><trkpt lat="44.5863133" lon="9.4829683"><ele>1123.0</ele><time>2026-03-27T14:36:17.646Z</time></trkpt><trkpt lat="44.5862467" lon="9.4830283"><ele>1122.0</ele><time>2026-03-27T14:36:18.647Z</time></trkpt><trkpt lat="44.5861767" lon="9.483065"><ele>1120.0</ele><time>2026-03-27T14:36:19.646Z</time></trkpt><trkpt lat="44.5860967" lon="9.4830917"><ele>1118.0</ele><time>2026-03-27T14:36:20.647Z</time></trkpt><trkpt lat="44.5860033" lon="9.4831217"><ele>1116.0</ele><time>2026-03-27T14:36:21.646Z</time></trkpt><trkpt lat="44.58591" lon="9.4831517"><ele>1114.0</ele><time>2026-03-27T14:36:22.646Z</time></trkpt><trkpt lat="44.5858183" lon="9.4831817"><ele>1112.0</ele><time>2026-03-27T14:36:23.646Z</time></trkpt><trkpt lat="44.58573" lon="9.483215"><ele>1112.0</ele><time>2026-03-27T14:36:24.647Z</time></trkpt><trkpt lat="44.5856467" lon="9.4832567"><ele>1112.0</ele><time>2026-03-27T14:36:25.647Z</time></trkpt><trkpt lat="44.58556" lon="9.4833167"><ele>1112.0</ele><time>2026-03-27T14:36:26.648Z</time></trkpt><trkpt lat="44.5854717" lon="9.4834017"><ele>1112.0</ele><time>2026-03-27T14:36:27.646Z</time></trkpt><trkpt lat="44.5853933" lon="9.4835083"><ele>1112.0</ele><time>2026-03-27T14:36:28.647Z</time></trkpt><trkpt lat="44.585335" lon="9.4836267"><ele>1112.5</ele><time>2026-03-27T14:36:29.647Z</time></trkpt><trkpt lat="44.5852967" lon="9.4837417"><ele>1113.0</ele><time>2026-03-27T14:36:30.647Z</time></trkpt><trkpt lat="44.5852683" lon="9.4838467"><ele>1113.5</ele><time>2026-03-27T14:36:31.649Z</time></trkpt><trkpt lat="44.5852433" lon="9.48395"><ele>1114.0</ele><time>2026-03-27T14:36:32.647Z</time></trkpt><trkpt lat="44.5852217" lon="9.4840483"><ele>1114.5</ele><time>2026-03-27T14:36:33.647Z</time></trkpt><trkpt lat="44.5851967" lon="9.484145"><ele>1115.0</ele><time>2026-03-27T14:36:34.646Z</time></trkpt><trkpt lat="44.58517" lon="9.4842383"><ele>1113.8333333333335</ele><time>2026-03-27T14:36:35.647Z</time></trkpt><trkpt lat="44.585135" lon="9.4843433"><ele>1112.6666666666667</ele><time>2026-03-27T14:36:36.646Z</time></trkpt><trkpt lat="44.5851017" lon="9.484455"><ele>1111.5</ele><time>2026-03-27T14:36:37.648Z</time></trkpt><trkpt lat="44.5850717" lon="9.48457"><ele>1110.3333333333333</ele><time>2026-03-27T14:36:38.649Z</time></trkpt><trkpt lat="44.5850383" lon="9.4846767"><ele>1109.1666666666665</ele><time>2026-03-27T14:36:39.646Z</time></trkpt><trkpt lat="44.5850117" lon="9.48478"><ele>1108.0</ele><time>2026-03-27T14:36:40.649Z</time></trkpt><trkpt lat="44.5849883" lon="9.48489"><ele>1106.6666666666665</ele><time>2026-03-27T14:36:41.646Z</time></trkpt><trkpt lat="44.5849783" lon="9.4850067"><ele>1105.3333333333333</ele><time>2026-03-27T14:36:42.647Z</time></trkpt><trkpt lat="44.58498" lon="9.4851233"><ele>1104.0</ele><time>2026-03-27T14:36:43.647Z</time></trkpt><trkpt lat="44.5850083" lon="9.4852333"><ele>1102.6666666666667</ele><time>2026-03-27T14:36:44.647Z</time></trkpt><trkpt lat="44.5850567" lon="9.4853317"><ele>1101.3333333333335</ele><time>2026-03-27T14:36:45.646Z</time></trkpt><trkpt lat="44.58513" lon="9.4854117"><ele>1100.0</ele><time>2026-03-27T14:36:46.648Z</time></trkpt><trkpt lat="44.5852333" lon="9.4854317"><ele>1100.0</ele><time>2026-03-27T14:36:47.646Z</time></trkpt><trkpt lat="44.5853317" lon="9.4854167"><ele>1100.0</ele><time>2026-03-27T14:36:48.647Z</time></trkpt><trkpt lat="44.5854317" lon="9.4853467"><ele>1100.0</ele><time>2026-03-27T14:36:49.647Z</time></trkpt><trkpt lat="44.5855217" lon="9.4852533"><ele>1100.0</ele><time>2026-03-27T14:36:50.647Z</time></trkpt><trkpt lat="44.5856017" lon="9.4851533"><ele>1100.0</ele><time>2026-03-27T14:36:51.648Z</time></trkpt><trkpt lat="44.5856733" lon="9.4850533"><ele>1098.0</ele><time>2026-03-27T14:36:52.647Z</time></trkpt><trkpt lat="44.5857467" lon="9.4849533"><ele>1096.0</ele><time>2026-03-27T14:36:53.649Z</time></trkpt><trkpt lat="44.5858167" lon="9.4848617"><ele>1094.0</ele><time>2026-03-27T14:36:54.648Z</time></trkpt><trkpt lat="44.58589" lon="9.4847733"><ele>1092.0</ele><time>2026-03-27T14:36:55.647Z</time></trkpt><trkpt lat="44.5859733" lon="9.484695"><ele>1090.0</ele><time>2026-03-27T14:36:56.648Z</time></trkpt><trkpt lat="44.5860683" lon="9.484625"><ele>1091.75</ele><time>2026-03-27T14:36:57.647Z</time></trkpt><trkpt lat="44.5861767" lon="9.4845667"><ele>1093.5</ele><time>2026-03-27T14:36:58.647Z</time></trkpt><trkpt lat="44.586295" lon="9.4845233"><ele>1095.25</ele><time>2026-03-27T14:36:59.646Z</time></trkpt><trkpt lat="44.58642" lon="9.48448"><ele>1097.0</ele><time>2026-03-27T14:37:00.646Z</time></trkpt><trkpt lat="44.5865483" lon="9.4844417"><ele>1097.0</ele><time>2026-03-27T14:37:01.646Z</time></trkpt><trkpt lat="44.5866817" lon="9.484405"><ele>1097.0</ele><time>2026-03-27T14:37:02.648Z</time></trkpt><trkpt lat="44.586815" lon="9.48438"><ele>1097.0</ele><time>2026-03-27T14:37:03.646Z</time></trkpt><trkpt lat="44.5869467" lon="9.4843667"><ele>1097.0</ele><time>2026-03-27T14:37:04.647Z</time></trkpt><trkpt lat="44.5870783" lon="9.4843683"><ele>1094.5</ele><time>2026-03-27T14:37:05.648Z</time></trkpt><trkpt lat="44.5872117" lon="9.4843683"><ele>1092.0</ele><time>2026-03-27T14:37:06.648Z</time></trkpt><trkpt lat="44.5873433" lon="9.4843633"><ele>1089.5</ele><time>2026-03-27T14:37:07.65Z</time></trkpt><trkpt lat="44.587465" lon="9.48435"><ele>1087.0</ele><time>2026-03-27T14:37:08.647Z</time></trkpt><trkpt lat="44.5875783" lon="9.484305"><ele>1087.0</ele><time>2026-03-27T14:37:09.649Z</time></trkpt><trkpt lat="44.5876783" lon="9.4842067"><ele>1087.0</ele><time>2026-03-27T14:37:10.646Z</time></trkpt><trkpt lat="44.587755" lon="9.4840683"><ele>1087.0</ele><time>2026-03-27T14:37:11.646Z</time></trkpt><trkpt lat="44.5878183" lon="9.4839"><ele>1087.0</ele><time>2026-03-27T14:37:12.646Z</time></trkpt><trkpt lat="44.58788" lon="9.4837267"><ele>1085.75</ele><time>2026-03-27T14:37:13.646Z</time></trkpt><trkpt lat="44.587955" lon="9.4835583"><ele>1084.5</ele><time>2026-03-27T14:37:14.65Z</time></trkpt><trkpt lat="44.5880317" lon="9.4833983"><ele>1083.25</ele><time>2026-03-27T14:37:15.646Z</time></trkpt><trkpt lat="44.5881217" lon="9.48327"><ele>1082.0</ele><time>2026-03-27T14:37:16.645Z</time></trkpt><trkpt lat="44.5882333" lon="9.4831933"><ele>1082.0</ele><time>2026-03-27T14:37:17.648Z</time></trkpt><trkpt lat="44.5883517" lon="9.4831617"><ele>1082.0</ele><time>2026-03-27T14:37:18.647Z</time></trkpt><trkpt lat="44.5884833" lon="9.4831683"><ele>1082.0</ele><time>2026-03-27T14:37:19.65Z</time></trkpt><trkpt lat="44.5886283" lon="9.4831783"><ele>1082.0</ele><time>2026-03-27T14:37:20.649Z</time></trkpt><trkpt lat="44.588785" lon="9.4832033"><ele>1078.6666666666667</ele><time>2026-03-27T14:37:21.647Z</time></trkpt><trkpt lat="44.58894" lon="9.48322"><ele>1075.3333333333333</ele><time>2026-03-27T14:37:22.646Z</time></trkpt><trkpt lat="44.5890933" lon="9.48324"><ele>1072.0</ele><time>2026-03-27T14:37:23.648Z</time></trkpt><trkpt lat="44.5892483" lon="9.4832517"><ele>1072.0</ele><time>2026-03-27T14:37:24.646Z</time></trkpt><trkpt lat="44.5893983" lon="9.4832733"><ele>1072.0</ele><time>2026-03-27T14:37:25.65Z</time></trkpt><trkpt lat="44.5895383" lon="9.4832867"><ele>1072.0</ele><time>2026-03-27T14:37:26.648Z</time></trkpt><trkpt lat="44.5896633" lon="9.4832933"><ele>1072.0</ele><time>2026-03-27T14:37:27.648Z</time></trkpt><trkpt lat="44.5897767" lon="9.48328"><ele>1070.0</ele><time>2026-03-27T14:37:28.649Z</time></trkpt><trkpt lat="44.589885" lon="9.4832267"><ele>1068.0</ele><time>2026-03-27T14:37:29.647Z</time></trkpt><trkpt lat="44.5900017" lon="9.4831217"><ele>1066.0</ele><time>2026-03-27T14:37:30.647Z</time></trkpt><trkpt lat="44.5901267" lon="9.4829833"><ele>1064.0</ele><time>2026-03-27T14:37:31.648Z</time></trkpt><trkpt lat="44.590255" lon="9.48287"><ele>1065.6666666666667</ele><time>2026-03-27T14:37:32.649Z</time></trkpt><trkpt lat="44.5903867" lon="9.4827717"><ele>1067.3333333333333</ele><time>2026-03-27T14:37:33.649Z</time></trkpt><trkpt lat="44.5905233" lon="9.48269"><ele>1069.0</ele><time>2026-03-27T14:37:34.647Z</time></trkpt><trkpt lat="44.5906767" lon="9.48261"><ele>1069.0</ele><time>2026-03-27T14:37:35.647Z</time></trkpt><trkpt lat="44.59084" lon="9.4825667"><ele>1069.0</ele><time>2026-03-27T14:37:36.648Z</time></trkpt><trkpt lat="44.591" lon="9.4825533"><ele>1069.0</ele><time>2026-03-27T14:37:37.647Z</time></trkpt><trkpt lat="44.5911567" lon="9.482555"><ele>1065.75</ele><time>2026-03-27T14:37:38.65Z</time></trkpt><trkpt lat="44.5912983" lon="9.4825417"><ele>1062.5</ele><time>2026-03-27T14:37:39.647Z</time></trkpt><trkpt lat="44.59142" lon="9.48255"><ele>1059.25</ele><time>2026-03-27T14:37:40.648Z</time></trkpt><trkpt lat="44.591515" lon="9.48259"><ele>1056.0</ele><time>2026-03-27T14:37:41.648Z</time></trkpt><trkpt lat="44.5915983" lon="9.4826567"><ele>1056.0</ele><time>2026-03-27T14:37:42.647Z</time></trkpt><trkpt lat="44.59165" lon="9.4827567"><ele>1056.0</ele><time>2026-03-27T14:37:43.648Z</time></trkpt><trkpt lat="44.5916783" lon="9.4828717"><ele>1056.0</ele><time>2026-03-27T14:37:44.647Z</time></trkpt><trkpt lat="44.5916317" lon="9.4829683"><ele>1056.0</ele><time>2026-03-27T14:37:45.647Z</time></trkpt><trkpt lat="44.5915383" lon="9.483025"><ele>1056.0</ele><time>2026-03-27T14:37:46.647Z</time></trkpt><trkpt lat="44.5914483" lon="9.4830383"><ele>1054.0</ele><time>2026-03-27T14:37:47.648Z</time></trkpt><trkpt lat="44.591315" lon="9.483055"><ele>1052.0</ele><time>2026-03-27T14:37:48.647Z</time></trkpt><trkpt lat="44.5911583" lon="9.4830533"><ele>1050.0</ele><time>2026-03-27T14:37:49.648Z</time></trkpt><trkpt lat="44.5910067" lon="9.4830417"><ele>1048.0</ele><time>2026-03-27T14:37:50.651Z</time></trkpt><trkpt lat="44.5908583" lon="9.4830383"><ele>1048.0</ele><time>2026-03-27T14:37:51.647Z</time></trkpt><trkpt lat="44.5907283" lon="9.48304"><ele>1048.0</ele><time>2026-03-27T14:37:52.651Z</time></trkpt><trkpt lat="44.5906" lon="9.48307"><ele>1048.0</ele><time>2026-03-27T14:37:53.646Z</time></trkpt><trkpt lat="44.5904767" lon="9.48312"><ele>1048.0</ele><time>2026-03-27T14:37:54.647Z</time></trkpt><trkpt lat="44.5903683" lon="9.4832017"><ele>1048.5</ele><time>2026-03-27T14:37:55.647Z</time></trkpt><trkpt lat="44.5902833" lon="9.48333"><ele>1049.0</ele><time>2026-03-27T14:37:56.648Z</time></trkpt><trkpt lat="44.5902217" lon="9.483505"><ele>1049.5</ele><time>2026-03-27T14:37:57.648Z</time></trkpt><trkpt lat="44.59019" lon="9.4837017"><ele>1050.0</ele><time>2026-03-27T14:37:58.647Z</time></trkpt><trkpt lat="44.5901717" lon="9.48392"><ele>1050.0</ele><time>2026-03-27T14:37:59.648Z</time></trkpt><trkpt lat="44.5901617" lon="9.4841383"><ele>1050.0</ele><time>2026-03-27T14:38:00.647Z</time></trkpt><trkpt lat="44.5901417" lon="9.4843333"><ele>1050.0</ele><time>2026-03-27T14:38:01.647Z</time></trkpt><trkpt lat="44.590095" lon="9.484525"><ele>1050.0</ele><time>2026-03-27T14:38:02.647Z</time></trkpt><trkpt lat="44.590025" lon="9.48468"><ele>1046.0</ele><time>2026-03-27T14:38:03.648Z</time></trkpt><trkpt lat="44.5899167" lon="9.4848017"><ele>1042.0</ele><time>2026-03-27T14:38:04.648Z</time></trkpt><trkpt lat="44.5897883" lon="9.48491"><ele>1038.0</ele><time>2026-03-27T14:38:05.647Z</time></trkpt><trkpt lat="44.5896567" lon="9.4849967"><ele>1034.0</ele><time>2026-03-27T14:38:06.649Z</time></trkpt><trkpt lat="44.5895267" lon="9.485095"><ele>1032.8</ele><time>2026-03-27T14:38:07.65Z</time></trkpt><trkpt lat="44.589415" lon="9.4851933"><ele>1031.6000000000001</ele><time>2026-03-27T14:38:08.648Z</time></trkpt><trkpt lat="44.589325" lon="9.4852617"><ele>1030.4</ele><time>2026-03-27T14:38:09.649Z</time></trkpt><trkpt lat="44.5892633" lon="9.485345"><ele>1029.2</ele><time>2026-03-27T14:38:10.648Z</time></trkpt><trkpt lat="44.5892167" lon="9.485445"><ele>1028.0</ele><time>2026-03-27T14:38:11.646Z</time></trkpt><trkpt lat="44.5892133" lon="9.485545"><ele>1028.0</ele><time>2026-03-27T14:38:12.652Z</time></trkpt><trkpt lat="44.5892317" lon="9.4856417"><ele>1028.0</ele><time>2026-03-27T14:38:13.647Z</time></trkpt><trkpt lat="44.58931" lon="9.4856967"><ele>1028.0</ele><time>2026-03-27T14:38:14.648Z</time></trkpt><trkpt lat="44.589385" lon="9.485755"><ele>1028.0</ele><time>2026-03-27T14:38:15.647Z</time></trkpt><trkpt lat="44.5894567" lon="9.485795"><ele>1028.0</ele><time>2026-03-27T14:38:16.648Z</time></trkpt><trkpt lat="44.589525" lon="9.4858067"><ele>1028.0</ele><time>2026-03-27T14:38:17.647Z</time></trkpt><trkpt lat="44.5896467" lon="9.4856817"><ele>1030.0</ele><time>2026-03-27T14:38:18.648Z</time></trkpt><trkpt lat="44.5897733" lon="9.48554"><ele>1032.0</ele><time>2026-03-27T14:38:19.647Z</time></trkpt><trkpt lat="44.5899117" lon="9.4853933"><ele>1034.0</ele><time>2026-03-27T14:38:20.647Z</time></trkpt><trkpt lat="44.59005" lon="9.4852433"><ele>1034.0</ele><time>2026-03-27T14:38:21.647Z</time></trkpt><trkpt lat="44.59018" lon="9.4851167"><ele>1034.0</ele><time>2026-03-27T14:38:22.647Z</time></trkpt><trkpt lat="44.5903033" lon="9.48499"><ele>1034.0</ele><time>2026-03-27T14:38:23.65Z</time></trkpt><trkpt lat="44.590405" lon="9.4848617"><ele>1034.0</ele><time>2026-03-27T14:38:24.648Z</time></trkpt><trkpt lat="44.5904833" lon="9.4847067"><ele>1031.0</ele><time>2026-03-27T14:38:25.647Z</time></trkpt><trkpt lat="44.5905583" lon="9.48453"><ele>1028.0</ele><time>2026-03-27T14:38:26.649Z</time></trkpt><trkpt lat="44.59064" lon="9.4843533"><ele>1025.0</ele><time>2026-03-27T14:38:27.648Z</time></trkpt><trkpt lat="44.5907333" lon="9.4842067"><ele>1022.0</ele><time>2026-03-27T14:38:28.651Z</time></trkpt><trkpt lat="44.5908367" lon="9.4840833"><ele>1022.0</ele><time>2026-03-27T14:38:29.647Z</time></trkpt><trkpt lat="44.5909517" lon="9.4839983"><ele>1022.0</ele><time>2026-03-27T14:38:30.648Z</time></trkpt><trkpt lat="44.5910817" lon="9.483965"><ele>1022.0</ele><time>2026-03-27T14:38:31.647Z</time></trkpt><trkpt lat="44.5912133" lon="9.4839683"><ele>1022.0</ele><time>2026-03-27T14:38:32.648Z</time></trkpt><trkpt lat="44.5913667" lon="9.4839883"><ele>1019.0</ele><time>2026-03-27T14:38:33.647Z</time></trkpt><trkpt lat="44.5915383" lon="9.484005"><ele>1016.0</ele><time>2026-03-27T14:38:34.647Z</time></trkpt><trkpt lat="44.5916983" lon="9.4840183"><ele>1013.0</ele><time>2026-03-27T14:38:35.648Z</time></trkpt><trkpt lat="44.5918567" lon="9.4840367"><ele>1010.6666666666667</ele><time>2026-03-27T14:38:36.647Z</time></trkpt><trkpt lat="44.5920117" lon="9.4840383"><ele>1008.3333333333333</ele><time>2026-03-27T14:38:37.648Z</time></trkpt><trkpt lat="44.5921667" lon="9.4840467"><ele>1006.0</ele><time>2026-03-27T14:38:38.649Z</time></trkpt><trkpt lat="44.5923233" lon="9.484055"><ele>1006.0</ele><time>2026-03-27T14:38:39.649Z</time></trkpt><trkpt lat="44.592475" lon="9.484075"><ele>1006.0</ele><time>2026-03-27T14:38:40.647Z</time></trkpt><trkpt lat="44.5926283" lon="9.4840783"><ele>1006.0</ele><time>2026-03-27T14:38:41.647Z</time></trkpt><trkpt lat="44.5927683" lon="9.4840867"><ele>1006.0</ele><time>2026-03-27T14:38:42.649Z</time></trkpt><trkpt lat="44.5929033" lon="9.484105"><ele>1006.75</ele><time>2026-03-27T14:38:43.647Z</time></trkpt><trkpt lat="44.59303" lon="9.48414"><ele>1007.5</ele><time>2026-03-27T14:38:44.647Z</time></trkpt><trkpt lat="44.5931433" lon="9.4842017"><ele>1008.25</ele><time>2026-03-27T14:38:45.647Z</time></trkpt><trkpt lat="44.5932383" lon="9.4843"><ele>1009.0</ele><time>2026-03-27T14:38:46.648Z</time></trkpt><trkpt lat="44.5933017" lon="9.4844467"><ele>1004.25</ele><time>2026-03-27T14:38:47.647Z</time></trkpt><trkpt lat="44.5933417" lon="9.48461"><ele>999.5</ele><time>2026-03-27T14:38:48.647Z</time></trkpt><trkpt lat="44.5933817" lon="9.484775"><ele>994.75</ele><time>2026-03-27T14:38:49.65Z</time></trkpt><trkpt lat="44.5934467" lon="9.4849133"><ele>990.0</ele><time>2026-03-27T14:38:50.648Z</time></trkpt><trkpt lat="44.5935417" lon="9.4850283"><ele>990.0</ele><time>2026-03-27T14:38:51.648Z</time></trkpt><trkpt lat="44.5936517" lon="9.4851217"><ele>990.0</ele><time>2026-03-27T14:38:52.647Z</time></trkpt><trkpt lat="44.593765" lon="9.48517"><ele>990.0</ele><time>2026-03-27T14:38:53.648Z</time></trkpt><trkpt lat="44.5938667" lon="9.48517"><ele>990.0</ele><time>2026-03-27T14:38:54.648Z</time></trkpt><trkpt lat="44.5939617" lon="9.485125"><ele>990.0</ele><time>2026-03-27T14:38:55.648Z</time></trkpt><trkpt lat="44.5940467" lon="9.484995"><ele>991.25</ele><time>2026-03-27T14:38:56.647Z</time></trkpt><trkpt lat="44.5941183" lon="9.48484"><ele>992.5</ele><time>2026-03-27T14:38:57.648Z</time></trkpt><trkpt lat="44.5941933" lon="9.484665"><ele>993.75</ele><time>2026-03-27T14:38:58.647Z</time></trkpt><trkpt lat="44.59428" lon="9.4845117"><ele>995.0</ele><time>2026-03-27T14:38:59.648Z</time></trkpt><trkpt lat="44.5943817" lon="9.4843867"><ele>993.75</ele><time>2026-03-27T14:39:00.647Z</time></trkpt><trkpt lat="44.594505" lon="9.4842933"><ele>992.5</ele><time>2026-03-27T14:39:01.647Z</time></trkpt><trkpt lat="44.5946417" lon="9.4842283"><ele>991.25</ele><time>2026-03-27T14:39:02.65Z</time></trkpt><trkpt lat="44.5947867" lon="9.4841817"><ele>990.0</ele><time>2026-03-27T14:39:03.648Z</time></trkpt><trkpt lat="44.594925" lon="9.4841417"><ele>990.0</ele><time>2026-03-27T14:39:04.648Z</time></trkpt><trkpt lat="44.5950617" lon="9.48411"><ele>990.0</ele><time>2026-03-27T14:39:05.647Z</time></trkpt><trkpt lat="44.5951933" lon="9.48408"><ele>990.0</ele><time>2026-03-27T14:39:06.646Z</time></trkpt><trkpt lat="44.595335" lon="9.4840883"><ele>990.0</ele><time>2026-03-27T14:39:07.647Z</time></trkpt><trkpt lat="44.595465" lon="9.4841433"><ele>991.0</ele><time>2026-03-27T14:39:08.648Z</time></trkpt><trkpt lat="44.5955917" lon="9.484255"><ele>992.0</ele><time>2026-03-27T14:39:09.647Z</time></trkpt><trkpt lat="44.59571" lon="9.4843733"><ele>993.0</ele><time>2026-03-27T14:39:10.647Z</time></trkpt><trkpt lat="44.5958183" lon="9.484485"><ele>994.0</ele><time>2026-03-27T14:39:11.647Z</time></trkpt><trkpt lat="44.59592" lon="9.48459"><ele>989.5</ele><time>2026-03-27T14:39:12.646Z</time></trkpt><trkpt lat="44.5960233" lon="9.4846833"><ele>985.0</ele><time>2026-03-27T14:39:13.648Z</time></trkpt><trkpt lat="44.5961367" lon="9.4847517"><ele>980.5</ele><time>2026-03-27T14:39:14.65Z</time></trkpt><trkpt lat="44.59626" lon="9.4847767"><ele>976.0</ele><time>2026-03-27T14:39:15.648Z</time></trkpt><trkpt lat="44.596385" lon="9.484745"><ele>975.5</ele><time>2026-03-27T14:39:16.647Z</time></trkpt><trkpt lat="44.5965233" lon="9.48468"><ele>975.0</ele><time>2026-03-27T14:39:17.647Z</time></trkpt><trkpt lat="44.5966567" lon="9.4846181"><ele>974.5</ele><time>2026-03-27T14:39:18.647Z</time></trkpt><trkpt lat="44.5967863" lon="9.4845577"><ele>974.0</ele><time>2026-03-27T14:39:19.647Z</time></trkpt><trkpt lat="44.5969084" lon="9.4844881"><ele>973.0</ele><time>2026-03-27T14:39:20.648Z</time></trkpt><trkpt lat="44.5970193" lon="9.4843966"><ele>972.0</ele><time>2026-03-27T14:39:21.649Z</time></trkpt><trkpt lat="44.597122" lon="9.4842687"><ele>971.0</ele><time>2026-03-27T14:39:22.652Z</time></trkpt><trkpt lat="44.5972137" lon="9.4840983"><ele>970.0</ele><time>2026-03-27T14:39:23.648Z</time></trkpt><trkpt lat="44.5973009" lon="9.4839137"><ele>972.75</ele><time>2026-03-27T14:39:24.647Z</time></trkpt><trkpt lat="44.5973975" lon="9.4837397"><ele>975.5</ele><time>2026-03-27T14:39:25.649Z</time></trkpt><trkpt lat="44.5975076" lon="9.4835971"><ele>978.25</ele><time>2026-03-27T14:39:26.65Z</time></trkpt><trkpt lat="44.5976273" lon="9.4834883"><ele>981.0</ele><time>2026-03-27T14:39:27.648Z</time></trkpt><trkpt lat="44.5977448" lon="9.483422"><ele>982.25</ele><time>2026-03-27T14:39:28.651Z</time></trkpt><trkpt lat="44.5978562" lon="9.4833833"><ele>983.5</ele><time>2026-03-27T14:39:29.65Z</time></trkpt><trkpt lat="44.5979657" lon="9.4833847"><ele>984.75</ele><time>2026-03-27T14:39:30.647Z</time></trkpt><trkpt lat="44.5980727" lon="9.4834362"><ele>986.0</ele><time>2026-03-27T14:39:31.647Z</time></trkpt><trkpt lat="44.5981612" lon="9.4835442"><ele>986.0</ele><time>2026-03-27T14:39:32.647Z</time></trkpt><trkpt lat="44.5982239" lon="9.4837004"><ele>986.0</ele><time>2026-03-27T14:39:33.649Z</time></trkpt><trkpt lat="44.5982868" lon="9.4838537"><ele>986.0</ele><time>2026-03-27T14:39:34.647Z</time></trkpt><trkpt lat="44.5983832" lon="9.4839748"><ele>986.0</ele><time>2026-03-27T14:39:35.647Z</time></trkpt><trkpt lat="44.5985071" lon="9.4840635"><ele>981.3333333333334</ele><time>2026-03-27T14:39:36.648Z</time></trkpt><trkpt lat="44.5986503" lon="9.4841272"><ele>976.6666666666667</ele><time>2026-03-27T14:39:37.647Z</time></trkpt><trkpt lat="44.5988025" lon="9.4841713"><ele>972.0</ele><time>2026-03-27T14:39:38.647Z</time></trkpt><trkpt lat="44.5989594" lon="9.4842132"><ele>972.0</ele><time>2026-03-27T14:39:39.648Z</time></trkpt><trkpt lat="44.5991202" lon="9.4842589"><ele>972.0</ele><time>2026-03-27T14:39:40.649Z</time></trkpt><trkpt lat="44.599283" lon="9.4842944"><ele>972.0</ele><time>2026-03-27T14:39:41.647Z</time></trkpt><trkpt lat="44.5994394" lon="9.48434"><ele>972.75</ele><time>2026-03-27T14:39:42.647Z</time></trkpt><trkpt lat="44.5995777" lon="9.4843997"><ele>973.5</ele><time>2026-03-27T14:39:43.647Z</time></trkpt><trkpt lat="44.5996929" lon="9.4844934"><ele>974.25</ele><time>2026-03-27T14:39:44.647Z</time></trkpt><trkpt lat="44.5997893" lon="9.4846295"><ele>975.0</ele><time>2026-03-27T14:39:45.649Z</time></trkpt><trkpt lat="44.599862" lon="9.4848152"><ele>970.75</ele><time>2026-03-27T14:39:46.649Z</time></trkpt><trkpt lat="44.599921" lon="9.4850053"><ele>966.5</ele><time>2026-03-27T14:39:47.648Z</time></trkpt><trkpt lat="44.5999919" lon="9.485168"><ele>962.25</ele><time>2026-03-27T14:39:48.649Z</time></trkpt><trkpt lat="44.600089" lon="9.4852686"><ele>958.0</ele><time>2026-03-27T14:39:49.647Z</time></trkpt><trkpt lat="44.6001999" lon="9.4853043"><ele>958.0</ele><time>2026-03-27T14:39:50.65Z</time></trkpt><trkpt lat="44.6003113" lon="9.485272"><ele>958.0</ele><time>2026-03-27T14:39:51.647Z</time></trkpt><trkpt lat="44.6004094" lon="9.485175"><ele>958.0</ele><time>2026-03-27T14:39:52.648Z</time></trkpt><trkpt lat="44.6004922" lon="9.485034"><ele>958.0</ele><time>2026-03-27T14:39:53.648Z</time></trkpt><trkpt lat="44.600577" lon="9.4848711"><ele>959.6666666666666</ele><time>2026-03-27T14:39:54.648Z</time></trkpt><trkpt lat="44.6006827" lon="9.4847154"><ele>961.3333333333333</ele><time>2026-03-27T14:39:55.647Z</time></trkpt><trkpt lat="44.6008124" lon="9.4845802"><ele>963.0</ele><time>2026-03-27T14:39:56.648Z</time></trkpt><trkpt lat="44.6009569" lon="9.4844731"><ele>963.0</ele><time>2026-03-27T14:39:57.647Z</time></trkpt><trkpt lat="44.6011102" lon="9.4843808"><ele>963.0</ele><time>2026-03-27T14:39:58.648Z</time></trkpt><trkpt lat="44.6012665" lon="9.4842865"><ele>963.0</ele><time>2026-03-27T14:39:59.647Z</time></trkpt><trkpt lat="44.6014275" lon="9.4841921"><ele>959.0</ele><time>2026-03-27T14:40:00.648Z</time></trkpt><trkpt lat="44.6015884" lon="9.4841049"><ele>955.0</ele><time>2026-03-27T14:40:01.648Z</time></trkpt><trkpt lat="44.6017441" lon="9.4840224"><ele>951.0</ele><time>2026-03-27T14:40:02.648Z</time></trkpt><trkpt lat="44.6018915" lon="9.4839482"><ele>951.25</ele><time>2026-03-27T14:40:03.648Z</time></trkpt><trkpt lat="44.6020319" lon="9.4838792"><ele>951.5</ele><time>2026-03-27T14:40:04.648Z</time></trkpt><trkpt lat="44.6021614" lon="9.4838009"><ele>951.75</ele><time>2026-03-27T14:40:05.647Z</time></trkpt><trkpt lat="44.6022725" lon="9.4837044"><ele>952.0</ele><time>2026-03-27T14:40:06.649Z</time></trkpt><trkpt lat="44.6023479" lon="9.4835899"><ele>952.0</ele><time>2026-03-27T14:40:07.646Z</time></trkpt><trkpt lat="44.6023882" lon="9.483448"><ele>952.0</ele><time>2026-03-27T14:40:08.649Z</time></trkpt><trkpt lat="44.6023908" lon="9.483293"><ele>952.0</ele><time>2026-03-27T14:40:09.647Z</time></trkpt><trkpt lat="44.6023774" lon="9.4831262"><ele>952.0</ele><time>2026-03-27T14:40:10.648Z</time></trkpt><trkpt lat="44.6023847" lon="9.4829658"><ele>954.8</ele><time>2026-03-27T14:40:11.647Z</time></trkpt><trkpt lat="44.6024252" lon="9.4828161"><ele>957.6</ele><time>2026-03-27T14:40:12.647Z</time></trkpt><trkpt lat="44.60249" lon="9.4827046"><ele>960.3999999999999</ele><time>2026-03-27T14:40:13.649Z</time></trkpt><trkpt lat="44.6025773" lon="9.4826248"><ele>963.1999999999999</ele><time>2026-03-27T14:40:14.647Z</time></trkpt><trkpt lat="44.6026764" lon="9.4825992"><ele>966.0</ele><time>2026-03-27T14:40:15.648Z</time></trkpt><trkpt lat="44.6028002" lon="9.4826651"><ele>965.0</ele><time>2026-03-27T14:40:16.647Z</time></trkpt><trkpt lat="44.6029374" lon="9.4827844"><ele>964.0</ele><time>2026-03-27T14:40:17.647Z</time></trkpt><trkpt lat="44.6030957" lon="9.4829339"><ele>963.0</ele><time>2026-03-27T14:40:18.648Z</time></trkpt><trkpt lat="44.6032364" lon="9.4830742"><ele>958.0</ele><time>2026-03-27T14:40:19.648Z</time></trkpt><trkpt lat="44.6033657" lon="9.4831738"><ele>953.0</ele><time>2026-03-27T14:40:20.647Z</time></trkpt><trkpt lat="44.6034936" lon="9.4832304"><ele>948.0</ele><time>2026-03-27T14:40:21.65Z</time></trkpt><trkpt lat="44.6036264" lon="9.4832459"><ele>943.0</ele><time>2026-03-27T14:40:22.648Z</time></trkpt><trkpt lat="44.603759" lon="9.4832178"><ele>943.0</ele><time>2026-03-27T14:40:23.648Z</time></trkpt><trkpt lat="44.6038855" lon="9.4832026"><ele>943.0</ele><time>2026-03-27T14:40:24.647Z</time></trkpt><trkpt lat="44.6040001" lon="9.4832518"><ele>943.0</ele><time>2026-03-27T14:40:25.648Z</time></trkpt><trkpt lat="44.6041063" lon="9.4833574"><ele>943.0</ele><time>2026-03-27T14:40:26.647Z</time></trkpt><trkpt lat="44.6042112" lon="9.4835016"><ele>943.0</ele><time>2026-03-27T14:40:27.648Z</time></trkpt><trkpt lat="44.6043221" lon="9.4836551"><ele>943.0</ele><time>2026-03-27T14:40:28.649Z</time></trkpt><trkpt lat="44.6044308" lon="9.48381"><ele>943.0</ele><time>2026-03-27T14:40:29.646Z</time></trkpt><trkpt lat="44.6045389" lon="9.4839445"><ele>939.0</ele><time>2026-03-27T14:40:30.647Z</time></trkpt><trkpt lat="44.6046485" lon="9.4840373"><ele>935.0</ele><time>2026-03-27T14:40:31.648Z</time></trkpt><trkpt lat="44.6047644" lon="9.4840785"><ele>931.0</ele><time>2026-03-27T14:40:32.648Z</time></trkpt><trkpt lat="44.604896" lon="9.4840518"><ele>927.0</ele><time>2026-03-27T14:40:33.648Z</time></trkpt><trkpt lat="44.6050289" lon="9.4839711"><ele>927.0</ele><time>2026-03-27T14:40:34.651Z</time></trkpt><trkpt lat="44.6051545" lon="9.4838576"><ele>927.0</ele><time>2026-03-27T14:40:35.648Z</time></trkpt><trkpt lat="44.6052763" lon="9.4837132"><ele>927.0</ele><time>2026-03-27T14:40:36.648Z</time></trkpt><trkpt lat="44.6053914" lon="9.4836016"><ele>927.0</ele><time>2026-03-27T14:40:37.647Z</time></trkpt><trkpt lat="44.6055143" lon="9.48354"><ele>930.0</ele><time>2026-03-27T14:40:38.647Z</time></trkpt><trkpt lat="44.6056446" lon="9.4834985"><ele>933.0</ele><time>2026-03-27T14:40:39.647Z</time></trkpt><trkpt lat="44.6057823" lon="9.4835071"><ele>936.0</ele><time>2026-03-27T14:40:40.647Z</time></trkpt><trkpt lat="44.6059266" lon="9.4835548"><ele>939.0</ele><time>2026-03-27T14:40:41.648Z</time></trkpt><trkpt lat="44.6060679" lon="9.4836355"><ele>942.0</ele><time>2026-03-27T14:40:42.648Z</time></trkpt><trkpt lat="44.6062066" lon="9.4837004"><ele>945.0</ele><time>2026-03-27T14:40:43.647Z</time></trkpt><trkpt lat="44.6063445" lon="9.483798"><ele>948.0</ele><time>2026-03-27T14:40:44.65Z</time></trkpt><trkpt lat="44.6064826" lon="9.4839006"><ele>941.0</ele><time>2026-03-27T14:40:45.648Z</time></trkpt><trkpt lat="44.6066153" lon="9.4840126"><ele>934.0</ele><time>2026-03-27T14:40:46.648Z</time></trkpt><trkpt lat="44.6067361" lon="9.4841202"><ele>927.0</ele><time>2026-03-27T14:40:47.647Z</time></trkpt><trkpt lat="44.6068567" lon="9.4841943"><ele>920.0</ele><time>2026-03-27T14:40:48.647Z</time></trkpt><trkpt lat="44.6069845" lon="9.48424"><ele>919.5</ele><time>2026-03-27T14:40:49.648Z</time></trkpt><trkpt lat="44.6071199" lon="9.4842699"><ele>919.0</ele><time>2026-03-27T14:40:50.647Z</time></trkpt><trkpt lat="44.6072596" lon="9.4842709"><ele>918.5</ele><time>2026-03-27T14:40:51.647Z</time></trkpt><trkpt lat="44.6074131" lon="9.4842365"><ele>918.0</ele><time>2026-03-27T14:40:52.652Z</time></trkpt><trkpt lat="44.6075517" lon="9.4841903"><ele>918.0</ele><time>2026-03-27T14:40:53.648Z</time></trkpt><trkpt lat="44.6076846" lon="9.484121"><ele>918.0</ele><time>2026-03-27T14:40:54.649Z</time></trkpt><trkpt lat="44.6078157" lon="9.4840276"><ele>918.0</ele><time>2026-03-27T14:40:55.647Z</time></trkpt><trkpt lat="44.6079533" lon="9.4839129"><ele>918.0</ele><time>2026-03-27T14:40:56.648Z</time></trkpt><trkpt lat="44.6080861" lon="9.4838103"><ele>919.5</ele><time>2026-03-27T14:40:57.649Z</time></trkpt><trkpt lat="44.6082004" lon="9.4837111"><ele>921.0</ele><time>2026-03-27T14:40:58.647Z</time></trkpt><trkpt lat="44.6083063" lon="9.4835897"><ele>922.5</ele><time>2026-03-27T14:40:59.648Z</time></trkpt><trkpt lat="44.6084118" lon="9.4834691"><ele>924.0</ele><time>2026-03-27T14:41:00.648Z</time></trkpt><trkpt lat="44.608526" lon="9.4833825"><ele>924.0</ele><time>2026-03-27T14:41:01.647Z</time></trkpt><trkpt lat="44.608648" lon="9.4833474"><ele>924.0</ele><time>2026-03-27T14:41:02.647Z</time></trkpt><trkpt lat="44.6087641" lon="9.4833076"><ele>924.0</ele><time>2026-03-27T14:41:03.652Z</time></trkpt><trkpt lat="44.6088672" lon="9.4832507"><ele>924.0</ele><time>2026-03-27T14:41:04.647Z</time></trkpt><trkpt lat="44.6089545" lon="9.4831543"><ele>922.6</ele><time>2026-03-27T14:41:05.647Z</time></trkpt><trkpt lat="44.6090187" lon="9.4830406"><ele>921.2</ele><time>2026-03-27T14:41:06.649Z</time></trkpt><trkpt lat="44.6090527" lon="9.4829104"><ele>919.8000000000001</ele><time>2026-03-27T14:41:07.647Z</time></trkpt><trkpt lat="44.6090599" lon="9.4827615"><ele>918.4000000000001</ele><time>2026-03-27T14:41:08.647Z</time></trkpt><trkpt lat="44.6090446" lon="9.4825894"><ele>917.0</ele><time>2026-03-27T14:41:09.648Z</time></trkpt><trkpt lat="44.6090175" lon="9.4824344"><ele>916.5</ele><time>2026-03-27T14:41:10.647Z</time></trkpt><trkpt lat="44.6090084" lon="9.4822777"><ele>916.0</ele><time>2026-03-27T14:41:11.647Z</time></trkpt><trkpt lat="44.6090264" lon="9.4821234"><ele>915.5</ele><time>2026-03-27T14:41:12.647Z</time></trkpt><trkpt lat="44.6090775" lon="9.4819714"><ele>915.0</ele><time>2026-03-27T14:41:13.647Z</time></trkpt><trkpt lat="44.6091526" lon="9.4818194"><ele>915.0</ele><time>2026-03-27T14:41:14.649Z</time></trkpt><trkpt lat="44.6092417" lon="9.4816637"><ele>915.0</ele><time>2026-03-27T14:41:15.646Z</time></trkpt><trkpt lat="44.609338" lon="9.4815095"><ele>915.0</ele><time>2026-03-27T14:41:16.646Z</time></trkpt><trkpt lat="44.6094325" lon="9.4813561"><ele>915.0</ele><time>2026-03-27T14:41:17.648Z</time></trkpt><trkpt lat="44.6095268" lon="9.4812076"><ele>909.75</ele><time>2026-03-27T14:41:18.647Z</time></trkpt><trkpt lat="44.609613" lon="9.4810638"><ele>904.5</ele><time>2026-03-27T14:41:19.649Z</time></trkpt><trkpt lat="44.6096812" lon="9.4809106"><ele>899.25</ele><time>2026-03-27T14:41:20.648Z</time></trkpt><trkpt lat="44.6097174" lon="9.4807476"><ele>894.0</ele><time>2026-03-27T14:41:21.648Z</time></trkpt><trkpt lat="44.6097165" lon="9.4805861"><ele>891.5</ele><time>2026-03-27T14:41:22.647Z</time></trkpt><trkpt lat="44.6096691" lon="9.4804268"><ele>889.0</ele><time>2026-03-27T14:41:23.651Z</time></trkpt><trkpt lat="44.6095937" lon="9.4802568"><ele>886.5</ele><time>2026-03-27T14:41:24.647Z</time></trkpt><trkpt lat="44.6095092" lon="9.4801053"><ele>884.0</ele><time>2026-03-27T14:41:25.648Z</time></trkpt><trkpt lat="44.609438" lon="9.479941"><ele>890.25</ele><time>2026-03-27T14:41:26.648Z</time></trkpt><trkpt lat="44.6093871" lon="9.479759"><ele>896.5</ele><time>2026-03-27T14:41:27.647Z</time></trkpt><trkpt lat="44.6093571" lon="9.4795597"><ele>902.75</ele><time>2026-03-27T14:41:28.648Z</time></trkpt><trkpt lat="44.6093531" lon="9.4793428"><ele>909.0</ele><time>2026-03-27T14:41:29.65Z</time></trkpt><trkpt lat="44.609354" lon="9.4791366"><ele>909.0</ele><time>2026-03-27T14:41:30.646Z</time></trkpt><trkpt lat="44.6093671" lon="9.478936"><ele>909.0</ele><time>2026-03-27T14:41:31.651Z</time></trkpt><trkpt lat="44.609399" lon="9.4787492"><ele>909.0</ele><time>2026-03-27T14:41:32.647Z</time></trkpt><trkpt lat="44.6094428" lon="9.4785763"><ele>909.0</ele><time>2026-03-27T14:41:33.647Z</time></trkpt><trkpt lat="44.6094806" lon="9.4784137"><ele>908.0</ele><time>2026-03-27T14:41:34.647Z</time></trkpt><trkpt lat="44.6094887" lon="9.4782697"><ele>907.0</ele><time>2026-03-27T14:41:35.648Z</time></trkpt><trkpt lat="44.6094578" lon="9.4781264"><ele>906.0</ele><time>2026-03-27T14:41:36.647Z</time></trkpt><trkpt lat="44.6093997" lon="9.477983"><ele>905.0</ele><time>2026-03-27T14:41:37.646Z</time></trkpt><trkpt lat="44.6093059" lon="9.4778643"><ele>902.25</ele><time>2026-03-27T14:41:38.649Z</time></trkpt><trkpt lat="44.6091926" lon="9.4777536"><ele>899.5</ele><time>2026-03-27T14:41:39.647Z</time></trkpt><trkpt lat="44.6090898" lon="9.4776396"><ele>896.75</ele><time>2026-03-27T14:41:40.649Z</time></trkpt><trkpt lat="44.6090171" lon="9.4775086"><ele>894.0</ele><time>2026-03-27T14:41:41.647Z</time></trkpt><trkpt lat="44.6089735" lon="9.4773672"><ele>894.0</ele><time>2026-03-27T14:41:42.647Z</time></trkpt><trkpt lat="44.6089643" lon="9.4772157"><ele>894.0</ele><time>2026-03-27T14:41:43.648Z</time></trkpt><trkpt lat="44.608987" lon="9.4770552"><ele>894.0</ele><time>2026-03-27T14:41:44.647Z</time></trkpt><trkpt lat="44.6090417" lon="9.4768901"><ele>894.0</ele><time>2026-03-27T14:41:45.647Z</time></trkpt><trkpt lat="44.609114" lon="9.4767167"><ele>894.5</ele><time>2026-03-27T14:41:46.648Z</time></trkpt><trkpt lat="44.6091893" lon="9.4765399"><ele>895.0</ele><time>2026-03-27T14:41:47.647Z</time></trkpt><trkpt lat="44.6092643" lon="9.476375"><ele>895.5</ele><time>2026-03-27T14:41:48.647Z</time></trkpt><trkpt lat="44.6093421" lon="9.4762198"><ele>896.0</ele><time>2026-03-27T14:41:49.648Z</time></trkpt><trkpt lat="44.6094271" lon="9.4760777"><ele>890.25</ele><time>2026-03-27T14:41:50.648Z</time></trkpt><trkpt lat="44.6095201" lon="9.4759497"><ele>884.5</ele><time>2026-03-27T14:41:51.648Z</time></trkpt><trkpt lat="44.6096102" lon="9.4758235"><ele>878.75</ele><time>2026-03-27T14:41:52.648Z</time></trkpt><trkpt lat="44.6096832" lon="9.47569"><ele>873.0</ele><time>2026-03-27T14:41:53.649Z</time></trkpt><trkpt lat="44.6097295" lon="9.4755271"><ele>873.25</ele><time>2026-03-27T14:41:54.647Z</time></trkpt><trkpt lat="44.6097592" lon="9.4753484"><ele>873.5</ele><time>2026-03-27T14:41:55.648Z</time></trkpt><trkpt lat="44.609797" lon="9.4751652"><ele>873.75</ele><time>2026-03-27T14:41:56.649Z</time></trkpt><trkpt lat="44.6098565" lon="9.4749946"><ele>874.0</ele><time>2026-03-27T14:41:57.647Z</time></trkpt><trkpt lat="44.6099376" lon="9.474845"><ele>874.0</ele><time>2026-03-27T14:41:58.647Z</time></trkpt><trkpt lat="44.6100189" lon="9.4746968"><ele>874.0</ele><time>2026-03-27T14:41:59.65Z</time></trkpt><trkpt lat="44.6100776" lon="9.4745358"><ele>874.0</ele><time>2026-03-27T14:42:00.647Z</time></trkpt><trkpt lat="44.6100988" lon="9.4743652"><ele>874.0</ele><time>2026-03-27T14:42:01.648Z</time></trkpt><trkpt lat="44.6100708" lon="9.4741853"><ele>874.25</ele><time>2026-03-27T14:42:02.647Z</time></trkpt><trkpt lat="44.6099985" lon="9.4740156"><ele>874.5</ele><time>2026-03-27T14:42:03.648Z</time></trkpt><trkpt lat="44.6099009" lon="9.4738578"><ele>874.75</ele><time>2026-03-27T14:42:04.647Z</time></trkpt><trkpt lat="44.6098066" lon="9.4737083"><ele>875.0</ele><time>2026-03-27T14:42:05.647Z</time></trkpt><trkpt lat="44.609732" lon="9.4735468"><ele>874.0</ele><time>2026-03-27T14:42:06.647Z</time></trkpt><trkpt lat="44.6096818" lon="9.4733687"><ele>873.0</ele><time>2026-03-27T14:42:07.646Z</time></trkpt><trkpt lat="44.609674" lon="9.4731776"><ele>872.0</ele><time>2026-03-27T14:42:08.647Z</time></trkpt><trkpt lat="44.6097" lon="9.4730109"><ele>871.0</ele><time>2026-03-27T14:42:09.648Z</time></trkpt><trkpt lat="44.6097652" lon="9.472863"><ele>871.0</ele><time>2026-03-27T14:42:10.646Z</time></trkpt><trkpt lat="44.6098662" lon="9.4727557"><ele>871.0</ele><time>2026-03-27T14:42:11.647Z</time></trkpt><trkpt lat="44.6099904" lon="9.4727004"><ele>871.0</ele><time>2026-03-27T14:42:12.647Z</time></trkpt><trkpt lat="44.6101274" lon="9.4726988"><ele>871.0</ele><time>2026-03-27T14:42:13.647Z</time></trkpt><trkpt lat="44.6102673" lon="9.4727417"><ele>867.6666666666666</ele><time>2026-03-27T14:42:14.65Z</time></trkpt><trkpt lat="44.6104097" lon="9.4728205"><ele>864.3333333333333</ele><time>2026-03-27T14:42:15.646Z</time></trkpt><trkpt lat="44.6105561" lon="9.4729046"><ele>861.0</ele><time>2026-03-27T14:42:16.646Z</time></trkpt><trkpt lat="44.6106991" lon="9.4729838"><ele>861.0</ele><time>2026-03-27T14:42:17.646Z</time></trkpt><trkpt lat="44.610834" lon="9.473057"><ele>861.0</ele><time>2026-03-27T14:42:18.649Z</time></trkpt><trkpt lat="44.6109633" lon="9.4731258"><ele>861.0</ele><time>2026-03-27T14:42:19.646Z</time></trkpt><trkpt lat="44.611086" lon="9.4732074"><ele>861.0</ele><time>2026-03-27T14:42:20.647Z</time></trkpt><trkpt lat="44.6111939" lon="9.473313"><ele>860.75</ele><time>2026-03-27T14:42:21.648Z</time></trkpt><trkpt lat="44.6112952" lon="9.4734393"><ele>860.5</ele><time>2026-03-27T14:42:22.647Z</time></trkpt><trkpt lat="44.6113954" lon="9.4735754"><ele>860.25</ele><time>2026-03-27T14:42:23.651Z</time></trkpt><trkpt lat="44.61149" lon="9.4737108"><ele>860.0</ele><time>2026-03-27T14:42:24.648Z</time></trkpt><trkpt lat="44.6115764" lon="9.4738578"><ele>860.0</ele><time>2026-03-27T14:42:25.647Z</time></trkpt><trkpt lat="44.6116537" lon="9.4740189"><ele>860.0</ele><time>2026-03-27T14:42:26.646Z</time></trkpt><trkpt lat="44.6117237" lon="9.4741896"><ele>860.0</ele><time>2026-03-27T14:42:27.647Z</time></trkpt><trkpt lat="44.6117889" lon="9.4743689"><ele>860.0</ele><time>2026-03-27T14:42:28.65Z</time></trkpt><trkpt lat="44.6118473" lon="9.4745539"><ele>857.5</ele><time>2026-03-27T14:42:29.648Z</time></trkpt><trkpt lat="44.6118968" lon="9.4747431"><ele>855.0</ele><time>2026-03-27T14:42:30.647Z</time></trkpt><trkpt lat="44.6119357" lon="9.4749343"><ele>852.5</ele><time>2026-03-27T14:42:31.648Z</time></trkpt><trkpt lat="44.6119689" lon="9.4751258"><ele>850.0</ele><time>2026-03-27T14:42:32.648Z</time></trkpt><trkpt lat="44.612001" lon="9.4753235"><ele>858.5</ele><time>2026-03-27T14:42:33.652Z</time></trkpt><trkpt lat="44.612034" lon="9.4755252"><ele>867.0</ele><time>2026-03-27T14:42:34.651Z</time></trkpt><trkpt lat="44.6120727" lon="9.4757296"><ele>875.5</ele><time>2026-03-27T14:42:35.647Z</time></trkpt><trkpt lat="44.6121152" lon="9.475927"><ele>884.0</ele><time>2026-03-27T14:42:36.646Z</time></trkpt><trkpt lat="44.6121601" lon="9.4761264"><ele>881.3333333333334</ele><time>2026-03-27T14:42:37.646Z</time></trkpt><trkpt lat="44.6122053" lon="9.4763279"><ele>878.6666666666667</ele><time>2026-03-27T14:42:38.651Z</time></trkpt><trkpt lat="44.6122459" lon="9.4765321"><ele>876.0</ele><time>2026-03-27T14:42:39.646Z</time></trkpt><trkpt lat="44.6122789" lon="9.476739"><ele>876.0</ele><time>2026-03-27T14:42:40.646Z</time></trkpt><trkpt lat="44.6123045" lon="9.4769462"><ele>876.0</ele><time>2026-03-27T14:42:41.647Z</time></trkpt><trkpt lat="44.6123245" lon="9.4771587"><ele>876.0</ele><time>2026-03-27T14:42:42.648Z</time></trkpt><trkpt lat="44.6123457" lon="9.4773685"><ele>872.5</ele><time>2026-03-27T14:42:43.646Z</time></trkpt><trkpt lat="44.6123604" lon="9.4775757"><ele>869.0</ele><time>2026-03-27T14:42:44.647Z</time></trkpt><trkpt lat="44.6123737" lon="9.4777732"><ele>865.5</ele><time>2026-03-27T14:42:45.649Z</time></trkpt><trkpt lat="44.6123947" lon="9.4779483"><ele>862.0</ele><time>2026-03-27T14:42:46.647Z</time></trkpt><trkpt lat="44.6124334" lon="9.4780993"><ele>862.0</ele><time>2026-03-27T14:42:47.647Z</time></trkpt><trkpt lat="44.6124975" lon="9.4782141"><ele>862.0</ele><time>2026-03-27T14:42:48.648Z</time></trkpt><trkpt lat="44.6125855" lon="9.4782828"><ele>862.0</ele><time>2026-03-27T14:42:49.647Z</time></trkpt><trkpt lat="44.6126846" lon="9.4783078"><ele>862.0</ele><time>2026-03-27T14:42:50.649Z</time></trkpt><trkpt lat="44.6127759" lon="9.4782926"><ele>862.0</ele><time>2026-03-27T14:42:51.646Z</time></trkpt><trkpt lat="44.6128612" lon="9.4782503"><ele>862.0</ele><time>2026-03-27T14:42:52.647Z</time></trkpt><trkpt lat="44.6129443" lon="9.4782018"><ele>862.0</ele><time>2026-03-27T14:42:53.648Z</time></trkpt><trkpt lat="44.6130355" lon="9.4781638"><ele>862.0</ele><time>2026-03-27T14:42:54.647Z</time></trkpt><trkpt lat="44.61313" lon="9.4781474"><ele>862.0</ele><time>2026-03-27T14:42:55.648Z</time></trkpt><trkpt lat="44.6132109" lon="9.4781917"><ele>862.0</ele><time>2026-03-27T14:42:56.647Z</time></trkpt><trkpt lat="44.6132839" lon="9.4782581"><ele>862.0</ele><time>2026-03-27T14:42:57.649Z</time></trkpt><trkpt lat="44.6133528" lon="9.4783383"><ele>862.0</ele><time>2026-03-27T14:42:58.649Z</time></trkpt><trkpt lat="44.6134005" lon="9.4784537"><ele>862.0</ele><time>2026-03-27T14:42:59.646Z</time></trkpt><trkpt lat="44.6134092" lon="9.4786378"><ele>862.0</ele><time>2026-03-27T14:43:00.647Z</time></trkpt><trkpt lat="44.6134089" lon="9.4788218"><ele>862.0</ele><time>2026-03-27T14:43:01.646Z</time></trkpt><trkpt lat="44.613412" lon="9.4790093"><ele>860.0</ele><time>2026-03-27T14:43:02.647Z</time></trkpt><trkpt lat="44.61342" lon="9.479204"><ele>858.0</ele><time>2026-03-27T14:43:03.648Z</time></trkpt><trkpt lat="44.6134437" lon="9.4793886"><ele>856.0</ele><time>2026-03-27T14:43:04.647Z</time></trkpt><trkpt lat="44.6134674" lon="9.4795786"><ele>854.0</ele><time>2026-03-27T14:43:05.647Z</time></trkpt><trkpt lat="44.6134812" lon="9.4797776"><ele>853.25</ele><time>2026-03-27T14:43:06.648Z</time></trkpt><trkpt lat="44.6134831" lon="9.4799641"><ele>852.5</ele><time>2026-03-27T14:43:07.647Z</time></trkpt><trkpt lat="44.613489" lon="9.4801327"><ele>851.75</ele><time>2026-03-27T14:43:08.646Z</time></trkpt><trkpt lat="44.6135096" lon="9.4802925"><ele>851.0</ele><time>2026-03-27T14:43:09.649Z</time></trkpt><trkpt lat="44.6135484" lon="9.4804365"><ele>848.5</ele><time>2026-03-27T14:43:10.646Z</time></trkpt><trkpt lat="44.6136016" lon="9.4805763"><ele>846.0</ele><time>2026-03-27T14:43:11.646Z</time></trkpt><trkpt lat="44.6136515" lon="9.4807266"><ele>843.5</ele><time>2026-03-27T14:43:12.647Z</time></trkpt><trkpt lat="44.6136888" lon="9.4808938"><ele>841.0</ele><time>2026-03-27T14:43:13.647Z</time></trkpt><trkpt lat="44.6137097" lon="9.4810752"><ele>845.25</ele><time>2026-03-27T14:43:14.649Z</time></trkpt><trkpt lat="44.6137142" lon="9.481256"><ele>849.5</ele><time>2026-03-27T14:43:15.646Z</time></trkpt><trkpt lat="44.6137266" lon="9.4814221"><ele>853.75</ele><time>2026-03-27T14:43:16.647Z</time></trkpt><trkpt lat="44.6137481" lon="9.4815957"><ele>858.0</ele><time>2026-03-27T14:43:17.646Z</time></trkpt><trkpt lat="44.6137764" lon="9.4817673"><ele>858.0</ele><time>2026-03-27T14:43:18.647Z</time></trkpt><trkpt lat="44.6137977" lon="9.4819273"><ele>858.0</ele><time>2026-03-27T14:43:19.646Z</time></trkpt><trkpt lat="44.6138085" lon="9.4820921"><ele>858.0</ele><time>2026-03-27T14:43:20.651Z</time></trkpt><trkpt lat="44.6137919" lon="9.4822606"><ele>858.0</ele><time>2026-03-27T14:43:21.647Z</time></trkpt><trkpt lat="44.6137488" lon="9.4824217"><ele>857.8</ele><time>2026-03-27T14:43:22.647Z</time></trkpt><trkpt lat="44.6136822" lon="9.4825586"><ele>857.5999999999999</ele><time>2026-03-27T14:43:23.647Z</time></trkpt><trkpt lat="44.6136304" lon="9.4826832"><ele>857.4000000000001</ele><time>2026-03-27T14:43:24.646Z</time></trkpt><trkpt lat="44.613607" lon="9.4828072"><ele>857.2</ele><time>2026-03-27T14:43:25.646Z</time></trkpt><trkpt lat="44.6136093" lon="9.4829534"><ele>857.0</ele><time>2026-03-27T14:43:26.647Z</time></trkpt><trkpt lat="44.6136426" lon="9.4831005"><ele>855.75</ele><time>2026-03-27T14:43:27.647Z</time></trkpt><trkpt lat="44.6137136" lon="9.4832422"><ele>854.5</ele><time>2026-03-27T14:43:28.652Z</time></trkpt><trkpt lat="44.613804" lon="9.4833812"><ele>853.25</ele><time>2026-03-27T14:43:29.646Z</time></trkpt><trkpt lat="44.6139107" lon="9.4835313"><ele>852.0</ele><time>2026-03-27T14:43:30.649Z</time></trkpt><trkpt lat="44.6140255" lon="9.4836917"><ele>850.0</ele><time>2026-03-27T14:43:31.648Z</time></trkpt><trkpt lat="44.6141351" lon="9.4838386"><ele>848.0</ele><time>2026-03-27T14:43:32.647Z</time></trkpt><trkpt lat="44.6142484" lon="9.4839617"><ele>846.0</ele><time>2026-03-27T14:43:33.649Z</time></trkpt><trkpt lat="44.6143736" lon="9.4840564"><ele>844.0</ele><time>2026-03-27T14:43:34.646Z</time></trkpt><trkpt lat="44.614501" lon="9.484136"><ele>844.0</ele><time>2026-03-27T14:43:35.648Z</time></trkpt><trkpt lat="44.6146187" lon="9.4842279"><ele>844.0</ele><time>2026-03-27T14:43:36.647Z</time></trkpt><trkpt lat="44.6147286" lon="9.4843549"><ele>844.0</ele><time>2026-03-27T14:43:37.647Z</time></trkpt><trkpt lat="44.6148319" lon="9.4845107"><ele>844.0</ele><time>2026-03-27T14:43:38.649Z</time></trkpt><trkpt lat="44.6149139" lon="9.4846912"><ele>838.0</ele><time>2026-03-27T14:43:39.646Z</time></trkpt><trkpt lat="44.615003" lon="9.4848634"><ele>832.0</ele><time>2026-03-27T14:43:40.646Z</time></trkpt><trkpt lat="44.6151145" lon="9.4850059"><ele>826.0</ele><time>2026-03-27T14:43:41.647Z</time></trkpt><trkpt lat="44.6152459" lon="9.4851169"><ele>824.0</ele><time>2026-03-27T14:43:42.647Z</time></trkpt><trkpt lat="44.615388" lon="9.485219"><ele>822.0</ele><time>2026-03-27T14:43:43.649Z</time></trkpt><trkpt lat="44.6155344" lon="9.4853236"><ele>820.0</ele><time>2026-03-27T14:43:44.649Z</time></trkpt><trkpt lat="44.6156932" lon="9.4854308"><ele>820.0</ele><time>2026-03-27T14:43:45.647Z</time></trkpt><trkpt lat="44.615846" lon="9.4855514"><ele>820.0</ele><time>2026-03-27T14:43:46.647Z</time></trkpt><trkpt lat="44.6159819" lon="9.4856976"><ele>820.0</ele><time>2026-03-27T14:43:47.648Z</time></trkpt><trkpt lat="44.6161048" lon="9.4858609"><ele>820.0</ele><time>2026-03-27T14:43:48.647Z</time></trkpt><trkpt lat="44.616221" lon="9.4860247"><ele>820.0</ele><time>2026-03-27T14:43:49.647Z</time></trkpt><trkpt lat="44.6163334" lon="9.4861817"><ele>820.0</ele><time>2026-03-27T14:43:50.648Z</time></trkpt><trkpt lat="44.6164491" lon="9.4863237"><ele>820.0</ele><time>2026-03-27T14:43:51.646Z</time></trkpt><trkpt lat="44.6165592" lon="9.4864634"><ele>820.0</ele><time>2026-03-27T14:43:52.648Z</time></trkpt><trkpt lat="44.6166562" lon="9.4866215"><ele>820.0</ele><time>2026-03-27T14:43:53.648Z</time></trkpt><trkpt lat="44.6167414" lon="9.4868015"><ele>820.0</ele><time>2026-03-27T14:43:54.648Z</time></trkpt><trkpt lat="44.6168199" lon="9.4869944"><ele>820.0</ele><time>2026-03-27T14:43:55.648Z</time></trkpt><trkpt lat="44.6168851" lon="9.4871898"><ele>820.0</ele><time>2026-03-27T14:43:56.647Z</time></trkpt><trkpt lat="44.6169425" lon="9.4873795"><ele>822.6666666666666</ele><time>2026-03-27T14:43:57.647Z</time></trkpt><trkpt lat="44.6170163" lon="9.487556"><ele>825.3333333333333</ele><time>2026-03-27T14:43:58.647Z</time></trkpt><trkpt lat="44.617115" lon="9.4877166"><ele>828.0</ele><time>2026-03-27T14:43:59.647Z</time></trkpt><trkpt lat="44.6172417" lon="9.4878498"><ele>825.0</ele><time>2026-03-27T14:44:00.647Z</time></trkpt><trkpt lat="44.6173674" lon="9.4879735"><ele>822.0</ele><time>2026-03-27T14:44:01.647Z</time></trkpt><trkpt lat="44.6174727" lon="9.4881039"><ele>819.0</ele><time>2026-03-27T14:44:02.647Z</time></trkpt><trkpt lat="44.6175541" lon="9.4882578"><ele>816.0</ele><time>2026-03-27T14:44:03.649Z</time></trkpt><trkpt lat="44.6176014" lon="9.4884373"><ele>816.0</ele><time>2026-03-27T14:44:04.648Z</time></trkpt><trkpt lat="44.6176092" lon="9.4886366"><ele>816.0</ele><time>2026-03-27T14:44:05.647Z</time></trkpt><trkpt lat="44.6175727" lon="9.4888468"><ele>816.0</ele><time>2026-03-27T14:44:06.648Z</time></trkpt><trkpt lat="44.6175114" lon="9.4890552"><ele>813.75</ele><time>2026-03-27T14:44:07.649Z</time></trkpt><trkpt lat="44.6174536" lon="9.4892531"><ele>811.5</ele><time>2026-03-27T14:44:08.648Z</time></trkpt><trkpt lat="44.6174104" lon="9.4894415"><ele>809.25</ele><time>2026-03-27T14:44:09.648Z</time></trkpt><trkpt lat="44.6173922" lon="9.4896227"><ele>807.0</ele><time>2026-03-27T14:44:10.649Z</time></trkpt><trkpt lat="44.6174105" lon="9.4898037"><ele>806.75</ele><time>2026-03-27T14:44:11.647Z</time></trkpt><trkpt lat="44.6174712" lon="9.4899749"><ele>806.5</ele><time>2026-03-27T14:44:12.648Z</time></trkpt><trkpt lat="44.6175666" lon="9.4901226"><ele>806.25</ele><time>2026-03-27T14:44:13.647Z</time></trkpt><trkpt lat="44.617688" lon="9.4902263"><ele>806.0</ele><time>2026-03-27T14:44:14.649Z</time></trkpt><trkpt lat="44.6178239" lon="9.490273"><ele>806.0</ele><time>2026-03-27T14:44:15.649Z</time></trkpt><trkpt lat="44.6179734" lon="9.490266"><ele>806.0</ele><time>2026-03-27T14:44:16.647Z</time></trkpt><trkpt lat="44.6181312" lon="9.4902238"><ele>806.0</ele><time>2026-03-27T14:44:17.647Z</time></trkpt><trkpt lat="44.6182945" lon="9.490171"><ele>806.0</ele><time>2026-03-27T14:44:18.648Z</time></trkpt><trkpt lat="44.6184608" lon="9.4901172"><ele>806.0</ele><time>2026-03-27T14:44:19.646Z</time></trkpt><trkpt lat="44.6186311" lon="9.4900619"><ele>806.0</ele><time>2026-03-27T14:44:20.649Z</time></trkpt><trkpt lat="44.6187997" lon="9.4900015"><ele>802.0</ele><time>2026-03-27T14:44:21.648Z</time></trkpt><trkpt lat="44.618959" lon="9.4899352"><ele>798.0</ele><time>2026-03-27T14:44:22.647Z</time></trkpt><trkpt lat="44.6191128" lon="9.489869"><ele>794.0</ele><time>2026-03-27T14:44:23.647Z</time></trkpt><trkpt lat="44.6192631" lon="9.4898183"><ele>794.0</ele><time>2026-03-27T14:44:24.646Z</time></trkpt><trkpt lat="44.6194155" lon="9.4898122"><ele>794.0</ele><time>2026-03-27T14:44:25.647Z</time></trkpt><trkpt lat="44.6195737" lon="9.4898395"><ele>794.0</ele><time>2026-03-27T14:44:26.647Z</time></trkpt><trkpt lat="44.6197367" lon="9.4898879"><ele>792.0</ele><time>2026-03-27T14:44:27.646Z</time></trkpt><trkpt lat="44.6199049" lon="9.4899298"><ele>790.0</ele><time>2026-03-27T14:44:28.647Z</time></trkpt><trkpt lat="44.6200738" lon="9.4899644"><ele>788.0</ele><time>2026-03-27T14:44:29.646Z</time></trkpt><trkpt lat="44.6202397" lon="9.4899969"><ele>787.5</ele><time>2026-03-27T14:44:30.649Z</time></trkpt><trkpt lat="44.6203962" lon="9.4900257"><ele>787.0</ele><time>2026-03-27T14:44:31.646Z</time></trkpt><trkpt lat="44.620543" lon="9.4900433"><ele>786.5</ele><time>2026-03-27T14:44:32.647Z</time></trkpt><trkpt lat="44.6206846" lon="9.4900463"><ele>786.0</ele><time>2026-03-27T14:44:33.647Z</time></trkpt><trkpt lat="44.6208207" lon="9.4900361"><ele>786.0</ele><time>2026-03-27T14:44:34.647Z</time></trkpt><trkpt lat="44.6209519" lon="9.4900194"><ele>786.0</ele><time>2026-03-27T14:44:35.651Z</time></trkpt><trkpt lat="44.621079" lon="9.4900013"><ele>786.0</ele><time>2026-03-27T14:44:36.646Z</time></trkpt><trkpt lat="44.6211998" lon="9.4899896"><ele>786.0</ele><time>2026-03-27T14:44:37.647Z</time></trkpt><trkpt lat="44.6213164" lon="9.4899826"><ele>785.25</ele><time>2026-03-27T14:44:38.647Z</time></trkpt><trkpt lat="44.6214283" lon="9.4900035"><ele>784.5</ele><time>2026-03-27T14:44:39.647Z</time></trkpt><trkpt lat="44.6215341" lon="9.4900566"><ele>783.75</ele><time>2026-03-27T14:44:40.648Z</time></trkpt><trkpt lat="44.6216292" lon="9.490147"><ele>783.0</ele><time>2026-03-27T14:44:41.648Z</time></trkpt><trkpt lat="44.6217147" lon="9.4902635"><ele>783.0</ele><time>2026-03-27T14:44:42.648Z</time></trkpt><trkpt lat="44.6217958" lon="9.490394"><ele>783.0</ele><time>2026-03-27T14:44:43.649Z</time></trkpt><trkpt lat="44.6218763" lon="9.4905221"><ele>783.0</ele><time>2026-03-27T14:44:44.647Z</time></trkpt><trkpt lat="44.6219645" lon="9.4906382"><ele>783.0</ele><time>2026-03-27T14:44:45.647Z</time></trkpt><trkpt lat="44.6220659" lon="9.4907505"><ele>781.75</ele><time>2026-03-27T14:44:46.647Z</time></trkpt><trkpt lat="44.6221793" lon="9.4908569"><ele>780.5</ele><time>2026-03-27T14:44:47.646Z</time></trkpt><trkpt lat="44.6223051" lon="9.4909613"><ele>779.25</ele><time>2026-03-27T14:44:48.648Z</time></trkpt><trkpt lat="44.6224396" lon="9.4910643"><ele>778.0</ele><time>2026-03-27T14:44:49.648Z</time></trkpt><trkpt lat="44.6225688" lon="9.4911773"><ele>773.6666666666666</ele><time>2026-03-27T14:44:50.647Z</time></trkpt><trkpt lat="44.6226985" lon="9.4913065"><ele>769.3333333333333</ele><time>2026-03-27T14:44:51.646Z</time></trkpt><trkpt lat="44.6228221" lon="9.4914503"><ele>765.0</ele><time>2026-03-27T14:44:52.646Z</time></trkpt><trkpt lat="44.6229395" lon="9.4915965"><ele>765.0</ele><time>2026-03-27T14:44:53.646Z</time></trkpt><trkpt lat="44.6230519" lon="9.491735"><ele>765.0</ele><time>2026-03-27T14:44:54.647Z</time></trkpt><trkpt lat="44.623174" lon="9.4918425"><ele>765.0</ele><time>2026-03-27T14:44:55.646Z</time></trkpt><trkpt lat="44.6233105" lon="9.4919163"><ele>765.0</ele><time>2026-03-27T14:44:56.647Z</time></trkpt><trkpt lat="44.6234673" lon="9.491953"><ele>765.0</ele><time>2026-03-27T14:44:57.647Z</time></trkpt><trkpt lat="44.6236335" lon="9.4919595"><ele>765.0</ele><time>2026-03-27T14:44:58.648Z</time></trkpt><trkpt lat="44.623798" lon="9.4919544"><ele>765.0</ele><time>2026-03-27T14:44:59.648Z</time></trkpt><trkpt lat="44.6239674" lon="9.4919595"><ele>765.0</ele><time>2026-03-27T14:45:00.647Z</time></trkpt><trkpt lat="44.624145" lon="9.4919733"><ele>765.0</ele><time>2026-03-27T14:45:01.647Z</time></trkpt><trkpt lat="44.624315" lon="9.4919817"><ele>765.0</ele><time>2026-03-27T14:45:02.647Z</time></trkpt><trkpt lat="44.6244867" lon="9.491985"><ele>763.0</ele><time>2026-03-27T14:45:03.65Z</time></trkpt><trkpt lat="44.6246517" lon="9.49199"><ele>761.0</ele><time>2026-03-27T14:45:04.647Z</time></trkpt><trkpt lat="44.62481" lon="9.492"><ele>759.0</ele><time>2026-03-27T14:45:05.647Z</time></trkpt><trkpt lat="44.6249617" lon="9.4920067"><ele>759.0</ele><time>2026-03-27T14:45:06.648Z</time></trkpt><trkpt lat="44.6250983" lon="9.4919767"><ele>759.0</ele><time>2026-03-27T14:45:07.647Z</time></trkpt><trkpt lat="44.6252" lon="9.4918917"><ele>759.0</ele><time>2026-03-27T14:45:08.648Z</time></trkpt><trkpt lat="44.6252717" lon="9.491755"><ele>759.0</ele><time>2026-03-27T14:45:09.647Z</time></trkpt><trkpt lat="44.6253033" lon="9.4915883"><ele>759.0</ele><time>2026-03-27T14:45:10.646Z</time></trkpt><trkpt lat="44.6253183" lon="9.4914233"><ele>759.0</ele><time>2026-03-27T14:45:11.647Z</time></trkpt><trkpt lat="44.6253483" lon="9.491265"><ele>759.0</ele><time>2026-03-27T14:45:12.647Z</time></trkpt><trkpt lat="44.6254067" lon="9.4911367"><ele>759.0</ele><time>2026-03-27T14:45:13.647Z</time></trkpt><trkpt lat="44.6255033" lon="9.491055"><ele>759.0</ele><time>2026-03-27T14:45:14.647Z</time></trkpt><trkpt lat="44.6256067" lon="9.49103"><ele>759.0</ele><time>2026-03-27T14:45:15.647Z</time></trkpt><trkpt lat="44.6257067" lon="9.49105"><ele>759.0</ele><time>2026-03-27T14:45:16.647Z</time></trkpt><trkpt lat="44.6257967" lon="9.4911233"><ele>759.0</ele><time>2026-03-27T14:45:17.646Z</time></trkpt><trkpt lat="44.6258517" lon="9.4912767"><ele>759.0</ele><time>2026-03-27T14:45:18.647Z</time></trkpt><trkpt lat="44.6258683" lon="9.4914883"><ele>759.0</ele><time>2026-03-27T14:45:19.646Z</time></trkpt><trkpt lat="44.625875" lon="9.4916983"><ele>759.0</ele><time>2026-03-27T14:45:20.647Z</time></trkpt><trkpt lat="44.6259033" lon="9.4918867"><ele>759.0</ele><time>2026-03-27T14:45:21.646Z</time></trkpt><trkpt lat="44.625965" lon="9.4920483"><ele>759.0</ele><time>2026-03-27T14:45:22.646Z</time></trkpt><trkpt lat="44.6260383" lon="9.4922233"><ele>753.6666666666666</ele><time>2026-03-27T14:45:23.648Z</time></trkpt><trkpt lat="44.62609" lon="9.4924217"><ele>748.3333333333333</ele><time>2026-03-27T14:45:24.647Z</time></trkpt><trkpt lat="44.6261167" lon="9.4926317"><ele>743.0</ele><time>2026-03-27T14:45:25.647Z</time></trkpt><trkpt lat="44.6261233" lon="9.4928483"><ele>740.5</ele><time>2026-03-27T14:45:26.65Z</time></trkpt><trkpt lat="44.6261233" lon="9.49306"><ele>738.0</ele><time>2026-03-27T14:45:27.646Z</time></trkpt><trkpt lat="44.6261217" lon="9.4932667"><ele>735.5</ele><time>2026-03-27T14:45:28.646Z</time></trkpt><trkpt lat="44.6261233" lon="9.4934617"><ele>733.0</ele><time>2026-03-27T14:45:29.647Z</time></trkpt><trkpt lat="44.6261317" lon="9.49363"><ele>733.4</ele><time>2026-03-27T14:45:30.647Z</time></trkpt><trkpt lat="44.62616" lon="9.493775"><ele>733.8</ele><time>2026-03-27T14:45:31.646Z</time></trkpt><trkpt lat="44.6262283" lon="9.4938833"><ele>734.2</ele><time>2026-03-27T14:45:32.648Z</time></trkpt><trkpt lat="44.6263267" lon="9.49394"><ele>734.6</ele><time>2026-03-27T14:45:33.647Z</time></trkpt><trkpt lat="44.6264483" lon="9.4939767"><ele>735.0</ele><time>2026-03-27T14:45:34.647Z</time></trkpt><trkpt lat="44.6265883" lon="9.4940233"><ele>735.0</ele><time>2026-03-27T14:45:35.646Z</time></trkpt><trkpt lat="44.626725" lon="9.4940933"><ele>735.0</ele><time>2026-03-27T14:45:36.647Z</time></trkpt><trkpt lat="44.626835" lon="9.4941983"><ele>735.0</ele><time>2026-03-27T14:45:37.646Z</time></trkpt><trkpt lat="44.6269467" lon="9.49428"><ele>735.0</ele><time>2026-03-27T14:45:38.648Z</time></trkpt><trkpt lat="44.6270633" lon="9.4942933"><ele>731.25</ele><time>2026-03-27T14:45:39.647Z</time></trkpt><trkpt lat="44.6271683" lon="9.4942567"><ele>727.5</ele><time>2026-03-27T14:45:40.646Z</time></trkpt><trkpt lat="44.6272567" lon="9.4941617"><ele>723.75</ele><time>2026-03-27T14:45:41.648Z</time></trkpt><trkpt lat="44.627325" lon="9.4940217"><ele>720.0</ele><time>2026-03-27T14:45:42.648Z</time></trkpt><trkpt lat="44.6274" lon="9.49387"><ele>719.75</ele><time>2026-03-27T14:45:43.647Z</time></trkpt><trkpt lat="44.6275017" lon="9.4937417"><ele>719.5</ele><time>2026-03-27T14:45:44.646Z</time></trkpt><trkpt lat="44.62763" lon="9.4936667"><ele>719.25</ele><time>2026-03-27T14:45:45.647Z</time></trkpt><trkpt lat="44.6277633" lon="9.49363"><ele>719.0</ele><time>2026-03-27T14:45:46.647Z</time></trkpt><trkpt lat="44.6279" lon="9.4935967"><ele>719.0</ele><time>2026-03-27T14:45:47.648Z</time></trkpt><trkpt lat="44.6280267" lon="9.4935417"><ele>719.0</ele><time>2026-03-27T14:45:48.65Z</time></trkpt><trkpt lat="44.6281383" lon="9.4934333"><ele>719.0</ele><time>2026-03-27T14:45:49.649Z</time></trkpt><trkpt lat="44.62822" lon="9.4932933"><ele>719.0</ele><time>2026-03-27T14:45:50.65Z</time></trkpt><trkpt lat="44.62829" lon="9.4931283"><ele>719.0</ele><time>2026-03-27T14:45:51.646Z</time></trkpt><trkpt lat="44.6283755" lon="9.4929843"><ele>719.0</ele><time>2026-03-27T14:45:52.647Z</time></trkpt><trkpt lat="44.6284926" lon="9.4928754"><ele>719.0</ele><time>2026-03-27T14:45:53.648Z</time></trkpt><trkpt lat="44.6286141" lon="9.4927817"><ele>719.0</ele><time>2026-03-27T14:45:54.646Z</time></trkpt><trkpt lat="44.6287115" lon="9.4926521"><ele>717.75</ele><time>2026-03-27T14:45:55.646Z</time></trkpt><trkpt lat="44.6287836" lon="9.4924836"><ele>716.5</ele><time>2026-03-27T14:45:56.647Z</time></trkpt><trkpt lat="44.6288556" lon="9.4923134"><ele>715.25</ele><time>2026-03-27T14:45:57.646Z</time></trkpt><trkpt lat="44.6289501" lon="9.4921815"><ele>714.0</ele><time>2026-03-27T14:45:58.646Z</time></trkpt><trkpt lat="44.6290643" lon="9.4921092"><ele>714.0</ele><time>2026-03-27T14:45:59.648Z</time></trkpt><trkpt lat="44.6291955" lon="9.492099"><ele>714.0</ele><time>2026-03-27T14:46:00.648Z</time></trkpt><trkpt lat="44.6293293" lon="9.4921468"><ele>714.0</ele><time>2026-03-27T14:46:01.648Z</time></trkpt><trkpt lat="44.6294655" lon="9.492225"><ele>714.0</ele><time>2026-03-27T14:46:02.648Z</time></trkpt><trkpt lat="44.6296028" lon="9.4923057"><ele>714.0</ele><time>2026-03-27T14:46:03.653Z</time></trkpt><trkpt lat="44.6297371" lon="9.4923798"><ele>714.0</ele><time>2026-03-27T14:46:04.65Z</time></trkpt><trkpt lat="44.629866" lon="9.4924499"><ele>714.0</ele><time>2026-03-27T14:46:05.649Z</time></trkpt><trkpt lat="44.6299913" lon="9.4925153"><ele>714.0</ele><time>2026-03-27T14:46:06.647Z</time></trkpt><trkpt lat="44.6301176" lon="9.4925737"><ele>714.0</ele><time>2026-03-27T14:46:07.649Z</time></trkpt><trkpt lat="44.6302445" lon="9.4926202"><ele>714.0</ele><time>2026-03-27T14:46:08.647Z</time></trkpt><trkpt lat="44.6303808" lon="9.4926419"><ele>714.0</ele><time>2026-03-27T14:46:09.648Z</time></trkpt><trkpt lat="44.6305244" lon="9.4926297"><ele>714.0</ele><time>2026-03-27T14:46:10.649Z</time></trkpt><trkpt lat="44.6306745" lon="9.4926007"><ele>713.6666666666666</ele><time>2026-03-27T14:46:11.648Z</time></trkpt><trkpt lat="44.6308312" lon="9.4925823"><ele>713.3333333333333</ele><time>2026-03-27T14:46:12.647Z</time></trkpt><trkpt lat="44.6309874" lon="9.4925829"><ele>713.0</ele><time>2026-03-27T14:46:13.646Z</time></trkpt><trkpt lat="44.6311355" lon="9.492604"><ele>710.75</ele><time>2026-03-27T14:46:14.647Z</time></trkpt><trkpt lat="44.631264" lon="9.4926509"><ele>708.5</ele><time>2026-03-27T14:46:15.647Z</time></trkpt><trkpt lat="44.6313652" lon="9.4927357"><ele>706.25</ele><time>2026-03-27T14:46:16.646Z</time></trkpt><trkpt lat="44.6314402" lon="9.4928631"><ele>704.0</ele><time>2026-03-27T14:46:17.646Z</time></trkpt><trkpt lat="44.6315009" lon="9.4930098"><ele>704.0</ele><time>2026-03-27T14:46:18.647Z</time></trkpt><trkpt lat="44.6315606" lon="9.4931586"><ele>704.0</ele><time>2026-03-27T14:46:19.647Z</time></trkpt><trkpt lat="44.6316517" lon="9.4932771"><ele>704.0</ele><time>2026-03-27T14:46:20.654Z</time></trkpt><trkpt lat="44.631775" lon="9.4933646"><ele>704.0</ele><time>2026-03-27T14:46:21.648Z</time></trkpt><trkpt lat="44.6319098" lon="9.4934451"><ele>706.6666666666666</ele><time>2026-03-27T14:46:22.646Z</time></trkpt><trkpt lat="44.6320358" lon="9.4935514"><ele>709.3333333333334</ele><time>2026-03-27T14:46:23.646Z</time></trkpt><trkpt lat="44.6321562" lon="9.4936862"><ele>712.0</ele><time>2026-03-27T14:46:24.648Z</time></trkpt><trkpt lat="44.632259" lon="9.49384"><ele>708.0</ele><time>2026-03-27T14:46:25.647Z</time></trkpt><trkpt lat="44.6323505" lon="9.4939999"><ele>704.0</ele><time>2026-03-27T14:46:26.647Z</time></trkpt><trkpt lat="44.6324328" lon="9.4941709"><ele>700.0</ele><time>2026-03-27T14:46:27.646Z</time></trkpt><trkpt lat="44.6325048" lon="9.4943512"><ele>696.0</ele><time>2026-03-27T14:46:28.646Z</time></trkpt><trkpt lat="44.6325588" lon="9.4945444"><ele>693.0</ele><time>2026-03-27T14:46:29.646Z</time></trkpt><trkpt lat="44.6325891" lon="9.4947388"><ele>690.0</ele><time>2026-03-27T14:46:30.648Z</time></trkpt><trkpt lat="44.6326097" lon="9.4949207"><ele>687.0</ele><time>2026-03-27T14:46:31.646Z</time></trkpt><trkpt lat="44.6326407" lon="9.495079"><ele>684.0</ele><time>2026-03-27T14:46:32.646Z</time></trkpt><trkpt lat="44.6326997" lon="9.495202"><ele>684.0</ele><time>2026-03-27T14:46:33.646Z</time></trkpt><trkpt lat="44.6327883" lon="9.4952816"><ele>684.0</ele><time>2026-03-27T14:46:34.646Z</time></trkpt><trkpt lat="44.6329025" lon="9.4953011"><ele>684.0</ele><time>2026-03-27T14:46:35.646Z</time></trkpt><trkpt lat="44.6330262" lon="9.4952558"><ele>684.0</ele><time>2026-03-27T14:46:36.649Z</time></trkpt><trkpt lat="44.6331387" lon="9.4951547"><ele>684.0</ele><time>2026-03-27T14:46:37.646Z</time></trkpt><trkpt lat="44.6332424" lon="9.4950229"><ele>684.0</ele><time>2026-03-27T14:46:38.65Z</time></trkpt><trkpt lat="44.6333487" lon="9.4948833"><ele>684.0</ele><time>2026-03-27T14:46:39.646Z</time></trkpt><trkpt lat="44.6334617" lon="9.4947433"><ele>684.0</ele><time>2026-03-27T14:46:40.647Z</time></trkpt><trkpt lat="44.6335683" lon="9.4946083"><ele>682.5</ele><time>2026-03-27T14:46:41.646Z</time></trkpt><trkpt lat="44.6336683" lon="9.4944783"><ele>681.0</ele><time>2026-03-27T14:46:42.647Z</time></trkpt><trkpt lat="44.6337583" lon="9.4943633"><ele>679.5</ele><time>2026-03-27T14:46:43.648Z</time></trkpt><trkpt lat="44.6338383" lon="9.4942583"><ele>678.0</ele><time>2026-03-27T14:46:44.648Z</time></trkpt><trkpt lat="44.63391" lon="9.4941533"><ele>678.0</ele><time>2026-03-27T14:46:45.648Z</time></trkpt><trkpt lat="44.63396" lon="9.4940383"><ele>678.0</ele><time>2026-03-27T14:46:46.647Z</time></trkpt><trkpt lat="44.63399" lon="9.49391"><ele>678.0</ele><time>2026-03-27T14:46:47.648Z</time></trkpt><trkpt lat="44.63402" lon="9.493785"><ele>678.0</ele><time>2026-03-27T14:46:48.647Z</time></trkpt><trkpt lat="44.6340683" lon="9.49368"><ele>678.0</ele><time>2026-03-27T14:46:49.647Z</time></trkpt><trkpt lat="44.6341267" lon="9.4935883"><ele>678.4</ele><time>2026-03-27T14:46:50.648Z</time></trkpt><trkpt lat="44.6341867" lon="9.49351"><ele>678.8</ele><time>2026-03-27T14:46:51.647Z</time></trkpt><trkpt lat="44.6342467" lon="9.4934667"><ele>679.2</ele><time>2026-03-27T14:46:52.647Z</time></trkpt><trkpt lat="44.6343633" lon="9.493425"><ele>679.6</ele><time>2026-03-27T14:46:54.646Z</time></trkpt><trkpt lat="44.63449" lon="9.4934183"><ele>680.0</ele><time>2026-03-27T14:46:56.647Z</time></trkpt><trkpt lat="44.634565" lon="9.4934167"><ele>679.0</ele><time>2026-03-27T14:46:57.647Z</time></trkpt><trkpt lat="44.6346467" lon="9.4934167"><ele>678.0</ele><time>2026-03-27T14:46:58.647Z</time></trkpt><trkpt lat="44.6347333" lon="9.4934033"><ele>677.0</ele><time>2026-03-27T14:46:59.646Z</time></trkpt><trkpt lat="44.6348283" lon="9.4933883"><ele>676.0</ele><time>2026-03-27T14:47:00.647Z</time></trkpt><trkpt lat="44.6349267" lon="9.4933783"><ele>675.0</ele><time>2026-03-27T14:47:01.647Z</time></trkpt><trkpt lat="44.63503" lon="9.4933783"><ele>675.0</ele><time>2026-03-27T14:47:02.651Z</time></trkpt><trkpt lat="44.6351333" lon="9.4933983"><ele>675.0</ele><time>2026-03-27T14:47:03.648Z</time></trkpt><trkpt lat="44.6352417" lon="9.4934517"><ele>675.0</ele><time>2026-03-27T14:47:04.647Z</time></trkpt><trkpt lat="44.635355" lon="9.4935367"><ele>675.0</ele><time>2026-03-27T14:47:05.647Z</time></trkpt><trkpt lat="44.6354517" lon="9.49364"><ele>675.5</ele><time>2026-03-27T14:47:06.647Z</time></trkpt><trkpt lat="44.6355517" lon="9.493725"><ele>676.0</ele><time>2026-03-27T14:47:07.649Z</time></trkpt><trkpt lat="44.6356567" lon="9.4937817"><ele>676.5</ele><time>2026-03-27T14:47:08.648Z</time></trkpt><trkpt lat="44.6357817" lon="9.493765"><ele>677.0</ele><time>2026-03-27T14:47:09.647Z</time></trkpt><trkpt lat="44.6359217" lon="9.49371"><ele>677.0</ele><time>2026-03-27T14:47:10.648Z</time></trkpt><trkpt lat="44.6360533" lon="9.49363"><ele>677.0</ele><time>2026-03-27T14:47:11.646Z</time></trkpt><trkpt lat="44.6362017" lon="9.49357"><ele>677.0</ele><time>2026-03-27T14:47:12.648Z</time></trkpt><trkpt lat="44.636355" lon="9.4935267"><ele>676.5</ele><time>2026-03-27T14:47:13.647Z</time></trkpt><trkpt lat="44.6365083" lon="9.493515"><ele>676.0</ele><time>2026-03-27T14:47:14.649Z</time></trkpt><trkpt lat="44.6366483" lon="9.49355"><ele>675.5</ele><time>2026-03-27T14:47:15.647Z</time></trkpt><trkpt lat="44.6367817" lon="9.4935967"><ele>675.0</ele><time>2026-03-27T14:47:16.646Z</time></trkpt><trkpt lat="44.6369" lon="9.4936783"><ele>669.6666666666666</ele><time>2026-03-27T14:47:17.648Z</time></trkpt><trkpt lat="44.6370217" lon="9.4937967"><ele>664.3333333333333</ele><time>2026-03-27T14:47:18.649Z</time></trkpt><trkpt lat="44.6371417" lon="9.49393"><ele>659.0</ele><time>2026-03-27T14:47:19.649Z</time></trkpt><trkpt lat="44.6372567" lon="9.4940717"><ele>659.0</ele><time>2026-03-27T14:47:20.648Z</time></trkpt><trkpt lat="44.6373717" lon="9.4942117"><ele>659.0</ele><time>2026-03-27T14:47:21.648Z</time></trkpt><trkpt lat="44.6374867" lon="9.49434"><ele>659.0</ele><time>2026-03-27T14:47:22.649Z</time></trkpt><trkpt lat="44.637605" lon="9.49446"><ele>659.0</ele><time>2026-03-27T14:47:23.648Z</time></trkpt><trkpt lat="44.6377417" lon="9.4945367"><ele>655.6666666666666</ele><time>2026-03-27T14:47:24.647Z</time></trkpt><trkpt lat="44.6378867" lon="9.4946033"><ele>652.3333333333334</ele><time>2026-03-27T14:47:25.646Z</time></trkpt><trkpt lat="44.6380283" lon="9.49467"><ele>649.0</ele><time>2026-03-27T14:47:26.647Z</time></trkpt><trkpt lat="44.63817" lon="9.49474"><ele>649.0</ele><time>2026-03-27T14:47:27.646Z</time></trkpt><trkpt lat="44.6383133" lon="9.4948133"><ele>649.0</ele><time>2026-03-27T14:47:28.647Z</time></trkpt><trkpt lat="44.6384533" lon="9.4948817"><ele>649.0</ele><time>2026-03-27T14:47:29.647Z</time></trkpt><trkpt lat="44.6385867" lon="9.494945"><ele>649.0</ele><time>2026-03-27T14:47:30.646Z</time></trkpt><trkpt lat="44.6387157" lon="9.494995"><ele>647.5</ele><time>2026-03-27T14:47:31.647Z</time></trkpt><trkpt lat="44.6388406" lon="9.4950083"><ele>646.0</ele><time>2026-03-27T14:47:32.647Z</time></trkpt><trkpt lat="44.6389719" lon="9.4949809"><ele>644.5</ele><time>2026-03-27T14:47:33.65Z</time></trkpt><trkpt lat="44.639109" lon="9.4949355"><ele>643.0</ele><time>2026-03-27T14:47:34.647Z</time></trkpt><trkpt lat="44.6392558" lon="9.4948881"><ele>643.0</ele><time>2026-03-27T14:47:35.647Z</time></trkpt><trkpt lat="44.6394076" lon="9.4948419"><ele>643.0</ele><time>2026-03-27T14:47:36.646Z</time></trkpt><trkpt lat="44.6395589" lon="9.4947817"><ele>643.0</ele><time>2026-03-27T14:47:37.646Z</time></trkpt><trkpt lat="44.6397056" lon="9.4947309"><ele>641.75</ele><time>2026-03-27T14:47:38.65Z</time></trkpt><trkpt lat="44.6398453" lon="9.4946796"><ele>640.5</ele><time>2026-03-27T14:47:39.646Z</time></trkpt><trkpt lat="44.639982" lon="9.4946357"><ele>639.25</ele><time>2026-03-27T14:47:40.65Z</time></trkpt><trkpt lat="44.6401239" lon="9.4946031"><ele>638.0</ele><time>2026-03-27T14:47:41.649Z</time></trkpt><trkpt lat="44.6402777" lon="9.4945858"><ele>638.6666666666666</ele><time>2026-03-27T14:47:42.647Z</time></trkpt><trkpt lat="44.6404394" lon="9.4945878"><ele>639.3333333333334</ele><time>2026-03-27T14:47:43.646Z</time></trkpt><trkpt lat="44.640596" lon="9.4946062"><ele>640.0</ele><time>2026-03-27T14:47:44.647Z</time></trkpt><trkpt lat="44.6407447" lon="9.4946401"><ele>640.0</ele><time>2026-03-27T14:47:45.646Z</time></trkpt><trkpt lat="44.6408841" lon="9.4946904"><ele>640.0</ele><time>2026-03-27T14:47:46.646Z</time></trkpt><trkpt lat="44.6410086" lon="9.4947818"><ele>640.0</ele><time>2026-03-27T14:47:47.647Z</time></trkpt><trkpt lat="44.6411304" lon="9.4949049"><ele>640.0</ele><time>2026-03-27T14:47:48.648Z</time></trkpt><trkpt lat="44.641255" lon="9.4950299"><ele>637.75</ele><time>2026-03-27T14:47:49.646Z</time></trkpt><trkpt lat="44.6413809" lon="9.4951405"><ele>635.5</ele><time>2026-03-27T14:47:50.647Z</time></trkpt><trkpt lat="44.6415071" lon="9.4952386"><ele>633.25</ele><time>2026-03-27T14:47:51.646Z</time></trkpt><trkpt lat="44.6416378" lon="9.4953354"><ele>631.0</ele><time>2026-03-27T14:47:52.646Z</time></trkpt><trkpt lat="44.6417715" lon="9.4954337"><ele>631.0</ele><time>2026-03-27T14:47:53.647Z</time></trkpt><trkpt lat="44.6419066" lon="9.4955373"><ele>631.0</ele><time>2026-03-27T14:47:54.646Z</time></trkpt><trkpt lat="44.6420376" lon="9.4956463"><ele>631.0</ele><time>2026-03-27T14:47:55.65Z</time></trkpt><trkpt lat="44.6421635" lon="9.495758"><ele>630.75</ele><time>2026-03-27T14:47:56.648Z</time></trkpt><trkpt lat="44.642284" lon="9.4958714"><ele>630.5</ele><time>2026-03-27T14:47:57.648Z</time></trkpt><trkpt lat="44.6423916" lon="9.4959982"><ele>630.25</ele><time>2026-03-27T14:47:58.646Z</time></trkpt><trkpt lat="44.6424881" lon="9.4961363"><ele>630.0</ele><time>2026-03-27T14:47:59.646Z</time></trkpt><trkpt lat="44.6425764" lon="9.4962796"><ele>630.0</ele><time>2026-03-27T14:48:00.647Z</time></trkpt><trkpt lat="44.6426662" lon="9.4964165"><ele>630.0</ele><time>2026-03-27T14:48:01.646Z</time></trkpt><trkpt lat="44.6427652" lon="9.4965345"><ele>630.0</ele><time>2026-03-27T14:48:02.647Z</time></trkpt><trkpt lat="44.6428799" lon="9.4966308"><ele>630.0</ele><time>2026-03-27T14:48:03.646Z</time></trkpt><trkpt lat="44.6430028" lon="9.4967108"><ele>631.75</ele><time>2026-03-27T14:48:04.649Z</time></trkpt><trkpt lat="44.6431261" lon="9.4967835"><ele>633.5</ele><time>2026-03-27T14:48:05.647Z</time></trkpt><trkpt lat="44.6432455" lon="9.4968573"><ele>635.25</ele><time>2026-03-27T14:48:06.646Z</time></trkpt><trkpt lat="44.6433562" lon="9.4969455"><ele>637.0</ele><time>2026-03-27T14:48:07.652Z</time></trkpt><trkpt lat="44.6434578" lon="9.4970481"><ele>636.2</ele><time>2026-03-27T14:48:08.647Z</time></trkpt><trkpt lat="44.643555" lon="9.4971545"><ele>635.4000000000001</ele><time>2026-03-27T14:48:09.647Z</time></trkpt><trkpt lat="44.6436374" lon="9.4972646"><ele>634.5999999999999</ele><time>2026-03-27T14:48:10.649Z</time></trkpt><trkpt lat="44.643705" lon="9.4973717"><ele>633.8</ele><time>2026-03-27T14:48:11.646Z</time></trkpt><trkpt lat="44.6437647" lon="9.4974676"><ele>633.0</ele><time>2026-03-27T14:48:12.648Z</time></trkpt><trkpt lat="44.6438132" lon="9.4975509"><ele>633.0</ele><time>2026-03-27T14:48:13.646Z</time></trkpt><trkpt lat="44.6438514" lon="9.4976311"><ele>633.0</ele><time>2026-03-27T14:48:14.648Z</time></trkpt><trkpt lat="44.6438924" lon="9.4977074"><ele>633.0</ele><time>2026-03-27T14:48:15.647Z</time></trkpt><trkpt lat="44.6439576" lon="9.49783"><ele>633.0</ele><time>2026-03-27T14:48:17.647Z</time></trkpt><trkpt lat="44.6439607" lon="9.4979588"><ele>633.0</ele><time>2026-03-27T14:48:19.648Z</time></trkpt><trkpt lat="44.6439424" lon="9.4980521"><ele>633.0</ele><time>2026-03-27T14:48:22.646Z</time></trkpt><trkpt lat="44.6439399" lon="9.498167"><ele>631.6666666666666</ele><time>2026-03-27T14:51:17.648Z</time></trkpt><trkpt lat="44.6439109" lon="9.4982842"><ele>630.3333333333334</ele><time>2026-03-27T14:51:19.651Z</time></trkpt><trkpt lat="44.6438497" lon="9.4984332"><ele>629.0</ele><time>2026-03-27T14:51:21.649Z</time></trkpt><trkpt lat="44.6438097" lon="9.498516"><ele>627.6666666666667</ele><time>2026-03-27T14:51:22.646Z</time></trkpt><trkpt lat="44.6437597" lon="9.4986071"><ele>626.3333333333334</ele><time>2026-03-27T14:51:23.646Z</time></trkpt><trkpt lat="44.6437082" lon="9.4987012"><ele>625.0</ele><time>2026-03-27T14:51:24.648Z</time></trkpt><trkpt lat="44.643656" lon="9.498795"><ele>625.0</ele><time>2026-03-27T14:51:25.647Z</time></trkpt><trkpt lat="44.6435981" lon="9.4988925"><ele>625.0</ele><time>2026-03-27T14:51:26.649Z</time></trkpt><trkpt lat="44.6435421" lon="9.4989926"><ele>625.0</ele><time>2026-03-27T14:51:27.647Z</time></trkpt><trkpt lat="44.6434977" lon="9.4990993"><ele>625.0</ele><time>2026-03-27T14:51:28.649Z</time></trkpt><trkpt lat="44.6434738" lon="9.4992063"><ele>625.0</ele><time>2026-03-27T14:51:29.646Z</time></trkpt><trkpt lat="44.6434684" lon="9.4993069"><ele>625.0</ele><time>2026-03-27T14:51:30.649Z</time></trkpt><trkpt lat="44.6434819" lon="9.4994019"><ele>625.0</ele><time>2026-03-27T14:51:31.648Z</time></trkpt><trkpt lat="44.643515" lon="9.499495"><ele>625.0</ele><time>2026-03-27T14:51:32.648Z</time></trkpt><trkpt lat="44.6435678" lon="9.499588"><ele>625.0</ele><time>2026-03-27T14:51:33.647Z</time></trkpt><trkpt lat="44.6436368" lon="9.4996795"><ele>625.0</ele><time>2026-03-27T14:51:34.647Z</time></trkpt><trkpt lat="44.6437126" lon="9.4997649"><ele>625.0</ele><time>2026-03-27T14:51:35.649Z</time></trkpt><trkpt lat="44.6437987" lon="9.4998492"><ele>625.8</ele><time>2026-03-27T14:51:36.646Z</time></trkpt><trkpt lat="44.6438875" lon="9.4999315"><ele>626.6</ele><time>2026-03-27T14:51:37.647Z</time></trkpt><trkpt lat="44.6439792" lon="9.5000127"><ele>627.4</ele><time>2026-03-27T14:51:38.647Z</time></trkpt><trkpt lat="44.6440714" lon="9.5000932"><ele>628.2</ele><time>2026-03-27T14:51:39.647Z</time></trkpt><trkpt lat="44.6441662" lon="9.5001677"><ele>629.0</ele><time>2026-03-27T14:51:40.648Z</time></trkpt><trkpt lat="44.6442683" lon="9.5002373"><ele>629.0</ele><time>2026-03-27T14:51:41.647Z</time></trkpt><trkpt lat="44.644376" lon="9.5003075"><ele>629.0</ele><time>2026-03-27T14:51:42.648Z</time></trkpt><trkpt lat="44.6444863" lon="9.5003766"><ele>629.0</ele><time>2026-03-27T14:51:43.646Z</time></trkpt><trkpt lat="44.6445969" lon="9.5004534"><ele>629.0</ele><time>2026-03-27T14:51:44.647Z</time></trkpt><trkpt lat="44.6447057" lon="9.5005405"><ele>629.75</ele><time>2026-03-27T14:51:45.646Z</time></trkpt><trkpt lat="44.6448126" lon="9.5006395"><ele>630.5</ele><time>2026-03-27T14:51:46.647Z</time></trkpt><trkpt lat="44.6449152" lon="9.5007506"><ele>631.25</ele><time>2026-03-27T14:51:47.646Z</time></trkpt><trkpt lat="44.6450131" lon="9.5008802"><ele>632.0</ele><time>2026-03-27T14:51:48.648Z</time></trkpt><trkpt lat="44.6451001" lon="9.5010322"><ele>632.0</ele><time>2026-03-27T14:51:49.648Z</time></trkpt><trkpt lat="44.6451746" lon="9.5012046"><ele>632.0</ele><time>2026-03-27T14:51:50.648Z</time></trkpt><trkpt lat="44.6452408" lon="9.5013896"><ele>632.0</ele><time>2026-03-27T14:51:51.649Z</time></trkpt><trkpt lat="44.6453003" lon="9.5015826"><ele>632.0</ele><time>2026-03-27T14:51:52.648Z</time></trkpt><trkpt lat="44.6453575" lon="9.5017738"><ele>632.0</ele><time>2026-03-27T14:51:53.648Z</time></trkpt><trkpt lat="44.6454138" lon="9.5019594"><ele>632.0</ele><time>2026-03-27T14:51:54.649Z</time></trkpt><trkpt lat="44.6454712" lon="9.502131"><ele>632.0</ele><time>2026-03-27T14:51:55.647Z</time></trkpt><trkpt lat="44.6455291" lon="9.5022879"><ele>632.0</ele><time>2026-03-27T14:51:56.654Z</time></trkpt><trkpt lat="44.6455871" lon="9.5024384"><ele>632.0</ele><time>2026-03-27T14:51:57.648Z</time></trkpt><trkpt lat="44.6456439" lon="9.5025889"><ele>632.0</ele><time>2026-03-27T14:51:58.647Z</time></trkpt><trkpt lat="44.6456977" lon="9.5027386"><ele>632.0</ele><time>2026-03-27T14:51:59.648Z</time></trkpt><trkpt lat="44.6457506" lon="9.5028885"><ele>632.0</ele><time>2026-03-27T14:52:00.647Z</time></trkpt><trkpt lat="44.6457962" lon="9.5030479"><ele>634.5</ele><time>2026-03-27T14:52:01.649Z</time></trkpt><trkpt lat="44.6458289" lon="9.5032183"><ele>637.0</ele><time>2026-03-27T14:52:02.646Z</time></trkpt><trkpt lat="44.645854" lon="9.5033981"><ele>639.5</ele><time>2026-03-27T14:52:03.648Z</time></trkpt><trkpt lat="44.6458807" lon="9.5035764"><ele>642.0</ele><time>2026-03-27T14:52:04.647Z</time></trkpt><trkpt lat="44.6459227" lon="9.503748"><ele>644.5</ele><time>2026-03-27T14:52:05.646Z</time></trkpt><trkpt lat="44.6459826" lon="9.503902"><ele>647.0</ele><time>2026-03-27T14:52:06.646Z</time></trkpt><trkpt lat="44.6460482" lon="9.5040381"><ele>649.5</ele><time>2026-03-27T14:52:07.647Z</time></trkpt><trkpt lat="44.6460962" lon="9.5041732"><ele>652.0</ele><time>2026-03-27T14:52:08.648Z</time></trkpt><trkpt lat="44.6461264" lon="9.504321"><ele>654.0</ele><time>2026-03-27T14:52:09.648Z</time></trkpt><trkpt lat="44.6461325" lon="9.5044868"><ele>656.0</ele><time>2026-03-27T14:52:10.647Z</time></trkpt><trkpt lat="44.6461164" lon="9.5046674"><ele>658.0</ele><time>2026-03-27T14:52:11.647Z</time></trkpt><trkpt lat="44.6460866" lon="9.5048544"><ele>660.0</ele><time>2026-03-27T14:52:12.647Z</time></trkpt><trkpt lat="44.6460632" lon="9.5050516"><ele>660.0</ele><time>2026-03-27T14:52:13.648Z</time></trkpt><trkpt lat="44.6460712" lon="9.5052493"><ele>660.0</ele><time>2026-03-27T14:52:14.648Z</time></trkpt><trkpt lat="44.6461161" lon="9.5054304"><ele>660.0</ele><time>2026-03-27T14:52:15.647Z</time></trkpt><trkpt lat="44.6462022" lon="9.5055867"><ele>660.0</ele><time>2026-03-27T14:52:16.646Z</time></trkpt><trkpt lat="44.6463088" lon="9.5057361"><ele>651.6666666666666</ele><time>2026-03-27T14:52:17.646Z</time></trkpt><trkpt lat="44.64642" lon="9.5058874"><ele>643.3333333333333</ele><time>2026-03-27T14:52:18.647Z</time></trkpt><trkpt lat="44.6465277" lon="9.5060397"><ele>635.0</ele><time>2026-03-27T14:52:19.648Z</time></trkpt><trkpt lat="44.6466364" lon="9.5061905"><ele>631.25</ele><time>2026-03-27T14:52:20.649Z</time></trkpt><trkpt lat="44.6467442" lon="9.506336"><ele>627.5</ele><time>2026-03-27T14:52:21.648Z</time></trkpt><trkpt lat="44.6468434" lon="9.5064657"><ele>623.75</ele><time>2026-03-27T14:52:22.648Z</time></trkpt><trkpt lat="44.646935" lon="9.5065881"><ele>620.0</ele><time>2026-03-27T14:52:23.648Z</time></trkpt><trkpt lat="44.647022" lon="9.5067066"><ele>620.0</ele><time>2026-03-27T14:52:24.65Z</time></trkpt><trkpt lat="44.6471006" lon="9.5068211"><ele>620.0</ele><time>2026-03-27T14:52:25.652Z</time></trkpt><trkpt lat="44.6471683" lon="9.5069366"><ele>620.0</ele><time>2026-03-27T14:52:26.648Z</time></trkpt><trkpt lat="44.6472308" lon="9.5070531"><ele>620.0</ele><time>2026-03-27T14:52:27.649Z</time></trkpt><trkpt lat="44.6472926" lon="9.5071697"><ele>620.0</ele><time>2026-03-27T14:52:28.648Z</time></trkpt><trkpt lat="44.6473403" lon="9.5072946"><ele>623.4</ele><time>2026-03-27T14:52:29.648Z</time></trkpt><trkpt lat="44.6473714" lon="9.5074316"><ele>626.8</ele><time>2026-03-27T14:52:30.648Z</time></trkpt><trkpt lat="44.6473906" lon="9.5075697"><ele>630.2</ele><time>2026-03-27T14:52:31.649Z</time></trkpt><trkpt lat="44.6474122" lon="9.507705"><ele>633.6</ele><time>2026-03-27T14:52:32.648Z</time></trkpt><trkpt lat="44.6474468" lon="9.5078371"><ele>637.0</ele><time>2026-03-27T14:52:33.648Z</time></trkpt><trkpt lat="44.6475049" lon="9.5079565"><ele>636.8000000000001</ele><time>2026-03-27T14:52:34.649Z</time></trkpt><trkpt lat="44.6475843" lon="9.5080483"><ele>636.6</ele><time>2026-03-27T14:52:35.648Z</time></trkpt><trkpt lat="44.6476802" lon="9.5081034"><ele>636.4000000000001</ele><time>2026-03-27T14:52:36.65Z</time></trkpt><trkpt lat="44.647776" lon="9.5081297"><ele>636.2</ele><time>2026-03-27T14:52:37.648Z</time></trkpt><trkpt lat="44.6478732" lon="9.5081375"><ele>636.0</ele><time>2026-03-27T14:52:38.65Z</time></trkpt><trkpt lat="44.6479763" lon="9.5081344"><ele>636.0</ele><time>2026-03-27T14:52:39.648Z</time></trkpt><trkpt lat="44.6480682" lon="9.5081356"><ele>636.0</ele><time>2026-03-27T14:52:40.648Z</time></trkpt><trkpt lat="44.6481526" lon="9.5081488"><ele>636.0</ele><time>2026-03-27T14:52:41.648Z</time></trkpt><trkpt lat="44.6482355" lon="9.508191"><ele>636.0</ele><time>2026-03-27T14:52:42.648Z</time></trkpt><trkpt lat="44.6483201" lon="9.508302"><ele>636.0</ele><time>2026-03-27T14:52:43.648Z</time></trkpt><trkpt lat="44.6483936" lon="9.508458"><ele>636.0</ele><time>2026-03-27T14:52:44.651Z</time></trkpt><trkpt lat="44.6484686" lon="9.5086328"><ele>636.0</ele><time>2026-03-27T14:52:45.648Z</time></trkpt><trkpt lat="44.6485477" lon="9.50882"><ele>636.0</ele><time>2026-03-27T14:52:46.646Z</time></trkpt><trkpt lat="44.6486305" lon="9.5090197"><ele>633.0</ele><time>2026-03-27T14:52:47.649Z</time></trkpt><trkpt lat="44.6487108" lon="9.5092464"><ele>630.0</ele><time>2026-03-27T14:52:48.649Z</time></trkpt><trkpt lat="44.6487824" lon="9.509499"><ele>627.0</ele><time>2026-03-27T14:52:49.65Z</time></trkpt><trkpt lat="44.6488517" lon="9.5097514"><ele>627.0</ele><time>2026-03-27T14:52:50.649Z</time></trkpt><trkpt lat="44.6489257" lon="9.5099957"><ele>627.0</ele><time>2026-03-27T14:52:51.65Z</time></trkpt><trkpt lat="44.648997" lon="9.5102423"><ele>627.0</ele><time>2026-03-27T14:52:52.649Z</time></trkpt><trkpt lat="44.649062" lon="9.5104808"><ele>629.0</ele><time>2026-03-27T14:52:53.651Z</time></trkpt><trkpt lat="44.6491347" lon="9.5107023"><ele>631.0</ele><time>2026-03-27T14:52:54.649Z</time></trkpt><trkpt lat="44.6492159" lon="9.5109078"><ele>633.0</ele><time>2026-03-27T14:52:55.649Z</time></trkpt><trkpt lat="44.6493021" lon="9.5110971"><ele>635.0</ele><time>2026-03-27T14:52:56.648Z</time></trkpt><trkpt lat="44.6493758" lon="9.5112859"><ele>637.0</ele><time>2026-03-27T14:52:57.648Z</time></trkpt><trkpt lat="44.649419" lon="9.5114852"><ele>639.0</ele><time>2026-03-27T14:52:58.648Z</time></trkpt><trkpt lat="44.6494294" lon="9.5116967"><ele>639.0</ele><time>2026-03-27T14:52:59.647Z</time></trkpt><trkpt lat="44.6494258" lon="9.5119173"><ele>639.0</ele><time>2026-03-27T14:53:00.646Z</time></trkpt><trkpt lat="44.6494384" lon="9.5121499"><ele>639.0</ele><time>2026-03-27T14:53:01.646Z</time></trkpt><trkpt lat="44.6494912" lon="9.5123721"><ele>635.25</ele><time>2026-03-27T14:53:02.649Z</time></trkpt><trkpt lat="44.6495703" lon="9.5125701"><ele>631.5</ele><time>2026-03-27T14:53:03.646Z</time></trkpt><trkpt lat="44.649642" lon="9.5127555"><ele>627.75</ele><time>2026-03-27T14:53:04.646Z</time></trkpt><trkpt lat="44.6496827" lon="9.5129297"><ele>624.0</ele><time>2026-03-27T14:53:05.647Z</time></trkpt><trkpt lat="44.6496801" lon="9.5131133"><ele>624.0</ele><time>2026-03-27T14:53:06.646Z</time></trkpt><trkpt lat="44.6496376" lon="9.5132975"><ele>624.0</ele><time>2026-03-27T14:53:07.646Z</time></trkpt><trkpt lat="44.6495732" lon="9.5134787"><ele>624.0</ele><time>2026-03-27T14:53:08.647Z</time></trkpt><trkpt lat="44.6495143" lon="9.5136453"><ele>624.0</ele><time>2026-03-27T14:53:09.647Z</time></trkpt><trkpt lat="44.6494695" lon="9.5137947"><ele>624.0</ele><time>2026-03-27T14:53:10.646Z</time></trkpt><trkpt lat="44.6494417" lon="9.5139326"><ele>624.0</ele><time>2026-03-27T14:53:11.649Z</time></trkpt><trkpt lat="44.6494357" lon="9.5140625"><ele>624.0</ele><time>2026-03-27T14:53:12.648Z</time></trkpt><trkpt lat="44.6494511" lon="9.5141885"><ele>624.0</ele><time>2026-03-27T14:53:13.646Z</time></trkpt><trkpt lat="44.6494941" lon="9.5143169"><ele>624.0</ele><time>2026-03-27T14:53:14.648Z</time></trkpt><trkpt lat="44.6495634" lon="9.5144341"><ele>624.0</ele><time>2026-03-27T14:53:15.647Z</time></trkpt><trkpt lat="44.6496588" lon="9.5145388"><ele>624.0</ele><time>2026-03-27T14:53:16.648Z</time></trkpt><trkpt lat="44.6497671" lon="9.514636"><ele>624.0</ele><time>2026-03-27T14:53:17.647Z</time></trkpt><trkpt lat="44.6498749" lon="9.5147334"><ele>624.0</ele><time>2026-03-27T14:53:18.648Z</time></trkpt><trkpt lat="44.6499653" lon="9.5148437"><ele>624.5</ele><time>2026-03-27T14:53:19.646Z</time></trkpt><trkpt lat="44.6500373" lon="9.5149651"><ele>625.0</ele><time>2026-03-27T14:53:20.647Z</time></trkpt><trkpt lat="44.6500585" lon="9.5151067"><ele>625.5</ele><time>2026-03-27T14:53:21.648Z</time></trkpt><trkpt lat="44.6500509" lon="9.5152726"><ele>626.0</ele><time>2026-03-27T14:53:22.647Z</time></trkpt><trkpt lat="44.650031" lon="9.5154616"><ele>626.25</ele><time>2026-03-27T14:53:23.647Z</time></trkpt><trkpt lat="44.6499986" lon="9.5156613"><ele>626.5</ele><time>2026-03-27T14:53:24.647Z</time></trkpt><trkpt lat="44.6499604" lon="9.5158622"><ele>626.75</ele><time>2026-03-27T14:53:25.648Z</time></trkpt><trkpt lat="44.649933" lon="9.5160624"><ele>627.0</ele><time>2026-03-27T14:53:26.653Z</time></trkpt><trkpt lat="44.649935" lon="9.5162522"><ele>627.0</ele><time>2026-03-27T14:53:27.648Z</time></trkpt><trkpt lat="44.6499777" lon="9.5164425"><ele>627.0</ele><time>2026-03-27T14:53:28.647Z</time></trkpt><trkpt lat="44.6500431" lon="9.51664"><ele>627.0</ele><time>2026-03-27T14:53:29.646Z</time></trkpt><trkpt lat="44.6501042" lon="9.5168472"><ele>627.0</ele><time>2026-03-27T14:53:30.647Z</time></trkpt><trkpt lat="44.6501559" lon="9.5170618"><ele>627.0</ele><time>2026-03-27T14:53:31.648Z</time></trkpt><trkpt lat="44.6502069" lon="9.5172833"><ele>627.0</ele><time>2026-03-27T14:53:32.647Z</time></trkpt><trkpt lat="44.6502594" lon="9.5175067"><ele>619.6666666666666</ele><time>2026-03-27T14:53:33.647Z</time></trkpt><trkpt lat="44.6503195" lon="9.5177277"><ele>612.3333333333333</ele><time>2026-03-27T14:53:34.646Z</time></trkpt><trkpt lat="44.650365" lon="9.5179512"><ele>605.0</ele><time>2026-03-27T14:53:35.646Z</time></trkpt><trkpt lat="44.6503926" lon="9.5181823"><ele>604.0</ele><time>2026-03-27T14:53:36.651Z</time></trkpt><trkpt lat="44.6504041" lon="9.5184186"><ele>603.0</ele><time>2026-03-27T14:53:37.646Z</time></trkpt><trkpt lat="44.6504147" lon="9.5186629"><ele>602.0</ele><time>2026-03-27T14:53:38.648Z</time></trkpt><trkpt lat="44.6504321" lon="9.5189074"><ele>602.0</ele><time>2026-03-27T14:53:39.646Z</time></trkpt><trkpt lat="44.6504584" lon="9.5191541"><ele>602.0</ele><time>2026-03-27T14:53:40.647Z</time></trkpt><trkpt lat="44.6504992" lon="9.5193966"><ele>602.0</ele><time>2026-03-27T14:53:41.646Z</time></trkpt><trkpt lat="44.6505533" lon="9.519626"><ele>602.0</ele><time>2026-03-27T14:53:42.648Z</time></trkpt><trkpt lat="44.6506109" lon="9.5198537"><ele>602.0</ele><time>2026-03-27T14:53:43.646Z</time></trkpt><trkpt lat="44.6506658" lon="9.5200826"><ele>602.0</ele><time>2026-03-27T14:53:44.649Z</time></trkpt><trkpt lat="44.6507061" lon="9.5203145"><ele>604.3333333333333</ele><time>2026-03-27T14:53:45.647Z</time></trkpt><trkpt lat="44.6507401" lon="9.5205437"><ele>606.6666666666666</ele><time>2026-03-27T14:53:46.649Z</time></trkpt><trkpt lat="44.6507815" lon="9.520765"><ele>609.0</ele><time>2026-03-27T14:53:47.647Z</time></trkpt><trkpt lat="44.6508439" lon="9.5209778"><ele>609.0</ele><time>2026-03-27T14:53:48.647Z</time></trkpt><trkpt lat="44.6509275" lon="9.5211818"><ele>609.0</ele><time>2026-03-27T14:53:49.647Z</time></trkpt><trkpt lat="44.6510129" lon="9.521387"><ele>609.0</ele><time>2026-03-27T14:53:50.647Z</time></trkpt><trkpt lat="44.6510852" lon="9.5215977"><ele>599.0</ele><time>2026-03-27T14:53:51.651Z</time></trkpt><trkpt lat="44.6511374" lon="9.5218198"><ele>589.0</ele><time>2026-03-27T14:53:52.648Z</time></trkpt><trkpt lat="44.6511696" lon="9.5220508"><ele>579.0</ele><time>2026-03-27T14:53:53.648Z</time></trkpt><trkpt lat="44.6511924" lon="9.5222883"><ele>579.0</ele><time>2026-03-27T14:53:54.647Z</time></trkpt><trkpt lat="44.6512139" lon="9.5225285"><ele>579.0</ele><time>2026-03-27T14:53:55.648Z</time></trkpt><trkpt lat="44.6512398" lon="9.5227728"><ele>579.0</ele><time>2026-03-27T14:53:56.649Z</time></trkpt><trkpt lat="44.6512652" lon="9.5230229"><ele>581.3333333333334</ele><time>2026-03-27T14:53:57.647Z</time></trkpt><trkpt lat="44.6512942" lon="9.5232649"><ele>583.6666666666667</ele><time>2026-03-27T14:53:58.647Z</time></trkpt><trkpt lat="44.6513358" lon="9.5234903"><ele>586.0</ele><time>2026-03-27T14:53:59.65Z</time></trkpt><trkpt lat="44.6514009" lon="9.5236893"><ele>589.3333333333334</ele><time>2026-03-27T14:54:00.646Z</time></trkpt><trkpt lat="44.6514852" lon="9.5238712"><ele>592.6666666666666</ele><time>2026-03-27T14:54:01.646Z</time></trkpt><trkpt lat="44.6515654" lon="9.5240565"><ele>596.0</ele><time>2026-03-27T14:54:02.647Z</time></trkpt><trkpt lat="44.6516257" lon="9.5242549"><ele>596.0</ele><time>2026-03-27T14:54:03.647Z</time></trkpt><trkpt lat="44.6516567" lon="9.5244533"><ele>596.0</ele><time>2026-03-27T14:54:04.646Z</time></trkpt><trkpt lat="44.6517033" lon="9.524635"><ele>596.0</ele><time>2026-03-27T14:54:05.647Z</time></trkpt><trkpt lat="44.6517917" lon="9.524785"><ele>596.0</ele><time>2026-03-27T14:54:06.649Z</time></trkpt><trkpt lat="44.651915" lon="9.5248983"><ele>592.25</ele><time>2026-03-27T14:54:07.646Z</time></trkpt><trkpt lat="44.65205" lon="9.5249633"><ele>588.5</ele><time>2026-03-27T14:54:08.646Z</time></trkpt><trkpt lat="44.65218" lon="9.52503"><ele>584.75</ele><time>2026-03-27T14:54:09.646Z</time></trkpt><trkpt lat="44.6522833" lon="9.52513"><ele>581.0</ele><time>2026-03-27T14:54:10.646Z</time></trkpt><trkpt lat="44.6523433" lon="9.5252917"><ele>584.75</ele><time>2026-03-27T14:54:11.646Z</time></trkpt><trkpt lat="44.6524017" lon="9.5254733"><ele>588.5</ele><time>2026-03-27T14:54:12.646Z</time></trkpt><trkpt lat="44.6524717" lon="9.5256567"><ele>592.25</ele><time>2026-03-27T14:54:13.646Z</time></trkpt><trkpt lat="44.652555" lon="9.52583"><ele>596.0</ele><time>2026-03-27T14:54:14.648Z</time></trkpt><trkpt lat="44.6526583" lon="9.5259933"><ele>596.0</ele><time>2026-03-27T14:54:15.646Z</time></trkpt><trkpt lat="44.652755" lon="9.526155"><ele>596.0</ele><time>2026-03-27T14:54:16.646Z</time></trkpt><trkpt lat="44.6528317" lon="9.52632"><ele>596.0</ele><time>2026-03-27T14:54:17.648Z</time></trkpt><trkpt lat="44.652895" lon="9.5264833"><ele>596.0</ele><time>2026-03-27T14:54:18.648Z</time></trkpt><trkpt lat="44.6529217" lon="9.526655"><ele>595.75</ele><time>2026-03-27T14:54:19.648Z</time></trkpt><trkpt lat="44.6529033" lon="9.526825"><ele>595.5</ele><time>2026-03-27T14:54:20.649Z</time></trkpt><trkpt lat="44.6528367" lon="9.5269883"><ele>595.25</ele><time>2026-03-27T14:54:21.647Z</time></trkpt><trkpt lat="44.65276" lon="9.527125"><ele>595.0</ele><time>2026-03-27T14:54:22.648Z</time></trkpt><trkpt lat="44.652685" lon="9.5272867"><ele>595.0</ele><time>2026-03-27T14:54:23.647Z</time></trkpt><trkpt lat="44.6526483" lon="9.5274717"><ele>595.0</ele><time>2026-03-27T14:54:24.647Z</time></trkpt><trkpt lat="44.652665" lon="9.5276567"><ele>595.0</ele><time>2026-03-27T14:54:25.646Z</time></trkpt><trkpt lat="44.6527183" lon="9.5278417"><ele>595.0</ele><time>2026-03-27T14:54:26.647Z</time></trkpt><trkpt lat="44.6527967" lon="9.5280217"><ele>589.3333333333334</ele><time>2026-03-27T14:54:27.647Z</time></trkpt><trkpt lat="44.652875" lon="9.5282067"><ele>583.6666666666666</ele><time>2026-03-27T14:54:28.647Z</time></trkpt><trkpt lat="44.65296" lon="9.5283867"><ele>578.0</ele><time>2026-03-27T14:54:29.646Z</time></trkpt><trkpt lat="44.6530267" lon="9.5285733"><ele>580.0</ele><time>2026-03-27T14:54:30.647Z</time></trkpt><trkpt lat="44.6531033" lon="9.5287533"><ele>582.0</ele><time>2026-03-27T14:54:31.648Z</time></trkpt><trkpt lat="44.6532033" lon="9.52891"><ele>584.0</ele><time>2026-03-27T14:54:32.647Z</time></trkpt><trkpt lat="44.65332" lon="9.529045"><ele>584.0</ele><time>2026-03-27T14:54:33.649Z</time></trkpt><trkpt lat="44.6534417" lon="9.5291683"><ele>584.0</ele><time>2026-03-27T14:54:34.646Z</time></trkpt><trkpt lat="44.653565" lon="9.5292883"><ele>584.0</ele><time>2026-03-27T14:54:35.646Z</time></trkpt><trkpt lat="44.6536883" lon="9.5294117"><ele>582.25</ele><time>2026-03-27T14:54:36.646Z</time></trkpt><trkpt lat="44.6537883" lon="9.5295533"><ele>580.5</ele><time>2026-03-27T14:54:37.646Z</time></trkpt><trkpt lat="44.653875" lon="9.5297167"><ele>578.75</ele><time>2026-03-27T14:54:38.648Z</time></trkpt><trkpt lat="44.653915" lon="9.529915"><ele>577.0</ele><time>2026-03-27T14:54:39.646Z</time></trkpt><trkpt lat="44.6539117" lon="9.5301217"><ele>577.0</ele><time>2026-03-27T14:54:40.646Z</time></trkpt><trkpt lat="44.653875" lon="9.5303283"><ele>577.0</ele><time>2026-03-27T14:54:41.646Z</time></trkpt><trkpt lat="44.653855" lon="9.5305367"><ele>577.0</ele><time>2026-03-27T14:54:42.646Z</time></trkpt><trkpt lat="44.6538683" lon="9.530745"><ele>576.6666666666667</ele><time>2026-03-27T14:54:43.646Z</time></trkpt><trkpt lat="44.6539" lon="9.5309517"><ele>576.3333333333334</ele><time>2026-03-27T14:54:44.647Z</time></trkpt><trkpt lat="44.65394" lon="9.5311617"><ele>576.0</ele><time>2026-03-27T14:54:45.65Z</time></trkpt><trkpt lat="44.65398" lon="9.5313733"><ele>575.6666666666666</ele><time>2026-03-27T14:54:46.648Z</time></trkpt><trkpt lat="44.65402" lon="9.5315917"><ele>575.3333333333333</ele><time>2026-03-27T14:54:47.646Z</time></trkpt><trkpt lat="44.6540617" lon="9.53181"><ele>575.0</ele><time>2026-03-27T14:54:48.648Z</time></trkpt><trkpt lat="44.6541167" lon="9.5320267"><ele>575.0</ele><time>2026-03-27T14:54:49.646Z</time></trkpt><trkpt lat="44.6541833" lon="9.5322383"><ele>575.0</ele><time>2026-03-27T14:54:50.652Z</time></trkpt><trkpt lat="44.6542617" lon="9.53244"><ele>575.0</ele><time>2026-03-27T14:54:51.647Z</time></trkpt><trkpt lat="44.654355" lon="9.5326317"><ele>574.3333333333333</ele><time>2026-03-27T14:54:52.646Z</time></trkpt><trkpt lat="44.6544617" lon="9.53281"><ele>573.6666666666666</ele><time>2026-03-27T14:54:53.647Z</time></trkpt><trkpt lat="44.6545833" lon="9.53297"><ele>573.0</ele><time>2026-03-27T14:54:54.646Z</time></trkpt><trkpt lat="44.6547167" lon="9.5331167"><ele>573.0</ele><time>2026-03-27T14:54:55.647Z</time></trkpt><trkpt lat="44.65485" lon="9.5332467"><ele>573.0</ele><time>2026-03-27T14:54:56.648Z</time></trkpt><trkpt lat="44.65498" lon="9.5333617"><ele>573.0</ele><time>2026-03-27T14:54:57.647Z</time></trkpt><trkpt lat="44.655095" lon="9.5334717"><ele>573.0</ele><time>2026-03-27T14:54:58.649Z</time></trkpt><trkpt lat="44.655195" lon="9.5336033"><ele>573.0</ele><time>2026-03-27T14:54:59.647Z</time></trkpt><trkpt lat="44.6552667" lon="9.5337617"><ele>573.0</ele><time>2026-03-27T14:55:00.649Z</time></trkpt><trkpt lat="44.6553017" lon="9.5339517"><ele>573.0</ele><time>2026-03-27T14:55:01.649Z</time></trkpt><trkpt lat="44.6552983" lon="9.5341533"><ele>577.0</ele><time>2026-03-27T14:55:02.647Z</time></trkpt><trkpt lat="44.6552733" lon="9.5343583"><ele>581.0</ele><time>2026-03-27T14:55:03.646Z</time></trkpt><trkpt lat="44.6552183" lon="9.5345617"><ele>585.0</ele><time>2026-03-27T14:55:04.646Z</time></trkpt><trkpt lat="44.65517" lon="9.5347717"><ele>585.0</ele><time>2026-03-27T14:55:05.649Z</time></trkpt><trkpt lat="44.6551383" lon="9.534985"><ele>585.0</ele><time>2026-03-27T14:55:06.649Z</time></trkpt><trkpt lat="44.6551383" lon="9.535185"><ele>585.0</ele><time>2026-03-27T14:55:07.646Z</time></trkpt><trkpt lat="44.6551883" lon="9.5353833"><ele>585.0</ele><time>2026-03-27T14:55:08.647Z</time></trkpt><trkpt lat="44.6552717" lon="9.5355533"><ele>579.6666666666666</ele><time>2026-03-27T14:55:09.647Z</time></trkpt><trkpt lat="44.6553883" lon="9.5356933"><ele>574.3333333333333</ele><time>2026-03-27T14:55:10.647Z</time></trkpt><trkpt lat="44.655515" lon="9.5358333"><ele>569.0</ele><time>2026-03-27T14:55:11.646Z</time></trkpt><trkpt lat="44.6556383" lon="9.53599"><ele>569.0</ele><time>2026-03-27T14:55:12.646Z</time></trkpt><trkpt lat="44.6557467" lon="9.5361683"><ele>569.0</ele><time>2026-03-27T14:55:13.648Z</time></trkpt><trkpt lat="44.6558267" lon="9.53637"><ele>569.0</ele><time>2026-03-27T14:55:14.648Z</time></trkpt><trkpt lat="44.6559033" lon="9.5365767"><ele>569.3333333333333</ele><time>2026-03-27T14:55:15.648Z</time></trkpt><trkpt lat="44.6559767" lon="9.536785"><ele>569.6666666666666</ele><time>2026-03-27T14:55:16.647Z</time></trkpt><trkpt lat="44.6560683" lon="9.53698"><ele>570.0</ele><time>2026-03-27T14:55:17.646Z</time></trkpt><trkpt lat="44.6561683" lon="9.5371617"><ele>570.0</ele><time>2026-03-27T14:55:18.658Z</time></trkpt><trkpt lat="44.656275" lon="9.5373417"><ele>570.0</ele><time>2026-03-27T14:55:19.646Z</time></trkpt><trkpt lat="44.6563883" lon="9.53752"><ele>570.0</ele><time>2026-03-27T14:55:20.647Z</time></trkpt><trkpt lat="44.6565083" lon="9.537685"><ele>570.0</ele><time>2026-03-27T14:55:21.648Z</time></trkpt><trkpt lat="44.65665" lon="9.5378167"><ele>570.0</ele><time>2026-03-27T14:55:22.647Z</time></trkpt><trkpt lat="44.6568" lon="9.5379017"><ele>570.0</ele><time>2026-03-27T14:55:23.649Z</time></trkpt><trkpt lat="44.6569633" lon="9.5379317"><ele>572.6666666666666</ele><time>2026-03-27T14:55:24.648Z</time></trkpt><trkpt lat="44.657125" lon="9.5379467"><ele>575.3333333333333</ele><time>2026-03-27T14:55:25.647Z</time></trkpt><trkpt lat="44.65727" lon="9.5379917"><ele>578.0</ele><time>2026-03-27T14:55:26.647Z</time></trkpt><trkpt lat="44.6574083" lon="9.5380933"><ele>578.0</ele><time>2026-03-27T14:55:27.649Z</time></trkpt><trkpt lat="44.6575367" lon="9.53821"><ele>578.0</ele><time>2026-03-27T14:55:28.649Z</time></trkpt><trkpt lat="44.6576783" lon="9.5383167"><ele>578.0</ele><time>2026-03-27T14:55:29.647Z</time></trkpt><trkpt lat="44.6578133" lon="9.538395"><ele>574.0</ele><time>2026-03-27T14:55:30.649Z</time></trkpt><trkpt lat="44.65794" lon="9.5384833"><ele>570.0</ele><time>2026-03-27T14:55:31.646Z</time></trkpt><trkpt lat="44.6580467" lon="9.5386183"><ele>566.0</ele><time>2026-03-27T14:55:32.647Z</time></trkpt><trkpt lat="44.6581217" lon="9.5388083"><ele>562.0</ele><time>2026-03-27T14:55:33.648Z</time></trkpt><trkpt lat="44.6581917" lon="9.5390183"><ele>562.0</ele><time>2026-03-27T14:55:34.647Z</time></trkpt><trkpt lat="44.6582683" lon="9.5392233"><ele>562.0</ele><time>2026-03-27T14:55:35.646Z</time></trkpt><trkpt lat="44.65834" lon="9.53942"><ele>562.0</ele><time>2026-03-27T14:55:36.647Z</time></trkpt><trkpt lat="44.65839" lon="9.539615"><ele>562.25</ele><time>2026-03-27T14:55:37.647Z</time></trkpt><trkpt lat="44.6584167" lon="9.5398117"><ele>562.5</ele><time>2026-03-27T14:55:38.647Z</time></trkpt><trkpt lat="44.658395" lon="9.54002"><ele>562.75</ele><time>2026-03-27T14:55:39.647Z</time></trkpt><trkpt lat="44.6583683" lon="9.5402267"><ele>563.0</ele><time>2026-03-27T14:55:40.647Z</time></trkpt><trkpt lat="44.658365" lon="9.54042"><ele>565.0</ele><time>2026-03-27T14:55:41.647Z</time></trkpt><trkpt lat="44.6583983" lon="9.5405917"><ele>567.0</ele><time>2026-03-27T14:55:42.647Z</time></trkpt><trkpt lat="44.6584667" lon="9.5407533"><ele>569.0</ele><time>2026-03-27T14:55:43.649Z</time></trkpt><trkpt lat="44.65857" lon="9.5408883"><ele>571.0</ele><time>2026-03-27T14:55:44.647Z</time></trkpt><trkpt lat="44.658695" lon="9.5409917"><ele>569.3333333333334</ele><time>2026-03-27T14:55:45.646Z</time></trkpt><trkpt lat="44.6588383" lon="9.541065"><ele>567.6666666666666</ele><time>2026-03-27T14:55:46.646Z</time></trkpt><trkpt lat="44.6589933" lon="9.54114"><ele>566.0</ele><time>2026-03-27T14:55:47.647Z</time></trkpt><trkpt lat="44.6591433" lon="9.5412167"><ele>566.0</ele><time>2026-03-27T14:55:48.647Z</time></trkpt><trkpt lat="44.6592917" lon="9.5412917"><ele>566.0</ele><time>2026-03-27T14:55:49.651Z</time></trkpt><trkpt lat="44.659445" lon="9.541375"><ele>566.0</ele><time>2026-03-27T14:55:50.647Z</time></trkpt><trkpt lat="44.659595" lon="9.54147"><ele>561.0</ele><time>2026-03-27T14:55:51.647Z</time></trkpt><trkpt lat="44.6597317" lon="9.54159"><ele>556.0</ele><time>2026-03-27T14:55:52.647Z</time></trkpt><trkpt lat="44.6598567" lon="9.5417383"><ele>551.0</ele><time>2026-03-27T14:55:53.646Z</time></trkpt><trkpt lat="44.65998" lon="9.541905"><ele>549.0</ele><time>2026-03-27T14:55:54.646Z</time></trkpt><trkpt lat="44.6601067" lon="9.5420617"><ele>547.0</ele><time>2026-03-27T14:55:55.646Z</time></trkpt><trkpt lat="44.6602383" lon="9.5421933"><ele>545.0</ele><time>2026-03-27T14:55:56.647Z</time></trkpt><trkpt lat="44.66037" lon="9.5423083"><ele>545.0</ele><time>2026-03-27T14:55:57.646Z</time></trkpt><trkpt lat="44.660495" lon="9.54242"><ele>545.0</ele><time>2026-03-27T14:55:58.649Z</time></trkpt><trkpt lat="44.660605" lon="9.5425583"><ele>545.0</ele><time>2026-03-27T14:55:59.647Z</time></trkpt><trkpt lat="44.6606883" lon="9.5427383"><ele>545.0</ele><time>2026-03-27T14:56:00.647Z</time></trkpt><trkpt lat="44.660745" lon="9.5429517"><ele>545.6666666666666</ele><time>2026-03-27T14:56:01.647Z</time></trkpt><trkpt lat="44.6607917" lon="9.5431783"><ele>546.3333333333334</ele><time>2026-03-27T14:56:02.648Z</time></trkpt><trkpt lat="44.660845" lon="9.5434083"><ele>547.0</ele><time>2026-03-27T14:56:03.648Z</time></trkpt><trkpt lat="44.6608917" lon="9.5436383"><ele>547.0</ele><time>2026-03-27T14:56:04.647Z</time></trkpt><trkpt lat="44.6609167" lon="9.5438717"><ele>547.0</ele><time>2026-03-27T14:56:05.651Z</time></trkpt><trkpt lat="44.66092" lon="9.5441117"><ele>547.0</ele><time>2026-03-27T14:56:06.647Z</time></trkpt><trkpt lat="44.6609167" lon="9.5443567"><ele>546.0</ele><time>2026-03-27T14:56:07.647Z</time></trkpt><trkpt lat="44.66091" lon="9.5446033"><ele>545.0</ele><time>2026-03-27T14:56:08.647Z</time></trkpt><trkpt lat="44.6609" lon="9.5448567"><ele>544.0</ele><time>2026-03-27T14:56:09.648Z</time></trkpt><trkpt lat="44.6608883" lon="9.5451083"><ele>544.0</ele><time>2026-03-27T14:56:10.647Z</time></trkpt><trkpt lat="44.660875" lon="9.5453517"><ele>544.0</ele><time>2026-03-27T14:56:11.648Z</time></trkpt><trkpt lat="44.6608667" lon="9.545575"><ele>544.0</ele><time>2026-03-27T14:56:12.647Z</time></trkpt><trkpt lat="44.6608767" lon="9.5457917"><ele>543.0</ele><time>2026-03-27T14:56:13.648Z</time></trkpt><trkpt lat="44.6609183" lon="9.546"><ele>542.0</ele><time>2026-03-27T14:56:14.647Z</time></trkpt><trkpt lat="44.6610083" lon="9.5461833"><ele>541.0</ele><time>2026-03-27T14:56:15.648Z</time></trkpt><trkpt lat="44.66112" lon="9.5463417"><ele>538.25</ele><time>2026-03-27T14:56:16.646Z</time></trkpt><trkpt lat="44.6612467" lon="9.5464567"><ele>535.5</ele><time>2026-03-27T14:56:17.646Z</time></trkpt><trkpt lat="44.6613867" lon="9.5465167"><ele>532.75</ele><time>2026-03-27T14:56:18.647Z</time></trkpt><trkpt lat="44.661535" lon="9.5465233"><ele>530.0</ele><time>2026-03-27T14:56:19.646Z</time></trkpt><trkpt lat="44.6616917" lon="9.5464867"><ele>530.0</ele><time>2026-03-27T14:56:20.649Z</time></trkpt><trkpt lat="44.661855" lon="9.5464383"><ele>530.0</ele><time>2026-03-27T14:56:21.647Z</time></trkpt><trkpt lat="44.6620233" lon="9.5464"><ele>530.0</ele><time>2026-03-27T14:56:22.649Z</time></trkpt><trkpt lat="44.66219" lon="9.5463633"><ele>528.0</ele><time>2026-03-27T14:56:23.646Z</time></trkpt><trkpt lat="44.66236" lon="9.54632"><ele>526.0</ele><time>2026-03-27T14:56:24.647Z</time></trkpt><trkpt lat="44.6625233" lon="9.5462667"><ele>524.0</ele><time>2026-03-27T14:56:25.648Z</time></trkpt><trkpt lat="44.66268" lon="9.5462117"><ele>527.5</ele><time>2026-03-27T14:56:26.647Z</time></trkpt><trkpt lat="44.6628333" lon="9.5461683"><ele>531.0</ele><time>2026-03-27T14:56:27.647Z</time></trkpt><trkpt lat="44.6629767" lon="9.5461567"><ele>534.5</ele><time>2026-03-27T14:56:28.647Z</time></trkpt><trkpt lat="44.6631167" lon="9.5461883"><ele>538.0</ele><time>2026-03-27T14:56:29.646Z</time></trkpt><trkpt lat="44.66323" lon="9.5462533"><ele>538.0</ele><time>2026-03-27T14:56:30.649Z</time></trkpt><trkpt lat="44.66331" lon="9.5463567"><ele>538.0</ele><time>2026-03-27T14:56:31.646Z</time></trkpt><trkpt lat="44.663365" lon="9.5464933"><ele>538.0</ele><time>2026-03-27T14:56:32.647Z</time></trkpt><trkpt lat="44.66338" lon="9.54667"><ele>538.0</ele><time>2026-03-27T14:56:33.646Z</time></trkpt><trkpt lat="44.663355" lon="9.54685"><ele>538.0</ele><time>2026-03-27T14:56:34.648Z</time></trkpt><trkpt lat="44.6633167" lon="9.5470017"><ele>538.0</ele><time>2026-03-27T14:56:35.646Z</time></trkpt><trkpt lat="44.663275" lon="9.5471683"><ele>538.0</ele><time>2026-03-27T14:56:36.647Z</time></trkpt><trkpt lat="44.6632633" lon="9.547355"><ele>538.0</ele><time>2026-03-27T14:56:37.646Z</time></trkpt><trkpt lat="44.6632967" lon="9.5475583"><ele>538.3333333333334</ele><time>2026-03-27T14:56:38.648Z</time></trkpt><trkpt lat="44.66336" lon="9.5477617"><ele>538.6666666666666</ele><time>2026-03-27T14:56:39.649Z</time></trkpt><trkpt lat="44.6634333" lon="9.5479633"><ele>539.0</ele><time>2026-03-27T14:56:40.648Z</time></trkpt><trkpt lat="44.6635117" lon="9.5481683"><ele>535.6666666666666</ele><time>2026-03-27T14:56:41.648Z</time></trkpt><trkpt lat="44.6636" lon="9.54838"><ele>532.3333333333334</ele><time>2026-03-27T14:56:42.647Z</time></trkpt><trkpt lat="44.6637033" lon="9.54859"><ele>529.0</ele><time>2026-03-27T14:56:43.646Z</time></trkpt><trkpt lat="44.66381" lon="9.5487983"><ele>535.6666666666667</ele><time>2026-03-27T14:56:44.647Z</time></trkpt><trkpt lat="44.6639033" lon="9.54902"><ele>542.3333333333334</ele><time>2026-03-27T14:56:45.647Z</time></trkpt><trkpt lat="44.6639817" lon="9.5492483"><ele>549.0</ele><time>2026-03-27T14:56:46.648Z</time></trkpt><trkpt lat="44.6640517" lon="9.5494833"><ele>544.3333333333334</ele><time>2026-03-27T14:56:47.648Z</time></trkpt><trkpt lat="44.6641217" lon="9.5497217"><ele>539.6666666666667</ele><time>2026-03-27T14:56:48.648Z</time></trkpt><trkpt lat="44.6642" lon="9.54996"><ele>535.0</ele><time>2026-03-27T14:56:49.651Z</time></trkpt><trkpt lat="44.6642883" lon="9.5501867"><ele>531.6666666666667</ele><time>2026-03-27T14:56:50.646Z</time></trkpt><trkpt lat="44.66438" lon="9.5504017"><ele>528.3333333333334</ele><time>2026-03-27T14:56:51.647Z</time></trkpt><trkpt lat="44.6644733" lon="9.550605"><ele>525.0</ele><time>2026-03-27T14:56:52.646Z</time></trkpt><trkpt lat="44.6645683" lon="9.5507883"><ele>529.75</ele><time>2026-03-27T14:56:53.647Z</time></trkpt><trkpt lat="44.6646567" lon="9.55096"><ele>534.5</ele><time>2026-03-27T14:56:54.646Z</time></trkpt><trkpt lat="44.6647317" lon="9.5511333"><ele>539.25</ele><time>2026-03-27T14:56:55.647Z</time></trkpt><trkpt lat="44.66478" lon="9.551305"><ele>544.0</ele><time>2026-03-27T14:56:56.647Z</time></trkpt><trkpt lat="44.664785" lon="9.5515067"><ele>544.0</ele><time>2026-03-27T14:56:57.646Z</time></trkpt><trkpt lat="44.6647483" lon="9.55172"><ele>544.0</ele><time>2026-03-27T14:56:58.646Z</time></trkpt><trkpt lat="44.6647" lon="9.5519383"><ele>544.0</ele><time>2026-03-27T14:56:59.646Z</time></trkpt><trkpt lat="44.66465" lon="9.552155"><ele>544.0</ele><time>2026-03-27T14:57:00.652Z</time></trkpt><trkpt lat="44.664605" lon="9.5523683"><ele>544.0</ele><time>2026-03-27T14:57:01.646Z</time></trkpt><trkpt lat="44.6645867" lon="9.5525767"><ele>544.0</ele><time>2026-03-27T14:57:02.647Z</time></trkpt><trkpt lat="44.6646017" lon="9.5527817"><ele>543.3333333333334</ele><time>2026-03-27T14:57:03.648Z</time></trkpt><trkpt lat="44.6646433" lon="9.5529867"><ele>542.6666666666666</ele><time>2026-03-27T14:57:04.646Z</time></trkpt><trkpt lat="44.66471" lon="9.553195"><ele>542.0</ele><time>2026-03-27T14:57:05.648Z</time></trkpt><trkpt lat="44.66479" lon="9.5534"><ele>542.0</ele><time>2026-03-27T14:57:06.646Z</time></trkpt><trkpt lat="44.6648617" lon="9.5536133"><ele>542.0</ele><time>2026-03-27T14:57:07.646Z</time></trkpt><trkpt lat="44.6649433" lon="9.5538167"><ele>542.0</ele><time>2026-03-27T14:57:08.648Z</time></trkpt><trkpt lat="44.6650067" lon="9.5540417"><ele>539.6666666666666</ele><time>2026-03-27T14:57:09.647Z</time></trkpt><trkpt lat="44.6650683" lon="9.554265"><ele>537.3333333333334</ele><time>2026-03-27T14:57:10.648Z</time></trkpt><trkpt lat="44.6651283" lon="9.55449"><ele>535.0</ele><time>2026-03-27T14:57:11.646Z</time></trkpt><trkpt lat="44.6651833" lon="9.5547067"><ele>530.6666666666667</ele><time>2026-03-27T14:57:12.646Z</time></trkpt><trkpt lat="44.6652367" lon="9.5549283"><ele>526.3333333333334</ele><time>2026-03-27T14:57:13.647Z</time></trkpt><trkpt lat="44.6652933" lon="9.5551533"><ele>522.0</ele><time>2026-03-27T14:57:14.647Z</time></trkpt><trkpt lat="44.6653583" lon="9.5553833"><ele>531.0</ele><time>2026-03-27T14:57:15.647Z</time></trkpt><trkpt lat="44.6654217" lon="9.555615"><ele>540.0</ele><time>2026-03-27T14:57:16.647Z</time></trkpt><trkpt lat="44.6654833" lon="9.5558383"><ele>549.0</ele><time>2026-03-27T14:57:17.646Z</time></trkpt><trkpt lat="44.6655367" lon="9.5560683"><ele>544.3333333333334</ele><time>2026-03-27T14:57:18.646Z</time></trkpt><trkpt lat="44.6655817" lon="9.5563067"><ele>539.6666666666667</ele><time>2026-03-27T14:57:19.647Z</time></trkpt><trkpt lat="44.6656183" lon="9.5565467"><ele>535.0</ele><time>2026-03-27T14:57:20.65Z</time></trkpt><trkpt lat="44.6656517" lon="9.5567817"><ele>535.0</ele><time>2026-03-27T14:57:21.646Z</time></trkpt><trkpt lat="44.6656817" lon="9.5570183"><ele>535.0</ele><time>2026-03-27T14:57:22.646Z</time></trkpt><trkpt lat="44.6657133" lon="9.55725"><ele>535.0</ele><time>2026-03-27T14:57:23.646Z</time></trkpt><trkpt lat="44.66575" lon="9.5574817"><ele>531.6666666666667</ele><time>2026-03-27T14:57:24.646Z</time></trkpt><trkpt lat="44.6657883" lon="9.557705"><ele>528.3333333333334</ele><time>2026-03-27T14:57:25.646Z</time></trkpt><trkpt lat="44.6658317" lon="9.5579267"><ele>525.0</ele><time>2026-03-27T14:57:26.654Z</time></trkpt><trkpt lat="44.6658967" lon="9.55814"><ele>523.3333333333334</ele><time>2026-03-27T14:57:27.646Z</time></trkpt><trkpt lat="44.6659667" lon="9.5583467"><ele>521.6666666666667</ele><time>2026-03-27T14:57:28.647Z</time></trkpt><trkpt lat="44.66603" lon="9.5585633"><ele>520.0</ele><time>2026-03-27T14:57:29.646Z</time></trkpt><trkpt lat="44.6660883" lon="9.5587867"><ele>524.6666666666667</ele><time>2026-03-27T14:57:30.646Z</time></trkpt><trkpt lat="44.6661433" lon="9.5590083"><ele>529.3333333333334</ele><time>2026-03-27T14:57:31.648Z</time></trkpt><trkpt lat="44.6661917" lon="9.5592217"><ele>534.0</ele><time>2026-03-27T14:57:32.647Z</time></trkpt><trkpt lat="44.6662383" lon="9.559435"><ele>533.5</ele><time>2026-03-27T14:57:33.648Z</time></trkpt><trkpt lat="44.6662817" lon="9.5596467"><ele>533.0</ele><time>2026-03-27T14:57:34.647Z</time></trkpt><trkpt lat="44.6663167" lon="9.5598483"><ele>532.5</ele><time>2026-03-27T14:57:35.647Z</time></trkpt><trkpt lat="44.6663267" lon="9.5600383"><ele>532.0</ele><time>2026-03-27T14:57:36.647Z</time></trkpt><trkpt lat="44.6663017" lon="9.5602283"><ele>532.25</ele><time>2026-03-27T14:57:37.647Z</time></trkpt><trkpt lat="44.6662367" lon="9.5604033"><ele>532.5</ele><time>2026-03-27T14:57:38.652Z</time></trkpt><trkpt lat="44.66615" lon="9.5605667"><ele>532.75</ele><time>2026-03-27T14:57:39.647Z</time></trkpt><trkpt lat="44.6660717" lon="9.56073"><ele>533.0</ele><time>2026-03-27T14:57:40.647Z</time></trkpt><trkpt lat="44.66601" lon="9.5608883"><ele>530.5</ele><time>2026-03-27T14:57:41.647Z</time></trkpt><trkpt lat="44.6659733" lon="9.56104"><ele>528.0</ele><time>2026-03-27T14:57:42.647Z</time></trkpt><trkpt lat="44.6659767" lon="9.5611917"><ele>525.5</ele><time>2026-03-27T14:57:43.646Z</time></trkpt><trkpt lat="44.6660383" lon="9.561335"><ele>523.0</ele><time>2026-03-27T14:57:44.647Z</time></trkpt><trkpt lat="44.66612" lon="9.5614783"><ele>523.0</ele><time>2026-03-27T14:57:45.646Z</time></trkpt><trkpt lat="44.6662133" lon="9.5616233"><ele>523.0</ele><time>2026-03-27T14:57:46.648Z</time></trkpt><trkpt lat="44.66632" lon="9.5617433"><ele>523.0</ele><time>2026-03-27T14:57:47.648Z</time></trkpt><trkpt lat="44.6664417" lon="9.5618333"><ele>523.0</ele><time>2026-03-27T14:57:48.646Z</time></trkpt><trkpt lat="44.6665817" lon="9.5618983"><ele>523.0</ele><time>2026-03-27T14:57:49.647Z</time></trkpt><trkpt lat="44.6667283" lon="9.5619717"><ele>523.0</ele><time>2026-03-27T14:57:50.647Z</time></trkpt><trkpt lat="44.66686" lon="9.5620733"><ele>523.0</ele><time>2026-03-27T14:57:51.647Z</time></trkpt><trkpt lat="44.666975" lon="9.5622067"><ele>525.0</ele><time>2026-03-27T14:57:52.648Z</time></trkpt><trkpt lat="44.6670717" lon="9.5623717"><ele>527.0</ele><time>2026-03-27T14:57:53.647Z</time></trkpt><trkpt lat="44.66716" lon="9.5625617"><ele>529.0</ele><time>2026-03-27T14:57:54.647Z</time></trkpt><trkpt lat="44.6672417" lon="9.5627583"><ele>526.0</ele><time>2026-03-27T14:57:55.649Z</time></trkpt><trkpt lat="44.6673167" lon="9.5629667"><ele>523.0</ele><time>2026-03-27T14:57:56.647Z</time></trkpt><trkpt lat="44.6673767" lon="9.5631833"><ele>520.0</ele><time>2026-03-27T14:57:57.647Z</time></trkpt><trkpt lat="44.6674167" lon="9.56341"><ele>520.0</ele><time>2026-03-27T14:57:58.646Z</time></trkpt><trkpt lat="44.6674383" lon="9.5636333"><ele>520.0</ele><time>2026-03-27T14:57:59.647Z</time></trkpt><trkpt lat="44.6674667" lon="9.56386"><ele>520.0</ele><time>2026-03-27T14:58:00.647Z</time></trkpt><trkpt lat="44.6675067" lon="9.56408"><ele>517.3333333333334</ele><time>2026-03-27T14:58:01.646Z</time></trkpt><trkpt lat="44.6675567" lon="9.5643"><ele>514.6666666666666</ele><time>2026-03-27T14:58:02.647Z</time></trkpt><trkpt lat="44.66761" lon="9.5645217"><ele>512.0</ele><time>2026-03-27T14:58:03.647Z</time></trkpt><trkpt lat="44.6676783" lon="9.5647233"><ele>513.0</ele><time>2026-03-27T14:58:04.647Z</time></trkpt><trkpt lat="44.667755" lon="9.5648917"><ele>514.0</ele><time>2026-03-27T14:58:05.652Z</time></trkpt><trkpt lat="44.6678483" lon="9.565025"><ele>515.0</ele><time>2026-03-27T14:58:06.647Z</time></trkpt><trkpt lat="44.6679633" lon="9.5651317"><ele>516.0</ele><time>2026-03-27T14:58:07.646Z</time></trkpt><trkpt lat="44.66809" lon="9.5652283"><ele>516.0</ele><time>2026-03-27T14:58:08.647Z</time></trkpt><trkpt lat="44.668215" lon="9.5653417"><ele>516.0</ele><time>2026-03-27T14:58:09.647Z</time></trkpt><trkpt lat="44.6683367" lon="9.5654733"><ele>516.0</ele><time>2026-03-27T14:58:10.647Z</time></trkpt><trkpt lat="44.6684567" lon="9.56562"><ele>513.3333333333334</ele><time>2026-03-27T14:58:11.646Z</time></trkpt><trkpt lat="44.6685717" lon="9.5657767"><ele>510.6666666666667</ele><time>2026-03-27T14:58:12.653Z</time></trkpt><trkpt lat="44.6686767" lon="9.5659483"><ele>508.0</ele><time>2026-03-27T14:58:13.646Z</time></trkpt><trkpt lat="44.6687617" lon="9.5661383"><ele>510.0</ele><time>2026-03-27T14:58:14.648Z</time></trkpt><trkpt lat="44.6688283" lon="9.5663267"><ele>512.0</ele><time>2026-03-27T14:58:15.646Z</time></trkpt><trkpt lat="44.6688833" lon="9.5665033"><ele>514.0</ele><time>2026-03-27T14:58:16.646Z</time></trkpt><trkpt lat="44.6689433" lon="9.5666683"><ele>516.0</ele><time>2026-03-27T14:58:17.646Z</time></trkpt><trkpt lat="44.6690217" lon="9.5668017"><ele>516.0</ele><time>2026-03-27T14:58:18.65Z</time></trkpt><trkpt lat="44.6691217" lon="9.5669033"><ele>516.0</ele><time>2026-03-27T14:58:19.647Z</time></trkpt><trkpt lat="44.6692533" lon="9.56695"><ele>516.0</ele><time>2026-03-27T14:58:20.648Z</time></trkpt><trkpt lat="44.6693933" lon="9.56698"><ele>516.0</ele><time>2026-03-27T14:58:21.647Z</time></trkpt><trkpt lat="44.6695417" lon="9.567015"><ele>511.66666666666663</ele><time>2026-03-27T14:58:22.646Z</time></trkpt><trkpt lat="44.6696867" lon="9.56707"><ele>507.3333333333333</ele><time>2026-03-27T14:58:23.648Z</time></trkpt><trkpt lat="44.6698317" lon="9.5671317"><ele>503.0</ele><time>2026-03-27T14:58:24.646Z</time></trkpt><trkpt lat="44.669975" lon="9.5672033"><ele>503.0</ele><time>2026-03-27T14:58:25.646Z</time></trkpt><trkpt lat="44.670115" lon="9.5672917"><ele>503.0</ele><time>2026-03-27T14:58:26.646Z</time></trkpt><trkpt lat="44.6702467" lon="9.5673783"><ele>503.0</ele><time>2026-03-27T14:58:27.647Z</time></trkpt><trkpt lat="44.6703833" lon="9.5674517"><ele>503.0</ele><time>2026-03-27T14:58:28.648Z</time></trkpt><trkpt lat="44.67052" lon="9.5674867"><ele>503.5</ele><time>2026-03-27T14:58:29.646Z</time></trkpt><trkpt lat="44.67067" lon="9.5674833"><ele>504.0</ele><time>2026-03-27T14:58:30.647Z</time></trkpt><trkpt lat="44.67081" lon="9.567465"><ele>504.5</ele><time>2026-03-27T14:58:31.646Z</time></trkpt><trkpt lat="44.6709433" lon="9.5674567"><ele>505.0</ele><time>2026-03-27T14:58:32.647Z</time></trkpt><trkpt lat="44.6710767" lon="9.5674767"><ele>506.0</ele><time>2026-03-27T14:58:33.652Z</time></trkpt><trkpt lat="44.6712083" lon="9.56755"><ele>507.0</ele><time>2026-03-27T14:58:34.646Z</time></trkpt><trkpt lat="44.6713417" lon="9.5676583"><ele>508.0</ele><time>2026-03-27T14:58:35.646Z</time></trkpt><trkpt lat="44.6714733" lon="9.5677667"><ele>509.0</ele><time>2026-03-27T14:58:36.646Z</time></trkpt><trkpt lat="44.6716133" lon="9.5678717"><ele>506.3333333333333</ele><time>2026-03-27T14:58:37.648Z</time></trkpt><trkpt lat="44.6717533" lon="9.56797"><ele>503.66666666666663</ele><time>2026-03-27T14:58:38.647Z</time></trkpt><trkpt lat="44.6718917" lon="9.5680517"><ele>501.0</ele><time>2026-03-27T14:58:39.646Z</time></trkpt><trkpt lat="44.6720333" lon="9.5681083"><ele>501.0</ele><time>2026-03-27T14:58:40.647Z</time></trkpt><trkpt lat="44.6721833" lon="9.5681383"><ele>501.0</ele><time>2026-03-27T14:58:41.646Z</time></trkpt><trkpt lat="44.672335" lon="9.5681483"><ele>501.0</ele><time>2026-03-27T14:58:42.646Z</time></trkpt><trkpt lat="44.6724867" lon="9.5681517"><ele>501.0</ele><time>2026-03-27T14:58:43.647Z</time></trkpt><trkpt lat="44.6726483" lon="9.5681533"><ele>501.0</ele><time>2026-03-27T14:58:44.647Z</time></trkpt><trkpt lat="44.672815" lon="9.5681567"><ele>501.0</ele><time>2026-03-27T14:58:45.646Z</time></trkpt><trkpt lat="44.6729783" lon="9.568155"><ele>497.33333333333337</ele><time>2026-03-27T14:58:46.648Z</time></trkpt><trkpt lat="44.6731317" lon="9.568145"><ele>493.6666666666667</ele><time>2026-03-27T14:58:47.649Z</time></trkpt><trkpt lat="44.6732783" lon="9.5681117"><ele>490.0</ele><time>2026-03-27T14:58:48.648Z</time></trkpt><trkpt lat="44.6734183" lon="9.5680417"><ele>490.0</ele><time>2026-03-27T14:58:49.65Z</time></trkpt><trkpt lat="44.673555" lon="9.567935"><ele>490.0</ele><time>2026-03-27T14:58:50.648Z</time></trkpt><trkpt lat="44.6736867" lon="9.5678117"><ele>490.0</ele><time>2026-03-27T14:58:51.649Z</time></trkpt><trkpt lat="44.6738217" lon="9.56769"><ele>491.6666666666667</ele><time>2026-03-27T14:58:52.648Z</time></trkpt><trkpt lat="44.6739733" lon="9.5675683"><ele>493.33333333333337</ele><time>2026-03-27T14:58:53.649Z</time></trkpt><trkpt lat="44.6741333" lon="9.5674667"><ele>495.0</ele><time>2026-03-27T14:58:54.648Z</time></trkpt><trkpt lat="44.6742933" lon="9.5673817"><ele>491.33333333333337</ele><time>2026-03-27T14:58:55.648Z</time></trkpt><trkpt lat="44.6744583" lon="9.5673"><ele>487.6666666666667</ele><time>2026-03-27T14:58:56.646Z</time></trkpt><trkpt lat="44.6746267" lon="9.5672183"><ele>484.0</ele><time>2026-03-27T14:58:57.646Z</time></trkpt><trkpt lat="44.674795" lon="9.567145"><ele>484.0</ele><time>2026-03-27T14:58:58.647Z</time></trkpt><trkpt lat="44.6749683" lon="9.56708"><ele>484.0</ele><time>2026-03-27T14:58:59.647Z</time></trkpt><trkpt lat="44.6751383" lon="9.5670283"><ele>484.0</ele><time>2026-03-27T14:59:00.649Z</time></trkpt><trkpt lat="44.6753117" lon="9.56696"><ele>486.33333333333337</ele><time>2026-03-27T14:59:01.647Z</time></trkpt><trkpt lat="44.67548" lon="9.5668933"><ele>488.66666666666663</ele><time>2026-03-27T14:59:02.648Z</time></trkpt><trkpt lat="44.6756467" lon="9.5668633"><ele>491.0</ele><time>2026-03-27T14:59:03.648Z</time></trkpt><trkpt lat="44.6758233" lon="9.566855"><ele>491.0</ele><time>2026-03-27T14:59:04.648Z</time></trkpt><trkpt lat="44.676005" lon="9.5668617"><ele>491.0</ele><time>2026-03-27T14:59:05.646Z</time></trkpt><trkpt lat="44.676185" lon="9.5668617"><ele>491.0</ele><time>2026-03-27T14:59:06.649Z</time></trkpt><trkpt lat="44.67636" lon="9.5668483"><ele>490.3333333333333</ele><time>2026-03-27T14:59:07.648Z</time></trkpt><trkpt lat="44.676515" lon="9.566815"><ele>489.66666666666663</ele><time>2026-03-27T14:59:08.648Z</time></trkpt><trkpt lat="44.6766583" lon="9.5667567"><ele>489.0</ele><time>2026-03-27T14:59:09.646Z</time></trkpt><trkpt lat="44.6768" lon="9.5666783"><ele>489.0</ele><time>2026-03-27T14:59:10.646Z</time></trkpt><trkpt lat="44.676925" lon="9.5666167"><ele>489.0</ele><time>2026-03-27T14:59:11.648Z</time></trkpt><trkpt lat="44.67704" lon="9.5665867"><ele>489.0</ele><time>2026-03-27T14:59:12.648Z</time></trkpt><trkpt lat="44.6771483" lon="9.5666083"><ele>489.0</ele><time>2026-03-27T14:59:13.646Z</time></trkpt><trkpt lat="44.6772417" lon="9.5666933"><ele>486.25</ele><time>2026-03-27T14:59:14.647Z</time></trkpt><trkpt lat="44.6773267" lon="9.5668433"><ele>483.5</ele><time>2026-03-27T14:59:15.646Z</time></trkpt><trkpt lat="44.6774083" lon="9.5670067"><ele>480.75</ele><time>2026-03-27T14:59:16.646Z</time></trkpt><trkpt lat="44.677495" lon="9.5671767"><ele>478.0</ele><time>2026-03-27T14:59:17.648Z</time></trkpt><trkpt lat="44.67759" lon="9.567355"><ele>477.0</ele><time>2026-03-27T14:59:18.649Z</time></trkpt><trkpt lat="44.6776867" lon="9.5675433"><ele>476.0</ele><time>2026-03-27T14:59:19.646Z</time></trkpt><trkpt lat="44.6777867" lon="9.5677367"><ele>475.0</ele><time>2026-03-27T14:59:20.647Z</time></trkpt><trkpt lat="44.67789" lon="9.5679283"><ele>478.0</ele><time>2026-03-27T14:59:21.647Z</time></trkpt><trkpt lat="44.6779867" lon="9.5681133"><ele>481.0</ele><time>2026-03-27T14:59:22.656Z</time></trkpt><trkpt lat="44.6780717" lon="9.5682783"><ele>484.0</ele><time>2026-03-27T14:59:23.648Z</time></trkpt><trkpt lat="44.67815" lon="9.5684183"><ele>487.0</ele><time>2026-03-27T14:59:24.646Z</time></trkpt><trkpt lat="44.6782367" lon="9.5685167"><ele>487.0</ele><time>2026-03-27T14:59:25.646Z</time></trkpt><trkpt lat="44.67834" lon="9.5685567"><ele>487.0</ele><time>2026-03-27T14:59:26.647Z</time></trkpt><trkpt lat="44.678455" lon="9.5685367"><ele>487.0</ele><time>2026-03-27T14:59:27.647Z</time></trkpt><trkpt lat="44.6785667" lon="9.568465"><ele>487.0</ele><time>2026-03-27T14:59:28.647Z</time></trkpt><trkpt lat="44.678665" lon="9.5683383"><ele>488.0</ele><time>2026-03-27T14:59:29.646Z</time></trkpt><trkpt lat="44.6787367" lon="9.5681533"><ele>489.0</ele><time>2026-03-27T14:59:30.647Z</time></trkpt><trkpt lat="44.6787833" lon="9.567935"><ele>490.0</ele><time>2026-03-27T14:59:31.647Z</time></trkpt><trkpt lat="44.6788283" lon="9.5677017"><ele>490.0</ele><time>2026-03-27T14:59:32.647Z</time></trkpt><trkpt lat="44.6788967" lon="9.5674817"><ele>490.0</ele><time>2026-03-27T14:59:33.647Z</time></trkpt><trkpt lat="44.678995" lon="9.56727"><ele>490.0</ele><time>2026-03-27T14:59:34.648Z</time></trkpt><trkpt lat="44.679115" lon="9.56707"><ele>490.6666666666667</ele><time>2026-03-27T14:59:35.647Z</time></trkpt><trkpt lat="44.6792483" lon="9.5668883"><ele>491.33333333333337</ele><time>2026-03-27T14:59:36.647Z</time></trkpt><trkpt lat="44.6793883" lon="9.5667167"><ele>492.0</ele><time>2026-03-27T14:59:37.648Z</time></trkpt><trkpt lat="44.679535" lon="9.56655"><ele>492.0</ele><time>2026-03-27T14:59:38.648Z</time></trkpt><trkpt lat="44.6796883" lon="9.5663833"><ele>492.0</ele><time>2026-03-27T14:59:39.647Z</time></trkpt><trkpt lat="44.6798383" lon="9.566225"><ele>492.0</ele><time>2026-03-27T14:59:40.647Z</time></trkpt><trkpt lat="44.6799817" lon="9.5660783"><ele>488.33333333333337</ele><time>2026-03-27T14:59:41.647Z</time></trkpt><trkpt lat="44.680125" lon="9.5659667"><ele>484.6666666666667</ele><time>2026-03-27T14:59:42.648Z</time></trkpt><trkpt lat="44.6802783" lon="9.5658983"><ele>481.0</ele><time>2026-03-27T14:59:43.647Z</time></trkpt><trkpt lat="44.6804433" lon="9.5658533"><ele>481.0</ele><time>2026-03-27T14:59:44.647Z</time></trkpt><trkpt lat="44.6806033" lon="9.565795"><ele>481.0</ele><time>2026-03-27T14:59:45.648Z</time></trkpt><trkpt lat="44.6807467" lon="9.5657567"><ele>481.0</ele><time>2026-03-27T14:59:46.647Z</time></trkpt><trkpt lat="44.680875" lon="9.565745"><ele>481.0</ele><time>2026-03-27T14:59:47.647Z</time></trkpt><trkpt lat="44.6809917" lon="9.5658"><ele>481.0</ele><time>2026-03-27T14:59:48.649Z</time></trkpt><trkpt lat="44.6810933" lon="9.5659233"><ele>481.0</ele><time>2026-03-27T14:59:49.648Z</time></trkpt><trkpt lat="44.6811882" lon="9.5660651"><ele>481.0</ele><time>2026-03-27T14:59:50.647Z</time></trkpt><trkpt lat="44.681277" lon="9.5662292"><ele>481.0</ele><time>2026-03-27T14:59:51.647Z</time></trkpt><trkpt lat="44.6813871" lon="9.5663835"><ele>482.6666666666667</ele><time>2026-03-27T14:59:52.648Z</time></trkpt><trkpt lat="44.6815235" lon="9.5665023"><ele>484.33333333333337</ele><time>2026-03-27T14:59:53.648Z</time></trkpt><trkpt lat="44.6816753" lon="9.5665844"><ele>486.0</ele><time>2026-03-27T14:59:54.647Z</time></trkpt><trkpt lat="44.6818351" lon="9.5666194"><ele>483.66666666666663</ele><time>2026-03-27T14:59:55.647Z</time></trkpt><trkpt lat="44.6819937" lon="9.5666288"><ele>481.3333333333333</ele><time>2026-03-27T14:59:56.647Z</time></trkpt><trkpt lat="44.6821505" lon="9.5666613"><ele>479.0</ele><time>2026-03-27T14:59:57.646Z</time></trkpt><trkpt lat="44.6822934" lon="9.5667453"><ele>479.0</ele><time>2026-03-27T14:59:58.648Z</time></trkpt><trkpt lat="44.6824238" lon="9.5668675"><ele>479.0</ele><time>2026-03-27T14:59:59.652Z</time></trkpt><trkpt lat="44.6825487" lon="9.5669697"><ele>479.0</ele><time>2026-03-27T15:00:00.65Z</time></trkpt><trkpt lat="44.6826648" lon="9.5670228"><ele>479.0</ele><time>2026-03-27T15:00:01.648Z</time></trkpt><trkpt lat="44.6827657" lon="9.5670146"><ele>478.2</ele><time>2026-03-27T15:00:02.649Z</time></trkpt><trkpt lat="44.6828512" lon="9.5669409"><ele>477.4</ele><time>2026-03-27T15:00:03.648Z</time></trkpt><trkpt lat="44.6829414" lon="9.5668467"><ele>476.6</ele><time>2026-03-27T15:00:04.652Z</time></trkpt><trkpt lat="44.6830294" lon="9.5667702"><ele>475.8</ele><time>2026-03-27T15:00:05.649Z</time></trkpt><trkpt lat="44.6831288" lon="9.5667447"><ele>475.0</ele><time>2026-03-27T15:00:06.648Z</time></trkpt><trkpt lat="44.6832374" lon="9.5667655"><ele>475.0</ele><time>2026-03-27T15:00:07.647Z</time></trkpt><trkpt lat="44.6833036" lon="9.5668807"><ele>475.0</ele><time>2026-03-27T15:00:08.646Z</time></trkpt><trkpt lat="44.6833536" lon="9.567028"><ele>475.0</ele><time>2026-03-27T15:00:09.65Z</time></trkpt><trkpt lat="44.6834001" lon="9.5671993"><ele>475.0</ele><time>2026-03-27T15:00:10.648Z</time></trkpt><trkpt lat="44.6834593" lon="9.56738"><ele>474.5</ele><time>2026-03-27T15:00:11.647Z</time></trkpt><trkpt lat="44.683531" lon="9.5675468"><ele>474.0</ele><time>2026-03-27T15:00:12.647Z</time></trkpt><trkpt lat="44.6836109" lon="9.5677095"><ele>473.5</ele><time>2026-03-27T15:00:13.647Z</time></trkpt><trkpt lat="44.6836958" lon="9.5678679"><ele>473.0</ele><time>2026-03-27T15:00:14.648Z</time></trkpt><trkpt lat="44.6837758" lon="9.5680313"><ele>476.0</ele><time>2026-03-27T15:00:15.648Z</time></trkpt><trkpt lat="44.6838489" lon="9.5681933"><ele>479.0</ele><time>2026-03-27T15:00:16.648Z</time></trkpt><trkpt lat="44.6839249" lon="9.5683448"><ele>482.0</ele><time>2026-03-27T15:00:17.647Z</time></trkpt><trkpt lat="44.6840108" lon="9.5684742"><ele>485.0</ele><time>2026-03-27T15:00:18.649Z</time></trkpt><trkpt lat="44.6841093" lon="9.5685587"><ele>485.0</ele><time>2026-03-27T15:00:19.648Z</time></trkpt><trkpt lat="44.6842216" lon="9.5686081"><ele>485.0</ele><time>2026-03-27T15:00:20.647Z</time></trkpt><trkpt lat="44.684345" lon="9.5686294"><ele>485.0</ele><time>2026-03-27T15:00:21.648Z</time></trkpt><trkpt lat="44.6844639" lon="9.5686154"><ele>485.0</ele><time>2026-03-27T15:00:22.647Z</time></trkpt><trkpt lat="44.6845772" lon="9.5685848"><ele>483.75</ele><time>2026-03-27T15:00:23.646Z</time></trkpt><trkpt lat="44.6846776" lon="9.5685563"><ele>482.5</ele><time>2026-03-27T15:00:24.646Z</time></trkpt><trkpt lat="44.6847837" lon="9.5685607"><ele>481.25</ele><time>2026-03-27T15:00:25.646Z</time></trkpt><trkpt lat="44.6848892" lon="9.56861"><ele>480.0</ele><time>2026-03-27T15:00:26.649Z</time></trkpt><trkpt lat="44.6850217" lon="9.56865"><ele>480.0</ele><time>2026-03-27T15:00:27.649Z</time></trkpt><trkpt lat="44.6851556" lon="9.5686518"><ele>480.0</ele><time>2026-03-27T15:00:28.648Z</time></trkpt><trkpt lat="44.6852821" lon="9.5686213"><ele>480.0</ele><time>2026-03-27T15:00:29.648Z</time></trkpt><trkpt lat="44.6853937" lon="9.5685504"><ele>480.0</ele><time>2026-03-27T15:00:30.651Z</time></trkpt><trkpt lat="44.6855019" lon="9.5684577"><ele>482.25</ele><time>2026-03-27T15:00:31.648Z</time></trkpt><trkpt lat="44.6856122" lon="9.5683683"><ele>484.5</ele><time>2026-03-27T15:00:32.649Z</time></trkpt><trkpt lat="44.6857288" lon="9.5682995"><ele>486.75</ele><time>2026-03-27T15:00:33.649Z</time></trkpt><trkpt lat="44.6858551" lon="9.5682698"><ele>489.0</ele><time>2026-03-27T15:00:34.646Z</time></trkpt><trkpt lat="44.6859911" lon="9.5682987"><ele>488.25</ele><time>2026-03-27T15:00:35.648Z</time></trkpt><trkpt lat="44.6861355" lon="9.5683536"><ele>487.5</ele><time>2026-03-27T15:00:36.649Z</time></trkpt><trkpt lat="44.6862718" lon="9.5684156"><ele>486.75</ele><time>2026-03-27T15:00:37.646Z</time></trkpt><trkpt lat="44.6864023" lon="9.5684714"><ele>486.0</ele><time>2026-03-27T15:00:38.647Z</time></trkpt><trkpt lat="44.6865422" lon="9.5685171"><ele>486.0</ele><time>2026-03-27T15:00:39.647Z</time></trkpt><trkpt lat="44.6866904" lon="9.5685416"><ele>486.0</ele><time>2026-03-27T15:00:40.648Z</time></trkpt><trkpt lat="44.6868338" lon="9.5685304"><ele>486.0</ele><time>2026-03-27T15:00:41.648Z</time></trkpt><trkpt lat="44.6869733" lon="9.5684665"><ele>486.0</ele><time>2026-03-27T15:00:42.648Z</time></trkpt><trkpt lat="44.6871131" lon="9.5683856"><ele>486.75</ele><time>2026-03-27T15:00:43.646Z</time></trkpt><trkpt lat="44.6872568" lon="9.568316"><ele>487.5</ele><time>2026-03-27T15:00:44.647Z</time></trkpt><trkpt lat="44.6873984" lon="9.5682718"><ele>488.25</ele><time>2026-03-27T15:00:45.648Z</time></trkpt><trkpt lat="44.6875319" lon="9.5682476"><ele>489.0</ele><time>2026-03-27T15:00:46.648Z</time></trkpt><trkpt lat="44.6876624" lon="9.5682399"><ele>489.25</ele><time>2026-03-27T15:00:47.648Z</time></trkpt><trkpt lat="44.6877916" lon="9.5682501"><ele>489.5</ele><time>2026-03-27T15:00:48.65Z</time></trkpt><trkpt lat="44.6879091" lon="9.5682928"><ele>489.75</ele><time>2026-03-27T15:00:49.649Z</time></trkpt><trkpt lat="44.6880204" lon="9.5683698"><ele>490.0</ele><time>2026-03-27T15:00:50.649Z</time></trkpt><trkpt lat="44.6881245" lon="9.5684725"><ele>490.0</ele><time>2026-03-27T15:00:51.648Z</time></trkpt><trkpt lat="44.6882234" lon="9.5685898"><ele>490.0</ele><time>2026-03-27T15:00:52.648Z</time></trkpt><trkpt lat="44.6883156" lon="9.5687283"><ele>490.0</ele><time>2026-03-27T15:00:53.649Z</time></trkpt><trkpt lat="44.6883728" lon="9.5688948"><ele>490.0</ele><time>2026-03-27T15:00:54.647Z</time></trkpt><trkpt lat="44.6884203" lon="9.5690693"><ele>491.25</ele><time>2026-03-27T15:00:55.648Z</time></trkpt><trkpt lat="44.688489" lon="9.5692244"><ele>492.5</ele><time>2026-03-27T15:00:56.652Z</time></trkpt><trkpt lat="44.6885858" lon="9.5693358"><ele>493.75</ele><time>2026-03-27T15:00:57.65Z</time></trkpt><trkpt lat="44.688714" lon="9.5693868"><ele>495.0</ele><time>2026-03-27T15:00:58.649Z</time></trkpt><trkpt lat="44.6888597" lon="9.5693755"><ele>495.0</ele><time>2026-03-27T15:00:59.648Z</time></trkpt><trkpt lat="44.6890111" lon="9.569324"><ele>495.0</ele><time>2026-03-27T15:01:00.649Z</time></trkpt><trkpt lat="44.6891623" lon="9.5692568"><ele>495.0</ele><time>2026-03-27T15:01:01.651Z</time></trkpt><trkpt lat="44.6893132" lon="9.5691982"><ele>496.0</ele><time>2026-03-27T15:01:02.647Z</time></trkpt><trkpt lat="44.68946" lon="9.5691505"><ele>497.0</ele><time>2026-03-27T15:01:03.647Z</time></trkpt><trkpt lat="44.6895982" lon="9.5691356"><ele>498.0</ele><time>2026-03-27T15:01:04.646Z</time></trkpt><trkpt lat="44.6897313" lon="9.5691154"><ele>499.0</ele><time>2026-03-27T15:01:05.648Z</time></trkpt><trkpt lat="44.6898529" lon="9.5690514"><ele>499.0</ele><time>2026-03-27T15:01:06.649Z</time></trkpt><trkpt lat="44.6899559" lon="9.5689411"><ele>499.0</ele><time>2026-03-27T15:01:07.65Z</time></trkpt><trkpt lat="44.6900496" lon="9.5688138"><ele>499.0</ele><time>2026-03-27T15:01:08.649Z</time></trkpt><trkpt lat="44.6901534" lon="9.5687144"><ele>499.0</ele><time>2026-03-27T15:01:09.649Z</time></trkpt><trkpt lat="44.690272" lon="9.5686604"><ele>497.25</ele><time>2026-03-27T15:01:10.648Z</time></trkpt><trkpt lat="44.690402" lon="9.5686753"><ele>495.5</ele><time>2026-03-27T15:01:11.649Z</time></trkpt><trkpt lat="44.6905161" lon="9.568747"><ele>493.75</ele><time>2026-03-27T15:01:12.648Z</time></trkpt><trkpt lat="44.6906011" lon="9.5688797"><ele>492.0</ele><time>2026-03-27T15:01:13.648Z</time></trkpt><trkpt lat="44.690666" lon="9.5690417"><ele>492.0</ele><time>2026-03-27T15:01:14.648Z</time></trkpt><trkpt lat="44.6907358" lon="9.5691995"><ele>492.0</ele><time>2026-03-27T15:01:15.647Z</time></trkpt><trkpt lat="44.6908221" lon="9.5693337"><ele>492.0</ele><time>2026-03-27T15:01:16.647Z</time></trkpt><trkpt lat="44.6909309" lon="9.569403"><ele>492.0</ele><time>2026-03-27T15:01:17.647Z</time></trkpt><trkpt lat="44.6910405" lon="9.5694201"><ele>492.75</ele><time>2026-03-27T15:01:18.647Z</time></trkpt><trkpt lat="44.6911651" lon="9.569381"><ele>493.5</ele><time>2026-03-27T15:01:19.65Z</time></trkpt><trkpt lat="44.6912927" lon="9.5693148"><ele>494.25</ele><time>2026-03-27T15:01:20.648Z</time></trkpt><trkpt lat="44.69142" lon="9.5692309"><ele>495.0</ele><time>2026-03-27T15:01:21.647Z</time></trkpt><trkpt lat="44.6915397" lon="9.5691414"><ele>495.0</ele><time>2026-03-27T15:01:22.648Z</time></trkpt><trkpt lat="44.6916611" lon="9.569055"><ele>495.0</ele><time>2026-03-27T15:01:23.648Z</time></trkpt><trkpt lat="44.6917857" lon="9.5689871"><ele>495.0</ele><time>2026-03-27T15:01:24.648Z</time></trkpt><trkpt lat="44.6919142" lon="9.5689368"><ele>495.0</ele><time>2026-03-27T15:01:25.649Z</time></trkpt><trkpt lat="44.6920445" lon="9.5689095"><ele>494.25</ele><time>2026-03-27T15:01:26.649Z</time></trkpt><trkpt lat="44.6921719" lon="9.5689131"><ele>493.5</ele><time>2026-03-27T15:01:27.648Z</time></trkpt><trkpt lat="44.6922983" lon="9.5689517"><ele>492.75</ele><time>2026-03-27T15:01:28.647Z</time></trkpt><trkpt lat="44.6924067" lon="9.5690283"><ele>492.0</ele><time>2026-03-27T15:01:29.651Z</time></trkpt><trkpt lat="44.6925" lon="9.56912"><ele>492.0</ele><time>2026-03-27T15:01:30.648Z</time></trkpt><trkpt lat="44.6925983" lon="9.5692017"><ele>492.00000000000006</ele><time>2026-03-27T15:01:31.647Z</time></trkpt><trkpt lat="44.6926933" lon="9.5692417"><ele>492.00000000000006</ele><time>2026-03-27T15:01:32.648Z</time></trkpt><trkpt lat="44.6927933" lon="9.5692317"><ele>492.0</ele><time>2026-03-27T15:01:33.647Z</time></trkpt><trkpt lat="44.6928733" lon="9.5691783"><ele>492.0</ele><time>2026-03-27T15:01:34.647Z</time></trkpt><trkpt lat="44.69294" lon="9.569085"><ele>492.75</ele><time>2026-03-27T15:01:35.651Z</time></trkpt><trkpt lat="44.6929933" lon="9.5689617"><ele>493.5</ele><time>2026-03-27T15:01:36.648Z</time></trkpt><trkpt lat="44.69304" lon="9.5688233"><ele>494.25</ele><time>2026-03-27T15:01:37.648Z</time></trkpt><trkpt lat="44.69309" lon="9.5686667"><ele>495.0</ele><time>2026-03-27T15:01:38.65Z</time></trkpt><trkpt lat="44.69312" lon="9.5685033"><ele>495.0</ele><time>2026-03-27T15:01:39.651Z</time></trkpt><trkpt lat="44.6931367" lon="9.5683283"><ele>495.0</ele><time>2026-03-27T15:01:40.649Z</time></trkpt><trkpt lat="44.6931433" lon="9.568155"><ele>495.0</ele><time>2026-03-27T15:01:41.646Z</time></trkpt><trkpt lat="44.6931383" lon="9.56799"><ele>495.0</ele><time>2026-03-27T15:01:42.647Z</time></trkpt><trkpt lat="44.6931333" lon="9.567835"><ele>492.2</ele><time>2026-03-27T15:01:43.648Z</time></trkpt><trkpt lat="44.693155" lon="9.5676867"><ele>489.4</ele><time>2026-03-27T15:01:44.647Z</time></trkpt><trkpt lat="44.6931967" lon="9.56757"><ele>486.6</ele><time>2026-03-27T15:01:45.646Z</time></trkpt><trkpt lat="44.6932583" lon="9.5674833"><ele>483.8</ele><time>2026-03-27T15:01:46.647Z</time></trkpt><trkpt lat="44.69337" lon="9.56745"><ele>481.0</ele><time>2026-03-27T15:01:47.649Z</time></trkpt><trkpt lat="44.6934683" lon="9.5674233"><ele>481.0</ele><time>2026-03-27T15:01:48.648Z</time></trkpt><trkpt lat="44.6935717" lon="9.56741"><ele>481.0</ele><time>2026-03-27T15:01:49.646Z</time></trkpt><trkpt lat="44.6936783" lon="9.5674167"><ele>481.0</ele><time>2026-03-27T15:01:50.649Z</time></trkpt><trkpt lat="44.6937817" lon="9.56746"><ele>481.0</ele><time>2026-03-27T15:01:51.647Z</time></trkpt><trkpt lat="44.6938917" lon="9.5675017"><ele>481.0</ele><time>2026-03-27T15:01:52.646Z</time></trkpt><trkpt lat="44.6940167" lon="9.56754"><ele>481.0</ele><time>2026-03-27T15:01:53.647Z</time></trkpt><trkpt lat="44.6941717" lon="9.5675217"><ele>481.0</ele><time>2026-03-27T15:01:54.647Z</time></trkpt><trkpt lat="44.694305" lon="9.5674867"><ele>481.0</ele><time>2026-03-27T15:01:55.649Z</time></trkpt><trkpt lat="44.6944283" lon="9.5674583"><ele>481.0</ele><time>2026-03-27T15:01:56.649Z</time></trkpt><trkpt lat="44.694555" lon="9.5674283"><ele>480.0</ele><time>2026-03-27T15:01:57.648Z</time></trkpt><trkpt lat="44.6946767" lon="9.5674433"><ele>479.0</ele><time>2026-03-27T15:01:58.647Z</time></trkpt><trkpt lat="44.69479" lon="9.5674967"><ele>478.0</ele><time>2026-03-27T15:01:59.649Z</time></trkpt><trkpt lat="44.6948833" lon="9.5676"><ele>477.0</ele><time>2026-03-27T15:02:00.647Z</time></trkpt><trkpt lat="44.6949733" lon="9.5677283"><ele>477.75</ele><time>2026-03-27T15:02:01.646Z</time></trkpt><trkpt lat="44.69507" lon="9.5678733"><ele>478.5</ele><time>2026-03-27T15:02:02.647Z</time></trkpt><trkpt lat="44.6951817" lon="9.5679933"><ele>479.25</ele><time>2026-03-27T15:02:03.647Z</time></trkpt><trkpt lat="44.6953033" lon="9.5680967"><ele>480.0</ele><time>2026-03-27T15:02:04.65Z</time></trkpt><trkpt lat="44.69544" lon="9.5681733"><ele>480.0</ele><time>2026-03-27T15:02:05.647Z</time></trkpt><trkpt lat="44.695585" lon="9.5682183"><ele>480.0</ele><time>2026-03-27T15:02:06.647Z</time></trkpt><trkpt lat="44.6957517" lon="9.5682167"><ele>480.0</ele><time>2026-03-27T15:02:07.647Z</time></trkpt><trkpt lat="44.695915" lon="9.5681967"><ele>480.0</ele><time>2026-03-27T15:02:08.648Z</time></trkpt><trkpt lat="44.6960833" lon="9.568165"><ele>480.0</ele><time>2026-03-27T15:02:09.649Z</time></trkpt><trkpt lat="44.696235" lon="9.5681217"><ele>480.0</ele><time>2026-03-27T15:02:10.647Z</time></trkpt><trkpt lat="44.6963833" lon="9.5680883"><ele>479.75</ele><time>2026-03-27T15:02:11.647Z</time></trkpt><trkpt lat="44.6965217" lon="9.5680733"><ele>479.5</ele><time>2026-03-27T15:02:12.647Z</time></trkpt><trkpt lat="44.6966567" lon="9.5681067"><ele>479.25</ele><time>2026-03-27T15:02:13.647Z</time></trkpt><trkpt lat="44.6967783" lon="9.568185"><ele>479.0</ele><time>2026-03-27T15:02:14.647Z</time></trkpt><trkpt lat="44.696895" lon="9.568285"><ele>478.25</ele><time>2026-03-27T15:02:15.647Z</time></trkpt><trkpt lat="44.69701" lon="9.5683833"><ele>477.5</ele><time>2026-03-27T15:02:16.647Z</time></trkpt><trkpt lat="44.6971283" lon="9.56847"><ele>476.75</ele><time>2026-03-27T15:02:17.646Z</time></trkpt><trkpt lat="44.6972583" lon="9.5685267"><ele>476.0</ele><time>2026-03-27T15:02:18.652Z</time></trkpt><trkpt lat="44.69739" lon="9.56855"><ele>476.0</ele><time>2026-03-27T15:02:19.647Z</time></trkpt><trkpt lat="44.6975167" lon="9.56856"><ele>476.0</ele><time>2026-03-27T15:02:20.647Z</time></trkpt><trkpt lat="44.6976333" lon="9.56858"><ele>476.0</ele><time>2026-03-27T15:02:21.648Z</time></trkpt><trkpt lat="44.69775" lon="9.5686133"><ele>476.0</ele><time>2026-03-27T15:02:22.647Z</time></trkpt><trkpt lat="44.6978517" lon="9.56864"><ele>477.4</ele><time>2026-03-27T15:02:23.649Z</time></trkpt><trkpt lat="44.6979533" lon="9.5686383"><ele>478.8</ele><time>2026-03-27T15:02:24.649Z</time></trkpt><trkpt lat="44.6980467" lon="9.568585"><ele>480.19999999999993</ele><time>2026-03-27T15:02:25.647Z</time></trkpt><trkpt lat="44.69813" lon="9.568485"><ele>481.59999999999997</ele><time>2026-03-27T15:02:26.649Z</time></trkpt><trkpt lat="44.6982" lon="9.5683583"><ele>483.0</ele><time>2026-03-27T15:02:27.647Z</time></trkpt><trkpt lat="44.69826" lon="9.5682317"><ele>483.0</ele><time>2026-03-27T15:02:28.651Z</time></trkpt><trkpt lat="44.6983333" lon="9.5681133"><ele>482.99999999999994</ele><time>2026-03-27T15:02:29.648Z</time></trkpt><trkpt lat="44.6984083" lon="9.5680033"><ele>482.99999999999994</ele><time>2026-03-27T15:02:30.649Z</time></trkpt><trkpt lat="44.6984883" lon="9.5679033"><ele>483.0</ele><time>2026-03-27T15:02:31.648Z</time></trkpt><trkpt lat="44.6985817" lon="9.5678183"><ele>483.0</ele><time>2026-03-27T15:02:32.648Z</time></trkpt><trkpt lat="44.6986883" lon="9.5677633"><ele>482.59999999999997</ele><time>2026-03-27T15:02:33.648Z</time></trkpt><trkpt lat="44.6988033" lon="9.5677617"><ele>482.19999999999993</ele><time>2026-03-27T15:02:34.648Z</time></trkpt><trkpt lat="44.6989117" lon="9.5678"><ele>481.8</ele><time>2026-03-27T15:02:35.649Z</time></trkpt><trkpt lat="44.6990033" lon="9.5678533"><ele>481.4</ele><time>2026-03-27T15:02:36.648Z</time></trkpt><trkpt lat="44.699105" lon="9.5679217"><ele>481.0</ele><time>2026-03-27T15:02:37.65Z</time></trkpt><trkpt lat="44.6991833" lon="9.5680183"><ele>481.0</ele><time>2026-03-27T15:02:38.646Z</time></trkpt><trkpt lat="44.6992317" lon="9.568145"><ele>481.0</ele><time>2026-03-27T15:02:39.646Z</time></trkpt><trkpt lat="44.69927" lon="9.56829"><ele>481.0</ele><time>2026-03-27T15:02:40.648Z</time></trkpt><trkpt lat="44.699315" lon="9.5684367"><ele>481.0</ele><time>2026-03-27T15:02:41.647Z</time></trkpt><trkpt lat="44.699365" lon="9.5685917"><ele>481.0</ele><time>2026-03-27T15:02:42.648Z</time></trkpt><trkpt lat="44.6994333" lon="9.568735"><ele>481.25</ele><time>2026-03-27T15:02:43.648Z</time></trkpt><trkpt lat="44.69952" lon="9.56886"><ele>481.5</ele><time>2026-03-27T15:02:44.647Z</time></trkpt><trkpt lat="44.69963" lon="9.5689517"><ele>481.75</ele><time>2026-03-27T15:02:45.646Z</time></trkpt><trkpt lat="44.699755" lon="9.56903"><ele>482.0</ele><time>2026-03-27T15:02:46.646Z</time></trkpt><trkpt lat="44.69987" lon="9.5691083"><ele>482.0</ele><time>2026-03-27T15:02:47.65Z</time></trkpt><trkpt lat="44.69999" lon="9.5691767"><ele>482.0</ele><time>2026-03-27T15:02:48.647Z</time></trkpt><trkpt lat="44.7001283" lon="9.5692267"><ele>482.0</ele><time>2026-03-27T15:02:49.648Z</time></trkpt><trkpt lat="44.7002533" lon="9.569255"><ele>482.0</ele><time>2026-03-27T15:02:50.646Z</time></trkpt><trkpt lat="44.7003917" lon="9.5692667"><ele>479.25</ele><time>2026-03-27T15:02:51.646Z</time></trkpt><trkpt lat="44.7005183" lon="9.569265"><ele>476.5</ele><time>2026-03-27T15:02:52.646Z</time></trkpt><trkpt lat="44.7006417" lon="9.5692917"><ele>473.75</ele><time>2026-03-27T15:02:53.646Z</time></trkpt><trkpt lat="44.7007583" lon="9.5693533"><ele>471.0</ele><time>2026-03-27T15:02:54.648Z</time></trkpt><trkpt lat="44.7008733" lon="9.569435"><ele>471.0</ele><time>2026-03-27T15:02:55.647Z</time></trkpt><trkpt lat="44.7009817" lon="9.5695083"><ele>471.0</ele><time>2026-03-27T15:02:56.647Z</time></trkpt><trkpt lat="44.7010933" lon="9.569565"><ele>471.0</ele><time>2026-03-27T15:02:57.647Z</time></trkpt><trkpt lat="44.7011967" lon="9.5695617"><ele>471.0</ele><time>2026-03-27T15:02:58.649Z</time></trkpt><trkpt lat="44.7012933" lon="9.5695133"><ele>471.0</ele><time>2026-03-27T15:02:59.649Z</time></trkpt><trkpt lat="44.7013883" lon="9.5694333"><ele>470.6</ele><time>2026-03-27T15:03:00.65Z</time></trkpt><trkpt lat="44.7014717" lon="9.5693183"><ele>470.20000000000005</ele><time>2026-03-27T15:03:01.649Z</time></trkpt><trkpt lat="44.7015517" lon="9.5692117"><ele>469.79999999999995</ele><time>2026-03-27T15:03:02.648Z</time></trkpt><trkpt lat="44.7016417" lon="9.5691417"><ele>469.4</ele><time>2026-03-27T15:03:03.649Z</time></trkpt><trkpt lat="44.70174" lon="9.5691167"><ele>469.0</ele><time>2026-03-27T15:03:04.65Z</time></trkpt><trkpt lat="44.70184" lon="9.5691367"><ele>467.5</ele><time>2026-03-27T15:03:05.648Z</time></trkpt><trkpt lat="44.70195" lon="9.5691783"><ele>466.0</ele><time>2026-03-27T15:03:06.649Z</time></trkpt><trkpt lat="44.7020683" lon="9.56923"><ele>464.5</ele><time>2026-03-27T15:03:07.649Z</time></trkpt><trkpt lat="44.7021967" lon="9.5692833"><ele>463.0</ele><time>2026-03-27T15:03:08.648Z</time></trkpt><trkpt lat="44.702325" lon="9.5693367"><ele>463.0</ele><time>2026-03-27T15:03:09.648Z</time></trkpt><trkpt lat="44.7024617" lon="9.56938"><ele>463.0</ele><time>2026-03-27T15:03:10.648Z</time></trkpt><trkpt lat="44.70261" lon="9.5694117"><ele>463.0</ele><time>2026-03-27T15:03:11.65Z</time></trkpt><trkpt lat="44.7027567" lon="9.5694217"><ele>463.0</ele><time>2026-03-27T15:03:12.647Z</time></trkpt><trkpt lat="44.7029017" lon="9.56941"><ele>462.25</ele><time>2026-03-27T15:03:13.648Z</time></trkpt><trkpt lat="44.7030483" lon="9.5693833"><ele>461.5</ele><time>2026-03-27T15:03:14.65Z</time></trkpt><trkpt lat="44.7031883" lon="9.5693517"><ele>460.75</ele><time>2026-03-27T15:03:15.648Z</time></trkpt><trkpt lat="44.703325" lon="9.569305"><ele>460.0</ele><time>2026-03-27T15:03:16.648Z</time></trkpt><trkpt lat="44.7034567" lon="9.5692767"><ele>458.5</ele><time>2026-03-27T15:03:17.648Z</time></trkpt><trkpt lat="44.703585" lon="9.5692717"><ele>457.0</ele><time>2026-03-27T15:03:18.648Z</time></trkpt><trkpt lat="44.70371" lon="9.5692917"><ele>455.5</ele><time>2026-03-27T15:03:19.647Z</time></trkpt><trkpt lat="44.70383" lon="9.5693517"><ele>454.0</ele><time>2026-03-27T15:03:20.648Z</time></trkpt><trkpt lat="44.7039317" lon="9.56944"><ele>457.75</ele><time>2026-03-27T15:03:21.649Z</time></trkpt><trkpt lat="44.70402" lon="9.56956"><ele>461.5</ele><time>2026-03-27T15:03:22.648Z</time></trkpt><trkpt lat="44.704105" lon="9.5697067"><ele>465.25</ele><time>2026-03-27T15:03:23.648Z</time></trkpt><trkpt lat="44.7041833" lon="9.5698633"><ele>469.0</ele><time>2026-03-27T15:03:24.648Z</time></trkpt><trkpt lat="44.704255" lon="9.57001"><ele>469.0</ele><time>2026-03-27T15:03:25.649Z</time></trkpt><trkpt lat="44.7043183" lon="9.570145"><ele>469.0</ele><time>2026-03-27T15:03:26.648Z</time></trkpt><trkpt lat="44.70439" lon="9.5702717"><ele>469.0</ele><time>2026-03-27T15:03:27.649Z</time></trkpt><trkpt lat="44.70448" lon="9.5703733"><ele>469.0</ele><time>2026-03-27T15:03:28.649Z</time></trkpt><trkpt lat="44.704585" lon="9.5704317"><ele>468.6</ele><time>2026-03-27T15:03:29.648Z</time></trkpt><trkpt lat="44.704695" lon="9.57044"><ele>468.2</ele><time>2026-03-27T15:03:30.648Z</time></trkpt><trkpt lat="44.70481" lon="9.5704"><ele>467.80000000000007</ele><time>2026-03-27T15:03:31.65Z</time></trkpt><trkpt lat="44.7048983" lon="9.5703183"><ele>467.40000000000003</ele><time>2026-03-27T15:03:32.648Z</time></trkpt><trkpt lat="44.7049617" lon="9.57019"><ele>467.0</ele><time>2026-03-27T15:03:33.648Z</time></trkpt><trkpt lat="44.7050117" lon="9.5700367"><ele>467.0</ele><time>2026-03-27T15:03:34.648Z</time></trkpt><trkpt lat="44.7050533" lon="9.569875"><ele>467.0</ele><time>2026-03-27T15:03:35.649Z</time></trkpt><trkpt lat="44.7051117" lon="9.56971"><ele>467.0</ele><time>2026-03-27T15:03:36.648Z</time></trkpt><trkpt lat="44.7051867" lon="9.569555"><ele>467.0</ele><time>2026-03-27T15:03:37.65Z</time></trkpt><trkpt lat="44.705275" lon="9.569405"><ele>467.25</ele><time>2026-03-27T15:03:38.648Z</time></trkpt><trkpt lat="44.7053733" lon="9.5692533"><ele>467.5</ele><time>2026-03-27T15:03:39.649Z</time></trkpt><trkpt lat="44.705475" lon="9.5691067"><ele>467.75</ele><time>2026-03-27T15:03:40.648Z</time></trkpt><trkpt lat="44.7055817" lon="9.5689667"><ele>468.0</ele><time>2026-03-27T15:03:41.648Z</time></trkpt><trkpt lat="44.705685" lon="9.56883"><ele>464.75</ele><time>2026-03-27T15:03:42.648Z</time></trkpt><trkpt lat="44.7057867" lon="9.5686833"><ele>461.5</ele><time>2026-03-27T15:03:43.648Z</time></trkpt><trkpt lat="44.705885" lon="9.5685283"><ele>458.25</ele><time>2026-03-27T15:03:44.648Z</time></trkpt><trkpt lat="44.705975" lon="9.5683767"><ele>455.0</ele><time>2026-03-27T15:03:45.646Z</time></trkpt><trkpt lat="44.706075" lon="9.568235"><ele>454.25</ele><time>2026-03-27T15:03:46.648Z</time></trkpt><trkpt lat="44.7061833" lon="9.5680983"><ele>453.5</ele><time>2026-03-27T15:03:47.648Z</time></trkpt><trkpt lat="44.7063033" lon="9.5679783"><ele>452.75</ele><time>2026-03-27T15:03:48.648Z</time></trkpt><trkpt lat="44.7064317" lon="9.567885"><ele>452.0</ele><time>2026-03-27T15:03:49.65Z</time></trkpt><trkpt lat="44.7065733" lon="9.5678183"><ele>452.0</ele><time>2026-03-27T15:03:50.649Z</time></trkpt><trkpt lat="44.70672" lon="9.5677733"><ele>452.0</ele><time>2026-03-27T15:03:51.649Z</time></trkpt><trkpt lat="44.706865" lon="9.5677417"><ele>452.0</ele><time>2026-03-27T15:03:52.648Z</time></trkpt><trkpt lat="44.707" lon="9.5677117"><ele>452.0</ele><time>2026-03-27T15:03:53.649Z</time></trkpt><trkpt lat="44.7071367" lon="9.56769"><ele>452.0</ele><time>2026-03-27T15:03:54.65Z</time></trkpt><trkpt lat="44.7072633" lon="9.567675"><ele>452.0</ele><time>2026-03-27T15:03:55.648Z</time></trkpt><trkpt lat="44.70739" lon="9.5676667"><ele>452.0</ele><time>2026-03-27T15:03:56.65Z</time></trkpt><trkpt lat="44.707515" lon="9.567655"><ele>452.0</ele><time>2026-03-27T15:03:57.648Z</time></trkpt><trkpt lat="44.70763" lon="9.5676583"><ele>452.75</ele><time>2026-03-27T15:03:58.648Z</time></trkpt><trkpt lat="44.707745" lon="9.5676833"><ele>453.5</ele><time>2026-03-27T15:03:59.648Z</time></trkpt><trkpt lat="44.7078583" lon="9.5677483"><ele>454.25</ele><time>2026-03-27T15:04:00.649Z</time></trkpt><trkpt lat="44.7079633" lon="9.567855"><ele>455.0</ele><time>2026-03-27T15:04:01.647Z</time></trkpt><trkpt lat="44.7080683" lon="9.5679833"><ele>455.0</ele><time>2026-03-27T15:04:02.648Z</time></trkpt><trkpt lat="44.70818" lon="9.56809"><ele>455.0</ele><time>2026-03-27T15:04:03.648Z</time></trkpt><trkpt lat="44.7083117" lon="9.5681533"><ele>455.0</ele><time>2026-03-27T15:04:04.648Z</time></trkpt><trkpt lat="44.7084367" lon="9.5681767"><ele>455.0</ele><time>2026-03-27T15:04:05.649Z</time></trkpt><trkpt lat="44.7085617" lon="9.5681667"><ele>452.5</ele><time>2026-03-27T15:04:06.647Z</time></trkpt><trkpt lat="44.7086833" lon="9.5681183"><ele>450.0</ele><time>2026-03-27T15:04:07.65Z</time></trkpt><trkpt lat="44.7088" lon="9.56805"><ele>447.5</ele><time>2026-03-27T15:04:08.648Z</time></trkpt><trkpt lat="44.7089083" lon="9.5679833"><ele>445.0</ele><time>2026-03-27T15:04:09.652Z</time></trkpt><trkpt lat="44.7090183" lon="9.5679433"><ele>445.0</ele><time>2026-03-27T15:04:10.647Z</time></trkpt><trkpt lat="44.7091283" lon="9.56796"><ele>445.0</ele><time>2026-03-27T15:04:11.647Z</time></trkpt><trkpt lat="44.7092333" lon="9.56802"><ele>445.0</ele><time>2026-03-27T15:04:12.648Z</time></trkpt><trkpt lat="44.7093317" lon="9.5680983"><ele>445.0</ele><time>2026-03-27T15:04:13.647Z</time></trkpt><trkpt lat="44.7094217" lon="9.5681867"><ele>445.0</ele><time>2026-03-27T15:04:14.649Z</time></trkpt><trkpt lat="44.7095183" lon="9.56827"><ele>444.0</ele><time>2026-03-27T15:04:15.648Z</time></trkpt><trkpt lat="44.7096117" lon="9.5683417"><ele>443.0</ele><time>2026-03-27T15:04:16.648Z</time></trkpt><trkpt lat="44.7097033" lon="9.5684067"><ele>442.0</ele><time>2026-03-27T15:04:17.647Z</time></trkpt><trkpt lat="44.7097983" lon="9.5684683"><ele>441.0</ele><time>2026-03-27T15:04:18.647Z</time></trkpt><trkpt lat="44.709895" lon="9.568525"><ele>440.0</ele><time>2026-03-27T15:04:19.648Z</time></trkpt><trkpt lat="44.709995" lon="9.568585"><ele>440.0</ele><time>2026-03-27T15:04:20.648Z</time></trkpt><trkpt lat="44.71009" lon="9.5686467"><ele>440.0</ele><time>2026-03-27T15:04:21.649Z</time></trkpt><trkpt lat="44.710175" lon="9.568705"><ele>440.0</ele><time>2026-03-27T15:04:22.647Z</time></trkpt><trkpt lat="44.71026" lon="9.5687667"><ele>440.0</ele><time>2026-03-27T15:04:23.648Z</time></trkpt><trkpt lat="44.7103417" lon="9.5688317"><ele>440.0</ele><time>2026-03-27T15:04:24.648Z</time></trkpt><trkpt lat="44.7104133" lon="9.56891"><ele>440.3333333333333</ele><time>2026-03-27T15:04:25.648Z</time></trkpt><trkpt lat="44.7104733" lon="9.5689917"><ele>440.66666666666663</ele><time>2026-03-27T15:04:26.649Z</time></trkpt><trkpt lat="44.7105233" lon="9.5690717"><ele>441.0</ele><time>2026-03-27T15:04:27.647Z</time></trkpt><trkpt lat="44.710575" lon="9.56916"><ele>441.33333333333337</ele><time>2026-03-27T15:04:28.648Z</time></trkpt><trkpt lat="44.7106383" lon="9.56926"><ele>441.6666666666667</ele><time>2026-03-27T15:04:29.65Z</time></trkpt><trkpt lat="44.7107083" lon="9.5693683"><ele>442.0</ele><time>2026-03-27T15:04:30.647Z</time></trkpt><trkpt lat="44.7107817" lon="9.5694883"><ele>442.75</ele><time>2026-03-27T15:04:31.648Z</time></trkpt><trkpt lat="44.7108567" lon="9.56961"><ele>443.5</ele><time>2026-03-27T15:04:32.647Z</time></trkpt><trkpt lat="44.7109367" lon="9.5697317"><ele>444.25</ele><time>2026-03-27T15:04:33.646Z</time></trkpt><trkpt lat="44.7110183" lon="9.56984"><ele>445.0</ele><time>2026-03-27T15:04:34.649Z</time></trkpt><trkpt lat="44.711105" lon="9.56993"><ele>442.8</ele><time>2026-03-27T15:04:35.648Z</time></trkpt><trkpt lat="44.7112" lon="9.5699967"><ele>440.6</ele><time>2026-03-27T15:04:36.647Z</time></trkpt><trkpt lat="44.711305" lon="9.5700467"><ele>438.4</ele><time>2026-03-27T15:04:37.647Z</time></trkpt><trkpt lat="44.711415" lon="9.5700783"><ele>436.2</ele><time>2026-03-27T15:04:38.648Z</time></trkpt><trkpt lat="44.711525" lon="9.57008"><ele>434.0</ele><time>2026-03-27T15:04:39.648Z</time></trkpt><trkpt lat="44.71164" lon="9.570045"><ele>434.0</ele><time>2026-03-27T15:04:40.648Z</time></trkpt><trkpt lat="44.7117517" lon="9.569975"><ele>434.0</ele><time>2026-03-27T15:04:41.647Z</time></trkpt><trkpt lat="44.711855" lon="9.569885"><ele>434.0</ele><time>2026-03-27T15:04:42.647Z</time></trkpt><trkpt lat="44.7119483" lon="9.5697817"><ele>434.0</ele><time>2026-03-27T15:04:43.646Z</time></trkpt><trkpt lat="44.71204" lon="9.569675"><ele>432.79999999999995</ele><time>2026-03-27T15:04:44.647Z</time></trkpt><trkpt lat="44.71213" lon="9.569575"><ele>431.59999999999997</ele><time>2026-03-27T15:04:45.648Z</time></trkpt><trkpt lat="44.7122167" lon="9.5694817"><ele>430.4</ele><time>2026-03-27T15:04:46.647Z</time></trkpt><trkpt lat="44.7122983" lon="9.5693883"><ele>429.2</ele><time>2026-03-27T15:04:47.65Z</time></trkpt><trkpt lat="44.71238" lon="9.569295"><ele>428.0</ele><time>2026-03-27T15:04:48.647Z</time></trkpt><trkpt lat="44.7124617" lon="9.5692017"><ele>428.0</ele><time>2026-03-27T15:04:49.647Z</time></trkpt><trkpt lat="44.7125417" lon="9.569105"><ele>427.99999999999994</ele><time>2026-03-27T15:04:50.647Z</time></trkpt><trkpt lat="44.7126267" lon="9.5690117"><ele>427.99999999999994</ele><time>2026-03-27T15:04:51.648Z</time></trkpt><trkpt lat="44.7127167" lon="9.5689283"><ele>428.0</ele><time>2026-03-27T15:04:52.654Z</time></trkpt><trkpt lat="44.712815" lon="9.5688617"><ele>428.0</ele><time>2026-03-27T15:04:53.647Z</time></trkpt><trkpt lat="44.71292" lon="9.56884"><ele>429.66666666666663</ele><time>2026-03-27T15:04:54.647Z</time></trkpt><trkpt lat="44.713025" lon="9.5688417"><ele>431.3333333333333</ele><time>2026-03-27T15:04:55.649Z</time></trkpt><trkpt lat="44.7131117" lon="9.5688683"><ele>433.0</ele><time>2026-03-27T15:04:56.648Z</time></trkpt><trkpt lat="44.713195" lon="9.5688983"><ele>434.66666666666663</ele><time>2026-03-27T15:04:57.648Z</time></trkpt><trkpt lat="44.7132717" lon="9.5689333"><ele>436.3333333333333</ele><time>2026-03-27T15:04:58.647Z</time></trkpt><trkpt lat="44.7133417" lon="9.5689783"><ele>438.0</ele><time>2026-03-27T15:04:59.65Z</time></trkpt><trkpt lat="44.71341" lon="9.5690233"><ele>438.0</ele><time>2026-03-27T15:05:00.647Z</time></trkpt><trkpt lat="44.7134767" lon="9.5690733"><ele>438.0</ele><time>2026-03-27T15:05:01.647Z</time></trkpt><trkpt lat="44.7135533" lon="9.5691583"><ele>438.0</ele><time>2026-03-27T15:05:03.648Z</time></trkpt><trkpt lat="44.7136133" lon="9.56921"><ele>450.0</ele><time>2026-03-27T15:05:06.648Z</time></trkpt></trkseg><trkseg><trkpt lat="44.7136483" lon="9.5697217"><ele>442.99999999999994</ele><time>2026-03-27T16:06:10.648Z</time></trkpt><trkpt lat="44.71371" lon="9.5696917"><ele>443.0</ele><time>2026-03-27T16:06:17.649Z</time></trkpt><trkpt lat="44.71364" lon="9.5697233"><ele>443.0</ele><time>2026-03-27T16:06:52.65Z</time></trkpt><trkpt lat="44.713705" lon="9.5697633"><ele>443.0</ele><time>2026-03-27T16:07:05.651Z</time></trkpt><trkpt lat="44.7137533" lon="9.5699033"><ele>442.99999999999994</ele><time>2026-03-27T16:07:07.647Z</time></trkpt><trkpt lat="44.7137867" lon="9.5699983"><ele>443.0</ele><time>2026-03-27T16:07:08.649Z</time></trkpt><trkpt lat="44.713855" lon="9.570135"><ele>443.0</ele><time>2026-03-27T16:07:09.649Z</time></trkpt><trkpt lat="44.71392" lon="9.57027"><ele>443.0</ele><time>2026-03-27T16:07:10.648Z</time></trkpt><trkpt lat="44.7139917" lon="9.5703833"><ele>443.0</ele><time>2026-03-27T16:07:11.652Z</time></trkpt><trkpt lat="44.714085" lon="9.5704717"><ele>443.0</ele><time>2026-03-27T16:07:12.647Z</time></trkpt><trkpt lat="44.7142033" lon="9.57053"><ele>441.0</ele><time>2026-03-27T16:07:13.651Z</time></trkpt><trkpt lat="44.714345" lon="9.57058"><ele>439.0</ele><time>2026-03-27T16:07:14.648Z</time></trkpt><trkpt lat="44.7145017" lon="9.5706283"><ele>437.0</ele><time>2026-03-27T16:07:15.649Z</time></trkpt><trkpt lat="44.7146633" lon="9.57068"><ele>437.0</ele><time>2026-03-27T16:07:16.647Z</time></trkpt><trkpt lat="44.7148267" lon="9.5707483"><ele>437.0</ele><time>2026-03-27T16:07:17.65Z</time></trkpt><trkpt lat="44.714995" lon="9.570815"><ele>437.0</ele><time>2026-03-27T16:07:18.649Z</time></trkpt><trkpt lat="44.715175" lon="9.5708933"><ele>440.0</ele><time>2026-03-27T16:07:19.648Z</time></trkpt><trkpt lat="44.71536" lon="9.5709583"><ele>443.0</ele><time>2026-03-27T16:07:20.648Z</time></trkpt><trkpt lat="44.7155533" lon="9.571"><ele>446.0</ele><time>2026-03-27T16:07:21.648Z</time></trkpt><trkpt lat="44.7157483" lon="9.5710333"><ele>446.0</ele><time>2026-03-27T16:07:22.651Z</time></trkpt><trkpt lat="44.7159533" lon="9.5710517"><ele>446.0</ele><time>2026-03-27T16:07:23.65Z</time></trkpt><trkpt lat="44.7161383" lon="9.5711067"><ele>446.0</ele><time>2026-03-27T16:07:24.648Z</time></trkpt><trkpt lat="44.716335" lon="9.5711633"><ele>440.66666666666663</ele><time>2026-03-27T16:07:25.647Z</time></trkpt><trkpt lat="44.716525" lon="9.5712567"><ele>435.33333333333337</ele><time>2026-03-27T16:07:26.648Z</time></trkpt><trkpt lat="44.7167183" lon="9.571315"><ele>430.0</ele><time>2026-03-27T16:07:27.647Z</time></trkpt><trkpt lat="44.7169017" lon="9.5713617"><ele>434.6666666666667</ele><time>2026-03-27T16:07:28.646Z</time></trkpt><trkpt lat="44.71707" lon="9.5714483"><ele>439.33333333333337</ele><time>2026-03-27T16:07:29.646Z</time></trkpt><trkpt lat="44.7172317" lon="9.5715617"><ele>444.0</ele><time>2026-03-27T16:07:30.646Z</time></trkpt><trkpt lat="44.7173717" lon="9.5717317"><ele>444.0</ele><time>2026-03-27T16:07:31.647Z</time></trkpt><trkpt lat="44.7174983" lon="9.5719483"><ele>444.0</ele><time>2026-03-27T16:07:32.647Z</time></trkpt><trkpt lat="44.717635" lon="9.5721717"><ele>444.0</ele><time>2026-03-27T16:07:33.646Z</time></trkpt><trkpt lat="44.7177733" lon="9.572405"><ele>443.33333333333337</ele><time>2026-03-27T16:07:34.648Z</time></trkpt><trkpt lat="44.717915" lon="9.57263"><ele>442.6666666666667</ele><time>2026-03-27T16:07:35.646Z</time></trkpt><trkpt lat="44.7180583" lon="9.5728583"><ele>442.0</ele><time>2026-03-27T16:07:36.646Z</time></trkpt><trkpt lat="44.7182" lon="9.5730917"><ele>442.0</ele><time>2026-03-27T16:07:37.647Z</time></trkpt><trkpt lat="44.718345" lon="9.5733233"><ele>442.0</ele><time>2026-03-27T16:07:38.646Z</time></trkpt><trkpt lat="44.7184983" lon="9.57355"><ele>442.0</ele><time>2026-03-27T16:07:39.647Z</time></trkpt><trkpt lat="44.718645" lon="9.5737833"><ele>445.0</ele><time>2026-03-27T16:07:40.646Z</time></trkpt><trkpt lat="44.7187833" lon="9.5740183"><ele>448.0</ele><time>2026-03-27T16:07:41.646Z</time></trkpt><trkpt lat="44.7189183" lon="9.5742417"><ele>451.0</ele><time>2026-03-27T16:07:42.646Z</time></trkpt><trkpt lat="44.7190483" lon="9.574435"><ele>448.0</ele><time>2026-03-27T16:07:43.648Z</time></trkpt><trkpt lat="44.7191667" lon="9.5745867"><ele>445.0</ele><time>2026-03-27T16:07:44.648Z</time></trkpt><trkpt lat="44.719295" lon="9.5746867"><ele>442.0</ele><time>2026-03-27T16:07:45.645Z</time></trkpt><trkpt lat="44.71945" lon="9.5747333"><ele>442.0</ele><time>2026-03-27T16:07:46.647Z</time></trkpt><trkpt lat="44.7196217" lon="9.574725"><ele>442.0</ele><time>2026-03-27T16:07:47.646Z</time></trkpt><trkpt lat="44.7198017" lon="9.5746767"><ele>442.0</ele><time>2026-03-27T16:07:48.646Z</time></trkpt><trkpt lat="44.7199917" lon="9.5746083"><ele>442.0</ele><time>2026-03-27T16:07:49.646Z</time></trkpt><trkpt lat="44.7201859" lon="9.5745383"><ele>442.0</ele><time>2026-03-27T16:07:50.646Z</time></trkpt><trkpt lat="44.7203849" lon="9.5744657"><ele>442.0</ele><time>2026-03-27T16:07:51.646Z</time></trkpt><trkpt lat="44.7205824" lon="9.574402"><ele>448.6666666666667</ele><time>2026-03-27T16:07:52.646Z</time></trkpt><trkpt lat="44.7207617" lon="9.5743474"><ele>455.33333333333337</ele><time>2026-03-27T16:07:53.646Z</time></trkpt><trkpt lat="44.7209201" lon="9.5743242"><ele>462.0</ele><time>2026-03-27T16:07:54.646Z</time></trkpt><trkpt lat="44.7210676" lon="9.5743833"><ele>461.0</ele><time>2026-03-27T16:07:55.651Z</time></trkpt><trkpt lat="44.7212182" lon="9.5745079"><ele>460.0</ele><time>2026-03-27T16:07:56.648Z</time></trkpt><trkpt lat="44.7213554" lon="9.5746979"><ele>459.0</ele><time>2026-03-27T16:07:57.647Z</time></trkpt><trkpt lat="44.7214866" lon="9.5749063"><ele>459.0</ele><time>2026-03-27T16:07:58.648Z</time></trkpt><trkpt lat="44.7216317" lon="9.5750837"><ele>459.0</ele><time>2026-03-27T16:07:59.646Z</time></trkpt><trkpt lat="44.7218041" lon="9.5752119"><ele>459.0</ele><time>2026-03-27T16:08:00.647Z</time></trkpt><trkpt lat="44.721996" lon="9.5753159"><ele>452.0</ele><time>2026-03-27T16:08:01.647Z</time></trkpt><trkpt lat="44.7221976" lon="9.5754079"><ele>445.0</ele><time>2026-03-27T16:08:02.647Z</time></trkpt><trkpt lat="44.7224051" lon="9.5754889"><ele>438.0</ele><time>2026-03-27T16:08:03.647Z</time></trkpt><trkpt lat="44.7226203" lon="9.5755421"><ele>445.5</ele><time>2026-03-27T16:08:04.648Z</time></trkpt><trkpt lat="44.7228419" lon="9.5755857"><ele>453.0</ele><time>2026-03-27T16:08:05.647Z</time></trkpt><trkpt lat="44.7230675" lon="9.5756421"><ele>453.0</ele><time>2026-03-27T16:08:06.646Z</time></trkpt><trkpt lat="44.7232923" lon="9.5757254"><ele>453.0</ele><time>2026-03-27T16:08:07.646Z</time></trkpt><trkpt lat="44.7235145" lon="9.5758355"><ele>461.5</ele><time>2026-03-27T16:08:08.646Z</time></trkpt><trkpt lat="44.7237354" lon="9.5759559"><ele>470.0</ele><time>2026-03-27T16:08:09.646Z</time></trkpt><trkpt lat="44.7239559" lon="9.5760821"><ele>460.0</ele><time>2026-03-27T16:08:10.649Z</time></trkpt><trkpt lat="44.7241668" lon="9.5761977"><ele>450.0</ele><time>2026-03-27T16:08:11.649Z</time></trkpt><trkpt lat="44.7243718" lon="9.5762791"><ele>440.0</ele><time>2026-03-27T16:08:12.646Z</time></trkpt><trkpt lat="44.7245847" lon="9.5763153"><ele>440.0</ele><time>2026-03-27T16:08:13.647Z</time></trkpt><trkpt lat="44.724806" lon="9.576328"><ele>440.0</ele><time>2026-03-27T16:08:14.646Z</time></trkpt><trkpt lat="44.725023" lon="9.5763395"><ele>440.0</ele><time>2026-03-27T16:08:15.646Z</time></trkpt><trkpt lat="44.7252243" lon="9.5763662"><ele>444.66666666666663</ele><time>2026-03-27T16:08:16.648Z</time></trkpt><trkpt lat="44.7254045" lon="9.576428"><ele>449.33333333333337</ele><time>2026-03-27T16:08:17.648Z</time></trkpt><trkpt lat="44.7255696" lon="9.5765371"><ele>454.0</ele><time>2026-03-27T16:08:18.646Z</time></trkpt><trkpt lat="44.725734" lon="9.5766846"><ele>454.0</ele><time>2026-03-27T16:08:19.647Z</time></trkpt><trkpt lat="44.7258995" lon="9.5768459"><ele>454.0</ele><time>2026-03-27T16:08:20.648Z</time></trkpt><trkpt lat="44.7260587" lon="9.5769992"><ele>454.0</ele><time>2026-03-27T16:08:21.647Z</time></trkpt><trkpt lat="44.7262049" lon="9.5771252"><ele>451.5</ele><time>2026-03-27T16:08:22.646Z</time></trkpt><trkpt lat="44.7263373" lon="9.5771974"><ele>449.0</ele><time>2026-03-27T16:08:23.646Z</time></trkpt><trkpt lat="44.7264615" lon="9.5772117"><ele>446.5</ele><time>2026-03-27T16:08:24.646Z</time></trkpt><trkpt lat="44.7265754" lon="9.577159"><ele>444.0</ele><time>2026-03-27T16:08:25.646Z</time></trkpt><trkpt lat="44.7266764" lon="9.5770374"><ele>448.0</ele><time>2026-03-27T16:08:26.652Z</time></trkpt><trkpt lat="44.7267628" lon="9.5768687"><ele>452.0</ele><time>2026-03-27T16:08:27.648Z</time></trkpt><trkpt lat="44.7268447" lon="9.5766925"><ele>456.0</ele><time>2026-03-27T16:08:28.646Z</time></trkpt><trkpt lat="44.7269338" lon="9.5765663"><ele>460.0</ele><time>2026-03-27T16:08:29.647Z</time></trkpt><trkpt lat="44.7270283" lon="9.5764925"><ele>466.0</ele><time>2026-03-27T16:08:30.726Z</time></trkpt><trkpt lat="44.7271172" lon="9.5764719"><ele>472.0</ele><time>2026-03-27T16:08:31.647Z</time></trkpt><trkpt lat="44.7272128" lon="9.5765012"><ele>478.0</ele><time>2026-03-27T16:08:32.648Z</time></trkpt><trkpt lat="44.7273003" lon="9.5765711"><ele>484.0</ele><time>2026-03-27T16:08:33.646Z</time></trkpt><trkpt lat="44.7273555" lon="9.5766969"><ele>490.0</ele><time>2026-03-27T16:08:34.646Z</time></trkpt><trkpt lat="44.7273487" lon="9.5768983"><ele>489.33333333333337</ele><time>2026-03-27T16:08:35.648Z</time></trkpt><trkpt lat="44.7273109" lon="9.5771306"><ele>488.66666666666663</ele><time>2026-03-27T16:08:36.647Z</time></trkpt><trkpt lat="44.7272573" lon="9.5773786"><ele>488.0</ele><time>2026-03-27T16:08:37.646Z</time></trkpt><trkpt lat="44.7271979" lon="9.5776249"><ele>481.66666666666663</ele><time>2026-03-27T16:08:38.647Z</time></trkpt><trkpt lat="44.7271561" lon="9.5778553"><ele>475.33333333333337</ele><time>2026-03-27T16:08:39.65Z</time></trkpt><trkpt lat="44.7271517" lon="9.5780674"><ele>469.0</ele><time>2026-03-27T16:08:40.646Z</time></trkpt><trkpt lat="44.727193" lon="9.5782713"><ele>469.0</ele><time>2026-03-27T16:08:41.647Z</time></trkpt><trkpt lat="44.7272595" lon="9.5784782"><ele>469.0</ele><time>2026-03-27T16:08:42.646Z</time></trkpt><trkpt lat="44.727326" lon="9.5787"><ele>469.0</ele><time>2026-03-27T16:08:43.647Z</time></trkpt><trkpt lat="44.7273976" lon="9.5789282"><ele>461.33333333333337</ele><time>2026-03-27T16:08:44.647Z</time></trkpt><trkpt lat="44.7274856" lon="9.5791544"><ele>453.66666666666663</ele><time>2026-03-27T16:08:45.654Z</time></trkpt><trkpt lat="44.7275889" lon="9.5793834"><ele>446.0</ele><time>2026-03-27T16:08:46.647Z</time></trkpt><trkpt lat="44.7276839" lon="9.5796306"><ele>453.0</ele><time>2026-03-27T16:08:47.648Z</time></trkpt><trkpt lat="44.7277575" lon="9.5798975"><ele>460.0</ele><time>2026-03-27T16:08:48.646Z</time></trkpt><trkpt lat="44.7278149" lon="9.5801945"><ele>467.0</ele><time>2026-03-27T16:08:49.647Z</time></trkpt><trkpt lat="44.7278584" lon="9.5805163"><ele>467.0</ele><time>2026-03-27T16:08:50.647Z</time></trkpt><trkpt lat="44.7278955" lon="9.5808423"><ele>467.0</ele><time>2026-03-27T16:08:51.648Z</time></trkpt><trkpt lat="44.7279397" lon="9.5811487"><ele>462.66666666666663</ele><time>2026-03-27T16:08:52.647Z</time></trkpt><trkpt lat="44.7279858" lon="9.5814229"><ele>458.33333333333337</ele><time>2026-03-27T16:08:53.647Z</time></trkpt><trkpt lat="44.7280281" lon="9.581666"><ele>454.0</ele><time>2026-03-27T16:08:54.649Z</time></trkpt><trkpt lat="44.7280718" lon="9.5818731"><ele>450.0</ele><time>2026-03-27T16:08:55.647Z</time></trkpt><trkpt lat="44.7281158" lon="9.5820398"><ele>446.0</ele><time>2026-03-27T16:08:56.648Z</time></trkpt><trkpt lat="44.7281678" lon="9.5821672"><ele>442.0</ele><time>2026-03-27T16:08:57.646Z</time></trkpt><trkpt lat="44.7282339" lon="9.5822506"><ele>438.0</ele><time>2026-03-27T16:08:58.647Z</time></trkpt><trkpt lat="44.7283244" lon="9.5823029"><ele>434.0</ele><time>2026-03-27T16:08:59.647Z</time></trkpt><trkpt lat="44.7284343" lon="9.5823447"><ele>434.0</ele><time>2026-03-27T16:09:00.646Z</time></trkpt><trkpt lat="44.7285479" lon="9.5823947"><ele>434.0</ele><time>2026-03-27T16:09:01.647Z</time></trkpt><trkpt lat="44.7286532" lon="9.5824699"><ele>434.0</ele><time>2026-03-27T16:09:02.647Z</time></trkpt><trkpt lat="44.7287376" lon="9.5826006"><ele>434.0</ele><time>2026-03-27T16:09:03.647Z</time></trkpt><trkpt lat="44.7288078" lon="9.5827622"><ele>435.0</ele><time>2026-03-27T16:09:04.648Z</time></trkpt><trkpt lat="44.7288836" lon="9.5829169"><ele>436.0</ele><time>2026-03-27T16:09:05.646Z</time></trkpt><trkpt lat="44.7289819" lon="9.5830625"><ele>437.0</ele><time>2026-03-27T16:09:06.646Z</time></trkpt><trkpt lat="44.729109" lon="9.5832021"><ele>438.0</ele><time>2026-03-27T16:09:07.647Z</time></trkpt><trkpt lat="44.7292498" lon="9.5833304"><ele>438.0</ele><time>2026-03-27T16:09:08.648Z</time></trkpt><trkpt lat="44.7293964" lon="9.5834559"><ele>438.0</ele><time>2026-03-27T16:09:09.646Z</time></trkpt><trkpt lat="44.7295491" lon="9.5835872"><ele>438.0</ele><time>2026-03-27T16:09:10.649Z</time></trkpt><trkpt lat="44.7297037" lon="9.5837209"><ele>438.0</ele><time>2026-03-27T16:09:11.646Z</time></trkpt><trkpt lat="44.7298527" lon="9.5838485"><ele>438.0</ele><time>2026-03-27T16:09:12.646Z</time></trkpt><trkpt lat="44.7299911" lon="9.5839653"><ele>438.0</ele><time>2026-03-27T16:09:13.646Z</time></trkpt><trkpt lat="44.7301175" lon="9.5840804"><ele>441.66666666666663</ele><time>2026-03-27T16:09:14.649Z</time></trkpt><trkpt lat="44.7302321" lon="9.5842105"><ele>445.3333333333333</ele><time>2026-03-27T16:09:15.651Z</time></trkpt><trkpt lat="44.7303223" lon="9.5843801"><ele>449.0</ele><time>2026-03-27T16:09:16.646Z</time></trkpt><trkpt lat="44.7303884" lon="9.5845926"><ele>449.0</ele><time>2026-03-27T16:09:17.647Z</time></trkpt><trkpt lat="44.7304481" lon="9.5848204"><ele>449.0</ele><time>2026-03-27T16:09:18.646Z</time></trkpt><trkpt lat="44.7305196" lon="9.5850467"><ele>449.0</ele><time>2026-03-27T16:09:19.647Z</time></trkpt><trkpt lat="44.7306039" lon="9.5852523"><ele>445.0</ele><time>2026-03-27T16:09:20.647Z</time></trkpt><trkpt lat="44.7306908" lon="9.5854341"><ele>441.0</ele><time>2026-03-27T16:09:21.646Z</time></trkpt><trkpt lat="44.7307753" lon="9.5855947"><ele>437.0</ele><time>2026-03-27T16:09:22.646Z</time></trkpt><trkpt lat="44.730863" lon="9.5857336"><ele>433.0</ele><time>2026-03-27T16:09:23.647Z</time></trkpt><trkpt lat="44.7309736" lon="9.5858381"><ele>437.33333333333337</ele><time>2026-03-27T16:09:24.648Z</time></trkpt><trkpt lat="44.73111" lon="9.5859051"><ele>441.66666666666663</ele><time>2026-03-27T16:09:25.646Z</time></trkpt><trkpt lat="44.7312678" lon="9.5859503"><ele>446.0</ele><time>2026-03-27T16:09:26.647Z</time></trkpt><trkpt lat="44.7314349" lon="9.5859871"><ele>446.0</ele><time>2026-03-27T16:09:27.648Z</time></trkpt><trkpt lat="44.731605" lon="9.586025"><ele>446.0</ele><time>2026-03-27T16:09:28.648Z</time></trkpt><trkpt lat="44.731765" lon="9.5860817"><ele>446.0</ele><time>2026-03-27T16:09:29.648Z</time></trkpt><trkpt lat="44.7319183" lon="9.5861633"><ele>442.3333333333333</ele><time>2026-03-27T16:09:30.649Z</time></trkpt><trkpt lat="44.7320683" lon="9.58626"><ele>438.66666666666663</ele><time>2026-03-27T16:09:31.648Z</time></trkpt><trkpt lat="44.7322133" lon="9.5863833"><ele>435.0</ele><time>2026-03-27T16:09:32.65Z</time></trkpt><trkpt lat="44.7323567" lon="9.5865267"><ele>435.0</ele><time>2026-03-27T16:09:33.647Z</time></trkpt><trkpt lat="44.7324967" lon="9.58668"><ele>435.0</ele><time>2026-03-27T16:09:34.649Z</time></trkpt><trkpt lat="44.7326383" lon="9.5868233"><ele>435.0</ele><time>2026-03-27T16:09:35.648Z</time></trkpt><trkpt lat="44.73278" lon="9.5869517"><ele>432.33333333333337</ele><time>2026-03-27T16:09:36.646Z</time></trkpt><trkpt lat="44.732925" lon="9.5870517"><ele>429.6666666666667</ele><time>2026-03-27T16:09:37.648Z</time></trkpt><trkpt lat="44.7330817" lon="9.5871317"><ele>427.0</ele><time>2026-03-27T16:09:38.649Z</time></trkpt><trkpt lat="44.7332417" lon="9.5872033"><ele>427.0</ele><time>2026-03-27T16:09:39.657Z</time></trkpt><trkpt lat="44.7333883" lon="9.58727"><ele>427.0</ele><time>2026-03-27T16:09:40.647Z</time></trkpt><trkpt lat="44.73352" lon="9.5872967"><ele>427.0</ele><time>2026-03-27T16:09:41.647Z</time></trkpt><trkpt lat="44.7336533" lon="9.5872683"><ele>427.0</ele><time>2026-03-27T16:09:42.648Z</time></trkpt><trkpt lat="44.733785" lon="9.58721"><ele>426.6666666666667</ele><time>2026-03-27T16:09:43.646Z</time></trkpt><trkpt lat="44.7339267" lon="9.5871483"><ele>426.33333333333337</ele><time>2026-03-27T16:09:44.651Z</time></trkpt><trkpt lat="44.7340783" lon="9.5871133"><ele>426.0</ele><time>2026-03-27T16:09:45.646Z</time></trkpt><trkpt lat="44.734235" lon="9.587105"><ele>427.66666666666663</ele><time>2026-03-27T16:09:46.647Z</time></trkpt><trkpt lat="44.7343983" lon="9.5871367"><ele>429.3333333333333</ele><time>2026-03-27T16:09:47.647Z</time></trkpt><trkpt lat="44.7345583" lon="9.587205"><ele>431.0</ele><time>2026-03-27T16:09:48.65Z</time></trkpt><trkpt lat="44.7347217" lon="9.5872883"><ele>431.0</ele><time>2026-03-27T16:09:49.646Z</time></trkpt><trkpt lat="44.73489" lon="9.587365"><ele>431.0</ele><time>2026-03-27T16:09:50.647Z</time></trkpt><trkpt lat="44.73506" lon="9.5874217"><ele>431.0</ele><time>2026-03-27T16:09:51.648Z</time></trkpt><trkpt lat="44.7352383" lon="9.5874567"><ele>433.3333333333333</ele><time>2026-03-27T16:09:52.651Z</time></trkpt><trkpt lat="44.73543" lon="9.58747"><ele>435.66666666666663</ele><time>2026-03-27T16:09:53.647Z</time></trkpt><trkpt lat="44.735625" lon="9.5874683"><ele>438.0</ele><time>2026-03-27T16:09:54.649Z</time></trkpt><trkpt lat="44.73581" lon="9.5874717"><ele>438.0</ele><time>2026-03-27T16:09:55.647Z</time></trkpt><trkpt lat="44.7359817" lon="9.5874717"><ele>438.0</ele><time>2026-03-27T16:09:56.647Z</time></trkpt><trkpt lat="44.7361383" lon="9.58746"><ele>438.0</ele><time>2026-03-27T16:09:57.648Z</time></trkpt><trkpt lat="44.7362817" lon="9.58741"><ele>436.75</ele><time>2026-03-27T16:09:58.647Z</time></trkpt><trkpt lat="44.736405" lon="9.58735"><ele>435.5</ele><time>2026-03-27T16:09:59.646Z</time></trkpt><trkpt lat="44.7365067" lon="9.58733"><ele>434.25</ele><time>2026-03-27T16:10:00.648Z</time></trkpt><trkpt lat="44.7366233" lon="9.5873567"><ele>433.0</ele><time>2026-03-27T16:10:01.646Z</time></trkpt><trkpt lat="44.7367333" lon="9.5874233"><ele>433.0</ele><time>2026-03-27T16:10:02.649Z</time></trkpt><trkpt lat="44.7368267" lon="9.5875283"><ele>433.0</ele><time>2026-03-27T16:10:03.647Z</time></trkpt><trkpt lat="44.73691" lon="9.5876667"><ele>433.0</ele><time>2026-03-27T16:10:04.648Z</time></trkpt><trkpt lat="44.7370067" lon="9.58781"><ele>433.0</ele><time>2026-03-27T16:10:05.65Z</time></trkpt><trkpt lat="44.737125" lon="9.5879267"><ele>429.33333333333337</ele><time>2026-03-27T16:10:06.648Z</time></trkpt><trkpt lat="44.7372717" lon="9.5880133"><ele>425.66666666666663</ele><time>2026-03-27T16:10:07.648Z</time></trkpt><trkpt lat="44.7374417" lon="9.5880633"><ele>422.0</ele><time>2026-03-27T16:10:08.648Z</time></trkpt><trkpt lat="44.7376267" lon="9.5880783"><ele>424.66666666666663</ele><time>2026-03-27T16:10:09.647Z</time></trkpt><trkpt lat="44.7378083" lon="9.5880833"><ele>427.33333333333337</ele><time>2026-03-27T16:10:10.646Z</time></trkpt><trkpt lat="44.7379733" lon="9.5880917"><ele>430.0</ele><time>2026-03-27T16:10:11.65Z</time></trkpt><trkpt lat="44.73812" lon="9.5881167"><ele>430.0</ele><time>2026-03-27T16:10:12.646Z</time></trkpt><trkpt lat="44.7382533" lon="9.5881867"><ele>430.0</ele><time>2026-03-27T16:10:13.646Z</time></trkpt><trkpt lat="44.7383833" lon="9.5882917"><ele>430.0</ele><time>2026-03-27T16:10:14.647Z</time></trkpt><trkpt lat="44.7385217" lon="9.5884033"><ele>431.0</ele><time>2026-03-27T16:10:15.648Z</time></trkpt><trkpt lat="44.7386667" lon="9.5885017"><ele>432.0</ele><time>2026-03-27T16:10:16.646Z</time></trkpt><trkpt lat="44.7388167" lon="9.5885617"><ele>433.0</ele><time>2026-03-27T16:10:17.646Z</time></trkpt><trkpt lat="44.7389583" lon="9.5885883"><ele>433.0</ele><time>2026-03-27T16:10:18.646Z</time></trkpt><trkpt lat="44.7390933" lon="9.5885783"><ele>433.0</ele><time>2026-03-27T16:10:19.647Z</time></trkpt><trkpt lat="44.7392267" lon="9.58853"><ele>433.0</ele><time>2026-03-27T16:10:20.653Z</time></trkpt><trkpt lat="44.73935" lon="9.5884483"><ele>433.0</ele><time>2026-03-27T16:10:21.651Z</time></trkpt><trkpt lat="44.7394633" lon="9.5883617"><ele>432.75</ele><time>2026-03-27T16:10:22.646Z</time></trkpt><trkpt lat="44.7395783" lon="9.5882983"><ele>432.5</ele><time>2026-03-27T16:10:23.648Z</time></trkpt><trkpt lat="44.7397133" lon="9.5882817"><ele>432.25</ele><time>2026-03-27T16:10:24.647Z</time></trkpt><trkpt lat="44.7398667" lon="9.588325"><ele>432.0</ele><time>2026-03-27T16:10:25.647Z</time></trkpt><trkpt lat="44.7400183" lon="9.5884233"><ele>432.0</ele><time>2026-03-27T16:10:26.649Z</time></trkpt><trkpt lat="44.74017" lon="9.5885483"><ele>432.0</ele><time>2026-03-27T16:10:27.647Z</time></trkpt><trkpt lat="44.7403083" lon="9.5886683"><ele>432.0</ele><time>2026-03-27T16:10:28.646Z</time></trkpt><trkpt lat="44.740445" lon="9.588755"><ele>428.75</ele><time>2026-03-27T16:10:29.655Z</time></trkpt><trkpt lat="44.7405767" lon="9.58879"><ele>425.5</ele><time>2026-03-27T16:10:30.648Z</time></trkpt><trkpt lat="44.7407017" lon="9.58877"><ele>422.25</ele><time>2026-03-27T16:10:31.647Z</time></trkpt><trkpt lat="44.7408217" lon="9.5887183"><ele>419.0</ele><time>2026-03-27T16:10:32.649Z</time></trkpt><trkpt lat="44.7409417" lon="9.588685"><ele>422.0</ele><time>2026-03-27T16:10:33.647Z</time></trkpt><trkpt lat="44.7410633" lon="9.5887083"><ele>425.0</ele><time>2026-03-27T16:10:34.646Z</time></trkpt><trkpt lat="44.7411817" lon="9.5887883"><ele>428.0</ele><time>2026-03-27T16:10:35.647Z</time></trkpt><trkpt lat="44.7412883" lon="9.5889083"><ele>431.0</ele><time>2026-03-27T16:10:36.649Z</time></trkpt><trkpt lat="44.7413583" lon="9.5890367"><ele>431.0</ele><time>2026-03-27T16:10:37.646Z</time></trkpt><trkpt lat="44.7413833" lon="9.5891867"><ele>431.0</ele><time>2026-03-27T16:10:38.649Z</time></trkpt><trkpt lat="44.74138" lon="9.5893333"><ele>431.0</ele><time>2026-03-27T16:10:39.646Z</time></trkpt><trkpt lat="44.7413817" lon="9.589485"><ele>431.0</ele><time>2026-03-27T16:10:40.646Z</time></trkpt><trkpt lat="44.7414017" lon="9.589625"><ele>431.0</ele><time>2026-03-27T16:10:41.647Z</time></trkpt><trkpt lat="44.74146" lon="9.5897367"><ele>431.75</ele><time>2026-03-27T16:10:42.646Z</time></trkpt><trkpt lat="44.741545" lon="9.5898167"><ele>432.5</ele><time>2026-03-27T16:10:43.648Z</time></trkpt><trkpt lat="44.7416517" lon="9.589855"><ele>433.25</ele><time>2026-03-27T16:10:44.655Z</time></trkpt><trkpt lat="44.74178" lon="9.5898333"><ele>434.0</ele><time>2026-03-27T16:10:45.646Z</time></trkpt><trkpt lat="44.74192" lon="9.5898133"><ele>434.0</ele><time>2026-03-27T16:10:46.646Z</time></trkpt><trkpt lat="44.7420783" lon="9.58984"><ele>434.0</ele><time>2026-03-27T16:10:47.648Z</time></trkpt><trkpt lat="44.7422317" lon="9.58993"><ele>434.0</ele><time>2026-03-27T16:10:48.647Z</time></trkpt><trkpt lat="44.7423817" lon="9.5900517"><ele>434.0</ele><time>2026-03-27T16:10:49.65Z</time></trkpt><trkpt lat="44.7425233" lon="9.590195"><ele>434.0</ele><time>2026-03-27T16:10:50.648Z</time></trkpt><trkpt lat="44.74267" lon="9.5903483"><ele>434.0</ele><time>2026-03-27T16:10:51.648Z</time></trkpt><trkpt lat="44.7428333" lon="9.5904933"><ele>433.66666666666663</ele><time>2026-03-27T16:10:52.647Z</time></trkpt><trkpt lat="44.743" lon="9.59064"><ele>433.33333333333337</ele><time>2026-03-27T16:10:53.647Z</time></trkpt><trkpt lat="44.7431733" lon="9.5907867"><ele>433.0</ele><time>2026-03-27T16:10:54.646Z</time></trkpt><trkpt lat="44.74335" lon="9.5909417"><ele>433.0</ele><time>2026-03-27T16:10:55.647Z</time></trkpt><trkpt lat="44.74354" lon="9.591095"><ele>433.0</ele><time>2026-03-27T16:10:56.647Z</time></trkpt><trkpt lat="44.7437417" lon="9.591245"><ele>433.0</ele><time>2026-03-27T16:10:57.648Z</time></trkpt><trkpt lat="44.7439533" lon="9.5913933"><ele>428.0</ele><time>2026-03-27T16:10:58.647Z</time></trkpt><trkpt lat="44.74417" lon="9.5915417"><ele>423.0</ele><time>2026-03-27T16:10:59.648Z</time></trkpt><trkpt lat="44.744375" lon="9.591685"><ele>416.66666666666663</ele><time>2026-03-27T16:11:00.647Z</time></trkpt><trkpt lat="44.7445667" lon="9.59183"><ele>410.3333333333333</ele><time>2026-03-27T16:11:01.646Z</time></trkpt><trkpt lat="44.7447533" lon="9.5919867"><ele>404.0</ele><time>2026-03-27T16:11:02.648Z</time></trkpt><trkpt lat="44.74494" lon="9.5921417"><ele>404.0</ele><time>2026-03-27T16:11:03.649Z</time></trkpt><trkpt lat="44.7451317" lon="9.5922867"><ele>404.0</ele><time>2026-03-27T16:11:04.648Z</time></trkpt><trkpt lat="44.7453283" lon="9.5924233"><ele>404.0</ele><time>2026-03-27T16:11:05.647Z</time></trkpt><trkpt lat="44.745525" lon="9.592555"><ele>400.66666666666663</ele><time>2026-03-27T16:11:06.649Z</time></trkpt><trkpt lat="44.7457183" lon="9.5927033"><ele>397.33333333333337</ele><time>2026-03-27T16:11:07.646Z</time></trkpt><trkpt lat="44.7459017" lon="9.592865"><ele>394.0</ele><time>2026-03-27T16:11:08.649Z</time></trkpt><trkpt lat="44.7460817" lon="9.5930283"><ele>405.6666666666667</ele><time>2026-03-27T16:11:09.647Z</time></trkpt><trkpt lat="44.7462533" lon="9.5931767"><ele>417.33333333333337</ele><time>2026-03-27T16:11:10.647Z</time></trkpt><trkpt lat="44.7464167" lon="9.5933067"><ele>429.0</ele><time>2026-03-27T16:11:11.647Z</time></trkpt><trkpt lat="44.746575" lon="9.5934183"><ele>429.0</ele><time>2026-03-27T16:11:12.646Z</time></trkpt><trkpt lat="44.7467317" lon="9.5935083"><ele>429.0</ele><time>2026-03-27T16:11:13.647Z</time></trkpt><trkpt lat="44.746885" lon="9.5935817"><ele>429.0</ele><time>2026-03-27T16:11:14.653Z</time></trkpt><trkpt lat="44.7470267" lon="9.593635"><ele>428.2</ele><time>2026-03-27T16:11:15.647Z</time></trkpt><trkpt lat="44.7471383" lon="9.5936767"><ele>427.4</ele><time>2026-03-27T16:11:16.646Z</time></trkpt><trkpt lat="44.7472383" lon="9.59367"><ele>426.6</ele><time>2026-03-27T16:11:17.649Z</time></trkpt><trkpt lat="44.7473333" lon="9.5935983"><ele>425.8</ele><time>2026-03-27T16:11:18.649Z</time></trkpt><trkpt lat="44.7474033" lon="9.5934617"><ele>425.0</ele><time>2026-03-27T16:11:19.65Z</time></trkpt><trkpt lat="44.7474483" lon="9.5933"><ele>425.0</ele><time>2026-03-27T16:11:20.649Z</time></trkpt><trkpt lat="44.7474983" lon="9.593135"><ele>425.0</ele><time>2026-03-27T16:11:21.648Z</time></trkpt><trkpt lat="44.7475733" lon="9.593005"><ele>425.0</ele><time>2026-03-27T16:11:22.648Z</time></trkpt><trkpt lat="44.7476733" lon="9.5929083"><ele>425.0</ele><time>2026-03-27T16:11:23.649Z</time></trkpt><trkpt lat="44.7478033" lon="9.592865"><ele>423.3333333333333</ele><time>2026-03-27T16:11:24.649Z</time></trkpt><trkpt lat="44.7479567" lon="9.592865"><ele>421.66666666666663</ele><time>2026-03-27T16:11:25.647Z</time></trkpt><trkpt lat="44.7481167" lon="9.592915"><ele>420.0</ele><time>2026-03-27T16:11:26.654Z</time></trkpt><trkpt lat="44.7482767" lon="9.5930083"><ele>420.0</ele><time>2026-03-27T16:11:27.647Z</time></trkpt><trkpt lat="44.748425" lon="9.5931333"><ele>420.0</ele><time>2026-03-27T16:11:28.647Z</time></trkpt><trkpt lat="44.7485583" lon="9.5932667"><ele>420.0</ele><time>2026-03-27T16:11:29.647Z</time></trkpt><trkpt lat="44.748685" lon="9.5933917"><ele>420.25</ele><time>2026-03-27T16:11:30.649Z</time></trkpt><trkpt lat="44.7488133" lon="9.593485"><ele>420.5</ele><time>2026-03-27T16:11:31.646Z</time></trkpt><trkpt lat="44.7489367" lon="9.59355"><ele>420.75</ele><time>2026-03-27T16:11:32.648Z</time></trkpt><trkpt lat="44.7490567" lon="9.5936067"><ele>421.0</ele><time>2026-03-27T16:11:33.647Z</time></trkpt><trkpt lat="44.7491717" lon="9.5936533"><ele>418.25</ele><time>2026-03-27T16:11:34.65Z</time></trkpt><trkpt lat="44.7492883" lon="9.5936783"><ele>415.5</ele><time>2026-03-27T16:11:35.648Z</time></trkpt><trkpt lat="44.7494" lon="9.5936617"><ele>412.75</ele><time>2026-03-27T16:11:36.649Z</time></trkpt><trkpt lat="44.7495283" lon="9.5936217"><ele>410.0</ele><time>2026-03-27T16:11:37.647Z</time></trkpt><trkpt lat="44.7496467" lon="9.59355"><ele>410.0</ele><time>2026-03-27T16:11:38.648Z</time></trkpt><trkpt lat="44.7497483" lon="9.59345"><ele>410.0</ele><time>2026-03-27T16:11:39.648Z</time></trkpt><trkpt lat="44.7498433" lon="9.5933133"><ele>410.0</ele><time>2026-03-27T16:11:40.65Z</time></trkpt><trkpt lat="44.74994" lon="9.5931533"><ele>410.0</ele><time>2026-03-27T16:11:41.648Z</time></trkpt><trkpt lat="44.750035" lon="9.592995"><ele>410.5</ele><time>2026-03-27T16:11:42.649Z</time></trkpt><trkpt lat="44.7501333" lon="9.5928367"><ele>411.0</ele><time>2026-03-27T16:11:43.65Z</time></trkpt><trkpt lat="44.7502283" lon="9.5926833"><ele>411.5</ele><time>2026-03-27T16:11:44.649Z</time></trkpt><trkpt lat="44.7503267" lon="9.5925433"><ele>412.0</ele><time>2026-03-27T16:11:45.647Z</time></trkpt><trkpt lat="44.7504433" lon="9.592425"><ele>412.0</ele><time>2026-03-27T16:11:46.647Z</time></trkpt><trkpt lat="44.7505767" lon="9.59235"><ele>412.0</ele><time>2026-03-27T16:11:47.647Z</time></trkpt><trkpt lat="44.750735" lon="9.5923133"><ele>412.0</ele><time>2026-03-27T16:11:48.649Z</time></trkpt><trkpt lat="44.7509083" lon="9.5923033"><ele>410.6666666666667</ele><time>2026-03-27T16:11:49.647Z</time></trkpt><trkpt lat="44.7510833" lon="9.5923167"><ele>409.33333333333337</ele><time>2026-03-27T16:11:50.648Z</time></trkpt><trkpt lat="44.7512517" lon="9.5923467"><ele>408.0</ele><time>2026-03-27T16:11:51.647Z</time></trkpt><trkpt lat="44.7514183" lon="9.592375"><ele>408.0</ele><time>2026-03-27T16:11:52.65Z</time></trkpt><trkpt lat="44.7515817" lon="9.5923617"><ele>408.0</ele><time>2026-03-27T16:11:53.648Z</time></trkpt><trkpt lat="44.751745" lon="9.592305"><ele>408.0</ele><time>2026-03-27T16:11:54.647Z</time></trkpt><trkpt lat="44.7519033" lon="9.59223"><ele>409.33333333333337</ele><time>2026-03-27T16:11:55.647Z</time></trkpt><trkpt lat="44.7520583" lon="9.5921783"><ele>410.6666666666667</ele><time>2026-03-27T16:11:56.648Z</time></trkpt><trkpt lat="44.7522133" lon="9.592185"><ele>412.0</ele><time>2026-03-27T16:11:57.65Z</time></trkpt><trkpt lat="44.752375" lon="9.5922433"><ele>412.0</ele><time>2026-03-27T16:11:58.647Z</time></trkpt><trkpt lat="44.7525383" lon="9.5923317"><ele>412.0</ele><time>2026-03-27T16:11:59.646Z</time></trkpt><trkpt lat="44.7526833" lon="9.5924467"><ele>412.0</ele><time>2026-03-27T16:12:00.647Z</time></trkpt><trkpt lat="44.7528033" lon="9.5925633"><ele>412.0</ele><time>2026-03-27T16:12:01.647Z</time></trkpt><trkpt lat="44.7529183" lon="9.5926783"><ele>412.0</ele><time>2026-03-27T16:12:02.648Z</time></trkpt><trkpt lat="44.75304" lon="9.592775"><ele>412.0</ele><time>2026-03-27T16:12:03.647Z</time></trkpt><trkpt lat="44.75317" lon="9.5928383"><ele>412.0</ele><time>2026-03-27T16:12:04.648Z</time></trkpt><trkpt lat="44.7532983" lon="9.5928733"><ele>409.5</ele><time>2026-03-27T16:12:05.651Z</time></trkpt><trkpt lat="44.7534217" lon="9.5928733"><ele>407.0</ele><time>2026-03-27T16:12:06.648Z</time></trkpt><trkpt lat="44.753545" lon="9.5928283"><ele>404.5</ele><time>2026-03-27T16:12:07.648Z</time></trkpt><trkpt lat="44.75365" lon="9.5927367"><ele>402.0</ele><time>2026-03-27T16:12:08.647Z</time></trkpt><trkpt lat="44.7537417" lon="9.5925883"><ele>401.33333333333337</ele><time>2026-03-27T16:12:09.648Z</time></trkpt><trkpt lat="44.75382" lon="9.5923917"><ele>400.6666666666667</ele><time>2026-03-27T16:12:10.647Z</time></trkpt><trkpt lat="44.753905" lon="9.59218"><ele>400.0</ele><time>2026-03-27T16:12:11.647Z</time></trkpt><trkpt lat="44.7540017" lon="9.5919683"><ele>401.6666666666667</ele><time>2026-03-27T16:12:12.647Z</time></trkpt><trkpt lat="44.7541167" lon="9.5917567"><ele>403.33333333333337</ele><time>2026-03-27T16:12:13.647Z</time></trkpt><trkpt lat="44.7542283" lon="9.5915667"><ele>405.0</ele><time>2026-03-27T16:12:14.647Z</time></trkpt><trkpt lat="44.7543317" lon="9.5914017"><ele>404.75</ele><time>2026-03-27T16:12:15.647Z</time></trkpt><trkpt lat="44.7544333" lon="9.5912633"><ele>404.5</ele><time>2026-03-27T16:12:16.65Z</time></trkpt><trkpt lat="44.7545467" lon="9.5911483"><ele>404.25</ele><time>2026-03-27T16:12:17.647Z</time></trkpt><trkpt lat="44.7546783" lon="9.59106"><ele>404.0</ele><time>2026-03-27T16:12:18.648Z</time></trkpt><trkpt lat="44.7548233" lon="9.59101"><ele>404.0</ele><time>2026-03-27T16:12:19.647Z</time></trkpt><trkpt lat="44.7549733" lon="9.590985"><ele>404.0</ele><time>2026-03-27T16:12:20.648Z</time></trkpt><trkpt lat="44.7551133" lon="9.5909667"><ele>404.0</ele><time>2026-03-27T16:12:21.647Z</time></trkpt><trkpt lat="44.755245" lon="9.59096"><ele>404.0</ele><time>2026-03-27T16:12:22.648Z</time></trkpt><trkpt lat="44.75537" lon="9.5909767"><ele>404.4</ele><time>2026-03-27T16:12:23.649Z</time></trkpt><trkpt lat="44.7554817" lon="9.5910417"><ele>404.79999999999995</ele><time>2026-03-27T16:12:24.648Z</time></trkpt><trkpt lat="44.7555717" lon="9.5911583"><ele>405.20000000000005</ele><time>2026-03-27T16:12:25.647Z</time></trkpt><trkpt lat="44.7556383" lon="9.5912733"><ele>405.6</ele><time>2026-03-27T16:12:26.648Z</time></trkpt><trkpt lat="44.7557033" lon="9.591355"><ele>406.0</ele><time>2026-03-27T16:12:27.649Z</time></trkpt><trkpt lat="44.7557733" lon="9.5914"><ele>406.0</ele><time>2026-03-27T16:12:28.649Z</time></trkpt><trkpt lat="44.755865" lon="9.591425"><ele>406.0</ele><time>2026-03-27T16:12:29.648Z</time></trkpt><trkpt lat="44.7559617" lon="9.5914533"><ele>406.0</ele><time>2026-03-27T16:12:30.647Z</time></trkpt><trkpt lat="44.7560483" lon="9.5915267"><ele>406.0</ele><time>2026-03-27T16:12:31.648Z</time></trkpt><trkpt lat="44.7561233" lon="9.59164"><ele>406.0</ele><time>2026-03-27T16:12:32.647Z</time></trkpt><trkpt lat="44.7561867" lon="9.59178"><ele>406.4</ele><time>2026-03-27T16:12:33.648Z</time></trkpt><trkpt lat="44.75624" lon="9.5919317"><ele>406.8</ele><time>2026-03-27T16:12:34.647Z</time></trkpt><trkpt lat="44.7562833" lon="9.5920717"><ele>407.2</ele><time>2026-03-27T16:12:35.65Z</time></trkpt><trkpt lat="44.7563267" lon="9.59219"><ele>407.59999999999997</ele><time>2026-03-27T16:12:36.647Z</time></trkpt><trkpt lat="44.7563817" lon="9.5922867"><ele>408.0</ele><time>2026-03-27T16:12:37.649Z</time></trkpt><trkpt lat="44.7564517" lon="9.5923583"><ele>408.0</ele><time>2026-03-27T16:12:38.649Z</time></trkpt><trkpt lat="44.7565333" lon="9.5924"><ele>408.0</ele><time>2026-03-27T16:12:39.648Z</time></trkpt><trkpt lat="44.75663" lon="9.592375"><ele>408.0</ele><time>2026-03-27T16:12:40.647Z</time></trkpt><trkpt lat="44.756715" lon="9.5922767"><ele>408.0</ele><time>2026-03-27T16:12:41.649Z</time></trkpt><trkpt lat="44.7567717" lon="9.592175"><ele>408.0</ele><time>2026-03-27T16:12:42.649Z</time></trkpt><trkpt lat="44.756815" lon="9.59206"><ele>410.4</ele><time>2026-03-27T16:12:43.648Z</time></trkpt><trkpt lat="44.7568233" lon="9.591915"><ele>412.79999999999995</ele><time>2026-03-27T16:12:44.647Z</time></trkpt><trkpt lat="44.7567667" lon="9.5917767"><ele>415.2</ele><time>2026-03-27T16:12:45.648Z</time></trkpt><trkpt lat="44.756695" lon="9.5916617"><ele>417.6</ele><time>2026-03-27T16:12:46.647Z</time></trkpt><trkpt lat="44.7566077" lon="9.5915791"><ele>420.0</ele><time>2026-03-27T16:12:47.647Z</time></trkpt><trkpt lat="44.7565214" lon="9.5915109"><ele>420.0</ele><time>2026-03-27T16:12:48.65Z</time></trkpt><trkpt lat="44.756447" lon="9.5914175"><ele>420.0</ele><time>2026-03-27T16:12:49.649Z</time></trkpt><trkpt lat="44.7563977" lon="9.5912853"><ele>420.0</ele><time>2026-03-27T16:12:50.647Z</time></trkpt><trkpt lat="44.7563695" lon="9.5911312"><ele>420.0</ele><time>2026-03-27T16:12:51.647Z</time></trkpt><trkpt lat="44.7563552" lon="9.5909845"><ele>420.0</ele><time>2026-03-27T16:12:52.647Z</time></trkpt><trkpt lat="44.7563438" lon="9.5908503"><ele>419.0</ele><time>2026-03-27T16:12:53.648Z</time></trkpt><trkpt lat="44.756309" lon="9.590724"><ele>418.0</ele><time>2026-03-27T16:12:54.649Z</time></trkpt><trkpt lat="44.7562433" lon="9.5906061"><ele>417.0</ele><time>2026-03-27T16:12:55.649Z</time></trkpt><trkpt lat="44.7561507" lon="9.5905159"><ele>416.0</ele><time>2026-03-27T16:12:56.648Z</time></trkpt><trkpt lat="44.7560546" lon="9.5904606"><ele>415.0</ele><time>2026-03-27T16:12:57.649Z</time></trkpt><trkpt lat="44.7559693" lon="9.5904252"><ele>415.00000000000006</ele><time>2026-03-27T16:12:58.648Z</time></trkpt><trkpt lat="44.7558959" lon="9.5903836"><ele>415.0</ele><time>2026-03-27T16:12:59.647Z</time></trkpt><trkpt lat="44.7558401" lon="9.5903127"><ele>415.0</ele><time>2026-03-27T16:13:00.648Z</time></trkpt><trkpt lat="44.7558055" lon="9.5902188"><ele>415.0</ele><time>2026-03-27T16:13:01.648Z</time></trkpt><trkpt lat="44.7558175" lon="9.5901289"><ele>415.00000000000006</ele><time>2026-03-27T16:13:02.648Z</time></trkpt><trkpt lat="44.7558734" lon="9.5900693"><ele>415.0</ele><time>2026-03-27T16:13:03.647Z</time></trkpt><trkpt lat="44.7559629" lon="9.5900729"><ele>418.25</ele><time>2026-03-27T16:13:04.647Z</time></trkpt><trkpt lat="44.7560598" lon="9.5901353"><ele>421.5</ele><time>2026-03-27T16:13:05.648Z</time></trkpt><trkpt lat="44.7561574" lon="9.5902406"><ele>424.75</ele><time>2026-03-27T16:13:06.652Z</time></trkpt><trkpt lat="44.7562579" lon="9.5903605"><ele>428.0</ele><time>2026-03-27T16:13:07.647Z</time></trkpt><trkpt lat="44.7563613" lon="9.5904786"><ele>428.0</ele><time>2026-03-27T16:13:08.648Z</time></trkpt><trkpt lat="44.7564595" lon="9.59058"><ele>427.99999999999994</ele><time>2026-03-27T16:13:09.647Z</time></trkpt><trkpt lat="44.7565521" lon="9.5906654"><ele>427.99999999999994</ele><time>2026-03-27T16:13:10.648Z</time></trkpt><trkpt lat="44.7566363" lon="9.5907404"><ele>428.0</ele><time>2026-03-27T16:13:11.648Z</time></trkpt><trkpt lat="44.7567155" lon="9.5908083"><ele>428.0</ele><time>2026-03-27T16:13:12.647Z</time></trkpt><trkpt lat="44.7568002" lon="9.5908469"><ele>427.79999999999995</ele><time>2026-03-27T16:13:13.651Z</time></trkpt><trkpt lat="44.7568912" lon="9.5908276"><ele>427.59999999999997</ele><time>2026-03-27T16:13:14.647Z</time></trkpt><trkpt lat="44.7569774" lon="9.5907488"><ele>427.40000000000003</ele><time>2026-03-27T16:13:15.649Z</time></trkpt><trkpt lat="44.7570616" lon="9.5906248"><ele>427.20000000000005</ele><time>2026-03-27T16:13:16.647Z</time></trkpt><trkpt lat="44.7571466" lon="9.5904831"><ele>427.0</ele><time>2026-03-27T16:13:17.647Z</time></trkpt><trkpt lat="44.7572288" lon="9.5903415"><ele>429.20000000000005</ele><time>2026-03-27T16:13:18.649Z</time></trkpt><trkpt lat="44.7573003" lon="9.5902013"><ele>431.40000000000003</ele><time>2026-03-27T16:13:19.649Z</time></trkpt><trkpt lat="44.7573607" lon="9.5900615"><ele>433.59999999999997</ele><time>2026-03-27T16:13:20.648Z</time></trkpt><trkpt lat="44.7574142" lon="9.5899329"><ele>435.79999999999995</ele><time>2026-03-27T16:13:21.648Z</time></trkpt><trkpt lat="44.7574797" lon="9.58982"><ele>438.0</ele><time>2026-03-27T16:13:22.647Z</time></trkpt><trkpt lat="44.7575606" lon="9.5897206"><ele>438.0</ele><time>2026-03-27T16:13:23.648Z</time></trkpt><trkpt lat="44.7576534" lon="9.5896263"><ele>438.0</ele><time>2026-03-27T16:13:24.648Z</time></trkpt><trkpt lat="44.7577555" lon="9.5895437"><ele>438.0</ele><time>2026-03-27T16:13:25.647Z</time></trkpt><trkpt lat="44.7578619" lon="9.589496"><ele>438.0</ele><time>2026-03-27T16:13:26.648Z</time></trkpt><trkpt lat="44.7579719" lon="9.5894952"><ele>438.0</ele><time>2026-03-27T16:13:27.647Z</time></trkpt><trkpt lat="44.7580902" lon="9.5895414"><ele>438.0</ele><time>2026-03-27T16:13:28.647Z</time></trkpt><trkpt lat="44.7582219" lon="9.589631"><ele>438.0</ele><time>2026-03-27T16:13:29.646Z</time></trkpt><trkpt lat="44.7583596" lon="9.5897466"><ele>438.0</ele><time>2026-03-27T16:13:30.647Z</time></trkpt><trkpt lat="44.7584898" lon="9.5898801"><ele>440.25</ele><time>2026-03-27T16:13:31.653Z</time></trkpt><trkpt lat="44.7585989" lon="9.5900193"><ele>442.5</ele><time>2026-03-27T16:13:32.648Z</time></trkpt><trkpt lat="44.7587063" lon="9.5901522"><ele>444.75</ele><time>2026-03-27T16:13:33.647Z</time></trkpt><trkpt lat="44.7588253" lon="9.590257"><ele>447.0</ele><time>2026-03-27T16:13:34.647Z</time></trkpt><trkpt lat="44.7589483" lon="9.590335"><ele>445.25</ele><time>2026-03-27T16:13:35.648Z</time></trkpt><trkpt lat="44.7590567" lon="9.5904333"><ele>443.5</ele><time>2026-03-27T16:13:36.651Z</time></trkpt><trkpt lat="44.7591567" lon="9.590565"><ele>441.75</ele><time>2026-03-27T16:13:37.648Z</time></trkpt><trkpt lat="44.7592517" lon="9.590715"><ele>440.0</ele><time>2026-03-27T16:13:38.649Z</time></trkpt><trkpt lat="44.7593467" lon="9.59087"><ele>440.25</ele><time>2026-03-27T16:13:39.647Z</time></trkpt><trkpt lat="44.7594417" lon="9.59103"><ele>440.5</ele><time>2026-03-27T16:13:40.648Z</time></trkpt><trkpt lat="44.7595317" lon="9.5911917"><ele>440.75</ele><time>2026-03-27T16:13:41.648Z</time></trkpt><trkpt lat="44.7596217" lon="9.591345"><ele>441.0</ele><time>2026-03-27T16:13:42.648Z</time></trkpt><trkpt lat="44.7597167" lon="9.5914933"><ele>441.0</ele><time>2026-03-27T16:13:43.647Z</time></trkpt><trkpt lat="44.75982" lon="9.5916383"><ele>441.0</ele><time>2026-03-27T16:13:44.647Z</time></trkpt><trkpt lat="44.7599267" lon="9.5917883"><ele>441.0</ele><time>2026-03-27T16:13:45.648Z</time></trkpt><trkpt lat="44.7600383" lon="9.591945"><ele>440.66666666666663</ele><time>2026-03-27T16:13:46.647Z</time></trkpt><trkpt lat="44.76015" lon="9.592105"><ele>440.3333333333333</ele><time>2026-03-27T16:13:47.647Z</time></trkpt><trkpt lat="44.76026" lon="9.592265"><ele>440.0</ele><time>2026-03-27T16:13:48.647Z</time></trkpt><trkpt lat="44.7603717" lon="9.5924183"><ele>440.0</ele><time>2026-03-27T16:13:49.655Z</time></trkpt><trkpt lat="44.7604783" lon="9.5925633"><ele>440.0</ele><time>2026-03-27T16:13:50.648Z</time></trkpt><trkpt lat="44.76058" lon="9.5926983"><ele>440.0</ele><time>2026-03-27T16:13:51.647Z</time></trkpt><trkpt lat="44.760675" lon="9.5928283"><ele>440.0</ele><time>2026-03-27T16:13:52.652Z</time></trkpt><trkpt lat="44.76076" lon="9.59296"><ele>437.0</ele><time>2026-03-27T16:13:53.65Z</time></trkpt><trkpt lat="44.7608267" lon="9.5931067"><ele>434.0</ele><time>2026-03-27T16:13:54.648Z</time></trkpt><trkpt lat="44.7608667" lon="9.5932783"><ele>431.0</ele><time>2026-03-27T16:13:55.647Z</time></trkpt><trkpt lat="44.7608867" lon="9.5934733"><ele>428.0</ele><time>2026-03-27T16:13:56.65Z</time></trkpt><trkpt lat="44.7608983" lon="9.5936783"><ele>428.25</ele><time>2026-03-27T16:13:57.651Z</time></trkpt><trkpt lat="44.7609283" lon="9.5938667"><ele>428.5</ele><time>2026-03-27T16:13:58.647Z</time></trkpt><trkpt lat="44.7609867" lon="9.5940233"><ele>428.75</ele><time>2026-03-27T16:13:59.648Z</time></trkpt><trkpt lat="44.7610583" lon="9.59416"><ele>429.0</ele><time>2026-03-27T16:14:00.651Z</time></trkpt><trkpt lat="44.76114" lon="9.5942833"><ele>429.0</ele><time>2026-03-27T16:14:01.653Z</time></trkpt><trkpt lat="44.7612333" lon="9.5943883"><ele>429.0</ele><time>2026-03-27T16:14:02.649Z</time></trkpt><trkpt lat="44.761335" lon="9.594455"><ele>429.0</ele><time>2026-03-27T16:14:03.653Z</time></trkpt><trkpt lat="44.7614383" lon="9.5945133"><ele>429.0</ele><time>2026-03-27T16:14:04.649Z</time></trkpt><trkpt lat="44.7615383" lon="9.5945983"><ele>426.25</ele><time>2026-03-27T16:14:05.647Z</time></trkpt><trkpt lat="44.7616133" lon="9.59474"><ele>423.5</ele><time>2026-03-27T16:14:06.648Z</time></trkpt><trkpt lat="44.7616633" lon="9.5949183"><ele>420.75</ele><time>2026-03-27T16:14:07.649Z</time></trkpt><trkpt lat="44.76171" lon="9.5951117"><ele>418.0</ele><time>2026-03-27T16:14:08.647Z</time></trkpt><trkpt lat="44.7617667" lon="9.595305"><ele>415.75</ele><time>2026-03-27T16:14:09.651Z</time></trkpt><trkpt lat="44.7618333" lon="9.5954917"><ele>413.5</ele><time>2026-03-27T16:14:10.646Z</time></trkpt><trkpt lat="44.7619083" lon="9.595665"><ele>411.25</ele><time>2026-03-27T16:14:11.647Z</time></trkpt><trkpt lat="44.7619817" lon="9.5958267"><ele>409.0</ele><time>2026-03-27T16:14:12.647Z</time></trkpt><trkpt lat="44.76205" lon="9.59598"><ele>408.25</ele><time>2026-03-27T16:14:13.647Z</time></trkpt><trkpt lat="44.7621183" lon="9.596125"><ele>407.5</ele><time>2026-03-27T16:14:14.651Z</time></trkpt><trkpt lat="44.7622017" lon="9.5962517"><ele>406.75</ele><time>2026-03-27T16:14:15.648Z</time></trkpt><trkpt lat="44.76231" lon="9.5963567"><ele>406.0</ele><time>2026-03-27T16:14:16.649Z</time></trkpt><trkpt lat="44.76244" lon="9.5964267"><ele>406.0</ele><time>2026-03-27T16:14:17.648Z</time></trkpt><trkpt lat="44.762585" lon="9.5964833"><ele>406.0</ele><time>2026-03-27T16:14:18.648Z</time></trkpt><trkpt lat="44.7627367" lon="9.596545"><ele>406.0</ele><time>2026-03-27T16:14:19.647Z</time></trkpt><trkpt lat="44.7628733" lon="9.5966167"><ele>407.25</ele><time>2026-03-27T16:14:20.649Z</time></trkpt><trkpt lat="44.7629967" lon="9.5966883"><ele>408.5</ele><time>2026-03-27T16:14:21.652Z</time></trkpt><trkpt lat="44.7631167" lon="9.596775"><ele>409.75</ele><time>2026-03-27T16:14:22.647Z</time></trkpt><trkpt lat="44.763225" lon="9.596905"><ele>411.0</ele><time>2026-03-27T16:14:23.647Z</time></trkpt><trkpt lat="44.7633117" lon="9.5970683"><ele>407.75</ele><time>2026-03-27T16:14:24.651Z</time></trkpt><trkpt lat="44.76338" lon="9.59725"><ele>404.5</ele><time>2026-03-27T16:14:25.648Z</time></trkpt><trkpt lat="44.7634317" lon="9.59743"><ele>401.25</ele><time>2026-03-27T16:14:26.652Z</time></trkpt><trkpt lat="44.76346" lon="9.5976067"><ele>398.0</ele><time>2026-03-27T16:14:27.648Z</time></trkpt><trkpt lat="44.76347" lon="9.5977683"><ele>397.0</ele><time>2026-03-27T16:14:28.648Z</time></trkpt><trkpt lat="44.7634783" lon="9.5979167"><ele>396.0</ele><time>2026-03-27T16:14:29.648Z</time></trkpt><trkpt lat="44.7635" lon="9.59805"><ele>395.0</ele><time>2026-03-27T16:14:30.647Z</time></trkpt><trkpt lat="44.76355" lon="9.5981567"><ele>394.0</ele><time>2026-03-27T16:14:31.649Z</time></trkpt><trkpt lat="44.7636283" lon="9.598225"><ele>393.0</ele><time>2026-03-27T16:14:32.647Z</time></trkpt><trkpt lat="44.7637367" lon="9.5982567"><ele>393.0</ele><time>2026-03-27T16:14:33.648Z</time></trkpt><trkpt lat="44.7638733" lon="9.59827"><ele>393.0</ele><time>2026-03-27T16:14:34.648Z</time></trkpt><trkpt lat="44.7640283" lon="9.5982683"><ele>393.0</ele><time>2026-03-27T16:14:35.648Z</time></trkpt><trkpt lat="44.764195" lon="9.598245"><ele>392.66666666666663</ele><time>2026-03-27T16:14:36.647Z</time></trkpt><trkpt lat="44.7643683" lon="9.5982033"><ele>392.3333333333333</ele><time>2026-03-27T16:14:37.65Z</time></trkpt><trkpt lat="44.7645333" lon="9.5981583"><ele>392.0</ele><time>2026-03-27T16:14:38.649Z</time></trkpt><trkpt lat="44.7646983" lon="9.598135"><ele>392.0</ele><time>2026-03-27T16:14:39.648Z</time></trkpt><trkpt lat="44.76487" lon="9.5981333"><ele>392.0</ele><time>2026-03-27T16:14:40.65Z</time></trkpt><trkpt lat="44.76504" lon="9.598165"><ele>392.0</ele><time>2026-03-27T16:14:41.647Z</time></trkpt><trkpt lat="44.7652067" lon="9.598215"><ele>394.66666666666663</ele><time>2026-03-27T16:14:42.647Z</time></trkpt><trkpt lat="44.7653617" lon="9.5982833"><ele>397.33333333333337</ele><time>2026-03-27T16:14:43.649Z</time></trkpt><trkpt lat="44.7655083" lon="9.598365"><ele>400.0</ele><time>2026-03-27T16:14:44.648Z</time></trkpt><trkpt lat="44.7656533" lon="9.5984467"><ele>400.0</ele><time>2026-03-27T16:14:45.648Z</time></trkpt><trkpt lat="44.7657933" lon="9.5985333"><ele>400.0</ele><time>2026-03-27T16:14:46.648Z</time></trkpt><trkpt lat="44.76593" lon="9.598605"><ele>400.0</ele><time>2026-03-27T16:14:47.647Z</time></trkpt><trkpt lat="44.76607" lon="9.5986617"><ele>400.0</ele><time>2026-03-27T16:14:48.647Z</time></trkpt><trkpt lat="44.76621" lon="9.598715"><ele>398.0</ele><time>2026-03-27T16:14:49.647Z</time></trkpt><trkpt lat="44.76635" lon="9.5987733"><ele>396.0</ele><time>2026-03-27T16:14:50.65Z</time></trkpt><trkpt lat="44.7664867" lon="9.5988333"><ele>394.0</ele><time>2026-03-27T16:14:51.647Z</time></trkpt><trkpt lat="44.7666167" lon="9.598915"><ele>392.0</ele><time>2026-03-27T16:14:52.647Z</time></trkpt><trkpt lat="44.7667467" lon="9.59903"><ele>394.3333333333333</ele><time>2026-03-27T16:14:53.648Z</time></trkpt><trkpt lat="44.7668783" lon="9.599175"><ele>396.66666666666663</ele><time>2026-03-27T16:14:54.652Z</time></trkpt><trkpt lat="44.767015" lon="9.59933"><ele>399.0</ele><time>2026-03-27T16:14:55.649Z</time></trkpt><trkpt lat="44.7671533" lon="9.5994833"><ele>392.0</ele><time>2026-03-27T16:14:56.647Z</time></trkpt><trkpt lat="44.7672833" lon="9.599615"><ele>385.0</ele><time>2026-03-27T16:14:57.649Z</time></trkpt><trkpt lat="44.7674167" lon="9.5997133"><ele>378.0</ele><time>2026-03-27T16:14:58.647Z</time></trkpt><trkpt lat="44.7675667" lon="9.59977"><ele>379.3333333333333</ele><time>2026-03-27T16:14:59.647Z</time></trkpt><trkpt lat="44.767735" lon="9.5998033"><ele>380.66666666666663</ele><time>2026-03-27T16:15:00.647Z</time></trkpt><trkpt lat="44.7679117" lon="9.5998617"><ele>382.0</ele><time>2026-03-27T16:15:01.647Z</time></trkpt><trkpt lat="44.7680933" lon="9.5999417"><ele>382.0</ele><time>2026-03-27T16:15:02.647Z</time></trkpt><trkpt lat="44.7682717" lon="9.6000067"><ele>382.0</ele><time>2026-03-27T16:15:03.647Z</time></trkpt><trkpt lat="44.768445" lon="9.60004"><ele>382.0</ele><time>2026-03-27T16:15:04.648Z</time></trkpt><trkpt lat="44.76861" lon="9.60007"><ele>381.66666666666663</ele><time>2026-03-27T16:15:05.647Z</time></trkpt><trkpt lat="44.7687733" lon="9.6001267"><ele>381.3333333333333</ele><time>2026-03-27T16:15:06.648Z</time></trkpt><trkpt lat="44.76893" lon="9.6002067"><ele>381.0</ele><time>2026-03-27T16:15:07.648Z</time></trkpt><trkpt lat="44.7690667" lon="9.600295"><ele>379.5</ele><time>2026-03-27T16:15:08.647Z</time></trkpt><trkpt lat="44.769195" lon="9.6003767"><ele>378.0</ele><time>2026-03-27T16:15:09.646Z</time></trkpt><trkpt lat="44.7693183" lon="9.60045"><ele>376.5</ele><time>2026-03-27T16:15:10.647Z</time></trkpt><trkpt lat="44.7694383" lon="9.600525"><ele>375.0</ele><time>2026-03-27T16:15:11.647Z</time></trkpt><trkpt lat="44.76954" lon="9.60061"><ele>375.0</ele><time>2026-03-27T16:15:12.647Z</time></trkpt><trkpt lat="44.7696217" lon="9.600735"><ele>375.0</ele><time>2026-03-27T16:15:13.647Z</time></trkpt><trkpt lat="44.7696917" lon="9.6008983"><ele>375.0</ele><time>2026-03-27T16:15:14.647Z</time></trkpt><trkpt lat="44.7697533" lon="9.60107"><ele>375.0</ele><time>2026-03-27T16:15:15.648Z</time></trkpt><trkpt lat="44.76981" lon="9.6012433"><ele>373.5</ele><time>2026-03-27T16:15:16.653Z</time></trkpt><trkpt lat="44.7698617" lon="9.6014283"><ele>372.0</ele><time>2026-03-27T16:15:17.647Z</time></trkpt><trkpt lat="44.7698983" lon="9.6016117"><ele>370.5</ele><time>2026-03-27T16:15:18.65Z</time></trkpt><trkpt lat="44.7699283" lon="9.6017817"><ele>369.0</ele><time>2026-03-27T16:15:19.648Z</time></trkpt><trkpt lat="44.7699533" lon="9.60195"><ele>367.0</ele><time>2026-03-27T16:15:20.649Z</time></trkpt><trkpt lat="44.7700267" lon="9.6020633"><ele>365.0</ele><time>2026-03-27T16:15:21.652Z</time></trkpt><trkpt lat="44.7701067" lon="9.6021567"><ele>363.0</ele><time>2026-03-27T16:15:22.649Z</time></trkpt><trkpt lat="44.770215" lon="9.6022217"><ele>361.0</ele><time>2026-03-27T16:15:23.652Z</time></trkpt><trkpt lat="44.77034" lon="9.6022683"><ele>361.0</ele><time>2026-03-27T16:15:24.648Z</time></trkpt><trkpt lat="44.7704667" lon="9.6022917"><ele>361.0</ele><time>2026-03-27T16:15:25.648Z</time></trkpt><trkpt lat="44.7705917" lon="9.60226"><ele>361.0</ele><time>2026-03-27T16:15:26.648Z</time></trkpt><trkpt lat="44.7707" lon="9.6021917"><ele>361.0</ele><time>2026-03-27T16:15:27.648Z</time></trkpt><trkpt lat="44.7707917" lon="9.6021083"><ele>361.0</ele><time>2026-03-27T16:15:28.649Z</time></trkpt><trkpt lat="44.770895" lon="9.602075"><ele>361.0</ele><time>2026-03-27T16:15:29.646Z</time></trkpt><trkpt lat="44.7709967" lon="9.6021067"><ele>361.0</ele><time>2026-03-27T16:15:30.649Z</time></trkpt><trkpt lat="44.77109" lon="9.6022167"><ele>361.0</ele><time>2026-03-27T16:15:31.648Z</time></trkpt><trkpt lat="44.7711667" lon="9.6023567"><ele>360.4</ele><time>2026-03-27T16:15:32.647Z</time></trkpt><trkpt lat="44.77123" lon="9.6025"><ele>359.8</ele><time>2026-03-27T16:15:33.648Z</time></trkpt><trkpt lat="44.771285" lon="9.60262"><ele>359.2</ele><time>2026-03-27T16:15:34.647Z</time></trkpt><trkpt lat="44.7713483" lon="9.6027217"><ele>358.59999999999997</ele><time>2026-03-27T16:15:35.646Z</time></trkpt><trkpt lat="44.771435" lon="9.6027967"><ele>358.0</ele><time>2026-03-27T16:15:36.648Z</time></trkpt><trkpt lat="44.7715467" lon="9.602835"><ele>355.25</ele><time>2026-03-27T16:15:37.646Z</time></trkpt><trkpt lat="44.7716717" lon="9.60286"><ele>352.5</ele><time>2026-03-27T16:15:38.648Z</time></trkpt><trkpt lat="44.77181" lon="9.602885"><ele>349.75</ele><time>2026-03-27T16:15:39.646Z</time></trkpt><trkpt lat="44.7719467" lon="9.6029267"><ele>347.0</ele><time>2026-03-27T16:15:40.649Z</time></trkpt><trkpt lat="44.772075" lon="9.6029883"><ele>347.0</ele><time>2026-03-27T16:15:41.648Z</time></trkpt><trkpt lat="44.7721933" lon="9.6030717"><ele>347.0</ele><time>2026-03-27T16:15:42.648Z</time></trkpt><trkpt lat="44.772285" lon="9.60319"><ele>347.0</ele><time>2026-03-27T16:15:43.649Z</time></trkpt><trkpt lat="44.7723467" lon="9.6033533"><ele>347.0</ele><time>2026-03-27T16:15:44.648Z</time></trkpt><trkpt lat="44.7723783" lon="9.60354"><ele>345.25</ele><time>2026-03-27T16:15:45.647Z</time></trkpt><trkpt lat="44.7723867" lon="9.603725"><ele>343.5</ele><time>2026-03-27T16:15:46.646Z</time></trkpt><trkpt lat="44.7724" lon="9.603895"><ele>341.75</ele><time>2026-03-27T16:15:47.646Z</time></trkpt><trkpt lat="44.772435" lon="9.6040533"><ele>340.0</ele><time>2026-03-27T16:15:48.648Z</time></trkpt><trkpt lat="44.7725133" lon="9.6042083"><ele>340.0</ele><time>2026-03-27T16:15:49.649Z</time></trkpt><trkpt lat="44.7726217" lon="9.6043317"><ele>340.0</ele><time>2026-03-27T16:15:50.648Z</time></trkpt><trkpt lat="44.7727467" lon="9.6044267"><ele>340.0</ele><time>2026-03-27T16:15:51.646Z</time></trkpt><trkpt lat="44.7728717" lon="9.6045067"><ele>340.0</ele><time>2026-03-27T16:15:52.648Z</time></trkpt><trkpt lat="44.7729883" lon="9.604575"><ele>338.0</ele><time>2026-03-27T16:15:53.648Z</time></trkpt><trkpt lat="44.773105" lon="9.6046367"><ele>336.0</ele><time>2026-03-27T16:15:54.648Z</time></trkpt><trkpt lat="44.7732217" lon="9.6046983"><ele>334.0</ele><time>2026-03-27T16:15:55.647Z</time></trkpt><trkpt lat="44.77334" lon="9.6047583"><ele>332.0</ele><time>2026-03-27T16:15:56.65Z</time></trkpt><trkpt lat="44.7734583" lon="9.6048117"><ele>331.5</ele><time>2026-03-27T16:15:57.649Z</time></trkpt><trkpt lat="44.7735767" lon="9.60487"><ele>331.0</ele><time>2026-03-27T16:15:58.647Z</time></trkpt><trkpt lat="44.7736967" lon="9.6049433"><ele>330.5</ele><time>2026-03-27T16:15:59.65Z</time></trkpt><trkpt lat="44.77381" lon="9.6050083"><ele>330.0</ele><time>2026-03-27T16:16:00.646Z</time></trkpt><trkpt lat="44.7739217" lon="9.6050633"><ele>330.0</ele><time>2026-03-27T16:16:01.646Z</time></trkpt><trkpt lat="44.774035" lon="9.6051117"><ele>330.0</ele><time>2026-03-27T16:16:02.646Z</time></trkpt><trkpt lat="44.77415" lon="9.605155"><ele>330.0</ele><time>2026-03-27T16:16:03.646Z</time></trkpt><trkpt lat="44.7742717" lon="9.60519"><ele>330.0</ele><time>2026-03-27T16:16:04.646Z</time></trkpt><trkpt lat="44.7743967" lon="9.60523"><ele>329.5</ele><time>2026-03-27T16:16:05.648Z</time></trkpt><trkpt lat="44.7745267" lon="9.60527"><ele>329.0</ele><time>2026-03-27T16:16:06.649Z</time></trkpt><trkpt lat="44.7746617" lon="9.6053067"><ele>328.5</ele><time>2026-03-27T16:16:07.647Z</time></trkpt><trkpt lat="44.774795" lon="9.60535"><ele>328.0</ele><time>2026-03-27T16:16:08.646Z</time></trkpt><trkpt lat="44.7749333" lon="9.6053817"><ele>327.75</ele><time>2026-03-27T16:16:09.648Z</time></trkpt><trkpt lat="44.775075" lon="9.605415"><ele>327.5</ele><time>2026-03-27T16:16:10.646Z</time></trkpt><trkpt lat="44.775215" lon="9.60545"><ele>327.25</ele><time>2026-03-27T16:16:11.646Z</time></trkpt><trkpt lat="44.77535" lon="9.60548"><ele>327.0</ele><time>2026-03-27T16:16:12.646Z</time></trkpt><trkpt lat="44.7754733" lon="9.605505"><ele>327.0</ele><time>2026-03-27T16:16:13.647Z</time></trkpt><trkpt lat="44.7755917" lon="9.6055267"><ele>327.0</ele><time>2026-03-27T16:16:14.65Z</time></trkpt><trkpt lat="44.7757017" lon="9.6055367"><ele>327.0</ele><time>2026-03-27T16:16:15.648Z</time></trkpt><trkpt lat="44.7758033" lon="9.6055467"><ele>327.0</ele><time>2026-03-27T16:16:16.646Z</time></trkpt><trkpt lat="44.7759017" lon="9.6055533"><ele>327.0</ele><time>2026-03-27T16:16:17.646Z</time></trkpt><trkpt lat="44.7759967" lon="9.6055617"><ele>326.6</ele><time>2026-03-27T16:16:18.647Z</time></trkpt><trkpt lat="44.7760867" lon="9.605565"><ele>326.20000000000005</ele><time>2026-03-27T16:16:19.648Z</time></trkpt><trkpt lat="44.7761617" lon="9.6055667"><ele>325.8</ele><time>2026-03-27T16:16:20.647Z</time></trkpt><trkpt lat="44.776265" lon="9.6056183"><ele>325.4</ele><time>2026-03-27T16:16:22.647Z</time></trkpt><trkpt lat="44.7763017" lon="9.6057283"><ele>325.0</ele><time>2026-03-27T16:16:24.647Z</time></trkpt><trkpt lat="44.7762933" lon="9.6059017"><ele>325.0</ele><time>2026-03-27T16:16:26.647Z</time></trkpt><trkpt lat="44.7762833" lon="9.60601"><ele>325.0</ele><time>2026-03-27T16:16:27.647Z</time></trkpt><trkpt lat="44.776275" lon="9.60612"><ele>325.0</ele><time>2026-03-27T16:16:28.647Z</time></trkpt><trkpt lat="44.7762667" lon="9.6062217"><ele>325.0</ele><time>2026-03-27T16:16:29.647Z</time></trkpt><trkpt lat="44.77626" lon="9.606315"><ele>325.0</ele><time>2026-03-27T16:16:30.646Z</time></trkpt><trkpt lat="44.7762467" lon="9.606485"><ele>325.0</ele><time>2026-03-27T16:16:32.649Z</time></trkpt><trkpt lat="44.77624" lon="9.60665"><ele>325.0</ele><time>2026-03-27T16:16:34.651Z</time></trkpt><trkpt lat="44.7762317" lon="9.6068083"><ele>325.0</ele><time>2026-03-27T16:16:36.648Z</time></trkpt><trkpt lat="44.7762283" lon="9.606935"><ele>325.0</ele><time>2026-03-27T16:16:38.648Z</time></trkpt><trkpt lat="44.7762467" lon="9.6070283"><ele>325.0</ele><time>2026-03-27T16:16:40.651Z</time></trkpt><trkpt lat="44.7763067" lon="9.6070967"><ele>325.0</ele><time>2026-03-27T16:16:42.648Z</time></trkpt><trkpt lat="44.7764067" lon="9.60717"><ele>325.66666666666663</ele><time>2026-03-27T16:16:44.651Z</time></trkpt><trkpt lat="44.7765" lon="9.6072167"><ele>326.3333333333333</ele><time>2026-03-27T16:16:46.646Z</time></trkpt><trkpt lat="44.7765717" lon="9.6072567"><ele>327.0</ele><time>2026-03-27T16:16:48.65Z</time></trkpt><trkpt lat="44.7766483" lon="9.6073117"><ele>327.6666666666667</ele><time>2026-03-27T16:16:50.648Z</time></trkpt><trkpt lat="44.776725" lon="9.6073667"><ele>328.33333333333337</ele><time>2026-03-27T16:16:52.647Z</time></trkpt><trkpt lat="44.7767917" lon="9.607415"><ele>329.0</ele><time>2026-03-27T16:16:54.648Z</time></trkpt><trkpt lat="44.77685" lon="9.607455"><ele>328.83333333333337</ele><time>2026-03-27T16:16:57.646Z</time></trkpt><trkpt lat="44.7769367" lon="9.6075033"><ele>328.6666666666667</ele><time>2026-03-27T16:17:01.647Z</time></trkpt><trkpt lat="44.7770267" lon="9.6075317"><ele>328.5</ele><time>2026-03-27T16:17:03.647Z</time></trkpt><trkpt lat="44.777095" lon="9.6075617"><ele>328.3333333333333</ele><time>2026-03-27T16:17:04.647Z</time></trkpt><trkpt lat="44.7771667" lon="9.6076017"><ele>328.16666666666663</ele><time>2026-03-27T16:17:05.647Z</time></trkpt><trkpt lat="44.7772517" lon="9.6076517"><ele>328.0</ele><time>2026-03-27T16:17:06.647Z</time></trkpt><trkpt lat="44.77734" lon="9.6077033"><ele>328.0</ele><time>2026-03-27T16:17:07.646Z</time></trkpt><trkpt lat="44.7774417" lon="9.6077433"><ele>328.0</ele><time>2026-03-27T16:17:08.647Z</time></trkpt><trkpt lat="44.7775233" lon="9.6077883"><ele>328.0</ele><time>2026-03-27T16:17:09.648Z</time></trkpt><trkpt lat="44.7775983" lon="9.6078317"><ele>328.0</ele><time>2026-03-27T16:17:10.647Z</time></trkpt><trkpt lat="44.7776783" lon="9.6078817"><ele>328.0</ele><time>2026-03-27T16:17:11.649Z</time></trkpt><trkpt lat="44.777775" lon="9.6079517"><ele>328.0</ele><time>2026-03-27T16:17:12.647Z</time></trkpt><trkpt lat="44.7778783" lon="9.6080167"><ele>328.0</ele><time>2026-03-27T16:17:13.646Z</time></trkpt><trkpt lat="44.777985" lon="9.6080917"><ele>328.0</ele><time>2026-03-27T16:17:14.651Z</time></trkpt><trkpt lat="44.778095" lon="9.608155"><ele>328.0</ele><time>2026-03-27T16:17:15.648Z</time></trkpt><trkpt lat="44.7782033" lon="9.608215"><ele>328.0</ele><time>2026-03-27T16:17:16.648Z</time></trkpt><trkpt lat="44.778295" lon="9.6082817"><ele>328.0</ele><time>2026-03-27T16:17:17.647Z</time></trkpt><trkpt lat="44.7783767" lon="9.6083333"><ele>328.0</ele><time>2026-03-27T16:17:18.649Z</time></trkpt><trkpt lat="44.778455" lon="9.60838"><ele>328.0</ele><time>2026-03-27T16:17:19.646Z</time></trkpt><trkpt lat="44.77853" lon="9.608425"><ele>328.0</ele><time>2026-03-27T16:17:20.649Z</time></trkpt><trkpt lat="44.7786017" lon="9.6084733"><ele>328.0</ele><time>2026-03-27T16:17:21.649Z</time></trkpt><trkpt lat="44.778675" lon="9.608515"><ele>327.5</ele><time>2026-03-27T16:17:22.65Z</time></trkpt><trkpt lat="44.7787567" lon="9.6085567"><ele>327.0</ele><time>2026-03-27T16:17:23.649Z</time></trkpt><trkpt lat="44.7788458" lon="9.6086025"><ele>326.5</ele><time>2026-03-27T16:17:24.646Z</time></trkpt><trkpt lat="44.7789324" lon="9.6086514"><ele>326.0</ele><time>2026-03-27T16:17:25.647Z</time></trkpt><trkpt lat="44.7790046" lon="9.6086929"><ele>325.5</ele><time>2026-03-27T16:17:26.649Z</time></trkpt><trkpt lat="44.7790678" lon="9.6087283"><ele>325.0</ele><time>2026-03-27T16:17:27.647Z</time></trkpt><trkpt lat="44.7791668" lon="9.6087886"><ele>325.0</ele><time>2026-03-27T16:17:29.646Z</time></trkpt><trkpt lat="44.7792354" lon="9.6088378"><ele>325.0</ele><time>2026-03-27T16:17:31.647Z</time></trkpt><trkpt lat="44.7792935" lon="9.6088941"><ele>325.0</ele><time>2026-03-27T16:17:34.646Z</time></trkpt><trkpt lat="44.7794064" lon="9.6089404"><ele>325.0</ele><time>2026-03-27T16:21:38.647Z</time></trkpt><trkpt lat="44.779497" lon="9.6089758"><ele>325.0</ele><time>2026-03-27T16:21:39.648Z</time></trkpt><trkpt lat="44.7796155" lon="9.6090369"><ele>325.3333333333333</ele><time>2026-03-27T16:21:40.647Z</time></trkpt><trkpt lat="44.7797682" lon="9.6091312"><ele>325.6666666666667</ele><time>2026-03-27T16:21:41.648Z</time></trkpt><trkpt lat="44.7799234" lon="9.6092334"><ele>326.0</ele><time>2026-03-27T16:21:42.647Z</time></trkpt><trkpt lat="44.7800808" lon="9.6093305"><ele>325.6666666666667</ele><time>2026-03-27T16:21:43.647Z</time></trkpt><trkpt lat="44.7802349" lon="9.609418"><ele>325.3333333333333</ele><time>2026-03-27T16:21:44.647Z</time></trkpt><trkpt lat="44.78038" lon="9.6094965"><ele>325.0</ele><time>2026-03-27T16:21:45.646Z</time></trkpt><trkpt lat="44.7805148" lon="9.6095727"><ele>325.0</ele><time>2026-03-27T16:21:46.647Z</time></trkpt><trkpt lat="44.7806416" lon="9.6096409"><ele>325.0</ele><time>2026-03-27T16:21:47.65Z</time></trkpt><trkpt lat="44.7807664" lon="9.6097083"><ele>325.0</ele><time>2026-03-27T16:21:48.648Z</time></trkpt><trkpt lat="44.78089" lon="9.609785"><ele>325.0</ele><time>2026-03-27T16:21:49.647Z</time></trkpt><trkpt lat="44.7810117" lon="9.6098583"><ele>325.0</ele><time>2026-03-27T16:21:50.648Z</time></trkpt><trkpt lat="44.7811383" lon="9.6099383"><ele>325.0</ele><time>2026-03-27T16:21:51.648Z</time></trkpt><trkpt lat="44.7812733" lon="9.6100183"><ele>325.0</ele><time>2026-03-27T16:21:52.649Z</time></trkpt><trkpt lat="44.7814133" lon="9.6101017"><ele>325.0</ele><time>2026-03-27T16:21:53.647Z</time></trkpt><trkpt lat="44.78155" lon="9.610185"><ele>325.0</ele><time>2026-03-27T16:21:54.647Z</time></trkpt><trkpt lat="44.781675" lon="9.6102667"><ele>325.0</ele><time>2026-03-27T16:21:55.647Z</time></trkpt><trkpt lat="44.7818033" lon="9.61034"><ele>325.0</ele><time>2026-03-27T16:21:56.647Z</time></trkpt><trkpt lat="44.7819383" lon="9.6103983"><ele>325.0</ele><time>2026-03-27T16:21:57.648Z</time></trkpt><trkpt lat="44.782085" lon="9.6104183"><ele>325.3333333333333</ele><time>2026-03-27T16:21:58.649Z</time></trkpt><trkpt lat="44.7822467" lon="9.610395"><ele>325.6666666666667</ele><time>2026-03-27T16:21:59.647Z</time></trkpt><trkpt lat="44.7824067" lon="9.610315"><ele>326.0</ele><time>2026-03-27T16:22:00.651Z</time></trkpt><trkpt lat="44.782565" lon="9.6101817"><ele>325.33333333333337</ele><time>2026-03-27T16:22:01.647Z</time></trkpt><trkpt lat="44.7827133" lon="9.61001"><ele>324.6666666666667</ele><time>2026-03-27T16:22:02.649Z</time></trkpt><trkpt lat="44.7828583" lon="9.60983"><ele>324.0</ele><time>2026-03-27T16:22:03.647Z</time></trkpt><trkpt lat="44.7830083" lon="9.609655"><ele>324.0</ele><time>2026-03-27T16:22:04.648Z</time></trkpt><trkpt lat="44.7831633" lon="9.609495"><ele>324.0</ele><time>2026-03-27T16:22:05.647Z</time></trkpt><trkpt lat="44.7833267" lon="9.60935"><ele>324.0</ele><time>2026-03-27T16:22:06.647Z</time></trkpt><trkpt lat="44.7834967" lon="9.6092233"><ele>321.0</ele><time>2026-03-27T16:22:07.649Z</time></trkpt><trkpt lat="44.78368" lon="9.6091167"><ele>318.0</ele><time>2026-03-27T16:22:08.647Z</time></trkpt><trkpt lat="44.783875" lon="9.6090217"><ele>315.0</ele><time>2026-03-27T16:22:09.65Z</time></trkpt><trkpt lat="44.7840767" lon="9.6089433"><ele>315.0</ele><time>2026-03-27T16:22:10.648Z</time></trkpt><trkpt lat="44.7842867" lon="9.608885"><ele>315.0</ele><time>2026-03-27T16:22:11.647Z</time></trkpt><trkpt lat="44.784505" lon="9.6088367"><ele>315.0</ele><time>2026-03-27T16:22:12.647Z</time></trkpt><trkpt lat="44.78473" lon="9.6087883"><ele>315.5</ele><time>2026-03-27T16:22:13.646Z</time></trkpt><trkpt lat="44.7849617" lon="9.6087383"><ele>316.0</ele><time>2026-03-27T16:22:14.648Z</time></trkpt><trkpt lat="44.7851967" lon="9.6086833"><ele>314.5</ele><time>2026-03-27T16:22:15.65Z</time></trkpt><trkpt lat="44.7854367" lon="9.6086267"><ele>313.0</ele><time>2026-03-27T16:22:16.649Z</time></trkpt><trkpt lat="44.7856767" lon="9.60857"><ele>313.0</ele><time>2026-03-27T16:22:17.647Z</time></trkpt><trkpt lat="44.7859067" lon="9.6085133"><ele>313.0</ele><time>2026-03-27T16:22:18.648Z</time></trkpt><trkpt lat="44.7861333" lon="9.6084567"><ele>313.0</ele><time>2026-03-27T16:22:19.647Z</time></trkpt><trkpt lat="44.7863583" lon="9.6084017"><ele>313.0</ele><time>2026-03-27T16:22:20.65Z</time></trkpt><trkpt lat="44.786585" lon="9.6083467"><ele>313.0</ele><time>2026-03-27T16:22:21.648Z</time></trkpt><trkpt lat="44.7868117" lon="9.6082917"><ele>313.0</ele><time>2026-03-27T16:22:22.647Z</time></trkpt><trkpt lat="44.78704" lon="9.60823"><ele>310.5</ele><time>2026-03-27T16:22:23.649Z</time></trkpt><trkpt lat="44.7872667" lon="9.6081717"><ele>308.0</ele><time>2026-03-27T16:22:24.647Z</time></trkpt><trkpt lat="44.787495" lon="9.60811"><ele>309.5</ele><time>2026-03-27T16:22:25.647Z</time></trkpt><trkpt lat="44.7877217" lon="9.60805"><ele>311.0</ele><time>2026-03-27T16:22:26.648Z</time></trkpt><trkpt lat="44.7879467" lon="9.6079917"><ele>311.0</ele><time>2026-03-27T16:22:27.647Z</time></trkpt><trkpt lat="44.7881733" lon="9.607935"><ele>311.0</ele><time>2026-03-27T16:22:28.65Z</time></trkpt><trkpt lat="44.7884083" lon="9.6078733"><ele>309.5</ele><time>2026-03-27T16:22:29.647Z</time></trkpt><trkpt lat="44.7886367" lon="9.607815"><ele>308.0</ele><time>2026-03-27T16:22:30.647Z</time></trkpt><trkpt lat="44.788865" lon="9.607765"><ele>308.0</ele><time>2026-03-27T16:22:31.649Z</time></trkpt><trkpt lat="44.7890967" lon="9.6077133"><ele>308.0</ele><time>2026-03-27T16:22:32.651Z</time></trkpt><trkpt lat="44.78933" lon="9.6076517"><ele>308.5</ele><time>2026-03-27T16:22:33.65Z</time></trkpt><trkpt lat="44.7895617" lon="9.60759"><ele>309.0</ele><time>2026-03-27T16:22:34.65Z</time></trkpt><trkpt lat="44.78979" lon="9.60753"><ele>309.0</ele><time>2026-03-27T16:22:35.651Z</time></trkpt><trkpt lat="44.790015" lon="9.6074733"><ele>309.0</ele><time>2026-03-27T16:22:36.649Z</time></trkpt><trkpt lat="44.7902433" lon="9.6074167"><ele>309.0</ele><time>2026-03-27T16:22:37.649Z</time></trkpt><trkpt lat="44.79047" lon="9.60736"><ele>309.0</ele><time>2026-03-27T16:22:38.65Z</time></trkpt><trkpt lat="44.7906967" lon="9.6072983"><ele>309.0</ele><time>2026-03-27T16:22:39.648Z</time></trkpt><trkpt lat="44.790925" lon="9.6072383"><ele>309.0</ele><time>2026-03-27T16:22:40.649Z</time></trkpt><trkpt lat="44.7911433" lon="9.607175"><ele>309.0</ele><time>2026-03-27T16:22:41.649Z</time></trkpt><trkpt lat="44.7913617" lon="9.6071067"><ele>309.0</ele><time>2026-03-27T16:22:42.648Z</time></trkpt><trkpt lat="44.7915817" lon="9.607035"><ele>308.5</ele><time>2026-03-27T16:22:43.65Z</time></trkpt><trkpt lat="44.79181" lon="9.6069583"><ele>308.0</ele><time>2026-03-27T16:22:44.649Z</time></trkpt><trkpt lat="44.7920417" lon="9.60688"><ele>308.0</ele><time>2026-03-27T16:22:45.647Z</time></trkpt><trkpt lat="44.7922783" lon="9.6067967"><ele>308.0</ele><time>2026-03-27T16:22:46.647Z</time></trkpt><trkpt lat="44.792515" lon="9.60671"><ele>312.0</ele><time>2026-03-27T16:22:47.647Z</time></trkpt><trkpt lat="44.792755" lon="9.606615"><ele>316.0</ele><time>2026-03-27T16:22:48.647Z</time></trkpt><trkpt lat="44.7930017" lon="9.6065133"><ele>316.0</ele><time>2026-03-27T16:22:49.648Z</time></trkpt><trkpt lat="44.793255" lon="9.606415"><ele>316.0</ele><time>2026-03-27T16:22:50.649Z</time></trkpt><trkpt lat="44.7935233" lon="9.606325"><ele>318.0</ele><time>2026-03-27T16:22:51.648Z</time></trkpt><trkpt lat="44.7937983" lon="9.6062717"><ele>320.0</ele><time>2026-03-27T16:22:52.646Z</time></trkpt><trkpt lat="44.79408" lon="9.6062483"><ele>321.5</ele><time>2026-03-27T16:22:53.651Z</time></trkpt><trkpt lat="44.7943667" lon="9.60626"><ele>323.0</ele><time>2026-03-27T16:22:54.646Z</time></trkpt><trkpt lat="44.794655" lon="9.6062933"><ele>323.0</ele><time>2026-03-27T16:22:55.647Z</time></trkpt><trkpt lat="44.79494" lon="9.6063633"><ele>323.0</ele><time>2026-03-27T16:22:56.646Z</time></trkpt><trkpt lat="44.79521" lon="9.6064783"><ele>320.0</ele><time>2026-03-27T16:22:57.647Z</time></trkpt><trkpt lat="44.795465" lon="9.6066267"><ele>317.0</ele><time>2026-03-27T16:22:58.648Z</time></trkpt><trkpt lat="44.7957167" lon="9.6068017"><ele>317.0</ele><time>2026-03-27T16:22:59.647Z</time></trkpt><trkpt lat="44.7959617" lon="9.6069867"><ele>317.0</ele><time>2026-03-27T16:23:00.646Z</time></trkpt><trkpt lat="44.7962033" lon="9.6071717"><ele>313.5</ele><time>2026-03-27T16:23:01.647Z</time></trkpt><trkpt lat="44.7964417" lon="9.6073567"><ele>310.0</ele><time>2026-03-27T16:23:02.647Z</time></trkpt><trkpt lat="44.7966817" lon="9.607525"><ele>307.5</ele><time>2026-03-27T16:23:03.648Z</time></trkpt><trkpt lat="44.79693" lon="9.60766"><ele>305.0</ele><time>2026-03-27T16:23:04.647Z</time></trkpt><trkpt lat="44.797185" lon="9.6077567"><ele>305.0</ele><time>2026-03-27T16:23:05.647Z</time></trkpt><trkpt lat="44.79745" lon="9.6078233"><ele>305.0</ele><time>2026-03-27T16:23:06.647Z</time></trkpt><trkpt lat="44.7977167" lon="9.6078483"><ele>305.5</ele><time>2026-03-27T16:23:07.648Z</time></trkpt><trkpt lat="44.7979817" lon="9.607835"><ele>306.0</ele><time>2026-03-27T16:23:08.647Z</time></trkpt><trkpt lat="44.7982467" lon="9.6078"><ele>306.0</ele><time>2026-03-27T16:23:09.646Z</time></trkpt><trkpt lat="44.7985083" lon="9.607755"><ele>306.0</ele><time>2026-03-27T16:23:10.646Z</time></trkpt><trkpt lat="44.7987733" lon="9.6077133"><ele>306.0</ele><time>2026-03-27T16:23:11.647Z</time></trkpt><trkpt lat="44.799035" lon="9.607695"><ele>306.0</ele><time>2026-03-27T16:23:12.649Z</time></trkpt><trkpt lat="44.7992917" lon="9.6077067"><ele>304.5</ele><time>2026-03-27T16:23:13.646Z</time></trkpt><trkpt lat="44.7995433" lon="9.6077483"><ele>303.0</ele><time>2026-03-27T16:23:14.647Z</time></trkpt><trkpt lat="44.79979" lon="9.607815"><ele>302.5</ele><time>2026-03-27T16:23:15.651Z</time></trkpt><trkpt lat="44.8000283" lon="9.6079133"><ele>302.0</ele><time>2026-03-27T16:23:16.646Z</time></trkpt><trkpt lat="44.800265" lon="9.6080483"><ele>302.0</ele><time>2026-03-27T16:23:17.652Z</time></trkpt><trkpt lat="44.8004933" lon="9.6082033"><ele>302.0</ele><time>2026-03-27T16:23:18.646Z</time></trkpt><trkpt lat="44.8007167" lon="9.6083833"><ele>302.0</ele><time>2026-03-27T16:23:19.649Z</time></trkpt><trkpt lat="44.800935" lon="9.6085783"><ele>302.0</ele><time>2026-03-27T16:23:20.649Z</time></trkpt><trkpt lat="44.8011467" lon="9.6087967"><ele>298.0</ele><time>2026-03-27T16:23:21.647Z</time></trkpt><trkpt lat="44.8013367" lon="9.60904"><ele>294.0</ele><time>2026-03-27T16:23:22.646Z</time></trkpt><trkpt lat="44.8015167" lon="9.6093067"><ele>291.5</ele><time>2026-03-27T16:23:23.646Z</time></trkpt><trkpt lat="44.8016883" lon="9.6095867"><ele>289.0</ele><time>2026-03-27T16:23:24.648Z</time></trkpt><trkpt lat="44.8018533" lon="9.60988"><ele>289.0</ele><time>2026-03-27T16:23:25.647Z</time></trkpt><trkpt lat="44.8020133" lon="9.61017"><ele>289.0</ele><time>2026-03-27T16:23:26.647Z</time></trkpt><trkpt lat="44.802175" lon="9.6104667"><ele>291.0</ele><time>2026-03-27T16:23:27.647Z</time></trkpt><trkpt lat="44.80234" lon="9.610765"><ele>293.0</ele><time>2026-03-27T16:23:28.646Z</time></trkpt><trkpt lat="44.802505" lon="9.6110567"><ele>291.5</ele><time>2026-03-27T16:23:29.652Z</time></trkpt><trkpt lat="44.802675" lon="9.6113417"><ele>290.0</ele><time>2026-03-27T16:23:30.648Z</time></trkpt><trkpt lat="44.80286" lon="9.6116183"><ele>290.0</ele><time>2026-03-27T16:23:31.647Z</time></trkpt><trkpt lat="44.803055" lon="9.6118767"><ele>290.0</ele><time>2026-03-27T16:23:32.649Z</time></trkpt><trkpt lat="44.80326" lon="9.6121117"><ele>289.5</ele><time>2026-03-27T16:23:33.648Z</time></trkpt><trkpt lat="44.8034767" lon="9.6123267"><ele>289.0</ele><time>2026-03-27T16:23:34.647Z</time></trkpt><trkpt lat="44.8037017" lon="9.6125267"><ele>289.0</ele><time>2026-03-27T16:23:35.65Z</time></trkpt><trkpt lat="44.803935" lon="9.6127133"><ele>289.0</ele><time>2026-03-27T16:23:36.648Z</time></trkpt><trkpt lat="44.8041767" lon="9.61288"><ele>290.0</ele><time>2026-03-27T16:23:37.649Z</time></trkpt><trkpt lat="44.8044267" lon="9.6130217"><ele>291.0</ele><time>2026-03-27T16:23:38.649Z</time></trkpt><trkpt lat="44.804665" lon="9.6131283"><ele>291.0</ele><time>2026-03-27T16:23:39.648Z</time></trkpt><trkpt lat="44.804885" lon="9.6132083"><ele>291.0</ele><time>2026-03-27T16:23:40.648Z</time></trkpt><trkpt lat="44.8050917" lon="9.6132817"><ele>291.0</ele><time>2026-03-27T16:23:41.649Z</time></trkpt><trkpt lat="44.805285" lon="9.61335"><ele>289.6666666666667</ele><time>2026-03-27T16:23:42.648Z</time></trkpt><trkpt lat="44.8054717" lon="9.6134"><ele>288.33333333333337</ele><time>2026-03-27T16:23:43.646Z</time></trkpt><trkpt lat="44.8056517" lon="9.6134517"><ele>287.0</ele><time>2026-03-27T16:23:44.649Z</time></trkpt><trkpt lat="44.80584" lon="9.6135033"><ele>286.6666666666667</ele><time>2026-03-27T16:23:45.646Z</time></trkpt><trkpt lat="44.8060333" lon="9.61355"><ele>286.3333333333333</ele><time>2026-03-27T16:23:46.648Z</time></trkpt><trkpt lat="44.8062333" lon="9.6136017"><ele>286.0</ele><time>2026-03-27T16:23:47.647Z</time></trkpt><trkpt lat="44.8064367" lon="9.6136517"><ele>288.66666666666663</ele><time>2026-03-27T16:23:48.647Z</time></trkpt><trkpt lat="44.8066433" lon="9.6136983"><ele>291.3333333333333</ele><time>2026-03-27T16:23:49.646Z</time></trkpt><trkpt lat="44.80685" lon="9.61374"><ele>294.0</ele><time>2026-03-27T16:23:50.648Z</time></trkpt><trkpt lat="44.8070583" lon="9.6137867"><ele>294.0</ele><time>2026-03-27T16:23:51.648Z</time></trkpt><trkpt lat="44.80727" lon="9.6138367"><ele>294.0</ele><time>2026-03-27T16:23:52.647Z</time></trkpt><trkpt lat="44.8074817" lon="9.613885"><ele>294.0</ele><time>2026-03-27T16:23:53.647Z</time></trkpt><trkpt lat="44.8076967" lon="9.6139333"><ele>291.3333333333333</ele><time>2026-03-27T16:23:54.647Z</time></trkpt><trkpt lat="44.80791" lon="9.6139783"><ele>288.66666666666663</ele><time>2026-03-27T16:23:55.648Z</time></trkpt><trkpt lat="44.8081117" lon="9.6140133"><ele>286.0</ele><time>2026-03-27T16:23:56.649Z</time></trkpt><trkpt lat="44.8083067" lon="9.6140533"><ele>285.66666666666663</ele><time>2026-03-27T16:23:57.65Z</time></trkpt><trkpt lat="44.8084967" lon="9.6141"><ele>285.3333333333333</ele><time>2026-03-27T16:23:58.648Z</time></trkpt><trkpt lat="44.808685" lon="9.614155"><ele>285.0</ele><time>2026-03-27T16:23:59.647Z</time></trkpt><trkpt lat="44.8088717" lon="9.6142067"><ele>285.0</ele><time>2026-03-27T16:24:00.646Z</time></trkpt><trkpt lat="44.809055" lon="9.61425"><ele>285.0</ele><time>2026-03-27T16:24:01.647Z</time></trkpt><trkpt lat="44.8092417" lon="9.6143067"><ele>285.0</ele><time>2026-03-27T16:24:02.648Z</time></trkpt><trkpt lat="44.8094317" lon="9.6143533"><ele>284.6666666666667</ele><time>2026-03-27T16:24:03.647Z</time></trkpt><trkpt lat="44.8096317" lon="9.6144033"><ele>284.33333333333337</ele><time>2026-03-27T16:24:04.647Z</time></trkpt><trkpt lat="44.80984" lon="9.6144567"><ele>284.0</ele><time>2026-03-27T16:24:05.65Z</time></trkpt><trkpt lat="44.8100633" lon="9.614525"><ele>284.5</ele><time>2026-03-27T16:24:06.646Z</time></trkpt><trkpt lat="44.8102983" lon="9.6146167"><ele>285.0</ele><time>2026-03-27T16:24:07.648Z</time></trkpt><trkpt lat="44.8105383" lon="9.61473"><ele>285.0</ele><time>2026-03-27T16:24:08.649Z</time></trkpt><trkpt lat="44.8107817" lon="9.6148683"><ele>285.0</ele><time>2026-03-27T16:24:09.647Z</time></trkpt><trkpt lat="44.8110333" lon="9.61503"><ele>287.0</ele><time>2026-03-27T16:24:10.648Z</time></trkpt><trkpt lat="44.81128" lon="9.6152067"><ele>289.0</ele><time>2026-03-27T16:24:11.647Z</time></trkpt><trkpt lat="44.8115317" lon="9.6153883"><ele>289.0</ele><time>2026-03-27T16:24:12.649Z</time></trkpt><trkpt lat="44.8117883" lon="9.6155733"><ele>289.0</ele><time>2026-03-27T16:24:13.646Z</time></trkpt><trkpt lat="44.8120433" lon="9.6157583"><ele>284.5</ele><time>2026-03-27T16:24:14.647Z</time></trkpt><trkpt lat="44.8122983" lon="9.6159483"><ele>280.0</ele><time>2026-03-27T16:24:15.646Z</time></trkpt><trkpt lat="44.812555" lon="9.6161367"><ele>278.5</ele><time>2026-03-27T16:24:16.647Z</time></trkpt><trkpt lat="44.8128133" lon="9.616325"><ele>277.0</ele><time>2026-03-27T16:24:17.647Z</time></trkpt><trkpt lat="44.8130724" lon="9.6165102"><ele>277.0</ele><time>2026-03-27T16:24:18.648Z</time></trkpt><trkpt lat="44.8133324" lon="9.6166925"><ele>277.0</ele><time>2026-03-27T16:24:19.647Z</time></trkpt><trkpt lat="44.8135913" lon="9.6168794"><ele>279.0</ele><time>2026-03-27T16:24:20.647Z</time></trkpt><trkpt lat="44.8138496" lon="9.6170581"><ele>281.0</ele><time>2026-03-27T16:24:21.646Z</time></trkpt><trkpt lat="44.8141097" lon="9.6172341"><ele>277.5</ele><time>2026-03-27T16:24:22.647Z</time></trkpt><trkpt lat="44.8143724" lon="9.6174026"><ele>274.0</ele><time>2026-03-27T16:24:23.648Z</time></trkpt><trkpt lat="44.8146369" lon="9.617564"><ele>274.0</ele><time>2026-03-27T16:24:24.648Z</time></trkpt><trkpt lat="44.8149056" lon="9.6177124"><ele>274.0</ele><time>2026-03-27T16:24:25.65Z</time></trkpt><trkpt lat="44.8151735" lon="9.6178504"><ele>278.5</ele><time>2026-03-27T16:24:26.647Z</time></trkpt><trkpt lat="44.8154469" lon="9.6179753"><ele>283.0</ele><time>2026-03-27T16:24:27.648Z</time></trkpt><trkpt lat="44.8157214" lon="9.6180841"><ele>280.0</ele><time>2026-03-27T16:24:28.646Z</time></trkpt><trkpt lat="44.8159972" lon="9.6181872"><ele>277.0</ele><time>2026-03-27T16:24:29.646Z</time></trkpt><trkpt lat="44.8162697" lon="9.6182898"><ele>277.0</ele><time>2026-03-27T16:24:30.647Z</time></trkpt><trkpt lat="44.8165425" lon="9.6183954"><ele>277.0</ele><time>2026-03-27T16:24:31.647Z</time></trkpt><trkpt lat="44.8168206" lon="9.6185017"><ele>278.5</ele><time>2026-03-27T16:24:32.647Z</time></trkpt><trkpt lat="44.8171033" lon="9.618614"><ele>280.0</ele><time>2026-03-27T16:24:33.647Z</time></trkpt><trkpt lat="44.8173927" lon="9.6187262"><ele>279.5</ele><time>2026-03-27T16:24:34.647Z</time></trkpt><trkpt lat="44.8176853" lon="9.6188347"><ele>279.0</ele><time>2026-03-27T16:24:35.647Z</time></trkpt><trkpt lat="44.8179762" lon="9.6189363"><ele>279.0</ele><time>2026-03-27T16:24:36.647Z</time></trkpt><trkpt lat="44.8182668" lon="9.6190385"><ele>279.0</ele><time>2026-03-27T16:24:37.647Z</time></trkpt><trkpt lat="44.8185549" lon="9.619143"><ele>275.5</ele><time>2026-03-27T16:24:38.649Z</time></trkpt><trkpt lat="44.8188423" lon="9.6192474"><ele>272.0</ele><time>2026-03-27T16:24:39.647Z</time></trkpt><trkpt lat="44.8191255" lon="9.6193494"><ele>271.0</ele><time>2026-03-27T16:24:40.647Z</time></trkpt><trkpt lat="44.8194077" lon="9.6194453"><ele>270.0</ele><time>2026-03-27T16:24:41.646Z</time></trkpt><trkpt lat="44.8196836" lon="9.6195391"><ele>271.5</ele><time>2026-03-27T16:24:42.647Z</time></trkpt><trkpt lat="44.8199496" lon="9.619633"><ele>273.0</ele><time>2026-03-27T16:24:43.646Z</time></trkpt><trkpt lat="44.8202048" lon="9.6197218"><ele>273.0</ele><time>2026-03-27T16:24:44.648Z</time></trkpt><trkpt lat="44.8204519" lon="9.6198026"><ele>273.0</ele><time>2026-03-27T16:24:45.647Z</time></trkpt><trkpt lat="44.8207013" lon="9.6198732"><ele>273.0</ele><time>2026-03-27T16:24:46.65Z</time></trkpt><trkpt lat="44.8209492" lon="9.6199317"><ele>273.0</ele><time>2026-03-27T16:24:47.647Z</time></trkpt><trkpt lat="44.8211982" lon="9.6199755"><ele>271.5</ele><time>2026-03-27T16:24:48.648Z</time></trkpt><trkpt lat="44.8214484" lon="9.6200022"><ele>270.0</ele><time>2026-03-27T16:24:49.653Z</time></trkpt><trkpt lat="44.8216982" lon="9.6200178"><ele>270.5</ele><time>2026-03-27T16:24:50.647Z</time></trkpt><trkpt lat="44.8219491" lon="9.6200221"><ele>271.0</ele><time>2026-03-27T16:24:51.648Z</time></trkpt><trkpt lat="44.8221945" lon="9.620018"><ele>271.0</ele><time>2026-03-27T16:24:52.648Z</time></trkpt><trkpt lat="44.8224298" lon="9.6200179"><ele>271.0</ele><time>2026-03-27T16:24:53.647Z</time></trkpt><trkpt lat="44.8226613" lon="9.620023"><ele>269.0</ele><time>2026-03-27T16:24:54.648Z</time></trkpt><trkpt lat="44.8228921" lon="9.6200334"><ele>267.0</ele><time>2026-03-27T16:24:55.647Z</time></trkpt><trkpt lat="44.8231248" lon="9.6200389"><ele>267.0</ele><time>2026-03-27T16:24:56.649Z</time></trkpt><trkpt lat="44.8233562" lon="9.6200449"><ele>267.0</ele><time>2026-03-27T16:24:57.648Z</time></trkpt><trkpt lat="44.8235743" lon="9.6200487"><ele>266.3333333333333</ele><time>2026-03-27T16:24:58.647Z</time></trkpt><trkpt lat="44.8237734" lon="9.6200551"><ele>265.66666666666663</ele><time>2026-03-27T16:24:59.646Z</time></trkpt><trkpt lat="44.8239624" lon="9.6200606"><ele>265.0</ele><time>2026-03-27T16:25:00.648Z</time></trkpt><trkpt lat="44.8241596" lon="9.6200695"><ele>265.3333333333333</ele><time>2026-03-27T16:25:01.65Z</time></trkpt><trkpt lat="44.8243646" lon="9.6200836"><ele>265.6666666666667</ele><time>2026-03-27T16:25:02.647Z</time></trkpt><trkpt lat="44.8245769" lon="9.6200945"><ele>266.0</ele><time>2026-03-27T16:25:03.646Z</time></trkpt><trkpt lat="44.8248" lon="9.6201038"><ele>266.0</ele><time>2026-03-27T16:25:04.647Z</time></trkpt><trkpt lat="44.8250346" lon="9.6201106"><ele>266.0</ele><time>2026-03-27T16:25:05.646Z</time></trkpt><trkpt lat="44.8252762" lon="9.6201061"><ele>266.0</ele><time>2026-03-27T16:25:06.651Z</time></trkpt><trkpt lat="44.8255203" lon="9.6200874"><ele>266.0</ele><time>2026-03-27T16:25:07.647Z</time></trkpt><trkpt lat="44.8257668" lon="9.6200507"><ele>270.5</ele><time>2026-03-27T16:25:08.65Z</time></trkpt><trkpt lat="44.8260112" lon="9.6199912"><ele>275.0</ele><time>2026-03-27T16:25:09.647Z</time></trkpt><trkpt lat="44.8262574" lon="9.6199122"><ele>275.0</ele><time>2026-03-27T16:25:10.646Z</time></trkpt><trkpt lat="44.826501" lon="9.6198131"><ele>275.0</ele><time>2026-03-27T16:25:11.648Z</time></trkpt><trkpt lat="44.8267413" lon="9.6196974"><ele>272.0</ele><time>2026-03-27T16:25:12.646Z</time></trkpt><trkpt lat="44.8269787" lon="9.6195665"><ele>269.0</ele><time>2026-03-27T16:25:13.647Z</time></trkpt><trkpt lat="44.8272137" lon="9.6194228"><ele>269.0</ele><time>2026-03-27T16:25:14.652Z</time></trkpt><trkpt lat="44.8274441" lon="9.6192648"><ele>269.0</ele><time>2026-03-27T16:25:15.647Z</time></trkpt><trkpt lat="44.8276676" lon="9.6190896"><ele>277.0</ele><time>2026-03-27T16:25:16.647Z</time></trkpt><trkpt lat="44.8278813" lon="9.6188909"><ele>285.0</ele><time>2026-03-27T16:25:17.648Z</time></trkpt><trkpt lat="44.8280936" lon="9.6186799"><ele>288.0</ele><time>2026-03-27T16:25:18.65Z</time></trkpt><trkpt lat="44.8283034" lon="9.6184621"><ele>291.0</ele><time>2026-03-27T16:25:19.649Z</time></trkpt><trkpt lat="44.8285115" lon="9.6182442"><ele>291.0</ele><time>2026-03-27T16:25:20.648Z</time></trkpt><trkpt lat="44.8287199" lon="9.6180339"><ele>291.0</ele><time>2026-03-27T16:25:21.647Z</time></trkpt><trkpt lat="44.8289324" lon="9.6178323"><ele>283.5</ele><time>2026-03-27T16:25:22.647Z</time></trkpt><trkpt lat="44.8291527" lon="9.6176473"><ele>276.0</ele><time>2026-03-27T16:25:23.647Z</time></trkpt><trkpt lat="44.8293825" lon="9.6174813"><ele>276.0</ele><time>2026-03-27T16:25:24.648Z</time></trkpt><trkpt lat="44.8296213" lon="9.6173365"><ele>276.0</ele><time>2026-03-27T16:25:25.648Z</time></trkpt><trkpt lat="44.8298647" lon="9.6172163"><ele>276.0</ele><time>2026-03-27T16:25:26.647Z</time></trkpt><trkpt lat="44.8301144" lon="9.6171177"><ele>276.0</ele><time>2026-03-27T16:25:27.647Z</time></trkpt><trkpt lat="44.8303732" lon="9.6170607"><ele>277.0</ele><time>2026-03-27T16:25:28.647Z</time></trkpt><trkpt lat="44.8306321" lon="9.6170131"><ele>278.0</ele><time>2026-03-27T16:25:29.647Z</time></trkpt><trkpt lat="44.8308956" lon="9.616987"><ele>270.0</ele><time>2026-03-27T16:25:30.646Z</time></trkpt><trkpt lat="44.8311638" lon="9.6169732"><ele>262.0</ele><time>2026-03-27T16:25:31.647Z</time></trkpt><trkpt lat="44.8314309" lon="9.6169608"><ele>262.0</ele><time>2026-03-27T16:25:32.647Z</time></trkpt><trkpt lat="44.8316867" lon="9.6169456"><ele>262.0</ele><time>2026-03-27T16:25:33.647Z</time></trkpt><trkpt lat="44.831935" lon="9.6169281"><ele>262.0</ele><time>2026-03-27T16:25:34.647Z</time></trkpt><trkpt lat="44.832183" lon="9.6168926"><ele>262.0</ele><time>2026-03-27T16:25:35.648Z</time></trkpt><trkpt lat="44.832423" lon="9.6168314"><ele>266.5</ele><time>2026-03-27T16:25:36.646Z</time></trkpt><trkpt lat="44.8326595" lon="9.6167375"><ele>271.0</ele><time>2026-03-27T16:25:37.647Z</time></trkpt><trkpt lat="44.8328912" lon="9.6166133"><ele>271.0</ele><time>2026-03-27T16:25:38.647Z</time></trkpt><trkpt lat="44.8331131" lon="9.6164529"><ele>271.0</ele><time>2026-03-27T16:25:39.649Z</time></trkpt><trkpt lat="44.8333164" lon="9.6162767"><ele>271.3333333333333</ele><time>2026-03-27T16:25:40.647Z</time></trkpt><trkpt lat="44.8334995" lon="9.6160929"><ele>271.6666666666667</ele><time>2026-03-27T16:25:41.647Z</time></trkpt><trkpt lat="44.8336739" lon="9.6159002"><ele>272.0</ele><time>2026-03-27T16:25:42.646Z</time></trkpt><trkpt lat="44.8338427" lon="9.6157099"><ele>272.0</ele><time>2026-03-27T16:25:43.647Z</time></trkpt><trkpt lat="44.8340099" lon="9.6155228"><ele>272.0</ele><time>2026-03-27T16:25:44.649Z</time></trkpt><trkpt lat="44.8341589" lon="9.6153389"><ele>272.0</ele><time>2026-03-27T16:25:45.647Z</time></trkpt><trkpt lat="44.8343075" lon="9.6151702"><ele>270.33333333333337</ele><time>2026-03-27T16:25:46.648Z</time></trkpt><trkpt lat="44.834458" lon="9.6150266"><ele>268.6666666666667</ele><time>2026-03-27T16:25:47.646Z</time></trkpt><trkpt lat="44.834611" lon="9.6148985"><ele>267.0</ele><time>2026-03-27T16:25:48.646Z</time></trkpt><trkpt lat="44.8347735" lon="9.6147836"><ele>267.0</ele><time>2026-03-27T16:25:49.647Z</time></trkpt><trkpt lat="44.834941" lon="9.6146724"><ele>267.0</ele><time>2026-03-27T16:25:50.647Z</time></trkpt><trkpt lat="44.8351106" lon="9.614554"><ele>267.0</ele><time>2026-03-27T16:25:51.647Z</time></trkpt><trkpt lat="44.8352758" lon="9.614431"><ele>264.3333333333333</ele><time>2026-03-27T16:25:52.646Z</time></trkpt><trkpt lat="44.8354448" lon="9.6143038"><ele>261.66666666666663</ele><time>2026-03-27T16:25:53.648Z</time></trkpt><trkpt lat="44.8356125" lon="9.6141771"><ele>259.0</ele><time>2026-03-27T16:25:54.646Z</time></trkpt><trkpt lat="44.8357845" lon="9.6140484"><ele>259.0</ele><time>2026-03-27T16:25:55.646Z</time></trkpt><trkpt lat="44.8359575" lon="9.6139214"><ele>259.0</ele><time>2026-03-27T16:25:56.648Z</time></trkpt><trkpt lat="44.8361357" lon="9.6137946"><ele>259.0</ele><time>2026-03-27T16:25:57.646Z</time></trkpt><trkpt lat="44.8363164" lon="9.6136662"><ele>259.66666666666663</ele><time>2026-03-27T16:25:58.647Z</time></trkpt><trkpt lat="44.8364958" lon="9.6135354"><ele>260.3333333333333</ele><time>2026-03-27T16:25:59.647Z</time></trkpt><trkpt lat="44.8366763" lon="9.613404"><ele>261.0</ele><time>2026-03-27T16:26:00.648Z</time></trkpt><trkpt lat="44.8368543" lon="9.6132733"><ele>261.0</ele><time>2026-03-27T16:26:01.647Z</time></trkpt><trkpt lat="44.8370269" lon="9.6131484"><ele>261.0</ele><time>2026-03-27T16:26:02.648Z</time></trkpt><trkpt lat="44.8371939" lon="9.6130321"><ele>261.0</ele><time>2026-03-27T16:26:03.647Z</time></trkpt><trkpt lat="44.837367" lon="9.6129167"><ele>259.0</ele><time>2026-03-27T16:26:04.648Z</time></trkpt><trkpt lat="44.8375417" lon="9.612806"><ele>257.0</ele><time>2026-03-27T16:26:05.649Z</time></trkpt><trkpt lat="44.8377165" lon="9.6126929"><ele>255.0</ele><time>2026-03-27T16:26:06.646Z</time></trkpt><trkpt lat="44.8378904" lon="9.6125747"><ele>255.0</ele><time>2026-03-27T16:26:07.648Z</time></trkpt><trkpt lat="44.8380622" lon="9.6124604"><ele>255.0</ele><time>2026-03-27T16:26:08.646Z</time></trkpt><trkpt lat="44.8382402" lon="9.6123624"><ele>255.0</ele><time>2026-03-27T16:26:09.646Z</time></trkpt><trkpt lat="44.8384246" lon="9.6122838"><ele>255.0</ele><time>2026-03-27T16:26:10.646Z</time></trkpt><trkpt lat="44.8386132" lon="9.6122122"><ele>255.0</ele><time>2026-03-27T16:26:11.647Z</time></trkpt><trkpt lat="44.8388049" lon="9.6121503"><ele>255.0</ele><time>2026-03-27T16:26:12.653Z</time></trkpt><trkpt lat="44.8389994" lon="9.6121021"><ele>255.0</ele><time>2026-03-27T16:26:13.647Z</time></trkpt><trkpt lat="44.8391997" lon="9.6120674"><ele>255.0</ele><time>2026-03-27T16:26:14.647Z</time></trkpt><trkpt lat="44.839404" lon="9.6120327"><ele>255.0</ele><time>2026-03-27T16:26:15.647Z</time></trkpt><trkpt lat="44.8396138" lon="9.6120142"><ele>254.0</ele><time>2026-03-27T16:26:16.646Z</time></trkpt><trkpt lat="44.8398271" lon="9.6120138"><ele>253.0</ele><time>2026-03-27T16:26:17.647Z</time></trkpt><trkpt lat="44.8400477" lon="9.61203"><ele>252.0</ele><time>2026-03-27T16:26:18.646Z</time></trkpt><trkpt lat="44.8402718" lon="9.61206"><ele>251.66666666666669</ele><time>2026-03-27T16:26:19.649Z</time></trkpt><trkpt lat="44.8404902" lon="9.6120948"><ele>251.33333333333334</ele><time>2026-03-27T16:26:20.647Z</time></trkpt><trkpt lat="44.8407026" lon="9.6121242"><ele>251.0</ele><time>2026-03-27T16:26:21.648Z</time></trkpt><trkpt lat="44.8409109" lon="9.6121468"><ele>249.66666666666669</ele><time>2026-03-27T16:26:22.65Z</time></trkpt><trkpt lat="44.8411144" lon="9.6121695"><ele>248.33333333333331</ele><time>2026-03-27T16:26:23.647Z</time></trkpt><trkpt lat="44.8413184" lon="9.6121958"><ele>247.0</ele><time>2026-03-27T16:26:24.651Z</time></trkpt><trkpt lat="44.8415209" lon="9.6122347"><ele>247.0</ele><time>2026-03-27T16:26:25.646Z</time></trkpt><trkpt lat="44.8417188" lon="9.6122905"><ele>247.0</ele><time>2026-03-27T16:26:26.647Z</time></trkpt><trkpt lat="44.8419071" lon="9.6123678"><ele>247.0</ele><time>2026-03-27T16:26:27.646Z</time></trkpt><trkpt lat="44.8420868" lon="9.6124693"><ele>247.33333333333331</ele><time>2026-03-27T16:26:28.647Z</time></trkpt><trkpt lat="44.84226" lon="9.6125848"><ele>247.66666666666669</ele><time>2026-03-27T16:26:29.647Z</time></trkpt><trkpt lat="44.8424325" lon="9.612713"><ele>248.0</ele><time>2026-03-27T16:26:30.648Z</time></trkpt><trkpt lat="44.8426036" lon="9.6128646"><ele>246.33333333333334</ele><time>2026-03-27T16:26:31.647Z</time></trkpt><trkpt lat="44.8427713" lon="9.6130389"><ele>244.66666666666669</ele><time>2026-03-27T16:26:32.647Z</time></trkpt><trkpt lat="44.842938" lon="9.6132302"><ele>243.0</ele><time>2026-03-27T16:26:33.65Z</time></trkpt><trkpt lat="44.8430948" lon="9.613445"><ele>241.0</ele><time>2026-03-27T16:26:34.647Z</time></trkpt><trkpt lat="44.8432389" lon="9.6136662"><ele>239.0</ele><time>2026-03-27T16:26:35.649Z</time></trkpt><trkpt lat="44.8433646" lon="9.613892"><ele>237.0</ele><time>2026-03-27T16:26:36.65Z</time></trkpt><trkpt lat="44.8434782" lon="9.6141173"><ele>237.0</ele><time>2026-03-27T16:26:37.648Z</time></trkpt><trkpt lat="44.8435905" lon="9.6143435"><ele>237.0</ele><time>2026-03-27T16:26:38.648Z</time></trkpt><trkpt lat="44.8437084" lon="9.6145799"><ele>237.0</ele><time>2026-03-27T16:26:39.647Z</time></trkpt><trkpt lat="44.8438325" lon="9.61482"><ele>239.66666666666669</ele><time>2026-03-27T16:26:40.649Z</time></trkpt><trkpt lat="44.8439607" lon="9.6150596"><ele>242.33333333333334</ele><time>2026-03-27T16:26:41.648Z</time></trkpt><trkpt lat="44.8440928" lon="9.6152997"><ele>245.0</ele><time>2026-03-27T16:26:42.647Z</time></trkpt><trkpt lat="44.8442354" lon="9.6155434"><ele>241.5</ele><time>2026-03-27T16:26:43.649Z</time></trkpt><trkpt lat="44.8443793" lon="9.6157873"><ele>238.0</ele><time>2026-03-27T16:26:44.649Z</time></trkpt><trkpt lat="44.8445435" lon="9.6160269"><ele>240.5</ele><time>2026-03-27T16:26:45.649Z</time></trkpt><trkpt lat="44.844735" lon="9.616255"><ele>243.0</ele><time>2026-03-27T16:26:46.651Z</time></trkpt><trkpt lat="44.8449133" lon="9.6164883"><ele>243.0</ele><time>2026-03-27T16:26:47.648Z</time></trkpt><trkpt lat="44.8450917" lon="9.61672"><ele>243.0</ele><time>2026-03-27T16:26:48.648Z</time></trkpt><trkpt lat="44.8452733" lon="9.6169533"><ele>241.0</ele><time>2026-03-27T16:26:49.649Z</time></trkpt><trkpt lat="44.8454517" lon="9.6171883"><ele>239.0</ele><time>2026-03-27T16:26:50.649Z</time></trkpt><trkpt lat="44.845625" lon="9.617415"><ele>239.0</ele><time>2026-03-27T16:26:51.656Z</time></trkpt><trkpt lat="44.8457883" lon="9.61763"><ele>239.0</ele><time>2026-03-27T16:26:52.648Z</time></trkpt><trkpt lat="44.845955" lon="9.6178417"><ele>239.0</ele><time>2026-03-27T16:26:53.648Z</time></trkpt><trkpt lat="44.8461117" lon="9.61804"><ele>238.66666666666669</ele><time>2026-03-27T16:26:54.649Z</time></trkpt><trkpt lat="44.8462583" lon="9.6182283"><ele>238.33333333333331</ele><time>2026-03-27T16:26:55.649Z</time></trkpt><trkpt lat="44.8464067" lon="9.6184217"><ele>238.0</ele><time>2026-03-27T16:26:56.648Z</time></trkpt><trkpt lat="44.84656" lon="9.6186217"><ele>239.66666666666666</ele><time>2026-03-27T16:26:57.646Z</time></trkpt><trkpt lat="44.8467167" lon="9.6188217"><ele>241.33333333333331</ele><time>2026-03-27T16:26:58.649Z</time></trkpt><trkpt lat="44.84687" lon="9.6190217"><ele>243.0</ele><time>2026-03-27T16:26:59.654Z</time></trkpt><trkpt lat="44.847025" lon="9.6192183"><ele>242.0</ele><time>2026-03-27T16:27:00.65Z</time></trkpt><trkpt lat="44.8471783" lon="9.619415"><ele>241.0</ele><time>2026-03-27T16:27:01.648Z</time></trkpt><trkpt lat="44.8473333" lon="9.6196117"><ele>240.0</ele><time>2026-03-27T16:27:02.649Z</time></trkpt><trkpt lat="44.84749" lon="9.6198067"><ele>238.33333333333331</ele><time>2026-03-27T16:27:03.648Z</time></trkpt><trkpt lat="44.847645" lon="9.6199983"><ele>236.66666666666666</ele><time>2026-03-27T16:27:04.651Z</time></trkpt><trkpt lat="44.8478017" lon="9.62019"><ele>235.0</ele><time>2026-03-27T16:27:05.648Z</time></trkpt><trkpt lat="44.8479567" lon="9.62038"><ele>235.0</ele><time>2026-03-27T16:27:06.648Z</time></trkpt><trkpt lat="44.8481083" lon="9.62057"><ele>235.0</ele><time>2026-03-27T16:27:07.65Z</time></trkpt><trkpt lat="44.8482583" lon="9.62076"><ele>235.0</ele><time>2026-03-27T16:27:08.648Z</time></trkpt><trkpt lat="44.848405" lon="9.62095"><ele>235.66666666666666</ele><time>2026-03-27T16:27:09.648Z</time></trkpt><trkpt lat="44.848555" lon="9.621145"><ele>236.33333333333331</ele><time>2026-03-27T16:27:10.648Z</time></trkpt><trkpt lat="44.8487067" lon="9.6213383"><ele>237.0</ele><time>2026-03-27T16:27:11.65Z</time></trkpt><trkpt lat="44.84886" lon="9.6215317"><ele>237.0</ele><time>2026-03-27T16:27:12.651Z</time></trkpt><trkpt lat="44.8490167" lon="9.6217267"><ele>237.0</ele><time>2026-03-27T16:27:13.649Z</time></trkpt><trkpt lat="44.8491733" lon="9.6219183"><ele>237.0</ele><time>2026-03-27T16:27:14.649Z</time></trkpt><trkpt lat="44.8493417" lon="9.6221067"><ele>237.66666666666669</ele><time>2026-03-27T16:27:15.648Z</time></trkpt><trkpt lat="44.84952" lon="9.6222783"><ele>238.33333333333334</ele><time>2026-03-27T16:27:16.648Z</time></trkpt><trkpt lat="44.8497117" lon="9.6224317"><ele>239.0</ele><time>2026-03-27T16:27:17.647Z</time></trkpt><trkpt lat="44.849905" lon="9.6225683"><ele>239.0</ele><time>2026-03-27T16:27:18.648Z</time></trkpt><trkpt lat="44.85011" lon="9.6226967"><ele>239.0</ele><time>2026-03-27T16:27:19.657Z</time></trkpt><trkpt lat="44.85032" lon="9.6228183"><ele>239.33333333333334</ele><time>2026-03-27T16:27:20.647Z</time></trkpt><trkpt lat="44.8505233" lon="9.6229267"><ele>239.66666666666669</ele><time>2026-03-27T16:27:21.648Z</time></trkpt><trkpt lat="44.8507283" lon="9.6230317"><ele>240.0</ele><time>2026-03-27T16:27:22.647Z</time></trkpt><trkpt lat="44.8509367" lon="9.6231367"><ele>237.66666666666669</ele><time>2026-03-27T16:27:23.647Z</time></trkpt><trkpt lat="44.85114" lon="9.62324"><ele>235.33333333333334</ele><time>2026-03-27T16:27:24.649Z</time></trkpt><trkpt lat="44.851335" lon="9.6233433"><ele>233.0</ele><time>2026-03-27T16:27:25.647Z</time></trkpt><trkpt lat="44.851535" lon="9.623445"><ele>233.0</ele><time>2026-03-27T16:27:26.648Z</time></trkpt><trkpt lat="44.8517267" lon="9.6235383"><ele>233.0</ele><time>2026-03-27T16:27:27.648Z</time></trkpt><trkpt lat="44.8519067" lon="9.6236317"><ele>233.0</ele><time>2026-03-27T16:27:28.647Z</time></trkpt><trkpt lat="44.8520783" lon="9.6237233"><ele>234.66666666666669</ele><time>2026-03-27T16:27:29.649Z</time></trkpt><trkpt lat="44.8522567" lon="9.6238367"><ele>236.33333333333331</ele><time>2026-03-27T16:27:30.647Z</time></trkpt><trkpt lat="44.852425" lon="9.6239667"><ele>238.0</ele><time>2026-03-27T16:27:31.65Z</time></trkpt><trkpt lat="44.85259" lon="9.624125"><ele>235.0</ele><time>2026-03-27T16:27:32.647Z</time></trkpt><trkpt lat="44.85275" lon="9.6243"><ele>232.0</ele><time>2026-03-27T16:27:33.651Z</time></trkpt><trkpt lat="44.852905" lon="9.6244933"><ele>229.0</ele><time>2026-03-27T16:27:34.647Z</time></trkpt><trkpt lat="44.8530567" lon="9.6247117"><ele>229.0</ele><time>2026-03-27T16:27:35.647Z</time></trkpt><trkpt lat="44.8532" lon="9.624945"><ele>229.0</ele><time>2026-03-27T16:27:36.648Z</time></trkpt><trkpt lat="44.8533383" lon="9.62517"><ele>229.0</ele><time>2026-03-27T16:27:37.646Z</time></trkpt><trkpt lat="44.853475" lon="9.6253883"><ele>228.0</ele><time>2026-03-27T16:27:38.647Z</time></trkpt><trkpt lat="44.853615" lon="9.62561"><ele>227.0</ele><time>2026-03-27T16:27:39.647Z</time></trkpt><trkpt lat="44.8537583" lon="9.6258383"><ele>226.0</ele><time>2026-03-27T16:27:40.647Z</time></trkpt><trkpt lat="44.8539" lon="9.6260683"><ele>226.33333333333331</ele><time>2026-03-27T16:27:41.648Z</time></trkpt><trkpt lat="44.8540383" lon="9.6262883"><ele>226.66666666666669</ele><time>2026-03-27T16:27:42.65Z</time></trkpt><trkpt lat="44.8541783" lon="9.6265067"><ele>227.0</ele><time>2026-03-27T16:27:43.649Z</time></trkpt><trkpt lat="44.85432" lon="9.6267217"><ele>227.0</ele><time>2026-03-27T16:27:44.647Z</time></trkpt><trkpt lat="44.8544683" lon="9.626935"><ele>227.0</ele><time>2026-03-27T16:27:45.646Z</time></trkpt><trkpt lat="44.8546217" lon="9.6271383"><ele>227.0</ele><time>2026-03-27T16:27:46.647Z</time></trkpt><trkpt lat="44.8547783" lon="9.6273433"><ele>229.0</ele><time>2026-03-27T16:27:47.65Z</time></trkpt><trkpt lat="44.854945" lon="9.627555"><ele>231.0</ele><time>2026-03-27T16:27:48.649Z</time></trkpt><trkpt lat="44.8551133" lon="9.627765"><ele>233.0</ele><time>2026-03-27T16:27:49.648Z</time></trkpt><trkpt lat="44.8552783" lon="9.62797"><ele>233.66666666666669</ele><time>2026-03-27T16:27:50.649Z</time></trkpt><trkpt lat="44.8554367" lon="9.6281567"><ele>234.33333333333331</ele><time>2026-03-27T16:27:51.649Z</time></trkpt><trkpt lat="44.855585" lon="9.6283283"><ele>235.0</ele><time>2026-03-27T16:27:52.651Z</time></trkpt><trkpt lat="44.855725" lon="9.6284917"><ele>235.66666666666666</ele><time>2026-03-27T16:27:53.649Z</time></trkpt><trkpt lat="44.8558667" lon="9.6286533"><ele>236.33333333333331</ele><time>2026-03-27T16:27:54.649Z</time></trkpt><trkpt lat="44.8560117" lon="9.628815"><ele>237.0</ele><time>2026-03-27T16:27:55.649Z</time></trkpt><trkpt lat="44.8561583" lon="9.62898"><ele>235.0</ele><time>2026-03-27T16:27:56.649Z</time></trkpt><trkpt lat="44.8563" lon="9.629145"><ele>233.0</ele><time>2026-03-27T16:27:57.648Z</time></trkpt><trkpt lat="44.856445" lon="9.62931"><ele>231.0</ele><time>2026-03-27T16:27:58.649Z</time></trkpt><trkpt lat="44.8565883" lon="9.6294717"><ele>231.33333333333331</ele><time>2026-03-27T16:27:59.647Z</time></trkpt><trkpt lat="44.8567317" lon="9.629635"><ele>231.66666666666666</ele><time>2026-03-27T16:28:00.648Z</time></trkpt><trkpt lat="44.8568733" lon="9.629805"><ele>232.0</ele><time>2026-03-27T16:28:01.648Z</time></trkpt><trkpt lat="44.8570033" lon="9.6299667"><ele>232.33333333333331</ele><time>2026-03-27T16:28:02.646Z</time></trkpt><trkpt lat="44.8571333" lon="9.6301333"><ele>232.66666666666669</ele><time>2026-03-27T16:28:03.647Z</time></trkpt><trkpt lat="44.8572633" lon="9.630305"><ele>233.0</ele><time>2026-03-27T16:28:04.646Z</time></trkpt><trkpt lat="44.857395" lon="9.63048"><ele>232.66666666666669</ele><time>2026-03-27T16:28:05.653Z</time></trkpt><trkpt lat="44.8575267" lon="9.630655"><ele>232.33333333333331</ele><time>2026-03-27T16:28:06.646Z</time></trkpt><trkpt lat="44.85766" lon="9.6308333"><ele>232.0</ele><time>2026-03-27T16:28:07.646Z</time></trkpt><trkpt lat="44.8577917" lon="9.6310117"><ele>233.0</ele><time>2026-03-27T16:28:08.648Z</time></trkpt><trkpt lat="44.8579217" lon="9.6311933"><ele>234.0</ele><time>2026-03-27T16:28:09.647Z</time></trkpt><trkpt lat="44.8580467" lon="9.631365"><ele>235.0</ele><time>2026-03-27T16:28:10.649Z</time></trkpt><trkpt lat="44.858165" lon="9.631525"><ele>235.0</ele><time>2026-03-27T16:28:11.648Z</time></trkpt><trkpt lat="44.8582767" lon="9.6316767"><ele>235.0</ele><time>2026-03-27T16:28:12.648Z</time></trkpt><trkpt lat="44.8583867" lon="9.6318283"><ele>235.0</ele><time>2026-03-27T16:28:13.647Z</time></trkpt><trkpt lat="44.8584983" lon="9.6319767"><ele>232.66666666666666</ele><time>2026-03-27T16:28:14.648Z</time></trkpt><trkpt lat="44.8586133" lon="9.6321183"><ele>230.33333333333331</ele><time>2026-03-27T16:28:15.66Z</time></trkpt><trkpt lat="44.8587317" lon="9.6322517"><ele>228.0</ele><time>2026-03-27T16:28:16.647Z</time></trkpt><trkpt lat="44.8588583" lon="9.6323817"><ele>228.0</ele><time>2026-03-27T16:28:17.648Z</time></trkpt><trkpt lat="44.8589883" lon="9.6324983"><ele>228.0</ele><time>2026-03-27T16:28:18.647Z</time></trkpt><trkpt lat="44.859125" lon="9.6325983"><ele>228.0</ele><time>2026-03-27T16:28:19.648Z</time></trkpt><trkpt lat="44.8592683" lon="9.6326783"><ele>227.33333333333331</ele><time>2026-03-27T16:28:20.65Z</time></trkpt><trkpt lat="44.8594183" lon="9.6327533"><ele>226.66666666666666</ele><time>2026-03-27T16:28:21.653Z</time></trkpt><trkpt lat="44.8595717" lon="9.6328233"><ele>226.0</ele><time>2026-03-27T16:28:22.647Z</time></trkpt><trkpt lat="44.85973" lon="9.63289"><ele>226.0</ele><time>2026-03-27T16:28:23.648Z</time></trkpt><trkpt lat="44.8598967" lon="9.6329483"><ele>226.0</ele><time>2026-03-27T16:28:24.647Z</time></trkpt><trkpt lat="44.8600683" lon="9.6330033"><ele>226.0</ele><time>2026-03-27T16:28:25.648Z</time></trkpt><trkpt lat="44.8602433" lon="9.6330617"><ele>224.66666666666666</ele><time>2026-03-27T16:28:26.649Z</time></trkpt><trkpt lat="44.8604183" lon="9.6331217"><ele>223.33333333333331</ele><time>2026-03-27T16:28:27.648Z</time></trkpt><trkpt lat="44.86059" lon="9.633185"><ele>222.0</ele><time>2026-03-27T16:28:28.648Z</time></trkpt><trkpt lat="44.860765" lon="9.633255"><ele>222.0</ele><time>2026-03-27T16:28:29.647Z</time></trkpt><trkpt lat="44.8609417" lon="9.6333383"><ele>222.0</ele><time>2026-03-27T16:28:30.649Z</time></trkpt><trkpt lat="44.8611033" lon="9.6334417"><ele>222.0</ele><time>2026-03-27T16:28:31.647Z</time></trkpt><trkpt lat="44.8612367" lon="9.63356"><ele>221.75</ele><time>2026-03-27T16:28:32.648Z</time></trkpt><trkpt lat="44.8613333" lon="9.6336867"><ele>221.5</ele><time>2026-03-27T16:28:33.646Z</time></trkpt><trkpt lat="44.8614133" lon="9.6338133"><ele>221.25</ele><time>2026-03-27T16:28:34.647Z</time></trkpt><trkpt lat="44.8614983" lon="9.633945"><ele>221.0</ele><time>2026-03-27T16:28:35.648Z</time></trkpt><trkpt lat="44.8615817" lon="9.634085"><ele>221.0</ele><time>2026-03-27T16:28:36.647Z</time></trkpt><trkpt lat="44.8616667" lon="9.6342417"><ele>221.0</ele><time>2026-03-27T16:28:37.648Z</time></trkpt><trkpt lat="44.86175" lon="9.6344"><ele>221.0</ele><time>2026-03-27T16:28:38.648Z</time></trkpt><trkpt lat="44.8618233" lon="9.6345567"><ele>221.0</ele><time>2026-03-27T16:28:39.646Z</time></trkpt><trkpt lat="44.8618933" lon="9.6347133"><ele>220.75</ele><time>2026-03-27T16:28:40.647Z</time></trkpt><trkpt lat="44.861965" lon="9.63488"><ele>220.5</ele><time>2026-03-27T16:28:41.648Z</time></trkpt><trkpt lat="44.86204" lon="9.63505"><ele>220.25</ele><time>2026-03-27T16:28:42.648Z</time></trkpt><trkpt lat="44.8621183" lon="9.635225"><ele>220.0</ele><time>2026-03-27T16:28:43.647Z</time></trkpt><trkpt lat="44.8622" lon="9.6353933"><ele>220.0</ele><time>2026-03-27T16:28:44.647Z</time></trkpt><trkpt lat="44.8622817" lon="9.63557"><ele>220.0</ele><time>2026-03-27T16:28:45.651Z</time></trkpt><trkpt lat="44.8623633" lon="9.6357483"><ele>220.0</ele><time>2026-03-27T16:28:46.647Z</time></trkpt><trkpt lat="44.8624433" lon="9.6359267"><ele>220.0</ele><time>2026-03-27T16:28:47.647Z</time></trkpt><trkpt lat="44.86253" lon="9.6360983"><ele>220.0</ele><time>2026-03-27T16:28:48.648Z</time></trkpt><trkpt lat="44.8626233" lon="9.6362467"><ele>220.0</ele><time>2026-03-27T16:28:49.649Z</time></trkpt><trkpt lat="44.86273" lon="9.6363833"><ele>220.0</ele><time>2026-03-27T16:28:50.647Z</time></trkpt><trkpt lat="44.8628383" lon="9.63652"><ele>219.75</ele><time>2026-03-27T16:28:51.648Z</time></trkpt><trkpt lat="44.8629517" lon="9.63665"><ele>219.5</ele><time>2026-03-27T16:28:52.651Z</time></trkpt><trkpt lat="44.8630617" lon="9.6367833"><ele>219.25</ele><time>2026-03-27T16:28:53.648Z</time></trkpt><trkpt lat="44.8631667" lon="9.6369183"><ele>219.0</ele><time>2026-03-27T16:28:54.65Z</time></trkpt><trkpt lat="44.8632633" lon="9.6370367"><ele>219.0</ele><time>2026-03-27T16:28:55.65Z</time></trkpt><trkpt lat="44.86337" lon="9.6371633"><ele>219.0</ele><time>2026-03-27T16:28:56.65Z</time></trkpt><trkpt lat="44.8634733" lon="9.6372917"><ele>219.0</ele><time>2026-03-27T16:28:57.651Z</time></trkpt><trkpt lat="44.86358" lon="9.6374133"><ele>219.0</ele><time>2026-03-27T16:28:58.647Z</time></trkpt><trkpt lat="44.8636817" lon="9.6375267"><ele>218.25</ele><time>2026-03-27T16:28:59.65Z</time></trkpt><trkpt lat="44.8637783" lon="9.63764"><ele>217.5</ele><time>2026-03-27T16:29:00.647Z</time></trkpt><trkpt lat="44.8638733" lon="9.637755"><ele>216.75</ele><time>2026-03-27T16:29:01.648Z</time></trkpt><trkpt lat="44.8639717" lon="9.637875"><ele>216.0</ele><time>2026-03-27T16:29:02.649Z</time></trkpt><trkpt lat="44.864065" lon="9.6379917"><ele>216.0</ele><time>2026-03-27T16:29:03.648Z</time></trkpt><trkpt lat="44.8641583" lon="9.6381"><ele>216.0</ele><time>2026-03-27T16:29:04.653Z</time></trkpt><trkpt lat="44.864255" lon="9.6382183"><ele>216.0</ele><time>2026-03-27T16:29:05.647Z</time></trkpt><trkpt lat="44.8643433" lon="9.6383283"><ele>216.0</ele><time>2026-03-27T16:29:06.648Z</time></trkpt><trkpt lat="44.8644183" lon="9.6384317"><ele>215.8</ele><time>2026-03-27T16:29:07.647Z</time></trkpt><trkpt lat="44.86449" lon="9.638535"><ele>215.60000000000002</ele><time>2026-03-27T16:29:08.648Z</time></trkpt><trkpt lat="44.8645617" lon="9.6386433"><ele>215.4</ele><time>2026-03-27T16:29:09.648Z</time></trkpt><trkpt lat="44.8646383" lon="9.63875"><ele>215.2</ele><time>2026-03-27T16:29:10.647Z</time></trkpt><trkpt lat="44.8647117" lon="9.6388517"><ele>215.0</ele><time>2026-03-27T16:29:11.647Z</time></trkpt><trkpt lat="44.8647867" lon="9.6389567"><ele>215.0</ele><time>2026-03-27T16:29:12.647Z</time></trkpt><trkpt lat="44.8648633" lon="9.63907"><ele>215.0</ele><time>2026-03-27T16:29:13.647Z</time></trkpt><trkpt lat="44.8649417" lon="9.6391883"><ele>215.0</ele><time>2026-03-27T16:29:14.65Z</time></trkpt><trkpt lat="44.8650267" lon="9.6393133"><ele>215.0</ele><time>2026-03-27T16:29:15.647Z</time></trkpt><trkpt lat="44.8651117" lon="9.6394433"><ele>215.25</ele><time>2026-03-27T16:29:16.647Z</time></trkpt><trkpt lat="44.8651967" lon="9.6395733"><ele>215.5</ele><time>2026-03-27T16:29:17.647Z</time></trkpt><trkpt lat="44.8652817" lon="9.6397"><ele>215.75</ele><time>2026-03-27T16:29:18.647Z</time></trkpt><trkpt lat="44.8653633" lon="9.6398233"><ele>216.0</ele><time>2026-03-27T16:29:19.648Z</time></trkpt><trkpt lat="44.8654417" lon="9.639955"><ele>216.0</ele><time>2026-03-27T16:29:20.649Z</time></trkpt><trkpt lat="44.8655233" lon="9.6400883"><ele>216.0</ele><time>2026-03-27T16:29:21.647Z</time></trkpt><trkpt lat="44.8656133" lon="9.6402183"><ele>216.0</ele><time>2026-03-27T16:29:22.646Z</time></trkpt><trkpt lat="44.8657133" lon="9.6403383"><ele>216.0</ele><time>2026-03-27T16:29:23.648Z</time></trkpt><trkpt lat="44.8658217" lon="9.6404467"><ele>216.0</ele><time>2026-03-27T16:29:24.649Z</time></trkpt><trkpt lat="44.8659383" lon="9.64054"><ele>216.0</ele><time>2026-03-27T16:29:25.648Z</time></trkpt><trkpt lat="44.8660633" lon="9.6406183"><ele>216.0</ele><time>2026-03-27T16:29:26.648Z</time></trkpt><trkpt lat="44.8662" lon="9.6406783"><ele>216.0</ele><time>2026-03-27T16:29:27.646Z</time></trkpt><trkpt lat="44.86635" lon="9.6407167"><ele>215.66666666666669</ele><time>2026-03-27T16:29:28.647Z</time></trkpt><trkpt lat="44.8665017" lon="9.6407333"><ele>215.33333333333334</ele><time>2026-03-27T16:29:29.648Z</time></trkpt><trkpt lat="44.8666567" lon="9.6407167"><ele>215.0</ele><time>2026-03-27T16:29:30.649Z</time></trkpt><trkpt lat="44.8668033" lon="9.6406817"><ele>215.0</ele><time>2026-03-27T16:29:31.647Z</time></trkpt><trkpt lat="44.866925" lon="9.640635"><ele>215.0</ele><time>2026-03-27T16:29:32.649Z</time></trkpt><trkpt lat="44.8670667" lon="9.6405733"><ele>215.0</ele><time>2026-03-27T16:29:33.646Z</time></trkpt><trkpt lat="44.8671917" lon="9.6405033"><ele>215.0</ele><time>2026-03-27T16:29:34.648Z</time></trkpt><trkpt lat="44.86732" lon="9.6404333"><ele>215.0</ele><time>2026-03-27T16:29:35.647Z</time></trkpt><trkpt lat="44.867435" lon="9.6403667"><ele>215.0</ele><time>2026-03-27T16:29:36.649Z</time></trkpt><trkpt lat="44.8675467" lon="9.64031"><ele>215.0</ele><time>2026-03-27T16:29:37.647Z</time></trkpt><trkpt lat="44.8676467" lon="9.6402683"><ele>215.0</ele><time>2026-03-27T16:29:38.647Z</time></trkpt><trkpt lat="44.86774" lon="9.6402533"><ele>215.0</ele><time>2026-03-27T16:29:39.647Z</time></trkpt><trkpt lat="44.8678183" lon="9.6402583"><ele>214.66666666666669</ele><time>2026-03-27T16:29:40.649Z</time></trkpt><trkpt lat="44.8679" lon="9.6402617"><ele>214.33333333333334</ele><time>2026-03-27T16:29:41.647Z</time></trkpt><trkpt lat="44.86797" lon="9.6402567"><ele>214.0</ele><time>2026-03-27T16:29:42.648Z</time></trkpt><trkpt lat="44.868045" lon="9.640255"><ele>213.66666666666669</ele><time>2026-03-27T16:29:43.648Z</time></trkpt><trkpt lat="44.8681233" lon="9.6402483"><ele>213.33333333333334</ele><time>2026-03-27T16:29:44.649Z</time></trkpt><trkpt lat="44.8682167" lon="9.6402517"><ele>213.0</ele><time>2026-03-27T16:29:45.649Z</time></trkpt><trkpt lat="44.8683233" lon="9.6402633"><ele>213.0</ele><time>2026-03-27T16:29:46.65Z</time></trkpt><trkpt lat="44.8684333" lon="9.6402917"><ele>213.0</ele><time>2026-03-27T16:29:47.648Z</time></trkpt><trkpt lat="44.86855" lon="9.6403317"><ele>213.0</ele><time>2026-03-27T16:29:48.65Z</time></trkpt><trkpt lat="44.86867" lon="9.6403617"><ele>213.0</ele><time>2026-03-27T16:29:49.648Z</time></trkpt><trkpt lat="44.8687917" lon="9.6404017"><ele>212.75</ele><time>2026-03-27T16:29:50.65Z</time></trkpt><trkpt lat="44.8689117" lon="9.6404383"><ele>212.5</ele><time>2026-03-27T16:29:51.649Z</time></trkpt><trkpt lat="44.8690283" lon="9.6404733"><ele>212.25</ele><time>2026-03-27T16:29:52.648Z</time></trkpt><trkpt lat="44.8691483" lon="9.64051"><ele>212.0</ele><time>2026-03-27T16:29:53.65Z</time></trkpt><trkpt lat="44.86927" lon="9.6405483"><ele>211.5</ele><time>2026-03-27T16:29:54.649Z</time></trkpt><trkpt lat="44.8693917" lon="9.6405917"><ele>211.0</ele><time>2026-03-27T16:29:55.649Z</time></trkpt><trkpt lat="44.8695183" lon="9.6406383"><ele>210.5</ele><time>2026-03-27T16:29:56.649Z</time></trkpt><trkpt lat="44.8696483" lon="9.6406883"><ele>210.0</ele><time>2026-03-27T16:29:57.649Z</time></trkpt><trkpt lat="44.869775" lon="9.6407333"><ele>210.0</ele><time>2026-03-27T16:29:58.648Z</time></trkpt><trkpt lat="44.8698983" lon="9.6407733"><ele>210.0</ele><time>2026-03-27T16:29:59.648Z</time></trkpt><trkpt lat="44.8700183" lon="9.64082"><ele>210.0</ele><time>2026-03-27T16:30:00.649Z</time></trkpt><trkpt lat="44.8701433" lon="9.640875"><ele>210.0</ele><time>2026-03-27T16:30:01.649Z</time></trkpt><trkpt lat="44.8702667" lon="9.6409467"><ele>209.75</ele><time>2026-03-27T16:30:02.648Z</time></trkpt><trkpt lat="44.870395" lon="9.6410317"><ele>209.5</ele><time>2026-03-27T16:30:03.65Z</time></trkpt><trkpt lat="44.870525" lon="9.6411217"><ele>209.25</ele><time>2026-03-27T16:30:04.648Z</time></trkpt><trkpt lat="44.8706517" lon="9.6412167"><ele>209.0</ele><time>2026-03-27T16:30:05.648Z</time></trkpt><trkpt lat="44.8707767" lon="9.6413217"><ele>209.0</ele><time>2026-03-27T16:30:06.648Z</time></trkpt><trkpt lat="44.8709017" lon="9.6414367"><ele>209.0</ele><time>2026-03-27T16:30:07.649Z</time></trkpt><trkpt lat="44.8710233" lon="9.64156"><ele>209.0</ele><time>2026-03-27T16:30:08.65Z</time></trkpt><trkpt lat="44.87114" lon="9.6416867"><ele>209.0</ele><time>2026-03-27T16:30:09.649Z</time></trkpt><trkpt lat="44.8712433" lon="9.6418167"><ele>208.25</ele><time>2026-03-27T16:30:10.648Z</time></trkpt><trkpt lat="44.8713433" lon="9.6419483"><ele>207.5</ele><time>2026-03-27T16:30:11.648Z</time></trkpt><trkpt lat="44.8714383" lon="9.64208"><ele>206.75</ele><time>2026-03-27T16:30:12.648Z</time></trkpt><trkpt lat="44.8715367" lon="9.6422133"><ele>206.0</ele><time>2026-03-27T16:30:13.647Z</time></trkpt><trkpt lat="44.8716333" lon="9.6423417"><ele>206.0</ele><time>2026-03-27T16:30:14.649Z</time></trkpt><trkpt lat="44.8717317" lon="9.6424767"><ele>206.0</ele><time>2026-03-27T16:30:15.652Z</time></trkpt><trkpt lat="44.8718317" lon="9.6426067"><ele>206.0</ele><time>2026-03-27T16:30:16.647Z</time></trkpt><trkpt lat="44.8719233" lon="9.6427367"><ele>206.0</ele><time>2026-03-27T16:30:17.648Z</time></trkpt><trkpt lat="44.872015" lon="9.6428533"><ele>205.5</ele><time>2026-03-27T16:30:18.647Z</time></trkpt><trkpt lat="44.8721033" lon="9.6429717"><ele>205.0</ele><time>2026-03-27T16:30:19.647Z</time></trkpt><trkpt lat="44.87219" lon="9.6430917"><ele>204.5</ele><time>2026-03-27T16:30:20.654Z</time></trkpt><trkpt lat="44.87227" lon="9.6431967"><ele>204.0</ele><time>2026-03-27T16:30:21.647Z</time></trkpt><trkpt lat="44.8723467" lon="9.6432983"><ele>204.0</ele><time>2026-03-27T16:30:22.649Z</time></trkpt><trkpt lat="44.8724117" lon="9.6433933"><ele>204.0</ele><time>2026-03-27T16:30:23.647Z</time></trkpt><trkpt lat="44.8724783" lon="9.6434967"><ele>204.0</ele><time>2026-03-27T16:30:24.646Z</time></trkpt><trkpt lat="44.872545" lon="9.6436083"><ele>204.0</ele><time>2026-03-27T16:30:25.653Z</time></trkpt><trkpt lat="44.8726183" lon="9.6437233"><ele>204.0</ele><time>2026-03-27T16:30:26.647Z</time></trkpt><trkpt lat="44.872705" lon="9.6438433"><ele>202.75</ele><time>2026-03-27T16:30:27.648Z</time></trkpt><trkpt lat="44.8728033" lon="9.64396"><ele>201.5</ele><time>2026-03-27T16:30:28.649Z</time></trkpt><trkpt lat="44.8729167" lon="9.6440533"><ele>200.25</ele><time>2026-03-27T16:30:29.649Z</time></trkpt><trkpt lat="44.8730367" lon="9.6440883"><ele>199.0</ele><time>2026-03-27T16:30:30.649Z</time></trkpt><trkpt lat="44.8731567" lon="9.6440683"><ele>199.0</ele><time>2026-03-27T16:30:31.648Z</time></trkpt><trkpt lat="44.873275" lon="9.644015"><ele>199.0</ele><time>2026-03-27T16:30:32.65Z</time></trkpt><trkpt lat="44.8733817" lon="9.6439617"><ele>199.0</ele><time>2026-03-27T16:30:33.649Z</time></trkpt><trkpt lat="44.8734817" lon="9.6439117"><ele>199.0</ele><time>2026-03-27T16:30:34.648Z</time></trkpt><trkpt lat="44.8735717" lon="9.643865"><ele>199.0</ele><time>2026-03-27T16:30:35.649Z</time></trkpt><trkpt lat="44.8736567" lon="9.643825"><ele>198.99999999999997</ele><time>2026-03-27T16:30:36.649Z</time></trkpt><trkpt lat="44.873735" lon="9.64379"><ele>199.0</ele><time>2026-03-27T16:30:37.65Z</time></trkpt><trkpt lat="44.8738083" lon="9.64376"><ele>199.0</ele><time>2026-03-27T16:30:38.65Z</time></trkpt><trkpt lat="44.8738817" lon="9.6437267"><ele>199.0</ele><time>2026-03-27T16:30:39.649Z</time></trkpt><trkpt lat="44.873955" lon="9.643695"><ele>198.99999999999997</ele><time>2026-03-27T16:30:40.649Z</time></trkpt><trkpt lat="44.8740233" lon="9.6436667"><ele>199.0</ele><time>2026-03-27T16:30:41.647Z</time></trkpt><trkpt lat="44.8740883" lon="9.6436417"><ele>199.66666666666666</ele><time>2026-03-27T16:30:42.648Z</time></trkpt><trkpt lat="44.8741583" lon="9.6436133"><ele>200.33333333333331</ele><time>2026-03-27T16:30:43.648Z</time></trkpt><trkpt lat="44.8742333" lon="9.6435717"><ele>201.0</ele><time>2026-03-27T16:30:44.648Z</time></trkpt><trkpt lat="44.8743017" lon="9.6435117"><ele>201.66666666666669</ele><time>2026-03-27T16:30:45.648Z</time></trkpt><trkpt lat="44.8743617" lon="9.6434167"><ele>202.33333333333334</ele><time>2026-03-27T16:30:46.648Z</time></trkpt><trkpt lat="44.87439" lon="9.643275"><ele>203.0</ele><time>2026-03-27T16:30:47.647Z</time></trkpt><trkpt lat="44.8744017" lon="9.6431117"><ele>210.4</ele><time>2026-03-27T16:30:48.647Z</time></trkpt><trkpt lat="44.8744083" lon="9.6429567"><ele>217.8</ele><time>2026-03-27T16:30:49.648Z</time></trkpt><trkpt lat="44.87441" lon="9.6428233"><ele>225.2</ele><time>2026-03-27T16:30:50.649Z</time></trkpt><trkpt lat="44.87441" lon="9.64269"><ele>232.6</ele><time>2026-03-27T16:30:51.648Z</time></trkpt><trkpt lat="44.8744117" lon="9.6425467"><ele>240.0</ele><time>2026-03-27T16:30:52.647Z</time></trkpt><trkpt lat="44.874415" lon="9.6424017"><ele>243.25</ele><time>2026-03-27T16:30:53.647Z</time></trkpt><trkpt lat="44.8744167" lon="9.6422483"><ele>246.5</ele><time>2026-03-27T16:30:54.647Z</time></trkpt><trkpt lat="44.874415" lon="9.64208"><ele>249.75</ele><time>2026-03-27T16:30:55.649Z</time></trkpt><trkpt lat="44.8744183" lon="9.6419"><ele>253.0</ele><time>2026-03-27T16:30:56.649Z</time></trkpt><trkpt lat="44.8744267" lon="9.6417083"><ele>253.0</ele><time>2026-03-27T16:30:57.65Z</time></trkpt><trkpt lat="44.8744383" lon="9.64151"><ele>253.0</ele><time>2026-03-27T16:30:58.649Z</time></trkpt><trkpt lat="44.874455" lon="9.641295"><ele>253.0</ele><time>2026-03-27T16:30:59.648Z</time></trkpt><trkpt lat="44.8744717" lon="9.6410633"><ele>252.66666666666666</ele><time>2026-03-27T16:31:00.648Z</time></trkpt><trkpt lat="44.8744883" lon="9.6408233"><ele>252.33333333333331</ele><time>2026-03-27T16:31:01.648Z</time></trkpt><trkpt lat="44.8745" lon="9.6405783"><ele>252.0</ele><time>2026-03-27T16:31:02.648Z</time></trkpt><trkpt lat="44.8745017" lon="9.64032"><ele>252.0</ele><time>2026-03-27T16:31:03.648Z</time></trkpt><trkpt lat="44.8745017" lon="9.640055"><ele>252.0</ele><time>2026-03-27T16:31:04.65Z</time></trkpt><trkpt lat="44.874505" lon="9.639805"><ele>252.0</ele><time>2026-03-27T16:31:05.649Z</time></trkpt><trkpt lat="44.8745083" lon="9.6395767"><ele>253.0</ele><time>2026-03-27T16:31:06.649Z</time></trkpt><trkpt lat="44.8745167" lon="9.6393833"><ele>254.0</ele><time>2026-03-27T16:31:07.65Z</time></trkpt><trkpt lat="44.874535" lon="9.6392217"><ele>255.0</ele><time>2026-03-27T16:31:08.647Z</time></trkpt><trkpt lat="44.8745717" lon="9.639065"><ele>256.0</ele><time>2026-03-27T16:31:09.653Z</time></trkpt><trkpt lat="44.8746267" lon="9.6389067"><ele>256.0</ele><time>2026-03-27T16:31:10.648Z</time></trkpt><trkpt lat="44.8747" lon="9.638735"><ele>256.0</ele><time>2026-03-27T16:31:11.647Z</time></trkpt><trkpt lat="44.8747767" lon="9.6385533"><ele>256.0</ele><time>2026-03-27T16:31:12.647Z</time></trkpt><trkpt lat="44.8748517" lon="9.6383717"><ele>256.0</ele><time>2026-03-27T16:31:13.65Z</time></trkpt><trkpt lat="44.8749267" lon="9.638185"><ele>256.66666666666663</ele><time>2026-03-27T16:31:14.649Z</time></trkpt><trkpt lat="44.8750075" lon="9.6379995"><ele>257.3333333333333</ele><time>2026-03-27T16:31:15.648Z</time></trkpt><trkpt lat="44.875084" lon="9.6378096"><ele>258.0</ele><time>2026-03-27T16:31:16.647Z</time></trkpt><trkpt lat="44.8751491" lon="9.6376026"><ele>268.3333333333333</ele><time>2026-03-27T16:31:17.648Z</time></trkpt><trkpt lat="44.8752011" lon="9.6373847"><ele>278.66666666666663</ele><time>2026-03-27T16:31:18.646Z</time></trkpt><trkpt lat="44.875254" lon="9.6371595"><ele>289.0</ele><time>2026-03-27T16:31:19.652Z</time></trkpt><trkpt lat="44.8753048" lon="9.636938"><ele>289.3333333333333</ele><time>2026-03-27T16:31:20.647Z</time></trkpt><trkpt lat="44.8753431" lon="9.6367181"><ele>289.6666666666667</ele><time>2026-03-27T16:31:21.649Z</time></trkpt><trkpt lat="44.8753745" lon="9.6365"><ele>290.0</ele><time>2026-03-27T16:31:22.649Z</time></trkpt><trkpt lat="44.8754165" lon="9.6362789"><ele>290.33333333333337</ele><time>2026-03-27T16:31:23.647Z</time></trkpt><trkpt lat="44.8754691" lon="9.6360588"><ele>290.6666666666667</ele><time>2026-03-27T16:31:24.649Z</time></trkpt><trkpt lat="44.8755159" lon="9.6358356"><ele>291.0</ele><time>2026-03-27T16:31:25.646Z</time></trkpt><trkpt lat="44.8755364" lon="9.6356081"><ele>291.0</ele><time>2026-03-27T16:31:26.652Z</time></trkpt><trkpt lat="44.8755229" lon="9.6353856"><ele>291.0</ele><time>2026-03-27T16:31:27.648Z</time></trkpt><trkpt lat="44.8754838" lon="9.6351712"><ele>291.0</ele><time>2026-03-27T16:31:28.648Z</time></trkpt><trkpt lat="44.875426" lon="9.6349588"><ele>293.0</ele><time>2026-03-27T16:31:29.649Z</time></trkpt><trkpt lat="44.8753482" lon="9.6347515"><ele>295.0</ele><time>2026-03-27T16:31:30.648Z</time></trkpt><trkpt lat="44.8752621" lon="9.6345431"><ele>297.0</ele><time>2026-03-27T16:31:31.652Z</time></trkpt><trkpt lat="44.8751891" lon="9.6343299"><ele>296.25</ele><time>2026-03-27T16:31:32.648Z</time></trkpt><trkpt lat="44.8751317" lon="9.6341214"><ele>295.5</ele><time>2026-03-27T16:31:33.647Z</time></trkpt><trkpt lat="44.8750861" lon="9.6339426"><ele>294.75</ele><time>2026-03-27T16:31:34.647Z</time></trkpt><trkpt lat="44.875047" lon="9.6337875"><ele>294.0</ele><time>2026-03-27T16:31:35.648Z</time></trkpt><trkpt lat="44.8750085" lon="9.6336463"><ele>295.4</ele><time>2026-03-27T16:31:36.649Z</time></trkpt><trkpt lat="44.8749708" lon="9.6335062"><ele>296.79999999999995</ele><time>2026-03-27T16:31:37.648Z</time></trkpt><trkpt lat="44.8749487" lon="9.6333648"><ele>298.20000000000005</ele><time>2026-03-27T16:31:38.654Z</time></trkpt><trkpt lat="44.8749499" lon="9.6332183"><ele>299.6</ele><time>2026-03-27T16:31:39.649Z</time></trkpt><trkpt lat="44.8749808" lon="9.6330641"><ele>301.0</ele><time>2026-03-27T16:31:40.647Z</time></trkpt><trkpt lat="44.8750303" lon="9.6328951"><ele>301.25</ele><time>2026-03-27T16:31:41.647Z</time></trkpt><trkpt lat="44.8750714" lon="9.6327036"><ele>301.5</ele><time>2026-03-27T16:31:42.647Z</time></trkpt><trkpt lat="44.8750895" lon="9.6324986"><ele>301.75</ele><time>2026-03-27T16:31:43.647Z</time></trkpt><trkpt lat="44.8751049" lon="9.6322868"><ele>302.0</ele><time>2026-03-27T16:31:44.648Z</time></trkpt><trkpt lat="44.8751424" lon="9.6320756"><ele>301.33333333333337</ele><time>2026-03-27T16:31:45.648Z</time></trkpt><trkpt lat="44.8752175" lon="9.631876"><ele>300.6666666666667</ele><time>2026-03-27T16:31:46.653Z</time></trkpt><trkpt lat="44.8753188" lon="9.631681"><ele>300.0</ele><time>2026-03-27T16:31:47.647Z</time></trkpt><trkpt lat="44.8754255" lon="9.6314838"><ele>300.0</ele><time>2026-03-27T16:31:48.648Z</time></trkpt><trkpt lat="44.8755253" lon="9.6312853"><ele>300.0</ele><time>2026-03-27T16:31:49.651Z</time></trkpt><trkpt lat="44.8756121" lon="9.6310922"><ele>300.0</ele><time>2026-03-27T16:31:50.647Z</time></trkpt><trkpt lat="44.8756915" lon="9.6309137"><ele>302.0</ele><time>2026-03-27T16:31:51.646Z</time></trkpt><trkpt lat="44.8757606" lon="9.6307426"><ele>304.0</ele><time>2026-03-27T16:31:52.652Z</time></trkpt><trkpt lat="44.8758091" lon="9.6305608"><ele>306.0</ele><time>2026-03-27T16:31:53.647Z</time></trkpt><trkpt lat="44.8758265" lon="9.6303547"><ele>308.0</ele><time>2026-03-27T16:31:54.648Z</time></trkpt><trkpt lat="44.875834" lon="9.6301398"><ele>309.75</ele><time>2026-03-27T16:31:55.647Z</time></trkpt><trkpt lat="44.875842" lon="9.6299266"><ele>311.5</ele><time>2026-03-27T16:31:56.647Z</time></trkpt><trkpt lat="44.8758627" lon="9.6297226"><ele>313.25</ele><time>2026-03-27T16:31:57.649Z</time></trkpt><trkpt lat="44.8759044" lon="9.6295246"><ele>315.0</ele><time>2026-03-27T16:31:58.647Z</time></trkpt><trkpt lat="44.8759617" lon="9.6293241"><ele>319.25</ele><time>2026-03-27T16:31:59.647Z</time></trkpt><trkpt lat="44.8760144" lon="9.6291228"><ele>323.5</ele><time>2026-03-27T16:32:00.648Z</time></trkpt><trkpt lat="44.8760546" lon="9.6289268"><ele>327.75</ele><time>2026-03-27T16:32:01.647Z</time></trkpt><trkpt lat="44.8760837" lon="9.6287302"><ele>332.0</ele><time>2026-03-27T16:32:02.648Z</time></trkpt><trkpt lat="44.876108" lon="9.6285311"><ele>332.25</ele><time>2026-03-27T16:32:03.647Z</time></trkpt><trkpt lat="44.8761183" lon="9.6283267"><ele>332.5</ele><time>2026-03-27T16:32:04.648Z</time></trkpt><trkpt lat="44.8761" lon="9.628125"><ele>332.75</ele><time>2026-03-27T16:32:05.647Z</time></trkpt><trkpt lat="44.87607" lon="9.62792"><ele>333.0</ele><time>2026-03-27T16:32:06.649Z</time></trkpt><trkpt lat="44.8760417" lon="9.6277133"><ele>330.0</ele><time>2026-03-27T16:32:07.649Z</time></trkpt><trkpt lat="44.8760183" lon="9.6274933"><ele>327.0</ele><time>2026-03-27T16:32:08.648Z</time></trkpt><trkpt lat="44.8760083" lon="9.6272733"><ele>324.0</ele><time>2026-03-27T16:32:09.647Z</time></trkpt><trkpt lat="44.8760183" lon="9.6270583"><ele>322.25</ele><time>2026-03-27T16:32:10.648Z</time></trkpt><trkpt lat="44.87605" lon="9.6268517"><ele>320.5</ele><time>2026-03-27T16:32:11.648Z</time></trkpt><trkpt lat="44.87608" lon="9.62666"><ele>318.75</ele><time>2026-03-27T16:32:12.647Z</time></trkpt><trkpt lat="44.8760867" lon="9.6264683"><ele>317.0</ele><time>2026-03-27T16:32:13.647Z</time></trkpt><trkpt lat="44.8760667" lon="9.6262767"><ele>317.0</ele><time>2026-03-27T16:32:14.648Z</time></trkpt><trkpt lat="44.87603" lon="9.6260833"><ele>317.0</ele><time>2026-03-27T16:32:15.647Z</time></trkpt><trkpt lat="44.8759717" lon="9.6258883"><ele>317.0</ele><time>2026-03-27T16:32:16.647Z</time></trkpt><trkpt lat="44.8758983" lon="9.625685"><ele>322.6666666666667</ele><time>2026-03-27T16:32:17.648Z</time></trkpt><trkpt lat="44.8758067" lon="9.6255"><ele>328.3333333333333</ele><time>2026-03-27T16:32:18.648Z</time></trkpt><trkpt lat="44.8757067" lon="9.6253233"><ele>334.0</ele><time>2026-03-27T16:32:19.65Z</time></trkpt><trkpt lat="44.8755983" lon="9.62516"><ele>334.0</ele><time>2026-03-27T16:32:20.648Z</time></trkpt><trkpt lat="44.8754867" lon="9.6250233"><ele>334.0</ele><time>2026-03-27T16:32:21.648Z</time></trkpt><trkpt lat="44.8753767" lon="9.624895"><ele>334.0</ele><time>2026-03-27T16:32:22.648Z</time></trkpt><trkpt lat="44.87528" lon="9.62477"><ele>334.0</ele><time>2026-03-27T16:32:23.648Z</time></trkpt><trkpt lat="44.875195" lon="9.6246533"><ele>334.0</ele><time>2026-03-27T16:32:24.647Z</time></trkpt><trkpt lat="44.8751183" lon="9.62454"><ele>334.0</ele><time>2026-03-27T16:32:25.65Z</time></trkpt><trkpt lat="44.8750517" lon="9.6244317"><ele>334.0</ele><time>2026-03-27T16:32:26.647Z</time></trkpt><trkpt lat="44.8750133" lon="9.6243133"><ele>334.0</ele><time>2026-03-27T16:32:27.647Z</time></trkpt><trkpt lat="44.8749983" lon="9.6241767"><ele>334.0</ele><time>2026-03-27T16:32:28.649Z</time></trkpt><trkpt lat="44.8750117" lon="9.6240383"><ele>334.75</ele><time>2026-03-27T16:32:29.648Z</time></trkpt><trkpt lat="44.8750667" lon="9.623915"><ele>335.5</ele><time>2026-03-27T16:32:30.649Z</time></trkpt><trkpt lat="44.8751633" lon="9.6238133"><ele>336.25</ele><time>2026-03-27T16:32:31.65Z</time></trkpt><trkpt lat="44.8752833" lon="9.62375"><ele>337.0</ele><time>2026-03-27T16:32:32.648Z</time></trkpt><trkpt lat="44.87543" lon="9.6237317"><ele>333.66666666666663</ele><time>2026-03-27T16:32:33.648Z</time></trkpt><trkpt lat="44.8755967" lon="9.62374"><ele>330.3333333333333</ele><time>2026-03-27T16:32:34.648Z</time></trkpt><trkpt lat="44.875765" lon="9.6237483"><ele>327.0</ele><time>2026-03-27T16:32:35.649Z</time></trkpt><trkpt lat="44.8759283" lon="9.62375"><ele>326.3333333333333</ele><time>2026-03-27T16:32:36.65Z</time></trkpt><trkpt lat="44.87609" lon="9.6237467"><ele>325.66666666666663</ele><time>2026-03-27T16:32:37.649Z</time></trkpt><trkpt lat="44.87624" lon="9.6237467"><ele>325.0</ele><time>2026-03-27T16:32:38.647Z</time></trkpt><trkpt lat="44.876385" lon="9.6237517"><ele>325.0</ele><time>2026-03-27T16:32:39.652Z</time></trkpt><trkpt lat="44.8765267" lon="9.623755"><ele>325.0</ele><time>2026-03-27T16:32:40.65Z</time></trkpt><trkpt lat="44.876665" lon="9.6237617"><ele>325.0</ele><time>2026-03-27T16:32:41.65Z</time></trkpt><trkpt lat="44.87681" lon="9.6238017"><ele>325.0</ele><time>2026-03-27T16:32:42.648Z</time></trkpt><trkpt lat="44.876965" lon="9.623865"><ele>325.0</ele><time>2026-03-27T16:32:43.647Z</time></trkpt><trkpt lat="44.8771317" lon="9.6239433"><ele>325.0</ele><time>2026-03-27T16:32:44.65Z</time></trkpt><trkpt lat="44.87731" lon="9.62402"><ele>325.0</ele><time>2026-03-27T16:32:45.647Z</time></trkpt><trkpt lat="44.8774967" lon="9.6241"><ele>325.3333333333333</ele><time>2026-03-27T16:32:46.649Z</time></trkpt><trkpt lat="44.8776883" lon="9.624175"><ele>325.6666666666667</ele><time>2026-03-27T16:32:47.648Z</time></trkpt><trkpt lat="44.8778733" lon="9.624255"><ele>326.0</ele><time>2026-03-27T16:32:48.647Z</time></trkpt><trkpt lat="44.8780567" lon="9.62434"><ele>326.0</ele><time>2026-03-27T16:32:49.649Z</time></trkpt><trkpt lat="44.8782417" lon="9.624425"><ele>326.0</ele><time>2026-03-27T16:32:50.647Z</time></trkpt><trkpt lat="44.8784283" lon="9.6245067"><ele>326.0</ele><time>2026-03-27T16:32:51.648Z</time></trkpt><trkpt lat="44.8786117" lon="9.62459"><ele>323.33333333333337</ele><time>2026-03-27T16:32:52.648Z</time></trkpt><trkpt lat="44.878795" lon="9.62468"><ele>320.6666666666667</ele><time>2026-03-27T16:32:53.651Z</time></trkpt><trkpt lat="44.8789733" lon="9.6247583"><ele>318.0</ele><time>2026-03-27T16:32:54.647Z</time></trkpt><trkpt lat="44.87914" lon="9.6248233"><ele>319.25</ele><time>2026-03-27T16:32:55.647Z</time></trkpt><trkpt lat="44.8792917" lon="9.6248633"><ele>320.5</ele><time>2026-03-27T16:32:56.647Z</time></trkpt><trkpt lat="44.8794367" lon="9.6248667"><ele>321.75</ele><time>2026-03-27T16:32:57.647Z</time></trkpt><trkpt lat="44.8795583" lon="9.6248233"><ele>323.0</ele><time>2026-03-27T16:32:58.648Z</time></trkpt><trkpt lat="44.8796567" lon="9.6247467"><ele>323.0</ele><time>2026-03-27T16:32:59.649Z</time></trkpt><trkpt lat="44.8797467" lon="9.62466"><ele>323.0</ele><time>2026-03-27T16:33:00.652Z</time></trkpt><trkpt lat="44.8798283" lon="9.62456"><ele>323.0</ele><time>2026-03-27T16:33:01.649Z</time></trkpt><trkpt lat="44.879895" lon="9.6244333"><ele>323.0</ele><time>2026-03-27T16:33:02.649Z</time></trkpt><trkpt lat="44.8799333" lon="9.624295"><ele>323.0</ele><time>2026-03-27T16:33:03.647Z</time></trkpt><trkpt lat="44.8799333" lon="9.6241517"><ele>323.5</ele><time>2026-03-27T16:33:04.647Z</time></trkpt><trkpt lat="44.8798883" lon="9.6240017"><ele>324.0</ele><time>2026-03-27T16:33:05.65Z</time></trkpt><trkpt lat="44.8798117" lon="9.623845"><ele>324.5</ele><time>2026-03-27T16:33:06.65Z</time></trkpt><trkpt lat="44.87972" lon="9.6236717"><ele>325.0</ele><time>2026-03-27T16:33:07.648Z</time></trkpt><trkpt lat="44.8796283" lon="9.6234833"><ele>323.3333333333333</ele><time>2026-03-27T16:33:08.648Z</time></trkpt><trkpt lat="44.8795483" lon="9.62329"><ele>321.6666666666667</ele><time>2026-03-27T16:33:09.647Z</time></trkpt><trkpt lat="44.8794817" lon="9.6230967"><ele>320.0</ele><time>2026-03-27T16:33:10.647Z</time></trkpt><trkpt lat="44.879425" lon="9.6228867"><ele>321.0</ele><time>2026-03-27T16:33:11.647Z</time></trkpt><trkpt lat="44.87937" lon="9.62266"><ele>322.0</ele><time>2026-03-27T16:33:12.647Z</time></trkpt><trkpt lat="44.879305" lon="9.62243"><ele>323.0</ele><time>2026-03-27T16:33:13.649Z</time></trkpt><trkpt lat="44.8792367" lon="9.6221967"><ele>326.33333333333337</ele><time>2026-03-27T16:33:14.648Z</time></trkpt><trkpt lat="44.8791617" lon="9.6219617"><ele>329.6666666666667</ele><time>2026-03-27T16:33:15.649Z</time></trkpt><trkpt lat="44.8790933" lon="9.62173"><ele>333.0</ele><time>2026-03-27T16:33:16.647Z</time></trkpt><trkpt lat="44.8790433" lon="9.621515"><ele>333.0</ele><time>2026-03-27T16:33:17.649Z</time></trkpt><trkpt lat="44.87903" lon="9.6213117"><ele>333.0</ele><time>2026-03-27T16:33:18.647Z</time></trkpt><trkpt lat="44.8790517" lon="9.621115"><ele>333.0</ele><time>2026-03-27T16:33:19.647Z</time></trkpt><trkpt lat="44.87912" lon="9.6209267"><ele>333.0</ele><time>2026-03-27T16:33:20.649Z</time></trkpt><trkpt lat="44.8792317" lon="9.6207683"><ele>334.6666666666667</ele><time>2026-03-27T16:33:21.648Z</time></trkpt><trkpt lat="44.8793783" lon="9.6206667"><ele>336.33333333333337</ele><time>2026-03-27T16:33:22.647Z</time></trkpt><trkpt lat="44.8795467" lon="9.620635"><ele>338.0</ele><time>2026-03-27T16:33:23.647Z</time></trkpt><trkpt lat="44.8797233" lon="9.62066"><ele>338.0</ele><time>2026-03-27T16:33:24.647Z</time></trkpt><trkpt lat="44.879905" lon="9.62071"><ele>338.0</ele><time>2026-03-27T16:33:25.648Z</time></trkpt><trkpt lat="44.8800883" lon="9.6207583"><ele>338.0</ele><time>2026-03-27T16:33:26.66Z</time></trkpt><trkpt lat="44.880265" lon="9.62079"><ele>339.5</ele><time>2026-03-27T16:33:27.647Z</time></trkpt><trkpt lat="44.8804183" lon="9.6208167"><ele>341.0</ele><time>2026-03-27T16:33:28.646Z</time></trkpt><trkpt lat="44.880555" lon="9.6208483"><ele>342.5</ele><time>2026-03-27T16:33:29.647Z</time></trkpt><trkpt lat="44.8806783" lon="9.6208933"><ele>344.0</ele><time>2026-03-27T16:33:30.647Z</time></trkpt><trkpt lat="44.8807967" lon="9.6209733"><ele>344.0</ele><time>2026-03-27T16:33:31.65Z</time></trkpt><trkpt lat="44.8808983" lon="9.62107"><ele>344.0</ele><time>2026-03-27T16:33:32.648Z</time></trkpt><trkpt lat="44.8809917" lon="9.6211417"><ele>344.0</ele><time>2026-03-27T16:33:33.649Z</time></trkpt><trkpt lat="44.8810817" lon="9.621185"><ele>344.0</ele><time>2026-03-27T16:33:34.647Z</time></trkpt><trkpt lat="44.8811617" lon="9.62117"><ele>344.0</ele><time>2026-03-27T16:33:35.647Z</time></trkpt><trkpt lat="44.8812383" lon="9.6211217"><ele>341.25</ele><time>2026-03-27T16:33:36.648Z</time></trkpt><trkpt lat="44.8813017" lon="9.6210233"><ele>338.5</ele><time>2026-03-27T16:33:37.647Z</time></trkpt><trkpt lat="44.881305" lon="9.62086"><ele>335.75</ele><time>2026-03-27T16:33:38.648Z</time></trkpt><trkpt lat="44.8812767" lon="9.62069"><ele>333.0</ele><time>2026-03-27T16:33:39.649Z</time></trkpt><trkpt lat="44.8812333" lon="9.6205117"><ele>332.75</ele><time>2026-03-27T16:33:40.648Z</time></trkpt><trkpt lat="44.8812" lon="9.620315"><ele>332.5</ele><time>2026-03-27T16:33:41.649Z</time></trkpt><trkpt lat="44.8812" lon="9.6201133"><ele>332.25</ele><time>2026-03-27T16:33:42.649Z</time></trkpt><trkpt lat="44.8812267" lon="9.61992"><ele>332.0</ele><time>2026-03-27T16:33:43.648Z</time></trkpt><trkpt lat="44.8813067" lon="9.61976"><ele>332.0</ele><time>2026-03-27T16:33:44.647Z</time></trkpt><trkpt lat="44.881395" lon="9.6196217"><ele>332.0</ele><time>2026-03-27T16:33:45.647Z</time></trkpt><trkpt lat="44.8814717" lon="9.6194633"><ele>332.0</ele><time>2026-03-27T16:33:46.647Z</time></trkpt><trkpt lat="44.881515" lon="9.6192867"><ele>332.0</ele><time>2026-03-27T16:33:47.647Z</time></trkpt><trkpt lat="44.8815283" lon="9.6191033"><ele>332.0</ele><time>2026-03-27T16:33:48.647Z</time></trkpt><trkpt lat="44.8815217" lon="9.6189133"><ele>332.0</ele><time>2026-03-27T16:33:49.647Z</time></trkpt><trkpt lat="44.8814983" lon="9.6187067"><ele>332.0</ele><time>2026-03-27T16:33:50.649Z</time></trkpt><trkpt lat="44.88146" lon="9.6184867"><ele>332.0</ele><time>2026-03-27T16:33:51.648Z</time></trkpt><trkpt lat="44.8814033" lon="9.61826"><ele>332.0</ele><time>2026-03-27T16:33:52.649Z</time></trkpt><trkpt lat="44.8813517" lon="9.6180217"><ele>332.0</ele><time>2026-03-27T16:33:53.647Z</time></trkpt><trkpt lat="44.8813183" lon="9.6177733"><ele>332.0</ele><time>2026-03-27T16:33:54.648Z</time></trkpt><trkpt lat="44.8812983" lon="9.617535"><ele>332.25</ele><time>2026-03-27T16:33:55.647Z</time></trkpt><trkpt lat="44.8812833" lon="9.6173083"><ele>332.5</ele><time>2026-03-27T16:33:56.647Z</time></trkpt><trkpt lat="44.8812883" lon="9.6171067"><ele>332.75</ele><time>2026-03-27T16:33:57.647Z</time></trkpt><trkpt lat="44.8813417" lon="9.6169267"><ele>333.0</ele><time>2026-03-27T16:33:58.65Z</time></trkpt><trkpt lat="44.8814367" lon="9.61677"><ele>332.5</ele><time>2026-03-27T16:33:59.649Z</time></trkpt><trkpt lat="44.881555" lon="9.6166417"><ele>332.0</ele><time>2026-03-27T16:34:00.649Z</time></trkpt><trkpt lat="44.881675" lon="9.6165167"><ele>331.5</ele><time>2026-03-27T16:34:01.649Z</time></trkpt><trkpt lat="44.8817783" lon="9.6163683"><ele>331.0</ele><time>2026-03-27T16:34:02.649Z</time></trkpt><trkpt lat="44.8818617" lon="9.6162"><ele>333.25</ele><time>2026-03-27T16:34:03.647Z</time></trkpt><trkpt lat="44.8819283" lon="9.6160133"><ele>335.5</ele><time>2026-03-27T16:34:04.649Z</time></trkpt><trkpt lat="44.8819933" lon="9.615825"><ele>337.75</ele><time>2026-03-27T16:34:05.648Z</time></trkpt><trkpt lat="44.8820733" lon="9.6156583"><ele>340.0</ele><time>2026-03-27T16:34:06.648Z</time></trkpt><trkpt lat="44.8821733" lon="9.6155383"><ele>340.0</ele><time>2026-03-27T16:34:07.648Z</time></trkpt><trkpt lat="44.8822933" lon="9.6154767"><ele>340.0</ele><time>2026-03-27T16:34:08.652Z</time></trkpt><trkpt lat="44.882425" lon="9.615485"><ele>340.0</ele><time>2026-03-27T16:34:09.648Z</time></trkpt><trkpt lat="44.882545" lon="9.6155667"><ele>340.0</ele><time>2026-03-27T16:34:10.648Z</time></trkpt><trkpt lat="44.8826383" lon="9.6157083"><ele>339.0</ele><time>2026-03-27T16:34:11.647Z</time></trkpt><trkpt lat="44.8827" lon="9.61589"><ele>338.0</ele><time>2026-03-27T16:34:12.647Z</time></trkpt><trkpt lat="44.882755" lon="9.61607"><ele>337.0</ele><time>2026-03-27T16:34:13.649Z</time></trkpt><trkpt lat="44.8828133" lon="9.6162317"><ele>336.0</ele><time>2026-03-27T16:34:14.65Z</time></trkpt><trkpt lat="44.8828767" lon="9.6163717"><ele>336.0</ele><time>2026-03-27T16:34:15.647Z</time></trkpt><trkpt lat="44.8829583" lon="9.6164633"><ele>336.0</ele><time>2026-03-27T16:34:16.647Z</time></trkpt><trkpt lat="44.883055" lon="9.61652"><ele>336.0</ele><time>2026-03-27T16:34:17.648Z</time></trkpt><trkpt lat="44.8831633" lon="9.6165233"><ele>336.0</ele><time>2026-03-27T16:34:18.648Z</time></trkpt><trkpt lat="44.88329" lon="9.61647"><ele>336.0</ele><time>2026-03-27T16:34:19.648Z</time></trkpt><trkpt lat="44.883425" lon="9.6164083"><ele>337.3333333333333</ele><time>2026-03-27T16:34:20.648Z</time></trkpt><trkpt lat="44.8835667" lon="9.6163717"><ele>338.66666666666663</ele><time>2026-03-27T16:34:21.649Z</time></trkpt><trkpt lat="44.88372" lon="9.6163817"><ele>340.0</ele><time>2026-03-27T16:34:22.647Z</time></trkpt><trkpt lat="44.8838733" lon="9.6164233"><ele>340.0</ele><time>2026-03-27T16:34:23.648Z</time></trkpt><trkpt lat="44.8840283" lon="9.6164817"><ele>340.0</ele><time>2026-03-27T16:34:24.648Z</time></trkpt><trkpt lat="44.8841733" lon="9.6165367"><ele>340.0</ele><time>2026-03-27T16:34:25.647Z</time></trkpt><trkpt lat="44.8843283" lon="9.6165783"><ele>340.66666666666663</ele><time>2026-03-27T16:34:26.647Z</time></trkpt><trkpt lat="44.8844833" lon="9.6165967"><ele>341.3333333333333</ele><time>2026-03-27T16:34:27.647Z</time></trkpt><trkpt lat="44.8846417" lon="9.6166"><ele>342.0</ele><time>2026-03-27T16:34:28.647Z</time></trkpt><trkpt lat="44.8848033" lon="9.6166017"><ele>342.0</ele><time>2026-03-27T16:34:29.647Z</time></trkpt><trkpt lat="44.8849567" lon="9.6166067"><ele>342.0</ele><time>2026-03-27T16:34:30.647Z</time></trkpt><trkpt lat="44.885095" lon="9.6166133"><ele>342.0</ele><time>2026-03-27T16:34:31.647Z</time></trkpt><trkpt lat="44.8852217" lon="9.6166183"><ele>342.0</ele><time>2026-03-27T16:34:32.648Z</time></trkpt><trkpt lat="44.8853317" lon="9.6166133"><ele>341.6666666666667</ele><time>2026-03-27T16:34:33.652Z</time></trkpt><trkpt lat="44.8854267" lon="9.616595"><ele>341.3333333333333</ele><time>2026-03-27T16:34:34.647Z</time></trkpt><trkpt lat="44.885515" lon="9.6165433"><ele>341.0</ele><time>2026-03-27T16:34:35.647Z</time></trkpt><trkpt lat="44.885575" lon="9.61646"><ele>340.66666666666663</ele><time>2026-03-27T16:34:36.647Z</time></trkpt><trkpt lat="44.885625" lon="9.61636"><ele>340.3333333333333</ele><time>2026-03-27T16:34:37.651Z</time></trkpt><trkpt lat="44.885665" lon="9.6162617"><ele>340.0</ele><time>2026-03-27T16:34:38.652Z</time></trkpt><trkpt lat="44.8857017" lon="9.616115"><ele>340.0</ele><time>2026-03-27T16:34:40.647Z</time></trkpt><trkpt lat="44.8858" lon="9.6161083"><ele>340.0</ele><time>2026-03-27T16:34:42.647Z</time></trkpt><trkpt lat="44.88589" lon="9.616135"><ele>340.0</ele><time>2026-03-27T16:34:44.647Z</time></trkpt><trkpt lat="44.8859467" lon="9.6161767"><ele>340.0</ele><time>2026-03-27T16:34:45.648Z</time></trkpt><trkpt lat="44.8860583" lon="9.6162533"><ele>340.0</ele><time>2026-03-27T16:34:47.655Z</time></trkpt><trkpt lat="44.8861167" lon="9.61629"><ele>340.0</ele><time>2026-03-27T16:34:48.649Z</time></trkpt><trkpt lat="44.886175" lon="9.616325"><ele>340.0</ele><time>2026-03-27T16:34:49.65Z</time></trkpt><trkpt lat="44.8862333" lon="9.6163617"><ele>340.0</ele><time>2026-03-27T16:34:50.65Z</time></trkpt><trkpt lat="44.8862967" lon="9.616395"><ele>340.0</ele><time>2026-03-27T16:34:51.65Z</time></trkpt><trkpt lat="44.8863733" lon="9.6164433"><ele>340.0</ele><time>2026-03-27T16:34:52.653Z</time></trkpt><trkpt lat="44.88645" lon="9.6164883"><ele>340.0</ele><time>2026-03-27T16:34:53.649Z</time></trkpt><trkpt lat="44.8865233" lon="9.6165367"><ele>340.0</ele><time>2026-03-27T16:34:54.647Z</time></trkpt><trkpt lat="44.88659" lon="9.6165883"><ele>340.0</ele><time>2026-03-27T16:34:55.649Z</time></trkpt><trkpt lat="44.88664" lon="9.61667"><ele>340.0</ele><time>2026-03-27T16:34:56.648Z</time></trkpt><trkpt lat="44.8866717" lon="9.6167717"><ele>340.0</ele><time>2026-03-27T16:34:57.647Z</time></trkpt><trkpt lat="44.8867033" lon="9.616875"><ele>340.0</ele><time>2026-03-27T16:34:58.649Z</time></trkpt><trkpt lat="44.8867317" lon="9.6169717"><ele>340.0</ele><time>2026-03-27T16:34:59.649Z</time></trkpt><trkpt lat="44.8867533" lon="9.6170633"><ele>340.0</ele><time>2026-03-27T16:35:00.653Z</time></trkpt><trkpt lat="44.8867767" lon="9.61715"><ele>340.0</ele><time>2026-03-27T16:35:01.65Z</time></trkpt><trkpt lat="44.8867983" lon="9.6172367"><ele>337.4</ele><time>2026-03-27T16:35:02.648Z</time></trkpt><trkpt lat="44.886835" lon="9.6174017"><ele>334.8</ele><time>2026-03-27T16:35:04.647Z</time></trkpt><trkpt lat="44.88688" lon="9.6175667"><ele>332.20000000000005</ele><time>2026-03-27T16:35:06.648Z</time></trkpt><trkpt lat="44.8869217" lon="9.6176967"><ele>329.6</ele><time>2026-03-27T16:35:08.648Z</time></trkpt><trkpt lat="44.88695" lon="9.6178083"><ele>327.0</ele><time>2026-03-27T16:35:11.65Z</time></trkpt><trkpt lat="44.886975" lon="9.6179633"><ele>326.7142857142857</ele><time>2026-03-27T16:35:35.648Z</time></trkpt><trkpt lat="44.8870133" lon="9.6181033"><ele>326.42857142857144</ele><time>2026-03-27T16:35:37.647Z</time></trkpt><trkpt lat="44.8870367" lon="9.6181933"><ele>326.1428571428571</ele><time>2026-03-27T16:35:38.648Z</time></trkpt><trkpt lat="44.887065" lon="9.6182833"><ele>325.8571428571429</ele><time>2026-03-27T16:35:39.649Z</time></trkpt><trkpt lat="44.88709" lon="9.6183683"><ele>325.5714285714286</ele><time>2026-03-27T16:35:40.655Z</time></trkpt><trkpt lat="44.887115" lon="9.61845"><ele>325.2857142857143</ele><time>2026-03-27T16:35:41.647Z</time></trkpt><trkpt lat="44.8871433" lon="9.6185417"><ele>325.0</ele><time>2026-03-27T16:35:42.647Z</time></trkpt><trkpt lat="44.8871833" lon="9.6186333"><ele>324.8333333333333</ele><time>2026-03-27T16:35:43.649Z</time></trkpt><trkpt lat="44.8872417" lon="9.6187217"><ele>324.66666666666663</ele><time>2026-03-27T16:35:44.649Z</time></trkpt><trkpt lat="44.8872983" lon="9.618795"><ele>324.5</ele><time>2026-03-27T16:35:45.647Z</time></trkpt><trkpt lat="44.88737" lon="9.6188417"><ele>324.3333333333333</ele><time>2026-03-27T16:35:46.65Z</time></trkpt><trkpt lat="44.887455" lon="9.6188767"><ele>324.1666666666667</ele><time>2026-03-27T16:35:47.648Z</time></trkpt><trkpt lat="44.8875433" lon="9.618915"><ele>324.0</ele><time>2026-03-27T16:35:48.649Z</time></trkpt><trkpt lat="44.887635" lon="9.6189633"><ele>322.2</ele><time>2026-03-27T16:35:49.648Z</time></trkpt><trkpt lat="44.8877283" lon="9.6190117"><ele>320.4</ele><time>2026-03-27T16:35:50.649Z</time></trkpt><trkpt lat="44.88782" lon="9.61906"><ele>318.6</ele><time>2026-03-27T16:35:51.648Z</time></trkpt><trkpt lat="44.88791" lon="9.6191017"><ele>316.8</ele><time>2026-03-27T16:35:52.647Z</time></trkpt><trkpt lat="44.888005" lon="9.6191433"><ele>315.0</ele><time>2026-03-27T16:35:53.648Z</time></trkpt><trkpt lat="44.888105" lon="9.619195"><ele>315.0</ele><time>2026-03-27T16:35:54.648Z</time></trkpt><trkpt lat="44.8881933" lon="9.6192517"><ele>315.0</ele><time>2026-03-27T16:35:55.647Z</time></trkpt><trkpt lat="44.8882617" lon="9.6193383"><ele>315.0</ele><time>2026-03-27T16:35:56.648Z</time></trkpt><trkpt lat="44.88831" lon="9.6194267"><ele>315.0</ele><time>2026-03-27T16:35:57.649Z</time></trkpt><trkpt lat="44.8883517" lon="9.619505"><ele>315.0</ele><time>2026-03-27T16:35:58.647Z</time></trkpt><trkpt lat="44.8883983" lon="9.6195717"><ele>315.0</ele><time>2026-03-27T16:35:59.648Z</time></trkpt><trkpt lat="44.8885383" lon="9.6195683"><ele>312.0</ele><time>2026-03-27T16:36:01.65Z</time></trkpt><trkpt lat="44.8886617" lon="9.619475"><ele>309.0</ele><time>2026-03-27T16:36:02.649Z</time></trkpt><trkpt lat="44.8887883" lon="9.6194033"><ele>306.0</ele><time>2026-03-27T16:36:03.648Z</time></trkpt><trkpt lat="44.88891" lon="9.6193617"><ele>303.0</ele><time>2026-03-27T16:36:04.647Z</time></trkpt><trkpt lat="44.8890267" lon="9.6193483"><ele>303.0</ele><time>2026-03-27T16:36:05.648Z</time></trkpt><trkpt lat="44.8891417" lon="9.6193433"><ele>303.0</ele><time>2026-03-27T16:36:06.651Z</time></trkpt><trkpt lat="44.88926" lon="9.6193367"><ele>303.0</ele><time>2026-03-27T16:36:07.65Z</time></trkpt><trkpt lat="44.88938" lon="9.6193283"><ele>303.0</ele><time>2026-03-27T16:36:08.648Z</time></trkpt><trkpt lat="44.8894983" lon="9.6193133"><ele>300.5</ele><time>2026-03-27T16:36:09.649Z</time></trkpt><trkpt lat="44.889615" lon="9.6193"><ele>298.0</ele><time>2026-03-27T16:36:10.647Z</time></trkpt><trkpt lat="44.8897283" lon="9.6192867"><ele>295.5</ele><time>2026-03-27T16:36:11.648Z</time></trkpt><trkpt lat="44.88984" lon="9.619275"><ele>293.0</ele><time>2026-03-27T16:36:12.649Z</time></trkpt><trkpt lat="44.88995" lon="9.61927"><ele>293.0</ele><time>2026-03-27T16:36:13.648Z</time></trkpt><trkpt lat="44.8900633" lon="9.6192717"><ele>293.0</ele><time>2026-03-27T16:36:14.648Z</time></trkpt><trkpt lat="44.89019" lon="9.61929"><ele>293.0</ele><time>2026-03-27T16:36:15.647Z</time></trkpt><trkpt lat="44.8903267" lon="9.6193367"><ele>293.0</ele><time>2026-03-27T16:36:16.647Z</time></trkpt><trkpt lat="44.8904733" lon="9.6194083"><ele>292.0</ele><time>2026-03-27T16:36:17.649Z</time></trkpt><trkpt lat="44.8906267" lon="9.6194933"><ele>291.0</ele><time>2026-03-27T16:36:18.649Z</time></trkpt><trkpt lat="44.8907783" lon="9.6195967"><ele>290.0</ele><time>2026-03-27T16:36:19.649Z</time></trkpt><trkpt lat="44.8909283" lon="9.61968"><ele>289.0</ele><time>2026-03-27T16:36:20.649Z</time></trkpt><trkpt lat="44.8910783" lon="9.6197667"><ele>288.0</ele><time>2026-03-27T16:36:21.649Z</time></trkpt><trkpt lat="44.8912233" lon="9.6198567"><ele>287.0</ele><time>2026-03-27T16:36:22.648Z</time></trkpt><trkpt lat="44.891365" lon="9.61994"><ele>287.0</ele><time>2026-03-27T16:36:23.65Z</time></trkpt><trkpt lat="44.8915083" lon="9.6200067"><ele>287.0</ele><time>2026-03-27T16:36:24.648Z</time></trkpt><trkpt lat="44.8916533" lon="9.620055"><ele>287.0</ele><time>2026-03-27T16:36:25.648Z</time></trkpt><trkpt lat="44.89181" lon="9.620095"><ele>285.75</ele><time>2026-03-27T16:36:26.728Z</time></trkpt><trkpt lat="44.8919633" lon="9.6201333"><ele>284.5</ele><time>2026-03-27T16:36:27.647Z</time></trkpt><trkpt lat="44.8921083" lon="9.6201733"><ele>283.25</ele><time>2026-03-27T16:36:28.648Z</time></trkpt><trkpt lat="44.892245" lon="9.6202117"><ele>282.0</ele><time>2026-03-27T16:36:29.647Z</time></trkpt><trkpt lat="44.8923733" lon="9.6202433"><ele>282.0</ele><time>2026-03-27T16:36:30.648Z</time></trkpt><trkpt lat="44.8924933" lon="9.6202833"><ele>282.0</ele><time>2026-03-27T16:36:31.65Z</time></trkpt><trkpt lat="44.892615" lon="9.6203183"><ele>282.0</ele><time>2026-03-27T16:36:32.648Z</time></trkpt><trkpt lat="44.8927317" lon="9.620365"><ele>282.0</ele><time>2026-03-27T16:36:33.649Z</time></trkpt><trkpt lat="44.8928433" lon="9.620445"><ele>282.0</ele><time>2026-03-27T16:36:34.647Z</time></trkpt><trkpt lat="44.89296" lon="9.6205467"><ele>282.0</ele><time>2026-03-27T16:36:35.648Z</time></trkpt><trkpt lat="44.89309" lon="9.6206367"><ele>282.0</ele><time>2026-03-27T16:36:36.65Z</time></trkpt><trkpt lat="44.8932333" lon="9.6207017"><ele>282.0</ele><time>2026-03-27T16:36:37.648Z</time></trkpt><trkpt lat="44.8933783" lon="9.6207467"><ele>281.5</ele><time>2026-03-27T16:36:38.648Z</time></trkpt><trkpt lat="44.8935167" lon="9.6207917"><ele>281.0</ele><time>2026-03-27T16:36:39.648Z</time></trkpt><trkpt lat="44.893655" lon="9.6208367"><ele>280.5</ele><time>2026-03-27T16:36:40.648Z</time></trkpt><trkpt lat="44.8938" lon="9.6208867"><ele>280.0</ele><time>2026-03-27T16:36:41.65Z</time></trkpt><trkpt lat="44.893955" lon="9.6209417"><ele>280.0</ele><time>2026-03-27T16:36:42.646Z</time></trkpt><trkpt lat="44.8941067" lon="9.6209967"><ele>280.0</ele><time>2026-03-27T16:36:43.647Z</time></trkpt><trkpt lat="44.8942617" lon="9.621055"><ele>280.0</ele><time>2026-03-27T16:36:44.648Z</time></trkpt><trkpt lat="44.8944217" lon="9.6211133"><ele>279.0</ele><time>2026-03-27T16:36:45.647Z</time></trkpt><trkpt lat="44.8945833" lon="9.6211717"><ele>278.0</ele><time>2026-03-27T16:36:46.648Z</time></trkpt><trkpt lat="44.8947483" lon="9.6212283"><ele>277.0</ele><time>2026-03-27T16:36:47.647Z</time></trkpt><trkpt lat="44.89491" lon="9.6212867"><ele>277.0</ele><time>2026-03-27T16:36:48.653Z</time></trkpt><trkpt lat="44.8950683" lon="9.62135"><ele>277.0</ele><time>2026-03-27T16:36:49.647Z</time></trkpt><trkpt lat="44.8952283" lon="9.6214167"><ele>277.0</ele><time>2026-03-27T16:36:50.646Z</time></trkpt><trkpt lat="44.8953883" lon="9.621485"><ele>275.66666666666663</ele><time>2026-03-27T16:36:51.647Z</time></trkpt><trkpt lat="44.8955467" lon="9.621555"><ele>274.3333333333333</ele><time>2026-03-27T16:36:52.646Z</time></trkpt><trkpt lat="44.8957017" lon="9.621615"><ele>273.0</ele><time>2026-03-27T16:36:53.648Z</time></trkpt><trkpt lat="44.895855" lon="9.6216617"><ele>272.6666666666667</ele><time>2026-03-27T16:36:54.647Z</time></trkpt><trkpt lat="44.8960117" lon="9.6217067"><ele>272.33333333333337</ele><time>2026-03-27T16:36:55.647Z</time></trkpt><trkpt lat="44.8961683" lon="9.6217533"><ele>272.0</ele><time>2026-03-27T16:36:56.647Z</time></trkpt><trkpt lat="44.8963367" lon="9.6218067"><ele>272.0</ele><time>2026-03-27T16:36:57.647Z</time></trkpt><trkpt lat="44.896515" lon="9.6218583"><ele>272.0</ele><time>2026-03-27T16:36:58.65Z</time></trkpt><trkpt lat="44.8966983" lon="9.6219067"><ele>272.0</ele><time>2026-03-27T16:36:59.646Z</time></trkpt><trkpt lat="44.8968733" lon="9.621955"><ele>270.33333333333337</ele><time>2026-03-27T16:37:00.648Z</time></trkpt><trkpt lat="44.8970383" lon="9.6219983"><ele>268.6666666666667</ele><time>2026-03-27T16:37:01.646Z</time></trkpt><trkpt lat="44.8971933" lon="9.6220367"><ele>267.0</ele><time>2026-03-27T16:37:02.647Z</time></trkpt><trkpt lat="44.897335" lon="9.62207"><ele>267.0</ele><time>2026-03-27T16:37:03.649Z</time></trkpt><trkpt lat="44.89746" lon="9.62211"><ele>267.0</ele><time>2026-03-27T16:37:04.647Z</time></trkpt><trkpt lat="44.8975717" lon="9.6221483"><ele>267.0</ele><time>2026-03-27T16:37:05.65Z</time></trkpt><trkpt lat="44.8976717" lon="9.62219"><ele>267.0</ele><time>2026-03-27T16:37:06.65Z</time></trkpt><trkpt lat="44.8977667" lon="9.6222233"><ele>267.0</ele><time>2026-03-27T16:37:07.647Z</time></trkpt><trkpt lat="44.8978617" lon="9.6222517"><ele>266.2</ele><time>2026-03-27T16:37:08.647Z</time></trkpt><trkpt lat="44.8979567" lon="9.62228"><ele>265.4</ele><time>2026-03-27T16:37:09.646Z</time></trkpt><trkpt lat="44.89805" lon="9.6223083"><ele>264.6</ele><time>2026-03-27T16:37:10.648Z</time></trkpt><trkpt lat="44.8981417" lon="9.622335"><ele>263.8</ele><time>2026-03-27T16:37:11.647Z</time></trkpt><trkpt lat="44.8982367" lon="9.62236"><ele>263.0</ele><time>2026-03-27T16:37:12.648Z</time></trkpt><trkpt lat="44.898335" lon="9.6223883"><ele>262.25</ele><time>2026-03-27T16:37:13.648Z</time></trkpt><trkpt lat="44.8984467" lon="9.62242"><ele>261.5</ele><time>2026-03-27T16:37:14.648Z</time></trkpt><trkpt lat="44.8985717" lon="9.62246"><ele>260.75</ele><time>2026-03-27T16:37:15.647Z</time></trkpt><trkpt lat="44.8987083" lon="9.6225033"><ele>260.0</ele><time>2026-03-27T16:37:16.647Z</time></trkpt><trkpt lat="44.8988417" lon="9.6225433"><ele>260.0</ele><time>2026-03-27T16:37:17.647Z</time></trkpt><trkpt lat="44.8989717" lon="9.62258"><ele>260.0</ele><time>2026-03-27T16:37:18.648Z</time></trkpt><trkpt lat="44.8991033" lon="9.622615"><ele>260.0</ele><time>2026-03-27T16:37:19.649Z</time></trkpt><trkpt lat="44.8992333" lon="9.6226483"><ele>260.0</ele><time>2026-03-27T16:37:20.648Z</time></trkpt><trkpt lat="44.8993533" lon="9.6226817"><ele>259.0</ele><time>2026-03-27T16:37:21.652Z</time></trkpt><trkpt lat="44.8994667" lon="9.622715"><ele>258.0</ele><time>2026-03-27T16:37:22.647Z</time></trkpt><trkpt lat="44.8995783" lon="9.6227483"><ele>257.0</ele><time>2026-03-27T16:37:23.648Z</time></trkpt><trkpt lat="44.8996917" lon="9.6227767"><ele>256.0</ele><time>2026-03-27T16:37:24.646Z</time></trkpt><trkpt lat="44.8998033" lon="9.622805"><ele>256.25</ele><time>2026-03-27T16:37:25.646Z</time></trkpt><trkpt lat="44.8999217" lon="9.622835"><ele>256.5</ele><time>2026-03-27T16:37:26.651Z</time></trkpt><trkpt lat="44.9000483" lon="9.62287"><ele>256.75</ele><time>2026-03-27T16:37:27.647Z</time></trkpt><trkpt lat="44.9001817" lon="9.6229133"><ele>257.0</ele><time>2026-03-27T16:37:28.648Z</time></trkpt><trkpt lat="44.90032" lon="9.622965"><ele>257.0</ele><time>2026-03-27T16:37:29.647Z</time></trkpt><trkpt lat="44.9004567" lon="9.623015"><ele>257.0</ele><time>2026-03-27T16:37:30.647Z</time></trkpt><trkpt lat="44.900595" lon="9.623045"><ele>257.0</ele><time>2026-03-27T16:37:31.649Z</time></trkpt><trkpt lat="44.900735" lon="9.6230533"><ele>257.0</ele><time>2026-03-27T16:37:32.649Z</time></trkpt><trkpt lat="44.90088" lon="9.6230467"><ele>255.75</ele><time>2026-03-27T16:37:33.647Z</time></trkpt><trkpt lat="44.9010233" lon="9.623045"><ele>254.5</ele><time>2026-03-27T16:37:34.648Z</time></trkpt><trkpt lat="44.9011717" lon="9.6230567"><ele>253.25</ele><time>2026-03-27T16:37:35.647Z</time></trkpt><trkpt lat="44.9013217" lon="9.6230933"><ele>252.0</ele><time>2026-03-27T16:37:36.646Z</time></trkpt><trkpt lat="44.9014733" lon="9.6231317"><ele>252.0</ele><time>2026-03-27T16:37:37.649Z</time></trkpt><trkpt lat="44.9016233" lon="9.623175"><ele>252.0</ele><time>2026-03-27T16:37:38.648Z</time></trkpt><trkpt lat="44.9017683" lon="9.623215"><ele>252.0</ele><time>2026-03-27T16:37:39.65Z</time></trkpt><trkpt lat="44.9019133" lon="9.6232567"><ele>252.0</ele><time>2026-03-27T16:37:40.647Z</time></trkpt><trkpt lat="44.902055" lon="9.623295"><ele>251.0</ele><time>2026-03-27T16:37:41.649Z</time></trkpt><trkpt lat="44.9021933" lon="9.6233283"><ele>250.0</ele><time>2026-03-27T16:37:42.646Z</time></trkpt><trkpt lat="44.90233" lon="9.62336"><ele>249.0</ele><time>2026-03-27T16:37:43.647Z</time></trkpt><trkpt lat="44.9024667" lon="9.623385"><ele>248.0</ele><time>2026-03-27T16:37:44.647Z</time></trkpt><trkpt lat="44.9026017" lon="9.6234067"><ele>247.0</ele><time>2026-03-27T16:37:45.649Z</time></trkpt><trkpt lat="44.9027317" lon="9.6234217"><ele>246.0</ele><time>2026-03-27T16:37:46.65Z</time></trkpt><trkpt lat="44.90286" lon="9.62343"><ele>245.0</ele><time>2026-03-27T16:37:47.648Z</time></trkpt><trkpt lat="44.9029917" lon="9.6234333"><ele>244.0</ele><time>2026-03-27T16:37:48.648Z</time></trkpt><trkpt lat="44.90314" lon="9.6234467"><ele>244.0</ele><time>2026-03-27T16:37:49.646Z</time></trkpt><trkpt lat="44.9032933" lon="9.6234633"><ele>244.0</ele><time>2026-03-27T16:37:50.652Z</time></trkpt><trkpt lat="44.90346" lon="9.62347"><ele>244.0</ele><time>2026-03-27T16:37:51.647Z</time></trkpt><trkpt lat="44.90363" lon="9.623465"><ele>243.0</ele><time>2026-03-27T16:37:52.647Z</time></trkpt><trkpt lat="44.9037983" lon="9.62345"><ele>242.0</ele><time>2026-03-27T16:37:53.648Z</time></trkpt><trkpt lat="44.9039617" lon="9.623435"><ele>241.0</ele><time>2026-03-27T16:37:54.647Z</time></trkpt><trkpt lat="44.9041217" lon="9.6234267"><ele>240.0</ele><time>2026-03-27T16:37:55.647Z</time></trkpt><trkpt lat="44.9042833" lon="9.623435"><ele>239.0</ele><time>2026-03-27T16:37:56.647Z</time></trkpt><trkpt lat="44.904445" lon="9.6234617"><ele>238.0</ele><time>2026-03-27T16:37:57.647Z</time></trkpt><trkpt lat="44.9046033" lon="9.623495"><ele>238.0</ele><time>2026-03-27T16:37:58.647Z</time></trkpt><trkpt lat="44.904765" lon="9.6235267"><ele>238.0</ele><time>2026-03-27T16:37:59.646Z</time></trkpt><trkpt lat="44.9049333" lon="9.6235633"><ele>238.0</ele><time>2026-03-27T16:38:00.647Z</time></trkpt><trkpt lat="44.9050967" lon="9.6235983"><ele>238.0</ele><time>2026-03-27T16:38:01.647Z</time></trkpt><trkpt lat="44.9052567" lon="9.623635"><ele>238.0</ele><time>2026-03-27T16:38:02.651Z</time></trkpt><trkpt lat="44.9054183" lon="9.6236683"><ele>238.0</ele><time>2026-03-27T16:38:03.648Z</time></trkpt><trkpt lat="44.9055783" lon="9.6237033"><ele>238.25</ele><time>2026-03-27T16:38:04.646Z</time></trkpt><trkpt lat="44.90573" lon="9.6237383"><ele>238.5</ele><time>2026-03-27T16:38:05.647Z</time></trkpt><trkpt lat="44.9058683" lon="9.6237683"><ele>238.75</ele><time>2026-03-27T16:38:06.646Z</time></trkpt><trkpt lat="44.906" lon="9.6238"><ele>239.0</ele><time>2026-03-27T16:38:07.652Z</time></trkpt><trkpt lat="44.9061367" lon="9.62384"><ele>238.25</ele><time>2026-03-27T16:38:08.647Z</time></trkpt><trkpt lat="44.9062767" lon="9.6238867"><ele>237.5</ele><time>2026-03-27T16:38:09.648Z</time></trkpt><trkpt lat="44.9064183" lon="9.62394"><ele>236.75</ele><time>2026-03-27T16:38:10.647Z</time></trkpt><trkpt lat="44.9065483" lon="9.6240017"><ele>236.0</ele><time>2026-03-27T16:38:11.646Z</time></trkpt><trkpt lat="44.90667" lon="9.6240733"><ele>235.25</ele><time>2026-03-27T16:38:12.728Z</time></trkpt><trkpt lat="44.90679" lon="9.6241517"><ele>234.5</ele><time>2026-03-27T16:38:13.647Z</time></trkpt><trkpt lat="44.9069117" lon="9.6242167"><ele>233.75</ele><time>2026-03-27T16:38:14.647Z</time></trkpt><trkpt lat="44.9070433" lon="9.62427"><ele>233.0</ele><time>2026-03-27T16:38:15.646Z</time></trkpt><trkpt lat="44.907185" lon="9.6243083"><ele>233.0</ele><time>2026-03-27T16:38:16.646Z</time></trkpt><trkpt lat="44.9073317" lon="9.6243383"><ele>233.0</ele><time>2026-03-27T16:38:17.647Z</time></trkpt><trkpt lat="44.9074783" lon="9.6243633"><ele>233.0</ele><time>2026-03-27T16:38:18.647Z</time></trkpt><trkpt lat="44.9076267" lon="9.6243883"><ele>233.0</ele><time>2026-03-27T16:38:19.646Z</time></trkpt><trkpt lat="44.9077833" lon="9.6244133"><ele>231.0</ele><time>2026-03-27T16:38:20.649Z</time></trkpt><trkpt lat="44.90794" lon="9.6244317"><ele>229.0</ele><time>2026-03-27T16:38:21.646Z</time></trkpt><trkpt lat="44.9080917" lon="9.62444"><ele>227.0</ele><time>2026-03-27T16:38:22.646Z</time></trkpt><trkpt lat="44.9082383" lon="9.6244483"><ele>227.0</ele><time>2026-03-27T16:38:23.646Z</time></trkpt><trkpt lat="44.9083767" lon="9.6244433"><ele>227.0</ele><time>2026-03-27T16:38:24.647Z</time></trkpt><trkpt lat="44.9085217" lon="9.6244133"><ele>227.0</ele><time>2026-03-27T16:38:25.647Z</time></trkpt><trkpt lat="44.90868" lon="9.6243583"><ele>227.0</ele><time>2026-03-27T16:38:26.649Z</time></trkpt><trkpt lat="44.90885" lon="9.6242867"><ele>225.66666666666669</ele><time>2026-03-27T16:38:27.647Z</time></trkpt><trkpt lat="44.9090183" lon="9.6242117"><ele>224.33333333333331</ele><time>2026-03-27T16:38:28.646Z</time></trkpt><trkpt lat="44.9091867" lon="9.6241367"><ele>223.0</ele><time>2026-03-27T16:38:29.647Z</time></trkpt><trkpt lat="44.909345" lon="9.6240717"><ele>222.5</ele><time>2026-03-27T16:38:30.648Z</time></trkpt><trkpt lat="44.9094917" lon="9.62402"><ele>222.0</ele><time>2026-03-27T16:38:31.649Z</time></trkpt><trkpt lat="44.909625" lon="9.62398"><ele>221.5</ele><time>2026-03-27T16:38:32.65Z</time></trkpt><trkpt lat="44.9097483" lon="9.623965"><ele>221.0</ele><time>2026-03-27T16:38:33.646Z</time></trkpt><trkpt lat="44.9098767" lon="9.6239783"><ele>221.0</ele><time>2026-03-27T16:38:34.65Z</time></trkpt><trkpt lat="44.9100133" lon="9.6240133"><ele>221.0</ele><time>2026-03-27T16:38:35.647Z</time></trkpt><trkpt lat="44.9101583" lon="9.6240667"><ele>221.0</ele><time>2026-03-27T16:38:36.646Z</time></trkpt><trkpt lat="44.9103083" lon="9.62413"><ele>221.0</ele><time>2026-03-27T16:38:37.647Z</time></trkpt><trkpt lat="44.910455" lon="9.6242067"><ele>220.0</ele><time>2026-03-27T16:38:38.648Z</time></trkpt><trkpt lat="44.9106017" lon="9.6242967"><ele>219.0</ele><time>2026-03-27T16:38:39.648Z</time></trkpt><trkpt lat="44.91075" lon="9.624385"><ele>218.0</ele><time>2026-03-27T16:38:40.647Z</time></trkpt><trkpt lat="44.9109133" lon="9.6244383"><ele>216.66666666666669</ele><time>2026-03-27T16:38:41.647Z</time></trkpt><trkpt lat="44.91109" lon="9.62446"><ele>215.33333333333331</ele><time>2026-03-27T16:38:42.648Z</time></trkpt><trkpt lat="44.9112683" lon="9.6244633"><ele>214.0</ele><time>2026-03-27T16:38:43.65Z</time></trkpt><trkpt lat="44.9114417" lon="9.62446"><ele>214.0</ele><time>2026-03-27T16:38:44.65Z</time></trkpt><trkpt lat="44.9116117" lon="9.6244467"><ele>214.0</ele><time>2026-03-27T16:38:45.649Z</time></trkpt><trkpt lat="44.9117817" lon="9.6244333"><ele>214.0</ele><time>2026-03-27T16:38:46.649Z</time></trkpt><trkpt lat="44.9119517" lon="9.6244333"><ele>213.5</ele><time>2026-03-27T16:38:47.65Z</time></trkpt><trkpt lat="44.9121117" lon="9.624435"><ele>213.0</ele><time>2026-03-27T16:38:48.65Z</time></trkpt><trkpt lat="44.9122567" lon="9.6244417"><ele>212.5</ele><time>2026-03-27T16:38:49.647Z</time></trkpt><trkpt lat="44.9123933" lon="9.6244417"><ele>212.0</ele><time>2026-03-27T16:38:50.647Z</time></trkpt><trkpt lat="44.912525" lon="9.62443"><ele>211.75</ele><time>2026-03-27T16:38:51.649Z</time></trkpt><trkpt lat="44.9126583" lon="9.62439"><ele>211.5</ele><time>2026-03-27T16:38:52.65Z</time></trkpt><trkpt lat="44.9127867" lon="9.6243067"><ele>211.25</ele><time>2026-03-27T16:38:53.647Z</time></trkpt><trkpt lat="44.9129217" lon="9.62419"><ele>211.0</ele><time>2026-03-27T16:38:54.647Z</time></trkpt><trkpt lat="44.9130533" lon="9.624085"><ele>211.0</ele><time>2026-03-27T16:38:55.647Z</time></trkpt><trkpt lat="44.91319" lon="9.623985"><ele>211.0</ele><time>2026-03-27T16:38:56.647Z</time></trkpt><trkpt lat="44.913325" lon="9.62389"><ele>211.0</ele><time>2026-03-27T16:38:57.646Z</time></trkpt><trkpt lat="44.91347" lon="9.6238017"><ele>209.66666666666666</ele><time>2026-03-27T16:38:58.647Z</time></trkpt><trkpt lat="44.9136267" lon="9.6237483"><ele>208.33333333333331</ele><time>2026-03-27T16:38:59.648Z</time></trkpt><trkpt lat="44.9137933" lon="9.6237383"><ele>207.0</ele><time>2026-03-27T16:39:00.649Z</time></trkpt><trkpt lat="44.9139633" lon="9.623755"><ele>207.0</ele><time>2026-03-27T16:39:01.646Z</time></trkpt><trkpt lat="44.9141233" lon="9.6238083"><ele>207.0</ele><time>2026-03-27T16:39:02.648Z</time></trkpt><trkpt lat="44.914275" lon="9.6239067"><ele>207.0</ele><time>2026-03-27T16:39:03.646Z</time></trkpt><trkpt lat="44.9144233" lon="9.6240433"><ele>205.0</ele><time>2026-03-27T16:39:04.647Z</time></trkpt><trkpt lat="44.9145667" lon="9.624175"><ele>203.0</ele><time>2026-03-27T16:39:05.655Z</time></trkpt><trkpt lat="44.9147017" lon="9.6243017"><ele>201.0</ele><time>2026-03-27T16:39:06.646Z</time></trkpt><trkpt lat="44.9148267" lon="9.62442"><ele>201.0</ele><time>2026-03-27T16:39:07.648Z</time></trkpt><trkpt lat="44.9149417" lon="9.6245017"><ele>201.0</ele><time>2026-03-27T16:39:08.648Z</time></trkpt><trkpt lat="44.9150567" lon="9.6245583"><ele>201.0</ele><time>2026-03-27T16:39:09.648Z</time></trkpt><trkpt lat="44.9151767" lon="9.6245617"><ele>201.0</ele><time>2026-03-27T16:39:10.648Z</time></trkpt><trkpt lat="44.9152833" lon="9.62453"><ele>199.60000000000002</ele><time>2026-03-27T16:39:11.649Z</time></trkpt><trkpt lat="44.9153633" lon="9.6244683"><ele>198.2</ele><time>2026-03-27T16:39:12.647Z</time></trkpt><trkpt lat="44.9154233" lon="9.6243817"><ele>196.8</ele><time>2026-03-27T16:39:13.647Z</time></trkpt><trkpt lat="44.91546" lon="9.6242717"><ele>195.39999999999998</ele><time>2026-03-27T16:39:14.648Z</time></trkpt><trkpt lat="44.9154683" lon="9.6241233"><ele>194.0</ele><time>2026-03-27T16:39:15.647Z</time></trkpt><trkpt lat="44.9154567" lon="9.6239483"><ele>194.0</ele><time>2026-03-27T16:39:16.649Z</time></trkpt><trkpt lat="44.9154533" lon="9.623775"><ele>194.0</ele><time>2026-03-27T16:39:17.646Z</time></trkpt><trkpt lat="44.915445" lon="9.6235967"><ele>194.0</ele><time>2026-03-27T16:39:18.649Z</time></trkpt><trkpt lat="44.9154367" lon="9.6234433"><ele>194.0</ele><time>2026-03-27T16:39:19.648Z</time></trkpt><trkpt lat="44.9154383" lon="9.6233033"><ele>193.6</ele><time>2026-03-27T16:39:20.648Z</time></trkpt><trkpt lat="44.9154617" lon="9.623185"><ele>193.2</ele><time>2026-03-27T16:39:21.653Z</time></trkpt><trkpt lat="44.91551" lon="9.6230983"><ele>192.79999999999998</ele><time>2026-03-27T16:39:22.648Z</time></trkpt><trkpt lat="44.9155917" lon="9.6230817"><ele>192.39999999999998</ele><time>2026-03-27T16:39:23.647Z</time></trkpt><trkpt lat="44.915685" lon="9.6230867"><ele>192.0</ele><time>2026-03-27T16:39:24.647Z</time></trkpt><trkpt lat="44.9158083" lon="9.62312"><ele>190.5</ele><time>2026-03-27T16:39:25.647Z</time></trkpt><trkpt lat="44.915935" lon="9.6231367"><ele>189.0</ele><time>2026-03-27T16:39:26.649Z</time></trkpt><trkpt lat="44.91606" lon="9.6231283"><ele>187.5</ele><time>2026-03-27T16:39:27.647Z</time></trkpt><trkpt lat="44.9161767" lon="9.6230833"><ele>186.0</ele><time>2026-03-27T16:39:28.647Z</time></trkpt><trkpt lat="44.9162933" lon="9.6230167"><ele>186.0</ele><time>2026-03-27T16:39:29.649Z</time></trkpt><trkpt lat="44.9164067" lon="9.6229467"><ele>186.0</ele><time>2026-03-27T16:39:30.65Z</time></trkpt><trkpt lat="44.9165267" lon="9.622885"><ele>186.0</ele><time>2026-03-27T16:39:31.648Z</time></trkpt><trkpt lat="44.9166583" lon="9.622855"><ele>186.0</ele><time>2026-03-27T16:39:32.648Z</time></trkpt><trkpt lat="44.9168" lon="9.62285"><ele>184.0</ele><time>2026-03-27T16:39:33.647Z</time></trkpt><trkpt lat="44.9169533" lon="9.6228617"><ele>182.0</ele><time>2026-03-27T16:39:34.646Z</time></trkpt><trkpt lat="44.9171083" lon="9.6228817"><ele>180.0</ele><time>2026-03-27T16:39:35.647Z</time></trkpt><trkpt lat="44.9172517" lon="9.6229067"><ele>180.0</ele><time>2026-03-27T16:39:36.648Z</time></trkpt><trkpt lat="44.9173833" lon="9.6229267"><ele>180.0</ele><time>2026-03-27T16:39:37.647Z</time></trkpt><trkpt lat="44.9175167" lon="9.622935"><ele>180.0</ele><time>2026-03-27T16:39:38.647Z</time></trkpt><trkpt lat="44.9176567" lon="9.622925"><ele>180.0</ele><time>2026-03-27T16:39:39.647Z</time></trkpt><trkpt lat="44.9178" lon="9.6229083"><ele>179.25</ele><time>2026-03-27T16:39:40.648Z</time></trkpt><trkpt lat="44.9179433" lon="9.622915"><ele>178.5</ele><time>2026-03-27T16:39:41.648Z</time></trkpt><trkpt lat="44.9180967" lon="9.622945"><ele>177.75</ele><time>2026-03-27T16:39:42.647Z</time></trkpt><trkpt lat="44.918245" lon="9.6229717"><ele>177.0</ele><time>2026-03-27T16:39:43.647Z</time></trkpt><trkpt lat="44.9183767" lon="9.6229783"><ele>176.5</ele><time>2026-03-27T16:39:44.649Z</time></trkpt><trkpt lat="44.9184967" lon="9.6229767"><ele>176.0</ele><time>2026-03-27T16:39:45.65Z</time></trkpt><trkpt lat="44.9186067" lon="9.622995"><ele>175.5</ele><time>2026-03-27T16:39:46.647Z</time></trkpt><trkpt lat="44.918715" lon="9.6230317"><ele>175.0</ele><time>2026-03-27T16:39:47.647Z</time></trkpt><trkpt lat="44.918825" lon="9.6230833"><ele>175.0</ele><time>2026-03-27T16:39:48.647Z</time></trkpt><trkpt lat="44.918935" lon="9.6231433"><ele>175.0</ele><time>2026-03-27T16:39:49.648Z</time></trkpt><trkpt lat="44.9190567" lon="9.6232083"><ele>175.0</ele><time>2026-03-27T16:39:50.65Z</time></trkpt><trkpt lat="44.9191783" lon="9.623275"><ele>175.0</ele><time>2026-03-27T16:39:51.649Z</time></trkpt><trkpt lat="44.9193" lon="9.6233467"><ele>173.0</ele><time>2026-03-27T16:39:52.648Z</time></trkpt><trkpt lat="44.9194233" lon="9.623415"><ele>171.0</ele><time>2026-03-27T16:39:53.648Z</time></trkpt><trkpt lat="44.9195417" lon="9.6234817"><ele>169.0</ele><time>2026-03-27T16:39:54.649Z</time></trkpt><trkpt lat="44.9196533" lon="9.6235567"><ele>167.0</ele><time>2026-03-27T16:39:55.647Z</time></trkpt><trkpt lat="44.9197633" lon="9.6236433"><ele>167.75</ele><time>2026-03-27T16:39:56.649Z</time></trkpt><trkpt lat="44.9198667" lon="9.623745"><ele>168.5</ele><time>2026-03-27T16:39:57.648Z</time></trkpt><trkpt lat="44.9199467" lon="9.6238717"><ele>169.25</ele><time>2026-03-27T16:39:58.647Z</time></trkpt><trkpt lat="44.9200033" lon="9.62402"><ele>170.0</ele><time>2026-03-27T16:39:59.647Z</time></trkpt><trkpt lat="44.9200567" lon="9.6241667"><ele>168.5</ele><time>2026-03-27T16:40:00.648Z</time></trkpt><trkpt lat="44.9201383" lon="9.6243"><ele>167.0</ele><time>2026-03-27T16:40:01.649Z</time></trkpt><trkpt lat="44.920255" lon="9.62441"><ele>165.5</ele><time>2026-03-27T16:40:02.648Z</time></trkpt><trkpt lat="44.920385" lon="9.6245"><ele>164.0</ele><time>2026-03-27T16:40:03.647Z</time></trkpt><trkpt lat="44.92052" lon="9.6245817"><ele>164.0</ele><time>2026-03-27T16:40:04.647Z</time></trkpt><trkpt lat="44.92066" lon="9.624675"><ele>164.0</ele><time>2026-03-27T16:40:05.647Z</time></trkpt><trkpt lat="44.9207933" lon="9.6247633"><ele>164.0</ele><time>2026-03-27T16:40:06.65Z</time></trkpt><trkpt lat="44.9209133" lon="9.624845"><ele>164.0</ele><time>2026-03-27T16:40:07.649Z</time></trkpt><trkpt lat="44.9210183" lon="9.6249233"><ele>163.0</ele><time>2026-03-27T16:40:08.648Z</time></trkpt><trkpt lat="44.9211117" lon="9.6249917"><ele>162.0</ele><time>2026-03-27T16:40:09.649Z</time></trkpt><trkpt lat="44.9212133" lon="9.6250267"><ele>161.0</ele><time>2026-03-27T16:40:10.646Z</time></trkpt><trkpt lat="44.921325" lon="9.6250483"><ele>160.0</ele><time>2026-03-27T16:40:11.646Z</time></trkpt><trkpt lat="44.9214383" lon="9.6250567"><ele>159.0</ele><time>2026-03-27T16:40:12.65Z</time></trkpt><trkpt lat="44.921545" lon="9.6250567"><ele>159.0</ele><time>2026-03-27T16:40:13.646Z</time></trkpt><trkpt lat="44.9216417" lon="9.6250517"><ele>159.0</ele><time>2026-03-27T16:40:14.647Z</time></trkpt><trkpt lat="44.92173" lon="9.6250433"><ele>159.0</ele><time>2026-03-27T16:40:15.646Z</time></trkpt><trkpt lat="44.9217983" lon="9.6250117"><ele>159.0</ele><time>2026-03-27T16:40:16.647Z</time></trkpt><trkpt lat="44.921855" lon="9.6249567"><ele>159.0</ele><time>2026-03-27T16:40:17.648Z</time></trkpt><trkpt lat="44.9218983" lon="9.62487"><ele>159.0</ele><time>2026-03-27T16:40:18.647Z</time></trkpt><trkpt lat="44.92192" lon="9.6247583"><ele>157.83333333333334</ele><time>2026-03-27T16:40:19.648Z</time></trkpt><trkpt lat="44.92194" lon="9.624645"><ele>156.66666666666666</ele><time>2026-03-27T16:40:20.648Z</time></trkpt><trkpt lat="44.92196" lon="9.6245233"><ele>155.5</ele><time>2026-03-27T16:40:21.647Z</time></trkpt><trkpt lat="44.9219783" lon="9.6244"><ele>154.33333333333331</ele><time>2026-03-27T16:40:22.654Z</time></trkpt><trkpt lat="44.9219967" lon="9.6242783"><ele>153.16666666666666</ele><time>2026-03-27T16:40:23.649Z</time></trkpt><trkpt lat="44.922025" lon="9.62415"><ele>152.0</ele><time>2026-03-27T16:40:24.649Z</time></trkpt><trkpt lat="44.92205" lon="9.62399"><ele>152.0</ele><time>2026-03-27T16:40:25.649Z</time></trkpt><trkpt lat="44.9220767" lon="9.623835"><ele>152.0</ele><time>2026-03-27T16:40:26.648Z</time></trkpt><trkpt lat="44.9221067" lon="9.6236833"><ele>152.0</ele><time>2026-03-27T16:40:27.649Z</time></trkpt><trkpt lat="44.9221317" lon="9.6235433"><ele>152.0</ele><time>2026-03-27T16:40:28.647Z</time></trkpt><trkpt lat="44.92216" lon="9.623405"><ele>152.0</ele><time>2026-03-27T16:40:29.647Z</time></trkpt><trkpt lat="44.9221883" lon="9.6232717"><ele>152.16666666666666</ele><time>2026-03-27T16:40:30.647Z</time></trkpt><trkpt lat="44.92221" lon="9.623135"><ele>152.33333333333331</ele><time>2026-03-27T16:40:31.648Z</time></trkpt><trkpt lat="44.922225" lon="9.6229983"><ele>152.5</ele><time>2026-03-27T16:40:32.649Z</time></trkpt><trkpt lat="44.9222417" lon="9.62287"><ele>152.66666666666666</ele><time>2026-03-27T16:40:33.646Z</time></trkpt><trkpt lat="44.9222667" lon="9.6227767"><ele>152.83333333333334</ele><time>2026-03-27T16:40:34.65Z</time></trkpt><trkpt lat="44.9222817" lon="9.6226883"><ele>153.0</ele><time>2026-03-27T16:40:35.647Z</time></trkpt><trkpt lat="44.922345" lon="9.6225483"><ele>153.0</ele><time>2026-03-27T16:40:37.648Z</time></trkpt><trkpt lat="44.9224667" lon="9.62251"><ele>153.0</ele><time>2026-03-27T16:40:39.647Z</time></trkpt><trkpt lat="44.9225367" lon="9.622515"><ele>153.0</ele><time>2026-03-27T16:40:40.646Z</time></trkpt><trkpt lat="44.9226033" lon="9.6225167"><ele>153.0</ele><time>2026-03-27T16:40:41.647Z</time></trkpt><trkpt lat="44.9226683" lon="9.6225367"><ele>153.0</ele><time>2026-03-27T16:40:42.646Z</time></trkpt><trkpt lat="44.9227317" lon="9.6225483"><ele>153.0</ele><time>2026-03-27T16:40:43.647Z</time></trkpt><trkpt lat="44.9228467" lon="9.622575"><ele>152.8</ele><time>2026-03-27T16:40:45.647Z</time></trkpt><trkpt lat="44.9229367" lon="9.6225433"><ele>152.60000000000002</ele><time>2026-03-27T16:40:47.649Z</time></trkpt><trkpt lat="44.923005" lon="9.6224067"><ele>152.39999999999998</ele><time>2026-03-27T16:40:49.651Z</time></trkpt><trkpt lat="44.92303" lon="9.6222867"><ele>152.2</ele><time>2026-03-27T16:40:50.65Z</time></trkpt><trkpt lat="44.92305" lon="9.6221317"><ele>152.0</ele><time>2026-03-27T16:40:51.649Z</time></trkpt><trkpt lat="44.92307" lon="9.62198"><ele>151.4</ele><time>2026-03-27T16:40:52.649Z</time></trkpt><trkpt lat="44.9230883" lon="9.62183"><ele>150.79999999999998</ele><time>2026-03-27T16:40:53.649Z</time></trkpt><trkpt lat="44.92311" lon="9.6216867"><ele>150.2</ele><time>2026-03-27T16:40:54.649Z</time></trkpt><trkpt lat="44.92313" lon="9.621535"><ele>149.6</ele><time>2026-03-27T16:40:55.649Z</time></trkpt><trkpt lat="44.9231517" lon="9.6213767"><ele>149.0</ele><time>2026-03-27T16:40:56.649Z</time></trkpt><trkpt lat="44.9231733" lon="9.6212133"><ele>148.25</ele><time>2026-03-27T16:40:57.65Z</time></trkpt><trkpt lat="44.923195" lon="9.6210417"><ele>147.5</ele><time>2026-03-27T16:40:58.649Z</time></trkpt><trkpt lat="44.923215" lon="9.6208667"><ele>146.75</ele><time>2026-03-27T16:40:59.65Z</time></trkpt><trkpt lat="44.92324" lon="9.6206917"><ele>146.0</ele><time>2026-03-27T16:41:00.647Z</time></trkpt><trkpt lat="44.9232617" lon="9.620525"><ele>146.0</ele><time>2026-03-27T16:41:01.647Z</time></trkpt><trkpt lat="44.9232783" lon="9.620365"><ele>146.0</ele><time>2026-03-27T16:41:02.648Z</time></trkpt><trkpt lat="44.9232967" lon="9.620215"><ele>146.0</ele><time>2026-03-27T16:41:03.648Z</time></trkpt><trkpt lat="44.9233117" lon="9.62007"><ele>146.0</ele><time>2026-03-27T16:41:04.647Z</time></trkpt><trkpt lat="44.9233217" lon="9.6199167"><ele>146.0</ele><time>2026-03-27T16:41:05.649Z</time></trkpt><trkpt lat="44.92333" lon="9.61975"><ele>145.75</ele><time>2026-03-27T16:41:06.649Z</time></trkpt><trkpt lat="44.9233333" lon="9.6195767"><ele>145.5</ele><time>2026-03-27T16:41:07.652Z</time></trkpt><trkpt lat="44.9233383" lon="9.61939"><ele>145.25</ele><time>2026-03-27T16:41:08.648Z</time></trkpt><trkpt lat="44.9233417" lon="9.6191983"><ele>145.0</ele><time>2026-03-27T16:41:09.647Z</time></trkpt><trkpt lat="44.9233467" lon="9.6190067"><ele>144.75</ele><time>2026-03-27T16:41:10.647Z</time></trkpt><trkpt lat="44.923355" lon="9.6188183"><ele>144.5</ele><time>2026-03-27T16:41:11.647Z</time></trkpt><trkpt lat="44.9233617" lon="9.6186417"><ele>144.25</ele><time>2026-03-27T16:41:12.647Z</time></trkpt><trkpt lat="44.9233683" lon="9.618475"><ele>144.0</ele><time>2026-03-27T16:41:13.65Z</time></trkpt><trkpt lat="44.9233767" lon="9.6183217"><ele>144.6</ele><time>2026-03-27T16:41:14.648Z</time></trkpt><trkpt lat="44.9233817" lon="9.6181817"><ele>145.2</ele><time>2026-03-27T16:41:15.647Z</time></trkpt><trkpt lat="44.9233883" lon="9.6180517"><ele>145.79999999999998</ele><time>2026-03-27T16:41:16.648Z</time></trkpt><trkpt lat="44.923395" lon="9.617925"><ele>146.4</ele><time>2026-03-27T16:41:17.649Z</time></trkpt><trkpt lat="44.923395" lon="9.617795"><ele>147.0</ele><time>2026-03-27T16:41:18.648Z</time></trkpt><trkpt lat="44.9233967" lon="9.617655"><ele>146.6</ele><time>2026-03-27T16:41:19.652Z</time></trkpt><trkpt lat="44.9234017" lon="9.6175067"><ele>146.2</ele><time>2026-03-27T16:41:20.649Z</time></trkpt><trkpt lat="44.9234067" lon="9.6173583"><ele>145.8</ele><time>2026-03-27T16:41:21.649Z</time></trkpt><trkpt lat="44.9234083" lon="9.6172117"><ele>145.4</ele><time>2026-03-27T16:41:22.649Z</time></trkpt><trkpt lat="44.9234117" lon="9.6170683"><ele>145.0</ele><time>2026-03-27T16:41:23.648Z</time></trkpt><trkpt lat="44.9234167" lon="9.61694"><ele>145.57142857142858</ele><time>2026-03-27T16:41:24.653Z</time></trkpt><trkpt lat="44.9234233" lon="9.6168217"><ele>146.14285714285717</ele><time>2026-03-27T16:41:25.647Z</time></trkpt><trkpt lat="44.9234267" lon="9.6167183"><ele>146.71428571428572</ele><time>2026-03-27T16:41:26.647Z</time></trkpt><trkpt lat="44.9234317" lon="9.6166217"><ele>147.28571428571428</ele><time>2026-03-27T16:41:27.647Z</time></trkpt><trkpt lat="44.9234383" lon="9.6165267"><ele>147.85714285714283</ele><time>2026-03-27T16:41:28.648Z</time></trkpt><trkpt lat="44.9234467" lon="9.6164317"><ele>148.42857142857142</ele><time>2026-03-27T16:41:29.648Z</time></trkpt><trkpt lat="44.923455" lon="9.616335"><ele>149.0</ele><time>2026-03-27T16:41:30.65Z</time></trkpt><trkpt lat="44.9234783" lon="9.61624"><ele>149.33333333333331</ele><time>2026-03-27T16:41:31.647Z</time></trkpt><trkpt lat="44.9235" lon="9.6161383"><ele>149.66666666666666</ele><time>2026-03-27T16:41:32.647Z</time></trkpt><trkpt lat="44.9235167" lon="9.6160383"><ele>150.0</ele><time>2026-03-27T16:41:33.648Z</time></trkpt><trkpt lat="44.9235317" lon="9.6159233"><ele>150.33333333333334</ele><time>2026-03-27T16:41:34.648Z</time></trkpt><trkpt lat="44.9235483" lon="9.615805"><ele>150.66666666666669</ele><time>2026-03-27T16:41:35.65Z</time></trkpt><trkpt lat="44.9235617" lon="9.61569"><ele>151.0</ele><time>2026-03-27T16:41:36.647Z</time></trkpt><trkpt lat="44.9235683" lon="9.6155783"><ele>151.0</ele><time>2026-03-27T16:41:37.647Z</time></trkpt><trkpt lat="44.9235733" lon="9.6154817"><ele>151.0</ele><time>2026-03-27T16:41:38.646Z</time></trkpt><trkpt lat="44.9236033" lon="9.6153183"><ele>151.0</ele><time>2026-03-27T16:41:40.647Z</time></trkpt><trkpt lat="44.9236317" lon="9.61516"><ele>151.0</ele><time>2026-03-27T16:41:42.65Z</time></trkpt><trkpt lat="44.9236483" lon="9.614985"><ele>151.0</ele><time>2026-03-27T16:41:44.648Z</time></trkpt><trkpt lat="44.9236633" lon="9.6148833"><ele>150.66666666666669</ele><time>2026-03-27T16:41:45.646Z</time></trkpt><trkpt lat="44.9236883" lon="9.6147917"><ele>150.33333333333334</ele><time>2026-03-27T16:41:46.647Z</time></trkpt><trkpt lat="44.92371" lon="9.6147"><ele>150.0</ele><time>2026-03-27T16:41:47.654Z</time></trkpt><trkpt lat="44.9237267" lon="9.6146083"><ele>149.66666666666666</ele><time>2026-03-27T16:41:48.647Z</time></trkpt><trkpt lat="44.92374" lon="9.6144233"><ele>149.33333333333331</ele><time>2026-03-27T16:41:50.647Z</time></trkpt><trkpt lat="44.9237317" lon="9.6143167"><ele>149.0</ele><time>2026-03-27T16:41:51.647Z</time></trkpt><trkpt lat="44.9237167" lon="9.614215"><ele>147.2</ele><time>2026-03-27T16:41:52.646Z</time></trkpt><trkpt lat="44.9236883" lon="9.6141167"><ele>145.4</ele><time>2026-03-27T16:41:53.653Z</time></trkpt><trkpt lat="44.9236567" lon="9.6140217"><ele>143.6</ele><time>2026-03-27T16:41:54.649Z</time></trkpt><trkpt lat="44.9236183" lon="9.6139467"><ele>141.8</ele><time>2026-03-27T16:41:55.649Z</time></trkpt><trkpt lat="44.9235383" lon="9.6138167"><ele>140.0</ele><time>2026-03-27T16:41:57.646Z</time></trkpt><trkpt lat="44.923475" lon="9.6136717"><ele>139.0</ele><time>2026-03-27T16:41:59.649Z</time></trkpt><trkpt lat="44.9234483" lon="9.6135883"><ele>138.0</ele><time>2026-03-27T16:42:00.646Z</time></trkpt><trkpt lat="44.9234333" lon="9.61349"><ele>137.0</ele><time>2026-03-27T16:42:01.647Z</time></trkpt><trkpt lat="44.9234267" lon="9.613395"><ele>136.0</ele><time>2026-03-27T16:42:02.65Z</time></trkpt><trkpt lat="44.9234233" lon="9.613305"><ele>135.0</ele><time>2026-03-27T16:42:03.647Z</time></trkpt><trkpt lat="44.92343" lon="9.61314"><ele>134.0</ele><time>2026-03-27T16:42:05.647Z</time></trkpt><trkpt lat="44.9234433" lon="9.6130017"><ele>134.0</ele><time>2026-03-27T16:42:07.651Z</time></trkpt><trkpt lat="44.9234617" lon="9.6128733"><ele>134.0</ele><time>2026-03-27T16:42:09.651Z</time></trkpt><trkpt lat="44.9234767" lon="9.6127633"><ele>134.0</ele><time>2026-03-27T16:42:11.647Z</time></trkpt><trkpt lat="44.923495" lon="9.6126617"><ele>134.0</ele><time>2026-03-27T16:42:14.651Z</time></trkpt><trkpt lat="44.9235167" lon="9.6125633"><ele>134.0</ele><time>2026-03-27T16:42:17.648Z</time></trkpt><trkpt lat="44.923565" lon="9.61246"><ele>134.0</ele><time>2026-03-27T16:42:21.656Z</time></trkpt><trkpt lat="44.9236217" lon="9.6123617"><ele>133.66666666666666</ele><time>2026-03-27T16:42:24.647Z</time></trkpt><trkpt lat="44.923655" lon="9.6122333"><ele>133.33333333333331</ele><time>2026-03-27T16:42:27.65Z</time></trkpt><trkpt lat="44.9236233" lon="9.6120833"><ele>133.0</ele><time>2026-03-27T16:42:29.647Z</time></trkpt><trkpt lat="44.923605" lon="9.611995"><ele>132.66666666666666</ele><time>2026-03-27T16:42:30.649Z</time></trkpt><trkpt lat="44.9236017" lon="9.6119017"><ele>132.33333333333334</ele><time>2026-03-27T16:42:31.648Z</time></trkpt><trkpt lat="44.9236" lon="9.6118033"><ele>132.0</ele><time>2026-03-27T16:42:32.649Z</time></trkpt><trkpt lat="44.9236067" lon="9.611705"><ele>132.0</ele><time>2026-03-27T16:42:33.648Z</time></trkpt><trkpt lat="44.92362" lon="9.6116033"><ele>132.0</ele><time>2026-03-27T16:42:34.647Z</time></trkpt><trkpt lat="44.9236333" lon="9.6115117"><ele>132.0</ele><time>2026-03-27T16:42:35.651Z</time></trkpt><trkpt lat="44.92366" lon="9.6113483"><ele>132.0</ele><time>2026-03-27T16:42:37.647Z</time></trkpt><trkpt lat="44.923685" lon="9.611175"><ele>132.0</ele><time>2026-03-27T16:42:39.65Z</time></trkpt><trkpt lat="44.9237" lon="9.6110733"><ele>131.4</ele><time>2026-03-27T16:42:40.647Z</time></trkpt><trkpt lat="44.9237133" lon="9.6109733"><ele>130.79999999999998</ele><time>2026-03-27T16:42:41.653Z</time></trkpt><trkpt lat="44.9237333" lon="9.6108233"><ele>130.2</ele><time>2026-03-27T16:42:43.65Z</time></trkpt><trkpt lat="44.9237417" lon="9.6107083"><ele>129.6</ele><time>2026-03-27T16:42:46.652Z</time></trkpt><trkpt lat="44.923765" lon="9.6104833"><ele>129.0</ele><time>2026-03-27T16:42:55.646Z</time></trkpt><trkpt lat="44.9237767" lon="9.6103867"><ele>129.16666666666666</ele><time>2026-03-27T16:42:56.649Z</time></trkpt><trkpt lat="44.9237883" lon="9.6102833"><ele>129.33333333333334</ele><time>2026-03-27T16:42:57.65Z</time></trkpt><trkpt lat="44.9238017" lon="9.61018"><ele>129.5</ele><time>2026-03-27T16:42:58.647Z</time></trkpt><trkpt lat="44.92382" lon="9.6100583"><ele>129.66666666666669</ele><time>2026-03-27T16:42:59.649Z</time></trkpt><trkpt lat="44.92384" lon="9.6099167"><ele>129.83333333333334</ele><time>2026-03-27T16:43:00.647Z</time></trkpt><trkpt lat="44.92386" lon="9.6097767"><ele>130.0</ele><time>2026-03-27T16:43:01.647Z</time></trkpt><trkpt lat="44.923875" lon="9.609645"><ele>130.0</ele><time>2026-03-27T16:43:02.653Z</time></trkpt><trkpt lat="44.9238867" lon="9.6095233"><ele>130.0</ele><time>2026-03-27T16:43:03.646Z</time></trkpt><trkpt lat="44.92389" lon="9.6094133"><ele>130.0</ele><time>2026-03-27T16:43:04.647Z</time></trkpt><trkpt lat="44.9238817" lon="9.6093133"><ele>130.0</ele><time>2026-03-27T16:43:05.65Z</time></trkpt><trkpt lat="44.9238683" lon="9.60921"><ele>130.0</ele><time>2026-03-27T16:43:06.648Z</time></trkpt><trkpt lat="44.9238467" lon="9.6091133"><ele>130.0</ele><time>2026-03-27T16:43:07.649Z</time></trkpt><trkpt lat="44.9238133" lon="9.6090167"><ele>129.83333333333334</ele><time>2026-03-27T16:43:08.65Z</time></trkpt><trkpt lat="44.9237633" lon="9.6089217"><ele>129.66666666666669</ele><time>2026-03-27T16:43:09.652Z</time></trkpt><trkpt lat="44.9237067" lon="9.6088317"><ele>129.5</ele><time>2026-03-27T16:43:10.649Z</time></trkpt><trkpt lat="44.9236383" lon="9.60875"><ele>129.33333333333334</ele><time>2026-03-27T16:43:11.649Z</time></trkpt><trkpt lat="44.9235617" lon="9.6086767"><ele>129.16666666666666</ele><time>2026-03-27T16:43:12.649Z</time></trkpt><trkpt lat="44.923485" lon="9.60861"><ele>129.0</ele><time>2026-03-27T16:43:13.649Z</time></trkpt><trkpt lat="44.9234087" lon="9.608552"><ele>129.66666666666666</ele><time>2026-03-27T16:43:14.653Z</time></trkpt><trkpt lat="44.9233311" lon="9.6084837"><ele>130.33333333333334</ele><time>2026-03-27T16:43:15.648Z</time></trkpt><trkpt lat="44.9232521" lon="9.6084099"><ele>131.0</ele><time>2026-03-27T16:43:16.647Z</time></trkpt><trkpt lat="44.9231734" lon="9.6083306"><ele>131.66666666666669</ele><time>2026-03-27T16:43:17.647Z</time></trkpt><trkpt lat="44.9231063" lon="9.6082579"><ele>132.33333333333334</ele><time>2026-03-27T16:43:18.646Z</time></trkpt><trkpt lat="44.9230492" lon="9.6081822"><ele>133.0</ele><time>2026-03-27T16:43:19.648Z</time></trkpt><trkpt lat="44.9230013" lon="9.6081065"><ele>133.0</ele><time>2026-03-27T16:43:20.647Z</time></trkpt><trkpt lat="44.9229582" lon="9.6080324"><ele>133.0</ele><time>2026-03-27T16:43:21.646Z</time></trkpt><trkpt lat="44.9228914" lon="9.6079297"><ele>133.0</ele><time>2026-03-27T16:43:23.648Z</time></trkpt><trkpt lat="44.9228634" lon="9.6078203"><ele>133.0</ele><time>2026-03-27T16:43:26.647Z</time></trkpt><trkpt lat="44.9228795" lon="9.6077301"><ele>133.0</ele><time>2026-03-27T16:43:28.651Z</time></trkpt><trkpt lat="44.9229319" lon="9.6075879"><ele>133.0</ele><time>2026-03-27T16:43:30.65Z</time></trkpt><trkpt lat="44.9229673" lon="9.6074808"><ele>132.8</ele><time>2026-03-27T16:43:31.648Z</time></trkpt><trkpt lat="44.9230097" lon="9.6073642"><ele>132.60000000000002</ele><time>2026-03-27T16:43:32.647Z</time></trkpt><trkpt lat="44.9230469" lon="9.6072354"><ele>132.39999999999998</ele><time>2026-03-27T16:43:33.65Z</time></trkpt><trkpt lat="44.9230817" lon="9.6070997"><ele>132.2</ele><time>2026-03-27T16:43:34.648Z</time></trkpt><trkpt lat="44.9231228" lon="9.606957"><ele>132.0</ele><time>2026-03-27T16:43:35.646Z</time></trkpt><trkpt lat="44.9231673" lon="9.6068109"><ele>131.0</ele><time>2026-03-27T16:43:36.647Z</time></trkpt><trkpt lat="44.9232144" lon="9.6066762"><ele>130.0</ele><time>2026-03-27T16:43:37.649Z</time></trkpt><trkpt lat="44.9232597" lon="9.6065569"><ele>129.0</ele><time>2026-03-27T16:43:38.649Z</time></trkpt><trkpt lat="44.9232992" lon="9.6064497"><ele>128.0</ele><time>2026-03-27T16:43:39.648Z</time></trkpt><trkpt lat="44.9233334" lon="9.6063406"><ele>127.0</ele><time>2026-03-27T16:43:40.649Z</time></trkpt><trkpt lat="44.9233644" lon="9.6062307"><ele>126.83333333333334</ele><time>2026-03-27T16:43:41.649Z</time></trkpt><trkpt lat="44.9233962" lon="9.6061267"><ele>126.66666666666667</ele><time>2026-03-27T16:43:42.647Z</time></trkpt><trkpt lat="44.9234265" lon="9.6060304"><ele>126.5</ele><time>2026-03-27T16:43:43.647Z</time></trkpt><trkpt lat="44.9234523" lon="9.6059422"><ele>126.33333333333334</ele><time>2026-03-27T16:43:44.648Z</time></trkpt><trkpt lat="44.9234939" lon="9.6058017"><ele>126.16666666666667</ele><time>2026-03-27T16:43:46.646Z</time></trkpt><trkpt lat="44.923533" lon="9.6057159"><ele>126.0</ele><time>2026-03-27T16:43:48.633Z</time></trkpt><trkpt lat="44.9236358" lon="9.6057605"><ele>125.75</ele><time>2026-03-27T16:43:50.647Z</time></trkpt><trkpt lat="44.9237167" lon="9.6058172"><ele>125.5</ele><time>2026-03-27T16:43:51.648Z</time></trkpt><trkpt lat="44.9238138" lon="9.6058853"><ele>125.25</ele><time>2026-03-27T16:43:52.648Z</time></trkpt><trkpt lat="44.9239287" lon="9.605963"><ele>125.0</ele><time>2026-03-27T16:43:53.648Z</time></trkpt><trkpt lat="44.9240476" lon="9.6060427"><ele>125.0</ele><time>2026-03-27T16:43:54.647Z</time></trkpt><trkpt lat="44.9241667" lon="9.6061198"><ele>125.0</ele><time>2026-03-27T16:43:55.649Z</time></trkpt><trkpt lat="44.9242907" lon="9.6061962"><ele>125.0</ele><time>2026-03-27T16:43:56.651Z</time></trkpt><trkpt lat="44.9244228" lon="9.6062791"><ele>125.0</ele><time>2026-03-27T16:43:57.65Z</time></trkpt><trkpt lat="44.9245643" lon="9.6063651"><ele>125.0</ele><time>2026-03-27T16:43:58.65Z</time></trkpt><trkpt lat="44.9247101" lon="9.6064523"><ele>125.0</ele><time>2026-03-27T16:43:59.649Z</time></trkpt><trkpt lat="44.9248605" lon="9.6065419"><ele>125.0</ele><time>2026-03-27T16:44:00.647Z</time></trkpt><trkpt lat="44.9250167" lon="9.6066367"><ele>125.0</ele><time>2026-03-27T16:44:01.65Z</time></trkpt><trkpt lat="44.9251727" lon="9.6067335"><ele>125.0</ele><time>2026-03-27T16:44:02.649Z</time></trkpt><trkpt lat="44.9253269" lon="9.6068305"><ele>125.0</ele><time>2026-03-27T16:44:03.651Z</time></trkpt><trkpt lat="44.9254788" lon="9.6069274"><ele>125.0</ele><time>2026-03-27T16:44:04.649Z</time></trkpt><trkpt lat="44.9256321" lon="9.6070252"><ele>125.0</ele><time>2026-03-27T16:44:05.651Z</time></trkpt><trkpt lat="44.9257855" lon="9.6071267"><ele>125.0</ele><time>2026-03-27T16:44:06.65Z</time></trkpt><trkpt lat="44.9259416" lon="9.6072318"><ele>124.66666666666666</ele><time>2026-03-27T16:44:07.648Z</time></trkpt><trkpt lat="44.9261042" lon="9.60734"><ele>124.33333333333334</ele><time>2026-03-27T16:44:08.648Z</time></trkpt><trkpt lat="44.926271" lon="9.6074485"><ele>124.0</ele><time>2026-03-27T16:44:09.648Z</time></trkpt><trkpt lat="44.9264384" lon="9.60756"><ele>124.0</ele><time>2026-03-27T16:44:10.648Z</time></trkpt><trkpt lat="44.9266083" lon="9.6076723"><ele>124.0</ele><time>2026-03-27T16:44:11.648Z</time></trkpt><trkpt lat="44.9267788" lon="9.6077842"><ele>124.0</ele><time>2026-03-27T16:44:12.649Z</time></trkpt><trkpt lat="44.9269533" lon="9.6079002"><ele>125.0</ele><time>2026-03-27T16:44:13.649Z</time></trkpt><trkpt lat="44.927131" lon="9.6080153"><ele>126.0</ele><time>2026-03-27T16:44:14.648Z</time></trkpt><trkpt lat="44.9273091" lon="9.608129"><ele>127.0</ele><time>2026-03-27T16:44:15.647Z</time></trkpt><trkpt lat="44.9274858" lon="9.6082419"><ele>126.66666666666667</ele><time>2026-03-27T16:44:16.65Z</time></trkpt><trkpt lat="44.927658" lon="9.6083549"><ele>126.33333333333334</ele><time>2026-03-27T16:44:17.649Z</time></trkpt><trkpt lat="44.9278272" lon="9.6084701"><ele>126.0</ele><time>2026-03-27T16:44:18.646Z</time></trkpt><trkpt lat="44.9279972" lon="9.6085867"><ele>126.66666666666666</ele><time>2026-03-27T16:44:19.647Z</time></trkpt><trkpt lat="44.9281727" lon="9.6087036"><ele>127.33333333333333</ele><time>2026-03-27T16:44:20.647Z</time></trkpt><trkpt lat="44.9283502" lon="9.6088214"><ele>128.0</ele><time>2026-03-27T16:44:21.65Z</time></trkpt><trkpt lat="44.9285298" lon="9.6089369"><ele>128.33333333333331</ele><time>2026-03-27T16:44:22.647Z</time></trkpt><trkpt lat="44.928706" lon="9.6090476"><ele>128.66666666666666</ele><time>2026-03-27T16:44:23.648Z</time></trkpt><trkpt lat="44.9288736" lon="9.609153"><ele>129.0</ele><time>2026-03-27T16:44:24.648Z</time></trkpt><trkpt lat="44.9290365" lon="9.6092605"><ele>129.0</ele><time>2026-03-27T16:44:25.648Z</time></trkpt><trkpt lat="44.9292034" lon="9.6093721"><ele>129.0</ele><time>2026-03-27T16:44:26.656Z</time></trkpt><trkpt lat="44.9293773" lon="9.6094886"><ele>129.0</ele><time>2026-03-27T16:44:27.648Z</time></trkpt><trkpt lat="44.929554" lon="9.6096028"><ele>128.66666666666666</ele><time>2026-03-27T16:44:28.649Z</time></trkpt><trkpt lat="44.9297326" lon="9.6097177"><ele>128.33333333333331</ele><time>2026-03-27T16:44:29.65Z</time></trkpt><trkpt lat="44.9299117" lon="9.6098315"><ele>128.0</ele><time>2026-03-27T16:44:30.648Z</time></trkpt><trkpt lat="44.9300938" lon="9.6099448"><ele>127.33333333333333</ele><time>2026-03-27T16:44:31.652Z</time></trkpt><trkpt lat="44.9302771" lon="9.6100569"><ele>126.66666666666666</ele><time>2026-03-27T16:44:32.648Z</time></trkpt><trkpt lat="44.9304595" lon="9.6101676"><ele>126.0</ele><time>2026-03-27T16:44:33.649Z</time></trkpt><trkpt lat="44.930641" lon="9.6102763"><ele>126.33333333333334</ele><time>2026-03-27T16:44:34.649Z</time></trkpt><trkpt lat="44.9308197" lon="9.6103818"><ele>126.66666666666667</ele><time>2026-03-27T16:44:35.649Z</time></trkpt><trkpt lat="44.9309968" lon="9.6104861"><ele>127.0</ele><time>2026-03-27T16:44:36.649Z</time></trkpt><trkpt lat="44.9311732" lon="9.6105926"><ele>127.0</ele><time>2026-03-27T16:44:37.649Z</time></trkpt><trkpt lat="44.9313457" lon="9.6106979"><ele>127.0</ele><time>2026-03-27T16:44:38.649Z</time></trkpt><trkpt lat="44.9315128" lon="9.6107973"><ele>127.0</ele><time>2026-03-27T16:44:39.647Z</time></trkpt><trkpt lat="44.9316746" lon="9.610881"><ele>127.0</ele><time>2026-03-27T16:44:40.647Z</time></trkpt><trkpt lat="44.9318356" lon="9.6109322"><ele>127.0</ele><time>2026-03-27T16:44:41.648Z</time></trkpt><trkpt lat="44.9319944" lon="9.6109391"><ele>127.0</ele><time>2026-03-27T16:44:42.648Z</time></trkpt><trkpt lat="44.9321543" lon="9.6109026"><ele>127.0</ele><time>2026-03-27T16:44:43.653Z</time></trkpt><trkpt lat="44.9323107" lon="9.6108271"><ele>127.0</ele><time>2026-03-27T16:44:44.648Z</time></trkpt><trkpt lat="44.9324571" lon="9.6107167"><ele>127.0</ele><time>2026-03-27T16:44:45.647Z</time></trkpt><trkpt lat="44.932587" lon="9.6105708"><ele>126.66666666666667</ele><time>2026-03-27T16:44:46.65Z</time></trkpt><trkpt lat="44.9326944" lon="9.6103918"><ele>126.33333333333334</ele><time>2026-03-27T16:44:47.646Z</time></trkpt><trkpt lat="44.9327748" lon="9.610188"><ele>126.0</ele><time>2026-03-27T16:44:48.647Z</time></trkpt><trkpt lat="44.9328311" lon="9.609963"><ele>126.0</ele><time>2026-03-27T16:44:49.646Z</time></trkpt><trkpt lat="44.9328662" lon="9.6097234"><ele>126.0</ele><time>2026-03-27T16:44:50.65Z</time></trkpt><trkpt lat="44.9328896" lon="9.609481"><ele>126.0</ele><time>2026-03-27T16:44:51.647Z</time></trkpt><trkpt lat="44.9329128" lon="9.6092388"><ele>126.0</ele><time>2026-03-27T16:44:52.648Z</time></trkpt><trkpt lat="44.9329355" lon="9.6090003"><ele>126.0</ele><time>2026-03-27T16:44:53.646Z</time></trkpt><trkpt lat="44.9329598" lon="9.6087603"><ele>126.0</ele><time>2026-03-27T16:44:54.647Z</time></trkpt><trkpt lat="44.9329834" lon="9.6085239"><ele>125.66666666666666</ele><time>2026-03-27T16:44:55.648Z</time></trkpt><trkpt lat="44.933008" lon="9.6082932"><ele>125.33333333333333</ele><time>2026-03-27T16:44:56.647Z</time></trkpt><trkpt lat="44.9330347" lon="9.6080612"><ele>125.0</ele><time>2026-03-27T16:44:57.647Z</time></trkpt><trkpt lat="44.9330657" lon="9.6078267"><ele>125.0</ele><time>2026-03-27T16:44:58.646Z</time></trkpt><trkpt lat="44.9330961" lon="9.60759"><ele>125.0</ele><time>2026-03-27T16:44:59.646Z</time></trkpt><trkpt lat="44.9331244" lon="9.6073528"><ele>125.0</ele><time>2026-03-27T16:45:00.648Z</time></trkpt><trkpt lat="44.933151" lon="9.6071135"><ele>125.66666666666666</ele><time>2026-03-27T16:45:01.646Z</time></trkpt><trkpt lat="44.9331792" lon="9.6068718"><ele>126.33333333333334</ele><time>2026-03-27T16:45:02.647Z</time></trkpt><trkpt lat="44.9332059" lon="9.6066308"><ele>127.0</ele><time>2026-03-27T16:45:03.651Z</time></trkpt><trkpt lat="44.9332323" lon="9.6063942"><ele>127.0</ele><time>2026-03-27T16:45:04.647Z</time></trkpt><trkpt lat="44.9332588" lon="9.6061716"><ele>127.0</ele><time>2026-03-27T16:45:05.649Z</time></trkpt><trkpt lat="44.9332856" lon="9.605967"><ele>127.0</ele><time>2026-03-27T16:45:06.649Z</time></trkpt><trkpt lat="44.9333165" lon="9.6057753"><ele>127.0</ele><time>2026-03-27T16:45:07.647Z</time></trkpt><trkpt lat="44.9333602" lon="9.6055957"><ele>127.0</ele><time>2026-03-27T16:45:08.647Z</time></trkpt><trkpt lat="44.9334237" lon="9.6054287"><ele>127.0</ele><time>2026-03-27T16:45:09.647Z</time></trkpt><trkpt lat="44.9335079" lon="9.6052709"><ele>127.0</ele><time>2026-03-27T16:45:10.653Z</time></trkpt><trkpt lat="44.9336128" lon="9.6051323"><ele>127.0</ele><time>2026-03-27T16:45:11.647Z</time></trkpt><trkpt lat="44.9337317" lon="9.6050175"><ele>127.0</ele><time>2026-03-27T16:45:12.649Z</time></trkpt><trkpt lat="44.9338566" lon="9.6049309"><ele>127.0</ele><time>2026-03-27T16:45:13.648Z</time></trkpt><trkpt lat="44.9339844" lon="9.6048697"><ele>127.0</ele><time>2026-03-27T16:45:14.648Z</time></trkpt><trkpt lat="44.9341109" lon="9.6048393"><ele>127.0</ele><time>2026-03-27T16:45:15.647Z</time></trkpt><trkpt lat="44.9342315" lon="9.6048321"><ele>126.5</ele><time>2026-03-27T16:45:16.647Z</time></trkpt><trkpt lat="44.934351" lon="9.6048381"><ele>126.0</ele><time>2026-03-27T16:45:17.651Z</time></trkpt><trkpt lat="44.9344705" lon="9.604856"><ele>125.5</ele><time>2026-03-27T16:45:18.649Z</time></trkpt><trkpt lat="44.9345844" lon="9.6048831"><ele>125.0</ele><time>2026-03-27T16:45:19.646Z</time></trkpt><trkpt lat="44.9346928" lon="9.6049315"><ele>125.0</ele><time>2026-03-27T16:45:20.647Z</time></trkpt><trkpt lat="44.9347946" lon="9.6049892"><ele>125.0</ele><time>2026-03-27T16:45:21.646Z</time></trkpt><trkpt lat="44.9348957" lon="9.6050464"><ele>125.0</ele><time>2026-03-27T16:45:22.652Z</time></trkpt><trkpt lat="44.9349981" lon="9.6051099"><ele>125.0</ele><time>2026-03-27T16:45:23.648Z</time></trkpt><trkpt lat="44.9351053" lon="9.6051762"><ele>125.0</ele><time>2026-03-27T16:45:24.647Z</time></trkpt><trkpt lat="44.9352136" lon="9.6052358"><ele>125.0</ele><time>2026-03-27T16:45:25.651Z</time></trkpt><trkpt lat="44.9353231" lon="9.6052929"><ele>125.0</ele><time>2026-03-27T16:45:26.647Z</time></trkpt><trkpt lat="44.9354373" lon="9.605355"><ele>125.0</ele><time>2026-03-27T16:45:27.646Z</time></trkpt><trkpt lat="44.9355525" lon="9.6054114"><ele>125.0</ele><time>2026-03-27T16:45:28.647Z</time></trkpt><trkpt lat="44.9356743" lon="9.6054622"><ele>125.0</ele><time>2026-03-27T16:45:29.647Z</time></trkpt><trkpt lat="44.9358069" lon="9.6055"><ele>125.0</ele><time>2026-03-27T16:45:30.648Z</time></trkpt><trkpt lat="44.935942" lon="9.6055305"><ele>125.0</ele><time>2026-03-27T16:45:31.649Z</time></trkpt><trkpt lat="44.9360772" lon="9.6055599"><ele>125.0</ele><time>2026-03-27T16:45:32.648Z</time></trkpt><trkpt lat="44.9362225" lon="9.6055919"><ele>125.0</ele><time>2026-03-27T16:45:33.646Z</time></trkpt><trkpt lat="44.9363761" lon="9.605633"><ele>125.0</ele><time>2026-03-27T16:45:34.649Z</time></trkpt><trkpt lat="44.9365384" lon="9.605679"><ele>125.0</ele><time>2026-03-27T16:45:35.648Z</time></trkpt><trkpt lat="44.9367002" lon="9.605726"><ele>124.66666666666666</ele><time>2026-03-27T16:45:36.647Z</time></trkpt><trkpt lat="44.9368615" lon="9.6057751"><ele>124.33333333333334</ele><time>2026-03-27T16:45:37.647Z</time></trkpt><trkpt lat="44.9370255" lon="9.6058314"><ele>124.0</ele><time>2026-03-27T16:45:38.649Z</time></trkpt><trkpt lat="44.9371922" lon="9.6058896"><ele>124.0</ele><time>2026-03-27T16:45:39.65Z</time></trkpt><trkpt lat="44.9373578" lon="9.6059468"><ele>124.0</ele><time>2026-03-27T16:45:40.648Z</time></trkpt><trkpt lat="44.9375205" lon="9.605999"><ele>124.0</ele><time>2026-03-27T16:45:41.647Z</time></trkpt><trkpt lat="44.9376874" lon="9.6060434"><ele>122.66666666666667</ele><time>2026-03-27T16:45:42.647Z</time></trkpt><trkpt lat="44.9378599" lon="9.6060884"><ele>121.33333333333334</ele><time>2026-03-27T16:45:43.647Z</time></trkpt><trkpt lat="44.9380364" lon="9.6061359"><ele>120.0</ele><time>2026-03-27T16:45:44.647Z</time></trkpt><trkpt lat="44.938218" lon="9.6061887"><ele>120.66666666666666</ele><time>2026-03-27T16:45:45.648Z</time></trkpt><trkpt lat="44.938405" lon="9.606245"><ele>121.33333333333333</ele><time>2026-03-27T16:45:46.648Z</time></trkpt><trkpt lat="44.9385983" lon="9.606305"><ele>122.0</ele><time>2026-03-27T16:45:47.647Z</time></trkpt><trkpt lat="44.9387933" lon="9.606365"><ele>122.0</ele><time>2026-03-27T16:45:48.647Z</time></trkpt><trkpt lat="44.9389883" lon="9.6064283"><ele>122.0</ele><time>2026-03-27T16:45:49.647Z</time></trkpt><trkpt lat="44.9391833" lon="9.6064917"><ele>122.0</ele><time>2026-03-27T16:45:50.648Z</time></trkpt><trkpt lat="44.93938" lon="9.6065533"><ele>121.33333333333333</ele><time>2026-03-27T16:45:51.647Z</time></trkpt><trkpt lat="44.93958" lon="9.6066167"><ele>120.66666666666666</ele><time>2026-03-27T16:45:52.65Z</time></trkpt><trkpt lat="44.93978" lon="9.6066783"><ele>120.0</ele><time>2026-03-27T16:45:53.651Z</time></trkpt><trkpt lat="44.9399833" lon="9.6067433"><ele>120.0</ele><time>2026-03-27T16:45:54.646Z</time></trkpt><trkpt lat="44.9401883" lon="9.6068067"><ele>120.0</ele><time>2026-03-27T16:45:55.647Z</time></trkpt><trkpt lat="44.940395" lon="9.6068683"><ele>120.0</ele><time>2026-03-27T16:45:56.647Z</time></trkpt><trkpt lat="44.940605" lon="9.60693"><ele>120.0</ele><time>2026-03-27T16:45:57.647Z</time></trkpt><trkpt lat="44.9408167" lon="9.6069933"><ele>120.0</ele><time>2026-03-27T16:45:58.649Z</time></trkpt><trkpt lat="44.9410283" lon="9.6070567"><ele>120.0</ele><time>2026-03-27T16:45:59.647Z</time></trkpt><trkpt lat="44.9412417" lon="9.6071183"><ele>120.0</ele><time>2026-03-27T16:46:00.648Z</time></trkpt><trkpt lat="44.941455" lon="9.6071783"><ele>120.0</ele><time>2026-03-27T16:46:01.647Z</time></trkpt><trkpt lat="44.94167" lon="9.6072383"><ele>120.0</ele><time>2026-03-27T16:46:02.647Z</time></trkpt><trkpt lat="44.9418783" lon="9.6072933"><ele>119.66666666666666</ele><time>2026-03-27T16:46:03.647Z</time></trkpt><trkpt lat="44.9420783" lon="9.60735"><ele>119.33333333333333</ele><time>2026-03-27T16:46:04.646Z</time></trkpt><trkpt lat="44.942275" lon="9.6074067"><ele>119.0</ele><time>2026-03-27T16:46:05.647Z</time></trkpt><trkpt lat="44.942475" lon="9.6074683"><ele>118.33333333333333</ele><time>2026-03-27T16:46:06.647Z</time></trkpt><trkpt lat="44.9426717" lon="9.6075283"><ele>117.66666666666666</ele><time>2026-03-27T16:46:07.647Z</time></trkpt><trkpt lat="44.9428683" lon="9.6075867"><ele>117.0</ele><time>2026-03-27T16:46:08.647Z</time></trkpt><trkpt lat="44.94306" lon="9.607645"><ele>117.0</ele><time>2026-03-27T16:46:09.647Z</time></trkpt><trkpt lat="44.9432483" lon="9.6077067"><ele>117.0</ele><time>2026-03-27T16:46:10.654Z</time></trkpt><trkpt lat="44.9434383" lon="9.6077683"><ele>117.0</ele><time>2026-03-27T16:46:11.648Z</time></trkpt><trkpt lat="44.94363" lon="9.6078267"><ele>117.66666666666666</ele><time>2026-03-27T16:46:12.647Z</time></trkpt><trkpt lat="44.9438183" lon="9.6078817"><ele>118.33333333333333</ele><time>2026-03-27T16:46:13.647Z</time></trkpt><trkpt lat="44.9440067" lon="9.6079317"><ele>119.0</ele><time>2026-03-27T16:46:14.647Z</time></trkpt><trkpt lat="44.9441933" lon="9.6079833"><ele>119.0</ele><time>2026-03-27T16:46:15.648Z</time></trkpt><trkpt lat="44.944385" lon="9.60804"><ele>119.0</ele><time>2026-03-27T16:46:16.649Z</time></trkpt><trkpt lat="44.9445783" lon="9.6080983"><ele>119.0</ele><time>2026-03-27T16:46:17.646Z</time></trkpt><trkpt lat="44.94477" lon="9.6081617"><ele>119.0</ele><time>2026-03-27T16:46:18.647Z</time></trkpt><trkpt lat="44.944965" lon="9.608235"><ele>119.0</ele><time>2026-03-27T16:46:19.647Z</time></trkpt><trkpt lat="44.94516" lon="9.6083083"><ele>119.0</ele><time>2026-03-27T16:46:20.648Z</time></trkpt><trkpt lat="44.9453567" lon="9.6083767"><ele>118.33333333333333</ele><time>2026-03-27T16:46:21.647Z</time></trkpt><trkpt lat="44.9455583" lon="9.6084467"><ele>117.66666666666666</ele><time>2026-03-27T16:46:22.646Z</time></trkpt><trkpt lat="44.9457567" lon="9.6085133"><ele>117.0</ele><time>2026-03-27T16:46:23.647Z</time></trkpt><trkpt lat="44.945955" lon="9.60858"><ele>117.0</ele><time>2026-03-27T16:46:24.646Z</time></trkpt><trkpt lat="44.9461583" lon="9.6086533"><ele>117.0</ele><time>2026-03-27T16:46:25.647Z</time></trkpt><trkpt lat="44.9463583" lon="9.6087267"><ele>117.0</ele><time>2026-03-27T16:46:26.648Z</time></trkpt><trkpt lat="44.94656" lon="9.608795"><ele>116.66666666666666</ele><time>2026-03-27T16:46:27.649Z</time></trkpt><trkpt lat="44.94676" lon="9.6088617"><ele>116.33333333333333</ele><time>2026-03-27T16:46:28.648Z</time></trkpt><trkpt lat="44.94696" lon="9.60893"><ele>116.0</ele><time>2026-03-27T16:46:29.647Z</time></trkpt><trkpt lat="44.9471583" lon="9.609"><ele>116.0</ele><time>2026-03-27T16:46:30.648Z</time></trkpt><trkpt lat="44.9473583" lon="9.609075"><ele>116.0</ele><time>2026-03-27T16:46:31.648Z</time></trkpt><trkpt lat="44.9475583" lon="9.6091433"><ele>116.0</ele><time>2026-03-27T16:46:32.648Z</time></trkpt><trkpt lat="44.9477517" lon="9.6092133"><ele>115.66666666666666</ele><time>2026-03-27T16:46:33.647Z</time></trkpt><trkpt lat="44.947945" lon="9.60928"><ele>115.33333333333334</ele><time>2026-03-27T16:46:34.647Z</time></trkpt><trkpt lat="44.94814" lon="9.6093383"><ele>115.0</ele><time>2026-03-27T16:46:35.646Z</time></trkpt><trkpt lat="44.9483367" lon="9.6094"><ele>115.66666666666667</ele><time>2026-03-27T16:46:36.648Z</time></trkpt><trkpt lat="44.9485367" lon="9.6094717"><ele>116.33333333333334</ele><time>2026-03-27T16:46:37.646Z</time></trkpt><trkpt lat="44.9487367" lon="9.6095417"><ele>117.0</ele><time>2026-03-27T16:46:38.649Z</time></trkpt><trkpt lat="44.9489383" lon="9.6096133"><ele>117.0</ele><time>2026-03-27T16:46:39.647Z</time></trkpt><trkpt lat="44.9491433" lon="9.6096867"><ele>117.0</ele><time>2026-03-27T16:46:40.647Z</time></trkpt><trkpt lat="44.9493467" lon="9.60975"><ele>117.0</ele><time>2026-03-27T16:46:41.646Z</time></trkpt><trkpt lat="44.9495567" lon="9.6098083"><ele>117.0</ele><time>2026-03-27T16:46:42.647Z</time></trkpt><trkpt lat="44.9497683" lon="9.6098683"><ele>117.0</ele><time>2026-03-27T16:46:43.647Z</time></trkpt><trkpt lat="44.9499767" lon="9.6099283"><ele>117.0</ele><time>2026-03-27T16:46:44.648Z</time></trkpt><trkpt lat="44.950185" lon="9.6099883"><ele>116.33333333333334</ele><time>2026-03-27T16:46:45.647Z</time></trkpt><trkpt lat="44.9503917" lon="9.610055"><ele>115.66666666666667</ele><time>2026-03-27T16:46:46.648Z</time></trkpt><trkpt lat="44.9506" lon="9.610125"><ele>115.0</ele><time>2026-03-27T16:46:47.647Z</time></trkpt><trkpt lat="44.9508017" lon="9.6101917"><ele>115.0</ele><time>2026-03-27T16:46:48.648Z</time></trkpt><trkpt lat="44.9509983" lon="9.610255"><ele>115.0</ele><time>2026-03-27T16:46:49.648Z</time></trkpt><trkpt lat="44.9511967" lon="9.6103167"><ele>115.0</ele><time>2026-03-27T16:46:50.648Z</time></trkpt><trkpt lat="44.9513967" lon="9.6103783"><ele>115.0</ele><time>2026-03-27T16:46:51.647Z</time></trkpt><trkpt lat="44.9516033" lon="9.6104467"><ele>115.0</ele><time>2026-03-27T16:46:52.648Z</time></trkpt><trkpt lat="44.9518083" lon="9.610515"><ele>115.0</ele><time>2026-03-27T16:46:53.648Z</time></trkpt><trkpt lat="44.9520183" lon="9.61058"><ele>115.33333333333334</ele><time>2026-03-27T16:46:54.65Z</time></trkpt><trkpt lat="44.9522233" lon="9.6106467"><ele>115.66666666666666</ele><time>2026-03-27T16:46:55.648Z</time></trkpt><trkpt lat="44.9524367" lon="9.6107133"><ele>116.0</ele><time>2026-03-27T16:46:56.647Z</time></trkpt><trkpt lat="44.95263" lon="9.6107767"><ele>116.0</ele><time>2026-03-27T16:46:57.647Z</time></trkpt><trkpt lat="44.9528183" lon="9.610835"><ele>116.0</ele><time>2026-03-27T16:46:58.649Z</time></trkpt><trkpt lat="44.953005" lon="9.6108933"><ele>116.0</ele><time>2026-03-27T16:46:59.647Z</time></trkpt><trkpt lat="44.9531883" lon="9.6109483"><ele>116.0</ele><time>2026-03-27T16:47:00.647Z</time></trkpt><trkpt lat="44.9533717" lon="9.611005"><ele>116.0</ele><time>2026-03-27T16:47:01.65Z</time></trkpt><trkpt lat="44.9535567" lon="9.6110617"><ele>116.0</ele><time>2026-03-27T16:47:02.648Z</time></trkpt><trkpt lat="44.9537433" lon="9.6111217"><ele>115.33333333333333</ele><time>2026-03-27T16:47:03.648Z</time></trkpt><trkpt lat="44.9539283" lon="9.6111783"><ele>114.66666666666666</ele><time>2026-03-27T16:47:04.647Z</time></trkpt><trkpt lat="44.9541217" lon="9.61124"><ele>114.0</ele><time>2026-03-27T16:47:05.647Z</time></trkpt><trkpt lat="44.95432" lon="9.6113067"><ele>114.0</ele><time>2026-03-27T16:47:06.648Z</time></trkpt><trkpt lat="44.9545183" lon="9.61137"><ele>114.0</ele><time>2026-03-27T16:47:07.647Z</time></trkpt><trkpt lat="44.95471" lon="9.61143"><ele>114.0</ele><time>2026-03-27T16:47:08.649Z</time></trkpt><trkpt lat="44.9549017" lon="9.6114883"><ele>114.0</ele><time>2026-03-27T16:47:09.651Z</time></trkpt><trkpt lat="44.9550933" lon="9.61155"><ele>114.0</ele><time>2026-03-27T16:47:10.649Z</time></trkpt><trkpt lat="44.9552833" lon="9.6116083"><ele>114.0</ele><time>2026-03-27T16:47:11.648Z</time></trkpt><trkpt lat="44.9554733" lon="9.611665"><ele>114.0</ele><time>2026-03-27T16:47:12.646Z</time></trkpt><trkpt lat="44.955665" lon="9.6117233"><ele>114.0</ele><time>2026-03-27T16:47:13.647Z</time></trkpt><trkpt lat="44.9558533" lon="9.6117833"><ele>114.0</ele><time>2026-03-27T16:47:14.647Z</time></trkpt><trkpt lat="44.9560433" lon="9.611845"><ele>113.0</ele><time>2026-03-27T16:47:15.648Z</time></trkpt><trkpt lat="44.95623" lon="9.6119"><ele>112.0</ele><time>2026-03-27T16:47:16.651Z</time></trkpt><trkpt lat="44.9564217" lon="9.611955"><ele>111.0</ele><time>2026-03-27T16:47:17.647Z</time></trkpt><trkpt lat="44.956625" lon="9.6120167"><ele>111.0</ele><time>2026-03-27T16:47:18.648Z</time></trkpt><trkpt lat="44.9568317" lon="9.61208"><ele>111.0</ele><time>2026-03-27T16:47:19.648Z</time></trkpt><trkpt lat="44.957045" lon="9.6121483"><ele>111.0</ele><time>2026-03-27T16:47:20.653Z</time></trkpt><trkpt lat="44.9572667" lon="9.6122267"><ele>111.0</ele><time>2026-03-27T16:47:21.647Z</time></trkpt><trkpt lat="44.9574867" lon="9.6123"><ele>111.0</ele><time>2026-03-27T16:47:22.646Z</time></trkpt><trkpt lat="44.9577017" lon="9.6123667"><ele>111.0</ele><time>2026-03-27T16:47:23.649Z</time></trkpt><trkpt lat="44.957915" lon="9.6124333"><ele>111.33333333333334</ele><time>2026-03-27T16:47:24.648Z</time></trkpt><trkpt lat="44.958125" lon="9.6125017"><ele>111.66666666666667</ele><time>2026-03-27T16:47:25.651Z</time></trkpt><trkpt lat="44.9583317" lon="9.6125667"><ele>112.0</ele><time>2026-03-27T16:47:26.647Z</time></trkpt><trkpt lat="44.95853" lon="9.6126267"><ele>111.33333333333334</ele><time>2026-03-27T16:47:27.647Z</time></trkpt><trkpt lat="44.9587217" lon="9.6126867"><ele>110.66666666666666</ele><time>2026-03-27T16:47:28.647Z</time></trkpt><trkpt lat="44.9589117" lon="9.612745"><ele>110.0</ele><time>2026-03-27T16:47:29.647Z</time></trkpt><trkpt lat="44.9590967" lon="9.6128"><ele>109.33333333333333</ele><time>2026-03-27T16:47:30.646Z</time></trkpt><trkpt lat="44.95928" lon="9.6128517"><ele>108.66666666666666</ele><time>2026-03-27T16:47:31.648Z</time></trkpt><trkpt lat="44.95947" lon="9.612905"><ele>108.0</ele><time>2026-03-27T16:47:32.648Z</time></trkpt><trkpt lat="44.9596667" lon="9.612965"><ele>108.0</ele><time>2026-03-27T16:47:33.647Z</time></trkpt><trkpt lat="44.959865" lon="9.6130317"><ele>108.0</ele><time>2026-03-27T16:47:34.647Z</time></trkpt><trkpt lat="44.960065" lon="9.6130967"><ele>108.0</ele><time>2026-03-27T16:47:35.646Z</time></trkpt><trkpt lat="44.96027" lon="9.6131617"><ele>107.66666666666666</ele><time>2026-03-27T16:47:36.647Z</time></trkpt><trkpt lat="44.9604767" lon="9.6132217"><ele>107.33333333333333</ele><time>2026-03-27T16:47:37.647Z</time></trkpt><trkpt lat="44.9606817" lon="9.6132867"><ele>107.0</ele><time>2026-03-27T16:47:38.648Z</time></trkpt><trkpt lat="44.9608817" lon="9.613355"><ele>106.66666666666666</ele><time>2026-03-27T16:47:39.648Z</time></trkpt><trkpt lat="44.9610733" lon="9.613425"><ele>106.33333333333334</ele><time>2026-03-27T16:47:40.654Z</time></trkpt><trkpt lat="44.96126" lon="9.6134933"><ele>106.0</ele><time>2026-03-27T16:47:41.647Z</time></trkpt><trkpt lat="44.9614367" lon="9.6135717"><ele>106.33333333333334</ele><time>2026-03-27T16:47:42.647Z</time></trkpt><trkpt lat="44.96161" lon="9.613665"><ele>106.66666666666666</ele><time>2026-03-27T16:47:43.646Z</time></trkpt><trkpt lat="44.961785" lon="9.6137733"><ele>107.0</ele><time>2026-03-27T16:47:44.65Z</time></trkpt><trkpt lat="44.9619583" lon="9.6138983"><ele>108.0</ele><time>2026-03-27T16:47:45.65Z</time></trkpt><trkpt lat="44.9621233" lon="9.6140333"><ele>109.0</ele><time>2026-03-27T16:47:46.649Z</time></trkpt><trkpt lat="44.9622833" lon="9.6141717"><ele>110.0</ele><time>2026-03-27T16:47:47.647Z</time></trkpt><trkpt lat="44.96244" lon="9.6143083"><ele>110.0</ele><time>2026-03-27T16:47:48.648Z</time></trkpt><trkpt lat="44.96259" lon="9.6144317"><ele>110.0</ele><time>2026-03-27T16:47:49.647Z</time></trkpt><trkpt lat="44.962725" lon="9.614545"><ele>110.0</ele><time>2026-03-27T16:47:50.648Z</time></trkpt><trkpt lat="44.9628533" lon="9.6146517"><ele>110.0</ele><time>2026-03-27T16:47:51.65Z</time></trkpt><trkpt lat="44.962985" lon="9.6147567"><ele>110.0</ele><time>2026-03-27T16:47:52.648Z</time></trkpt><trkpt lat="44.9631183" lon="9.6148733"><ele>110.0</ele><time>2026-03-27T16:47:53.649Z</time></trkpt><trkpt lat="44.96325" lon="9.6149817"><ele>109.75</ele><time>2026-03-27T16:47:54.65Z</time></trkpt><trkpt lat="44.9633717" lon="9.615085"><ele>109.5</ele><time>2026-03-27T16:47:55.648Z</time></trkpt><trkpt lat="44.9634867" lon="9.6151783"><ele>109.25</ele><time>2026-03-27T16:47:56.649Z</time></trkpt><trkpt lat="44.9636" lon="9.6152667"><ele>109.0</ele><time>2026-03-27T16:47:57.648Z</time></trkpt><trkpt lat="44.963715" lon="9.6153617"><ele>109.0</ele><time>2026-03-27T16:47:58.647Z</time></trkpt><trkpt lat="44.963835" lon="9.615455"><ele>109.0</ele><time>2026-03-27T16:47:59.647Z</time></trkpt><trkpt lat="44.9639533" lon="9.61555"><ele>109.0</ele><time>2026-03-27T16:48:00.647Z</time></trkpt><trkpt lat="44.964075" lon="9.6156433"><ele>109.0</ele><time>2026-03-27T16:48:01.647Z</time></trkpt><trkpt lat="44.964205" lon="9.615745"><ele>108.66666666666667</ele><time>2026-03-27T16:48:02.65Z</time></trkpt><trkpt lat="44.9643383" lon="9.6158467"><ele>108.33333333333334</ele><time>2026-03-27T16:48:03.649Z</time></trkpt><trkpt lat="44.96448" lon="9.615955"><ele>108.0</ele><time>2026-03-27T16:48:04.65Z</time></trkpt><trkpt lat="44.9646283" lon="9.616065"><ele>108.0</ele><time>2026-03-27T16:48:05.647Z</time></trkpt><trkpt lat="44.964785" lon="9.6161767"><ele>108.0</ele><time>2026-03-27T16:48:06.647Z</time></trkpt><trkpt lat="44.96494" lon="9.6162917"><ele>108.0</ele><time>2026-03-27T16:48:07.647Z</time></trkpt><trkpt lat="44.9650933" lon="9.6164"><ele>108.0</ele><time>2026-03-27T16:48:08.647Z</time></trkpt><trkpt lat="44.96525" lon="9.6164983"><ele>108.0</ele><time>2026-03-27T16:48:09.65Z</time></trkpt><trkpt lat="44.9654217" lon="9.616565"><ele>108.0</ele><time>2026-03-27T16:48:10.648Z</time></trkpt><trkpt lat="44.9656083" lon="9.61659"><ele>108.0</ele><time>2026-03-27T16:48:11.648Z</time></trkpt><trkpt lat="44.9658083" lon="9.6165817"><ele>108.0</ele><time>2026-03-27T16:48:12.65Z</time></trkpt><trkpt lat="44.9660217" lon="9.6165233"><ele>108.0</ele><time>2026-03-27T16:48:13.649Z</time></trkpt><trkpt lat="44.9662333" lon="9.6164267"><ele>108.0</ele><time>2026-03-27T16:48:14.649Z</time></trkpt><trkpt lat="44.9664433" lon="9.6163183"><ele>108.0</ele><time>2026-03-27T16:48:15.649Z</time></trkpt><trkpt lat="44.9666533" lon="9.6162117"><ele>108.0</ele><time>2026-03-27T16:48:16.649Z</time></trkpt><trkpt lat="44.9668567" lon="9.6161133"><ele>107.0</ele><time>2026-03-27T16:48:17.65Z</time></trkpt><trkpt lat="44.9670533" lon="9.6160183"><ele>106.0</ele><time>2026-03-27T16:48:18.65Z</time></trkpt><trkpt lat="44.96724" lon="9.6159233"><ele>105.0</ele><time>2026-03-27T16:48:19.649Z</time></trkpt><trkpt lat="44.9674217" lon="9.6158317"><ele>105.0</ele><time>2026-03-27T16:48:20.649Z</time></trkpt><trkpt lat="44.9675967" lon="9.6157433"><ele>105.0</ele><time>2026-03-27T16:48:21.648Z</time></trkpt><trkpt lat="44.9677633" lon="9.615655"><ele>105.0</ele><time>2026-03-27T16:48:22.649Z</time></trkpt><trkpt lat="44.9679217" lon="9.6155683"><ele>105.0</ele><time>2026-03-27T16:48:23.65Z</time></trkpt><trkpt lat="44.9680733" lon="9.6154667"><ele>105.0</ele><time>2026-03-27T16:48:24.649Z</time></trkpt><trkpt lat="44.9682133" lon="9.6153383"><ele>105.0</ele><time>2026-03-27T16:48:25.649Z</time></trkpt><trkpt lat="44.96834" lon="9.61518"><ele>104.33333333333334</ele><time>2026-03-27T16:48:26.648Z</time></trkpt><trkpt lat="44.9684533" lon="9.6150033"><ele>103.66666666666667</ele><time>2026-03-27T16:48:27.648Z</time></trkpt><trkpt lat="44.9685533" lon="9.61481"><ele>103.0</ele><time>2026-03-27T16:48:28.647Z</time></trkpt><trkpt lat="44.9686417" lon="9.6146033"><ele>103.0</ele><time>2026-03-27T16:48:29.647Z</time></trkpt><trkpt lat="44.96872" lon="9.614385"><ele>103.0</ele><time>2026-03-27T16:48:30.647Z</time></trkpt><trkpt lat="44.968795" lon="9.6141667"><ele>103.0</ele><time>2026-03-27T16:48:31.647Z</time></trkpt><trkpt lat="44.96887" lon="9.6139483"><ele>103.0</ele><time>2026-03-27T16:48:32.647Z</time></trkpt><trkpt lat="44.9689417" lon="9.613735"><ele>103.0</ele><time>2026-03-27T16:48:33.647Z</time></trkpt><trkpt lat="44.9690083" lon="9.6135217"><ele>103.0</ele><time>2026-03-27T16:48:34.647Z</time></trkpt><trkpt lat="44.9690683" lon="9.613305"><ele>103.33333333333334</ele><time>2026-03-27T16:48:35.653Z</time></trkpt><trkpt lat="44.9691183" lon="9.613085"><ele>103.66666666666666</ele><time>2026-03-27T16:48:36.647Z</time></trkpt><trkpt lat="44.9691583" lon="9.61286"><ele>104.0</ele><time>2026-03-27T16:48:37.647Z</time></trkpt><trkpt lat="44.9691967" lon="9.612625"><ele>103.66666666666666</ele><time>2026-03-27T16:48:38.648Z</time></trkpt><trkpt lat="44.9692283" lon="9.6123817"><ele>103.33333333333334</ele><time>2026-03-27T16:48:39.648Z</time></trkpt><trkpt lat="44.969255" lon="9.6121317"><ele>103.0</ele><time>2026-03-27T16:48:40.649Z</time></trkpt><trkpt lat="44.9692767" lon="9.6118767"><ele>103.0</ele><time>2026-03-27T16:48:41.65Z</time></trkpt><trkpt lat="44.9692983" lon="9.611625"><ele>103.0</ele><time>2026-03-27T16:48:42.651Z</time></trkpt><trkpt lat="44.96932" lon="9.6113683"><ele>103.0</ele><time>2026-03-27T16:48:43.648Z</time></trkpt><trkpt lat="44.9693417" lon="9.6111133"><ele>103.0</ele><time>2026-03-27T16:48:44.649Z</time></trkpt><trkpt lat="44.9693633" lon="9.6108633"><ele>103.0</ele><time>2026-03-27T16:48:45.647Z</time></trkpt><trkpt lat="44.969385" lon="9.610615"><ele>103.0</ele><time>2026-03-27T16:48:46.647Z</time></trkpt><trkpt lat="44.9694067" lon="9.61037"><ele>102.66666666666667</ele><time>2026-03-27T16:48:47.649Z</time></trkpt><trkpt lat="44.96943" lon="9.6101233"><ele>102.33333333333334</ele><time>2026-03-27T16:48:48.65Z</time></trkpt><trkpt lat="44.9694517" lon="9.6098783"><ele>102.0</ele><time>2026-03-27T16:48:49.648Z</time></trkpt><trkpt lat="44.9694733" lon="9.6096333"><ele>102.0</ele><time>2026-03-27T16:48:50.649Z</time></trkpt><trkpt lat="44.9695033" lon="9.6093867"><ele>102.0</ele><time>2026-03-27T16:48:51.649Z</time></trkpt><trkpt lat="44.969545" lon="9.609145"><ele>102.0</ele><time>2026-03-27T16:48:52.648Z</time></trkpt><trkpt lat="44.9695933" lon="9.6089033"><ele>102.0</ele><time>2026-03-27T16:48:53.649Z</time></trkpt><trkpt lat="44.969645" lon="9.6086633"><ele>102.0</ele><time>2026-03-27T16:48:54.649Z</time></trkpt><trkpt lat="44.969695" lon="9.6084267"><ele>102.0</ele><time>2026-03-27T16:48:55.647Z</time></trkpt><trkpt lat="44.969745" lon="9.608185"><ele>102.0</ele><time>2026-03-27T16:48:56.649Z</time></trkpt><trkpt lat="44.969795" lon="9.607945"><ele>102.0</ele><time>2026-03-27T16:48:57.647Z</time></trkpt><trkpt lat="44.96984" lon="9.6077183"><ele>102.0</ele><time>2026-03-27T16:48:58.647Z</time></trkpt><trkpt lat="44.9698817" lon="9.6075033"><ele>102.0</ele><time>2026-03-27T16:48:59.65Z</time></trkpt><trkpt lat="44.9699217" lon="9.6073033"><ele>102.0</ele><time>2026-03-27T16:49:00.648Z</time></trkpt><trkpt lat="44.9699617" lon="9.6071133"><ele>102.0</ele><time>2026-03-27T16:49:01.647Z</time></trkpt><trkpt lat="44.970005" lon="9.6069267"><ele>102.0</ele><time>2026-03-27T16:49:02.648Z</time></trkpt><trkpt lat="44.9700483" lon="9.6067433"><ele>101.75</ele><time>2026-03-27T16:49:03.649Z</time></trkpt><trkpt lat="44.9700967" lon="9.6065583"><ele>101.5</ele><time>2026-03-27T16:49:04.647Z</time></trkpt><trkpt lat="44.97015" lon="9.6063767"><ele>101.25</ele><time>2026-03-27T16:49:05.647Z</time></trkpt><trkpt lat="44.9702167" lon="9.6061983"><ele>101.0</ele><time>2026-03-27T16:49:06.649Z</time></trkpt><trkpt lat="44.9703" lon="9.60603"><ele>101.0</ele><time>2026-03-27T16:49:07.648Z</time></trkpt><trkpt lat="44.9704033" lon="9.6058767"><ele>101.0</ele><time>2026-03-27T16:49:08.648Z</time></trkpt><trkpt lat="44.9705217" lon="9.6057383"><ele>101.0</ele><time>2026-03-27T16:49:09.649Z</time></trkpt><trkpt lat="44.970655" lon="9.6056183"><ele>101.0</ele><time>2026-03-27T16:49:10.74Z</time></trkpt><trkpt lat="44.9708033" lon="9.6055167"><ele>101.0</ele><time>2026-03-27T16:49:11.649Z</time></trkpt><trkpt lat="44.9709667" lon="9.6054383"><ele>101.0</ele><time>2026-03-27T16:49:12.648Z</time></trkpt><trkpt lat="44.9711483" lon="9.6053983"><ele>101.33333333333333</ele><time>2026-03-27T16:49:13.647Z</time></trkpt><trkpt lat="44.9713433" lon="9.605405"><ele>101.66666666666666</ele><time>2026-03-27T16:49:14.647Z</time></trkpt><trkpt lat="44.9715433" lon="9.6054417"><ele>102.0</ele><time>2026-03-27T16:49:15.647Z</time></trkpt><trkpt lat="44.9717467" lon="9.6054867"><ele>101.0</ele><time>2026-03-27T16:49:16.647Z</time></trkpt><trkpt lat="44.9719483" lon="9.6055283"><ele>100.0</ele><time>2026-03-27T16:49:17.648Z</time></trkpt><trkpt lat="44.9721533" lon="9.6055683"><ele>99.0</ele><time>2026-03-27T16:49:18.648Z</time></trkpt><trkpt lat="44.9723583" lon="9.6056067"><ele>99.33333333333334</ele><time>2026-03-27T16:49:19.648Z</time></trkpt><trkpt lat="44.9725667" lon="9.60564"><ele>99.66666666666667</ele><time>2026-03-27T16:49:20.647Z</time></trkpt><trkpt lat="44.9727767" lon="9.6056667"><ele>100.0</ele><time>2026-03-27T16:49:21.65Z</time></trkpt><trkpt lat="44.9729917" lon="9.605685"><ele>100.0</ele><time>2026-03-27T16:49:22.647Z</time></trkpt><trkpt lat="44.97321" lon="9.6057"><ele>100.0</ele><time>2026-03-27T16:49:23.648Z</time></trkpt><trkpt lat="44.9734317" lon="9.6057083"><ele>100.0</ele><time>2026-03-27T16:49:24.647Z</time></trkpt><trkpt lat="44.973655" lon="9.6057183"><ele>100.5</ele><time>2026-03-27T16:49:25.648Z</time></trkpt><trkpt lat="44.9738817" lon="9.6057267"><ele>101.0</ele><time>2026-03-27T16:49:26.648Z</time></trkpt><trkpt lat="44.9741067" lon="9.6057333"><ele>101.0</ele><time>2026-03-27T16:49:27.646Z</time></trkpt><trkpt lat="44.974335" lon="9.6057417"><ele>101.0</ele><time>2026-03-27T16:49:28.649Z</time></trkpt><trkpt lat="44.9745633" lon="9.60575"><ele>101.0</ele><time>2026-03-27T16:49:29.647Z</time></trkpt><trkpt lat="44.9747917" lon="9.6057633"><ele>101.0</ele><time>2026-03-27T16:49:30.647Z</time></trkpt><trkpt lat="44.9750183" lon="9.6057883"><ele>99.0</ele><time>2026-03-27T16:49:31.647Z</time></trkpt><trkpt lat="44.9752467" lon="9.60583"><ele>97.0</ele><time>2026-03-27T16:49:32.647Z</time></trkpt><trkpt lat="44.975475" lon="9.6058833"><ele>97.0</ele><time>2026-03-27T16:49:33.649Z</time></trkpt><trkpt lat="44.9757033" lon="9.6059383"><ele>97.0</ele><time>2026-03-27T16:49:34.648Z</time></trkpt><trkpt lat="44.97594" lon="9.60599"><ele>97.5</ele><time>2026-03-27T16:49:35.649Z</time></trkpt><trkpt lat="44.9761717" lon="9.6060483"><ele>98.0</ele><time>2026-03-27T16:49:36.649Z</time></trkpt><trkpt lat="44.9763983" lon="9.606105"><ele>98.0</ele><time>2026-03-27T16:49:37.649Z</time></trkpt><trkpt lat="44.9766183" lon="9.6061617"><ele>98.0</ele><time>2026-03-27T16:49:38.647Z</time></trkpt><trkpt lat="44.97683" lon="9.6062167"><ele>98.0</ele><time>2026-03-27T16:49:39.648Z</time></trkpt><trkpt lat="44.9770383" lon="9.6062683"><ele>98.0</ele><time>2026-03-27T16:49:40.65Z</time></trkpt><trkpt lat="44.9772517" lon="9.6063183"><ele>98.0</ele><time>2026-03-27T16:49:41.649Z</time></trkpt><trkpt lat="44.9774567" lon="9.6063683"><ele>98.0</ele><time>2026-03-27T16:49:42.647Z</time></trkpt><trkpt lat="44.9776567" lon="9.60642"><ele>98.33333333333333</ele><time>2026-03-27T16:49:43.65Z</time></trkpt><trkpt lat="44.9778533" lon="9.6064717"><ele>98.66666666666666</ele><time>2026-03-27T16:49:44.647Z</time></trkpt><trkpt lat="44.97805" lon="9.6065183"><ele>99.0</ele><time>2026-03-27T16:49:45.648Z</time></trkpt><trkpt lat="44.9782517" lon="9.6065667"><ele>97.66666666666667</ele><time>2026-03-27T16:49:46.649Z</time></trkpt><trkpt lat="44.978455" lon="9.6066133"><ele>96.33333333333334</ele><time>2026-03-27T16:49:47.647Z</time></trkpt><trkpt lat="44.97866" lon="9.6066617"><ele>95.0</ele><time>2026-03-27T16:49:48.648Z</time></trkpt><trkpt lat="44.9788617" lon="9.6067083"><ele>95.0</ele><time>2026-03-27T16:49:49.647Z</time></trkpt><trkpt lat="44.97906" lon="9.606755"><ele>95.0</ele><time>2026-03-27T16:49:50.648Z</time></trkpt><trkpt lat="44.979255" lon="9.6067967"><ele>95.0</ele><time>2026-03-27T16:49:51.654Z</time></trkpt><trkpt lat="44.9794517" lon="9.606845"><ele>95.33333333333334</ele><time>2026-03-27T16:49:52.647Z</time></trkpt><trkpt lat="44.9796567" lon="9.606895"><ele>95.66666666666667</ele><time>2026-03-27T16:49:53.648Z</time></trkpt><trkpt lat="44.979865" lon="9.60694"><ele>96.0</ele><time>2026-03-27T16:49:54.647Z</time></trkpt><trkpt lat="44.980075" lon="9.6069783"><ele>95.33333333333333</ele><time>2026-03-27T16:49:55.648Z</time></trkpt><trkpt lat="44.9802917" lon="9.60701"><ele>94.66666666666666</ele><time>2026-03-27T16:49:56.657Z</time></trkpt><trkpt lat="44.980505" lon="9.6070283"><ele>94.0</ele><time>2026-03-27T16:49:57.648Z</time></trkpt><trkpt lat="44.9807183" lon="9.6070333"><ele>94.0</ele><time>2026-03-27T16:49:58.647Z</time></trkpt><trkpt lat="44.98092" lon="9.6070333"><ele>94.0</ele><time>2026-03-27T16:49:59.647Z</time></trkpt><trkpt lat="44.98111" lon="9.6070333"><ele>94.0</ele><time>2026-03-27T16:50:00.648Z</time></trkpt><trkpt lat="44.9812983" lon="9.6070317"><ele>94.0</ele><time>2026-03-27T16:50:01.648Z</time></trkpt><trkpt lat="44.9814883" lon="9.6070283"><ele>94.0</ele><time>2026-03-27T16:50:02.649Z</time></trkpt><trkpt lat="44.9816783" lon="9.6070267"><ele>94.0</ele><time>2026-03-27T16:50:03.648Z</time></trkpt><trkpt lat="44.981865" lon="9.607025"><ele>94.33333333333333</ele><time>2026-03-27T16:50:04.647Z</time></trkpt><trkpt lat="44.9820433" lon="9.6070233"><ele>94.66666666666667</ele><time>2026-03-27T16:50:05.648Z</time></trkpt><trkpt lat="44.9822283" lon="9.6070183"><ele>95.0</ele><time>2026-03-27T16:50:06.648Z</time></trkpt><trkpt lat="44.9824167" lon="9.6070167"><ele>94.66666666666667</ele><time>2026-03-27T16:50:07.647Z</time></trkpt><trkpt lat="44.9825967" lon="9.60701"><ele>94.33333333333333</ele><time>2026-03-27T16:50:08.648Z</time></trkpt><trkpt lat="44.9827817" lon="9.607005"><ele>94.0</ele><time>2026-03-27T16:50:09.647Z</time></trkpt><trkpt lat="44.9829683" lon="9.607"><ele>94.33333333333333</ele><time>2026-03-27T16:50:10.647Z</time></trkpt><trkpt lat="44.983155" lon="9.6069933"><ele>94.66666666666667</ele><time>2026-03-27T16:50:11.647Z</time></trkpt><trkpt lat="44.9833433" lon="9.6069883"><ele>95.0</ele><time>2026-03-27T16:50:12.648Z</time></trkpt><trkpt lat="44.983535" lon="9.6069833"><ele>95.0</ele><time>2026-03-27T16:50:13.649Z</time></trkpt><trkpt lat="44.9837267" lon="9.6069783"><ele>95.0</ele><time>2026-03-27T16:50:14.648Z</time></trkpt><trkpt lat="44.983915" lon="9.6069733"><ele>95.0</ele><time>2026-03-27T16:50:15.647Z</time></trkpt><trkpt lat="44.9841033" lon="9.606965"><ele>94.66666666666667</ele><time>2026-03-27T16:50:16.65Z</time></trkpt><trkpt lat="44.984295" lon="9.60696"><ele>94.33333333333333</ele><time>2026-03-27T16:50:17.648Z</time></trkpt><trkpt lat="44.9844967" lon="9.6069617"><ele>94.0</ele><time>2026-03-27T16:50:18.647Z</time></trkpt><trkpt lat="44.98469" lon="9.60696"><ele>94.0</ele><time>2026-03-27T16:50:19.647Z</time></trkpt><trkpt lat="44.98487" lon="9.60696"><ele>94.0</ele><time>2026-03-27T16:50:20.647Z</time></trkpt><trkpt lat="44.985045" lon="9.6069667"><ele>94.0</ele><time>2026-03-27T16:50:21.648Z</time></trkpt><trkpt lat="44.9852283" lon="9.6069933"><ele>93.66666666666666</ele><time>2026-03-27T16:50:22.647Z</time></trkpt><trkpt lat="44.9854133" lon="9.6070333"><ele>93.33333333333333</ele><time>2026-03-27T16:50:23.648Z</time></trkpt><trkpt lat="44.9855983" lon="9.6070717"><ele>93.0</ele><time>2026-03-27T16:50:24.649Z</time></trkpt><trkpt lat="44.985775" lon="9.6071183"><ele>93.33333333333333</ele><time>2026-03-27T16:50:25.648Z</time></trkpt><trkpt lat="44.98595" lon="9.6071767"><ele>93.66666666666666</ele><time>2026-03-27T16:50:26.648Z</time></trkpt><trkpt lat="44.986125" lon="9.607245"><ele>94.0</ele><time>2026-03-27T16:50:27.648Z</time></trkpt><trkpt lat="44.9863017" lon="9.6073133"><ele>94.0</ele><time>2026-03-27T16:50:28.653Z</time></trkpt><trkpt lat="44.98648" lon="9.6073867"><ele>94.0</ele><time>2026-03-27T16:50:29.649Z</time></trkpt><trkpt lat="44.9866583" lon="9.607465"><ele>94.0</ele><time>2026-03-27T16:50:30.648Z</time></trkpt><trkpt lat="44.9868383" lon="9.60755"><ele>93.66666666666666</ele><time>2026-03-27T16:50:31.649Z</time></trkpt><trkpt lat="44.9870217" lon="9.6076433"><ele>93.33333333333333</ele><time>2026-03-27T16:50:32.648Z</time></trkpt><trkpt lat="44.9872017" lon="9.607755"><ele>93.0</ele><time>2026-03-27T16:50:33.65Z</time></trkpt><trkpt lat="44.98738" lon="9.6078717"><ele>93.33333333333333</ele><time>2026-03-27T16:50:34.649Z</time></trkpt><trkpt lat="44.987555" lon="9.6079983"><ele>93.66666666666666</ele><time>2026-03-27T16:50:35.649Z</time></trkpt><trkpt lat="44.9877317" lon="9.6081367"><ele>94.0</ele><time>2026-03-27T16:50:36.649Z</time></trkpt><trkpt lat="44.9879033" lon="9.60828"><ele>94.0</ele><time>2026-03-27T16:50:37.647Z</time></trkpt><trkpt lat="44.98807" lon="9.608425"><ele>94.0</ele><time>2026-03-27T16:50:38.647Z</time></trkpt><trkpt lat="44.9882317" lon="9.6085733"><ele>94.0</ele><time>2026-03-27T16:50:39.647Z</time></trkpt><trkpt lat="44.9883933" lon="9.6087217"><ele>93.0</ele><time>2026-03-27T16:50:40.647Z</time></trkpt><trkpt lat="44.9885533" lon="9.60887"><ele>92.0</ele><time>2026-03-27T16:50:41.647Z</time></trkpt><trkpt lat="44.9887133" lon="9.6090167"><ele>91.0</ele><time>2026-03-27T16:50:42.647Z</time></trkpt><trkpt lat="44.988875" lon="9.6091633"><ele>91.0</ele><time>2026-03-27T16:50:43.647Z</time></trkpt><trkpt lat="44.9890367" lon="9.6093133"><ele>91.0</ele><time>2026-03-27T16:50:44.648Z</time></trkpt><trkpt lat="44.9892" lon="9.6094617"><ele>91.0</ele><time>2026-03-27T16:50:45.647Z</time></trkpt><trkpt lat="44.9893633" lon="9.60961"><ele>91.0</ele><time>2026-03-27T16:50:46.648Z</time></trkpt><trkpt lat="44.9895233" lon="9.6097533"><ele>91.0</ele><time>2026-03-27T16:50:47.649Z</time></trkpt><trkpt lat="44.9896817" lon="9.6098967"><ele>91.0</ele><time>2026-03-27T16:50:48.648Z</time></trkpt><trkpt lat="44.9898367" lon="9.6100383"><ele>91.0</ele><time>2026-03-27T16:50:49.646Z</time></trkpt><trkpt lat="44.9900017" lon="9.6101883"><ele>91.0</ele><time>2026-03-27T16:50:50.649Z</time></trkpt><trkpt lat="44.990165" lon="9.6103283"><ele>91.0</ele><time>2026-03-27T16:50:51.649Z</time></trkpt><trkpt lat="44.990325" lon="9.6104633"><ele>91.33333333333333</ele><time>2026-03-27T16:50:52.648Z</time></trkpt><trkpt lat="44.99048" lon="9.610605"><ele>91.66666666666667</ele><time>2026-03-27T16:50:53.651Z</time></trkpt><trkpt lat="44.9906367" lon="9.61074"><ele>92.0</ele><time>2026-03-27T16:50:54.647Z</time></trkpt><trkpt lat="44.9907967" lon="9.6108817"><ele>91.66666666666667</ele><time>2026-03-27T16:50:55.648Z</time></trkpt><trkpt lat="44.9909567" lon="9.6110267"><ele>91.33333333333333</ele><time>2026-03-27T16:50:56.649Z</time></trkpt><trkpt lat="44.9911167" lon="9.6111733"><ele>91.0</ele><time>2026-03-27T16:50:57.648Z</time></trkpt><trkpt lat="44.9912733" lon="9.6113167"><ele>90.66666666666666</ele><time>2026-03-27T16:50:58.648Z</time></trkpt><trkpt lat="44.99143" lon="9.6114533"><ele>90.33333333333333</ele><time>2026-03-27T16:50:59.648Z</time></trkpt><trkpt lat="44.9915883" lon="9.6115917"><ele>90.0</ele><time>2026-03-27T16:51:00.648Z</time></trkpt><trkpt lat="44.99175" lon="9.6117283"><ele>90.0</ele><time>2026-03-27T16:51:01.646Z</time></trkpt><trkpt lat="44.99191" lon="9.6118683"><ele>90.0</ele><time>2026-03-27T16:51:02.648Z</time></trkpt><trkpt lat="44.9920683" lon="9.612005"><ele>90.0</ele><time>2026-03-27T16:51:03.647Z</time></trkpt><trkpt lat="44.992225" lon="9.6121433"><ele>90.0</ele><time>2026-03-27T16:51:04.647Z</time></trkpt><trkpt lat="44.9923817" lon="9.6122833"><ele>90.0</ele><time>2026-03-27T16:51:05.649Z</time></trkpt><trkpt lat="44.99254" lon="9.6124217"><ele>90.0</ele><time>2026-03-27T16:51:06.648Z</time></trkpt><trkpt lat="44.9927" lon="9.6125583"><ele>90.33333333333333</ele><time>2026-03-27T16:51:07.647Z</time></trkpt><trkpt lat="44.99286" lon="9.6126967"><ele>90.66666666666666</ele><time>2026-03-27T16:51:08.648Z</time></trkpt><trkpt lat="44.9930217" lon="9.6128367"><ele>91.0</ele><time>2026-03-27T16:51:09.647Z</time></trkpt><trkpt lat="44.99318" lon="9.6129733"><ele>91.33333333333333</ele><time>2026-03-27T16:51:10.647Z</time></trkpt><trkpt lat="44.993335" lon="9.61311"><ele>91.66666666666667</ele><time>2026-03-27T16:51:11.648Z</time></trkpt><trkpt lat="44.9934883" lon="9.6132483"><ele>92.0</ele><time>2026-03-27T16:51:12.647Z</time></trkpt><trkpt lat="44.993645" lon="9.6133917"><ele>91.33333333333334</ele><time>2026-03-27T16:51:13.647Z</time></trkpt><trkpt lat="44.9938017" lon="9.613535"><ele>90.66666666666667</ele><time>2026-03-27T16:51:14.647Z</time></trkpt><trkpt lat="44.9939583" lon="9.613685"><ele>90.0</ele><time>2026-03-27T16:51:15.647Z</time></trkpt><trkpt lat="44.99411" lon="9.6138367"><ele>89.0</ele><time>2026-03-27T16:51:16.649Z</time></trkpt><trkpt lat="44.9942533" lon="9.6139833"><ele>88.0</ele><time>2026-03-27T16:51:17.647Z</time></trkpt><trkpt lat="44.994385" lon="9.614125"><ele>87.0</ele><time>2026-03-27T16:51:18.649Z</time></trkpt><trkpt lat="44.9945133" lon="9.6142633"><ele>87.0</ele><time>2026-03-27T16:51:19.647Z</time></trkpt><trkpt lat="44.9946433" lon="9.6144033"><ele>87.0</ele><time>2026-03-27T16:51:20.649Z</time></trkpt><trkpt lat="44.994775" lon="9.6145433"><ele>87.0</ele><time>2026-03-27T16:51:21.649Z</time></trkpt><trkpt lat="44.9949067" lon="9.61468"><ele>87.33333333333333</ele><time>2026-03-27T16:51:22.647Z</time></trkpt><trkpt lat="44.9950417" lon="9.61482"><ele>87.66666666666666</ele><time>2026-03-27T16:51:23.649Z</time></trkpt><trkpt lat="44.9951783" lon="9.6149667"><ele>88.0</ele><time>2026-03-27T16:51:24.648Z</time></trkpt><trkpt lat="44.9953267" lon="9.61512"><ele>88.0</ele><time>2026-03-27T16:51:25.647Z</time></trkpt><trkpt lat="44.9954833" lon="9.6152833"><ele>88.0</ele><time>2026-03-27T16:51:26.651Z</time></trkpt><trkpt lat="44.995645" lon="9.6154483"><ele>88.0</ele><time>2026-03-27T16:51:27.649Z</time></trkpt><trkpt lat="44.99581" lon="9.61562"><ele>88.33333333333333</ele><time>2026-03-27T16:51:28.649Z</time></trkpt><trkpt lat="44.995975" lon="9.6157933"><ele>88.66666666666667</ele><time>2026-03-27T16:51:29.648Z</time></trkpt><trkpt lat="44.99614" lon="9.61597"><ele>89.0</ele><time>2026-03-27T16:51:30.647Z</time></trkpt><trkpt lat="44.996305" lon="9.6161483"><ele>89.0</ele><time>2026-03-27T16:51:31.646Z</time></trkpt><trkpt lat="44.996475" lon="9.6163283"><ele>89.0</ele><time>2026-03-27T16:51:32.648Z</time></trkpt><trkpt lat="44.99665" lon="9.6165083"><ele>89.0</ele><time>2026-03-27T16:51:33.647Z</time></trkpt><trkpt lat="44.9968267" lon="9.6166917"><ele>88.66666666666667</ele><time>2026-03-27T16:51:34.648Z</time></trkpt><trkpt lat="44.9970067" lon="9.6168783"><ele>88.33333333333333</ele><time>2026-03-27T16:51:35.65Z</time></trkpt><trkpt lat="44.9971867" lon="9.6170667"><ele>88.0</ele><time>2026-03-27T16:51:36.65Z</time></trkpt><trkpt lat="44.9973683" lon="9.617255"><ele>86.5</ele><time>2026-03-27T16:51:37.647Z</time></trkpt><trkpt lat="44.9975533" lon="9.617445"><ele>85.0</ele><time>2026-03-27T16:51:38.647Z</time></trkpt><trkpt lat="44.9977367" lon="9.6176383"><ele>85.0</ele><time>2026-03-27T16:51:39.647Z</time></trkpt><trkpt lat="44.9979217" lon="9.6178333"><ele>85.0</ele><time>2026-03-27T16:51:40.647Z</time></trkpt><trkpt lat="44.998105" lon="9.6180283"><ele>85.0</ele><time>2026-03-27T16:51:41.647Z</time></trkpt><trkpt lat="44.9982867" lon="9.61822"><ele>85.0</ele><time>2026-03-27T16:51:42.648Z</time></trkpt><trkpt lat="44.9984683" lon="9.61841"><ele>85.33333333333333</ele><time>2026-03-27T16:51:43.65Z</time></trkpt><trkpt lat="44.9986467" lon="9.6185983"><ele>85.66666666666667</ele><time>2026-03-27T16:51:44.648Z</time></trkpt><trkpt lat="44.99882" lon="9.6187817"><ele>86.0</ele><time>2026-03-27T16:51:45.647Z</time></trkpt><trkpt lat="44.9989867" lon="9.61897"><ele>86.0</ele><time>2026-03-27T16:51:46.648Z</time></trkpt><trkpt lat="44.99915" lon="9.6191683"><ele>86.0</ele><time>2026-03-27T16:51:47.648Z</time></trkpt><trkpt lat="44.9993083" lon="9.619375"><ele>86.0</ele><time>2026-03-27T16:51:48.649Z</time></trkpt><trkpt lat="44.9994617" lon="9.6195867"><ele>86.0</ele><time>2026-03-27T16:51:49.65Z</time></trkpt><trkpt lat="44.9996117" lon="9.61981"><ele>86.0</ele><time>2026-03-27T16:51:50.651Z</time></trkpt><trkpt lat="44.9997567" lon="9.6200367"><ele>86.0</ele><time>2026-03-27T16:51:51.65Z</time></trkpt><trkpt lat="44.9998967" lon="9.6202617"><ele>86.0</ele><time>2026-03-27T16:51:52.648Z</time></trkpt><trkpt lat="45.00003" lon="9.6204867"><ele>86.0</ele><time>2026-03-27T16:51:53.653Z</time></trkpt><trkpt lat="45.0001667" lon="9.6207217"><ele>86.0</ele><time>2026-03-27T16:51:54.649Z</time></trkpt><trkpt lat="45.0003" lon="9.6209467"><ele>86.0</ele><time>2026-03-27T16:51:55.649Z</time></trkpt><trkpt lat="45.000435" lon="9.62117"><ele>86.0</ele><time>2026-03-27T16:51:56.65Z</time></trkpt><trkpt lat="45.00057" lon="9.6213933"><ele>86.0</ele><time>2026-03-27T16:51:57.648Z</time></trkpt><trkpt lat="45.000705" lon="9.621615"><ele>86.0</ele><time>2026-03-27T16:51:58.648Z</time></trkpt><trkpt lat="45.0008417" lon="9.6218367"><ele>86.0</ele><time>2026-03-27T16:51:59.65Z</time></trkpt><trkpt lat="45.000975" lon="9.6220633"><ele>86.0</ele><time>2026-03-27T16:52:00.649Z</time></trkpt><trkpt lat="45.001105" lon="9.622285"><ele>86.0</ele><time>2026-03-27T16:52:01.652Z</time></trkpt><trkpt lat="45.0012333" lon="9.6225"><ele>86.0</ele><time>2026-03-27T16:52:02.649Z</time></trkpt><trkpt lat="45.001365" lon="9.6227117"><ele>86.0</ele><time>2026-03-27T16:52:03.649Z</time></trkpt><trkpt lat="45.0014967" lon="9.6229217"><ele>86.0</ele><time>2026-03-27T16:52:04.649Z</time></trkpt><trkpt lat="45.001625" lon="9.6231283"><ele>86.0</ele><time>2026-03-27T16:52:05.649Z</time></trkpt><trkpt lat="45.00175" lon="9.62333"><ele>86.0</ele><time>2026-03-27T16:52:06.649Z</time></trkpt><trkpt lat="45.0018683" lon="9.6235217"><ele>85.66666666666667</ele><time>2026-03-27T16:52:07.649Z</time></trkpt><trkpt lat="45.00198" lon="9.6237017"><ele>85.33333333333333</ele><time>2026-03-27T16:52:08.652Z</time></trkpt><trkpt lat="45.0020867" lon="9.62387"><ele>85.0</ele><time>2026-03-27T16:52:09.649Z</time></trkpt><trkpt lat="45.0021867" lon="9.62403"><ele>85.0</ele><time>2026-03-27T16:52:10.648Z</time></trkpt><trkpt lat="45.00228" lon="9.624185"><ele>85.0</ele><time>2026-03-27T16:52:11.649Z</time></trkpt><trkpt lat="45.002365" lon="9.6243317"><ele>85.0</ele><time>2026-03-27T16:52:12.649Z</time></trkpt><trkpt lat="45.0024283" lon="9.6244833"><ele>85.0</ele><time>2026-03-27T16:52:13.648Z</time></trkpt><trkpt lat="45.0024683" lon="9.62464"><ele>85.25</ele><time>2026-03-27T16:52:14.649Z</time></trkpt><trkpt lat="45.00251" lon="9.6247917"><ele>85.5</ele><time>2026-03-27T16:52:15.647Z</time></trkpt><trkpt lat="45.0025783" lon="9.6249233"><ele>85.75</ele><time>2026-03-27T16:52:16.647Z</time></trkpt><trkpt lat="45.0026833" lon="9.62502"><ele>86.0</ele><time>2026-03-27T16:52:17.65Z</time></trkpt><trkpt lat="45.002805" lon="9.6251117"><ele>86.0</ele><time>2026-03-27T16:52:18.647Z</time></trkpt><trkpt lat="45.0029217" lon="9.62524"><ele>86.0</ele><time>2026-03-27T16:52:19.648Z</time></trkpt><trkpt lat="45.0030267" lon="9.625395"><ele>86.0</ele><time>2026-03-27T16:52:20.647Z</time></trkpt><trkpt lat="45.0031283" lon="9.6255583"><ele>86.25</ele><time>2026-03-27T16:52:21.648Z</time></trkpt><trkpt lat="45.003225" lon="9.625715"><ele>86.5</ele><time>2026-03-27T16:52:22.647Z</time></trkpt><trkpt lat="45.0033133" lon="9.6258617"><ele>86.75</ele><time>2026-03-27T16:52:23.648Z</time></trkpt><trkpt lat="45.003395" lon="9.6260083"><ele>87.0</ele><time>2026-03-27T16:52:24.649Z</time></trkpt><trkpt lat="45.003485" lon="9.6261683"><ele>87.0</ele><time>2026-03-27T16:52:25.647Z</time></trkpt><trkpt lat="45.0035833" lon="9.62633"><ele>87.0</ele><time>2026-03-27T16:52:26.649Z</time></trkpt><trkpt lat="45.00369" lon="9.6265067"><ele>87.0</ele><time>2026-03-27T16:52:27.648Z</time></trkpt><trkpt lat="45.0038033" lon="9.6266883"><ele>87.0</ele><time>2026-03-27T16:52:28.647Z</time></trkpt><trkpt lat="45.0039233" lon="9.6268733"><ele>87.0</ele><time>2026-03-27T16:52:29.647Z</time></trkpt><trkpt lat="45.0040483" lon="9.62706"><ele>87.0</ele><time>2026-03-27T16:52:30.649Z</time></trkpt><trkpt lat="45.00418" lon="9.62724"><ele>86.0</ele><time>2026-03-27T16:52:31.648Z</time></trkpt><trkpt lat="45.0043167" lon="9.6274083"><ele>85.0</ele><time>2026-03-27T16:52:32.648Z</time></trkpt><trkpt lat="45.004455" lon="9.6275583"><ele>84.0</ele><time>2026-03-27T16:52:33.651Z</time></trkpt><trkpt lat="45.004595" lon="9.627695"><ele>83.33333333333333</ele><time>2026-03-27T16:52:34.647Z</time></trkpt><trkpt lat="45.00474" lon="9.62782"><ele>82.66666666666666</ele><time>2026-03-27T16:52:35.647Z</time></trkpt><trkpt lat="45.00489" lon="9.62794"><ele>82.0</ele><time>2026-03-27T16:52:36.646Z</time></trkpt><trkpt lat="45.0050367" lon="9.6280417"><ele>81.5</ele><time>2026-03-27T16:52:37.647Z</time></trkpt><trkpt lat="45.005175" lon="9.6281317"><ele>81.0</ele><time>2026-03-27T16:52:38.648Z</time></trkpt><trkpt lat="45.00531" lon="9.6282167"><ele>80.5</ele><time>2026-03-27T16:52:39.648Z</time></trkpt><trkpt lat="45.0054367" lon="9.6282933"><ele>80.0</ele><time>2026-03-27T16:52:40.648Z</time></trkpt><trkpt lat="45.0055533" lon="9.6283583"><ele>80.0</ele><time>2026-03-27T16:52:41.647Z</time></trkpt><trkpt lat="45.0056583" lon="9.6284167"><ele>80.0</ele><time>2026-03-27T16:52:42.647Z</time></trkpt><trkpt lat="45.005755" lon="9.62847"><ele>80.0</ele><time>2026-03-27T16:52:43.647Z</time></trkpt><trkpt lat="45.0058417" lon="9.6285183"><ele>80.0</ele><time>2026-03-27T16:52:44.647Z</time></trkpt><trkpt lat="45.0059167" lon="9.6285633"><ele>80.0</ele><time>2026-03-27T16:52:45.647Z</time></trkpt><trkpt lat="45.0059767" lon="9.6286"><ele>80.4</ele><time>2026-03-27T16:52:46.646Z</time></trkpt><trkpt lat="45.0060433" lon="9.6286467"><ele>80.8</ele><time>2026-03-27T16:52:48.648Z</time></trkpt><trkpt lat="45.00611" lon="9.6287367"><ele>81.19999999999999</ele><time>2026-03-27T16:52:51.649Z</time></trkpt><trkpt lat="45.0061917" lon="9.6288317"><ele>81.6</ele><time>2026-03-27T16:52:53.649Z</time></trkpt><trkpt lat="45.006315" lon="9.6288583"><ele>82.0</ele><time>2026-03-27T16:52:55.65Z</time></trkpt><trkpt lat="45.0063867" lon="9.6288583"><ele>82.0</ele><time>2026-03-27T16:52:56.649Z</time></trkpt><trkpt lat="45.0064667" lon="9.6288733"><ele>82.0</ele><time>2026-03-27T16:52:57.65Z</time></trkpt><trkpt lat="45.00655" lon="9.6289167"><ele>82.0</ele><time>2026-03-27T16:52:58.649Z</time></trkpt><trkpt lat="45.00664" lon="9.6289883"><ele>82.0</ele><time>2026-03-27T16:52:59.65Z</time></trkpt><trkpt lat="45.0067317" lon="9.629085"><ele>82.0</ele><time>2026-03-27T16:53:00.647Z</time></trkpt><trkpt lat="45.006825" lon="9.6291883"><ele>82.25</ele><time>2026-03-27T16:53:01.646Z</time></trkpt><trkpt lat="45.0069183" lon="9.6293"><ele>82.5</ele><time>2026-03-27T16:53:02.648Z</time></trkpt><trkpt lat="45.00701" lon="9.6294167"><ele>82.75</ele><time>2026-03-27T16:53:03.648Z</time></trkpt><trkpt lat="45.0071" lon="9.62954"><ele>83.0</ele><time>2026-03-27T16:53:04.649Z</time></trkpt><trkpt lat="45.0071933" lon="9.6296667"><ele>83.0</ele><time>2026-03-27T16:53:05.648Z</time></trkpt><trkpt lat="45.0072883" lon="9.6297967"><ele>83.0</ele><time>2026-03-27T16:53:06.648Z</time></trkpt><trkpt lat="45.007385" lon="9.6299317"><ele>83.0</ele><time>2026-03-27T16:53:07.648Z</time></trkpt><trkpt lat="45.0074833" lon="9.6300717"><ele>83.0</ele><time>2026-03-27T16:53:08.647Z</time></trkpt><trkpt lat="45.00758" lon="9.63021"><ele>82.5</ele><time>2026-03-27T16:53:09.649Z</time></trkpt><trkpt lat="45.0076783" lon="9.63035"><ele>82.0</ele><time>2026-03-27T16:53:10.648Z</time></trkpt><trkpt lat="45.007785" lon="9.6304983"><ele>81.5</ele><time>2026-03-27T16:53:11.647Z</time></trkpt><trkpt lat="45.0078933" lon="9.6306467"><ele>81.0</ele><time>2026-03-27T16:53:12.647Z</time></trkpt><trkpt lat="45.008" lon="9.630795"><ele>81.0</ele><time>2026-03-27T16:53:13.646Z</time></trkpt><trkpt lat="45.00811" lon="9.6309583"><ele>81.0</ele><time>2026-03-27T16:53:14.648Z</time></trkpt><trkpt lat="45.00822" lon="9.6311183"><ele>81.0</ele><time>2026-03-27T16:53:15.647Z</time></trkpt><trkpt lat="45.0083317" lon="9.63128"><ele>80.66666666666667</ele><time>2026-03-27T16:53:16.646Z</time></trkpt><trkpt lat="45.0084433" lon="9.63144"><ele>80.33333333333334</ele><time>2026-03-27T16:53:17.649Z</time></trkpt><trkpt lat="45.008555" lon="9.6316"><ele>80.0</ele><time>2026-03-27T16:53:18.649Z</time></trkpt><trkpt lat="45.0086683" lon="9.6317583"><ele>80.0</ele><time>2026-03-27T16:53:19.648Z</time></trkpt><trkpt lat="45.008785" lon="9.6319233"><ele>80.0</ele><time>2026-03-27T16:53:20.652Z</time></trkpt><trkpt lat="45.0089033" lon="9.6320933"><ele>80.0</ele><time>2026-03-27T16:53:21.649Z</time></trkpt><trkpt lat="45.0090267" lon="9.6322633"><ele>80.33333333333334</ele><time>2026-03-27T16:53:22.648Z</time></trkpt><trkpt lat="45.00915" lon="9.632435"><ele>80.66666666666667</ele><time>2026-03-27T16:53:23.648Z</time></trkpt><trkpt lat="45.00927" lon="9.6326"><ele>81.0</ele><time>2026-03-27T16:53:24.649Z</time></trkpt><trkpt lat="45.0093917" lon="9.63277"><ele>81.66666666666667</ele><time>2026-03-27T16:53:25.649Z</time></trkpt><trkpt lat="45.0095133" lon="9.6329433"><ele>82.33333333333334</ele><time>2026-03-27T16:53:26.65Z</time></trkpt><trkpt lat="45.0096367" lon="9.6331183"><ele>83.0</ele><time>2026-03-27T16:53:27.647Z</time></trkpt><trkpt lat="45.0097633" lon="9.6333"><ele>83.0</ele><time>2026-03-27T16:53:28.647Z</time></trkpt><trkpt lat="45.00989" lon="9.6334783"><ele>83.0</ele><time>2026-03-27T16:53:29.646Z</time></trkpt><trkpt lat="45.0100167" lon="9.6336583"><ele>83.0</ele><time>2026-03-27T16:53:30.647Z</time></trkpt><trkpt lat="45.0101433" lon="9.6338367"><ele>82.33333333333334</ele><time>2026-03-27T16:53:31.647Z</time></trkpt><trkpt lat="45.0102717" lon="9.6340133"><ele>81.66666666666667</ele><time>2026-03-27T16:53:32.647Z</time></trkpt><trkpt lat="45.0104017" lon="9.6341917"><ele>81.0</ele><time>2026-03-27T16:53:33.647Z</time></trkpt><trkpt lat="45.0105317" lon="9.6343667"><ele>81.0</ele><time>2026-03-27T16:53:34.648Z</time></trkpt><trkpt lat="45.01066" lon="9.6345417"><ele>81.0</ele><time>2026-03-27T16:53:35.647Z</time></trkpt><trkpt lat="45.0107883" lon="9.6347233"><ele>81.0</ele><time>2026-03-27T16:53:36.648Z</time></trkpt><trkpt lat="45.0109183" lon="9.6349083"><ele>81.33333333333333</ele><time>2026-03-27T16:53:37.648Z</time></trkpt><trkpt lat="45.0110483" lon="9.6350917"><ele>81.66666666666666</ele><time>2026-03-27T16:53:38.647Z</time></trkpt><trkpt lat="45.0111783" lon="9.6352783"><ele>82.0</ele><time>2026-03-27T16:53:39.649Z</time></trkpt><trkpt lat="45.0113067" lon="9.63546"><ele>82.0</ele><time>2026-03-27T16:53:40.647Z</time></trkpt><trkpt lat="45.0114317" lon="9.6356383"><ele>82.0</ele><time>2026-03-27T16:53:41.648Z</time></trkpt><trkpt lat="45.01155" lon="9.6358"><ele>82.0</ele><time>2026-03-27T16:53:42.651Z</time></trkpt><trkpt lat="45.01166" lon="9.63595"><ele>81.75</ele><time>2026-03-27T16:53:43.648Z</time></trkpt><trkpt lat="45.0117583" lon="9.63609"><ele>81.5</ele><time>2026-03-27T16:53:44.648Z</time></trkpt><trkpt lat="45.0118467" lon="9.6362183"><ele>81.25</ele><time>2026-03-27T16:53:45.648Z</time></trkpt><trkpt lat="45.01193" lon="9.6363383"><ele>81.0</ele><time>2026-03-27T16:53:46.647Z</time></trkpt><trkpt lat="45.0120067" lon="9.6364483"><ele>81.0</ele><time>2026-03-27T16:53:47.648Z</time></trkpt><trkpt lat="45.0120783" lon="9.636555"><ele>81.0</ele><time>2026-03-27T16:53:48.648Z</time></trkpt><trkpt lat="45.01215" lon="9.63666"><ele>81.0</ele><time>2026-03-27T16:53:49.657Z</time></trkpt><trkpt lat="45.01223" lon="9.6367733"><ele>81.0</ele><time>2026-03-27T16:53:50.648Z</time></trkpt><trkpt lat="45.0123183" lon="9.6369"><ele>81.0</ele><time>2026-03-27T16:53:51.649Z</time></trkpt><trkpt lat="45.01242" lon="9.63704"><ele>81.0</ele><time>2026-03-27T16:53:52.648Z</time></trkpt><trkpt lat="45.0125317" lon="9.6372017"><ele>81.0</ele><time>2026-03-27T16:53:53.649Z</time></trkpt><trkpt lat="45.01265" lon="9.6373667"><ele>81.0</ele><time>2026-03-27T16:53:54.647Z</time></trkpt><trkpt lat="45.0127733" lon="9.6375367"><ele>81.0</ele><time>2026-03-27T16:53:55.647Z</time></trkpt><trkpt lat="45.0128917" lon="9.6377017"><ele>81.0</ele><time>2026-03-27T16:53:56.656Z</time></trkpt><trkpt lat="45.0130083" lon="9.6378683"><ele>81.0</ele><time>2026-03-27T16:53:57.649Z</time></trkpt><trkpt lat="45.01312" lon="9.6380233"><ele>81.0</ele><time>2026-03-27T16:53:58.647Z</time></trkpt><trkpt lat="45.0132383" lon="9.638195"><ele>81.0</ele><time>2026-03-27T16:53:59.648Z</time></trkpt><trkpt lat="45.0133483" lon="9.6383667"><ele>81.0</ele><time>2026-03-27T16:54:00.647Z</time></trkpt><trkpt lat="45.0134533" lon="9.6385183"><ele>80.5</ele><time>2026-03-27T16:54:01.647Z</time></trkpt><trkpt lat="45.0135517" lon="9.6386583"><ele>80.0</ele><time>2026-03-27T16:54:02.648Z</time></trkpt><trkpt lat="45.013655" lon="9.63881"><ele>79.5</ele><time>2026-03-27T16:54:03.649Z</time></trkpt><trkpt lat="45.01376" lon="9.6389667"><ele>79.0</ele><time>2026-03-27T16:54:04.648Z</time></trkpt><trkpt lat="45.0138667" lon="9.6391233"><ele>79.0</ele><time>2026-03-27T16:54:05.648Z</time></trkpt><trkpt lat="45.0139783" lon="9.6392833"><ele>79.0</ele><time>2026-03-27T16:54:06.648Z</time></trkpt><trkpt lat="45.0140883" lon="9.63944"><ele>79.0</ele><time>2026-03-27T16:54:07.647Z</time></trkpt><trkpt lat="45.0142017" lon="9.6396"><ele>79.25</ele><time>2026-03-27T16:54:08.653Z</time></trkpt><trkpt lat="45.0143117" lon="9.6397533"><ele>79.5</ele><time>2026-03-27T16:54:09.649Z</time></trkpt><trkpt lat="45.0144183" lon="9.6399033"><ele>79.75</ele><time>2026-03-27T16:54:10.648Z</time></trkpt><trkpt lat="45.0145217" lon="9.640045"><ele>80.0</ele><time>2026-03-27T16:54:11.649Z</time></trkpt><trkpt lat="45.014625" lon="9.6401883"><ele>79.75</ele><time>2026-03-27T16:54:12.647Z</time></trkpt><trkpt lat="45.014725" lon="9.6403283"><ele>79.5</ele><time>2026-03-27T16:54:13.65Z</time></trkpt><trkpt lat="45.0148233" lon="9.64046"><ele>79.25</ele><time>2026-03-27T16:54:14.648Z</time></trkpt><trkpt lat="45.014925" lon="9.6405983"><ele>79.0</ele><time>2026-03-27T16:54:15.647Z</time></trkpt><trkpt lat="45.0150283" lon="9.64074"><ele>78.25</ele><time>2026-03-27T16:54:16.648Z</time></trkpt><trkpt lat="45.0151333" lon="9.6408833"><ele>77.5</ele><time>2026-03-27T16:54:17.647Z</time></trkpt><trkpt lat="45.0152383" lon="9.6410283"><ele>76.75</ele><time>2026-03-27T16:54:18.65Z</time></trkpt><trkpt lat="45.01534" lon="9.6411683"><ele>76.0</ele><time>2026-03-27T16:54:19.648Z</time></trkpt><trkpt lat="45.0154367" lon="9.6413083"><ele>76.0</ele><time>2026-03-27T16:54:20.647Z</time></trkpt><trkpt lat="45.015535" lon="9.6414467"><ele>76.0</ele><time>2026-03-27T16:54:21.647Z</time></trkpt><trkpt lat="45.01564" lon="9.64159"><ele>76.0</ele><time>2026-03-27T16:54:22.649Z</time></trkpt><trkpt lat="45.0157483" lon="9.64174"><ele>76.0</ele><time>2026-03-27T16:54:23.647Z</time></trkpt><trkpt lat="45.0158567" lon="9.64189"><ele>76.25</ele><time>2026-03-27T16:54:24.651Z</time></trkpt><trkpt lat="45.0159667" lon="9.6420467"><ele>76.5</ele><time>2026-03-27T16:54:25.647Z</time></trkpt><trkpt lat="45.016075" lon="9.6421983"><ele>76.75</ele><time>2026-03-27T16:54:26.647Z</time></trkpt><trkpt lat="45.0161733" lon="9.6423333"><ele>77.0</ele><time>2026-03-27T16:54:27.648Z</time></trkpt><trkpt lat="45.016265" lon="9.642465"><ele>77.0</ele><time>2026-03-27T16:54:28.647Z</time></trkpt><trkpt lat="45.0163567" lon="9.6425967"><ele>77.0</ele><time>2026-03-27T16:54:29.647Z</time></trkpt><trkpt lat="45.0164533" lon="9.6427383"><ele>77.0</ele><time>2026-03-27T16:54:30.649Z</time></trkpt><trkpt lat="45.016555" lon="9.6428817"><ele>77.0</ele><time>2026-03-27T16:54:31.647Z</time></trkpt><trkpt lat="45.0166533" lon="9.643025"><ele>76.75</ele><time>2026-03-27T16:54:32.649Z</time></trkpt><trkpt lat="45.0167467" lon="9.64316"><ele>76.5</ele><time>2026-03-27T16:54:33.648Z</time></trkpt><trkpt lat="45.0168433" lon="9.6433017"><ele>76.25</ele><time>2026-03-27T16:54:34.647Z</time></trkpt><trkpt lat="45.0169417" lon="9.643445"><ele>76.0</ele><time>2026-03-27T16:54:35.651Z</time></trkpt><trkpt lat="45.0170333" lon="9.64357"><ele>75.39999999999999</ele><time>2026-03-27T16:54:36.646Z</time></trkpt><trkpt lat="45.01712" lon="9.64368"><ele>74.8</ele><time>2026-03-27T16:54:37.647Z</time></trkpt><trkpt lat="45.0172033" lon="9.64378"><ele>74.19999999999999</ele><time>2026-03-27T16:54:38.648Z</time></trkpt><trkpt lat="45.0172767" lon="9.6438667"><ele>73.6</ele><time>2026-03-27T16:54:39.647Z</time></trkpt><trkpt lat="45.017335" lon="9.6439417"><ele>73.0</ele><time>2026-03-27T16:54:40.646Z</time></trkpt><trkpt lat="45.0174067" lon="9.64405"><ele>73.0</ele><time>2026-03-27T16:54:42.648Z</time></trkpt><trkpt lat="45.017465" lon="9.6441267"><ele>73.0</ele><time>2026-03-27T16:54:45.648Z</time></trkpt><trkpt lat="45.0175233" lon="9.6441933"><ele>73.0</ele><time>2026-03-27T16:54:50.649Z</time></trkpt><trkpt lat="45.0175933" lon="9.644115"><ele>73.0</ele><time>2026-03-27T16:54:53.647Z</time></trkpt><trkpt lat="45.017605" lon="9.644005"><ele>73.0</ele><time>2026-03-27T16:54:54.647Z</time></trkpt><trkpt lat="45.0176367" lon="9.64386"><ele>73.0</ele><time>2026-03-27T16:54:55.649Z</time></trkpt><trkpt lat="45.0176917" lon="9.6436967"><ele>73.66666666666666</ele><time>2026-03-27T16:54:56.65Z</time></trkpt><trkpt lat="45.0177533" lon="9.64352"><ele>74.33333333333333</ele><time>2026-03-27T16:54:57.646Z</time></trkpt><trkpt lat="45.0178317" lon="9.6433083"><ele>75.0</ele><time>2026-03-27T16:54:58.651Z</time></trkpt><trkpt lat="45.01792" lon="9.643095"><ele>75.0</ele><time>2026-03-27T16:54:59.648Z</time></trkpt><trkpt lat="45.0180167" lon="9.6428817"><ele>75.0</ele><time>2026-03-27T16:55:00.648Z</time></trkpt><trkpt lat="45.0181117" lon="9.642665"><ele>75.0</ele><time>2026-03-27T16:55:01.648Z</time></trkpt><trkpt lat="45.0182117" lon="9.6424467"><ele>75.0</ele><time>2026-03-27T16:55:02.648Z</time></trkpt><trkpt lat="45.01832" lon="9.6422317"><ele>75.0</ele><time>2026-03-27T16:55:03.648Z</time></trkpt><trkpt lat="45.01844" lon="9.64203"><ele>75.0</ele><time>2026-03-27T16:55:04.647Z</time></trkpt><trkpt lat="45.01857" lon="9.6418467"><ele>74.66666666666667</ele><time>2026-03-27T16:55:05.648Z</time></trkpt><trkpt lat="45.018705" lon="9.6416633"><ele>74.33333333333334</ele><time>2026-03-27T16:55:06.647Z</time></trkpt><trkpt lat="45.0188317" lon="9.641465"><ele>74.0</ele><time>2026-03-27T16:55:07.647Z</time></trkpt><trkpt lat="45.01894" lon="9.6412483"><ele>74.66666666666667</ele><time>2026-03-27T16:55:08.648Z</time></trkpt><trkpt lat="45.01903" lon="9.64102"><ele>75.33333333333333</ele><time>2026-03-27T16:55:09.649Z</time></trkpt><trkpt lat="45.0191067" lon="9.6407833"><ele>76.0</ele><time>2026-03-27T16:55:10.648Z</time></trkpt><trkpt lat="45.0191683" lon="9.6405483"><ele>76.0</ele><time>2026-03-27T16:55:11.648Z</time></trkpt><trkpt lat="45.01923" lon="9.6403167"><ele>76.0</ele><time>2026-03-27T16:55:12.65Z</time></trkpt><trkpt lat="45.019295" lon="9.64008"><ele>76.0</ele><time>2026-03-27T16:55:13.649Z</time></trkpt><trkpt lat="45.01936" lon="9.639835"><ele>75.33333333333333</ele><time>2026-03-27T16:55:14.647Z</time></trkpt><trkpt lat="45.0194267" lon="9.63959"><ele>74.66666666666667</ele><time>2026-03-27T16:55:15.647Z</time></trkpt><trkpt lat="45.01949" lon="9.6393533"><ele>74.0</ele><time>2026-03-27T16:55:16.647Z</time></trkpt><trkpt lat="45.0195483" lon="9.639135"><ele>74.0</ele><time>2026-03-27T16:55:17.651Z</time></trkpt><trkpt lat="45.0196017" lon="9.6389317"><ele>74.0</ele><time>2026-03-27T16:55:18.647Z</time></trkpt><trkpt lat="45.0196533" lon="9.6387367"><ele>74.0</ele><time>2026-03-27T16:55:19.648Z</time></trkpt><trkpt lat="45.0196983" lon="9.6385633"><ele>74.0</ele><time>2026-03-27T16:55:20.648Z</time></trkpt><trkpt lat="45.01974" lon="9.638405"><ele>74.5</ele><time>2026-03-27T16:55:21.649Z</time></trkpt><trkpt lat="45.0197783" lon="9.6382633"><ele>75.0</ele><time>2026-03-27T16:55:22.648Z</time></trkpt><trkpt lat="45.0198167" lon="9.6381117"><ele>75.5</ele><time>2026-03-27T16:55:23.648Z</time></trkpt><trkpt lat="45.01986" lon="9.63795"><ele>76.0</ele><time>2026-03-27T16:55:24.647Z</time></trkpt><trkpt lat="45.01991" lon="9.6377667"><ele>76.33333333333333</ele><time>2026-03-27T16:55:25.648Z</time></trkpt><trkpt lat="45.0199633" lon="9.63757"><ele>76.66666666666667</ele><time>2026-03-27T16:55:26.653Z</time></trkpt><trkpt lat="45.02002" lon="9.6373633"><ele>77.0</ele><time>2026-03-27T16:55:27.648Z</time></trkpt><trkpt lat="45.0200717" lon="9.6371583"><ele>77.25</ele><time>2026-03-27T16:55:28.647Z</time></trkpt><trkpt lat="45.020125" lon="9.6369567"><ele>77.5</ele><time>2026-03-27T16:55:29.649Z</time></trkpt><trkpt lat="45.020175" lon="9.63676"><ele>77.75</ele><time>2026-03-27T16:55:30.651Z</time></trkpt><trkpt lat="45.0202267" lon="9.6365733"><ele>78.0</ele><time>2026-03-27T16:55:31.647Z</time></trkpt><trkpt lat="45.0202733" lon="9.636395"><ele>78.0</ele><time>2026-03-27T16:55:32.653Z</time></trkpt><trkpt lat="45.0203217" lon="9.6362233"><ele>78.0</ele><time>2026-03-27T16:55:33.648Z</time></trkpt><trkpt lat="45.0203667" lon="9.636065"><ele>78.0</ele><time>2026-03-27T16:55:34.648Z</time></trkpt><trkpt lat="45.0204067" lon="9.6359167"><ele>78.0</ele><time>2026-03-27T16:55:35.652Z</time></trkpt><trkpt lat="45.020445" lon="9.63578"><ele>77.66666666666667</ele><time>2026-03-27T16:55:36.647Z</time></trkpt><trkpt lat="45.0204767" lon="9.6356717"><ele>77.33333333333333</ele><time>2026-03-27T16:55:37.646Z</time></trkpt><trkpt lat="45.0205017" lon="9.6355867"><ele>77.0</ele><time>2026-03-27T16:55:38.648Z</time></trkpt><trkpt lat="45.0205617" lon="9.6355033"><ele>76.66666666666666</ele><time>2026-03-27T16:55:40.648Z</time></trkpt><trkpt lat="45.020645" lon="9.6355883"><ele>76.33333333333333</ele><time>2026-03-27T16:55:42.647Z</time></trkpt><trkpt lat="45.0206917" lon="9.635665"><ele>76.0</ele><time>2026-03-27T16:55:43.646Z</time></trkpt><trkpt lat="45.0207483" lon="9.6357817"><ele>76.0</ele><time>2026-03-27T16:55:44.649Z</time></trkpt><trkpt lat="45.0208017" lon="9.6358867"><ele>76.0</ele><time>2026-03-27T16:55:45.65Z</time></trkpt><trkpt lat="45.0208517" lon="9.6359817"><ele>76.0</ele><time>2026-03-27T16:55:46.648Z</time></trkpt><trkpt lat="45.0208983" lon="9.63607"><ele>76.0</ele><time>2026-03-27T16:55:47.648Z</time></trkpt><trkpt lat="45.0209433" lon="9.6361533"><ele>76.0</ele><time>2026-03-27T16:55:48.648Z</time></trkpt><trkpt lat="45.0209867" lon="9.63623"><ele>76.0</ele><time>2026-03-27T16:55:49.648Z</time></trkpt><trkpt lat="45.02106" lon="9.63633"><ele>76.0</ele><time>2026-03-27T16:55:51.647Z</time></trkpt><trkpt lat="45.02115" lon="9.636395"><ele>76.0</ele><time>2026-03-27T16:56:01.647Z</time></trkpt><trkpt lat="45.0212683" lon="9.6364383"><ele>76.0</ele><time>2026-03-27T16:56:03.647Z</time></trkpt><trkpt lat="45.0213783" lon="9.6364883"><ele>76.0</ele><time>2026-03-27T16:56:04.647Z</time></trkpt><trkpt lat="45.021505" lon="9.6365633"><ele>76.0</ele><time>2026-03-27T16:56:05.648Z</time></trkpt><trkpt lat="45.0216383" lon="9.63664"><ele>76.0</ele><time>2026-03-27T16:56:06.647Z</time></trkpt><trkpt lat="45.0217883" lon="9.636725"><ele>76.0</ele><time>2026-03-27T16:56:07.647Z</time></trkpt><trkpt lat="45.0219517" lon="9.6368067"><ele>75.33333333333333</ele><time>2026-03-27T16:56:08.647Z</time></trkpt><trkpt lat="45.02213" lon="9.6369"><ele>74.66666666666667</ele><time>2026-03-27T16:56:09.647Z</time></trkpt><trkpt lat="45.022315" lon="9.6369917"><ele>74.0</ele><time>2026-03-27T16:56:10.646Z</time></trkpt><trkpt lat="45.0225033" lon="9.6370817"><ele>73.66666666666667</ele><time>2026-03-27T16:56:11.648Z</time></trkpt><trkpt lat="45.0226933" lon="9.6371683"><ele>73.33333333333333</ele><time>2026-03-27T16:56:12.647Z</time></trkpt><trkpt lat="45.022885" lon="9.63726"><ele>73.0</ele><time>2026-03-27T16:56:13.648Z</time></trkpt><trkpt lat="45.023075" lon="9.6373583"><ele>73.0</ele><time>2026-03-27T16:56:14.649Z</time></trkpt><trkpt lat="45.0232667" lon="9.637455"><ele>73.0</ele><time>2026-03-27T16:56:15.647Z</time></trkpt><trkpt lat="45.02346" lon="9.63755"><ele>73.0</ele><time>2026-03-27T16:56:16.648Z</time></trkpt><trkpt lat="45.0236533" lon="9.6376417"><ele>72.66666666666666</ele><time>2026-03-27T16:56:17.649Z</time></trkpt><trkpt lat="45.023845" lon="9.637735"><ele>72.33333333333333</ele><time>2026-03-27T16:56:18.647Z</time></trkpt><trkpt lat="45.024035" lon="9.6378283"><ele>72.0</ele><time>2026-03-27T16:56:19.648Z</time></trkpt><trkpt lat="45.024225" lon="9.6379217"><ele>72.0</ele><time>2026-03-27T16:56:20.649Z</time></trkpt><trkpt lat="45.0244133" lon="9.6380167"><ele>72.0</ele><time>2026-03-27T16:56:21.648Z</time></trkpt><trkpt lat="45.0246" lon="9.6381117"><ele>72.0</ele><time>2026-03-27T16:56:22.648Z</time></trkpt><trkpt lat="45.024785" lon="9.638205"><ele>72.0</ele><time>2026-03-27T16:56:23.647Z</time></trkpt><trkpt lat="45.0249667" lon="9.6383"><ele>72.0</ele><time>2026-03-27T16:56:24.648Z</time></trkpt><trkpt lat="45.0251517" lon="9.6383933"><ele>72.0</ele><time>2026-03-27T16:56:25.647Z</time></trkpt><trkpt lat="45.025335" lon="9.6384833"><ele>71.66666666666667</ele><time>2026-03-27T16:56:26.648Z</time></trkpt><trkpt lat="45.0255217" lon="9.6385733"><ele>71.33333333333334</ele><time>2026-03-27T16:56:27.65Z</time></trkpt><trkpt lat="45.0257083" lon="9.638665"><ele>71.0</ele><time>2026-03-27T16:56:28.647Z</time></trkpt><trkpt lat="45.0258933" lon="9.638755"><ele>70.33333333333334</ele><time>2026-03-27T16:56:29.648Z</time></trkpt><trkpt lat="45.0260767" lon="9.6388433"><ele>69.66666666666667</ele><time>2026-03-27T16:56:30.647Z</time></trkpt><trkpt lat="45.02626" lon="9.6389383"><ele>69.0</ele><time>2026-03-27T16:56:31.647Z</time></trkpt><trkpt lat="45.0264433" lon="9.6390333"><ele>69.0</ele><time>2026-03-27T16:56:32.653Z</time></trkpt><trkpt lat="45.0266283" lon="9.63913"><ele>69.0</ele><time>2026-03-27T16:56:33.647Z</time></trkpt><trkpt lat="45.026815" lon="9.6392267"><ele>69.0</ele><time>2026-03-27T16:56:34.647Z</time></trkpt><trkpt lat="45.0270033" lon="9.63932"><ele>70.0</ele><time>2026-03-27T16:56:35.647Z</time></trkpt><trkpt lat="45.0271933" lon="9.639415"><ele>71.0</ele><time>2026-03-27T16:56:36.647Z</time></trkpt><trkpt lat="45.0273817" lon="9.6395117"><ele>72.0</ele><time>2026-03-27T16:56:37.648Z</time></trkpt><trkpt lat="45.02757" lon="9.6396133"><ele>72.0</ele><time>2026-03-27T16:56:38.648Z</time></trkpt><trkpt lat="45.02776" lon="9.63972"><ele>72.0</ele><time>2026-03-27T16:56:39.649Z</time></trkpt><trkpt lat="45.0279533" lon="9.639825"><ele>72.0</ele><time>2026-03-27T16:56:40.646Z</time></trkpt><trkpt lat="45.02815" lon="9.6399333"><ele>73.0</ele><time>2026-03-27T16:56:41.647Z</time></trkpt><trkpt lat="45.02835" lon="9.6400317"><ele>74.0</ele><time>2026-03-27T16:56:42.647Z</time></trkpt><trkpt lat="45.0285433" lon="9.6401233"><ele>75.0</ele><time>2026-03-27T16:56:43.649Z</time></trkpt><trkpt lat="45.0287433" lon="9.6402017"><ele>75.0</ele><time>2026-03-27T16:56:44.649Z</time></trkpt><trkpt lat="45.028945" lon="9.640265"><ele>75.0</ele><time>2026-03-27T16:56:45.65Z</time></trkpt><trkpt lat="45.0291533" lon="9.640315"><ele>75.0</ele><time>2026-03-27T16:56:46.647Z</time></trkpt><trkpt lat="45.0293633" lon="9.64036"><ele>74.0</ele><time>2026-03-27T16:56:47.649Z</time></trkpt><trkpt lat="45.029575" lon="9.6404067"><ele>73.0</ele><time>2026-03-27T16:56:48.648Z</time></trkpt><trkpt lat="45.0297867" lon="9.640455"><ele>72.0</ele><time>2026-03-27T16:56:49.647Z</time></trkpt><trkpt lat="45.0300067" lon="9.6404983"><ele>72.0</ele><time>2026-03-27T16:56:50.647Z</time></trkpt><trkpt lat="45.03023" lon="9.6405483"><ele>72.0</ele><time>2026-03-27T16:56:51.647Z</time></trkpt><trkpt lat="45.03046" lon="9.6405983"><ele>72.0</ele><time>2026-03-27T16:56:52.647Z</time></trkpt><trkpt lat="45.0306867" lon="9.6406433"><ele>72.0</ele><time>2026-03-27T16:56:53.648Z</time></trkpt><trkpt lat="45.0309083" lon="9.64069"><ele>70.0</ele><time>2026-03-27T16:56:54.647Z</time></trkpt><trkpt lat="45.0311317" lon="9.640735"><ele>68.0</ele><time>2026-03-27T16:56:55.648Z</time></trkpt><trkpt lat="45.03136" lon="9.6407817"><ele>68.0</ele><time>2026-03-27T16:56:56.655Z</time></trkpt><trkpt lat="45.0315917" lon="9.64083"><ele>68.0</ele><time>2026-03-27T16:56:57.648Z</time></trkpt><trkpt lat="45.03183" lon="9.64088"><ele>67.0</ele><time>2026-03-27T16:56:58.647Z</time></trkpt><trkpt lat="45.032065" lon="9.6409333"><ele>66.0</ele><time>2026-03-27T16:56:59.648Z</time></trkpt><trkpt lat="45.0323017" lon="9.6409917"><ele>67.0</ele><time>2026-03-27T16:57:00.648Z</time></trkpt><trkpt lat="45.03254" lon="9.6410467"><ele>68.0</ele><time>2026-03-27T16:57:01.647Z</time></trkpt><trkpt lat="45.032775" lon="9.641105"><ele>68.0</ele><time>2026-03-27T16:57:02.647Z</time></trkpt><trkpt lat="45.0330033" lon="9.6411633"><ele>68.0</ele><time>2026-03-27T16:57:03.648Z</time></trkpt><trkpt lat="45.0332217" lon="9.6412133"><ele>67.66666666666667</ele><time>2026-03-27T16:57:04.647Z</time></trkpt><trkpt lat="45.0334367" lon="9.6412617"><ele>67.33333333333333</ele><time>2026-03-27T16:57:05.647Z</time></trkpt><trkpt lat="45.03364" lon="9.6413067"><ele>67.0</ele><time>2026-03-27T16:57:06.648Z</time></trkpt><trkpt lat="45.0338317" lon="9.6413533"><ele>67.0</ele><time>2026-03-27T16:57:07.648Z</time></trkpt><trkpt lat="45.0339967" lon="9.6413933"><ele>67.0</ele><time>2026-03-27T16:57:08.648Z</time></trkpt><trkpt lat="45.0341467" lon="9.6414333"><ele>67.0</ele><time>2026-03-27T16:57:09.65Z</time></trkpt><trkpt lat="45.034285" lon="9.6414667"><ele>66.5</ele><time>2026-03-27T16:57:10.647Z</time></trkpt><trkpt lat="45.0344133" lon="9.6415"><ele>66.0</ele><time>2026-03-27T16:57:11.647Z</time></trkpt><trkpt lat="45.03453" lon="9.64153"><ele>65.5</ele><time>2026-03-27T16:57:12.647Z</time></trkpt><trkpt lat="45.0346333" lon="9.6415733"><ele>65.0</ele><time>2026-03-27T16:57:13.649Z</time></trkpt><trkpt lat="45.0347083" lon="9.6416533"><ele>65.0</ele><time>2026-03-27T16:57:14.648Z</time></trkpt><trkpt lat="45.0347567" lon="9.6417667"><ele>65.0</ele><time>2026-03-27T16:57:15.648Z</time></trkpt><trkpt lat="45.0347683" lon="9.641915"><ele>65.0</ele><time>2026-03-27T16:57:16.647Z</time></trkpt><trkpt lat="45.034785" lon="9.64205"><ele>65.0</ele><time>2026-03-27T16:57:17.646Z</time></trkpt><trkpt lat="45.03484" lon="9.6421483"><ele>65.0</ele><time>2026-03-27T16:57:18.647Z</time></trkpt><trkpt lat="45.03492" lon="9.642205"><ele>65.5</ele><time>2026-03-27T16:57:19.647Z</time></trkpt><trkpt lat="45.0350233" lon="9.64224"><ele>66.0</ele><time>2026-03-27T16:57:20.648Z</time></trkpt><trkpt lat="45.0351583" lon="9.6422483"><ele>66.5</ele><time>2026-03-27T16:57:21.647Z</time></trkpt><trkpt lat="45.0353133" lon="9.642265"><ele>67.0</ele><time>2026-03-27T16:57:22.649Z</time></trkpt><trkpt lat="45.035475" lon="9.6422867"><ele>67.0</ele><time>2026-03-27T16:57:23.648Z</time></trkpt><trkpt lat="45.03565" lon="9.64231"><ele>67.0</ele><time>2026-03-27T16:57:24.647Z</time></trkpt><trkpt lat="45.0358367" lon="9.6423317"><ele>67.0</ele><time>2026-03-27T16:57:25.649Z</time></trkpt><trkpt lat="45.0360283" lon="9.6423567"><ele>67.0</ele><time>2026-03-27T16:57:26.648Z</time></trkpt><trkpt lat="45.0362117" lon="9.64239"><ele>67.0</ele><time>2026-03-27T16:57:27.646Z</time></trkpt><trkpt lat="45.036385" lon="9.64242"><ele>67.0</ele><time>2026-03-27T16:57:28.647Z</time></trkpt><trkpt lat="45.0365367" lon="9.642445"><ele>66.8</ele><time>2026-03-27T16:57:29.647Z</time></trkpt><trkpt lat="45.0366683" lon="9.642465"><ele>66.6</ele><time>2026-03-27T16:57:30.65Z</time></trkpt><trkpt lat="45.0367817" lon="9.64248"><ele>66.39999999999999</ele><time>2026-03-27T16:57:31.648Z</time></trkpt><trkpt lat="45.0368717" lon="9.64249"><ele>66.2</ele><time>2026-03-27T16:57:32.649Z</time></trkpt><trkpt lat="45.036935" lon="9.6424983"><ele>66.0</ele><time>2026-03-27T16:57:33.648Z</time></trkpt><trkpt lat="45.0370083" lon="9.64249"><ele>66.0</ele><time>2026-03-27T16:57:36.647Z</time></trkpt><trkpt lat="45.03705" lon="9.6423083"><ele>66.0</ele><time>2026-03-27T16:57:46.647Z</time></trkpt><trkpt lat="45.0370133" lon="9.642155"><ele>66.0</ele><time>2026-03-27T16:57:47.647Z</time></trkpt><trkpt lat="45.0369533" lon="9.641985"><ele>66.0</ele><time>2026-03-27T16:57:48.649Z</time></trkpt><trkpt lat="45.0368817" lon="9.6417933"><ele>66.66666666666667</ele><time>2026-03-27T16:57:49.647Z</time></trkpt><trkpt lat="45.0368083" lon="9.64159"><ele>67.33333333333334</ele><time>2026-03-27T16:57:50.649Z</time></trkpt><trkpt lat="45.0367233" lon="9.6413767"><ele>68.0</ele><time>2026-03-27T16:57:51.65Z</time></trkpt><trkpt lat="45.0366333" lon="9.641145"><ele>67.33333333333334</ele><time>2026-03-27T16:57:52.648Z</time></trkpt><trkpt lat="45.0365433" lon="9.6409017"><ele>66.66666666666667</ele><time>2026-03-27T16:57:53.647Z</time></trkpt><trkpt lat="45.0364483" lon="9.640645"><ele>66.0</ele><time>2026-03-27T16:57:54.648Z</time></trkpt><trkpt lat="45.0363533" lon="9.6403717"><ele>65.66666666666667</ele><time>2026-03-27T16:57:55.648Z</time></trkpt><trkpt lat="45.036255" lon="9.6400967"><ele>65.33333333333334</ele><time>2026-03-27T16:57:56.651Z</time></trkpt><trkpt lat="45.036155" lon="9.6398117"><ele>65.0</ele><time>2026-03-27T16:57:57.649Z</time></trkpt><trkpt lat="45.0360517" lon="9.6395217"><ele>65.5</ele><time>2026-03-27T16:57:58.648Z</time></trkpt><trkpt lat="45.0359483" lon="9.6392283"><ele>66.0</ele><time>2026-03-27T16:57:59.647Z</time></trkpt><trkpt lat="45.0358433" lon="9.6389317"><ele>66.5</ele><time>2026-03-27T16:58:00.648Z</time></trkpt><trkpt lat="45.0357367" lon="9.63863"><ele>67.0</ele><time>2026-03-27T16:58:01.65Z</time></trkpt><trkpt lat="45.03563" lon="9.638325"><ele>67.0</ele><time>2026-03-27T16:58:02.648Z</time></trkpt><trkpt lat="45.0355217" lon="9.6380183"><ele>67.0</ele><time>2026-03-27T16:58:03.649Z</time></trkpt><trkpt lat="45.035415" lon="9.6377167"><ele>67.0</ele><time>2026-03-27T16:58:04.647Z</time></trkpt><trkpt lat="45.0353083" lon="9.6374183"><ele>67.0</ele><time>2026-03-27T16:58:05.65Z</time></trkpt><trkpt lat="45.0352033" lon="9.63712"><ele>67.0</ele><time>2026-03-27T16:58:06.649Z</time></trkpt><trkpt lat="45.0351" lon="9.636825"><ele>67.0</ele><time>2026-03-27T16:58:07.647Z</time></trkpt><trkpt lat="45.0349948" lon="9.6365352"><ele>66.66666666666666</ele><time>2026-03-27T16:58:08.649Z</time></trkpt><trkpt lat="45.0348961" lon="9.6362557"><ele>66.33333333333333</ele><time>2026-03-27T16:58:09.648Z</time></trkpt><trkpt lat="45.0348054" lon="9.635998"><ele>66.0</ele><time>2026-03-27T16:58:10.653Z</time></trkpt><trkpt lat="45.0347265" lon="9.6357666"><ele>66.0</ele><time>2026-03-27T16:58:11.65Z</time></trkpt><trkpt lat="45.0346584" lon="9.6355565"><ele>66.0</ele><time>2026-03-27T16:58:12.647Z</time></trkpt><trkpt lat="45.0346036" lon="9.6353662"><ele>66.0</ele><time>2026-03-27T16:58:13.647Z</time></trkpt><trkpt lat="45.034556" lon="9.6352042"><ele>66.0</ele><time>2026-03-27T16:58:14.648Z</time></trkpt><trkpt lat="45.0345143" lon="9.635072"><ele>66.2</ele><time>2026-03-27T16:58:15.65Z</time></trkpt><trkpt lat="45.0344914" lon="9.6349659"><ele>66.39999999999999</ele><time>2026-03-27T16:58:16.648Z</time></trkpt><trkpt lat="45.0345105" lon="9.6348194"><ele>66.6</ele><time>2026-03-27T16:58:18.648Z</time></trkpt><trkpt lat="45.034608" lon="9.6347127"><ele>66.8</ele><time>2026-03-27T16:58:20.647Z</time></trkpt><trkpt lat="45.0346895" lon="9.6346742"><ele>67.0</ele><time>2026-03-27T16:58:21.648Z</time></trkpt><trkpt lat="45.0348112" lon="9.6346567"><ele>67.0</ele><time>2026-03-27T16:58:22.647Z</time></trkpt><trkpt lat="45.0349575" lon="9.6346455"><ele>67.0</ele><time>2026-03-27T16:58:23.652Z</time></trkpt><trkpt lat="45.0351142" lon="9.6346321"><ele>67.0</ele><time>2026-03-27T16:58:24.647Z</time></trkpt><trkpt lat="45.0352693" lon="9.634618"><ele>66.25</ele><time>2026-03-27T16:58:25.648Z</time></trkpt><trkpt lat="45.035407" lon="9.634605"><ele>65.5</ele><time>2026-03-27T16:58:26.647Z</time></trkpt><trkpt lat="45.0355288" lon="9.6345944"><ele>64.75</ele><time>2026-03-27T16:58:27.647Z</time></trkpt><trkpt lat="45.0356404" lon="9.6345853"><ele>64.0</ele><time>2026-03-27T16:58:28.648Z</time></trkpt><trkpt lat="45.035757" lon="9.6345709"><ele>64.66666666666666</ele><time>2026-03-27T16:58:29.647Z</time></trkpt><trkpt lat="45.0358931" lon="9.634547"><ele>65.33333333333333</ele><time>2026-03-27T16:58:30.655Z</time></trkpt><trkpt lat="45.0360445" lon="9.634514"><ele>66.0</ele><time>2026-03-27T16:58:31.647Z</time></trkpt><trkpt lat="45.0362164" lon="9.6344875"><ele>65.66666666666667</ele><time>2026-03-27T16:58:32.647Z</time></trkpt><trkpt lat="45.0364008" lon="9.6344661"><ele>65.33333333333334</ele><time>2026-03-27T16:58:33.647Z</time></trkpt><trkpt lat="45.0365951" lon="9.6344431"><ele>65.0</ele><time>2026-03-27T16:58:34.647Z</time></trkpt><trkpt lat="45.0367934" lon="9.6344196"><ele>64.33333333333334</ele><time>2026-03-27T16:58:35.648Z</time></trkpt><trkpt lat="45.0369895" lon="9.6343962"><ele>63.66666666666667</ele><time>2026-03-27T16:58:36.648Z</time></trkpt><trkpt lat="45.037173" lon="9.6343708"><ele>63.0</ele><time>2026-03-27T16:58:37.647Z</time></trkpt><trkpt lat="45.0373386" lon="9.6343461"><ele>62.8</ele><time>2026-03-27T16:58:38.653Z</time></trkpt><trkpt lat="45.0374771" lon="9.6343281"><ele>62.599999999999994</ele><time>2026-03-27T16:58:39.648Z</time></trkpt><trkpt lat="45.0375895" lon="9.6343259"><ele>62.400000000000006</ele><time>2026-03-27T16:58:40.647Z</time></trkpt><trkpt lat="45.0376821" lon="9.6343526"><ele>62.2</ele><time>2026-03-27T16:58:41.648Z</time></trkpt><trkpt lat="45.0377528" lon="9.6344083"><ele>62.0</ele><time>2026-03-27T16:58:42.648Z</time></trkpt><trkpt lat="45.0377947" lon="9.6344926"><ele>62.0</ele><time>2026-03-27T16:58:43.647Z</time></trkpt><trkpt lat="45.0377873" lon="9.634632"><ele>62.0</ele><time>2026-03-27T16:58:44.648Z</time></trkpt><trkpt lat="45.0377785" lon="9.6347966"><ele>62.0</ele><time>2026-03-27T16:58:45.647Z</time></trkpt><trkpt lat="45.0378043" lon="9.6349436"><ele>62.0</ele><time>2026-03-27T16:58:46.647Z</time></trkpt><trkpt lat="45.0378667" lon="9.635047"><ele>62.0</ele><time>2026-03-27T16:58:47.648Z</time></trkpt><trkpt lat="45.0379535" lon="9.6351113"><ele>62.0</ele><time>2026-03-27T16:58:48.648Z</time></trkpt><trkpt lat="45.0380657" lon="9.6351624"><ele>62.0</ele><time>2026-03-27T16:58:49.647Z</time></trkpt><trkpt lat="45.0382024" lon="9.635221"><ele>62.0</ele><time>2026-03-27T16:58:50.649Z</time></trkpt><trkpt lat="45.0383553" lon="9.6352902"><ele>62.0</ele><time>2026-03-27T16:58:51.648Z</time></trkpt><trkpt lat="45.0385221" lon="9.6353652"><ele>62.66666666666667</ele><time>2026-03-27T16:58:52.647Z</time></trkpt><trkpt lat="45.038705" lon="9.6354444"><ele>63.33333333333333</ele><time>2026-03-27T16:58:53.648Z</time></trkpt><trkpt lat="45.0388968" lon="9.6355297"><ele>64.0</ele><time>2026-03-27T16:58:54.647Z</time></trkpt><trkpt lat="45.0390944" lon="9.6356177"><ele>63.33333333333333</ele><time>2026-03-27T16:58:55.647Z</time></trkpt><trkpt lat="45.0393017" lon="9.6357117"><ele>62.66666666666667</ele><time>2026-03-27T16:58:56.647Z</time></trkpt><trkpt lat="45.0395083" lon="9.6358083"><ele>62.0</ele><time>2026-03-27T16:58:57.647Z</time></trkpt><trkpt lat="45.0397167" lon="9.6359017"><ele>62.0</ele><time>2026-03-27T16:58:58.648Z</time></trkpt><trkpt lat="45.0399267" lon="9.6359983"><ele>62.0</ele><time>2026-03-27T16:58:59.647Z</time></trkpt><trkpt lat="45.0401367" lon="9.636095"><ele>62.0</ele><time>2026-03-27T16:59:00.649Z</time></trkpt><trkpt lat="45.040345" lon="9.6361867"><ele>62.0</ele><time>2026-03-27T16:59:01.649Z</time></trkpt><trkpt lat="45.040555" lon="9.6362833"><ele>62.0</ele><time>2026-03-27T16:59:02.649Z</time></trkpt><trkpt lat="45.0407633" lon="9.6363767"><ele>62.0</ele><time>2026-03-27T16:59:03.649Z</time></trkpt><trkpt lat="45.0409733" lon="9.63647"><ele>62.0</ele><time>2026-03-27T16:59:04.647Z</time></trkpt><trkpt lat="45.041185" lon="9.636565"><ele>62.0</ele><time>2026-03-27T16:59:05.647Z</time></trkpt><trkpt lat="45.0413967" lon="9.6366583"><ele>62.0</ele><time>2026-03-27T16:59:06.654Z</time></trkpt><trkpt lat="45.0416083" lon="9.63675"><ele>61.66666666666667</ele><time>2026-03-27T16:59:07.647Z</time></trkpt><trkpt lat="45.0418217" lon="9.6368383"><ele>61.33333333333333</ele><time>2026-03-27T16:59:08.649Z</time></trkpt><trkpt lat="45.0420333" lon="9.6369317"><ele>61.0</ele><time>2026-03-27T16:59:09.647Z</time></trkpt><trkpt lat="45.0422433" lon="9.63704"><ele>61.0</ele><time>2026-03-27T16:59:10.648Z</time></trkpt><trkpt lat="45.0424483" lon="9.637165"><ele>61.0</ele><time>2026-03-27T16:59:11.648Z</time></trkpt><trkpt lat="45.04265" lon="9.6373"><ele>61.0</ele><time>2026-03-27T16:59:12.647Z</time></trkpt><trkpt lat="45.0428467" lon="9.6374383"><ele>61.0</ele><time>2026-03-27T16:59:13.648Z</time></trkpt><trkpt lat="45.0430483" lon="9.6375633"><ele>61.0</ele><time>2026-03-27T16:59:14.65Z</time></trkpt><trkpt lat="45.043255" lon="9.6376633"><ele>61.0</ele><time>2026-03-27T16:59:15.647Z</time></trkpt><trkpt lat="45.043465" lon="9.6377483"><ele>61.0</ele><time>2026-03-27T16:59:16.65Z</time></trkpt><trkpt lat="45.0436783" lon="9.6378283"><ele>61.0</ele><time>2026-03-27T16:59:17.648Z</time></trkpt><trkpt lat="45.0438933" lon="9.6378833"><ele>61.0</ele><time>2026-03-27T16:59:18.648Z</time></trkpt><trkpt lat="45.0441117" lon="9.6379233"><ele>60.33333333333333</ele><time>2026-03-27T16:59:19.647Z</time></trkpt><trkpt lat="45.0443267" lon="9.6379617"><ele>59.66666666666667</ele><time>2026-03-27T16:59:20.649Z</time></trkpt><trkpt lat="45.0445417" lon="9.6380033"><ele>59.0</ele><time>2026-03-27T16:59:21.649Z</time></trkpt><trkpt lat="45.0447567" lon="9.6380483"><ele>59.66666666666667</ele><time>2026-03-27T16:59:22.65Z</time></trkpt><trkpt lat="45.04497" lon="9.6380933"><ele>60.33333333333333</ele><time>2026-03-27T16:59:23.65Z</time></trkpt><trkpt lat="45.04519" lon="9.63814"><ele>61.0</ele><time>2026-03-27T16:59:24.649Z</time></trkpt><trkpt lat="45.045405" lon="9.6381883"><ele>61.0</ele><time>2026-03-27T16:59:25.651Z</time></trkpt><trkpt lat="45.04562" lon="9.6382333"><ele>61.0</ele><time>2026-03-27T16:59:26.648Z</time></trkpt><trkpt lat="45.045835" lon="9.6382717"><ele>61.0</ele><time>2026-03-27T16:59:27.647Z</time></trkpt><trkpt lat="45.04605" lon="9.6382983"><ele>60.666666666666664</ele><time>2026-03-27T16:59:28.648Z</time></trkpt><trkpt lat="45.0462683" lon="9.6383267"><ele>60.33333333333333</ele><time>2026-03-27T16:59:29.647Z</time></trkpt><trkpt lat="45.0464867" lon="9.638365"><ele>60.0</ele><time>2026-03-27T16:59:30.65Z</time></trkpt><trkpt lat="45.0467033" lon="9.6384133"><ele>59.66666666666667</ele><time>2026-03-27T16:59:31.648Z</time></trkpt><trkpt lat="45.04692" lon="9.6384667"><ele>59.333333333333336</ele><time>2026-03-27T16:59:32.649Z</time></trkpt><trkpt lat="45.0471383" lon="9.638525"><ele>59.0</ele><time>2026-03-27T16:59:33.648Z</time></trkpt><trkpt lat="45.047355" lon="9.6385833"><ele>59.0</ele><time>2026-03-27T16:59:34.647Z</time></trkpt><trkpt lat="45.04757" lon="9.6386517"><ele>59.0</ele><time>2026-03-27T16:59:35.647Z</time></trkpt><trkpt lat="45.047785" lon="9.638725"><ele>59.0</ele><time>2026-03-27T16:59:36.648Z</time></trkpt><trkpt lat="45.048" lon="9.638795"><ele>59.0</ele><time>2026-03-27T16:59:37.647Z</time></trkpt><trkpt lat="45.0482133" lon="9.6388533"><ele>59.0</ele><time>2026-03-27T16:59:38.648Z</time></trkpt><trkpt lat="45.04842" lon="9.6388817"><ele>59.0</ele><time>2026-03-27T16:59:39.648Z</time></trkpt><trkpt lat="45.0486217" lon="9.6388733"><ele>58.333333333333336</ele><time>2026-03-27T16:59:40.647Z</time></trkpt><trkpt lat="45.0488233" lon="9.638825"><ele>57.66666666666667</ele><time>2026-03-27T16:59:41.648Z</time></trkpt><trkpt lat="45.0490283" lon="9.6387517"><ele>57.0</ele><time>2026-03-27T16:59:42.648Z</time></trkpt><trkpt lat="45.04923" lon="9.6386717"><ele>56.66666666666667</ele><time>2026-03-27T16:59:43.648Z</time></trkpt><trkpt lat="45.0494283" lon="9.6386017"><ele>56.333333333333336</ele><time>2026-03-27T16:59:44.649Z</time></trkpt><trkpt lat="45.0496317" lon="9.6385583"><ele>56.0</ele><time>2026-03-27T16:59:45.647Z</time></trkpt><trkpt lat="45.0498367" lon="9.6385483"><ele>56.0</ele><time>2026-03-27T16:59:46.647Z</time></trkpt><trkpt lat="45.050035" lon="9.6385517"><ele>56.0</ele><time>2026-03-27T16:59:47.649Z</time></trkpt><trkpt lat="45.050225" lon="9.6385683"><ele>56.0</ele><time>2026-03-27T16:59:48.648Z</time></trkpt><trkpt lat="45.0504067" lon="9.6386233"><ele>56.66666666666667</ele><time>2026-03-27T16:59:49.648Z</time></trkpt><trkpt lat="45.050575" lon="9.63872"><ele>57.33333333333333</ele><time>2026-03-27T16:59:50.648Z</time></trkpt><trkpt lat="45.050735" lon="9.638825"><ele>58.0</ele><time>2026-03-27T16:59:51.65Z</time></trkpt><trkpt lat="45.0509017" lon="9.6389017"><ele>58.0</ele><time>2026-03-27T16:59:52.647Z</time></trkpt><trkpt lat="45.05108" lon="9.6389483"><ele>58.0</ele><time>2026-03-27T16:59:53.648Z</time></trkpt><trkpt lat="45.051265" lon="9.63897"><ele>58.0</ele><time>2026-03-27T16:59:54.648Z</time></trkpt><trkpt lat="45.051455" lon="9.6389767"><ele>59.0</ele><time>2026-03-27T16:59:55.648Z</time></trkpt><trkpt lat="45.0516467" lon="9.6389767"><ele>60.0</ele><time>2026-03-27T16:59:56.649Z</time></trkpt><trkpt lat="45.051825" lon="9.6389783"><ele>61.0</ele><time>2026-03-27T16:59:57.647Z</time></trkpt><trkpt lat="45.0519883" lon="9.6390033"><ele>61.0</ele><time>2026-03-27T16:59:58.648Z</time></trkpt><trkpt lat="45.0521467" lon="9.6390467"><ele>61.0</ele><time>2026-03-27T16:59:59.648Z</time></trkpt><trkpt lat="45.0523017" lon="9.639095"><ele>61.0</ele><time>2026-03-27T17:00:00.65Z</time></trkpt><trkpt lat="45.0524433" lon="9.6391433"><ele>60.599999999999994</ele><time>2026-03-27T17:00:01.649Z</time></trkpt><trkpt lat="45.0525667" lon="9.63919"><ele>60.199999999999996</ele><time>2026-03-27T17:00:02.651Z</time></trkpt><trkpt lat="45.0526733" lon="9.63923"><ele>59.800000000000004</ele><time>2026-03-27T17:00:03.65Z</time></trkpt><trkpt lat="45.0527633" lon="9.639265"><ele>59.400000000000006</ele><time>2026-03-27T17:00:04.649Z</time></trkpt><trkpt lat="45.0528317" lon="9.6393083"><ele>59.0</ele><time>2026-03-27T17:00:05.65Z</time></trkpt><trkpt lat="45.05288" lon="9.6393667"><ele>59.0</ele><time>2026-03-27T17:00:06.649Z</time></trkpt><trkpt lat="45.0528783" lon="9.6395517"><ele>59.0</ele><time>2026-03-27T17:00:08.649Z</time></trkpt><trkpt lat="45.05283" lon="9.6396767"><ele>59.0</ele><time>2026-03-27T17:00:09.651Z</time></trkpt><trkpt lat="45.0527167" lon="9.6398283"><ele>59.0</ele><time>2026-03-27T17:00:10.651Z</time></trkpt><trkpt lat="45.0526017" lon="9.6399817"><ele>59.0</ele><time>2026-03-27T17:00:11.647Z</time></trkpt><trkpt lat="45.0524817" lon="9.6401633"><ele>59.0</ele><time>2026-03-27T17:00:12.653Z</time></trkpt><trkpt lat="45.0523783" lon="9.64038"><ele>59.0</ele><time>2026-03-27T17:00:13.647Z</time></trkpt><trkpt lat="45.05229" lon="9.6406283"><ele>58.66666666666667</ele><time>2026-03-27T17:00:14.648Z</time></trkpt><trkpt lat="45.05222" lon="9.6409017"><ele>58.33333333333333</ele><time>2026-03-27T17:00:15.647Z</time></trkpt><trkpt lat="45.052165" lon="9.6411883"><ele>58.0</ele><time>2026-03-27T17:00:16.647Z</time></trkpt><trkpt lat="45.0521283" lon="9.6414933"><ele>58.0</ele><time>2026-03-27T17:00:17.648Z</time></trkpt><trkpt lat="45.0520967" lon="9.6418033"><ele>58.0</ele><time>2026-03-27T17:00:18.648Z</time></trkpt><trkpt lat="45.052065" lon="9.6421183"><ele>58.0</ele><time>2026-03-27T17:00:19.648Z</time></trkpt><trkpt lat="45.0520283" lon="9.6424367"><ele>57.5</ele><time>2026-03-27T17:00:20.648Z</time></trkpt><trkpt lat="45.0519967" lon="9.6427567"><ele>57.0</ele><time>2026-03-27T17:00:21.649Z</time></trkpt><trkpt lat="45.05197" lon="9.6430783"><ele>57.0</ele><time>2026-03-27T17:00:22.651Z</time></trkpt><trkpt lat="45.0519467" lon="9.6434"><ele>57.0</ele><time>2026-03-27T17:00:23.648Z</time></trkpt><trkpt lat="45.0519167" lon="9.64372"><ele>57.0</ele><time>2026-03-27T17:00:24.647Z</time></trkpt><trkpt lat="45.0518867" lon="9.6440383"><ele>57.0</ele><time>2026-03-27T17:00:25.647Z</time></trkpt><trkpt lat="45.0518617" lon="9.64436"><ele>56.5</ele><time>2026-03-27T17:00:26.648Z</time></trkpt><trkpt lat="45.0518383" lon="9.6446833"><ele>56.0</ele><time>2026-03-27T17:00:27.65Z</time></trkpt><trkpt lat="45.0518183" lon="9.64501"><ele>58.0</ele><time>2026-03-27T17:00:28.649Z</time></trkpt><trkpt lat="45.05179" lon="9.6453367"><ele>60.0</ele><time>2026-03-27T17:00:29.648Z</time></trkpt><trkpt lat="45.0517617" lon="9.6456617"><ele>60.0</ele><time>2026-03-27T17:00:30.647Z</time></trkpt><trkpt lat="45.0517333" lon="9.6459883"><ele>60.0</ele><time>2026-03-27T17:00:31.648Z</time></trkpt><trkpt lat="45.051705" lon="9.6463133"><ele>60.0</ele><time>2026-03-27T17:00:32.649Z</time></trkpt><trkpt lat="45.0516783" lon="9.6466383"><ele>60.0</ele><time>2026-03-27T17:00:33.648Z</time></trkpt><trkpt lat="45.0516533" lon="9.6469633"><ele>60.0</ele><time>2026-03-27T17:00:34.65Z</time></trkpt><trkpt lat="45.0516283" lon="9.6472883"><ele>60.0</ele><time>2026-03-27T17:00:35.65Z</time></trkpt><trkpt lat="45.0516017" lon="9.64761"><ele>59.0</ele><time>2026-03-27T17:00:36.649Z</time></trkpt><trkpt lat="45.05158" lon="9.6479267"><ele>58.0</ele><time>2026-03-27T17:00:37.652Z</time></trkpt><trkpt lat="45.0515567" lon="9.6482583"><ele>58.0</ele><time>2026-03-27T17:00:38.651Z</time></trkpt><trkpt lat="45.051525" lon="9.6485817"><ele>58.0</ele><time>2026-03-27T17:00:39.647Z</time></trkpt><trkpt lat="45.0515" lon="9.6489117"><ele>58.5</ele><time>2026-03-27T17:00:40.65Z</time></trkpt><trkpt lat="45.051475" lon="9.6492383"><ele>59.0</ele><time>2026-03-27T17:00:41.648Z</time></trkpt><trkpt lat="45.0514567" lon="9.64956"><ele>59.0</ele><time>2026-03-27T17:00:42.647Z</time></trkpt><trkpt lat="45.0514367" lon="9.6498833"><ele>59.0</ele><time>2026-03-27T17:00:43.647Z</time></trkpt><trkpt lat="45.051415" lon="9.6501967"><ele>59.0</ele><time>2026-03-27T17:00:44.652Z</time></trkpt><trkpt lat="45.05139" lon="9.6505183"><ele>59.0</ele><time>2026-03-27T17:00:45.647Z</time></trkpt><trkpt lat="45.0513617" lon="9.6508483"><ele>59.0</ele><time>2026-03-27T17:00:46.647Z</time></trkpt><trkpt lat="45.0513367" lon="9.6511783"><ele>59.0</ele><time>2026-03-27T17:00:47.648Z</time></trkpt><trkpt lat="45.051315" lon="9.6514983"><ele>59.0</ele><time>2026-03-27T17:00:48.648Z</time></trkpt><trkpt lat="45.0512933" lon="9.6518067"><ele>59.0</ele><time>2026-03-27T17:00:49.648Z</time></trkpt><trkpt lat="45.0512733" lon="9.652105"><ele>59.0</ele><time>2026-03-27T17:00:50.648Z</time></trkpt><trkpt lat="45.05125" lon="9.652395"><ele>59.0</ele><time>2026-03-27T17:00:51.648Z</time></trkpt><trkpt lat="45.051225" lon="9.6526583"><ele>59.0</ele><time>2026-03-27T17:00:52.652Z</time></trkpt><trkpt lat="45.0512017" lon="9.6529033"><ele>59.0</ele><time>2026-03-27T17:00:53.647Z</time></trkpt><trkpt lat="45.0511733" lon="9.653135"><ele>58.75</ele><time>2026-03-27T17:00:54.647Z</time></trkpt><trkpt lat="45.0511433" lon="9.6533417"><ele>58.5</ele><time>2026-03-27T17:00:55.647Z</time></trkpt><trkpt lat="45.0511" lon="9.6535167"><ele>58.25</ele><time>2026-03-27T17:00:56.648Z</time></trkpt><trkpt lat="45.051055" lon="9.6536533"><ele>58.0</ele><time>2026-03-27T17:00:57.647Z</time></trkpt><trkpt lat="45.0510367" lon="9.6537717"><ele>57.8</ele><time>2026-03-27T17:00:58.648Z</time></trkpt><trkpt lat="45.0510467" lon="9.6538817"><ele>57.599999999999994</ele><time>2026-03-27T17:00:59.649Z</time></trkpt><trkpt lat="45.0510783" lon="9.6539633"><ele>57.400000000000006</ele><time>2026-03-27T17:01:00.649Z</time></trkpt><trkpt lat="45.0512" lon="9.6539483"><ele>57.2</ele><time>2026-03-27T17:01:02.65Z</time></trkpt><trkpt lat="45.0512583" lon="9.6538617"><ele>57.0</ele><time>2026-03-27T17:01:03.649Z</time></trkpt><trkpt lat="45.0512783" lon="9.6537167"><ele>57.25</ele><time>2026-03-27T17:01:04.652Z</time></trkpt><trkpt lat="45.0512733" lon="9.6535467"><ele>57.5</ele><time>2026-03-27T17:01:05.65Z</time></trkpt><trkpt lat="45.0512667" lon="9.6533467"><ele>57.75</ele><time>2026-03-27T17:01:06.65Z</time></trkpt><trkpt lat="45.0512667" lon="9.653125"><ele>58.0</ele><time>2026-03-27T17:01:07.649Z</time></trkpt><trkpt lat="45.0512783" lon="9.65289"><ele>58.33333333333333</ele><time>2026-03-27T17:01:08.649Z</time></trkpt><trkpt lat="45.0512967" lon="9.65264"><ele>58.66666666666667</ele><time>2026-03-27T17:01:09.649Z</time></trkpt><trkpt lat="45.0513183" lon="9.652385"><ele>59.0</ele><time>2026-03-27T17:01:10.648Z</time></trkpt><trkpt lat="45.0513433" lon="9.6521233"><ele>59.0</ele><time>2026-03-27T17:01:11.647Z</time></trkpt><trkpt lat="45.0513683" lon="9.6518467"><ele>59.0</ele><time>2026-03-27T17:01:12.648Z</time></trkpt><trkpt lat="45.0513917" lon="9.651575"><ele>59.0</ele><time>2026-03-27T17:01:13.647Z</time></trkpt><trkpt lat="45.0514133" lon="9.6513233"><ele>59.0</ele><time>2026-03-27T17:01:14.648Z</time></trkpt><trkpt lat="45.0514367" lon="9.6510917"><ele>59.0</ele><time>2026-03-27T17:01:15.65Z</time></trkpt><trkpt lat="45.051465" lon="9.65088"><ele>59.0</ele><time>2026-03-27T17:01:16.665Z</time></trkpt><trkpt lat="45.051505" lon="9.6506733"><ele>59.0</ele><time>2026-03-27T17:01:17.649Z</time></trkpt><trkpt lat="45.0515483" lon="9.6504683"><ele>59.0</ele><time>2026-03-27T17:01:18.648Z</time></trkpt><trkpt lat="45.0515767" lon="9.6502733"><ele>59.0</ele><time>2026-03-27T17:01:19.649Z</time></trkpt><trkpt lat="45.0515933" lon="9.6501067"><ele>59.0</ele><time>2026-03-27T17:01:20.649Z</time></trkpt><trkpt lat="45.05161" lon="9.6499583"><ele>59.0</ele><time>2026-03-27T17:01:21.649Z</time></trkpt><trkpt lat="45.0516333" lon="9.649835"><ele>59.00000000000001</ele><time>2026-03-27T17:01:22.649Z</time></trkpt><trkpt lat="45.05166" lon="9.6497417"><ele>59.00000000000001</ele><time>2026-03-27T17:01:23.651Z</time></trkpt><trkpt lat="45.0517967" lon="9.6497117"><ele>59.0</ele><time>2026-03-27T17:01:25.647Z</time></trkpt><trkpt lat="45.0518933" lon="9.6497367"><ele>59.0</ele><time>2026-03-27T17:01:26.649Z</time></trkpt><trkpt lat="45.0520133" lon="9.6497733"><ele>59.0</ele><time>2026-03-27T17:01:27.65Z</time></trkpt><trkpt lat="45.052145" lon="9.6498117"><ele>59.0</ele><time>2026-03-27T17:01:28.647Z</time></trkpt><trkpt lat="45.0522817" lon="9.6498633"><ele>59.0</ele><time>2026-03-27T17:01:29.647Z</time></trkpt><trkpt lat="45.052435" lon="9.6499083"><ele>59.0</ele><time>2026-03-27T17:01:30.647Z</time></trkpt><trkpt lat="45.0525883" lon="9.6499417"><ele>59.0</ele><time>2026-03-27T17:01:31.647Z</time></trkpt><trkpt lat="45.0527167" lon="9.6499767"><ele>59.00000000000001</ele><time>2026-03-27T17:01:32.648Z</time></trkpt><trkpt lat="45.0528183" lon="9.6500033"><ele>59.00000000000001</ele><time>2026-03-27T17:01:33.649Z</time></trkpt><trkpt lat="45.0529067" lon="9.6500317"><ele>59.0</ele><time>2026-03-27T17:01:34.647Z</time></trkpt><trkpt lat="45.0529817" lon="9.6500567"><ele>59.0</ele><time>2026-03-27T17:01:35.648Z</time></trkpt><trkpt lat="45.0530617" lon="9.6500783"><ele>59.00000000000001</ele><time>2026-03-27T17:01:36.648Z</time></trkpt><trkpt lat="45.05315" lon="9.6501017"><ele>59.0</ele><time>2026-03-27T17:01:37.65Z</time></trkpt><trkpt lat="45.0532367" lon="9.6501267"><ele>59.0</ele><time>2026-03-27T17:01:38.648Z</time></trkpt><trkpt lat="45.0533167" lon="9.6501433"><ele>59.0</ele><time>2026-03-27T17:01:39.647Z</time></trkpt><trkpt lat="45.0533883" lon="9.65015"><ele>59.00000000000001</ele><time>2026-03-27T17:01:40.647Z</time></trkpt><trkpt lat="45.0535017" lon="9.650115"><ele>59.0</ele><time>2026-03-27T17:01:42.647Z</time></trkpt><trkpt lat="45.0535617" lon="9.6500417"><ele>62.0</ele><time>2026-03-27T17:01:45.648Z</time></trkpt></trkseg></trk></gpx>